<?xml version="1.0" encoding="UTF-8" standalone="no" ?>
<gpx xmlns="http://www.topografix.com/GPX/1/1" xmlns:xsi="http://www.w3.org/2001/XMLSchema-instance" xsi:schemaLocation="http://www.topografix.com/GPX/1/1 http://www.topografix.com/GPX/1/1/gpx.xsd" version="1.1" creator="VisuGPX - https://www.visugpx.com">
  <metadata>
    <name>Grimpettes de Fontenay</name>
    <desc><![CDATA[Belle série de montées]]></desc>
  </metadata>
  <trk>
    <name><![CDATA[Grimpettes de Fontenay_1]]></name>
    <trkseg>
      <trkpt lat="47.63881" lon="4.34172">
        <ele>331.2</ele>
        <time>2026-05-20T07:50:49Z</time>
      </trkpt>
      <trkpt lat="47.63876" lon="4.34153">
        <ele>331.2</ele>
        <time>2026-05-20T07:50:50Z</time>
      </trkpt>
      <trkpt lat="47.63877" lon="4.34151">
        <ele>331.2</ele>
        <time>2026-05-20T07:50:51Z</time>
      </trkpt>
      <trkpt lat="47.63882" lon="4.34155">
        <ele>331</ele>
        <time>2026-05-20T07:50:52Z</time>
      </trkpt>
      <trkpt lat="47.63879" lon="4.34163">
        <ele>331</ele>
        <time>2026-05-20T07:50:53Z</time>
      </trkpt>
      <trkpt lat="47.63878" lon="4.34168">
        <ele>331.2</ele>
        <time>2026-05-20T07:50:54Z</time>
      </trkpt>
      <trkpt lat="47.63875" lon="4.34173">
        <ele>331</ele>
        <time>2026-05-20T07:50:55Z</time>
      </trkpt>
      <trkpt lat="47.63872" lon="4.34178">
        <ele>331</ele>
        <time>2026-05-20T07:50:56Z</time>
      </trkpt>
      <trkpt lat="47.63869" lon="4.34182">
        <ele>331</ele>
        <time>2026-05-20T07:50:57Z</time>
      </trkpt>
      <trkpt lat="47.63865" lon="4.34187">
        <ele>331</ele>
        <time>2026-05-20T07:50:58Z</time>
      </trkpt>
      <trkpt lat="47.63861" lon="4.34191">
        <ele>330.8</ele>
        <time>2026-05-20T07:50:59Z</time>
      </trkpt>
      <trkpt lat="47.63858" lon="4.34195">
        <ele>330.6</ele>
        <time>2026-05-20T07:51:00Z</time>
      </trkpt>
      <trkpt lat="47.63855" lon="4.342">
        <ele>330.2</ele>
        <time>2026-05-20T07:51:01Z</time>
      </trkpt>
      <trkpt lat="47.63851" lon="4.34204">
        <ele>330.6</ele>
        <time>2026-05-20T07:51:02Z</time>
      </trkpt>
      <trkpt lat="47.63846" lon="4.34207">
        <ele>330.8</ele>
        <time>2026-05-20T07:51:03Z</time>
      </trkpt>
      <trkpt lat="47.63841" lon="4.3421">
        <ele>330.8</ele>
        <time>2026-05-20T07:51:04Z</time>
      </trkpt>
      <trkpt lat="47.63835" lon="4.34213">
        <ele>330.8</ele>
        <time>2026-05-20T07:51:05Z</time>
      </trkpt>
      <trkpt lat="47.6383" lon="4.34214">
        <ele>330.6</ele>
        <time>2026-05-20T07:51:06Z</time>
      </trkpt>
      <trkpt lat="47.63824" lon="4.34214">
        <ele>330.4</ele>
        <time>2026-05-20T07:51:07Z</time>
      </trkpt>
      <trkpt lat="47.63819" lon="4.34212">
        <ele>330.2</ele>
        <time>2026-05-20T07:51:08Z</time>
      </trkpt>
      <trkpt lat="47.63814" lon="4.34212">
        <ele>330.2</ele>
        <time>2026-05-20T07:51:09Z</time>
      </trkpt>
      <trkpt lat="47.6381" lon="4.34213">
        <ele>330</ele>
        <time>2026-05-20T07:51:10Z</time>
      </trkpt>
      <trkpt lat="47.63805" lon="4.34218">
        <ele>330</ele>
        <time>2026-05-20T07:51:11Z</time>
      </trkpt>
      <trkpt lat="47.63802" lon="4.34224">
        <ele>329.8</ele>
        <time>2026-05-20T07:51:12Z</time>
      </trkpt>
      <trkpt lat="47.638" lon="4.34231">
        <ele>329.8</ele>
        <time>2026-05-20T07:51:13Z</time>
      </trkpt>
      <trkpt lat="47.63799" lon="4.34238">
        <ele>329.8</ele>
        <time>2026-05-20T07:51:14Z</time>
      </trkpt>
      <trkpt lat="47.63797" lon="4.34243">
        <ele>329.6</ele>
        <time>2026-05-20T07:51:15Z</time>
      </trkpt>
      <trkpt lat="47.63795" lon="4.34248">
        <ele>329.6</ele>
        <time>2026-05-20T07:51:16Z</time>
      </trkpt>
      <trkpt lat="47.63793" lon="4.34252">
        <ele>329.6</ele>
        <time>2026-05-20T07:51:17Z</time>
      </trkpt>
      <trkpt lat="47.63789" lon="4.34255">
        <ele>329.6</ele>
        <time>2026-05-20T07:51:18Z</time>
      </trkpt>
      <trkpt lat="47.63785" lon="4.34256">
        <ele>329.4</ele>
        <time>2026-05-20T07:51:19Z</time>
      </trkpt>
      <trkpt lat="47.63781" lon="4.34255">
        <ele>329.4</ele>
        <time>2026-05-20T07:51:20Z</time>
      </trkpt>
      <trkpt lat="47.63777" lon="4.34253">
        <ele>329.4</ele>
        <time>2026-05-20T07:51:21Z</time>
      </trkpt>
      <trkpt lat="47.63773" lon="4.3425">
        <ele>329.2</ele>
        <time>2026-05-20T07:51:22Z</time>
      </trkpt>
      <trkpt lat="47.63769" lon="4.34247">
        <ele>329.2</ele>
        <time>2026-05-20T07:51:23Z</time>
      </trkpt>
      <trkpt lat="47.63763" lon="4.34245">
        <ele>329.2</ele>
        <time>2026-05-20T07:51:24Z</time>
      </trkpt>
      <trkpt lat="47.63758" lon="4.34243">
        <ele>329</ele>
        <time>2026-05-20T07:51:25Z</time>
      </trkpt>
      <trkpt lat="47.63751" lon="4.34239">
        <ele>328.8</ele>
        <time>2026-05-20T07:51:26Z</time>
      </trkpt>
      <trkpt lat="47.63746" lon="4.34237">
        <ele>328.4</ele>
        <time>2026-05-20T07:51:27Z</time>
      </trkpt>
      <trkpt lat="47.6374" lon="4.34234">
        <ele>328.2</ele>
        <time>2026-05-20T07:51:28Z</time>
      </trkpt>
      <trkpt lat="47.63735" lon="4.34231">
        <ele>328.2</ele>
        <time>2026-05-20T07:51:29Z</time>
      </trkpt>
      <trkpt lat="47.63729" lon="4.34227">
        <ele>327.8</ele>
        <time>2026-05-20T07:51:30Z</time>
      </trkpt>
      <trkpt lat="47.63724" lon="4.34225">
        <ele>327.6</ele>
        <time>2026-05-20T07:51:31Z</time>
      </trkpt>
      <trkpt lat="47.63719" lon="4.34222">
        <ele>327</ele>
        <time>2026-05-20T07:51:32Z</time>
      </trkpt>
      <trkpt lat="47.63715" lon="4.34221">
        <ele>326.6</ele>
        <time>2026-05-20T07:51:33Z</time>
      </trkpt>
      <trkpt lat="47.63711" lon="4.34221">
        <ele>325.8</ele>
        <time>2026-05-20T07:51:34Z</time>
      </trkpt>
      <trkpt lat="47.63707" lon="4.34223">
        <ele>325.6</ele>
        <time>2026-05-20T07:51:35Z</time>
      </trkpt>
      <trkpt lat="47.63704" lon="4.34227">
        <ele>324.6</ele>
        <time>2026-05-20T07:51:36Z</time>
      </trkpt>
      <trkpt lat="47.63702" lon="4.34232">
        <ele>323.8</ele>
        <time>2026-05-20T07:51:37Z</time>
      </trkpt>
      <trkpt lat="47.63701" lon="4.34237">
        <ele>323.6</ele>
        <time>2026-05-20T07:51:38Z</time>
      </trkpt>
      <trkpt lat="47.637" lon="4.34242">
        <ele>323.4</ele>
        <time>2026-05-20T07:51:39Z</time>
      </trkpt>
      <trkpt lat="47.637" lon="4.34247">
        <ele>323.4</ele>
        <time>2026-05-20T07:51:40Z</time>
      </trkpt>
      <trkpt lat="47.637" lon="4.34253">
        <ele>323.2</ele>
        <time>2026-05-20T07:51:41Z</time>
      </trkpt>
      <trkpt lat="47.63699" lon="4.34259">
        <ele>323.2</ele>
        <time>2026-05-20T07:51:42Z</time>
      </trkpt>
      <trkpt lat="47.63699" lon="4.34264">
        <ele>323.2</ele>
        <time>2026-05-20T07:51:43Z</time>
      </trkpt>
      <trkpt lat="47.63699" lon="4.3427">
        <ele>323.2</ele>
        <time>2026-05-20T07:51:44Z</time>
      </trkpt>
      <trkpt lat="47.63699" lon="4.34276">
        <ele>323.2</ele>
        <time>2026-05-20T07:51:45Z</time>
      </trkpt>
      <trkpt lat="47.63698" lon="4.34281">
        <ele>323.2</ele>
        <time>2026-05-20T07:51:46Z</time>
      </trkpt>
      <trkpt lat="47.63699" lon="4.34285">
        <ele>323.4</ele>
        <time>2026-05-20T07:51:47Z</time>
      </trkpt>
      <trkpt lat="47.63699" lon="4.3429">
        <ele>323.4</ele>
        <time>2026-05-20T07:51:48Z</time>
      </trkpt>
      <trkpt lat="47.63699" lon="4.34295">
        <ele>323.6</ele>
        <time>2026-05-20T07:51:49Z</time>
      </trkpt>
      <trkpt lat="47.63699" lon="4.343">
        <ele>323.8</ele>
        <time>2026-05-20T07:51:50Z</time>
      </trkpt>
      <trkpt lat="47.63699" lon="4.34305">
        <ele>323.8</ele>
        <time>2026-05-20T07:51:51Z</time>
      </trkpt>
      <trkpt lat="47.637" lon="4.3431">
        <ele>324.2</ele>
        <time>2026-05-20T07:51:52Z</time>
      </trkpt>
      <trkpt lat="47.63701" lon="4.34315">
        <ele>324.6</ele>
        <time>2026-05-20T07:51:53Z</time>
      </trkpt>
      <trkpt lat="47.63702" lon="4.34319">
        <ele>325</ele>
        <time>2026-05-20T07:51:54Z</time>
      </trkpt>
      <trkpt lat="47.63702" lon="4.34323">
        <ele>325.2</ele>
        <time>2026-05-20T07:51:55Z</time>
      </trkpt>
      <trkpt lat="47.63703" lon="4.34327">
        <ele>325.4</ele>
        <time>2026-05-20T07:51:56Z</time>
      </trkpt>
      <trkpt lat="47.63705" lon="4.34333">
        <ele>325.6</ele>
        <time>2026-05-20T07:51:57Z</time>
      </trkpt>
      <trkpt lat="47.63706" lon="4.34338">
        <ele>325.6</ele>
        <time>2026-05-20T07:51:58Z</time>
      </trkpt>
      <trkpt lat="47.63707" lon="4.34343">
        <ele>325.6</ele>
        <time>2026-05-20T07:51:59Z</time>
      </trkpt>
      <trkpt lat="47.6371" lon="4.34347">
        <ele>325.6</ele>
        <time>2026-05-20T07:52:00Z</time>
      </trkpt>
      <trkpt lat="47.63712" lon="4.34353">
        <ele>325.6</ele>
        <time>2026-05-20T07:52:01Z</time>
      </trkpt>
      <trkpt lat="47.63716" lon="4.34357">
        <ele>325.6</ele>
        <time>2026-05-20T07:52:02Z</time>
      </trkpt>
      <trkpt lat="47.6372" lon="4.34363">
        <ele>325.6</ele>
        <time>2026-05-20T07:52:03Z</time>
      </trkpt>
      <trkpt lat="47.63723" lon="4.34367">
        <ele>325.4</ele>
        <time>2026-05-20T07:52:04Z</time>
      </trkpt>
      <trkpt lat="47.63727" lon="4.34371">
        <ele>325.2</ele>
        <time>2026-05-20T07:52:05Z</time>
      </trkpt>
      <trkpt lat="47.63732" lon="4.34377">
        <ele>324.8</ele>
        <time>2026-05-20T07:52:06Z</time>
      </trkpt>
      <trkpt lat="47.63737" lon="4.34384">
        <ele>324.6</ele>
        <time>2026-05-20T07:52:07Z</time>
      </trkpt>
      <trkpt lat="47.63744" lon="4.34391">
        <ele>324.2</ele>
        <time>2026-05-20T07:52:08Z</time>
      </trkpt>
      <trkpt lat="47.63749" lon="4.34398">
        <ele>324.2</ele>
        <time>2026-05-20T07:52:09Z</time>
      </trkpt>
      <trkpt lat="47.63755" lon="4.34405">
        <ele>323.6</ele>
        <time>2026-05-20T07:52:10Z</time>
      </trkpt>
      <trkpt lat="47.6376" lon="4.34411">
        <ele>323.4</ele>
        <time>2026-05-20T07:52:11Z</time>
      </trkpt>
      <trkpt lat="47.63766" lon="4.34417">
        <ele>323.2</ele>
        <time>2026-05-20T07:52:12Z</time>
      </trkpt>
      <trkpt lat="47.63772" lon="4.34423">
        <ele>323</ele>
        <time>2026-05-20T07:52:13Z</time>
      </trkpt>
      <trkpt lat="47.63778" lon="4.34428">
        <ele>322.8</ele>
        <time>2026-05-20T07:52:14Z</time>
      </trkpt>
      <trkpt lat="47.63783" lon="4.34433">
        <ele>322.6</ele>
        <time>2026-05-20T07:52:15Z</time>
      </trkpt>
      <trkpt lat="47.63788" lon="4.34438">
        <ele>322.6</ele>
        <time>2026-05-20T07:52:16Z</time>
      </trkpt>
      <trkpt lat="47.63793" lon="4.34444">
        <ele>322.6</ele>
        <time>2026-05-20T07:52:17Z</time>
      </trkpt>
      <trkpt lat="47.63799" lon="4.34451">
        <ele>322.6</ele>
        <time>2026-05-20T07:52:18Z</time>
      </trkpt>
      <trkpt lat="47.63804" lon="4.34457">
        <ele>322.6</ele>
        <time>2026-05-20T07:52:19Z</time>
      </trkpt>
      <trkpt lat="47.63809" lon="4.34461">
        <ele>322.6</ele>
        <time>2026-05-20T07:52:20Z</time>
      </trkpt>
      <trkpt lat="47.63813" lon="4.34465">
        <ele>322.6</ele>
        <time>2026-05-20T07:52:21Z</time>
      </trkpt>
      <trkpt lat="47.63816" lon="4.34469">
        <ele>322.6</ele>
        <time>2026-05-20T07:52:22Z</time>
      </trkpt>
      <trkpt lat="47.63818" lon="4.34473">
        <ele>322.6</ele>
        <time>2026-05-20T07:52:23Z</time>
      </trkpt>
      <trkpt lat="47.6382" lon="4.34478">
        <ele>323</ele>
        <time>2026-05-20T07:52:24Z</time>
      </trkpt>
      <trkpt lat="47.63823" lon="4.34483">
        <ele>323</ele>
        <time>2026-05-20T07:52:25Z</time>
      </trkpt>
      <trkpt lat="47.63827" lon="4.34489">
        <ele>323.4</ele>
        <time>2026-05-20T07:52:26Z</time>
      </trkpt>
      <trkpt lat="47.63831" lon="4.34494">
        <ele>323.4</ele>
        <time>2026-05-20T07:52:27Z</time>
      </trkpt>
      <trkpt lat="47.63834" lon="4.34499">
        <ele>323.8</ele>
        <time>2026-05-20T07:52:28Z</time>
      </trkpt>
      <trkpt lat="47.63837" lon="4.34505">
        <ele>324</ele>
        <time>2026-05-20T07:52:29Z</time>
      </trkpt>
      <trkpt lat="47.6384" lon="4.34511">
        <ele>324</ele>
        <time>2026-05-20T07:52:30Z</time>
      </trkpt>
      <trkpt lat="47.63843" lon="4.34516">
        <ele>324.2</ele>
        <time>2026-05-20T07:52:31Z</time>
      </trkpt>
      <trkpt lat="47.63846" lon="4.34521">
        <ele>324.2</ele>
        <time>2026-05-20T07:52:32Z</time>
      </trkpt>
      <trkpt lat="47.6385" lon="4.34525">
        <ele>324.2</ele>
        <time>2026-05-20T07:52:33Z</time>
      </trkpt>
      <trkpt lat="47.63853" lon="4.3453">
        <ele>324.2</ele>
        <time>2026-05-20T07:52:34Z</time>
      </trkpt>
      <trkpt lat="47.63856" lon="4.34537">
        <ele>324.2</ele>
        <time>2026-05-20T07:52:35Z</time>
      </trkpt>
      <trkpt lat="47.63859" lon="4.34545">
        <ele>324.2</ele>
        <time>2026-05-20T07:52:36Z</time>
      </trkpt>
      <trkpt lat="47.63861" lon="4.34551">
        <ele>324.2</ele>
        <time>2026-05-20T07:52:37Z</time>
      </trkpt>
      <trkpt lat="47.63863" lon="4.34558">
        <ele>324.2</ele>
        <time>2026-05-20T07:52:38Z</time>
      </trkpt>
      <trkpt lat="47.63866" lon="4.34564">
        <ele>324.2</ele>
        <time>2026-05-20T07:52:39Z</time>
      </trkpt>
      <trkpt lat="47.63871" lon="4.34571">
        <ele>324</ele>
        <time>2026-05-20T07:52:40Z</time>
      </trkpt>
      <trkpt lat="47.63876" lon="4.34579">
        <ele>323.6</ele>
        <time>2026-05-20T07:52:41Z</time>
      </trkpt>
      <trkpt lat="47.63879" lon="4.34586">
        <ele>323.6</ele>
        <time>2026-05-20T07:52:42Z</time>
      </trkpt>
      <trkpt lat="47.63882" lon="4.34592">
        <ele>323.4</ele>
        <time>2026-05-20T07:52:43Z</time>
      </trkpt>
      <trkpt lat="47.63885" lon="4.34597">
        <ele>323</ele>
        <time>2026-05-20T07:52:44Z</time>
      </trkpt>
      <trkpt lat="47.63889" lon="4.34603">
        <ele>323</ele>
        <time>2026-05-20T07:52:45Z</time>
      </trkpt>
      <trkpt lat="47.63892" lon="4.34609">
        <ele>322.6</ele>
        <time>2026-05-20T07:52:46Z</time>
      </trkpt>
      <trkpt lat="47.63895" lon="4.34615">
        <ele>322.6</ele>
        <time>2026-05-20T07:52:47Z</time>
      </trkpt>
      <trkpt lat="47.63899" lon="4.3462">
        <ele>322.4</ele>
        <time>2026-05-20T07:52:48Z</time>
      </trkpt>
      <trkpt lat="47.63905" lon="4.34626">
        <ele>322.4</ele>
        <time>2026-05-20T07:52:49Z</time>
      </trkpt>
      <trkpt lat="47.6391" lon="4.34633">
        <ele>322.4</ele>
        <time>2026-05-20T07:52:50Z</time>
      </trkpt>
      <trkpt lat="47.63914" lon="4.34638">
        <ele>322.2</ele>
        <time>2026-05-20T07:52:51Z</time>
      </trkpt>
      <trkpt lat="47.63919" lon="4.34643">
        <ele>322.2</ele>
        <time>2026-05-20T07:52:52Z</time>
      </trkpt>
      <trkpt lat="47.63922" lon="4.3465">
        <ele>322.2</ele>
        <time>2026-05-20T07:52:53Z</time>
      </trkpt>
      <trkpt lat="47.63924" lon="4.34657">
        <ele>322.2</ele>
        <time>2026-05-20T07:52:54Z</time>
      </trkpt>
      <trkpt lat="47.63928" lon="4.34665">
        <ele>322.2</ele>
        <time>2026-05-20T07:52:55Z</time>
      </trkpt>
      <trkpt lat="47.63932" lon="4.34674">
        <ele>322.2</ele>
        <time>2026-05-20T07:52:56Z</time>
      </trkpt>
      <trkpt lat="47.63935" lon="4.34678">
        <ele>322.4</ele>
        <time>2026-05-20T07:52:57Z</time>
      </trkpt>
      <trkpt lat="47.63939" lon="4.34683">
        <ele>322.4</ele>
        <time>2026-05-20T07:52:58Z</time>
      </trkpt>
      <trkpt lat="47.63942" lon="4.34687">
        <ele>322.4</ele>
        <time>2026-05-20T07:52:59Z</time>
      </trkpt>
      <trkpt lat="47.63945" lon="4.3469">
        <ele>322.4</ele>
        <time>2026-05-20T07:53:00Z</time>
      </trkpt>
      <trkpt lat="47.63948" lon="4.34692">
        <ele>322.4</ele>
        <time>2026-05-20T07:53:01Z</time>
      </trkpt>
      <trkpt lat="47.63951" lon="4.34696">
        <ele>322.6</ele>
        <time>2026-05-20T07:53:02Z</time>
      </trkpt>
      <trkpt lat="47.63953" lon="4.347">
        <ele>322.6</ele>
        <time>2026-05-20T07:53:03Z</time>
      </trkpt>
      <trkpt lat="47.63957" lon="4.34704">
        <ele>322.6</ele>
        <time>2026-05-20T07:53:04Z</time>
      </trkpt>
      <trkpt lat="47.6396" lon="4.34709">
        <ele>322.6</ele>
        <time>2026-05-20T07:53:05Z</time>
      </trkpt>
      <trkpt lat="47.63961" lon="4.34711">
        <ele>322.6</ele>
        <time>2026-05-20T07:53:06Z</time>
      </trkpt>
      <trkpt lat="47.63963" lon="4.34716">
        <ele>322.6</ele>
        <time>2026-05-20T07:53:07Z</time>
      </trkpt>
      <trkpt lat="47.63966" lon="4.34722">
        <ele>322.8</ele>
        <time>2026-05-20T07:53:08Z</time>
      </trkpt>
      <trkpt lat="47.63969" lon="4.34729">
        <ele>322.6</ele>
        <time>2026-05-20T07:53:09Z</time>
      </trkpt>
      <trkpt lat="47.63971" lon="4.34735">
        <ele>322.6</ele>
        <time>2026-05-20T07:53:10Z</time>
      </trkpt>
      <trkpt lat="47.63974" lon="4.34742">
        <ele>322.6</ele>
        <time>2026-05-20T07:53:11Z</time>
      </trkpt>
      <trkpt lat="47.63977" lon="4.34748">
        <ele>322.6</ele>
        <time>2026-05-20T07:53:12Z</time>
      </trkpt>
      <trkpt lat="47.6398" lon="4.34755">
        <ele>322.4</ele>
        <time>2026-05-20T07:53:13Z</time>
      </trkpt>
      <trkpt lat="47.63983" lon="4.34762">
        <ele>322.2</ele>
        <time>2026-05-20T07:53:14Z</time>
      </trkpt>
      <trkpt lat="47.63987" lon="4.34769">
        <ele>321.8</ele>
        <time>2026-05-20T07:53:15Z</time>
      </trkpt>
      <trkpt lat="47.63991" lon="4.34776">
        <ele>321.6</ele>
        <time>2026-05-20T07:53:16Z</time>
      </trkpt>
      <trkpt lat="47.63995" lon="4.34783">
        <ele>321.2</ele>
        <time>2026-05-20T07:53:17Z</time>
      </trkpt>
      <trkpt lat="47.63999" lon="4.3479">
        <ele>320.8</ele>
        <time>2026-05-20T07:53:18Z</time>
      </trkpt>
      <trkpt lat="47.64001" lon="4.34796">
        <ele>320.6</ele>
        <time>2026-05-20T07:53:19Z</time>
      </trkpt>
      <trkpt lat="47.64004" lon="4.34804">
        <ele>320.2</ele>
        <time>2026-05-20T07:53:20Z</time>
      </trkpt>
      <trkpt lat="47.64007" lon="4.34811">
        <ele>320.2</ele>
        <time>2026-05-20T07:53:21Z</time>
      </trkpt>
      <trkpt lat="47.64009" lon="4.34816">
        <ele>320</ele>
        <time>2026-05-20T07:53:22Z</time>
      </trkpt>
      <trkpt lat="47.64013" lon="4.34824">
        <ele>320</ele>
        <time>2026-05-20T07:53:23Z</time>
      </trkpt>
      <trkpt lat="47.64017" lon="4.34832">
        <ele>320</ele>
        <time>2026-05-20T07:53:24Z</time>
      </trkpt>
      <trkpt lat="47.6402" lon="4.3484">
        <ele>320</ele>
        <time>2026-05-20T07:53:25Z</time>
      </trkpt>
      <trkpt lat="47.64023" lon="4.34847">
        <ele>320</ele>
        <time>2026-05-20T07:53:26Z</time>
      </trkpt>
      <trkpt lat="47.64026" lon="4.34854">
        <ele>320</ele>
        <time>2026-05-20T07:53:27Z</time>
      </trkpt>
      <trkpt lat="47.64029" lon="4.34861">
        <ele>320</ele>
        <time>2026-05-20T07:53:28Z</time>
      </trkpt>
      <trkpt lat="47.64032" lon="4.3487">
        <ele>320</ele>
        <time>2026-05-20T07:53:29Z</time>
      </trkpt>
      <trkpt lat="47.64033" lon="4.34877">
        <ele>320</ele>
        <time>2026-05-20T07:53:30Z</time>
      </trkpt>
      <trkpt lat="47.64035" lon="4.34885">
        <ele>320</ele>
        <time>2026-05-20T07:53:31Z</time>
      </trkpt>
      <trkpt lat="47.64036" lon="4.34893">
        <ele>320</ele>
        <time>2026-05-20T07:53:32Z</time>
      </trkpt>
      <trkpt lat="47.64035" lon="4.34899">
        <ele>320</ele>
        <time>2026-05-20T07:53:33Z</time>
      </trkpt>
      <trkpt lat="47.64037" lon="4.34907">
        <ele>320</ele>
        <time>2026-05-20T07:53:34Z</time>
      </trkpt>
      <trkpt lat="47.64038" lon="4.34915">
        <ele>320</ele>
        <time>2026-05-20T07:53:35Z</time>
      </trkpt>
      <trkpt lat="47.64039" lon="4.34923">
        <ele>320</ele>
        <time>2026-05-20T07:53:36Z</time>
      </trkpt>
      <trkpt lat="47.64042" lon="4.3493">
        <ele>319.8</ele>
        <time>2026-05-20T07:53:37Z</time>
      </trkpt>
      <trkpt lat="47.64043" lon="4.34938">
        <ele>319.6</ele>
        <time>2026-05-20T07:53:38Z</time>
      </trkpt>
      <trkpt lat="47.6404" lon="4.3495">
        <ele>319.4</ele>
        <time>2026-05-20T07:53:39Z</time>
      </trkpt>
      <trkpt lat="47.64038" lon="4.34961">
        <ele>319</ele>
        <time>2026-05-20T07:53:40Z</time>
      </trkpt>
      <trkpt lat="47.64036" lon="4.34972">
        <ele>318.6</ele>
        <time>2026-05-20T07:53:41Z</time>
      </trkpt>
      <trkpt lat="47.64034" lon="4.34979">
        <ele>317.4</ele>
        <time>2026-05-20T07:53:42Z</time>
      </trkpt>
      <trkpt lat="47.64035" lon="4.34985">
        <ele>317</ele>
        <time>2026-05-20T07:53:43Z</time>
      </trkpt>
      <trkpt lat="47.64036" lon="4.34991">
        <ele>316.6</ele>
        <time>2026-05-20T07:53:44Z</time>
      </trkpt>
      <trkpt lat="47.64039" lon="4.34997">
        <ele>316.4</ele>
        <time>2026-05-20T07:53:45Z</time>
      </trkpt>
      <trkpt lat="47.64041" lon="4.34999">
        <ele>316.2</ele>
        <time>2026-05-20T07:53:46Z</time>
      </trkpt>
      <trkpt lat="47.64043" lon="4.35">
        <ele>316</ele>
        <time>2026-05-20T07:53:47Z</time>
      </trkpt>
      <trkpt lat="47.64045" lon="4.34999">
        <ele>316</ele>
        <time>2026-05-20T07:53:48Z</time>
      </trkpt>
      <trkpt lat="47.64048" lon="4.35">
        <ele>316</ele>
        <time>2026-05-20T07:53:49Z</time>
      </trkpt>
      <trkpt lat="47.6405" lon="4.35001">
        <ele>316.2</ele>
        <time>2026-05-20T07:53:50Z</time>
      </trkpt>
      <trkpt lat="47.64053" lon="4.35001">
        <ele>316.4</ele>
        <time>2026-05-20T07:53:51Z</time>
      </trkpt>
      <trkpt lat="47.64055" lon="4.35002">
        <ele>316.4</ele>
        <time>2026-05-20T07:53:52Z</time>
      </trkpt>
      <trkpt lat="47.64058" lon="4.35003">
        <ele>316.6</ele>
        <time>2026-05-20T07:53:53Z</time>
      </trkpt>
      <trkpt lat="47.6406" lon="4.35004">
        <ele>316.8</ele>
        <time>2026-05-20T07:53:54Z</time>
      </trkpt>
      <trkpt lat="47.64063" lon="4.35005">
        <ele>317.2</ele>
        <time>2026-05-20T07:53:55Z</time>
      </trkpt>
      <trkpt lat="47.64065" lon="4.35006">
        <ele>317.6</ele>
        <time>2026-05-20T07:53:56Z</time>
      </trkpt>
      <trkpt lat="47.64067" lon="4.35007">
        <ele>317.8</ele>
        <time>2026-05-20T07:53:57Z</time>
      </trkpt>
      <trkpt lat="47.6407" lon="4.35008">
        <ele>318</ele>
        <time>2026-05-20T07:53:58Z</time>
      </trkpt>
      <trkpt lat="47.64072" lon="4.35008">
        <ele>318.2</ele>
        <time>2026-05-20T07:53:59Z</time>
      </trkpt>
      <trkpt lat="47.64074" lon="4.35008">
        <ele>318.4</ele>
        <time>2026-05-20T07:54:00Z</time>
      </trkpt>
      <trkpt lat="47.64076" lon="4.35009">
        <ele>318.4</ele>
        <time>2026-05-20T07:54:01Z</time>
      </trkpt>
      <trkpt lat="47.64079" lon="4.3501">
        <ele>318.6</ele>
        <time>2026-05-20T07:54:02Z</time>
      </trkpt>
      <trkpt lat="47.64081" lon="4.35009">
        <ele>318.8</ele>
        <time>2026-05-20T07:54:03Z</time>
      </trkpt>
      <trkpt lat="47.64083" lon="4.3501">
        <ele>319.2</ele>
        <time>2026-05-20T07:54:04Z</time>
      </trkpt>
      <trkpt lat="47.64086" lon="4.35011">
        <ele>319.4</ele>
        <time>2026-05-20T07:54:05Z</time>
      </trkpt>
      <trkpt lat="47.64088" lon="4.35011">
        <ele>319.4</ele>
        <time>2026-05-20T07:54:06Z</time>
      </trkpt>
      <trkpt lat="47.64091" lon="4.35012">
        <ele>319.6</ele>
        <time>2026-05-20T07:54:07Z</time>
      </trkpt>
      <trkpt lat="47.64094" lon="4.35014">
        <ele>319.8</ele>
        <time>2026-05-20T07:54:08Z</time>
      </trkpt>
      <trkpt lat="47.64096" lon="4.35015">
        <ele>320</ele>
        <time>2026-05-20T07:54:09Z</time>
      </trkpt>
      <trkpt lat="47.64099" lon="4.35016">
        <ele>320.2</ele>
        <time>2026-05-20T07:54:10Z</time>
      </trkpt>
      <trkpt lat="47.64101" lon="4.35018">
        <ele>320.4</ele>
        <time>2026-05-20T07:54:11Z</time>
      </trkpt>
      <trkpt lat="47.64104" lon="4.35019">
        <ele>320.6</ele>
        <time>2026-05-20T07:54:12Z</time>
      </trkpt>
      <trkpt lat="47.64106" lon="4.3502">
        <ele>320.8</ele>
        <time>2026-05-20T07:54:13Z</time>
      </trkpt>
      <trkpt lat="47.64109" lon="4.35022">
        <ele>321</ele>
        <time>2026-05-20T07:54:14Z</time>
      </trkpt>
      <trkpt lat="47.64112" lon="4.35023">
        <ele>321.2</ele>
        <time>2026-05-20T07:54:15Z</time>
      </trkpt>
      <trkpt lat="47.64115" lon="4.35025">
        <ele>321.4</ele>
        <time>2026-05-20T07:54:16Z</time>
      </trkpt>
      <trkpt lat="47.64118" lon="4.35026">
        <ele>321.6</ele>
        <time>2026-05-20T07:54:17Z</time>
      </trkpt>
      <trkpt lat="47.64121" lon="4.35028">
        <ele>321.8</ele>
        <time>2026-05-20T07:54:18Z</time>
      </trkpt>
      <trkpt lat="47.64123" lon="4.3503">
        <ele>321.8</ele>
        <time>2026-05-20T07:54:19Z</time>
      </trkpt>
      <trkpt lat="47.64125" lon="4.35031">
        <ele>322</ele>
        <time>2026-05-20T07:54:20Z</time>
      </trkpt>
      <trkpt lat="47.64129" lon="4.35034">
        <ele>322</ele>
        <time>2026-05-20T07:54:21Z</time>
      </trkpt>
      <trkpt lat="47.64132" lon="4.35035">
        <ele>322</ele>
        <time>2026-05-20T07:54:22Z</time>
      </trkpt>
      <trkpt lat="47.64134" lon="4.35037">
        <ele>322.2</ele>
        <time>2026-05-20T07:54:23Z</time>
      </trkpt>
      <trkpt lat="47.64137" lon="4.35039">
        <ele>322.2</ele>
        <time>2026-05-20T07:54:24Z</time>
      </trkpt>
      <trkpt lat="47.6414" lon="4.35041">
        <ele>322.4</ele>
        <time>2026-05-20T07:54:25Z</time>
      </trkpt>
      <trkpt lat="47.64142" lon="4.35043">
        <ele>322.4</ele>
        <time>2026-05-20T07:54:26Z</time>
      </trkpt>
      <trkpt lat="47.64145" lon="4.35045">
        <ele>322.6</ele>
        <time>2026-05-20T07:54:27Z</time>
      </trkpt>
      <trkpt lat="47.64147" lon="4.35047">
        <ele>322.6</ele>
        <time>2026-05-20T07:54:28Z</time>
      </trkpt>
      <trkpt lat="47.6415" lon="4.35048">
        <ele>322.8</ele>
        <time>2026-05-20T07:54:29Z</time>
      </trkpt>
      <trkpt lat="47.64152" lon="4.3505">
        <ele>322.8</ele>
        <time>2026-05-20T07:54:30Z</time>
      </trkpt>
      <trkpt lat="47.64156" lon="4.35053">
        <ele>323</ele>
        <time>2026-05-20T07:54:31Z</time>
      </trkpt>
      <trkpt lat="47.64159" lon="4.35055">
        <ele>323.2</ele>
        <time>2026-05-20T07:54:32Z</time>
      </trkpt>
      <trkpt lat="47.64161" lon="4.35056">
        <ele>323.2</ele>
        <time>2026-05-20T07:54:33Z</time>
      </trkpt>
      <trkpt lat="47.64164" lon="4.35058">
        <ele>323.4</ele>
        <time>2026-05-20T07:54:35Z</time>
      </trkpt>
      <trkpt lat="47.64167" lon="4.3506">
        <ele>323.4</ele>
        <time>2026-05-20T07:54:36Z</time>
      </trkpt>
      <trkpt lat="47.6417" lon="4.35061">
        <ele>323.6</ele>
        <time>2026-05-20T07:54:37Z</time>
      </trkpt>
      <trkpt lat="47.64173" lon="4.35063">
        <ele>323.6</ele>
        <time>2026-05-20T07:54:38Z</time>
      </trkpt>
      <trkpt lat="47.64176" lon="4.35066">
        <ele>324</ele>
        <time>2026-05-20T07:54:39Z</time>
      </trkpt>
      <trkpt lat="47.64179" lon="4.35068">
        <ele>324</ele>
        <time>2026-05-20T07:54:40Z</time>
      </trkpt>
      <trkpt lat="47.64182" lon="4.3507">
        <ele>324.2</ele>
        <time>2026-05-20T07:54:41Z</time>
      </trkpt>
      <trkpt lat="47.64185" lon="4.35072">
        <ele>324.2</ele>
        <time>2026-05-20T07:54:42Z</time>
      </trkpt>
      <trkpt lat="47.64189" lon="4.35074">
        <ele>324.2</ele>
        <time>2026-05-20T07:54:43Z</time>
      </trkpt>
      <trkpt lat="47.64192" lon="4.35076">
        <ele>324.4</ele>
        <time>2026-05-20T07:54:44Z</time>
      </trkpt>
      <trkpt lat="47.64195" lon="4.35079">
        <ele>324.4</ele>
        <time>2026-05-20T07:54:45Z</time>
      </trkpt>
      <trkpt lat="47.64199" lon="4.35081">
        <ele>324.4</ele>
        <time>2026-05-20T07:54:46Z</time>
      </trkpt>
      <trkpt lat="47.64202" lon="4.35084">
        <ele>324.4</ele>
        <time>2026-05-20T07:54:47Z</time>
      </trkpt>
      <trkpt lat="47.64204" lon="4.35086">
        <ele>324.4</ele>
        <time>2026-05-20T07:54:48Z</time>
      </trkpt>
      <trkpt lat="47.64208" lon="4.35089">
        <ele>324.6</ele>
        <time>2026-05-20T07:54:49Z</time>
      </trkpt>
      <trkpt lat="47.64211" lon="4.35091">
        <ele>324.6</ele>
        <time>2026-05-20T07:54:50Z</time>
      </trkpt>
      <trkpt lat="47.64213" lon="4.35093">
        <ele>324.8</ele>
        <time>2026-05-20T07:54:51Z</time>
      </trkpt>
      <trkpt lat="47.64217" lon="4.35096">
        <ele>325</ele>
        <time>2026-05-20T07:54:52Z</time>
      </trkpt>
      <trkpt lat="47.6422" lon="4.35099">
        <ele>325.2</ele>
        <time>2026-05-20T07:54:53Z</time>
      </trkpt>
      <trkpt lat="47.64223" lon="4.35101">
        <ele>325.2</ele>
        <time>2026-05-20T07:54:54Z</time>
      </trkpt>
      <trkpt lat="47.64226" lon="4.35104">
        <ele>325.4</ele>
        <time>2026-05-20T07:54:55Z</time>
      </trkpt>
      <trkpt lat="47.64228" lon="4.35107">
        <ele>325.4</ele>
        <time>2026-05-20T07:54:56Z</time>
      </trkpt>
      <trkpt lat="47.64231" lon="4.35109">
        <ele>325.4</ele>
        <time>2026-05-20T07:54:57Z</time>
      </trkpt>
      <trkpt lat="47.64234" lon="4.35111">
        <ele>325.6</ele>
        <time>2026-05-20T07:54:58Z</time>
      </trkpt>
      <trkpt lat="47.64237" lon="4.35114">
        <ele>325.6</ele>
        <time>2026-05-20T07:54:59Z</time>
      </trkpt>
      <trkpt lat="47.6424" lon="4.35116">
        <ele>325.6</ele>
        <time>2026-05-20T07:55:00Z</time>
      </trkpt>
      <trkpt lat="47.64243" lon="4.35119">
        <ele>325.8</ele>
        <time>2026-05-20T07:55:01Z</time>
      </trkpt>
      <trkpt lat="47.64246" lon="4.35121">
        <ele>326</ele>
        <time>2026-05-20T07:55:02Z</time>
      </trkpt>
      <trkpt lat="47.64249" lon="4.35124">
        <ele>326</ele>
        <time>2026-05-20T07:55:03Z</time>
      </trkpt>
      <trkpt lat="47.64252" lon="4.35127">
        <ele>326.2</ele>
        <time>2026-05-20T07:55:04Z</time>
      </trkpt>
      <trkpt lat="47.64255" lon="4.3513">
        <ele>326.2</ele>
        <time>2026-05-20T07:55:05Z</time>
      </trkpt>
      <trkpt lat="47.64258" lon="4.35133">
        <ele>326.2</ele>
        <time>2026-05-20T07:55:06Z</time>
      </trkpt>
      <trkpt lat="47.64262" lon="4.35136">
        <ele>326.2</ele>
        <time>2026-05-20T07:55:07Z</time>
      </trkpt>
      <trkpt lat="47.64265" lon="4.35138">
        <ele>326.2</ele>
        <time>2026-05-20T07:55:08Z</time>
      </trkpt>
      <trkpt lat="47.64268" lon="4.35141">
        <ele>326.2</ele>
        <time>2026-05-20T07:55:09Z</time>
      </trkpt>
      <trkpt lat="47.64271" lon="4.35144">
        <ele>326.2</ele>
        <time>2026-05-20T07:55:10Z</time>
      </trkpt>
      <trkpt lat="47.64274" lon="4.35146">
        <ele>326.2</ele>
        <time>2026-05-20T07:55:11Z</time>
      </trkpt>
      <trkpt lat="47.64277" lon="4.35149">
        <ele>326.2</ele>
        <time>2026-05-20T07:55:12Z</time>
      </trkpt>
      <trkpt lat="47.6428" lon="4.35152">
        <ele>326.4</ele>
        <time>2026-05-20T07:55:13Z</time>
      </trkpt>
      <trkpt lat="47.64282" lon="4.35154">
        <ele>326.4</ele>
        <time>2026-05-20T07:55:14Z</time>
      </trkpt>
      <trkpt lat="47.64286" lon="4.35157">
        <ele>326.4</ele>
        <time>2026-05-20T07:55:15Z</time>
      </trkpt>
      <trkpt lat="47.64289" lon="4.3516">
        <ele>326.4</ele>
        <time>2026-05-20T07:55:16Z</time>
      </trkpt>
      <trkpt lat="47.64292" lon="4.35163">
        <ele>326.4</ele>
        <time>2026-05-20T07:55:17Z</time>
      </trkpt>
      <trkpt lat="47.64294" lon="4.35165">
        <ele>326.4</ele>
        <time>2026-05-20T07:55:18Z</time>
      </trkpt>
      <trkpt lat="47.64298" lon="4.35169">
        <ele>326.4</ele>
        <time>2026-05-20T07:55:19Z</time>
      </trkpt>
      <trkpt lat="47.64301" lon="4.35172">
        <ele>326.6</ele>
        <time>2026-05-20T07:55:20Z</time>
      </trkpt>
      <trkpt lat="47.64304" lon="4.35175">
        <ele>326.6</ele>
        <time>2026-05-20T07:55:21Z</time>
      </trkpt>
      <trkpt lat="47.64307" lon="4.35178">
        <ele>326.8</ele>
        <time>2026-05-20T07:55:22Z</time>
      </trkpt>
      <trkpt lat="47.6431" lon="4.35181">
        <ele>326.8</ele>
        <time>2026-05-20T07:55:23Z</time>
      </trkpt>
      <trkpt lat="47.64313" lon="4.35184">
        <ele>326.8</ele>
        <time>2026-05-20T07:55:24Z</time>
      </trkpt>
      <trkpt lat="47.64316" lon="4.35187">
        <ele>327</ele>
        <time>2026-05-20T07:55:25Z</time>
      </trkpt>
      <trkpt lat="47.64319" lon="4.3519">
        <ele>327</ele>
        <time>2026-05-20T07:55:26Z</time>
      </trkpt>
      <trkpt lat="47.64323" lon="4.35193">
        <ele>327</ele>
        <time>2026-05-20T07:55:27Z</time>
      </trkpt>
      <trkpt lat="47.64326" lon="4.35196">
        <ele>327</ele>
        <time>2026-05-20T07:55:28Z</time>
      </trkpt>
      <trkpt lat="47.64329" lon="4.35198">
        <ele>327.2</ele>
        <time>2026-05-20T07:55:29Z</time>
      </trkpt>
      <trkpt lat="47.64333" lon="4.35201">
        <ele>327.2</ele>
        <time>2026-05-20T07:55:30Z</time>
      </trkpt>
      <trkpt lat="47.64336" lon="4.35204">
        <ele>327.2</ele>
        <time>2026-05-20T07:55:31Z</time>
      </trkpt>
      <trkpt lat="47.64339" lon="4.35207">
        <ele>327.2</ele>
        <time>2026-05-20T07:55:32Z</time>
      </trkpt>
      <trkpt lat="47.64342" lon="4.35209">
        <ele>327.4</ele>
        <time>2026-05-20T07:55:33Z</time>
      </trkpt>
      <trkpt lat="47.64345" lon="4.35212">
        <ele>327.4</ele>
        <time>2026-05-20T07:55:34Z</time>
      </trkpt>
      <trkpt lat="47.64348" lon="4.35214">
        <ele>327.6</ele>
        <time>2026-05-20T07:55:35Z</time>
      </trkpt>
      <trkpt lat="47.64351" lon="4.35217">
        <ele>327.6</ele>
        <time>2026-05-20T07:55:36Z</time>
      </trkpt>
      <trkpt lat="47.64355" lon="4.35219">
        <ele>327.8</ele>
        <time>2026-05-20T07:55:37Z</time>
      </trkpt>
      <trkpt lat="47.64358" lon="4.35222">
        <ele>328</ele>
        <time>2026-05-20T07:55:38Z</time>
      </trkpt>
      <trkpt lat="47.64361" lon="4.35224">
        <ele>328</ele>
        <time>2026-05-20T07:55:39Z</time>
      </trkpt>
      <trkpt lat="47.64364" lon="4.35227">
        <ele>328</ele>
        <time>2026-05-20T07:55:40Z</time>
      </trkpt>
      <trkpt lat="47.64367" lon="4.3523">
        <ele>328.2</ele>
        <time>2026-05-20T07:55:41Z</time>
      </trkpt>
      <trkpt lat="47.6437" lon="4.35233">
        <ele>328.4</ele>
        <time>2026-05-20T07:55:42Z</time>
      </trkpt>
      <trkpt lat="47.64373" lon="4.35235">
        <ele>328.4</ele>
        <time>2026-05-20T07:55:43Z</time>
      </trkpt>
      <trkpt lat="47.64376" lon="4.35238">
        <ele>328.4</ele>
        <time>2026-05-20T07:55:44Z</time>
      </trkpt>
      <trkpt lat="47.64379" lon="4.3524">
        <ele>328.4</ele>
        <time>2026-05-20T07:55:45Z</time>
      </trkpt>
      <trkpt lat="47.64382" lon="4.35242">
        <ele>328.6</ele>
        <time>2026-05-20T07:55:46Z</time>
      </trkpt>
      <trkpt lat="47.64385" lon="4.35245">
        <ele>328.6</ele>
        <time>2026-05-20T07:55:47Z</time>
      </trkpt>
      <trkpt lat="47.64388" lon="4.35247">
        <ele>328.6</ele>
        <time>2026-05-20T07:55:48Z</time>
      </trkpt>
      <trkpt lat="47.6439" lon="4.35249">
        <ele>328.8</ele>
        <time>2026-05-20T07:55:49Z</time>
      </trkpt>
      <trkpt lat="47.64393" lon="4.35253">
        <ele>329</ele>
        <time>2026-05-20T07:55:50Z</time>
      </trkpt>
      <trkpt lat="47.64396" lon="4.35255">
        <ele>329.2</ele>
        <time>2026-05-20T07:55:51Z</time>
      </trkpt>
      <trkpt lat="47.64399" lon="4.35258">
        <ele>329.4</ele>
        <time>2026-05-20T07:55:52Z</time>
      </trkpt>
      <trkpt lat="47.64402" lon="4.3526">
        <ele>329.6</ele>
        <time>2026-05-20T07:55:53Z</time>
      </trkpt>
      <trkpt lat="47.64406" lon="4.35262">
        <ele>329.6</ele>
        <time>2026-05-20T07:55:54Z</time>
      </trkpt>
      <trkpt lat="47.64409" lon="4.35264">
        <ele>329.8</ele>
        <time>2026-05-20T07:55:55Z</time>
      </trkpt>
      <trkpt lat="47.64412" lon="4.35265">
        <ele>330</ele>
        <time>2026-05-20T07:55:56Z</time>
      </trkpt>
      <trkpt lat="47.64416" lon="4.35267">
        <ele>330</ele>
        <time>2026-05-20T07:55:57Z</time>
      </trkpt>
      <trkpt lat="47.64419" lon="4.35269">
        <ele>330</ele>
        <time>2026-05-20T07:55:58Z</time>
      </trkpt>
      <trkpt lat="47.64422" lon="4.35271">
        <ele>330.2</ele>
        <time>2026-05-20T07:55:59Z</time>
      </trkpt>
      <trkpt lat="47.64425" lon="4.35271">
        <ele>330.4</ele>
        <time>2026-05-20T07:56:00Z</time>
      </trkpt>
      <trkpt lat="47.64429" lon="4.35272">
        <ele>330.4</ele>
        <time>2026-05-20T07:56:01Z</time>
      </trkpt>
      <trkpt lat="47.64432" lon="4.35274">
        <ele>330.6</ele>
        <time>2026-05-20T07:56:02Z</time>
      </trkpt>
      <trkpt lat="47.64435" lon="4.35275">
        <ele>330.6</ele>
        <time>2026-05-20T07:56:03Z</time>
      </trkpt>
      <trkpt lat="47.64438" lon="4.35277">
        <ele>330.8</ele>
        <time>2026-05-20T07:56:04Z</time>
      </trkpt>
      <trkpt lat="47.64442" lon="4.35279">
        <ele>331</ele>
        <time>2026-05-20T07:56:05Z</time>
      </trkpt>
      <trkpt lat="47.64444" lon="4.35281">
        <ele>331</ele>
        <time>2026-05-20T07:56:06Z</time>
      </trkpt>
      <trkpt lat="47.64447" lon="4.35283">
        <ele>331</ele>
        <time>2026-05-20T07:56:07Z</time>
      </trkpt>
      <trkpt lat="47.6445" lon="4.35284">
        <ele>331.2</ele>
        <time>2026-05-20T07:56:08Z</time>
      </trkpt>
      <trkpt lat="47.64453" lon="4.35285">
        <ele>331.4</ele>
        <time>2026-05-20T07:56:09Z</time>
      </trkpt>
      <trkpt lat="47.64456" lon="4.35287">
        <ele>331.6</ele>
        <time>2026-05-20T07:56:10Z</time>
      </trkpt>
      <trkpt lat="47.64459" lon="4.35288">
        <ele>331.6</ele>
        <time>2026-05-20T07:56:11Z</time>
      </trkpt>
      <trkpt lat="47.64462" lon="4.3529">
        <ele>331.8</ele>
        <time>2026-05-20T07:56:12Z</time>
      </trkpt>
      <trkpt lat="47.64464" lon="4.35292">
        <ele>332</ele>
        <time>2026-05-20T07:56:13Z</time>
      </trkpt>
      <trkpt lat="47.64467" lon="4.35294">
        <ele>332.2</ele>
        <time>2026-05-20T07:56:14Z</time>
      </trkpt>
      <trkpt lat="47.6447" lon="4.35295">
        <ele>332.4</ele>
        <time>2026-05-20T07:56:15Z</time>
      </trkpt>
      <trkpt lat="47.64472" lon="4.35297">
        <ele>332.8</ele>
        <time>2026-05-20T07:56:16Z</time>
      </trkpt>
      <trkpt lat="47.64475" lon="4.35299">
        <ele>333</ele>
        <time>2026-05-20T07:56:17Z</time>
      </trkpt>
      <trkpt lat="47.64477" lon="4.353">
        <ele>333</ele>
        <time>2026-05-20T07:56:18Z</time>
      </trkpt>
      <trkpt lat="47.6448" lon="4.35302">
        <ele>333.2</ele>
        <time>2026-05-20T07:56:19Z</time>
      </trkpt>
      <trkpt lat="47.64483" lon="4.35303">
        <ele>333.4</ele>
        <time>2026-05-20T07:56:20Z</time>
      </trkpt>
      <trkpt lat="47.64485" lon="4.35305">
        <ele>333.4</ele>
        <time>2026-05-20T07:56:21Z</time>
      </trkpt>
      <trkpt lat="47.64488" lon="4.35306">
        <ele>333.6</ele>
        <time>2026-05-20T07:56:22Z</time>
      </trkpt>
      <trkpt lat="47.64491" lon="4.35309">
        <ele>333.8</ele>
        <time>2026-05-20T07:56:23Z</time>
      </trkpt>
      <trkpt lat="47.64493" lon="4.35311">
        <ele>334</ele>
        <time>2026-05-20T07:56:24Z</time>
      </trkpt>
      <trkpt lat="47.64496" lon="4.35313">
        <ele>334.2</ele>
        <time>2026-05-20T07:56:25Z</time>
      </trkpt>
      <trkpt lat="47.64499" lon="4.35315">
        <ele>334.4</ele>
        <time>2026-05-20T07:56:26Z</time>
      </trkpt>
      <trkpt lat="47.64501" lon="4.35317">
        <ele>334.8</ele>
        <time>2026-05-20T07:56:27Z</time>
      </trkpt>
      <trkpt lat="47.64503" lon="4.35319">
        <ele>335.2</ele>
        <time>2026-05-20T07:56:28Z</time>
      </trkpt>
      <trkpt lat="47.64506" lon="4.35321">
        <ele>335.4</ele>
        <time>2026-05-20T07:56:29Z</time>
      </trkpt>
      <trkpt lat="47.64508" lon="4.35323">
        <ele>335.6</ele>
        <time>2026-05-20T07:56:30Z</time>
      </trkpt>
      <trkpt lat="47.6451" lon="4.35325">
        <ele>335.8</ele>
        <time>2026-05-20T07:56:31Z</time>
      </trkpt>
      <trkpt lat="47.64512" lon="4.35327">
        <ele>336</ele>
        <time>2026-05-20T07:56:32Z</time>
      </trkpt>
      <trkpt lat="47.64515" lon="4.35329">
        <ele>336</ele>
        <time>2026-05-20T07:56:33Z</time>
      </trkpt>
      <trkpt lat="47.64517" lon="4.35331">
        <ele>336.2</ele>
        <time>2026-05-20T07:56:34Z</time>
      </trkpt>
      <trkpt lat="47.64519" lon="4.35333">
        <ele>336.4</ele>
        <time>2026-05-20T07:56:35Z</time>
      </trkpt>
      <trkpt lat="47.64521" lon="4.35335">
        <ele>336.6</ele>
        <time>2026-05-20T07:56:36Z</time>
      </trkpt>
      <trkpt lat="47.64523" lon="4.35337">
        <ele>336.6</ele>
        <time>2026-05-20T07:56:37Z</time>
      </trkpt>
      <trkpt lat="47.64524" lon="4.3534">
        <ele>337</ele>
        <time>2026-05-20T07:56:38Z</time>
      </trkpt>
      <trkpt lat="47.64526" lon="4.35342">
        <ele>337</ele>
        <time>2026-05-20T07:56:39Z</time>
      </trkpt>
      <trkpt lat="47.64528" lon="4.35345">
        <ele>337.4</ele>
        <time>2026-05-20T07:56:40Z</time>
      </trkpt>
      <trkpt lat="47.64529" lon="4.35348">
        <ele>337.8</ele>
        <time>2026-05-20T07:56:41Z</time>
      </trkpt>
      <trkpt lat="47.64531" lon="4.35351">
        <ele>337.8</ele>
        <time>2026-05-20T07:56:42Z</time>
      </trkpt>
      <trkpt lat="47.64532" lon="4.35354">
        <ele>338</ele>
        <time>2026-05-20T07:56:43Z</time>
      </trkpt>
      <trkpt lat="47.64532" lon="4.35357">
        <ele>338</ele>
        <time>2026-05-20T07:56:44Z</time>
      </trkpt>
      <trkpt lat="47.64533" lon="4.35361">
        <ele>338.4</ele>
        <time>2026-05-20T07:56:45Z</time>
      </trkpt>
      <trkpt lat="47.64532" lon="4.35364">
        <ele>338.4</ele>
        <time>2026-05-20T07:56:46Z</time>
      </trkpt>
      <trkpt lat="47.64532" lon="4.35367">
        <ele>338.6</ele>
        <time>2026-05-20T07:56:47Z</time>
      </trkpt>
      <trkpt lat="47.64531" lon="4.3537">
        <ele>338.8</ele>
        <time>2026-05-20T07:56:48Z</time>
      </trkpt>
      <trkpt lat="47.6453" lon="4.35373">
        <ele>339.4</ele>
        <time>2026-05-20T07:56:49Z</time>
      </trkpt>
      <trkpt lat="47.64528" lon="4.35375">
        <ele>339.8</ele>
        <time>2026-05-20T07:56:50Z</time>
      </trkpt>
      <trkpt lat="47.64527" lon="4.35378">
        <ele>339.8</ele>
        <time>2026-05-20T07:56:51Z</time>
      </trkpt>
      <trkpt lat="47.64525" lon="4.35381">
        <ele>340.2</ele>
        <time>2026-05-20T07:56:52Z</time>
      </trkpt>
      <trkpt lat="47.64524" lon="4.35383">
        <ele>340.4</ele>
        <time>2026-05-20T07:56:53Z</time>
      </trkpt>
      <trkpt lat="47.64523" lon="4.35386">
        <ele>340.8</ele>
        <time>2026-05-20T07:56:54Z</time>
      </trkpt>
      <trkpt lat="47.64521" lon="4.35389">
        <ele>341</ele>
        <time>2026-05-20T07:56:55Z</time>
      </trkpt>
      <trkpt lat="47.64519" lon="4.35392">
        <ele>341.2</ele>
        <time>2026-05-20T07:56:56Z</time>
      </trkpt>
      <trkpt lat="47.64517" lon="4.35395">
        <ele>341.4</ele>
        <time>2026-05-20T07:56:57Z</time>
      </trkpt>
      <trkpt lat="47.64516" lon="4.35397">
        <ele>341.6</ele>
        <time>2026-05-20T07:56:58Z</time>
      </trkpt>
      <trkpt lat="47.64514" lon="4.35401">
        <ele>341.8</ele>
        <time>2026-05-20T07:56:59Z</time>
      </trkpt>
      <trkpt lat="47.64513" lon="4.35404">
        <ele>341.8</ele>
        <time>2026-05-20T07:57:00Z</time>
      </trkpt>
      <trkpt lat="47.64511" lon="4.35407">
        <ele>342</ele>
        <time>2026-05-20T07:57:01Z</time>
      </trkpt>
      <trkpt lat="47.64509" lon="4.3541">
        <ele>342</ele>
        <time>2026-05-20T07:57:02Z</time>
      </trkpt>
      <trkpt lat="47.64507" lon="4.35414">
        <ele>342.2</ele>
        <time>2026-05-20T07:57:03Z</time>
      </trkpt>
      <trkpt lat="47.64506" lon="4.35417">
        <ele>342.2</ele>
        <time>2026-05-20T07:57:04Z</time>
      </trkpt>
      <trkpt lat="47.64505" lon="4.3542">
        <ele>342.4</ele>
        <time>2026-05-20T07:57:05Z</time>
      </trkpt>
      <trkpt lat="47.64503" lon="4.35424">
        <ele>342.6</ele>
        <time>2026-05-20T07:57:06Z</time>
      </trkpt>
      <trkpt lat="47.64502" lon="4.35428">
        <ele>342.8</ele>
        <time>2026-05-20T07:57:07Z</time>
      </trkpt>
      <trkpt lat="47.645" lon="4.35431">
        <ele>343</ele>
        <time>2026-05-20T07:57:08Z</time>
      </trkpt>
      <trkpt lat="47.64498" lon="4.35435">
        <ele>343</ele>
        <time>2026-05-20T07:57:09Z</time>
      </trkpt>
      <trkpt lat="47.64496" lon="4.35438">
        <ele>343.2</ele>
        <time>2026-05-20T07:57:10Z</time>
      </trkpt>
      <trkpt lat="47.64494" lon="4.35442">
        <ele>343.2</ele>
        <time>2026-05-20T07:57:11Z</time>
      </trkpt>
      <trkpt lat="47.64492" lon="4.35445">
        <ele>343.4</ele>
        <time>2026-05-20T07:57:12Z</time>
      </trkpt>
      <trkpt lat="47.6449" lon="4.35448">
        <ele>343.4</ele>
        <time>2026-05-20T07:57:13Z</time>
      </trkpt>
      <trkpt lat="47.64488" lon="4.35451">
        <ele>343.4</ele>
        <time>2026-05-20T07:57:14Z</time>
      </trkpt>
      <trkpt lat="47.64487" lon="4.35454">
        <ele>343.6</ele>
        <time>2026-05-20T07:57:15Z</time>
      </trkpt>
      <trkpt lat="47.64485" lon="4.35458">
        <ele>343.8</ele>
        <time>2026-05-20T07:57:16Z</time>
      </trkpt>
      <trkpt lat="47.64483" lon="4.35462">
        <ele>344</ele>
        <time>2026-05-20T07:57:17Z</time>
      </trkpt>
      <trkpt lat="47.64482" lon="4.35465">
        <ele>344.2</ele>
        <time>2026-05-20T07:57:18Z</time>
      </trkpt>
      <trkpt lat="47.6448" lon="4.35469">
        <ele>344.6</ele>
        <time>2026-05-20T07:57:19Z</time>
      </trkpt>
      <trkpt lat="47.64479" lon="4.35473">
        <ele>344.6</ele>
        <time>2026-05-20T07:57:20Z</time>
      </trkpt>
      <trkpt lat="47.64477" lon="4.35477">
        <ele>344.8</ele>
        <time>2026-05-20T07:57:21Z</time>
      </trkpt>
      <trkpt lat="47.64475" lon="4.3548">
        <ele>344.8</ele>
        <time>2026-05-20T07:57:22Z</time>
      </trkpt>
      <trkpt lat="47.64473" lon="4.35484">
        <ele>345.2</ele>
        <time>2026-05-20T07:57:23Z</time>
      </trkpt>
      <trkpt lat="47.64471" lon="4.35488">
        <ele>345.4</ele>
        <time>2026-05-20T07:57:24Z</time>
      </trkpt>
      <trkpt lat="47.64469" lon="4.35492">
        <ele>345.6</ele>
        <time>2026-05-20T07:57:25Z</time>
      </trkpt>
      <trkpt lat="47.64467" lon="4.35496">
        <ele>345.8</ele>
        <time>2026-05-20T07:57:26Z</time>
      </trkpt>
      <trkpt lat="47.64465" lon="4.355">
        <ele>345.8</ele>
        <time>2026-05-20T07:57:27Z</time>
      </trkpt>
      <trkpt lat="47.64463" lon="4.35504">
        <ele>346</ele>
        <time>2026-05-20T07:57:28Z</time>
      </trkpt>
      <trkpt lat="47.64461" lon="4.35508">
        <ele>346</ele>
        <time>2026-05-20T07:57:29Z</time>
      </trkpt>
      <trkpt lat="47.64459" lon="4.35512">
        <ele>346</ele>
        <time>2026-05-20T07:57:30Z</time>
      </trkpt>
      <trkpt lat="47.64457" lon="4.35516">
        <ele>346</ele>
        <time>2026-05-20T07:57:31Z</time>
      </trkpt>
      <trkpt lat="47.64456" lon="4.3552">
        <ele>346.2</ele>
        <time>2026-05-20T07:57:32Z</time>
      </trkpt>
      <trkpt lat="47.64454" lon="4.35524">
        <ele>346.2</ele>
        <time>2026-05-20T07:57:33Z</time>
      </trkpt>
      <trkpt lat="47.64452" lon="4.35527">
        <ele>346.2</ele>
        <time>2026-05-20T07:57:34Z</time>
      </trkpt>
      <trkpt lat="47.6445" lon="4.35531">
        <ele>346.2</ele>
        <time>2026-05-20T07:57:35Z</time>
      </trkpt>
      <trkpt lat="47.64448" lon="4.35534">
        <ele>346.2</ele>
        <time>2026-05-20T07:57:36Z</time>
      </trkpt>
      <trkpt lat="47.64446" lon="4.35538">
        <ele>346.4</ele>
        <time>2026-05-20T07:57:37Z</time>
      </trkpt>
      <trkpt lat="47.64444" lon="4.35542">
        <ele>346.4</ele>
        <time>2026-05-20T07:57:38Z</time>
      </trkpt>
      <trkpt lat="47.64442" lon="4.35546">
        <ele>346.6</ele>
        <time>2026-05-20T07:57:39Z</time>
      </trkpt>
      <trkpt lat="47.6444" lon="4.3555">
        <ele>346.6</ele>
        <time>2026-05-20T07:57:40Z</time>
      </trkpt>
      <trkpt lat="47.64438" lon="4.35554">
        <ele>346.6</ele>
        <time>2026-05-20T07:57:41Z</time>
      </trkpt>
      <trkpt lat="47.64437" lon="4.35559">
        <ele>346.8</ele>
        <time>2026-05-20T07:57:42Z</time>
      </trkpt>
      <trkpt lat="47.64435" lon="4.35563">
        <ele>346.8</ele>
        <time>2026-05-20T07:57:43Z</time>
      </trkpt>
      <trkpt lat="47.64433" lon="4.35567">
        <ele>347.2</ele>
        <time>2026-05-20T07:57:44Z</time>
      </trkpt>
      <trkpt lat="47.64431" lon="4.35571">
        <ele>347.2</ele>
        <time>2026-05-20T07:57:45Z</time>
      </trkpt>
      <trkpt lat="47.64429" lon="4.35574">
        <ele>347.6</ele>
        <time>2026-05-20T07:57:46Z</time>
      </trkpt>
      <trkpt lat="47.64427" lon="4.35578">
        <ele>347.6</ele>
        <time>2026-05-20T07:57:47Z</time>
      </trkpt>
      <trkpt lat="47.64425" lon="4.35582">
        <ele>347.8</ele>
        <time>2026-05-20T07:57:48Z</time>
      </trkpt>
      <trkpt lat="47.64423" lon="4.35586">
        <ele>348</ele>
        <time>2026-05-20T07:57:49Z</time>
      </trkpt>
      <trkpt lat="47.64421" lon="4.3559">
        <ele>348</ele>
        <time>2026-05-20T07:57:50Z</time>
      </trkpt>
      <trkpt lat="47.64419" lon="4.35594">
        <ele>348</ele>
        <time>2026-05-20T07:57:51Z</time>
      </trkpt>
      <trkpt lat="47.64416" lon="4.35598">
        <ele>348</ele>
        <time>2026-05-20T07:57:52Z</time>
      </trkpt>
      <trkpt lat="47.64414" lon="4.35602">
        <ele>348.2</ele>
        <time>2026-05-20T07:57:53Z</time>
      </trkpt>
      <trkpt lat="47.64412" lon="4.35606">
        <ele>348.2</ele>
        <time>2026-05-20T07:57:54Z</time>
      </trkpt>
      <trkpt lat="47.6441" lon="4.3561">
        <ele>348.2</ele>
        <time>2026-05-20T07:57:55Z</time>
      </trkpt>
      <trkpt lat="47.64408" lon="4.35614">
        <ele>348.2</ele>
        <time>2026-05-20T07:57:56Z</time>
      </trkpt>
      <trkpt lat="47.64406" lon="4.35618">
        <ele>348.4</ele>
        <time>2026-05-20T07:57:57Z</time>
      </trkpt>
      <trkpt lat="47.64404" lon="4.35622">
        <ele>348.4</ele>
        <time>2026-05-20T07:57:58Z</time>
      </trkpt>
      <trkpt lat="47.64402" lon="4.35626">
        <ele>348.4</ele>
        <time>2026-05-20T07:57:59Z</time>
      </trkpt>
      <trkpt lat="47.644" lon="4.35631">
        <ele>348.4</ele>
        <time>2026-05-20T07:58:00Z</time>
      </trkpt>
      <trkpt lat="47.64399" lon="4.35635">
        <ele>348.4</ele>
        <time>2026-05-20T07:58:01Z</time>
      </trkpt>
      <trkpt lat="47.64397" lon="4.35639">
        <ele>348.6</ele>
        <time>2026-05-20T07:58:02Z</time>
      </trkpt>
      <trkpt lat="47.64395" lon="4.35643">
        <ele>348.6</ele>
        <time>2026-05-20T07:58:03Z</time>
      </trkpt>
      <trkpt lat="47.64393" lon="4.35648">
        <ele>348.8</ele>
        <time>2026-05-20T07:58:04Z</time>
      </trkpt>
      <trkpt lat="47.6439" lon="4.35652">
        <ele>349</ele>
        <time>2026-05-20T07:58:05Z</time>
      </trkpt>
      <trkpt lat="47.64388" lon="4.35656">
        <ele>349.2</ele>
        <time>2026-05-20T07:58:06Z</time>
      </trkpt>
      <trkpt lat="47.64386" lon="4.35661">
        <ele>349.2</ele>
        <time>2026-05-20T07:58:07Z</time>
      </trkpt>
      <trkpt lat="47.64384" lon="4.35665">
        <ele>349.2</ele>
        <time>2026-05-20T07:58:08Z</time>
      </trkpt>
      <trkpt lat="47.64382" lon="4.3567">
        <ele>349.4</ele>
        <time>2026-05-20T07:58:09Z</time>
      </trkpt>
      <trkpt lat="47.64379" lon="4.35674">
        <ele>349.4</ele>
        <time>2026-05-20T07:58:10Z</time>
      </trkpt>
      <trkpt lat="47.64377" lon="4.35679">
        <ele>349.6</ele>
        <time>2026-05-20T07:58:11Z</time>
      </trkpt>
      <trkpt lat="47.64375" lon="4.35684">
        <ele>349.6</ele>
        <time>2026-05-20T07:58:12Z</time>
      </trkpt>
      <trkpt lat="47.64373" lon="4.35688">
        <ele>349.6</ele>
        <time>2026-05-20T07:58:13Z</time>
      </trkpt>
      <trkpt lat="47.64371" lon="4.35692">
        <ele>349.8</ele>
        <time>2026-05-20T07:58:14Z</time>
      </trkpt>
      <trkpt lat="47.64369" lon="4.35696">
        <ele>349.8</ele>
        <time>2026-05-20T07:58:15Z</time>
      </trkpt>
      <trkpt lat="47.64366" lon="4.35701">
        <ele>349.8</ele>
        <time>2026-05-20T07:58:16Z</time>
      </trkpt>
      <trkpt lat="47.64364" lon="4.35705">
        <ele>350</ele>
        <time>2026-05-20T07:58:17Z</time>
      </trkpt>
      <trkpt lat="47.64361" lon="4.35709">
        <ele>350</ele>
        <time>2026-05-20T07:58:18Z</time>
      </trkpt>
      <trkpt lat="47.64359" lon="4.35714">
        <ele>350</ele>
        <time>2026-05-20T07:58:19Z</time>
      </trkpt>
      <trkpt lat="47.64357" lon="4.35718">
        <ele>350</ele>
        <time>2026-05-20T07:58:20Z</time>
      </trkpt>
      <trkpt lat="47.64354" lon="4.35723">
        <ele>350</ele>
        <time>2026-05-20T07:58:21Z</time>
      </trkpt>
      <trkpt lat="47.64352" lon="4.35727">
        <ele>350</ele>
        <time>2026-05-20T07:58:22Z</time>
      </trkpt>
      <trkpt lat="47.64349" lon="4.35732">
        <ele>350</ele>
        <time>2026-05-20T07:58:23Z</time>
      </trkpt>
      <trkpt lat="47.64348" lon="4.35737">
        <ele>350.2</ele>
        <time>2026-05-20T07:58:24Z</time>
      </trkpt>
      <trkpt lat="47.64346" lon="4.35741">
        <ele>350.4</ele>
        <time>2026-05-20T07:58:25Z</time>
      </trkpt>
      <trkpt lat="47.64344" lon="4.35746">
        <ele>350.4</ele>
        <time>2026-05-20T07:58:26Z</time>
      </trkpt>
      <trkpt lat="47.64342" lon="4.35751">
        <ele>350.4</ele>
        <time>2026-05-20T07:58:27Z</time>
      </trkpt>
      <trkpt lat="47.6434" lon="4.35756">
        <ele>350.6</ele>
        <time>2026-05-20T07:58:28Z</time>
      </trkpt>
      <trkpt lat="47.64338" lon="4.35762">
        <ele>350.6</ele>
        <time>2026-05-20T07:58:29Z</time>
      </trkpt>
      <trkpt lat="47.64336" lon="4.35767">
        <ele>350.6</ele>
        <time>2026-05-20T07:58:30Z</time>
      </trkpt>
      <trkpt lat="47.64334" lon="4.35772">
        <ele>350.6</ele>
        <time>2026-05-20T07:58:31Z</time>
      </trkpt>
      <trkpt lat="47.64331" lon="4.35778">
        <ele>350.6</ele>
        <time>2026-05-20T07:58:32Z</time>
      </trkpt>
      <trkpt lat="47.64328" lon="4.35784">
        <ele>350.6</ele>
        <time>2026-05-20T07:58:33Z</time>
      </trkpt>
      <trkpt lat="47.64326" lon="4.35789">
        <ele>350.6</ele>
        <time>2026-05-20T07:58:34Z</time>
      </trkpt>
      <trkpt lat="47.64323" lon="4.35795">
        <ele>350.6</ele>
        <time>2026-05-20T07:58:35Z</time>
      </trkpt>
      <trkpt lat="47.6432" lon="4.35801">
        <ele>350.6</ele>
        <time>2026-05-20T07:58:36Z</time>
      </trkpt>
      <trkpt lat="47.64317" lon="4.35807">
        <ele>350.6</ele>
        <time>2026-05-20T07:58:37Z</time>
      </trkpt>
      <trkpt lat="47.64314" lon="4.35814">
        <ele>350.6</ele>
        <time>2026-05-20T07:58:38Z</time>
      </trkpt>
      <trkpt lat="47.64312" lon="4.35821">
        <ele>350.6</ele>
        <time>2026-05-20T07:58:39Z</time>
      </trkpt>
      <trkpt lat="47.64309" lon="4.35828">
        <ele>350.4</ele>
        <time>2026-05-20T07:58:40Z</time>
      </trkpt>
      <trkpt lat="47.64306" lon="4.35835">
        <ele>350.4</ele>
        <time>2026-05-20T07:58:41Z</time>
      </trkpt>
      <trkpt lat="47.64303" lon="4.35842">
        <ele>350</ele>
        <time>2026-05-20T07:58:42Z</time>
      </trkpt>
      <trkpt lat="47.643" lon="4.35849">
        <ele>349.8</ele>
        <time>2026-05-20T07:58:43Z</time>
      </trkpt>
      <trkpt lat="47.64298" lon="4.35855">
        <ele>349.6</ele>
        <time>2026-05-20T07:58:44Z</time>
      </trkpt>
      <trkpt lat="47.64294" lon="4.35864">
        <ele>349.4</ele>
        <time>2026-05-20T07:58:45Z</time>
      </trkpt>
      <trkpt lat="47.64291" lon="4.35871">
        <ele>349</ele>
        <time>2026-05-20T07:58:46Z</time>
      </trkpt>
      <trkpt lat="47.64289" lon="4.35877">
        <ele>348.6</ele>
        <time>2026-05-20T07:58:47Z</time>
      </trkpt>
      <trkpt lat="47.64286" lon="4.35885">
        <ele>348.4</ele>
        <time>2026-05-20T07:58:48Z</time>
      </trkpt>
      <trkpt lat="47.64282" lon="4.35893">
        <ele>348</ele>
        <time>2026-05-20T07:58:49Z</time>
      </trkpt>
      <trkpt lat="47.6428" lon="4.359">
        <ele>347.8</ele>
        <time>2026-05-20T07:58:50Z</time>
      </trkpt>
      <trkpt lat="47.64277" lon="4.35907">
        <ele>347.4</ele>
        <time>2026-05-20T07:58:51Z</time>
      </trkpt>
      <trkpt lat="47.64274" lon="4.35913">
        <ele>347.2</ele>
        <time>2026-05-20T07:58:52Z</time>
      </trkpt>
      <trkpt lat="47.64272" lon="4.35919">
        <ele>347</ele>
        <time>2026-05-20T07:58:53Z</time>
      </trkpt>
      <trkpt lat="47.64268" lon="4.35925">
        <ele>346.8</ele>
        <time>2026-05-20T07:58:54Z</time>
      </trkpt>
      <trkpt lat="47.64264" lon="4.35933">
        <ele>346.4</ele>
        <time>2026-05-20T07:58:55Z</time>
      </trkpt>
      <trkpt lat="47.6426" lon="4.35939">
        <ele>345.8</ele>
        <time>2026-05-20T07:58:56Z</time>
      </trkpt>
      <trkpt lat="47.64256" lon="4.35945">
        <ele>345.6</ele>
        <time>2026-05-20T07:58:57Z</time>
      </trkpt>
      <trkpt lat="47.64253" lon="4.3595">
        <ele>345.2</ele>
        <time>2026-05-20T07:58:58Z</time>
      </trkpt>
      <trkpt lat="47.64249" lon="4.35956">
        <ele>345</ele>
        <time>2026-05-20T07:58:59Z</time>
      </trkpt>
      <trkpt lat="47.64244" lon="4.35964">
        <ele>344.2</ele>
        <time>2026-05-20T07:59:00Z</time>
      </trkpt>
      <trkpt lat="47.6424" lon="4.3597">
        <ele>344</ele>
        <time>2026-05-20T07:59:01Z</time>
      </trkpt>
      <trkpt lat="47.64235" lon="4.35977">
        <ele>343</ele>
        <time>2026-05-20T07:59:02Z</time>
      </trkpt>
      <trkpt lat="47.64231" lon="4.35983">
        <ele>342.6</ele>
        <time>2026-05-20T07:59:03Z</time>
      </trkpt>
      <trkpt lat="47.64228" lon="4.35989">
        <ele>342.2</ele>
        <time>2026-05-20T07:59:04Z</time>
      </trkpt>
      <trkpt lat="47.64224" lon="4.35995">
        <ele>341.2</ele>
        <time>2026-05-20T07:59:05Z</time>
      </trkpt>
      <trkpt lat="47.64219" lon="4.36003">
        <ele>340.8</ele>
        <time>2026-05-20T07:59:06Z</time>
      </trkpt>
      <trkpt lat="47.64215" lon="4.3601">
        <ele>340.2</ele>
        <time>2026-05-20T07:59:07Z</time>
      </trkpt>
      <trkpt lat="47.64211" lon="4.36017">
        <ele>339.6</ele>
        <time>2026-05-20T07:59:08Z</time>
      </trkpt>
      <trkpt lat="47.64207" lon="4.36023">
        <ele>339</ele>
        <time>2026-05-20T07:59:09Z</time>
      </trkpt>
      <trkpt lat="47.64203" lon="4.36031">
        <ele>338</ele>
        <time>2026-05-20T07:59:10Z</time>
      </trkpt>
      <trkpt lat="47.64198" lon="4.36038">
        <ele>336.8</ele>
        <time>2026-05-20T07:59:11Z</time>
      </trkpt>
      <trkpt lat="47.64193" lon="4.36048">
        <ele>336</ele>
        <time>2026-05-20T07:59:12Z</time>
      </trkpt>
      <trkpt lat="47.64189" lon="4.36056">
        <ele>335</ele>
        <time>2026-05-20T07:59:13Z</time>
      </trkpt>
      <trkpt lat="47.64184" lon="4.36064">
        <ele>334.4</ele>
        <time>2026-05-20T07:59:14Z</time>
      </trkpt>
      <trkpt lat="47.6418" lon="4.36072">
        <ele>334</ele>
        <time>2026-05-20T07:59:15Z</time>
      </trkpt>
      <trkpt lat="47.64176" lon="4.3608">
        <ele>333.2</ele>
        <time>2026-05-20T07:59:16Z</time>
      </trkpt>
      <trkpt lat="47.64172" lon="4.36087">
        <ele>332.8</ele>
        <time>2026-05-20T07:59:17Z</time>
      </trkpt>
      <trkpt lat="47.64167" lon="4.36095">
        <ele>332.2</ele>
        <time>2026-05-20T07:59:18Z</time>
      </trkpt>
      <trkpt lat="47.64162" lon="4.36102">
        <ele>332</ele>
        <time>2026-05-20T07:59:19Z</time>
      </trkpt>
      <trkpt lat="47.64158" lon="4.3611">
        <ele>331.2</ele>
        <time>2026-05-20T07:59:20Z</time>
      </trkpt>
      <trkpt lat="47.64154" lon="4.36115">
        <ele>330.6</ele>
        <time>2026-05-20T07:59:21Z</time>
      </trkpt>
      <trkpt lat="47.64149" lon="4.36119">
        <ele>330</ele>
        <time>2026-05-20T07:59:22Z</time>
      </trkpt>
      <trkpt lat="47.64142" lon="4.36119">
        <ele>329.6</ele>
        <time>2026-05-20T07:59:23Z</time>
      </trkpt>
      <trkpt lat="47.64137" lon="4.36117">
        <ele>329.4</ele>
        <time>2026-05-20T07:59:24Z</time>
      </trkpt>
      <trkpt lat="47.64132" lon="4.36113">
        <ele>329</ele>
        <time>2026-05-20T07:59:25Z</time>
      </trkpt>
      <trkpt lat="47.64126" lon="4.36109">
        <ele>328.6</ele>
        <time>2026-05-20T07:59:26Z</time>
      </trkpt>
      <trkpt lat="47.6412" lon="4.36105">
        <ele>328.2</ele>
        <time>2026-05-20T07:59:27Z</time>
      </trkpt>
      <trkpt lat="47.64115" lon="4.36101">
        <ele>328</ele>
        <time>2026-05-20T07:59:28Z</time>
      </trkpt>
      <trkpt lat="47.64109" lon="4.36097">
        <ele>327.4</ele>
        <time>2026-05-20T07:59:29Z</time>
      </trkpt>
      <trkpt lat="47.64104" lon="4.36093">
        <ele>327.2</ele>
        <time>2026-05-20T07:59:30Z</time>
      </trkpt>
      <trkpt lat="47.64098" lon="4.36089">
        <ele>326.6</ele>
        <time>2026-05-20T07:59:31Z</time>
      </trkpt>
      <trkpt lat="47.64091" lon="4.36085">
        <ele>326.4</ele>
        <time>2026-05-20T07:59:32Z</time>
      </trkpt>
      <trkpt lat="47.64086" lon="4.36081">
        <ele>326.2</ele>
        <time>2026-05-20T07:59:33Z</time>
      </trkpt>
      <trkpt lat="47.6408" lon="4.36076">
        <ele>326</ele>
        <time>2026-05-20T07:59:34Z</time>
      </trkpt>
      <trkpt lat="47.64075" lon="4.36072">
        <ele>326</ele>
        <time>2026-05-20T07:59:35Z</time>
      </trkpt>
      <trkpt lat="47.64069" lon="4.36068">
        <ele>325.8</ele>
        <time>2026-05-20T07:59:36Z</time>
      </trkpt>
      <trkpt lat="47.64063" lon="4.36064">
        <ele>325.6</ele>
        <time>2026-05-20T07:59:37Z</time>
      </trkpt>
      <trkpt lat="47.64057" lon="4.3606">
        <ele>325.4</ele>
        <time>2026-05-20T07:59:38Z</time>
      </trkpt>
      <trkpt lat="47.64052" lon="4.36056">
        <ele>325.2</ele>
        <time>2026-05-20T07:59:39Z</time>
      </trkpt>
      <trkpt lat="47.64046" lon="4.36051">
        <ele>325</ele>
        <time>2026-05-20T07:59:40Z</time>
      </trkpt>
      <trkpt lat="47.6404" lon="4.36047">
        <ele>324.8</ele>
        <time>2026-05-20T07:59:41Z</time>
      </trkpt>
      <trkpt lat="47.64034" lon="4.36043">
        <ele>324.8</ele>
        <time>2026-05-20T07:59:42Z</time>
      </trkpt>
      <trkpt lat="47.64028" lon="4.36038">
        <ele>324.6</ele>
        <time>2026-05-20T07:59:43Z</time>
      </trkpt>
      <trkpt lat="47.64022" lon="4.36034">
        <ele>324.4</ele>
        <time>2026-05-20T07:59:44Z</time>
      </trkpt>
      <trkpt lat="47.64016" lon="4.3603">
        <ele>324.4</ele>
        <time>2026-05-20T07:59:45Z</time>
      </trkpt>
      <trkpt lat="47.6401" lon="4.36025">
        <ele>324.4</ele>
        <time>2026-05-20T07:59:46Z</time>
      </trkpt>
      <trkpt lat="47.64005" lon="4.36021">
        <ele>324.2</ele>
        <time>2026-05-20T07:59:47Z</time>
      </trkpt>
      <trkpt lat="47.63999" lon="4.36018">
        <ele>324.2</ele>
        <time>2026-05-20T07:59:48Z</time>
      </trkpt>
      <trkpt lat="47.63994" lon="4.36015">
        <ele>324</ele>
        <time>2026-05-20T07:59:49Z</time>
      </trkpt>
      <trkpt lat="47.63988" lon="4.36012">
        <ele>324</ele>
        <time>2026-05-20T07:59:50Z</time>
      </trkpt>
      <trkpt lat="47.63982" lon="4.36008">
        <ele>324</ele>
        <time>2026-05-20T07:59:51Z</time>
      </trkpt>
      <trkpt lat="47.63976" lon="4.36004">
        <ele>324</ele>
        <time>2026-05-20T07:59:52Z</time>
      </trkpt>
      <trkpt lat="47.63971" lon="4.36">
        <ele>324</ele>
        <time>2026-05-20T07:59:53Z</time>
      </trkpt>
      <trkpt lat="47.63965" lon="4.35996">
        <ele>323.6</ele>
        <time>2026-05-20T07:59:54Z</time>
      </trkpt>
      <trkpt lat="47.6396" lon="4.35993">
        <ele>323.6</ele>
        <time>2026-05-20T07:59:55Z</time>
      </trkpt>
      <trkpt lat="47.63954" lon="4.35989">
        <ele>323.4</ele>
        <time>2026-05-20T07:59:56Z</time>
      </trkpt>
      <trkpt lat="47.63949" lon="4.35984">
        <ele>323.4</ele>
        <time>2026-05-20T07:59:57Z</time>
      </trkpt>
      <trkpt lat="47.63943" lon="4.35981">
        <ele>323.2</ele>
        <time>2026-05-20T07:59:58Z</time>
      </trkpt>
      <trkpt lat="47.63938" lon="4.35977">
        <ele>323.2</ele>
        <time>2026-05-20T07:59:59Z</time>
      </trkpt>
      <trkpt lat="47.63933" lon="4.35973">
        <ele>323.2</ele>
        <time>2026-05-20T08:00:00Z</time>
      </trkpt>
      <trkpt lat="47.63928" lon="4.35969">
        <ele>323</ele>
        <time>2026-05-20T08:00:01Z</time>
      </trkpt>
      <trkpt lat="47.63923" lon="4.35965">
        <ele>323</ele>
        <time>2026-05-20T08:00:02Z</time>
      </trkpt>
      <trkpt lat="47.63917" lon="4.35962">
        <ele>322.8</ele>
        <time>2026-05-20T08:00:03Z</time>
      </trkpt>
      <trkpt lat="47.63912" lon="4.35958">
        <ele>322.8</ele>
        <time>2026-05-20T08:00:04Z</time>
      </trkpt>
      <trkpt lat="47.63907" lon="4.35954">
        <ele>322.8</ele>
        <time>2026-05-20T08:00:05Z</time>
      </trkpt>
      <trkpt lat="47.63902" lon="4.3595">
        <ele>322.8</ele>
        <time>2026-05-20T08:00:06Z</time>
      </trkpt>
      <trkpt lat="47.63897" lon="4.35946">
        <ele>322.8</ele>
        <time>2026-05-20T08:00:07Z</time>
      </trkpt>
      <trkpt lat="47.63893" lon="4.35942">
        <ele>322.8</ele>
        <time>2026-05-20T08:00:08Z</time>
      </trkpt>
      <trkpt lat="47.63888" lon="4.35939">
        <ele>323</ele>
        <time>2026-05-20T08:00:09Z</time>
      </trkpt>
      <trkpt lat="47.63883" lon="4.35935">
        <ele>323</ele>
        <time>2026-05-20T08:00:10Z</time>
      </trkpt>
      <trkpt lat="47.63879" lon="4.35931">
        <ele>323</ele>
        <time>2026-05-20T08:00:11Z</time>
      </trkpt>
      <trkpt lat="47.63874" lon="4.35928">
        <ele>323</ele>
        <time>2026-05-20T08:00:12Z</time>
      </trkpt>
      <trkpt lat="47.63869" lon="4.35924">
        <ele>323</ele>
        <time>2026-05-20T08:00:13Z</time>
      </trkpt>
      <trkpt lat="47.63865" lon="4.35921">
        <ele>323</ele>
        <time>2026-05-20T08:00:14Z</time>
      </trkpt>
      <trkpt lat="47.6386" lon="4.35917">
        <ele>323</ele>
        <time>2026-05-20T08:00:15Z</time>
      </trkpt>
      <trkpt lat="47.63855" lon="4.35914">
        <ele>323.2</ele>
        <time>2026-05-20T08:00:16Z</time>
      </trkpt>
      <trkpt lat="47.63851" lon="4.3591">
        <ele>323.2</ele>
        <time>2026-05-20T08:00:17Z</time>
      </trkpt>
      <trkpt lat="47.63846" lon="4.35907">
        <ele>323.2</ele>
        <time>2026-05-20T08:00:18Z</time>
      </trkpt>
      <trkpt lat="47.63841" lon="4.35903">
        <ele>323</ele>
        <time>2026-05-20T08:00:19Z</time>
      </trkpt>
      <trkpt lat="47.63836" lon="4.35899">
        <ele>323</ele>
        <time>2026-05-20T08:00:20Z</time>
      </trkpt>
      <trkpt lat="47.63831" lon="4.35895">
        <ele>322.8</ele>
        <time>2026-05-20T08:00:21Z</time>
      </trkpt>
      <trkpt lat="47.63826" lon="4.35892">
        <ele>322.8</ele>
        <time>2026-05-20T08:00:22Z</time>
      </trkpt>
      <trkpt lat="47.63821" lon="4.35888">
        <ele>322.4</ele>
        <time>2026-05-20T08:00:23Z</time>
      </trkpt>
      <trkpt lat="47.63815" lon="4.35884">
        <ele>322.4</ele>
        <time>2026-05-20T08:00:24Z</time>
      </trkpt>
      <trkpt lat="47.6381" lon="4.35881">
        <ele>322.2</ele>
        <time>2026-05-20T08:00:25Z</time>
      </trkpt>
      <trkpt lat="47.63805" lon="4.35877">
        <ele>322</ele>
        <time>2026-05-20T08:00:26Z</time>
      </trkpt>
      <trkpt lat="47.638" lon="4.35873">
        <ele>322</ele>
        <time>2026-05-20T08:00:27Z</time>
      </trkpt>
      <trkpt lat="47.63796" lon="4.35869">
        <ele>321.8</ele>
        <time>2026-05-20T08:00:28Z</time>
      </trkpt>
      <trkpt lat="47.63791" lon="4.35865">
        <ele>321.8</ele>
        <time>2026-05-20T08:00:29Z</time>
      </trkpt>
      <trkpt lat="47.63786" lon="4.35862">
        <ele>321.8</ele>
        <time>2026-05-20T08:00:30Z</time>
      </trkpt>
      <trkpt lat="47.6378" lon="4.35858">
        <ele>321.8</ele>
        <time>2026-05-20T08:00:31Z</time>
      </trkpt>
      <trkpt lat="47.63776" lon="4.35854">
        <ele>321.6</ele>
        <time>2026-05-20T08:00:32Z</time>
      </trkpt>
      <trkpt lat="47.63771" lon="4.3585">
        <ele>321.6</ele>
        <time>2026-05-20T08:00:33Z</time>
      </trkpt>
      <trkpt lat="47.63766" lon="4.35847">
        <ele>321.2</ele>
        <time>2026-05-20T08:00:34Z</time>
      </trkpt>
      <trkpt lat="47.63761" lon="4.35843">
        <ele>321</ele>
        <time>2026-05-20T08:00:35Z</time>
      </trkpt>
      <trkpt lat="47.63756" lon="4.35839">
        <ele>320.8</ele>
        <time>2026-05-20T08:00:36Z</time>
      </trkpt>
      <trkpt lat="47.63751" lon="4.35835">
        <ele>320.6</ele>
        <time>2026-05-20T08:00:37Z</time>
      </trkpt>
      <trkpt lat="47.63746" lon="4.35832">
        <ele>320.6</ele>
        <time>2026-05-20T08:00:38Z</time>
      </trkpt>
      <trkpt lat="47.63741" lon="4.35828">
        <ele>320.6</ele>
        <time>2026-05-20T08:00:39Z</time>
      </trkpt>
      <trkpt lat="47.63737" lon="4.35824">
        <ele>320.6</ele>
        <time>2026-05-20T08:00:40Z</time>
      </trkpt>
      <trkpt lat="47.63732" lon="4.35818">
        <ele>320.6</ele>
        <time>2026-05-20T08:00:41Z</time>
      </trkpt>
      <trkpt lat="47.63727" lon="4.35814">
        <ele>320.4</ele>
        <time>2026-05-20T08:00:42Z</time>
      </trkpt>
      <trkpt lat="47.63723" lon="4.35811">
        <ele>320.4</ele>
        <time>2026-05-20T08:00:43Z</time>
      </trkpt>
      <trkpt lat="47.63718" lon="4.35808">
        <ele>320.4</ele>
        <time>2026-05-20T08:00:44Z</time>
      </trkpt>
      <trkpt lat="47.63714" lon="4.35805">
        <ele>320.2</ele>
        <time>2026-05-20T08:00:45Z</time>
      </trkpt>
      <trkpt lat="47.6371" lon="4.35802">
        <ele>320.2</ele>
        <time>2026-05-20T08:00:46Z</time>
      </trkpt>
      <trkpt lat="47.63705" lon="4.35799">
        <ele>320.2</ele>
        <time>2026-05-20T08:00:47Z</time>
      </trkpt>
      <trkpt lat="47.63701" lon="4.35795">
        <ele>320.2</ele>
        <time>2026-05-20T08:00:48Z</time>
      </trkpt>
      <trkpt lat="47.63697" lon="4.35792">
        <ele>320.2</ele>
        <time>2026-05-20T08:00:49Z</time>
      </trkpt>
      <trkpt lat="47.63692" lon="4.3579">
        <ele>320.2</ele>
        <time>2026-05-20T08:00:50Z</time>
      </trkpt>
      <trkpt lat="47.63688" lon="4.35787">
        <ele>320.2</ele>
        <time>2026-05-20T08:00:51Z</time>
      </trkpt>
      <trkpt lat="47.63684" lon="4.35784">
        <ele>320.2</ele>
        <time>2026-05-20T08:00:52Z</time>
      </trkpt>
      <trkpt lat="47.6368" lon="4.35782">
        <ele>320.4</ele>
        <time>2026-05-20T08:00:53Z</time>
      </trkpt>
      <trkpt lat="47.63676" lon="4.3578">
        <ele>320.6</ele>
        <time>2026-05-20T08:00:54Z</time>
      </trkpt>
      <trkpt lat="47.63672" lon="4.35777">
        <ele>320.8</ele>
        <time>2026-05-20T08:00:55Z</time>
      </trkpt>
      <trkpt lat="47.63668" lon="4.35775">
        <ele>320.8</ele>
        <time>2026-05-20T08:00:56Z</time>
      </trkpt>
      <trkpt lat="47.63663" lon="4.35771">
        <ele>321</ele>
        <time>2026-05-20T08:00:57Z</time>
      </trkpt>
      <trkpt lat="47.6366" lon="4.35768">
        <ele>321</ele>
        <time>2026-05-20T08:00:58Z</time>
      </trkpt>
      <trkpt lat="47.63656" lon="4.35766">
        <ele>321.2</ele>
        <time>2026-05-20T08:00:59Z</time>
      </trkpt>
      <trkpt lat="47.63653" lon="4.35764">
        <ele>321.2</ele>
        <time>2026-05-20T08:01:00Z</time>
      </trkpt>
      <trkpt lat="47.63649" lon="4.35761">
        <ele>321.2</ele>
        <time>2026-05-20T08:01:01Z</time>
      </trkpt>
      <trkpt lat="47.63646" lon="4.35759">
        <ele>321.2</ele>
        <time>2026-05-20T08:01:02Z</time>
      </trkpt>
      <trkpt lat="47.63642" lon="4.35757">
        <ele>321.2</ele>
        <time>2026-05-20T08:01:03Z</time>
      </trkpt>
      <trkpt lat="47.63639" lon="4.35755">
        <ele>321.4</ele>
        <time>2026-05-20T08:01:04Z</time>
      </trkpt>
      <trkpt lat="47.63636" lon="4.35753">
        <ele>321.4</ele>
        <time>2026-05-20T08:01:05Z</time>
      </trkpt>
      <trkpt lat="47.63632" lon="4.35752">
        <ele>321.6</ele>
        <time>2026-05-20T08:01:06Z</time>
      </trkpt>
      <trkpt lat="47.63628" lon="4.3575">
        <ele>321.6</ele>
        <time>2026-05-20T08:01:07Z</time>
      </trkpt>
      <trkpt lat="47.63624" lon="4.35749">
        <ele>321.6</ele>
        <time>2026-05-20T08:01:08Z</time>
      </trkpt>
      <trkpt lat="47.63621" lon="4.3575">
        <ele>321.8</ele>
        <time>2026-05-20T08:01:09Z</time>
      </trkpt>
      <trkpt lat="47.63618" lon="4.35752">
        <ele>321.8</ele>
        <time>2026-05-20T08:01:10Z</time>
      </trkpt>
      <trkpt lat="47.63617" lon="4.35757">
        <ele>321.8</ele>
        <time>2026-05-20T08:01:11Z</time>
      </trkpt>
      <trkpt lat="47.63618" lon="4.35763">
        <ele>321.6</ele>
        <time>2026-05-20T08:01:12Z</time>
      </trkpt>
      <trkpt lat="47.6362" lon="4.35768">
        <ele>321.4</ele>
        <time>2026-05-20T08:01:13Z</time>
      </trkpt>
      <trkpt lat="47.63623" lon="4.35775">
        <ele>321.4</ele>
        <time>2026-05-20T08:01:14Z</time>
      </trkpt>
      <trkpt lat="47.63625" lon="4.35783">
        <ele>321.2</ele>
        <time>2026-05-20T08:01:15Z</time>
      </trkpt>
      <trkpt lat="47.63625" lon="4.35791">
        <ele>321.2</ele>
        <time>2026-05-20T08:01:16Z</time>
      </trkpt>
      <trkpt lat="47.63625" lon="4.35798">
        <ele>321</ele>
        <time>2026-05-20T08:01:17Z</time>
      </trkpt>
      <trkpt lat="47.63622" lon="4.35804">
        <ele>320.6</ele>
        <time>2026-05-20T08:01:18Z</time>
      </trkpt>
      <trkpt lat="47.63619" lon="4.35809">
        <ele>320.2</ele>
        <time>2026-05-20T08:01:19Z</time>
      </trkpt>
      <trkpt lat="47.63614" lon="4.35811">
        <ele>319.8</ele>
        <time>2026-05-20T08:01:20Z</time>
      </trkpt>
      <trkpt lat="47.63609" lon="4.35811">
        <ele>319.2</ele>
        <time>2026-05-20T08:01:21Z</time>
      </trkpt>
      <trkpt lat="47.63604" lon="4.35812">
        <ele>318.4</ele>
        <time>2026-05-20T08:01:22Z</time>
      </trkpt>
      <trkpt lat="47.63598" lon="4.35813">
        <ele>318.2</ele>
        <time>2026-05-20T08:01:23Z</time>
      </trkpt>
      <trkpt lat="47.63593" lon="4.35815">
        <ele>317.8</ele>
        <time>2026-05-20T08:01:24Z</time>
      </trkpt>
      <trkpt lat="47.63587" lon="4.35816">
        <ele>317.6</ele>
        <time>2026-05-20T08:01:25Z</time>
      </trkpt>
      <trkpt lat="47.63581" lon="4.35818">
        <ele>317.4</ele>
        <time>2026-05-20T08:01:26Z</time>
      </trkpt>
      <trkpt lat="47.63576" lon="4.3582">
        <ele>317.4</ele>
        <time>2026-05-20T08:01:27Z</time>
      </trkpt>
      <trkpt lat="47.6357" lon="4.35823">
        <ele>317.2</ele>
        <time>2026-05-20T08:01:28Z</time>
      </trkpt>
      <trkpt lat="47.63564" lon="4.35825">
        <ele>317.2</ele>
        <time>2026-05-20T08:01:29Z</time>
      </trkpt>
      <trkpt lat="47.63557" lon="4.35828">
        <ele>317</ele>
        <time>2026-05-20T08:01:30Z</time>
      </trkpt>
      <trkpt lat="47.63551" lon="4.3583">
        <ele>316.6</ele>
        <time>2026-05-20T08:01:31Z</time>
      </trkpt>
      <trkpt lat="47.63545" lon="4.35834">
        <ele>316.6</ele>
        <time>2026-05-20T08:01:32Z</time>
      </trkpt>
      <trkpt lat="47.63539" lon="4.35838">
        <ele>316.4</ele>
        <time>2026-05-20T08:01:33Z</time>
      </trkpt>
      <trkpt lat="47.63532" lon="4.35841">
        <ele>316.4</ele>
        <time>2026-05-20T08:01:34Z</time>
      </trkpt>
      <trkpt lat="47.63527" lon="4.35845">
        <ele>316.2</ele>
        <time>2026-05-20T08:01:35Z</time>
      </trkpt>
      <trkpt lat="47.63521" lon="4.35849">
        <ele>316.2</ele>
        <time>2026-05-20T08:01:36Z</time>
      </trkpt>
      <trkpt lat="47.63515" lon="4.35854">
        <ele>316</ele>
        <time>2026-05-20T08:01:37Z</time>
      </trkpt>
      <trkpt lat="47.63509" lon="4.35859">
        <ele>316</ele>
        <time>2026-05-20T08:01:38Z</time>
      </trkpt>
      <trkpt lat="47.63503" lon="4.35863">
        <ele>315.8</ele>
        <time>2026-05-20T08:01:39Z</time>
      </trkpt>
      <trkpt lat="47.63497" lon="4.35869">
        <ele>315.6</ele>
        <time>2026-05-20T08:01:40Z</time>
      </trkpt>
      <trkpt lat="47.63491" lon="4.35874">
        <ele>315.4</ele>
        <time>2026-05-20T08:01:41Z</time>
      </trkpt>
      <trkpt lat="47.63485" lon="4.35879">
        <ele>315.4</ele>
        <time>2026-05-20T08:01:42Z</time>
      </trkpt>
      <trkpt lat="47.63479" lon="4.35885">
        <ele>315.2</ele>
        <time>2026-05-20T08:01:43Z</time>
      </trkpt>
      <trkpt lat="47.63472" lon="4.35891">
        <ele>315.2</ele>
        <time>2026-05-20T08:01:44Z</time>
      </trkpt>
      <trkpt lat="47.63466" lon="4.35897">
        <ele>315</ele>
        <time>2026-05-20T08:01:45Z</time>
      </trkpt>
      <trkpt lat="47.63458" lon="4.35904">
        <ele>314.8</ele>
        <time>2026-05-20T08:01:46Z</time>
      </trkpt>
      <trkpt lat="47.63454" lon="4.35907">
        <ele>314.6</ele>
        <time>2026-05-20T08:01:47Z</time>
      </trkpt>
      <trkpt lat="47.63447" lon="4.35914">
        <ele>314.4</ele>
        <time>2026-05-20T08:01:48Z</time>
      </trkpt>
      <trkpt lat="47.6344" lon="4.3592">
        <ele>314</ele>
        <time>2026-05-20T08:01:49Z</time>
      </trkpt>
      <trkpt lat="47.63434" lon="4.35926">
        <ele>314</ele>
        <time>2026-05-20T08:01:50Z</time>
      </trkpt>
      <trkpt lat="47.63427" lon="4.35932">
        <ele>313.8</ele>
        <time>2026-05-20T08:01:51Z</time>
      </trkpt>
      <trkpt lat="47.63421" lon="4.35938">
        <ele>313.6</ele>
        <time>2026-05-20T08:01:52Z</time>
      </trkpt>
      <trkpt lat="47.63415" lon="4.35944">
        <ele>313.2</ele>
        <time>2026-05-20T08:01:53Z</time>
      </trkpt>
      <trkpt lat="47.63408" lon="4.3595">
        <ele>313</ele>
        <time>2026-05-20T08:01:54Z</time>
      </trkpt>
      <trkpt lat="47.63402" lon="4.35956">
        <ele>312.6</ele>
        <time>2026-05-20T08:01:55Z</time>
      </trkpt>
      <trkpt lat="47.63395" lon="4.35963">
        <ele>312.2</ele>
        <time>2026-05-20T08:01:56Z</time>
      </trkpt>
      <trkpt lat="47.63388" lon="4.3597">
        <ele>311.8</ele>
        <time>2026-05-20T08:01:57Z</time>
      </trkpt>
      <trkpt lat="47.63382" lon="4.35976">
        <ele>311.4</ele>
        <time>2026-05-20T08:01:58Z</time>
      </trkpt>
      <trkpt lat="47.63374" lon="4.35982">
        <ele>311.2</ele>
        <time>2026-05-20T08:01:59Z</time>
      </trkpt>
      <trkpt lat="47.63368" lon="4.35989">
        <ele>310.8</ele>
        <time>2026-05-20T08:02:00Z</time>
      </trkpt>
      <trkpt lat="47.63361" lon="4.35995">
        <ele>310.6</ele>
        <time>2026-05-20T08:02:01Z</time>
      </trkpt>
      <trkpt lat="47.63353" lon="4.36001">
        <ele>310</ele>
        <time>2026-05-20T08:02:02Z</time>
      </trkpt>
      <trkpt lat="47.63346" lon="4.36007">
        <ele>309.8</ele>
        <time>2026-05-20T08:02:03Z</time>
      </trkpt>
      <trkpt lat="47.63339" lon="4.36012">
        <ele>309.6</ele>
        <time>2026-05-20T08:02:04Z</time>
      </trkpt>
      <trkpt lat="47.63331" lon="4.36017">
        <ele>309.2</ele>
        <time>2026-05-20T08:02:05Z</time>
      </trkpt>
      <trkpt lat="47.63324" lon="4.36022">
        <ele>309</ele>
        <time>2026-05-20T08:02:06Z</time>
      </trkpt>
      <trkpt lat="47.63316" lon="4.36027">
        <ele>308.8</ele>
        <time>2026-05-20T08:02:07Z</time>
      </trkpt>
      <trkpt lat="47.63308" lon="4.36031">
        <ele>308.6</ele>
        <time>2026-05-20T08:02:08Z</time>
      </trkpt>
      <trkpt lat="47.633" lon="4.36034">
        <ele>308</ele>
        <time>2026-05-20T08:02:09Z</time>
      </trkpt>
      <trkpt lat="47.63293" lon="4.36038">
        <ele>307.8</ele>
        <time>2026-05-20T08:02:10Z</time>
      </trkpt>
      <trkpt lat="47.63285" lon="4.3604">
        <ele>307.2</ele>
        <time>2026-05-20T08:02:11Z</time>
      </trkpt>
      <trkpt lat="47.63277" lon="4.36042">
        <ele>307.2</ele>
        <time>2026-05-20T08:02:12Z</time>
      </trkpt>
      <trkpt lat="47.63269" lon="4.36044">
        <ele>306.8</ele>
        <time>2026-05-20T08:02:13Z</time>
      </trkpt>
      <trkpt lat="47.63262" lon="4.36046">
        <ele>306.6</ele>
        <time>2026-05-20T08:02:14Z</time>
      </trkpt>
      <trkpt lat="47.63254" lon="4.36047">
        <ele>306.6</ele>
        <time>2026-05-20T08:02:15Z</time>
      </trkpt>
      <trkpt lat="47.63246" lon="4.36048">
        <ele>306.2</ele>
        <time>2026-05-20T08:02:16Z</time>
      </trkpt>
      <trkpt lat="47.63238" lon="4.36049">
        <ele>306.2</ele>
        <time>2026-05-20T08:02:17Z</time>
      </trkpt>
      <trkpt lat="47.6323" lon="4.36049">
        <ele>305.8</ele>
        <time>2026-05-20T08:02:18Z</time>
      </trkpt>
      <trkpt lat="47.63222" lon="4.36049">
        <ele>305.4</ele>
        <time>2026-05-20T08:02:19Z</time>
      </trkpt>
      <trkpt lat="47.63214" lon="4.36049">
        <ele>305</ele>
        <time>2026-05-20T08:02:20Z</time>
      </trkpt>
      <trkpt lat="47.63207" lon="4.36048">
        <ele>304.8</ele>
        <time>2026-05-20T08:02:21Z</time>
      </trkpt>
      <trkpt lat="47.63199" lon="4.36047">
        <ele>304.4</ele>
        <time>2026-05-20T08:02:22Z</time>
      </trkpt>
      <trkpt lat="47.63192" lon="4.36046">
        <ele>304</ele>
        <time>2026-05-20T08:02:23Z</time>
      </trkpt>
      <trkpt lat="47.63184" lon="4.36044">
        <ele>303.8</ele>
        <time>2026-05-20T08:02:24Z</time>
      </trkpt>
      <trkpt lat="47.63176" lon="4.36042">
        <ele>303.4</ele>
        <time>2026-05-20T08:02:25Z</time>
      </trkpt>
      <trkpt lat="47.63169" lon="4.3604">
        <ele>303.2</ele>
        <time>2026-05-20T08:02:26Z</time>
      </trkpt>
      <trkpt lat="47.63161" lon="4.36038">
        <ele>303</ele>
        <time>2026-05-20T08:02:27Z</time>
      </trkpt>
      <trkpt lat="47.63153" lon="4.36034">
        <ele>302.8</ele>
        <time>2026-05-20T08:02:28Z</time>
      </trkpt>
      <trkpt lat="47.63145" lon="4.3603">
        <ele>302.4</ele>
        <time>2026-05-20T08:02:29Z</time>
      </trkpt>
      <trkpt lat="47.63138" lon="4.36027">
        <ele>302.2</ele>
        <time>2026-05-20T08:02:30Z</time>
      </trkpt>
      <trkpt lat="47.63131" lon="4.36023">
        <ele>301.6</ele>
        <time>2026-05-20T08:02:31Z</time>
      </trkpt>
      <trkpt lat="47.63125" lon="4.3602">
        <ele>301</ele>
        <time>2026-05-20T08:02:32Z</time>
      </trkpt>
      <trkpt lat="47.6312" lon="4.36016">
        <ele>300.8</ele>
        <time>2026-05-20T08:02:33Z</time>
      </trkpt>
      <trkpt lat="47.63115" lon="4.36014">
        <ele>300.4</ele>
        <time>2026-05-20T08:02:34Z</time>
      </trkpt>
      <trkpt lat="47.63111" lon="4.36011">
        <ele>300.2</ele>
        <time>2026-05-20T08:02:35Z</time>
      </trkpt>
      <trkpt lat="47.63107" lon="4.36008">
        <ele>300</ele>
        <time>2026-05-20T08:02:36Z</time>
      </trkpt>
      <trkpt lat="47.63104" lon="4.36005">
        <ele>299.6</ele>
        <time>2026-05-20T08:02:37Z</time>
      </trkpt>
      <trkpt lat="47.63101" lon="4.36004">
        <ele>299.2</ele>
        <time>2026-05-20T08:02:38Z</time>
      </trkpt>
      <trkpt lat="47.63097" lon="4.36003">
        <ele>299</ele>
        <time>2026-05-20T08:02:39Z</time>
      </trkpt>
      <trkpt lat="47.63094" lon="4.36004">
        <ele>298.8</ele>
        <time>2026-05-20T08:02:40Z</time>
      </trkpt>
      <trkpt lat="47.6309" lon="4.36006">
        <ele>298.4</ele>
        <time>2026-05-20T08:02:41Z</time>
      </trkpt>
      <trkpt lat="47.63086" lon="4.36008">
        <ele>298.4</ele>
        <time>2026-05-20T08:02:42Z</time>
      </trkpt>
      <trkpt lat="47.63083" lon="4.3601">
        <ele>298.2</ele>
        <time>2026-05-20T08:02:43Z</time>
      </trkpt>
      <trkpt lat="47.63079" lon="4.36011">
        <ele>298.2</ele>
        <time>2026-05-20T08:02:44Z</time>
      </trkpt>
      <trkpt lat="47.63074" lon="4.36012">
        <ele>298</ele>
        <time>2026-05-20T08:02:45Z</time>
      </trkpt>
      <trkpt lat="47.6307" lon="4.36012">
        <ele>298</ele>
        <time>2026-05-20T08:02:46Z</time>
      </trkpt>
      <trkpt lat="47.63066" lon="4.36013">
        <ele>298</ele>
        <time>2026-05-20T08:02:47Z</time>
      </trkpt>
      <trkpt lat="47.63063" lon="4.36014">
        <ele>298</ele>
        <time>2026-05-20T08:02:48Z</time>
      </trkpt>
      <trkpt lat="47.63061" lon="4.36016">
        <ele>298</ele>
        <time>2026-05-20T08:02:49Z</time>
      </trkpt>
      <trkpt lat="47.6306" lon="4.36018">
        <ele>297.8</ele>
        <time>2026-05-20T08:02:50Z</time>
      </trkpt>
      <trkpt lat="47.6306" lon="4.36021">
        <ele>297.6</ele>
        <time>2026-05-20T08:02:51Z</time>
      </trkpt>
      <trkpt lat="47.6306" lon="4.36023">
        <ele>297.4</ele>
        <time>2026-05-20T08:02:52Z</time>
      </trkpt>
      <trkpt lat="47.63061" lon="4.36026">
        <ele>297.4</ele>
        <time>2026-05-20T08:02:53Z</time>
      </trkpt>
      <trkpt lat="47.63061" lon="4.3603">
        <ele>297.2</ele>
        <time>2026-05-20T08:02:54Z</time>
      </trkpt>
      <trkpt lat="47.63061" lon="4.36034">
        <ele>297.2</ele>
        <time>2026-05-20T08:02:55Z</time>
      </trkpt>
      <trkpt lat="47.63061" lon="4.36038">
        <ele>297</ele>
        <time>2026-05-20T08:02:56Z</time>
      </trkpt>
      <trkpt lat="47.63062" lon="4.36042">
        <ele>297</ele>
        <time>2026-05-20T08:02:57Z</time>
      </trkpt>
      <trkpt lat="47.63063" lon="4.36047">
        <ele>296.8</ele>
        <time>2026-05-20T08:02:58Z</time>
      </trkpt>
      <trkpt lat="47.63064" lon="4.36052">
        <ele>296.6</ele>
        <time>2026-05-20T08:02:59Z</time>
      </trkpt>
      <trkpt lat="47.63065" lon="4.36057">
        <ele>296.4</ele>
        <time>2026-05-20T08:03:00Z</time>
      </trkpt>
      <trkpt lat="47.63066" lon="4.36062">
        <ele>296.2</ele>
        <time>2026-05-20T08:03:01Z</time>
      </trkpt>
      <trkpt lat="47.63067" lon="4.36067">
        <ele>296.2</ele>
        <time>2026-05-20T08:03:02Z</time>
      </trkpt>
      <trkpt lat="47.63068" lon="4.36072">
        <ele>295.8</ele>
        <time>2026-05-20T08:03:03Z</time>
      </trkpt>
      <trkpt lat="47.63068" lon="4.36078">
        <ele>295.6</ele>
        <time>2026-05-20T08:03:04Z</time>
      </trkpt>
      <trkpt lat="47.63069" lon="4.36084">
        <ele>295.6</ele>
        <time>2026-05-20T08:03:05Z</time>
      </trkpt>
      <trkpt lat="47.6307" lon="4.36089">
        <ele>295.4</ele>
        <time>2026-05-20T08:03:06Z</time>
      </trkpt>
      <trkpt lat="47.63071" lon="4.36095">
        <ele>295.4</ele>
        <time>2026-05-20T08:03:07Z</time>
      </trkpt>
      <trkpt lat="47.63072" lon="4.36101">
        <ele>295</ele>
        <time>2026-05-20T08:03:08Z</time>
      </trkpt>
      <trkpt lat="47.63073" lon="4.36107">
        <ele>295</ele>
        <time>2026-05-20T08:03:09Z</time>
      </trkpt>
      <trkpt lat="47.63073" lon="4.36112">
        <ele>294.8</ele>
        <time>2026-05-20T08:03:10Z</time>
      </trkpt>
      <trkpt lat="47.63074" lon="4.36118">
        <ele>294.4</ele>
        <time>2026-05-20T08:03:11Z</time>
      </trkpt>
      <trkpt lat="47.63076" lon="4.36124">
        <ele>294</ele>
        <time>2026-05-20T08:03:12Z</time>
      </trkpt>
      <trkpt lat="47.63077" lon="4.36129">
        <ele>293.8</ele>
        <time>2026-05-20T08:03:13Z</time>
      </trkpt>
      <trkpt lat="47.63078" lon="4.36135">
        <ele>293.6</ele>
        <time>2026-05-20T08:03:14Z</time>
      </trkpt>
      <trkpt lat="47.63079" lon="4.36141">
        <ele>293.4</ele>
        <time>2026-05-20T08:03:15Z</time>
      </trkpt>
      <trkpt lat="47.6308" lon="4.36146">
        <ele>292.8</ele>
        <time>2026-05-20T08:03:16Z</time>
      </trkpt>
      <trkpt lat="47.63081" lon="4.36151">
        <ele>292.2</ele>
        <time>2026-05-20T08:03:17Z</time>
      </trkpt>
      <trkpt lat="47.63082" lon="4.36157">
        <ele>292</ele>
        <time>2026-05-20T08:03:18Z</time>
      </trkpt>
      <trkpt lat="47.63083" lon="4.36162">
        <ele>291.4</ele>
        <time>2026-05-20T08:03:19Z</time>
      </trkpt>
      <trkpt lat="47.63084" lon="4.36167">
        <ele>291.2</ele>
        <time>2026-05-20T08:03:20Z</time>
      </trkpt>
      <trkpt lat="47.63085" lon="4.36172">
        <ele>291</ele>
        <time>2026-05-20T08:03:21Z</time>
      </trkpt>
      <trkpt lat="47.63086" lon="4.36177">
        <ele>290.8</ele>
        <time>2026-05-20T08:03:22Z</time>
      </trkpt>
      <trkpt lat="47.63088" lon="4.36182">
        <ele>290.4</ele>
        <time>2026-05-20T08:03:23Z</time>
      </trkpt>
      <trkpt lat="47.63089" lon="4.36187">
        <ele>290.4</ele>
        <time>2026-05-20T08:03:24Z</time>
      </trkpt>
      <trkpt lat="47.6309" lon="4.36192">
        <ele>290.2</ele>
        <time>2026-05-20T08:03:25Z</time>
      </trkpt>
      <trkpt lat="47.63092" lon="4.36198">
        <ele>290</ele>
        <time>2026-05-20T08:03:26Z</time>
      </trkpt>
      <trkpt lat="47.63093" lon="4.36203">
        <ele>289.6</ele>
        <time>2026-05-20T08:03:27Z</time>
      </trkpt>
      <trkpt lat="47.63094" lon="4.36208">
        <ele>289.4</ele>
        <time>2026-05-20T08:03:28Z</time>
      </trkpt>
      <trkpt lat="47.63095" lon="4.36213">
        <ele>289.2</ele>
        <time>2026-05-20T08:03:29Z</time>
      </trkpt>
      <trkpt lat="47.63096" lon="4.36216">
        <ele>288.6</ele>
        <time>2026-05-20T08:03:30Z</time>
      </trkpt>
      <trkpt lat="47.63096" lon="4.36219">
        <ele>288.2</ele>
        <time>2026-05-20T08:03:31Z</time>
      </trkpt>
      <trkpt lat="47.63096" lon="4.36222">
        <ele>287</ele>
        <time>2026-05-20T08:03:32Z</time>
      </trkpt>
      <trkpt lat="47.63096" lon="4.36224">
        <ele>286.6</ele>
        <time>2026-05-20T08:03:33Z</time>
      </trkpt>
      <trkpt lat="47.63095" lon="4.36227">
        <ele>286</ele>
        <time>2026-05-20T08:03:34Z</time>
      </trkpt>
      <trkpt lat="47.63095" lon="4.36229">
        <ele>285.6</ele>
        <time>2026-05-20T08:03:35Z</time>
      </trkpt>
      <trkpt lat="47.63094" lon="4.36232">
        <ele>285.4</ele>
        <time>2026-05-20T08:03:36Z</time>
      </trkpt>
      <trkpt lat="47.63094" lon="4.36235">
        <ele>285.2</ele>
        <time>2026-05-20T08:03:37Z</time>
      </trkpt>
      <trkpt lat="47.63095" lon="4.36238">
        <ele>285</ele>
        <time>2026-05-20T08:03:38Z</time>
      </trkpt>
      <trkpt lat="47.63095" lon="4.3624">
        <ele>284.2</ele>
        <time>2026-05-20T08:03:39Z</time>
      </trkpt>
      <trkpt lat="47.63096" lon="4.36243">
        <ele>283.6</ele>
        <time>2026-05-20T08:03:40Z</time>
      </trkpt>
      <trkpt lat="47.63096" lon="4.36245">
        <ele>283</ele>
        <time>2026-05-20T08:03:41Z</time>
      </trkpt>
      <trkpt lat="47.63097" lon="4.36249">
        <ele>283</ele>
        <time>2026-05-20T08:03:42Z</time>
      </trkpt>
      <trkpt lat="47.63097" lon="4.36253">
        <ele>282.6</ele>
        <time>2026-05-20T08:03:43Z</time>
      </trkpt>
      <trkpt lat="47.63097" lon="4.36258">
        <ele>281.8</ele>
        <time>2026-05-20T08:03:44Z</time>
      </trkpt>
      <trkpt lat="47.63098" lon="4.36263">
        <ele>281.6</ele>
        <time>2026-05-20T08:03:45Z</time>
      </trkpt>
      <trkpt lat="47.63099" lon="4.36268">
        <ele>281</ele>
        <time>2026-05-20T08:03:46Z</time>
      </trkpt>
      <trkpt lat="47.631" lon="4.36272">
        <ele>280.6</ele>
        <time>2026-05-20T08:03:47Z</time>
      </trkpt>
      <trkpt lat="47.63102" lon="4.36278">
        <ele>279.8</ele>
        <time>2026-05-20T08:03:48Z</time>
      </trkpt>
      <trkpt lat="47.63103" lon="4.36282">
        <ele>279.6</ele>
        <time>2026-05-20T08:03:49Z</time>
      </trkpt>
      <trkpt lat="47.63104" lon="4.36287">
        <ele>279.2</ele>
        <time>2026-05-20T08:03:50Z</time>
      </trkpt>
      <trkpt lat="47.63105" lon="4.36292">
        <ele>279.2</ele>
        <time>2026-05-20T08:03:51Z</time>
      </trkpt>
      <trkpt lat="47.63107" lon="4.36298">
        <ele>278</ele>
        <time>2026-05-20T08:03:52Z</time>
      </trkpt>
      <trkpt lat="47.63108" lon="4.36304">
        <ele>277.4</ele>
        <time>2026-05-20T08:03:53Z</time>
      </trkpt>
      <trkpt lat="47.63109" lon="4.36311">
        <ele>277.2</ele>
        <time>2026-05-20T08:03:54Z</time>
      </trkpt>
      <trkpt lat="47.63111" lon="4.36317">
        <ele>276.6</ele>
        <time>2026-05-20T08:03:55Z</time>
      </trkpt>
      <trkpt lat="47.63114" lon="4.36324">
        <ele>276.4</ele>
        <time>2026-05-20T08:03:56Z</time>
      </trkpt>
      <trkpt lat="47.63116" lon="4.36329">
        <ele>275.8</ele>
        <time>2026-05-20T08:03:57Z</time>
      </trkpt>
      <trkpt lat="47.63118" lon="4.36337">
        <ele>275.6</ele>
        <time>2026-05-20T08:03:58Z</time>
      </trkpt>
      <trkpt lat="47.63121" lon="4.36344">
        <ele>275</ele>
        <time>2026-05-20T08:03:59Z</time>
      </trkpt>
      <trkpt lat="47.63124" lon="4.3635">
        <ele>274.8</ele>
        <time>2026-05-20T08:04:00Z</time>
      </trkpt>
      <trkpt lat="47.63127" lon="4.36355">
        <ele>274.2</ele>
        <time>2026-05-20T08:04:01Z</time>
      </trkpt>
      <trkpt lat="47.6313" lon="4.3636">
        <ele>273.4</ele>
        <time>2026-05-20T08:04:02Z</time>
      </trkpt>
      <trkpt lat="47.63137" lon="4.36367">
        <ele>273.2</ele>
        <time>2026-05-20T08:04:03Z</time>
      </trkpt>
      <trkpt lat="47.63142" lon="4.36371">
        <ele>273</ele>
        <time>2026-05-20T08:04:04Z</time>
      </trkpt>
      <trkpt lat="47.63147" lon="4.36376">
        <ele>272.8</ele>
        <time>2026-05-20T08:04:05Z</time>
      </trkpt>
      <trkpt lat="47.6315" lon="4.3638">
        <ele>272.8</ele>
        <time>2026-05-20T08:04:06Z</time>
      </trkpt>
      <trkpt lat="47.63153" lon="4.36384">
        <ele>272.6</ele>
        <time>2026-05-20T08:04:07Z</time>
      </trkpt>
      <trkpt lat="47.63159" lon="4.36387">
        <ele>272.2</ele>
        <time>2026-05-20T08:04:08Z</time>
      </trkpt>
      <trkpt lat="47.63166" lon="4.36388">
        <ele>272</ele>
        <time>2026-05-20T08:04:09Z</time>
      </trkpt>
      <trkpt lat="47.6317" lon="4.36388">
        <ele>271.6</ele>
        <time>2026-05-20T08:04:10Z</time>
      </trkpt>
      <trkpt lat="47.63176" lon="4.36388">
        <ele>271.4</ele>
        <time>2026-05-20T08:04:11Z</time>
      </trkpt>
      <trkpt lat="47.6318" lon="4.36388">
        <ele>271.2</ele>
        <time>2026-05-20T08:04:12Z</time>
      </trkpt>
      <trkpt lat="47.63184" lon="4.36387">
        <ele>271</ele>
        <time>2026-05-20T08:04:13Z</time>
      </trkpt>
      <trkpt lat="47.63188" lon="4.36386">
        <ele>270.6</ele>
        <time>2026-05-20T08:04:14Z</time>
      </trkpt>
      <trkpt lat="47.63194" lon="4.36386">
        <ele>269.8</ele>
        <time>2026-05-20T08:04:15Z</time>
      </trkpt>
      <trkpt lat="47.63198" lon="4.36386">
        <ele>269.4</ele>
        <time>2026-05-20T08:04:16Z</time>
      </trkpt>
      <trkpt lat="47.63202" lon="4.36385">
        <ele>269.2</ele>
        <time>2026-05-20T08:04:17Z</time>
      </trkpt>
      <trkpt lat="47.63206" lon="4.36385">
        <ele>269</ele>
        <time>2026-05-20T08:04:18Z</time>
      </trkpt>
      <trkpt lat="47.63209" lon="4.36385">
        <ele>268.8</ele>
        <time>2026-05-20T08:04:19Z</time>
      </trkpt>
      <trkpt lat="47.63213" lon="4.36386">
        <ele>268.8</ele>
        <time>2026-05-20T08:04:20Z</time>
      </trkpt>
      <trkpt lat="47.63218" lon="4.36386">
        <ele>268.6</ele>
        <time>2026-05-20T08:04:21Z</time>
      </trkpt>
      <trkpt lat="47.63222" lon="4.36387">
        <ele>268.2</ele>
        <time>2026-05-20T08:04:22Z</time>
      </trkpt>
      <trkpt lat="47.63225" lon="4.36388">
        <ele>268</ele>
        <time>2026-05-20T08:04:23Z</time>
      </trkpt>
      <trkpt lat="47.6323" lon="4.36387">
        <ele>267.2</ele>
        <time>2026-05-20T08:04:24Z</time>
      </trkpt>
      <trkpt lat="47.63234" lon="4.36386">
        <ele>266.8</ele>
        <time>2026-05-20T08:04:25Z</time>
      </trkpt>
      <trkpt lat="47.63238" lon="4.36386">
        <ele>266.4</ele>
        <time>2026-05-20T08:04:26Z</time>
      </trkpt>
      <trkpt lat="47.63242" lon="4.36386">
        <ele>266</ele>
        <time>2026-05-20T08:04:27Z</time>
      </trkpt>
      <trkpt lat="47.63247" lon="4.36386">
        <ele>265.4</ele>
        <time>2026-05-20T08:04:28Z</time>
      </trkpt>
      <trkpt lat="47.63251" lon="4.36385">
        <ele>265</ele>
        <time>2026-05-20T08:04:29Z</time>
      </trkpt>
      <trkpt lat="47.63256" lon="4.36384">
        <ele>264.8</ele>
        <time>2026-05-20T08:04:30Z</time>
      </trkpt>
      <trkpt lat="47.63259" lon="4.36385">
        <ele>264.4</ele>
        <time>2026-05-20T08:04:31Z</time>
      </trkpt>
      <trkpt lat="47.63263" lon="4.36385">
        <ele>264</ele>
        <time>2026-05-20T08:04:32Z</time>
      </trkpt>
      <trkpt lat="47.63266" lon="4.36384">
        <ele>263.6</ele>
        <time>2026-05-20T08:04:33Z</time>
      </trkpt>
      <trkpt lat="47.63269" lon="4.36383">
        <ele>263.4</ele>
        <time>2026-05-20T08:04:34Z</time>
      </trkpt>
      <trkpt lat="47.63273" lon="4.36385">
        <ele>262.8</ele>
        <time>2026-05-20T08:04:35Z</time>
      </trkpt>
      <trkpt lat="47.63277" lon="4.36386">
        <ele>262.2</ele>
        <time>2026-05-20T08:04:36Z</time>
      </trkpt>
      <trkpt lat="47.63281" lon="4.36388">
        <ele>262</ele>
        <time>2026-05-20T08:04:37Z</time>
      </trkpt>
      <trkpt lat="47.63284" lon="4.36391">
        <ele>261.6</ele>
        <time>2026-05-20T08:04:38Z</time>
      </trkpt>
      <trkpt lat="47.63288" lon="4.36391">
        <ele>261.4</ele>
        <time>2026-05-20T08:04:39Z</time>
      </trkpt>
      <trkpt lat="47.63292" lon="4.3639">
        <ele>261.4</ele>
        <time>2026-05-20T08:04:40Z</time>
      </trkpt>
      <trkpt lat="47.63297" lon="4.36389">
        <ele>261.2</ele>
        <time>2026-05-20T08:04:41Z</time>
      </trkpt>
      <trkpt lat="47.63302" lon="4.36387">
        <ele>260.8</ele>
        <time>2026-05-20T08:04:42Z</time>
      </trkpt>
      <trkpt lat="47.63306" lon="4.36387">
        <ele>260.8</ele>
        <time>2026-05-20T08:04:43Z</time>
      </trkpt>
      <trkpt lat="47.63309" lon="4.36385">
        <ele>260</ele>
        <time>2026-05-20T08:04:44Z</time>
      </trkpt>
      <trkpt lat="47.63312" lon="4.36384">
        <ele>259.6</ele>
        <time>2026-05-20T08:04:45Z</time>
      </trkpt>
      <trkpt lat="47.63315" lon="4.36382">
        <ele>259.2</ele>
        <time>2026-05-20T08:04:46Z</time>
      </trkpt>
      <trkpt lat="47.63319" lon="4.36382">
        <ele>258.8</ele>
        <time>2026-05-20T08:04:47Z</time>
      </trkpt>
      <trkpt lat="47.63322" lon="4.3638">
        <ele>258.8</ele>
        <time>2026-05-20T08:04:48Z</time>
      </trkpt>
      <trkpt lat="47.63325" lon="4.3638">
        <ele>258.4</ele>
        <time>2026-05-20T08:04:49Z</time>
      </trkpt>
      <trkpt lat="47.6333" lon="4.36379">
        <ele>258.4</ele>
        <time>2026-05-20T08:04:50Z</time>
      </trkpt>
      <trkpt lat="47.63333" lon="4.36378">
        <ele>258.2</ele>
        <time>2026-05-20T08:04:51Z</time>
      </trkpt>
      <trkpt lat="47.63337" lon="4.36378">
        <ele>258.2</ele>
        <time>2026-05-20T08:04:52Z</time>
      </trkpt>
      <trkpt lat="47.63339" lon="4.36378">
        <ele>258.2</ele>
        <time>2026-05-20T08:04:53Z</time>
      </trkpt>
      <trkpt lat="47.63342" lon="4.36376">
        <ele>258.2</ele>
        <time>2026-05-20T08:04:54Z</time>
      </trkpt>
      <trkpt lat="47.63346" lon="4.36371">
        <ele>258.2</ele>
        <time>2026-05-20T08:04:55Z</time>
      </trkpt>
      <trkpt lat="47.63349" lon="4.36369">
        <ele>258.6</ele>
        <time>2026-05-20T08:04:56Z</time>
      </trkpt>
      <trkpt lat="47.63351" lon="4.36368">
        <ele>258.6</ele>
        <time>2026-05-20T08:04:57Z</time>
      </trkpt>
      <trkpt lat="47.63353" lon="4.36367">
        <ele>258.6</ele>
        <time>2026-05-20T08:04:58Z</time>
      </trkpt>
      <trkpt lat="47.63356" lon="4.36367">
        <ele>258.8</ele>
        <time>2026-05-20T08:04:59Z</time>
      </trkpt>
      <trkpt lat="47.63364" lon="4.36362">
        <ele>258.4</ele>
        <time>2026-05-20T08:05:00Z</time>
      </trkpt>
      <trkpt lat="47.6337" lon="4.36363">
        <ele>258.4</ele>
        <time>2026-05-20T08:05:01Z</time>
      </trkpt>
      <trkpt lat="47.63374" lon="4.36362">
        <ele>258.4</ele>
        <time>2026-05-20T08:05:02Z</time>
      </trkpt>
      <trkpt lat="47.63377" lon="4.36361">
        <ele>258.4</ele>
        <time>2026-05-20T08:05:03Z</time>
      </trkpt>
      <trkpt lat="47.63381" lon="4.36359">
        <ele>258</ele>
        <time>2026-05-20T08:05:04Z</time>
      </trkpt>
      <trkpt lat="47.63384" lon="4.36358">
        <ele>257.2</ele>
        <time>2026-05-20T08:05:05Z</time>
      </trkpt>
      <trkpt lat="47.63388" lon="4.36356">
        <ele>257</ele>
        <time>2026-05-20T08:05:06Z</time>
      </trkpt>
      <trkpt lat="47.63391" lon="4.36356">
        <ele>256.4</ele>
        <time>2026-05-20T08:05:07Z</time>
      </trkpt>
      <trkpt lat="47.63393" lon="4.36355">
        <ele>256.2</ele>
        <time>2026-05-20T08:05:08Z</time>
      </trkpt>
      <trkpt lat="47.63395" lon="4.36356">
        <ele>255.8</ele>
        <time>2026-05-20T08:05:09Z</time>
      </trkpt>
      <trkpt lat="47.63397" lon="4.36358">
        <ele>255.6</ele>
        <time>2026-05-20T08:05:10Z</time>
      </trkpt>
      <trkpt lat="47.63399" lon="4.36359">
        <ele>255.2</ele>
        <time>2026-05-20T08:05:11Z</time>
      </trkpt>
      <trkpt lat="47.63401" lon="4.36365">
        <ele>255</ele>
        <time>2026-05-20T08:05:12Z</time>
      </trkpt>
      <trkpt lat="47.63402" lon="4.3637">
        <ele>254.8</ele>
        <time>2026-05-20T08:05:13Z</time>
      </trkpt>
      <trkpt lat="47.63401" lon="4.36374">
        <ele>254.4</ele>
        <time>2026-05-20T08:05:14Z</time>
      </trkpt>
      <trkpt lat="47.634" lon="4.36377">
        <ele>254.4</ele>
        <time>2026-05-20T08:05:15Z</time>
      </trkpt>
      <trkpt lat="47.63399" lon="4.3638">
        <ele>253.8</ele>
        <time>2026-05-20T08:05:16Z</time>
      </trkpt>
      <trkpt lat="47.63396" lon="4.36383">
        <ele>253.4</ele>
        <time>2026-05-20T08:05:17Z</time>
      </trkpt>
      <trkpt lat="47.63394" lon="4.36386">
        <ele>253</ele>
        <time>2026-05-20T08:05:18Z</time>
      </trkpt>
      <trkpt lat="47.6339" lon="4.3639">
        <ele>252.6</ele>
        <time>2026-05-20T08:05:19Z</time>
      </trkpt>
      <trkpt lat="47.63386" lon="4.36393">
        <ele>252.4</ele>
        <time>2026-05-20T08:05:20Z</time>
      </trkpt>
      <trkpt lat="47.63381" lon="4.36395">
        <ele>252</ele>
        <time>2026-05-20T08:05:21Z</time>
      </trkpt>
      <trkpt lat="47.63376" lon="4.36399">
        <ele>251.8</ele>
        <time>2026-05-20T08:05:22Z</time>
      </trkpt>
      <trkpt lat="47.63372" lon="4.36404">
        <ele>251.6</ele>
        <time>2026-05-20T08:05:23Z</time>
      </trkpt>
      <trkpt lat="47.63367" lon="4.3641">
        <ele>251.4</ele>
        <time>2026-05-20T08:05:24Z</time>
      </trkpt>
      <trkpt lat="47.6336" lon="4.36415">
        <ele>251</ele>
        <time>2026-05-20T08:05:25Z</time>
      </trkpt>
      <trkpt lat="47.63354" lon="4.36419">
        <ele>251</ele>
        <time>2026-05-20T08:05:26Z</time>
      </trkpt>
      <trkpt lat="47.63349" lon="4.36424">
        <ele>250.6</ele>
        <time>2026-05-20T08:05:27Z</time>
      </trkpt>
      <trkpt lat="47.63343" lon="4.36428">
        <ele>250.6</ele>
        <time>2026-05-20T08:05:28Z</time>
      </trkpt>
      <trkpt lat="47.63337" lon="4.36431">
        <ele>250.2</ele>
        <time>2026-05-20T08:05:29Z</time>
      </trkpt>
      <trkpt lat="47.63331" lon="4.36431">
        <ele>249.4</ele>
        <time>2026-05-20T08:05:30Z</time>
      </trkpt>
      <trkpt lat="47.63325" lon="4.36432">
        <ele>248.8</ele>
        <time>2026-05-20T08:05:31Z</time>
      </trkpt>
      <trkpt lat="47.63319" lon="4.36434">
        <ele>248.2</ele>
        <time>2026-05-20T08:05:32Z</time>
      </trkpt>
      <trkpt lat="47.63312" lon="4.36438">
        <ele>248</ele>
        <time>2026-05-20T08:05:33Z</time>
      </trkpt>
      <trkpt lat="47.63305" lon="4.3644">
        <ele>247.4</ele>
        <time>2026-05-20T08:05:34Z</time>
      </trkpt>
      <trkpt lat="47.63298" lon="4.36441">
        <ele>247</ele>
        <time>2026-05-20T08:05:35Z</time>
      </trkpt>
      <trkpt lat="47.63291" lon="4.36443">
        <ele>246.4</ele>
        <time>2026-05-20T08:05:36Z</time>
      </trkpt>
      <trkpt lat="47.63283" lon="4.36445">
        <ele>246.2</ele>
        <time>2026-05-20T08:05:37Z</time>
      </trkpt>
      <trkpt lat="47.63277" lon="4.36448">
        <ele>245</ele>
        <time>2026-05-20T08:05:38Z</time>
      </trkpt>
      <trkpt lat="47.6327" lon="4.3645">
        <ele>244.4</ele>
        <time>2026-05-20T08:05:39Z</time>
      </trkpt>
      <trkpt lat="47.63264" lon="4.36453">
        <ele>243.8</ele>
        <time>2026-05-20T08:05:40Z</time>
      </trkpt>
      <trkpt lat="47.63256" lon="4.36457">
        <ele>243</ele>
        <time>2026-05-20T08:05:41Z</time>
      </trkpt>
      <trkpt lat="47.6325" lon="4.3646">
        <ele>242.6</ele>
        <time>2026-05-20T08:05:42Z</time>
      </trkpt>
      <trkpt lat="47.63244" lon="4.36462">
        <ele>241.8</ele>
        <time>2026-05-20T08:05:43Z</time>
      </trkpt>
      <trkpt lat="47.63237" lon="4.36465">
        <ele>241.6</ele>
        <time>2026-05-20T08:05:44Z</time>
      </trkpt>
      <trkpt lat="47.6323" lon="4.36469">
        <ele>240.8</ele>
        <time>2026-05-20T08:05:45Z</time>
      </trkpt>
      <trkpt lat="47.63223" lon="4.36471">
        <ele>240.4</ele>
        <time>2026-05-20T08:05:46Z</time>
      </trkpt>
      <trkpt lat="47.63214" lon="4.36474">
        <ele>239.6</ele>
        <time>2026-05-20T08:05:47Z</time>
      </trkpt>
      <trkpt lat="47.63206" lon="4.36478">
        <ele>239</ele>
        <time>2026-05-20T08:05:48Z</time>
      </trkpt>
      <trkpt lat="47.63198" lon="4.36481">
        <ele>238.8</ele>
        <time>2026-05-20T08:05:49Z</time>
      </trkpt>
      <trkpt lat="47.63188" lon="4.36485">
        <ele>238.4</ele>
        <time>2026-05-20T08:05:50Z</time>
      </trkpt>
      <trkpt lat="47.63181" lon="4.3649">
        <ele>237.8</ele>
        <time>2026-05-20T08:05:51Z</time>
      </trkpt>
      <trkpt lat="47.63175" lon="4.36494">
        <ele>236.6</ele>
        <time>2026-05-20T08:05:52Z</time>
      </trkpt>
      <trkpt lat="47.63168" lon="4.36499">
        <ele>236.2</ele>
        <time>2026-05-20T08:05:53Z</time>
      </trkpt>
      <trkpt lat="47.63162" lon="4.36505">
        <ele>235</ele>
        <time>2026-05-20T08:05:54Z</time>
      </trkpt>
      <trkpt lat="47.63158" lon="4.36509">
        <ele>234.6</ele>
        <time>2026-05-20T08:05:55Z</time>
      </trkpt>
      <trkpt lat="47.63153" lon="4.36514">
        <ele>233.6</ele>
        <time>2026-05-20T08:05:56Z</time>
      </trkpt>
      <trkpt lat="47.63148" lon="4.3652">
        <ele>232.8</ele>
        <time>2026-05-20T08:05:57Z</time>
      </trkpt>
      <trkpt lat="47.63144" lon="4.36526">
        <ele>232.4</ele>
        <time>2026-05-20T08:05:58Z</time>
      </trkpt>
      <trkpt lat="47.6314" lon="4.3653">
        <ele>231.8</ele>
        <time>2026-05-20T08:05:59Z</time>
      </trkpt>
      <trkpt lat="47.63136" lon="4.36535">
        <ele>231.6</ele>
        <time>2026-05-20T08:06:00Z</time>
      </trkpt>
      <trkpt lat="47.63134" lon="4.3654">
        <ele>230.8</ele>
        <time>2026-05-20T08:06:01Z</time>
      </trkpt>
      <trkpt lat="47.6313" lon="4.36546">
        <ele>230.6</ele>
        <time>2026-05-20T08:06:02Z</time>
      </trkpt>
      <trkpt lat="47.63128" lon="4.3655">
        <ele>230</ele>
        <time>2026-05-20T08:06:03Z</time>
      </trkpt>
      <trkpt lat="47.63125" lon="4.36557">
        <ele>229.6</ele>
        <time>2026-05-20T08:06:04Z</time>
      </trkpt>
      <trkpt lat="47.63123" lon="4.36565">
        <ele>229.4</ele>
        <time>2026-05-20T08:06:05Z</time>
      </trkpt>
      <trkpt lat="47.63123" lon="4.36572">
        <ele>228.8</ele>
        <time>2026-05-20T08:06:06Z</time>
      </trkpt>
      <trkpt lat="47.63123" lon="4.36579">
        <ele>228.6</ele>
        <time>2026-05-20T08:06:07Z</time>
      </trkpt>
      <trkpt lat="47.63123" lon="4.36586">
        <ele>227.8</ele>
        <time>2026-05-20T08:06:08Z</time>
      </trkpt>
      <trkpt lat="47.63123" lon="4.36594">
        <ele>227.4</ele>
        <time>2026-05-20T08:06:09Z</time>
      </trkpt>
      <trkpt lat="47.63124" lon="4.36602">
        <ele>227</ele>
        <time>2026-05-20T08:06:10Z</time>
      </trkpt>
      <trkpt lat="47.63124" lon="4.36611">
        <ele>226.8</ele>
        <time>2026-05-20T08:06:11Z</time>
      </trkpt>
      <trkpt lat="47.63125" lon="4.36619">
        <ele>226.6</ele>
        <time>2026-05-20T08:06:12Z</time>
      </trkpt>
      <trkpt lat="47.63125" lon="4.36626">
        <ele>226.4</ele>
        <time>2026-05-20T08:06:13Z</time>
      </trkpt>
      <trkpt lat="47.63127" lon="4.36634">
        <ele>226.4</ele>
        <time>2026-05-20T08:06:14Z</time>
      </trkpt>
      <trkpt lat="47.63128" lon="4.3664">
        <ele>226.2</ele>
        <time>2026-05-20T08:06:15Z</time>
      </trkpt>
      <trkpt lat="47.6313" lon="4.36647">
        <ele>226</ele>
        <time>2026-05-20T08:06:16Z</time>
      </trkpt>
      <trkpt lat="47.63131" lon="4.36654">
        <ele>225.8</ele>
        <time>2026-05-20T08:06:17Z</time>
      </trkpt>
      <trkpt lat="47.63135" lon="4.3666">
        <ele>225.8</ele>
        <time>2026-05-20T08:06:18Z</time>
      </trkpt>
      <trkpt lat="47.63138" lon="4.36665">
        <ele>225.8</ele>
        <time>2026-05-20T08:06:19Z</time>
      </trkpt>
      <trkpt lat="47.6314" lon="4.36669">
        <ele>225.8</ele>
        <time>2026-05-20T08:06:20Z</time>
      </trkpt>
      <trkpt lat="47.63142" lon="4.36672">
        <ele>225.6</ele>
        <time>2026-05-20T08:06:21Z</time>
      </trkpt>
      <trkpt lat="47.63144" lon="4.36676">
        <ele>225.6</ele>
        <time>2026-05-20T08:06:22Z</time>
      </trkpt>
      <trkpt lat="47.63146" lon="4.36681">
        <ele>225.6</ele>
        <time>2026-05-20T08:06:23Z</time>
      </trkpt>
      <trkpt lat="47.63148" lon="4.36685">
        <ele>225.6</ele>
        <time>2026-05-20T08:06:24Z</time>
      </trkpt>
      <trkpt lat="47.6315" lon="4.3669">
        <ele>225.6</ele>
        <time>2026-05-20T08:06:25Z</time>
      </trkpt>
      <trkpt lat="47.63153" lon="4.36695">
        <ele>225.6</ele>
        <time>2026-05-20T08:06:26Z</time>
      </trkpt>
      <trkpt lat="47.63156" lon="4.367">
        <ele>225.4</ele>
        <time>2026-05-20T08:06:27Z</time>
      </trkpt>
      <trkpt lat="47.63158" lon="4.36706">
        <ele>225.4</ele>
        <time>2026-05-20T08:06:28Z</time>
      </trkpt>
      <trkpt lat="47.63161" lon="4.36711">
        <ele>225.4</ele>
        <time>2026-05-20T08:06:29Z</time>
      </trkpt>
      <trkpt lat="47.63163" lon="4.36717">
        <ele>225.4</ele>
        <time>2026-05-20T08:06:30Z</time>
      </trkpt>
      <trkpt lat="47.63165" lon="4.36723">
        <ele>225.2</ele>
        <time>2026-05-20T08:06:31Z</time>
      </trkpt>
      <trkpt lat="47.63168" lon="4.36731">
        <ele>225.2</ele>
        <time>2026-05-20T08:06:32Z</time>
      </trkpt>
      <trkpt lat="47.63171" lon="4.36738">
        <ele>225</ele>
        <time>2026-05-20T08:06:33Z</time>
      </trkpt>
      <trkpt lat="47.63173" lon="4.36746">
        <ele>224.8</ele>
        <time>2026-05-20T08:06:34Z</time>
      </trkpt>
      <trkpt lat="47.63176" lon="4.36754">
        <ele>224.6</ele>
        <time>2026-05-20T08:06:35Z</time>
      </trkpt>
      <trkpt lat="47.63178" lon="4.36761">
        <ele>224.6</ele>
        <time>2026-05-20T08:06:36Z</time>
      </trkpt>
      <trkpt lat="47.63181" lon="4.36767">
        <ele>224.4</ele>
        <time>2026-05-20T08:06:37Z</time>
      </trkpt>
      <trkpt lat="47.63184" lon="4.36775">
        <ele>224.4</ele>
        <time>2026-05-20T08:06:38Z</time>
      </trkpt>
      <trkpt lat="47.63186" lon="4.36779">
        <ele>224.2</ele>
        <time>2026-05-20T08:06:39Z</time>
      </trkpt>
      <trkpt lat="47.63188" lon="4.36785">
        <ele>224</ele>
        <time>2026-05-20T08:06:40Z</time>
      </trkpt>
      <trkpt lat="47.6319" lon="4.36791">
        <ele>223.8</ele>
        <time>2026-05-20T08:06:41Z</time>
      </trkpt>
      <trkpt lat="47.63193" lon="4.36798">
        <ele>223.6</ele>
        <time>2026-05-20T08:06:42Z</time>
      </trkpt>
      <trkpt lat="47.63195" lon="4.36805">
        <ele>223.6</ele>
        <time>2026-05-20T08:06:43Z</time>
      </trkpt>
      <trkpt lat="47.63196" lon="4.36812">
        <ele>223.2</ele>
        <time>2026-05-20T08:06:44Z</time>
      </trkpt>
      <trkpt lat="47.63198" lon="4.3682">
        <ele>223.2</ele>
        <time>2026-05-20T08:06:45Z</time>
      </trkpt>
      <trkpt lat="47.63201" lon="4.36827">
        <ele>223</ele>
        <time>2026-05-20T08:06:46Z</time>
      </trkpt>
      <trkpt lat="47.63206" lon="4.36837">
        <ele>222.8</ele>
        <time>2026-05-20T08:06:47Z</time>
      </trkpt>
      <trkpt lat="47.6321" lon="4.36845">
        <ele>222.6</ele>
        <time>2026-05-20T08:06:48Z</time>
      </trkpt>
      <trkpt lat="47.63216" lon="4.36855">
        <ele>222</ele>
        <time>2026-05-20T08:06:49Z</time>
      </trkpt>
      <trkpt lat="47.6322" lon="4.3686">
        <ele>221.6</ele>
        <time>2026-05-20T08:06:50Z</time>
      </trkpt>
      <trkpt lat="47.63224" lon="4.36867">
        <ele>221</ele>
        <time>2026-05-20T08:06:51Z</time>
      </trkpt>
      <trkpt lat="47.63228" lon="4.36874">
        <ele>220.6</ele>
        <time>2026-05-20T08:06:52Z</time>
      </trkpt>
      <trkpt lat="47.63231" lon="4.36879">
        <ele>220.2</ele>
        <time>2026-05-20T08:06:53Z</time>
      </trkpt>
      <trkpt lat="47.63235" lon="4.36885">
        <ele>220.2</ele>
        <time>2026-05-20T08:06:54Z</time>
      </trkpt>
      <trkpt lat="47.63238" lon="4.36889">
        <ele>219.8</ele>
        <time>2026-05-20T08:06:55Z</time>
      </trkpt>
      <trkpt lat="47.63241" lon="4.36892">
        <ele>219.6</ele>
        <time>2026-05-20T08:06:56Z</time>
      </trkpt>
      <trkpt lat="47.63245" lon="4.36897">
        <ele>219.6</ele>
        <time>2026-05-20T08:06:57Z</time>
      </trkpt>
      <trkpt lat="47.63248" lon="4.36901">
        <ele>219.4</ele>
        <time>2026-05-20T08:06:58Z</time>
      </trkpt>
      <trkpt lat="47.6325" lon="4.36906">
        <ele>219.4</ele>
        <time>2026-05-20T08:06:59Z</time>
      </trkpt>
      <trkpt lat="47.63253" lon="4.3691">
        <ele>219.6</ele>
        <time>2026-05-20T08:07:00Z</time>
      </trkpt>
      <trkpt lat="47.63257" lon="4.36914">
        <ele>219.6</ele>
        <time>2026-05-20T08:07:01Z</time>
      </trkpt>
      <trkpt lat="47.63261" lon="4.36919">
        <ele>219.6</ele>
        <time>2026-05-20T08:07:02Z</time>
      </trkpt>
      <trkpt lat="47.63265" lon="4.36923">
        <ele>219.6</ele>
        <time>2026-05-20T08:07:03Z</time>
      </trkpt>
      <trkpt lat="47.63269" lon="4.36927">
        <ele>219.8</ele>
        <time>2026-05-20T08:07:04Z</time>
      </trkpt>
      <trkpt lat="47.63273" lon="4.36933">
        <ele>219.8</ele>
        <time>2026-05-20T08:07:05Z</time>
      </trkpt>
      <trkpt lat="47.63276" lon="4.3694">
        <ele>219.8</ele>
        <time>2026-05-20T08:07:06Z</time>
      </trkpt>
      <trkpt lat="47.63279" lon="4.36946">
        <ele>219.8</ele>
        <time>2026-05-20T08:07:07Z</time>
      </trkpt>
      <trkpt lat="47.63282" lon="4.36951">
        <ele>220</ele>
        <time>2026-05-20T08:07:08Z</time>
      </trkpt>
      <trkpt lat="47.63286" lon="4.36954">
        <ele>219.8</ele>
        <time>2026-05-20T08:07:09Z</time>
      </trkpt>
      <trkpt lat="47.63289" lon="4.36957">
        <ele>220</ele>
        <time>2026-05-20T08:07:10Z</time>
      </trkpt>
      <trkpt lat="47.63293" lon="4.3696">
        <ele>220</ele>
        <time>2026-05-20T08:07:11Z</time>
      </trkpt>
      <trkpt lat="47.63296" lon="4.36963">
        <ele>220</ele>
        <time>2026-05-20T08:07:12Z</time>
      </trkpt>
      <trkpt lat="47.63299" lon="4.36965">
        <ele>220.2</ele>
        <time>2026-05-20T08:07:13Z</time>
      </trkpt>
      <trkpt lat="47.63302" lon="4.36967">
        <ele>220.4</ele>
        <time>2026-05-20T08:07:14Z</time>
      </trkpt>
      <trkpt lat="47.63305" lon="4.3697">
        <ele>220.6</ele>
        <time>2026-05-20T08:07:15Z</time>
      </trkpt>
      <trkpt lat="47.63308" lon="4.36971">
        <ele>220.6</ele>
        <time>2026-05-20T08:07:16Z</time>
      </trkpt>
      <trkpt lat="47.6331" lon="4.36974">
        <ele>220.6</ele>
        <time>2026-05-20T08:07:17Z</time>
      </trkpt>
      <trkpt lat="47.6331" lon="4.36976">
        <ele>220.8</ele>
        <time>2026-05-20T08:07:18Z</time>
      </trkpt>
      <trkpt lat="47.63311" lon="4.36977">
        <ele>221</ele>
        <time>2026-05-20T08:07:19Z</time>
      </trkpt>
      <trkpt lat="47.63312" lon="4.36979">
        <ele>221.4</ele>
        <time>2026-05-20T08:07:20Z</time>
      </trkpt>
      <trkpt lat="47.63314" lon="4.36981">
        <ele>221.6</ele>
        <time>2026-05-20T08:07:21Z</time>
      </trkpt>
      <trkpt lat="47.63316" lon="4.36984">
        <ele>221.8</ele>
        <time>2026-05-20T08:07:22Z</time>
      </trkpt>
      <trkpt lat="47.63318" lon="4.36988">
        <ele>222</ele>
        <time>2026-05-20T08:07:23Z</time>
      </trkpt>
      <trkpt lat="47.6332" lon="4.36991">
        <ele>222.4</ele>
        <time>2026-05-20T08:07:24Z</time>
      </trkpt>
      <trkpt lat="47.63321" lon="4.36995">
        <ele>222.6</ele>
        <time>2026-05-20T08:07:25Z</time>
      </trkpt>
      <trkpt lat="47.63323" lon="4.36998">
        <ele>222.8</ele>
        <time>2026-05-20T08:07:26Z</time>
      </trkpt>
      <trkpt lat="47.63325" lon="4.37001">
        <ele>223</ele>
        <time>2026-05-20T08:07:27Z</time>
      </trkpt>
      <trkpt lat="47.63327" lon="4.37005">
        <ele>223.2</ele>
        <time>2026-05-20T08:07:28Z</time>
      </trkpt>
      <trkpt lat="47.63329" lon="4.37008">
        <ele>223.2</ele>
        <time>2026-05-20T08:07:29Z</time>
      </trkpt>
      <trkpt lat="47.63331" lon="4.37012">
        <ele>223.4</ele>
        <time>2026-05-20T08:07:30Z</time>
      </trkpt>
      <trkpt lat="47.63334" lon="4.37015">
        <ele>223.4</ele>
        <time>2026-05-20T08:07:31Z</time>
      </trkpt>
      <trkpt lat="47.63337" lon="4.37019">
        <ele>223.4</ele>
        <time>2026-05-20T08:07:32Z</time>
      </trkpt>
      <trkpt lat="47.6334" lon="4.37024">
        <ele>223.6</ele>
        <time>2026-05-20T08:07:33Z</time>
      </trkpt>
      <trkpt lat="47.63344" lon="4.37028">
        <ele>223.8</ele>
        <time>2026-05-20T08:07:34Z</time>
      </trkpt>
      <trkpt lat="47.63346" lon="4.37033">
        <ele>224</ele>
        <time>2026-05-20T08:07:35Z</time>
      </trkpt>
      <trkpt lat="47.63348" lon="4.37039">
        <ele>224</ele>
        <time>2026-05-20T08:07:36Z</time>
      </trkpt>
      <trkpt lat="47.6335" lon="4.37044">
        <ele>224</ele>
        <time>2026-05-20T08:07:37Z</time>
      </trkpt>
      <trkpt lat="47.63352" lon="4.37047">
        <ele>224</ele>
        <time>2026-05-20T08:07:38Z</time>
      </trkpt>
      <trkpt lat="47.63354" lon="4.37052">
        <ele>224</ele>
        <time>2026-05-20T08:07:39Z</time>
      </trkpt>
      <trkpt lat="47.63357" lon="4.37057">
        <ele>224.2</ele>
        <time>2026-05-20T08:07:40Z</time>
      </trkpt>
      <trkpt lat="47.63361" lon="4.37062">
        <ele>224.2</ele>
        <time>2026-05-20T08:07:41Z</time>
      </trkpt>
      <trkpt lat="47.63364" lon="4.37066">
        <ele>224.2</ele>
        <time>2026-05-20T08:07:42Z</time>
      </trkpt>
      <trkpt lat="47.63368" lon="4.3707">
        <ele>224.2</ele>
        <time>2026-05-20T08:07:43Z</time>
      </trkpt>
      <trkpt lat="47.63372" lon="4.37075">
        <ele>224.2</ele>
        <time>2026-05-20T08:07:44Z</time>
      </trkpt>
      <trkpt lat="47.63375" lon="4.3708">
        <ele>224.2</ele>
        <time>2026-05-20T08:07:45Z</time>
      </trkpt>
      <trkpt lat="47.63378" lon="4.37085">
        <ele>224.4</ele>
        <time>2026-05-20T08:07:46Z</time>
      </trkpt>
      <trkpt lat="47.63381" lon="4.3709">
        <ele>224.4</ele>
        <time>2026-05-20T08:07:47Z</time>
      </trkpt>
      <trkpt lat="47.63383" lon="4.37095">
        <ele>224.4</ele>
        <time>2026-05-20T08:07:48Z</time>
      </trkpt>
      <trkpt lat="47.63386" lon="4.37099">
        <ele>224.4</ele>
        <time>2026-05-20T08:07:49Z</time>
      </trkpt>
      <trkpt lat="47.63389" lon="4.37102">
        <ele>224.4</ele>
        <time>2026-05-20T08:07:50Z</time>
      </trkpt>
      <trkpt lat="47.63392" lon="4.37106">
        <ele>224.4</ele>
        <time>2026-05-20T08:07:51Z</time>
      </trkpt>
      <trkpt lat="47.63395" lon="4.37111">
        <ele>224.2</ele>
        <time>2026-05-20T08:07:52Z</time>
      </trkpt>
      <trkpt lat="47.63399" lon="4.37116">
        <ele>224.2</ele>
        <time>2026-05-20T08:07:53Z</time>
      </trkpt>
      <trkpt lat="47.63401" lon="4.37121">
        <ele>224.2</ele>
        <time>2026-05-20T08:07:54Z</time>
      </trkpt>
      <trkpt lat="47.63404" lon="4.37125">
        <ele>224.2</ele>
        <time>2026-05-20T08:07:55Z</time>
      </trkpt>
      <trkpt lat="47.63408" lon="4.37129">
        <ele>224.4</ele>
        <time>2026-05-20T08:07:56Z</time>
      </trkpt>
      <trkpt lat="47.63412" lon="4.37132">
        <ele>224.4</ele>
        <time>2026-05-20T08:07:57Z</time>
      </trkpt>
      <trkpt lat="47.63416" lon="4.37135">
        <ele>224.4</ele>
        <time>2026-05-20T08:07:58Z</time>
      </trkpt>
      <trkpt lat="47.6342" lon="4.37138">
        <ele>224.4</ele>
        <time>2026-05-20T08:07:59Z</time>
      </trkpt>
      <trkpt lat="47.63424" lon="4.37141">
        <ele>224.6</ele>
        <time>2026-05-20T08:08:00Z</time>
      </trkpt>
      <trkpt lat="47.63427" lon="4.37144">
        <ele>224.6</ele>
        <time>2026-05-20T08:08:01Z</time>
      </trkpt>
      <trkpt lat="47.63431" lon="4.37147">
        <ele>224.6</ele>
        <time>2026-05-20T08:08:02Z</time>
      </trkpt>
      <trkpt lat="47.63435" lon="4.37151">
        <ele>224.6</ele>
        <time>2026-05-20T08:08:03Z</time>
      </trkpt>
      <trkpt lat="47.63439" lon="4.37153">
        <ele>224.6</ele>
        <time>2026-05-20T08:08:04Z</time>
      </trkpt>
      <trkpt lat="47.63444" lon="4.37156">
        <ele>224.6</ele>
        <time>2026-05-20T08:08:05Z</time>
      </trkpt>
      <trkpt lat="47.63447" lon="4.37157">
        <ele>224.6</ele>
        <time>2026-05-20T08:08:06Z</time>
      </trkpt>
      <trkpt lat="47.6345" lon="4.37161">
        <ele>224.6</ele>
        <time>2026-05-20T08:08:07Z</time>
      </trkpt>
      <trkpt lat="47.63454" lon="4.37163">
        <ele>224.6</ele>
        <time>2026-05-20T08:08:08Z</time>
      </trkpt>
      <trkpt lat="47.63458" lon="4.37164">
        <ele>224.4</ele>
        <time>2026-05-20T08:08:09Z</time>
      </trkpt>
      <trkpt lat="47.63463" lon="4.37166">
        <ele>224.4</ele>
        <time>2026-05-20T08:08:10Z</time>
      </trkpt>
      <trkpt lat="47.63468" lon="4.37168">
        <ele>224.4</ele>
        <time>2026-05-20T08:08:11Z</time>
      </trkpt>
      <trkpt lat="47.63472" lon="4.37169">
        <ele>224.4</ele>
        <time>2026-05-20T08:08:12Z</time>
      </trkpt>
      <trkpt lat="47.63477" lon="4.37168">
        <ele>224.4</ele>
        <time>2026-05-20T08:08:13Z</time>
      </trkpt>
      <trkpt lat="47.63482" lon="4.37169">
        <ele>224.2</ele>
        <time>2026-05-20T08:08:14Z</time>
      </trkpt>
      <trkpt lat="47.63487" lon="4.37169">
        <ele>224.2</ele>
        <time>2026-05-20T08:08:15Z</time>
      </trkpt>
      <trkpt lat="47.63491" lon="4.37169">
        <ele>224.2</ele>
        <time>2026-05-20T08:08:16Z</time>
      </trkpt>
      <trkpt lat="47.63495" lon="4.3717">
        <ele>224.2</ele>
        <time>2026-05-20T08:08:17Z</time>
      </trkpt>
      <trkpt lat="47.63499" lon="4.37169">
        <ele>224.2</ele>
        <time>2026-05-20T08:08:18Z</time>
      </trkpt>
      <trkpt lat="47.63502" lon="4.37168">
        <ele>224.2</ele>
        <time>2026-05-20T08:08:19Z</time>
      </trkpt>
      <trkpt lat="47.63506" lon="4.37168">
        <ele>224.2</ele>
        <time>2026-05-20T08:08:20Z</time>
      </trkpt>
      <trkpt lat="47.6351" lon="4.37167">
        <ele>224.2</ele>
        <time>2026-05-20T08:08:21Z</time>
      </trkpt>
      <trkpt lat="47.63515" lon="4.37168">
        <ele>224.2</ele>
        <time>2026-05-20T08:08:22Z</time>
      </trkpt>
      <trkpt lat="47.63518" lon="4.37169">
        <ele>224.4</ele>
        <time>2026-05-20T08:08:23Z</time>
      </trkpt>
      <trkpt lat="47.63523" lon="4.37169">
        <ele>224.4</ele>
        <time>2026-05-20T08:08:24Z</time>
      </trkpt>
      <trkpt lat="47.63529" lon="4.37171">
        <ele>224.4</ele>
        <time>2026-05-20T08:08:25Z</time>
      </trkpt>
      <trkpt lat="47.63535" lon="4.37175">
        <ele>224.4</ele>
        <time>2026-05-20T08:08:26Z</time>
      </trkpt>
      <trkpt lat="47.63541" lon="4.37176">
        <ele>224.4</ele>
        <time>2026-05-20T08:08:27Z</time>
      </trkpt>
      <trkpt lat="47.63547" lon="4.37177">
        <ele>224.4</ele>
        <time>2026-05-20T08:08:28Z</time>
      </trkpt>
      <trkpt lat="47.63551" lon="4.37178">
        <ele>224.4</ele>
        <time>2026-05-20T08:08:29Z</time>
      </trkpt>
      <trkpt lat="47.63556" lon="4.37181">
        <ele>224.2</ele>
        <time>2026-05-20T08:08:30Z</time>
      </trkpt>
      <trkpt lat="47.63561" lon="4.37184">
        <ele>224.2</ele>
        <time>2026-05-20T08:08:31Z</time>
      </trkpt>
      <trkpt lat="47.63566" lon="4.37186">
        <ele>224.2</ele>
        <time>2026-05-20T08:08:32Z</time>
      </trkpt>
      <trkpt lat="47.6357" lon="4.37188">
        <ele>224.2</ele>
        <time>2026-05-20T08:08:33Z</time>
      </trkpt>
      <trkpt lat="47.63575" lon="4.37189">
        <ele>224.2</ele>
        <time>2026-05-20T08:08:34Z</time>
      </trkpt>
      <trkpt lat="47.63581" lon="4.37191">
        <ele>224.2</ele>
        <time>2026-05-20T08:08:35Z</time>
      </trkpt>
      <trkpt lat="47.63586" lon="4.37194">
        <ele>224.2</ele>
        <time>2026-05-20T08:08:36Z</time>
      </trkpt>
      <trkpt lat="47.63589" lon="4.37195">
        <ele>224.4</ele>
        <time>2026-05-20T08:08:37Z</time>
      </trkpt>
      <trkpt lat="47.63593" lon="4.37196">
        <ele>224.4</ele>
        <time>2026-05-20T08:08:38Z</time>
      </trkpt>
      <trkpt lat="47.63596" lon="4.37199">
        <ele>224.4</ele>
        <time>2026-05-20T08:08:39Z</time>
      </trkpt>
      <trkpt lat="47.636" lon="4.37201">
        <ele>224.4</ele>
        <time>2026-05-20T08:08:40Z</time>
      </trkpt>
      <trkpt lat="47.63602" lon="4.37206">
        <ele>224.6</ele>
        <time>2026-05-20T08:08:41Z</time>
      </trkpt>
      <trkpt lat="47.63606" lon="4.37209">
        <ele>224.6</ele>
        <time>2026-05-20T08:08:42Z</time>
      </trkpt>
      <trkpt lat="47.63611" lon="4.37211">
        <ele>224.6</ele>
        <time>2026-05-20T08:08:43Z</time>
      </trkpt>
      <trkpt lat="47.63616" lon="4.37215">
        <ele>224.6</ele>
        <time>2026-05-20T08:08:44Z</time>
      </trkpt>
      <trkpt lat="47.63619" lon="4.3722">
        <ele>224.8</ele>
        <time>2026-05-20T08:08:45Z</time>
      </trkpt>
      <trkpt lat="47.63623" lon="4.37224">
        <ele>224.8</ele>
        <time>2026-05-20T08:08:46Z</time>
      </trkpt>
      <trkpt lat="47.63626" lon="4.37228">
        <ele>225</ele>
        <time>2026-05-20T08:08:47Z</time>
      </trkpt>
      <trkpt lat="47.63628" lon="4.37231">
        <ele>225.2</ele>
        <time>2026-05-20T08:08:48Z</time>
      </trkpt>
      <trkpt lat="47.63629" lon="4.37234">
        <ele>225.2</ele>
        <time>2026-05-20T08:08:49Z</time>
      </trkpt>
      <trkpt lat="47.63631" lon="4.37238">
        <ele>225</ele>
        <time>2026-05-20T08:08:50Z</time>
      </trkpt>
      <trkpt lat="47.63636" lon="4.37242">
        <ele>225</ele>
        <time>2026-05-20T08:08:51Z</time>
      </trkpt>
      <trkpt lat="47.63638" lon="4.37246">
        <ele>225</ele>
        <time>2026-05-20T08:08:52Z</time>
      </trkpt>
      <trkpt lat="47.63641" lon="4.3725">
        <ele>225</ele>
        <time>2026-05-20T08:08:53Z</time>
      </trkpt>
      <trkpt lat="47.63644" lon="4.37253">
        <ele>225.2</ele>
        <time>2026-05-20T08:08:54Z</time>
      </trkpt>
      <trkpt lat="47.63647" lon="4.37255">
        <ele>225.2</ele>
        <time>2026-05-20T08:08:55Z</time>
      </trkpt>
      <trkpt lat="47.63649" lon="4.37258">
        <ele>225.2</ele>
        <time>2026-05-20T08:08:56Z</time>
      </trkpt>
      <trkpt lat="47.63652" lon="4.37262">
        <ele>225.2</ele>
        <time>2026-05-20T08:08:57Z</time>
      </trkpt>
      <trkpt lat="47.63654" lon="4.37266">
        <ele>225.2</ele>
        <time>2026-05-20T08:08:58Z</time>
      </trkpt>
      <trkpt lat="47.63656" lon="4.37269">
        <ele>225.4</ele>
        <time>2026-05-20T08:08:59Z</time>
      </trkpt>
      <trkpt lat="47.63659" lon="4.37272">
        <ele>225.4</ele>
        <time>2026-05-20T08:09:00Z</time>
      </trkpt>
      <trkpt lat="47.63662" lon="4.37274">
        <ele>225.6</ele>
        <time>2026-05-20T08:09:01Z</time>
      </trkpt>
      <trkpt lat="47.63665" lon="4.37276">
        <ele>225.6</ele>
        <time>2026-05-20T08:09:02Z</time>
      </trkpt>
      <trkpt lat="47.63668" lon="4.3728">
        <ele>225.8</ele>
        <time>2026-05-20T08:09:03Z</time>
      </trkpt>
      <trkpt lat="47.63672" lon="4.37285">
        <ele>225.8</ele>
        <time>2026-05-20T08:09:04Z</time>
      </trkpt>
      <trkpt lat="47.63676" lon="4.37288">
        <ele>226</ele>
        <time>2026-05-20T08:09:05Z</time>
      </trkpt>
      <trkpt lat="47.63679" lon="4.37291">
        <ele>226.4</ele>
        <time>2026-05-20T08:09:06Z</time>
      </trkpt>
      <trkpt lat="47.63682" lon="4.37293">
        <ele>226.4</ele>
        <time>2026-05-20T08:09:07Z</time>
      </trkpt>
      <trkpt lat="47.63685" lon="4.37295">
        <ele>226.6</ele>
        <time>2026-05-20T08:09:08Z</time>
      </trkpt>
      <trkpt lat="47.63688" lon="4.37298">
        <ele>226.6</ele>
        <time>2026-05-20T08:09:09Z</time>
      </trkpt>
      <trkpt lat="47.63692" lon="4.37302">
        <ele>226.8</ele>
        <time>2026-05-20T08:09:10Z</time>
      </trkpt>
      <trkpt lat="47.63696" lon="4.37306">
        <ele>226.8</ele>
        <time>2026-05-20T08:09:11Z</time>
      </trkpt>
      <trkpt lat="47.63698" lon="4.37309">
        <ele>227</ele>
        <time>2026-05-20T08:09:12Z</time>
      </trkpt>
      <trkpt lat="47.63701" lon="4.37312">
        <ele>227.2</ele>
        <time>2026-05-20T08:09:13Z</time>
      </trkpt>
      <trkpt lat="47.63703" lon="4.37315">
        <ele>227.2</ele>
        <time>2026-05-20T08:09:14Z</time>
      </trkpt>
      <trkpt lat="47.63705" lon="4.37318">
        <ele>227.4</ele>
        <time>2026-05-20T08:09:15Z</time>
      </trkpt>
      <trkpt lat="47.63708" lon="4.37321">
        <ele>227.6</ele>
        <time>2026-05-20T08:09:16Z</time>
      </trkpt>
      <trkpt lat="47.63711" lon="4.37324">
        <ele>227.6</ele>
        <time>2026-05-20T08:09:17Z</time>
      </trkpt>
      <trkpt lat="47.63714" lon="4.37325">
        <ele>227.6</ele>
        <time>2026-05-20T08:09:18Z</time>
      </trkpt>
      <trkpt lat="47.63718" lon="4.37325">
        <ele>227.8</ele>
        <time>2026-05-20T08:09:19Z</time>
      </trkpt>
      <trkpt lat="47.6372" lon="4.37327">
        <ele>227.8</ele>
        <time>2026-05-20T08:09:20Z</time>
      </trkpt>
      <trkpt lat="47.63724" lon="4.3733">
        <ele>227.8</ele>
        <time>2026-05-20T08:09:21Z</time>
      </trkpt>
      <trkpt lat="47.63726" lon="4.37331">
        <ele>228</ele>
        <time>2026-05-20T08:09:22Z</time>
      </trkpt>
      <trkpt lat="47.63728" lon="4.37332">
        <ele>228</ele>
        <time>2026-05-20T08:09:23Z</time>
      </trkpt>
      <trkpt lat="47.63731" lon="4.37332">
        <ele>228.2</ele>
        <time>2026-05-20T08:09:24Z</time>
      </trkpt>
      <trkpt lat="47.63736" lon="4.37334">
        <ele>228.2</ele>
        <time>2026-05-20T08:09:25Z</time>
      </trkpt>
      <trkpt lat="47.63742" lon="4.37339">
        <ele>228.6</ele>
        <time>2026-05-20T08:09:26Z</time>
      </trkpt>
      <trkpt lat="47.63746" lon="4.37343">
        <ele>228.4</ele>
        <time>2026-05-20T08:09:27Z</time>
      </trkpt>
      <trkpt lat="47.63748" lon="4.37345">
        <ele>228.6</ele>
        <time>2026-05-20T08:09:28Z</time>
      </trkpt>
      <trkpt lat="47.63751" lon="4.37349">
        <ele>228.8</ele>
        <time>2026-05-20T08:09:29Z</time>
      </trkpt>
      <trkpt lat="47.63752" lon="4.37354">
        <ele>228.8</ele>
        <time>2026-05-20T08:09:30Z</time>
      </trkpt>
      <trkpt lat="47.63753" lon="4.3736">
        <ele>228.8</ele>
        <time>2026-05-20T08:09:31Z</time>
      </trkpt>
      <trkpt lat="47.63754" lon="4.37363">
        <ele>228.8</ele>
        <time>2026-05-20T08:09:32Z</time>
      </trkpt>
      <trkpt lat="47.63755" lon="4.37367">
        <ele>228.8</ele>
        <time>2026-05-20T08:09:33Z</time>
      </trkpt>
      <trkpt lat="47.63757" lon="4.37372">
        <ele>228.8</ele>
        <time>2026-05-20T08:09:34Z</time>
      </trkpt>
      <trkpt lat="47.6376" lon="4.37377">
        <ele>228.8</ele>
        <time>2026-05-20T08:09:35Z</time>
      </trkpt>
      <trkpt lat="47.63762" lon="4.37381">
        <ele>228.8</ele>
        <time>2026-05-20T08:09:36Z</time>
      </trkpt>
      <trkpt lat="47.63763" lon="4.37385">
        <ele>228.8</ele>
        <time>2026-05-20T08:09:37Z</time>
      </trkpt>
      <trkpt lat="47.63763" lon="4.3739">
        <ele>229</ele>
        <time>2026-05-20T08:09:38Z</time>
      </trkpt>
      <trkpt lat="47.63762" lon="4.37394">
        <ele>229</ele>
        <time>2026-05-20T08:09:39Z</time>
      </trkpt>
      <trkpt lat="47.63761" lon="4.37397">
        <ele>229.2</ele>
        <time>2026-05-20T08:09:40Z</time>
      </trkpt>
      <trkpt lat="47.6376" lon="4.37402">
        <ele>229.2</ele>
        <time>2026-05-20T08:09:41Z</time>
      </trkpt>
      <trkpt lat="47.63765" lon="4.37407">
        <ele>229.2</ele>
        <time>2026-05-20T08:09:42Z</time>
      </trkpt>
      <trkpt lat="47.63768" lon="4.37414">
        <ele>229.2</ele>
        <time>2026-05-20T08:09:43Z</time>
      </trkpt>
      <trkpt lat="47.63769" lon="4.37417">
        <ele>229.6</ele>
        <time>2026-05-20T08:09:44Z</time>
      </trkpt>
      <trkpt lat="47.6377" lon="4.37421">
        <ele>229.6</ele>
        <time>2026-05-20T08:09:45Z</time>
      </trkpt>
      <trkpt lat="47.6377" lon="4.37426">
        <ele>229.8</ele>
        <time>2026-05-20T08:09:46Z</time>
      </trkpt>
      <trkpt lat="47.63772" lon="4.37432">
        <ele>230</ele>
        <time>2026-05-20T08:09:47Z</time>
      </trkpt>
      <trkpt lat="47.63772" lon="4.37437">
        <ele>230</ele>
        <time>2026-05-20T08:09:48Z</time>
      </trkpt>
      <trkpt lat="47.63771" lon="4.37443">
        <ele>230</ele>
        <time>2026-05-20T08:09:49Z</time>
      </trkpt>
      <trkpt lat="47.6377" lon="4.37449">
        <ele>230</ele>
        <time>2026-05-20T08:09:50Z</time>
      </trkpt>
      <trkpt lat="47.63768" lon="4.37454">
        <ele>230</ele>
        <time>2026-05-20T08:09:51Z</time>
      </trkpt>
      <trkpt lat="47.63769" lon="4.37459">
        <ele>230.2</ele>
        <time>2026-05-20T08:09:52Z</time>
      </trkpt>
      <trkpt lat="47.63771" lon="4.37463">
        <ele>230.2</ele>
        <time>2026-05-20T08:09:53Z</time>
      </trkpt>
      <trkpt lat="47.63771" lon="4.3747">
        <ele>230.2</ele>
        <time>2026-05-20T08:09:54Z</time>
      </trkpt>
      <trkpt lat="47.63773" lon="4.37476">
        <ele>230.4</ele>
        <time>2026-05-20T08:09:55Z</time>
      </trkpt>
      <trkpt lat="47.63773" lon="4.37482">
        <ele>230.4</ele>
        <time>2026-05-20T08:09:56Z</time>
      </trkpt>
      <trkpt lat="47.63772" lon="4.37487">
        <ele>230.4</ele>
        <time>2026-05-20T08:09:57Z</time>
      </trkpt>
      <trkpt lat="47.63771" lon="4.37492">
        <ele>230.4</ele>
        <time>2026-05-20T08:09:58Z</time>
      </trkpt>
      <trkpt lat="47.6377" lon="4.37497">
        <ele>230.6</ele>
        <time>2026-05-20T08:09:59Z</time>
      </trkpt>
      <trkpt lat="47.63771" lon="4.37502">
        <ele>230.6</ele>
        <time>2026-05-20T08:10:00Z</time>
      </trkpt>
      <trkpt lat="47.6377" lon="4.37507">
        <ele>230.8</ele>
        <time>2026-05-20T08:10:01Z</time>
      </trkpt>
      <trkpt lat="47.6377" lon="4.37513">
        <ele>230.8</ele>
        <time>2026-05-20T08:10:02Z</time>
      </trkpt>
      <trkpt lat="47.6377" lon="4.37518">
        <ele>230.8</ele>
        <time>2026-05-20T08:10:03Z</time>
      </trkpt>
      <trkpt lat="47.63772" lon="4.37524">
        <ele>230.8</ele>
        <time>2026-05-20T08:10:04Z</time>
      </trkpt>
      <trkpt lat="47.63772" lon="4.3753">
        <ele>231</ele>
        <time>2026-05-20T08:10:05Z</time>
      </trkpt>
      <trkpt lat="47.63771" lon="4.37536">
        <ele>231</ele>
        <time>2026-05-20T08:10:06Z</time>
      </trkpt>
      <trkpt lat="47.6377" lon="4.37541">
        <ele>231</ele>
        <time>2026-05-20T08:10:07Z</time>
      </trkpt>
      <trkpt lat="47.63771" lon="4.37547">
        <ele>231</ele>
        <time>2026-05-20T08:10:08Z</time>
      </trkpt>
      <trkpt lat="47.63771" lon="4.37554">
        <ele>231.2</ele>
        <time>2026-05-20T08:10:09Z</time>
      </trkpt>
      <trkpt lat="47.6377" lon="4.37562">
        <ele>231.2</ele>
        <time>2026-05-20T08:10:10Z</time>
      </trkpt>
      <trkpt lat="47.63771" lon="4.37568">
        <ele>231.2</ele>
        <time>2026-05-20T08:10:11Z</time>
      </trkpt>
      <trkpt lat="47.63772" lon="4.37574">
        <ele>231.2</ele>
        <time>2026-05-20T08:10:12Z</time>
      </trkpt>
      <trkpt lat="47.63772" lon="4.3758">
        <ele>231</ele>
        <time>2026-05-20T08:10:13Z</time>
      </trkpt>
      <trkpt lat="47.63771" lon="4.37588">
        <ele>231.2</ele>
        <time>2026-05-20T08:10:14Z</time>
      </trkpt>
      <trkpt lat="47.6377" lon="4.37593">
        <ele>231</ele>
        <time>2026-05-20T08:10:15Z</time>
      </trkpt>
      <trkpt lat="47.63771" lon="4.37599">
        <ele>231</ele>
        <time>2026-05-20T08:10:16Z</time>
      </trkpt>
      <trkpt lat="47.63772" lon="4.37605">
        <ele>230.8</ele>
        <time>2026-05-20T08:10:17Z</time>
      </trkpt>
      <trkpt lat="47.63773" lon="4.37612">
        <ele>230.4</ele>
        <time>2026-05-20T08:10:18Z</time>
      </trkpt>
      <trkpt lat="47.63773" lon="4.37618">
        <ele>230.4</ele>
        <time>2026-05-20T08:10:19Z</time>
      </trkpt>
      <trkpt lat="47.63773" lon="4.37623">
        <ele>230.4</ele>
        <time>2026-05-20T08:10:20Z</time>
      </trkpt>
      <trkpt lat="47.63773" lon="4.37629">
        <ele>230.2</ele>
        <time>2026-05-20T08:10:21Z</time>
      </trkpt>
      <trkpt lat="47.63773" lon="4.37636">
        <ele>230.2</ele>
        <time>2026-05-20T08:10:22Z</time>
      </trkpt>
      <trkpt lat="47.63774" lon="4.37645">
        <ele>230.2</ele>
        <time>2026-05-20T08:10:23Z</time>
      </trkpt>
      <trkpt lat="47.63774" lon="4.37654">
        <ele>230.2</ele>
        <time>2026-05-20T08:10:24Z</time>
      </trkpt>
      <trkpt lat="47.63771" lon="4.37664">
        <ele>230</ele>
        <time>2026-05-20T08:10:25Z</time>
      </trkpt>
      <trkpt lat="47.63773" lon="4.37673">
        <ele>229.8</ele>
        <time>2026-05-20T08:10:26Z</time>
      </trkpt>
      <trkpt lat="47.63776" lon="4.37679">
        <ele>229.4</ele>
        <time>2026-05-20T08:10:27Z</time>
      </trkpt>
      <trkpt lat="47.6378" lon="4.37684">
        <ele>229.2</ele>
        <time>2026-05-20T08:10:28Z</time>
      </trkpt>
      <trkpt lat="47.63784" lon="4.3769">
        <ele>229</ele>
        <time>2026-05-20T08:10:29Z</time>
      </trkpt>
      <trkpt lat="47.63788" lon="4.37696">
        <ele>228.8</ele>
        <time>2026-05-20T08:10:30Z</time>
      </trkpt>
      <trkpt lat="47.63792" lon="4.377">
        <ele>228.6</ele>
        <time>2026-05-20T08:10:31Z</time>
      </trkpt>
      <trkpt lat="47.63797" lon="4.37703">
        <ele>228.6</ele>
        <time>2026-05-20T08:10:32Z</time>
      </trkpt>
      <trkpt lat="47.638" lon="4.37706">
        <ele>228.4</ele>
        <time>2026-05-20T08:10:33Z</time>
      </trkpt>
      <trkpt lat="47.63804" lon="4.37708">
        <ele>228.4</ele>
        <time>2026-05-20T08:10:34Z</time>
      </trkpt>
      <trkpt lat="47.63807" lon="4.37711">
        <ele>228.2</ele>
        <time>2026-05-20T08:10:35Z</time>
      </trkpt>
      <trkpt lat="47.63812" lon="4.37715">
        <ele>228.2</ele>
        <time>2026-05-20T08:10:36Z</time>
      </trkpt>
      <trkpt lat="47.63816" lon="4.37717">
        <ele>228.2</ele>
        <time>2026-05-20T08:10:37Z</time>
      </trkpt>
      <trkpt lat="47.63818" lon="4.37719">
        <ele>228.2</ele>
        <time>2026-05-20T08:10:38Z</time>
      </trkpt>
      <trkpt lat="47.6382" lon="4.37719">
        <ele>228.4</ele>
        <time>2026-05-20T08:10:39Z</time>
      </trkpt>
      <trkpt lat="47.63823" lon="4.3772">
        <ele>228.4</ele>
        <time>2026-05-20T08:10:40Z</time>
      </trkpt>
      <trkpt lat="47.63825" lon="4.37721">
        <ele>228.4</ele>
        <time>2026-05-20T08:10:41Z</time>
      </trkpt>
      <trkpt lat="47.63827" lon="4.37722">
        <ele>228.4</ele>
        <time>2026-05-20T08:10:42Z</time>
      </trkpt>
      <trkpt lat="47.63829" lon="4.37721">
        <ele>228.4</ele>
        <time>2026-05-20T08:10:43Z</time>
      </trkpt>
      <trkpt lat="47.63832" lon="4.37722">
        <ele>228.4</ele>
        <time>2026-05-20T08:10:44Z</time>
      </trkpt>
      <trkpt lat="47.63834" lon="4.37723">
        <ele>228.8</ele>
        <time>2026-05-20T08:10:45Z</time>
      </trkpt>
      <trkpt lat="47.63837" lon="4.37724">
        <ele>229</ele>
        <time>2026-05-20T08:10:46Z</time>
      </trkpt>
      <trkpt lat="47.63838" lon="4.37724">
        <ele>229.2</ele>
        <time>2026-05-20T08:10:47Z</time>
      </trkpt>
      <trkpt lat="47.6384" lon="4.37724">
        <ele>229.4</ele>
        <time>2026-05-20T08:10:48Z</time>
      </trkpt>
      <trkpt lat="47.63843" lon="4.37725">
        <ele>229.6</ele>
        <time>2026-05-20T08:10:49Z</time>
      </trkpt>
      <trkpt lat="47.63847" lon="4.37724">
        <ele>229.8</ele>
        <time>2026-05-20T08:10:50Z</time>
      </trkpt>
      <trkpt lat="47.6385" lon="4.37724">
        <ele>229.8</ele>
        <time>2026-05-20T08:10:51Z</time>
      </trkpt>
      <trkpt lat="47.63853" lon="4.37725">
        <ele>229.8</ele>
        <time>2026-05-20T08:10:52Z</time>
      </trkpt>
      <trkpt lat="47.63856" lon="4.37725">
        <ele>230</ele>
        <time>2026-05-20T08:10:53Z</time>
      </trkpt>
      <trkpt lat="47.63858" lon="4.37726">
        <ele>230</ele>
        <time>2026-05-20T08:10:54Z</time>
      </trkpt>
      <trkpt lat="47.63861" lon="4.37726">
        <ele>230.4</ele>
        <time>2026-05-20T08:10:55Z</time>
      </trkpt>
      <trkpt lat="47.63864" lon="4.37727">
        <ele>230.4</ele>
        <time>2026-05-20T08:10:56Z</time>
      </trkpt>
      <trkpt lat="47.63867" lon="4.37728">
        <ele>230.6</ele>
        <time>2026-05-20T08:10:57Z</time>
      </trkpt>
      <trkpt lat="47.63869" lon="4.37728">
        <ele>230.6</ele>
        <time>2026-05-20T08:10:58Z</time>
      </trkpt>
      <trkpt lat="47.63871" lon="4.37729">
        <ele>230.8</ele>
        <time>2026-05-20T08:10:59Z</time>
      </trkpt>
      <trkpt lat="47.63873" lon="4.37731">
        <ele>231</ele>
        <time>2026-05-20T08:11:00Z</time>
      </trkpt>
      <trkpt lat="47.63876" lon="4.37733">
        <ele>231.2</ele>
        <time>2026-05-20T08:11:01Z</time>
      </trkpt>
      <trkpt lat="47.63879" lon="4.37736">
        <ele>231.2</ele>
        <time>2026-05-20T08:11:02Z</time>
      </trkpt>
      <trkpt lat="47.63882" lon="4.37738">
        <ele>231.4</ele>
        <time>2026-05-20T08:11:03Z</time>
      </trkpt>
      <trkpt lat="47.63885" lon="4.37739">
        <ele>231.6</ele>
        <time>2026-05-20T08:11:04Z</time>
      </trkpt>
      <trkpt lat="47.63888" lon="4.37741">
        <ele>231.8</ele>
        <time>2026-05-20T08:11:05Z</time>
      </trkpt>
      <trkpt lat="47.6389" lon="4.37743">
        <ele>232</ele>
        <time>2026-05-20T08:11:06Z</time>
      </trkpt>
      <trkpt lat="47.63893" lon="4.37744">
        <ele>232.2</ele>
        <time>2026-05-20T08:11:07Z</time>
      </trkpt>
      <trkpt lat="47.63895" lon="4.37745">
        <ele>232.4</ele>
        <time>2026-05-20T08:11:08Z</time>
      </trkpt>
      <trkpt lat="47.63897" lon="4.37747">
        <ele>232.4</ele>
        <time>2026-05-20T08:11:09Z</time>
      </trkpt>
      <trkpt lat="47.63901" lon="4.37751">
        <ele>232.6</ele>
        <time>2026-05-20T08:11:10Z</time>
      </trkpt>
      <trkpt lat="47.63905" lon="4.37753">
        <ele>232.8</ele>
        <time>2026-05-20T08:11:11Z</time>
      </trkpt>
      <trkpt lat="47.63908" lon="4.37754">
        <ele>233</ele>
        <time>2026-05-20T08:11:12Z</time>
      </trkpt>
      <trkpt lat="47.6391" lon="4.37756">
        <ele>233</ele>
        <time>2026-05-20T08:11:13Z</time>
      </trkpt>
      <trkpt lat="47.63913" lon="4.37758">
        <ele>233.2</ele>
        <time>2026-05-20T08:11:14Z</time>
      </trkpt>
      <trkpt lat="47.63916" lon="4.37759">
        <ele>233.4</ele>
        <time>2026-05-20T08:11:15Z</time>
      </trkpt>
      <trkpt lat="47.63919" lon="4.37761">
        <ele>233.6</ele>
        <time>2026-05-20T08:11:16Z</time>
      </trkpt>
      <trkpt lat="47.63921" lon="4.37764">
        <ele>233.8</ele>
        <time>2026-05-20T08:11:17Z</time>
      </trkpt>
      <trkpt lat="47.63923" lon="4.37767">
        <ele>233.8</ele>
        <time>2026-05-20T08:11:18Z</time>
      </trkpt>
      <trkpt lat="47.63925" lon="4.37769">
        <ele>233.8</ele>
        <time>2026-05-20T08:11:19Z</time>
      </trkpt>
      <trkpt lat="47.63928" lon="4.37771">
        <ele>234</ele>
        <time>2026-05-20T08:11:20Z</time>
      </trkpt>
      <trkpt lat="47.6393" lon="4.37772">
        <ele>234.2</ele>
        <time>2026-05-20T08:11:21Z</time>
      </trkpt>
      <trkpt lat="47.63933" lon="4.37774">
        <ele>234.2</ele>
        <time>2026-05-20T08:11:22Z</time>
      </trkpt>
      <trkpt lat="47.63936" lon="4.37776">
        <ele>234.6</ele>
        <time>2026-05-20T08:11:23Z</time>
      </trkpt>
      <trkpt lat="47.6394" lon="4.37779">
        <ele>234.8</ele>
        <time>2026-05-20T08:11:24Z</time>
      </trkpt>
      <trkpt lat="47.63943" lon="4.37783">
        <ele>234.8</ele>
        <time>2026-05-20T08:11:25Z</time>
      </trkpt>
      <trkpt lat="47.63946" lon="4.37786">
        <ele>235.2</ele>
        <time>2026-05-20T08:11:26Z</time>
      </trkpt>
      <trkpt lat="47.63948" lon="4.37788">
        <ele>235.4</ele>
        <time>2026-05-20T08:11:27Z</time>
      </trkpt>
      <trkpt lat="47.63949" lon="4.3779">
        <ele>235.6</ele>
        <time>2026-05-20T08:11:28Z</time>
      </trkpt>
      <trkpt lat="47.6395" lon="4.37793">
        <ele>235.8</ele>
        <time>2026-05-20T08:11:29Z</time>
      </trkpt>
      <trkpt lat="47.63952" lon="4.37796">
        <ele>236</ele>
        <time>2026-05-20T08:11:30Z</time>
      </trkpt>
      <trkpt lat="47.63954" lon="4.37799">
        <ele>236.2</ele>
        <time>2026-05-20T08:11:31Z</time>
      </trkpt>
      <trkpt lat="47.63954" lon="4.37801">
        <ele>236.4</ele>
        <time>2026-05-20T08:11:32Z</time>
      </trkpt>
      <trkpt lat="47.63956" lon="4.37804">
        <ele>236.6</ele>
        <time>2026-05-20T08:11:33Z</time>
      </trkpt>
      <trkpt lat="47.63957" lon="4.37807">
        <ele>236.6</ele>
        <time>2026-05-20T08:11:34Z</time>
      </trkpt>
      <trkpt lat="47.63958" lon="4.37809">
        <ele>236.8</ele>
        <time>2026-05-20T08:11:35Z</time>
      </trkpt>
      <trkpt lat="47.6396" lon="4.37812">
        <ele>237</ele>
        <time>2026-05-20T08:11:36Z</time>
      </trkpt>
      <trkpt lat="47.6396" lon="4.37817">
        <ele>237.2</ele>
        <time>2026-05-20T08:11:37Z</time>
      </trkpt>
      <trkpt lat="47.63961" lon="4.3782">
        <ele>237.2</ele>
        <time>2026-05-20T08:11:38Z</time>
      </trkpt>
      <trkpt lat="47.63961" lon="4.37823">
        <ele>237.4</ele>
        <time>2026-05-20T08:11:39Z</time>
      </trkpt>
      <trkpt lat="47.63963" lon="4.37825">
        <ele>237.4</ele>
        <time>2026-05-20T08:11:40Z</time>
      </trkpt>
      <trkpt lat="47.63967" lon="4.37829">
        <ele>237.8</ele>
        <time>2026-05-20T08:11:41Z</time>
      </trkpt>
      <trkpt lat="47.6397" lon="4.37832">
        <ele>237.6</ele>
        <time>2026-05-20T08:11:42Z</time>
      </trkpt>
      <trkpt lat="47.6397" lon="4.37836">
        <ele>238</ele>
        <time>2026-05-20T08:11:43Z</time>
      </trkpt>
      <trkpt lat="47.63972" lon="4.37838">
        <ele>238.2</ele>
        <time>2026-05-20T08:11:44Z</time>
      </trkpt>
      <trkpt lat="47.63973" lon="4.37842">
        <ele>238.4</ele>
        <time>2026-05-20T08:11:45Z</time>
      </trkpt>
      <trkpt lat="47.63974" lon="4.37844">
        <ele>238.6</ele>
        <time>2026-05-20T08:11:46Z</time>
      </trkpt>
      <trkpt lat="47.63974" lon="4.37844">
        <ele>238.8</ele>
        <time>2026-05-20T08:11:47Z</time>
      </trkpt>
      <trkpt lat="47.63976" lon="4.37846">
        <ele>239</ele>
        <time>2026-05-20T08:11:48Z</time>
      </trkpt>
      <trkpt lat="47.63979" lon="4.37846">
        <ele>239</ele>
        <time>2026-05-20T08:11:49Z</time>
      </trkpt>
      <trkpt lat="47.6398" lon="4.37848">
        <ele>239.2</ele>
        <time>2026-05-20T08:11:50Z</time>
      </trkpt>
      <trkpt lat="47.63982" lon="4.3785">
        <ele>239.4</ele>
        <time>2026-05-20T08:11:51Z</time>
      </trkpt>
      <trkpt lat="47.63985" lon="4.37854">
        <ele>239.4</ele>
        <time>2026-05-20T08:11:52Z</time>
      </trkpt>
      <trkpt lat="47.63985" lon="4.37857">
        <ele>239.6</ele>
        <time>2026-05-20T08:11:53Z</time>
      </trkpt>
      <trkpt lat="47.63984" lon="4.37862">
        <ele>239.6</ele>
        <time>2026-05-20T08:11:54Z</time>
      </trkpt>
      <trkpt lat="47.63984" lon="4.37862">
        <ele>239.8</ele>
        <time>2026-05-20T08:11:55Z</time>
      </trkpt>
      <trkpt lat="47.63984" lon="4.37864">
        <ele>240</ele>
        <time>2026-05-20T08:11:56Z</time>
      </trkpt>
      <trkpt lat="47.63986" lon="4.37867">
        <ele>240</ele>
        <time>2026-05-20T08:11:57Z</time>
      </trkpt>
      <trkpt lat="47.63989" lon="4.37872">
        <ele>240.2</ele>
        <time>2026-05-20T08:11:58Z</time>
      </trkpt>
      <trkpt lat="47.6399" lon="4.37875">
        <ele>240.2</ele>
        <time>2026-05-20T08:11:59Z</time>
      </trkpt>
      <trkpt lat="47.63992" lon="4.37877">
        <ele>240.4</ele>
        <time>2026-05-20T08:12:00Z</time>
      </trkpt>
      <trkpt lat="47.63993" lon="4.37878">
        <ele>240.4</ele>
        <time>2026-05-20T08:12:01Z</time>
      </trkpt>
      <trkpt lat="47.63995" lon="4.37881">
        <ele>240.6</ele>
        <time>2026-05-20T08:12:02Z</time>
      </trkpt>
      <trkpt lat="47.63997" lon="4.37885">
        <ele>240.8</ele>
        <time>2026-05-20T08:12:03Z</time>
      </trkpt>
      <trkpt lat="47.63998" lon="4.37887">
        <ele>241.2</ele>
        <time>2026-05-20T08:12:04Z</time>
      </trkpt>
      <trkpt lat="47.64" lon="4.37889">
        <ele>241.4</ele>
        <time>2026-05-20T08:12:05Z</time>
      </trkpt>
      <trkpt lat="47.64003" lon="4.37892">
        <ele>241.6</ele>
        <time>2026-05-20T08:12:06Z</time>
      </trkpt>
      <trkpt lat="47.64003" lon="4.37894">
        <ele>241.6</ele>
        <time>2026-05-20T08:12:07Z</time>
      </trkpt>
      <trkpt lat="47.64005" lon="4.37899">
        <ele>242</ele>
        <time>2026-05-20T08:12:08Z</time>
      </trkpt>
      <trkpt lat="47.64007" lon="4.379">
        <ele>242.2</ele>
        <time>2026-05-20T08:12:09Z</time>
      </trkpt>
      <trkpt lat="47.64008" lon="4.37902">
        <ele>242.2</ele>
        <time>2026-05-20T08:12:10Z</time>
      </trkpt>
      <trkpt lat="47.64009" lon="4.37904">
        <ele>242.4</ele>
        <time>2026-05-20T08:12:11Z</time>
      </trkpt>
      <trkpt lat="47.64011" lon="4.37907">
        <ele>242.4</ele>
        <time>2026-05-20T08:12:12Z</time>
      </trkpt>
      <trkpt lat="47.64013" lon="4.3791">
        <ele>242.8</ele>
        <time>2026-05-20T08:12:13Z</time>
      </trkpt>
      <trkpt lat="47.64016" lon="4.37913">
        <ele>242.8</ele>
        <time>2026-05-20T08:12:14Z</time>
      </trkpt>
      <trkpt lat="47.64017" lon="4.37915">
        <ele>243.2</ele>
        <time>2026-05-20T08:12:15Z</time>
      </trkpt>
      <trkpt lat="47.64019" lon="4.37918">
        <ele>243.4</ele>
        <time>2026-05-20T08:12:16Z</time>
      </trkpt>
      <trkpt lat="47.6402" lon="4.37921">
        <ele>243.6</ele>
        <time>2026-05-20T08:12:17Z</time>
      </trkpt>
      <trkpt lat="47.6402" lon="4.37924">
        <ele>243.8</ele>
        <time>2026-05-20T08:12:18Z</time>
      </trkpt>
      <trkpt lat="47.64023" lon="4.37927">
        <ele>244</ele>
        <time>2026-05-20T08:12:19Z</time>
      </trkpt>
      <trkpt lat="47.64024" lon="4.3793">
        <ele>244.4</ele>
        <time>2026-05-20T08:12:20Z</time>
      </trkpt>
      <trkpt lat="47.64025" lon="4.37932">
        <ele>244.4</ele>
        <time>2026-05-20T08:12:21Z</time>
      </trkpt>
      <trkpt lat="47.64025" lon="4.37933">
        <ele>244.8</ele>
        <time>2026-05-20T08:12:22Z</time>
      </trkpt>
      <trkpt lat="47.64026" lon="4.37935">
        <ele>244.8</ele>
        <time>2026-05-20T08:12:23Z</time>
      </trkpt>
      <trkpt lat="47.64028" lon="4.37937">
        <ele>245</ele>
        <time>2026-05-20T08:12:24Z</time>
      </trkpt>
      <trkpt lat="47.6403" lon="4.3794">
        <ele>245</ele>
        <time>2026-05-20T08:12:25Z</time>
      </trkpt>
      <trkpt lat="47.64033" lon="4.37944">
        <ele>245.2</ele>
        <time>2026-05-20T08:12:26Z</time>
      </trkpt>
      <trkpt lat="47.64035" lon="4.37946">
        <ele>245.6</ele>
        <time>2026-05-20T08:12:27Z</time>
      </trkpt>
      <trkpt lat="47.64037" lon="4.37948">
        <ele>246</ele>
        <time>2026-05-20T08:12:28Z</time>
      </trkpt>
      <trkpt lat="47.64039" lon="4.37949">
        <ele>246.6</ele>
        <time>2026-05-20T08:12:29Z</time>
      </trkpt>
      <trkpt lat="47.64041" lon="4.37952">
        <ele>246.6</ele>
        <time>2026-05-20T08:12:30Z</time>
      </trkpt>
      <trkpt lat="47.64041" lon="4.37954">
        <ele>246.8</ele>
        <time>2026-05-20T08:12:31Z</time>
      </trkpt>
      <trkpt lat="47.64042" lon="4.37956">
        <ele>247</ele>
        <time>2026-05-20T08:12:32Z</time>
      </trkpt>
      <trkpt lat="47.64042" lon="4.37958">
        <ele>247.2</ele>
        <time>2026-05-20T08:12:33Z</time>
      </trkpt>
      <trkpt lat="47.64043" lon="4.3796">
        <ele>247.2</ele>
        <time>2026-05-20T08:12:34Z</time>
      </trkpt>
      <trkpt lat="47.64043" lon="4.37963">
        <ele>247.6</ele>
        <time>2026-05-20T08:12:35Z</time>
      </trkpt>
      <trkpt lat="47.64046" lon="4.37965">
        <ele>248</ele>
        <time>2026-05-20T08:12:36Z</time>
      </trkpt>
      <trkpt lat="47.64047" lon="4.37968">
        <ele>248</ele>
        <time>2026-05-20T08:12:37Z</time>
      </trkpt>
      <trkpt lat="47.64048" lon="4.37971">
        <ele>248.2</ele>
        <time>2026-05-20T08:12:38Z</time>
      </trkpt>
      <trkpt lat="47.6405" lon="4.37974">
        <ele>248.4</ele>
        <time>2026-05-20T08:12:39Z</time>
      </trkpt>
      <trkpt lat="47.64051" lon="4.37976">
        <ele>248.8</ele>
        <time>2026-05-20T08:12:40Z</time>
      </trkpt>
      <trkpt lat="47.64052" lon="4.37979">
        <ele>249</ele>
        <time>2026-05-20T08:12:41Z</time>
      </trkpt>
      <trkpt lat="47.64053" lon="4.37981">
        <ele>249</ele>
        <time>2026-05-20T08:12:42Z</time>
      </trkpt>
      <trkpt lat="47.64056" lon="4.37984">
        <ele>249.2</ele>
        <time>2026-05-20T08:12:43Z</time>
      </trkpt>
      <trkpt lat="47.64058" lon="4.37986">
        <ele>249.4</ele>
        <time>2026-05-20T08:12:44Z</time>
      </trkpt>
      <trkpt lat="47.64061" lon="4.37988">
        <ele>249.6</ele>
        <time>2026-05-20T08:12:45Z</time>
      </trkpt>
      <trkpt lat="47.64063" lon="4.37988">
        <ele>249.8</ele>
        <time>2026-05-20T08:12:46Z</time>
      </trkpt>
      <trkpt lat="47.64064" lon="4.37991">
        <ele>250</ele>
        <time>2026-05-20T08:12:47Z</time>
      </trkpt>
      <trkpt lat="47.64065" lon="4.37993">
        <ele>250.2</ele>
        <time>2026-05-20T08:12:48Z</time>
      </trkpt>
      <trkpt lat="47.64067" lon="4.37996">
        <ele>250.4</ele>
        <time>2026-05-20T08:12:49Z</time>
      </trkpt>
      <trkpt lat="47.64068" lon="4.37998">
        <ele>250.6</ele>
        <time>2026-05-20T08:12:50Z</time>
      </trkpt>
      <trkpt lat="47.64068" lon="4.38">
        <ele>250.8</ele>
        <time>2026-05-20T08:12:51Z</time>
      </trkpt>
      <trkpt lat="47.64069" lon="4.38003">
        <ele>250.8</ele>
        <time>2026-05-20T08:12:52Z</time>
      </trkpt>
      <trkpt lat="47.6407" lon="4.38005">
        <ele>251.2</ele>
        <time>2026-05-20T08:12:53Z</time>
      </trkpt>
      <trkpt lat="47.64072" lon="4.38007">
        <ele>251.4</ele>
        <time>2026-05-20T08:12:54Z</time>
      </trkpt>
      <trkpt lat="47.64073" lon="4.3801">
        <ele>251.6</ele>
        <time>2026-05-20T08:12:55Z</time>
      </trkpt>
      <trkpt lat="47.64073" lon="4.38012">
        <ele>251.8</ele>
        <time>2026-05-20T08:12:56Z</time>
      </trkpt>
      <trkpt lat="47.64074" lon="4.38013">
        <ele>251.8</ele>
        <time>2026-05-20T08:12:57Z</time>
      </trkpt>
      <trkpt lat="47.64074" lon="4.38014">
        <ele>252.2</ele>
        <time>2026-05-20T08:12:58Z</time>
      </trkpt>
      <trkpt lat="47.64076" lon="4.38017">
        <ele>252.4</ele>
        <time>2026-05-20T08:12:59Z</time>
      </trkpt>
      <trkpt lat="47.64079" lon="4.38019">
        <ele>252.6</ele>
        <time>2026-05-20T08:13:00Z</time>
      </trkpt>
      <trkpt lat="47.64082" lon="4.38021">
        <ele>252.6</ele>
        <time>2026-05-20T08:13:01Z</time>
      </trkpt>
      <trkpt lat="47.64085" lon="4.38023">
        <ele>252.8</ele>
        <time>2026-05-20T08:13:02Z</time>
      </trkpt>
      <trkpt lat="47.64086" lon="4.38024">
        <ele>252.8</ele>
        <time>2026-05-20T08:13:03Z</time>
      </trkpt>
      <trkpt lat="47.64086" lon="4.38026">
        <ele>252.8</ele>
        <time>2026-05-20T08:13:04Z</time>
      </trkpt>
      <trkpt lat="47.6409" lon="4.38029">
        <ele>253.4</ele>
        <time>2026-05-20T08:13:05Z</time>
      </trkpt>
      <trkpt lat="47.6409" lon="4.38032">
        <ele>253.6</ele>
        <time>2026-05-20T08:13:06Z</time>
      </trkpt>
      <trkpt lat="47.6409" lon="4.38032">
        <ele>254</ele>
        <time>2026-05-20T08:13:07Z</time>
      </trkpt>
      <trkpt lat="47.64091" lon="4.38033">
        <ele>254</ele>
        <time>2026-05-20T08:13:08Z</time>
      </trkpt>
      <trkpt lat="47.64092" lon="4.38033">
        <ele>254.2</ele>
        <time>2026-05-20T08:13:09Z</time>
      </trkpt>
      <trkpt lat="47.64093" lon="4.38033">
        <ele>254.4</ele>
        <time>2026-05-20T08:13:10Z</time>
      </trkpt>
      <trkpt lat="47.64096" lon="4.38036">
        <ele>254.6</ele>
        <time>2026-05-20T08:13:11Z</time>
      </trkpt>
      <trkpt lat="47.64096" lon="4.38038">
        <ele>254.8</ele>
        <time>2026-05-20T08:13:12Z</time>
      </trkpt>
      <trkpt lat="47.64098" lon="4.3804">
        <ele>255</ele>
        <time>2026-05-20T08:13:13Z</time>
      </trkpt>
      <trkpt lat="47.64099" lon="4.38041">
        <ele>255.2</ele>
        <time>2026-05-20T08:13:14Z</time>
      </trkpt>
      <trkpt lat="47.641" lon="4.38043">
        <ele>255.4</ele>
        <time>2026-05-20T08:13:15Z</time>
      </trkpt>
      <trkpt lat="47.64102" lon="4.38044">
        <ele>255.8</ele>
        <time>2026-05-20T08:13:16Z</time>
      </trkpt>
      <trkpt lat="47.64102" lon="4.38045">
        <ele>255.8</ele>
        <time>2026-05-20T08:13:17Z</time>
      </trkpt>
      <trkpt lat="47.64104" lon="4.38047">
        <ele>256</ele>
        <time>2026-05-20T08:13:18Z</time>
      </trkpt>
      <trkpt lat="47.64105" lon="4.38048">
        <ele>256.2</ele>
        <time>2026-05-20T08:13:19Z</time>
      </trkpt>
      <trkpt lat="47.64107" lon="4.3805">
        <ele>256.4</ele>
        <time>2026-05-20T08:13:20Z</time>
      </trkpt>
      <trkpt lat="47.64109" lon="4.38052">
        <ele>256.6</ele>
        <time>2026-05-20T08:13:21Z</time>
      </trkpt>
      <trkpt lat="47.64109" lon="4.38054">
        <ele>256.8</ele>
        <time>2026-05-20T08:13:22Z</time>
      </trkpt>
      <trkpt lat="47.6411" lon="4.38057">
        <ele>257.2</ele>
        <time>2026-05-20T08:13:23Z</time>
      </trkpt>
      <trkpt lat="47.6411" lon="4.38059">
        <ele>257.4</ele>
        <time>2026-05-20T08:13:24Z</time>
      </trkpt>
      <trkpt lat="47.6411" lon="4.3806">
        <ele>257.4</ele>
        <time>2026-05-20T08:13:25Z</time>
      </trkpt>
      <trkpt lat="47.64111" lon="4.38062">
        <ele>257.6</ele>
        <time>2026-05-20T08:13:26Z</time>
      </trkpt>
      <trkpt lat="47.64112" lon="4.38064">
        <ele>257.8</ele>
        <time>2026-05-20T08:13:27Z</time>
      </trkpt>
      <trkpt lat="47.64114" lon="4.38066">
        <ele>257.8</ele>
        <time>2026-05-20T08:13:28Z</time>
      </trkpt>
      <trkpt lat="47.64115" lon="4.38068">
        <ele>258</ele>
        <time>2026-05-20T08:13:29Z</time>
      </trkpt>
      <trkpt lat="47.64116" lon="4.3807">
        <ele>258.2</ele>
        <time>2026-05-20T08:13:30Z</time>
      </trkpt>
      <trkpt lat="47.64118" lon="4.38072">
        <ele>258.4</ele>
        <time>2026-05-20T08:13:31Z</time>
      </trkpt>
      <trkpt lat="47.6412" lon="4.38075">
        <ele>258.6</ele>
        <time>2026-05-20T08:13:32Z</time>
      </trkpt>
      <trkpt lat="47.64122" lon="4.38077">
        <ele>258.8</ele>
        <time>2026-05-20T08:13:33Z</time>
      </trkpt>
      <trkpt lat="47.64123" lon="4.38079">
        <ele>259</ele>
        <time>2026-05-20T08:13:34Z</time>
      </trkpt>
      <trkpt lat="47.64126" lon="4.38082">
        <ele>259.2</ele>
        <time>2026-05-20T08:13:35Z</time>
      </trkpt>
      <trkpt lat="47.64128" lon="4.38084">
        <ele>259.4</ele>
        <time>2026-05-20T08:13:36Z</time>
      </trkpt>
      <trkpt lat="47.64128" lon="4.38087">
        <ele>259.4</ele>
        <time>2026-05-20T08:13:37Z</time>
      </trkpt>
      <trkpt lat="47.64128" lon="4.38089">
        <ele>259.6</ele>
        <time>2026-05-20T08:13:38Z</time>
      </trkpt>
      <trkpt lat="47.64129" lon="4.38092">
        <ele>260</ele>
        <time>2026-05-20T08:13:39Z</time>
      </trkpt>
      <trkpt lat="47.64132" lon="4.38096">
        <ele>260</ele>
        <time>2026-05-20T08:13:40Z</time>
      </trkpt>
      <trkpt lat="47.64135" lon="4.38099">
        <ele>260.2</ele>
        <time>2026-05-20T08:13:41Z</time>
      </trkpt>
      <trkpt lat="47.64136" lon="4.38101">
        <ele>260.4</ele>
        <time>2026-05-20T08:13:42Z</time>
      </trkpt>
      <trkpt lat="47.64137" lon="4.38103">
        <ele>260.6</ele>
        <time>2026-05-20T08:13:43Z</time>
      </trkpt>
      <trkpt lat="47.64138" lon="4.38106">
        <ele>260.6</ele>
        <time>2026-05-20T08:13:44Z</time>
      </trkpt>
      <trkpt lat="47.64139" lon="4.38109">
        <ele>261</ele>
        <time>2026-05-20T08:13:45Z</time>
      </trkpt>
      <trkpt lat="47.64141" lon="4.38112">
        <ele>261.2</ele>
        <time>2026-05-20T08:13:46Z</time>
      </trkpt>
      <trkpt lat="47.64141" lon="4.38115">
        <ele>261.4</ele>
        <time>2026-05-20T08:13:47Z</time>
      </trkpt>
      <trkpt lat="47.64143" lon="4.38117">
        <ele>261.6</ele>
        <time>2026-05-20T08:13:48Z</time>
      </trkpt>
      <trkpt lat="47.64144" lon="4.3812">
        <ele>261.6</ele>
        <time>2026-05-20T08:13:49Z</time>
      </trkpt>
      <trkpt lat="47.64144" lon="4.3812">
        <ele>262</ele>
        <time>2026-05-20T08:13:50Z</time>
      </trkpt>
      <trkpt lat="47.64144" lon="4.3812">
        <ele>262.2</ele>
        <time>2026-05-20T08:13:51Z</time>
      </trkpt>
      <trkpt lat="47.64145" lon="4.38122">
        <ele>262.4</ele>
        <time>2026-05-20T08:13:52Z</time>
      </trkpt>
      <trkpt lat="47.64146" lon="4.38125">
        <ele>262.6</ele>
        <time>2026-05-20T08:13:53Z</time>
      </trkpt>
      <trkpt lat="47.64148" lon="4.3813">
        <ele>262.8</ele>
        <time>2026-05-20T08:13:54Z</time>
      </trkpt>
      <trkpt lat="47.6415" lon="4.38133">
        <ele>263</ele>
        <time>2026-05-20T08:13:55Z</time>
      </trkpt>
      <trkpt lat="47.64151" lon="4.38136">
        <ele>263.2</ele>
        <time>2026-05-20T08:13:56Z</time>
      </trkpt>
      <trkpt lat="47.64154" lon="4.38141">
        <ele>263.2</ele>
        <time>2026-05-20T08:13:57Z</time>
      </trkpt>
      <trkpt lat="47.64154" lon="4.38145">
        <ele>263.4</ele>
        <time>2026-05-20T08:13:58Z</time>
      </trkpt>
      <trkpt lat="47.64154" lon="4.38149">
        <ele>263.8</ele>
        <time>2026-05-20T08:13:59Z</time>
      </trkpt>
      <trkpt lat="47.64154" lon="4.38152">
        <ele>263.8</ele>
        <time>2026-05-20T08:14:00Z</time>
      </trkpt>
      <trkpt lat="47.64154" lon="4.38156">
        <ele>264</ele>
        <time>2026-05-20T08:14:01Z</time>
      </trkpt>
      <trkpt lat="47.64153" lon="4.3816">
        <ele>264</ele>
        <time>2026-05-20T08:14:02Z</time>
      </trkpt>
      <trkpt lat="47.64153" lon="4.38163">
        <ele>264.2</ele>
        <time>2026-05-20T08:14:03Z</time>
      </trkpt>
      <trkpt lat="47.64154" lon="4.38166">
        <ele>264.4</ele>
        <time>2026-05-20T08:14:04Z</time>
      </trkpt>
      <trkpt lat="47.64154" lon="4.38167">
        <ele>264.6</ele>
        <time>2026-05-20T08:14:05Z</time>
      </trkpt>
      <trkpt lat="47.64153" lon="4.38169">
        <ele>264.6</ele>
        <time>2026-05-20T08:14:06Z</time>
      </trkpt>
      <trkpt lat="47.64151" lon="4.3817">
        <ele>264.6</ele>
        <time>2026-05-20T08:14:07Z</time>
      </trkpt>
      <trkpt lat="47.6415" lon="4.38171">
        <ele>264.8</ele>
        <time>2026-05-20T08:14:08Z</time>
      </trkpt>
      <trkpt lat="47.64148" lon="4.38172">
        <ele>265</ele>
        <time>2026-05-20T08:14:09Z</time>
      </trkpt>
      <trkpt lat="47.64147" lon="4.38173">
        <ele>265.2</ele>
        <time>2026-05-20T08:14:10Z</time>
      </trkpt>
      <trkpt lat="47.64146" lon="4.38173">
        <ele>265.2</ele>
        <time>2026-05-20T08:14:11Z</time>
      </trkpt>
      <trkpt lat="47.64144" lon="4.38173">
        <ele>265.4</ele>
        <time>2026-05-20T08:14:12Z</time>
      </trkpt>
      <trkpt lat="47.64143" lon="4.38173">
        <ele>265.6</ele>
        <time>2026-05-20T08:14:13Z</time>
      </trkpt>
      <trkpt lat="47.64142" lon="4.38173">
        <ele>265.8</ele>
        <time>2026-05-20T08:14:14Z</time>
      </trkpt>
      <trkpt lat="47.64141" lon="4.38172">
        <ele>266.2</ele>
        <time>2026-05-20T08:14:15Z</time>
      </trkpt>
      <trkpt lat="47.6414" lon="4.38172">
        <ele>266.4</ele>
        <time>2026-05-20T08:14:16Z</time>
      </trkpt>
      <trkpt lat="47.6414" lon="4.38172">
        <ele>266.8</ele>
        <time>2026-05-20T08:14:17Z</time>
      </trkpt>
      <trkpt lat="47.64138" lon="4.38171">
        <ele>267</ele>
        <time>2026-05-20T08:14:18Z</time>
      </trkpt>
      <trkpt lat="47.64137" lon="4.38171">
        <ele>267.4</ele>
        <time>2026-05-20T08:14:19Z</time>
      </trkpt>
      <trkpt lat="47.64136" lon="4.38171">
        <ele>267.8</ele>
        <time>2026-05-20T08:14:20Z</time>
      </trkpt>
      <trkpt lat="47.64135" lon="4.38171">
        <ele>268.2</ele>
        <time>2026-05-20T08:14:21Z</time>
      </trkpt>
      <trkpt lat="47.64133" lon="4.38171">
        <ele>268.4</ele>
        <time>2026-05-20T08:14:22Z</time>
      </trkpt>
      <trkpt lat="47.64132" lon="4.3817">
        <ele>268.8</ele>
        <time>2026-05-20T08:14:23Z</time>
      </trkpt>
      <trkpt lat="47.64131" lon="4.3817">
        <ele>269</ele>
        <time>2026-05-20T08:14:24Z</time>
      </trkpt>
      <trkpt lat="47.6413" lon="4.38169">
        <ele>269.2</ele>
        <time>2026-05-20T08:14:25Z</time>
      </trkpt>
      <trkpt lat="47.64128" lon="4.38169">
        <ele>269.4</ele>
        <time>2026-05-20T08:14:26Z</time>
      </trkpt>
      <trkpt lat="47.64126" lon="4.38168">
        <ele>269.4</ele>
        <time>2026-05-20T08:14:27Z</time>
      </trkpt>
      <trkpt lat="47.64124" lon="4.38168">
        <ele>269.8</ele>
        <time>2026-05-20T08:14:28Z</time>
      </trkpt>
      <trkpt lat="47.64122" lon="4.38168">
        <ele>270</ele>
        <time>2026-05-20T08:14:29Z</time>
      </trkpt>
      <trkpt lat="47.64121" lon="4.38167">
        <ele>270</ele>
        <time>2026-05-20T08:14:30Z</time>
      </trkpt>
      <trkpt lat="47.6412" lon="4.38167">
        <ele>270.2</ele>
        <time>2026-05-20T08:14:31Z</time>
      </trkpt>
      <trkpt lat="47.64119" lon="4.38166">
        <ele>270.6</ele>
        <time>2026-05-20T08:14:32Z</time>
      </trkpt>
      <trkpt lat="47.64117" lon="4.38166">
        <ele>270.8</ele>
        <time>2026-05-20T08:14:33Z</time>
      </trkpt>
      <trkpt lat="47.64116" lon="4.38166">
        <ele>270.8</ele>
        <time>2026-05-20T08:14:34Z</time>
      </trkpt>
      <trkpt lat="47.64115" lon="4.38166">
        <ele>271.2</ele>
        <time>2026-05-20T08:14:35Z</time>
      </trkpt>
      <trkpt lat="47.64113" lon="4.38165">
        <ele>271.2</ele>
        <time>2026-05-20T08:14:36Z</time>
      </trkpt>
      <trkpt lat="47.64111" lon="4.38165">
        <ele>271.4</ele>
        <time>2026-05-20T08:14:37Z</time>
      </trkpt>
      <trkpt lat="47.64109" lon="4.38164">
        <ele>271.4</ele>
        <time>2026-05-20T08:14:38Z</time>
      </trkpt>
      <trkpt lat="47.64107" lon="4.38164">
        <ele>271.8</ele>
        <time>2026-05-20T08:14:39Z</time>
      </trkpt>
      <trkpt lat="47.64105" lon="4.38163">
        <ele>271.8</ele>
        <time>2026-05-20T08:14:40Z</time>
      </trkpt>
      <trkpt lat="47.64102" lon="4.38163">
        <ele>272</ele>
        <time>2026-05-20T08:14:41Z</time>
      </trkpt>
      <trkpt lat="47.641" lon="4.38163">
        <ele>272</ele>
        <time>2026-05-20T08:14:42Z</time>
      </trkpt>
      <trkpt lat="47.64097" lon="4.38163">
        <ele>272</ele>
        <time>2026-05-20T08:14:43Z</time>
      </trkpt>
      <trkpt lat="47.64095" lon="4.38162">
        <ele>272.2</ele>
        <time>2026-05-20T08:14:44Z</time>
      </trkpt>
      <trkpt lat="47.64094" lon="4.38162">
        <ele>272.2</ele>
        <time>2026-05-20T08:14:45Z</time>
      </trkpt>
      <trkpt lat="47.64091" lon="4.38161">
        <ele>272.4</ele>
        <time>2026-05-20T08:14:46Z</time>
      </trkpt>
      <trkpt lat="47.64089" lon="4.38162">
        <ele>272.4</ele>
        <time>2026-05-20T08:14:47Z</time>
      </trkpt>
      <trkpt lat="47.64087" lon="4.38164">
        <ele>272.6</ele>
        <time>2026-05-20T08:14:48Z</time>
      </trkpt>
      <trkpt lat="47.64084" lon="4.38163">
        <ele>272.8</ele>
        <time>2026-05-20T08:14:49Z</time>
      </trkpt>
      <trkpt lat="47.64081" lon="4.38163">
        <ele>273</ele>
        <time>2026-05-20T08:14:50Z</time>
      </trkpt>
      <trkpt lat="47.64078" lon="4.38162">
        <ele>273</ele>
        <time>2026-05-20T08:14:51Z</time>
      </trkpt>
      <trkpt lat="47.64077" lon="4.38162">
        <ele>273.2</ele>
        <time>2026-05-20T08:14:52Z</time>
      </trkpt>
      <trkpt lat="47.64075" lon="4.38163">
        <ele>273.4</ele>
        <time>2026-05-20T08:14:53Z</time>
      </trkpt>
      <trkpt lat="47.64074" lon="4.38164">
        <ele>273.4</ele>
        <time>2026-05-20T08:14:54Z</time>
      </trkpt>
      <trkpt lat="47.64072" lon="4.38165">
        <ele>273.6</ele>
        <time>2026-05-20T08:14:55Z</time>
      </trkpt>
      <trkpt lat="47.64069" lon="4.38165">
        <ele>273.8</ele>
        <time>2026-05-20T08:14:56Z</time>
      </trkpt>
      <trkpt lat="47.64066" lon="4.38164">
        <ele>274</ele>
        <time>2026-05-20T08:14:57Z</time>
      </trkpt>
      <trkpt lat="47.64064" lon="4.38164">
        <ele>274</ele>
        <time>2026-05-20T08:14:58Z</time>
      </trkpt>
      <trkpt lat="47.6406" lon="4.38167">
        <ele>274.4</ele>
        <time>2026-05-20T08:14:59Z</time>
      </trkpt>
      <trkpt lat="47.64058" lon="4.38169">
        <ele>274.6</ele>
        <time>2026-05-20T08:15:00Z</time>
      </trkpt>
      <trkpt lat="47.64056" lon="4.38171">
        <ele>274.6</ele>
        <time>2026-05-20T08:15:01Z</time>
      </trkpt>
      <trkpt lat="47.64054" lon="4.38169">
        <ele>274.8</ele>
        <time>2026-05-20T08:15:02Z</time>
      </trkpt>
      <trkpt lat="47.64052" lon="4.3817">
        <ele>275</ele>
        <time>2026-05-20T08:15:03Z</time>
      </trkpt>
      <trkpt lat="47.64051" lon="4.38172">
        <ele>275.2</ele>
        <time>2026-05-20T08:15:04Z</time>
      </trkpt>
      <trkpt lat="47.64051" lon="4.38174">
        <ele>275.2</ele>
        <time>2026-05-20T08:15:05Z</time>
      </trkpt>
      <trkpt lat="47.64049" lon="4.38178">
        <ele>275.4</ele>
        <time>2026-05-20T08:15:06Z</time>
      </trkpt>
      <trkpt lat="47.6405" lon="4.3818">
        <ele>275.4</ele>
        <time>2026-05-20T08:15:07Z</time>
      </trkpt>
      <trkpt lat="47.6405" lon="4.38183">
        <ele>275.6</ele>
        <time>2026-05-20T08:15:08Z</time>
      </trkpt>
      <trkpt lat="47.64049" lon="4.38186">
        <ele>275.8</ele>
        <time>2026-05-20T08:15:09Z</time>
      </trkpt>
      <trkpt lat="47.6405" lon="4.38189">
        <ele>275.8</ele>
        <time>2026-05-20T08:15:10Z</time>
      </trkpt>
      <trkpt lat="47.6405" lon="4.38191">
        <ele>276</ele>
        <time>2026-05-20T08:15:11Z</time>
      </trkpt>
      <trkpt lat="47.64049" lon="4.38194">
        <ele>276</ele>
        <time>2026-05-20T08:15:12Z</time>
      </trkpt>
      <trkpt lat="47.64048" lon="4.38197">
        <ele>276.2</ele>
        <time>2026-05-20T08:15:13Z</time>
      </trkpt>
      <trkpt lat="47.64047" lon="4.38201">
        <ele>276.2</ele>
        <time>2026-05-20T08:15:14Z</time>
      </trkpt>
      <trkpt lat="47.64046" lon="4.38205">
        <ele>276.4</ele>
        <time>2026-05-20T08:15:15Z</time>
      </trkpt>
      <trkpt lat="47.64044" lon="4.38206">
        <ele>276.6</ele>
        <time>2026-05-20T08:15:16Z</time>
      </trkpt>
      <trkpt lat="47.64043" lon="4.38207">
        <ele>276.6</ele>
        <time>2026-05-20T08:15:17Z</time>
      </trkpt>
      <trkpt lat="47.64043" lon="4.38208">
        <ele>277</ele>
        <time>2026-05-20T08:15:18Z</time>
      </trkpt>
      <trkpt lat="47.64044" lon="4.38211">
        <ele>277.2</ele>
        <time>2026-05-20T08:15:19Z</time>
      </trkpt>
      <trkpt lat="47.64045" lon="4.38214">
        <ele>277.4</ele>
        <time>2026-05-20T08:15:20Z</time>
      </trkpt>
      <trkpt lat="47.64045" lon="4.38217">
        <ele>277.4</ele>
        <time>2026-05-20T08:15:21Z</time>
      </trkpt>
      <trkpt lat="47.64044" lon="4.3822">
        <ele>277.6</ele>
        <time>2026-05-20T08:15:22Z</time>
      </trkpt>
      <trkpt lat="47.64044" lon="4.38222">
        <ele>277.8</ele>
        <time>2026-05-20T08:15:23Z</time>
      </trkpt>
      <trkpt lat="47.64044" lon="4.38225">
        <ele>277.8</ele>
        <time>2026-05-20T08:15:24Z</time>
      </trkpt>
      <trkpt lat="47.64044" lon="4.38227">
        <ele>278</ele>
        <time>2026-05-20T08:15:25Z</time>
      </trkpt>
      <trkpt lat="47.64044" lon="4.38229">
        <ele>278.2</ele>
        <time>2026-05-20T08:15:26Z</time>
      </trkpt>
      <trkpt lat="47.64044" lon="4.3823">
        <ele>278.4</ele>
        <time>2026-05-20T08:15:27Z</time>
      </trkpt>
      <trkpt lat="47.64044" lon="4.38231">
        <ele>278.4</ele>
        <time>2026-05-20T08:15:28Z</time>
      </trkpt>
      <trkpt lat="47.64044" lon="4.38233">
        <ele>278.6</ele>
        <time>2026-05-20T08:15:29Z</time>
      </trkpt>
      <trkpt lat="47.64045" lon="4.38236">
        <ele>278.8</ele>
        <time>2026-05-20T08:15:30Z</time>
      </trkpt>
      <trkpt lat="47.64045" lon="4.38238">
        <ele>279</ele>
        <time>2026-05-20T08:15:31Z</time>
      </trkpt>
      <trkpt lat="47.64046" lon="4.38241">
        <ele>279</ele>
        <time>2026-05-20T08:15:32Z</time>
      </trkpt>
      <trkpt lat="47.64046" lon="4.38243">
        <ele>279.2</ele>
        <time>2026-05-20T08:15:33Z</time>
      </trkpt>
      <trkpt lat="47.64046" lon="4.38246">
        <ele>279.2</ele>
        <time>2026-05-20T08:15:34Z</time>
      </trkpt>
      <trkpt lat="47.64045" lon="4.3825">
        <ele>279.4</ele>
        <time>2026-05-20T08:15:35Z</time>
      </trkpt>
      <trkpt lat="47.64044" lon="4.38253">
        <ele>279.6</ele>
        <time>2026-05-20T08:15:36Z</time>
      </trkpt>
      <trkpt lat="47.64043" lon="4.38255">
        <ele>279.6</ele>
        <time>2026-05-20T08:15:37Z</time>
      </trkpt>
      <trkpt lat="47.64043" lon="4.38257">
        <ele>279.8</ele>
        <time>2026-05-20T08:15:38Z</time>
      </trkpt>
      <trkpt lat="47.64043" lon="4.3826">
        <ele>279.8</ele>
        <time>2026-05-20T08:15:39Z</time>
      </trkpt>
      <trkpt lat="47.64043" lon="4.38262">
        <ele>280</ele>
        <time>2026-05-20T08:15:40Z</time>
      </trkpt>
      <trkpt lat="47.64042" lon="4.38266">
        <ele>280</ele>
        <time>2026-05-20T08:15:41Z</time>
      </trkpt>
      <trkpt lat="47.64041" lon="4.38269">
        <ele>280.2</ele>
        <time>2026-05-20T08:15:42Z</time>
      </trkpt>
      <trkpt lat="47.6404" lon="4.38271">
        <ele>280.2</ele>
        <time>2026-05-20T08:15:43Z</time>
      </trkpt>
      <trkpt lat="47.6404" lon="4.38274">
        <ele>280.4</ele>
        <time>2026-05-20T08:15:44Z</time>
      </trkpt>
      <trkpt lat="47.6404" lon="4.38277">
        <ele>280.6</ele>
        <time>2026-05-20T08:15:45Z</time>
      </trkpt>
      <trkpt lat="47.64039" lon="4.38281">
        <ele>280.6</ele>
        <time>2026-05-20T08:15:46Z</time>
      </trkpt>
      <trkpt lat="47.64037" lon="4.38287">
        <ele>280.8</ele>
        <time>2026-05-20T08:15:47Z</time>
      </trkpt>
      <trkpt lat="47.64037" lon="4.3829">
        <ele>281</ele>
        <time>2026-05-20T08:15:48Z</time>
      </trkpt>
      <trkpt lat="47.64038" lon="4.38295">
        <ele>281.2</ele>
        <time>2026-05-20T08:15:49Z</time>
      </trkpt>
      <trkpt lat="47.6404" lon="4.38298">
        <ele>281.2</ele>
        <time>2026-05-20T08:15:50Z</time>
      </trkpt>
      <trkpt lat="47.6404" lon="4.38303">
        <ele>281.4</ele>
        <time>2026-05-20T08:15:51Z</time>
      </trkpt>
      <trkpt lat="47.64039" lon="4.38307">
        <ele>281.4</ele>
        <time>2026-05-20T08:15:52Z</time>
      </trkpt>
      <trkpt lat="47.64039" lon="4.3831">
        <ele>281.4</ele>
        <time>2026-05-20T08:15:53Z</time>
      </trkpt>
      <trkpt lat="47.6404" lon="4.38313">
        <ele>281.6</ele>
        <time>2026-05-20T08:15:54Z</time>
      </trkpt>
      <trkpt lat="47.64041" lon="4.38317">
        <ele>281.6</ele>
        <time>2026-05-20T08:15:55Z</time>
      </trkpt>
      <trkpt lat="47.6404" lon="4.38322">
        <ele>281.8</ele>
        <time>2026-05-20T08:15:56Z</time>
      </trkpt>
      <trkpt lat="47.64039" lon="4.38326">
        <ele>282</ele>
        <time>2026-05-20T08:15:57Z</time>
      </trkpt>
      <trkpt lat="47.6404" lon="4.38329">
        <ele>282.2</ele>
        <time>2026-05-20T08:15:58Z</time>
      </trkpt>
      <trkpt lat="47.6404" lon="4.38332">
        <ele>282.4</ele>
        <time>2026-05-20T08:15:59Z</time>
      </trkpt>
      <trkpt lat="47.6404" lon="4.38333">
        <ele>282.4</ele>
        <time>2026-05-20T08:16:00Z</time>
      </trkpt>
      <trkpt lat="47.64039" lon="4.38339">
        <ele>282.6</ele>
        <time>2026-05-20T08:16:01Z</time>
      </trkpt>
      <trkpt lat="47.64039" lon="4.38341">
        <ele>282.8</ele>
        <time>2026-05-20T08:16:02Z</time>
      </trkpt>
      <trkpt lat="47.64039" lon="4.38344">
        <ele>283.2</ele>
        <time>2026-05-20T08:16:03Z</time>
      </trkpt>
      <trkpt lat="47.64038" lon="4.38346">
        <ele>283.2</ele>
        <time>2026-05-20T08:16:04Z</time>
      </trkpt>
      <trkpt lat="47.64037" lon="4.38349">
        <ele>283.6</ele>
        <time>2026-05-20T08:16:05Z</time>
      </trkpt>
      <trkpt lat="47.64037" lon="4.38352">
        <ele>283.6</ele>
        <time>2026-05-20T08:16:06Z</time>
      </trkpt>
      <trkpt lat="47.64037" lon="4.38355">
        <ele>284</ele>
        <time>2026-05-20T08:16:07Z</time>
      </trkpt>
      <trkpt lat="47.64037" lon="4.38357">
        <ele>284</ele>
        <time>2026-05-20T08:16:08Z</time>
      </trkpt>
      <trkpt lat="47.64037" lon="4.38359">
        <ele>284.2</ele>
        <time>2026-05-20T08:16:09Z</time>
      </trkpt>
      <trkpt lat="47.64038" lon="4.38361">
        <ele>284.4</ele>
        <time>2026-05-20T08:16:10Z</time>
      </trkpt>
      <trkpt lat="47.64038" lon="4.38364">
        <ele>284.8</ele>
        <time>2026-05-20T08:16:11Z</time>
      </trkpt>
      <trkpt lat="47.64039" lon="4.38367">
        <ele>284.8</ele>
        <time>2026-05-20T08:16:12Z</time>
      </trkpt>
      <trkpt lat="47.64039" lon="4.3837">
        <ele>285</ele>
        <time>2026-05-20T08:16:13Z</time>
      </trkpt>
      <trkpt lat="47.64039" lon="4.38372">
        <ele>285</ele>
        <time>2026-05-20T08:16:14Z</time>
      </trkpt>
      <trkpt lat="47.64039" lon="4.38375">
        <ele>285.2</ele>
        <time>2026-05-20T08:16:15Z</time>
      </trkpt>
      <trkpt lat="47.64039" lon="4.38378">
        <ele>285</ele>
        <time>2026-05-20T08:16:16Z</time>
      </trkpt>
      <trkpt lat="47.64039" lon="4.38381">
        <ele>285</ele>
        <time>2026-05-20T08:16:17Z</time>
      </trkpt>
      <trkpt lat="47.6404" lon="4.38384">
        <ele>285</ele>
        <time>2026-05-20T08:16:18Z</time>
      </trkpt>
      <trkpt lat="47.64041" lon="4.38388">
        <ele>285</ele>
        <time>2026-05-20T08:16:19Z</time>
      </trkpt>
      <trkpt lat="47.64041" lon="4.38391">
        <ele>285</ele>
        <time>2026-05-20T08:16:20Z</time>
      </trkpt>
      <trkpt lat="47.64042" lon="4.38395">
        <ele>285.2</ele>
        <time>2026-05-20T08:16:21Z</time>
      </trkpt>
      <trkpt lat="47.64042" lon="4.38399">
        <ele>285.2</ele>
        <time>2026-05-20T08:16:22Z</time>
      </trkpt>
      <trkpt lat="47.64042" lon="4.38402">
        <ele>285.2</ele>
        <time>2026-05-20T08:16:23Z</time>
      </trkpt>
      <trkpt lat="47.64042" lon="4.38406">
        <ele>285.2</ele>
        <time>2026-05-20T08:16:24Z</time>
      </trkpt>
      <trkpt lat="47.64042" lon="4.3841">
        <ele>285.2</ele>
        <time>2026-05-20T08:16:25Z</time>
      </trkpt>
      <trkpt lat="47.64041" lon="4.38414">
        <ele>285.4</ele>
        <time>2026-05-20T08:16:26Z</time>
      </trkpt>
      <trkpt lat="47.6404" lon="4.38418">
        <ele>285.4</ele>
        <time>2026-05-20T08:16:27Z</time>
      </trkpt>
      <trkpt lat="47.64039" lon="4.38421">
        <ele>285.2</ele>
        <time>2026-05-20T08:16:28Z</time>
      </trkpt>
      <trkpt lat="47.64038" lon="4.38424">
        <ele>285.4</ele>
        <time>2026-05-20T08:16:29Z</time>
      </trkpt>
      <trkpt lat="47.64037" lon="4.3843">
        <ele>285.4</ele>
        <time>2026-05-20T08:16:30Z</time>
      </trkpt>
      <trkpt lat="47.64036" lon="4.38437">
        <ele>285.4</ele>
        <time>2026-05-20T08:16:31Z</time>
      </trkpt>
      <trkpt lat="47.64036" lon="4.38443">
        <ele>285.4</ele>
        <time>2026-05-20T08:16:32Z</time>
      </trkpt>
      <trkpt lat="47.64036" lon="4.38449">
        <ele>285.4</ele>
        <time>2026-05-20T08:16:33Z</time>
      </trkpt>
      <trkpt lat="47.64036" lon="4.38454">
        <ele>285.4</ele>
        <time>2026-05-20T08:16:34Z</time>
      </trkpt>
      <trkpt lat="47.64037" lon="4.3846">
        <ele>285.4</ele>
        <time>2026-05-20T08:16:35Z</time>
      </trkpt>
      <trkpt lat="47.64038" lon="4.38466">
        <ele>285.4</ele>
        <time>2026-05-20T08:16:36Z</time>
      </trkpt>
      <trkpt lat="47.6404" lon="4.3847">
        <ele>285.4</ele>
        <time>2026-05-20T08:16:37Z</time>
      </trkpt>
      <trkpt lat="47.64043" lon="4.38473">
        <ele>285.4</ele>
        <time>2026-05-20T08:16:38Z</time>
      </trkpt>
      <trkpt lat="47.64044" lon="4.38477">
        <ele>285.4</ele>
        <time>2026-05-20T08:16:39Z</time>
      </trkpt>
      <trkpt lat="47.64045" lon="4.3848">
        <ele>285.2</ele>
        <time>2026-05-20T08:16:40Z</time>
      </trkpt>
      <trkpt lat="47.64046" lon="4.38484">
        <ele>285.2</ele>
        <time>2026-05-20T08:16:41Z</time>
      </trkpt>
      <trkpt lat="47.64048" lon="4.38487">
        <ele>285.2</ele>
        <time>2026-05-20T08:16:42Z</time>
      </trkpt>
      <trkpt lat="47.64053" lon="4.38491">
        <ele>285.2</ele>
        <time>2026-05-20T08:16:43Z</time>
      </trkpt>
      <trkpt lat="47.64058" lon="4.38495">
        <ele>285</ele>
        <time>2026-05-20T08:16:44Z</time>
      </trkpt>
      <trkpt lat="47.6406" lon="4.38499">
        <ele>285</ele>
        <time>2026-05-20T08:16:45Z</time>
      </trkpt>
      <trkpt lat="47.64061" lon="4.38504">
        <ele>285</ele>
        <time>2026-05-20T08:16:46Z</time>
      </trkpt>
      <trkpt lat="47.64063" lon="4.38508">
        <ele>284.8</ele>
        <time>2026-05-20T08:16:47Z</time>
      </trkpt>
      <trkpt lat="47.64066" lon="4.38512">
        <ele>284.6</ele>
        <time>2026-05-20T08:16:48Z</time>
      </trkpt>
      <trkpt lat="47.64069" lon="4.38515">
        <ele>284.4</ele>
        <time>2026-05-20T08:16:49Z</time>
      </trkpt>
      <trkpt lat="47.6407" lon="4.38518">
        <ele>284.4</ele>
        <time>2026-05-20T08:16:50Z</time>
      </trkpt>
      <trkpt lat="47.64072" lon="4.38521">
        <ele>284.2</ele>
        <time>2026-05-20T08:16:51Z</time>
      </trkpt>
      <trkpt lat="47.64074" lon="4.38525">
        <ele>284</ele>
        <time>2026-05-20T08:16:52Z</time>
      </trkpt>
      <trkpt lat="47.64078" lon="4.38528">
        <ele>283.8</ele>
        <time>2026-05-20T08:16:53Z</time>
      </trkpt>
      <trkpt lat="47.64081" lon="4.38532">
        <ele>283.6</ele>
        <time>2026-05-20T08:16:54Z</time>
      </trkpt>
      <trkpt lat="47.64083" lon="4.38536">
        <ele>283.4</ele>
        <time>2026-05-20T08:16:55Z</time>
      </trkpt>
      <trkpt lat="47.64087" lon="4.38539">
        <ele>283.4</ele>
        <time>2026-05-20T08:16:56Z</time>
      </trkpt>
      <trkpt lat="47.64088" lon="4.38542">
        <ele>283.2</ele>
        <time>2026-05-20T08:16:57Z</time>
      </trkpt>
      <trkpt lat="47.6409" lon="4.38545">
        <ele>283.2</ele>
        <time>2026-05-20T08:16:58Z</time>
      </trkpt>
      <trkpt lat="47.64093" lon="4.38548">
        <ele>282.8</ele>
        <time>2026-05-20T08:16:59Z</time>
      </trkpt>
      <trkpt lat="47.64094" lon="4.3855">
        <ele>282.6</ele>
        <time>2026-05-20T08:17:00Z</time>
      </trkpt>
      <trkpt lat="47.64095" lon="4.38553">
        <ele>282.4</ele>
        <time>2026-05-20T08:17:01Z</time>
      </trkpt>
      <trkpt lat="47.64098" lon="4.38557">
        <ele>282.4</ele>
        <time>2026-05-20T08:17:02Z</time>
      </trkpt>
      <trkpt lat="47.641" lon="4.3856">
        <ele>282.4</ele>
        <time>2026-05-20T08:17:03Z</time>
      </trkpt>
      <trkpt lat="47.64103" lon="4.3856">
        <ele>282.2</ele>
        <time>2026-05-20T08:17:04Z</time>
      </trkpt>
      <trkpt lat="47.64105" lon="4.38563">
        <ele>282.2</ele>
        <time>2026-05-20T08:17:05Z</time>
      </trkpt>
      <trkpt lat="47.64109" lon="4.38567">
        <ele>282.2</ele>
        <time>2026-05-20T08:17:06Z</time>
      </trkpt>
      <trkpt lat="47.64112" lon="4.38572">
        <ele>282.2</ele>
        <time>2026-05-20T08:17:07Z</time>
      </trkpt>
      <trkpt lat="47.64116" lon="4.38577">
        <ele>281.8</ele>
        <time>2026-05-20T08:17:08Z</time>
      </trkpt>
      <trkpt lat="47.64118" lon="4.38582">
        <ele>281.8</ele>
        <time>2026-05-20T08:17:09Z</time>
      </trkpt>
      <trkpt lat="47.64121" lon="4.38587">
        <ele>281.8</ele>
        <time>2026-05-20T08:17:10Z</time>
      </trkpt>
      <trkpt lat="47.64124" lon="4.38591">
        <ele>281.8</ele>
        <time>2026-05-20T08:17:11Z</time>
      </trkpt>
      <trkpt lat="47.64127" lon="4.38594">
        <ele>281.6</ele>
        <time>2026-05-20T08:17:12Z</time>
      </trkpt>
      <trkpt lat="47.64129" lon="4.38598">
        <ele>281.6</ele>
        <time>2026-05-20T08:17:13Z</time>
      </trkpt>
      <trkpt lat="47.64134" lon="4.38604">
        <ele>281.4</ele>
        <time>2026-05-20T08:17:14Z</time>
      </trkpt>
      <trkpt lat="47.64138" lon="4.38609">
        <ele>281.4</ele>
        <time>2026-05-20T08:17:15Z</time>
      </trkpt>
      <trkpt lat="47.64141" lon="4.38614">
        <ele>281.2</ele>
        <time>2026-05-20T08:17:16Z</time>
      </trkpt>
      <trkpt lat="47.64145" lon="4.38619">
        <ele>281.2</ele>
        <time>2026-05-20T08:17:17Z</time>
      </trkpt>
      <trkpt lat="47.64148" lon="4.38622">
        <ele>281.2</ele>
        <time>2026-05-20T08:17:18Z</time>
      </trkpt>
      <trkpt lat="47.6415" lon="4.38626">
        <ele>281</ele>
        <time>2026-05-20T08:17:19Z</time>
      </trkpt>
      <trkpt lat="47.64152" lon="4.38629">
        <ele>281</ele>
        <time>2026-05-20T08:17:20Z</time>
      </trkpt>
      <trkpt lat="47.64154" lon="4.38633">
        <ele>280.8</ele>
        <time>2026-05-20T08:17:21Z</time>
      </trkpt>
      <trkpt lat="47.64155" lon="4.38638">
        <ele>280.6</ele>
        <time>2026-05-20T08:17:22Z</time>
      </trkpt>
      <trkpt lat="47.64156" lon="4.38641">
        <ele>280.4</ele>
        <time>2026-05-20T08:17:23Z</time>
      </trkpt>
      <trkpt lat="47.64157" lon="4.38645">
        <ele>280</ele>
        <time>2026-05-20T08:17:24Z</time>
      </trkpt>
      <trkpt lat="47.64162" lon="4.38649">
        <ele>279.8</ele>
        <time>2026-05-20T08:17:25Z</time>
      </trkpt>
      <trkpt lat="47.64162" lon="4.38653">
        <ele>279.4</ele>
        <time>2026-05-20T08:17:26Z</time>
      </trkpt>
      <trkpt lat="47.64164" lon="4.38656">
        <ele>279</ele>
        <time>2026-05-20T08:17:27Z</time>
      </trkpt>
      <trkpt lat="47.64164" lon="4.3866">
        <ele>279</ele>
        <time>2026-05-20T08:17:28Z</time>
      </trkpt>
      <trkpt lat="47.64163" lon="4.38666">
        <ele>278.8</ele>
        <time>2026-05-20T08:17:29Z</time>
      </trkpt>
      <trkpt lat="47.64161" lon="4.38671">
        <ele>278.6</ele>
        <time>2026-05-20T08:17:30Z</time>
      </trkpt>
      <trkpt lat="47.6416" lon="4.38675">
        <ele>278.6</ele>
        <time>2026-05-20T08:17:31Z</time>
      </trkpt>
      <trkpt lat="47.64157" lon="4.3868">
        <ele>278.4</ele>
        <time>2026-05-20T08:17:32Z</time>
      </trkpt>
      <trkpt lat="47.64155" lon="4.38684">
        <ele>278.2</ele>
        <time>2026-05-20T08:17:33Z</time>
      </trkpt>
      <trkpt lat="47.64154" lon="4.38687">
        <ele>278</ele>
        <time>2026-05-20T08:17:34Z</time>
      </trkpt>
      <trkpt lat="47.64152" lon="4.38689">
        <ele>277.6</ele>
        <time>2026-05-20T08:17:35Z</time>
      </trkpt>
      <trkpt lat="47.64152" lon="4.38692">
        <ele>277.4</ele>
        <time>2026-05-20T08:17:36Z</time>
      </trkpt>
      <trkpt lat="47.64152" lon="4.38696">
        <ele>277</ele>
        <time>2026-05-20T08:17:37Z</time>
      </trkpt>
      <trkpt lat="47.64152" lon="4.38698">
        <ele>276.8</ele>
        <time>2026-05-20T08:17:38Z</time>
      </trkpt>
      <trkpt lat="47.64153" lon="4.38702">
        <ele>276.2</ele>
        <time>2026-05-20T08:17:39Z</time>
      </trkpt>
      <trkpt lat="47.64156" lon="4.38707">
        <ele>276</ele>
        <time>2026-05-20T08:17:40Z</time>
      </trkpt>
      <trkpt lat="47.64158" lon="4.38711">
        <ele>275.6</ele>
        <time>2026-05-20T08:17:41Z</time>
      </trkpt>
      <trkpt lat="47.6416" lon="4.38716">
        <ele>275.4</ele>
        <time>2026-05-20T08:17:42Z</time>
      </trkpt>
      <trkpt lat="47.64164" lon="4.3872">
        <ele>275</ele>
        <time>2026-05-20T08:17:43Z</time>
      </trkpt>
      <trkpt lat="47.64166" lon="4.38723">
        <ele>274</ele>
        <time>2026-05-20T08:17:44Z</time>
      </trkpt>
      <trkpt lat="47.64169" lon="4.38725">
        <ele>273.4</ele>
        <time>2026-05-20T08:17:45Z</time>
      </trkpt>
      <trkpt lat="47.64174" lon="4.38727">
        <ele>272.8</ele>
        <time>2026-05-20T08:17:46Z</time>
      </trkpt>
      <trkpt lat="47.64178" lon="4.3873">
        <ele>272.6</ele>
        <time>2026-05-20T08:17:47Z</time>
      </trkpt>
      <trkpt lat="47.64182" lon="4.38735">
        <ele>272.2</ele>
        <time>2026-05-20T08:17:48Z</time>
      </trkpt>
      <trkpt lat="47.64186" lon="4.38738">
        <ele>272</ele>
        <time>2026-05-20T08:17:49Z</time>
      </trkpt>
      <trkpt lat="47.6419" lon="4.38741">
        <ele>271.6</ele>
        <time>2026-05-20T08:17:50Z</time>
      </trkpt>
      <trkpt lat="47.64194" lon="4.38742">
        <ele>270.6</ele>
        <time>2026-05-20T08:17:51Z</time>
      </trkpt>
      <trkpt lat="47.64198" lon="4.38743">
        <ele>270.2</ele>
        <time>2026-05-20T08:17:52Z</time>
      </trkpt>
      <trkpt lat="47.64203" lon="4.38744">
        <ele>269.6</ele>
        <time>2026-05-20T08:17:53Z</time>
      </trkpt>
      <trkpt lat="47.64207" lon="4.38745">
        <ele>269.2</ele>
        <time>2026-05-20T08:17:54Z</time>
      </trkpt>
      <trkpt lat="47.64212" lon="4.38747">
        <ele>268.6</ele>
        <time>2026-05-20T08:17:55Z</time>
      </trkpt>
      <trkpt lat="47.64215" lon="4.3875">
        <ele>268.4</ele>
        <time>2026-05-20T08:17:56Z</time>
      </trkpt>
      <trkpt lat="47.64219" lon="4.38753">
        <ele>267.8</ele>
        <time>2026-05-20T08:17:57Z</time>
      </trkpt>
      <trkpt lat="47.64221" lon="4.38757">
        <ele>267.6</ele>
        <time>2026-05-20T08:17:58Z</time>
      </trkpt>
      <trkpt lat="47.64223" lon="4.38761">
        <ele>267.2</ele>
        <time>2026-05-20T08:17:59Z</time>
      </trkpt>
      <trkpt lat="47.64225" lon="4.38764">
        <ele>266.8</ele>
        <time>2026-05-20T08:18:00Z</time>
      </trkpt>
      <trkpt lat="47.64227" lon="4.38766">
        <ele>266.6</ele>
        <time>2026-05-20T08:18:01Z</time>
      </trkpt>
      <trkpt lat="47.64229" lon="4.38769">
        <ele>265.8</ele>
        <time>2026-05-20T08:18:02Z</time>
      </trkpt>
      <trkpt lat="47.64232" lon="4.38772">
        <ele>265.4</ele>
        <time>2026-05-20T08:18:03Z</time>
      </trkpt>
      <trkpt lat="47.64235" lon="4.38774">
        <ele>264.8</ele>
        <time>2026-05-20T08:18:04Z</time>
      </trkpt>
      <trkpt lat="47.6424" lon="4.38778">
        <ele>264.6</ele>
        <time>2026-05-20T08:18:05Z</time>
      </trkpt>
      <trkpt lat="47.64242" lon="4.38781">
        <ele>263.4</ele>
        <time>2026-05-20T08:18:06Z</time>
      </trkpt>
      <trkpt lat="47.64244" lon="4.38784">
        <ele>262.8</ele>
        <time>2026-05-20T08:18:07Z</time>
      </trkpt>
      <trkpt lat="47.64248" lon="4.38789">
        <ele>262</ele>
        <time>2026-05-20T08:18:08Z</time>
      </trkpt>
      <trkpt lat="47.64251" lon="4.38795">
        <ele>261.6</ele>
        <time>2026-05-20T08:18:09Z</time>
      </trkpt>
      <trkpt lat="47.64254" lon="4.388">
        <ele>260.8</ele>
        <time>2026-05-20T08:18:10Z</time>
      </trkpt>
      <trkpt lat="47.64258" lon="4.38804">
        <ele>260</ele>
        <time>2026-05-20T08:18:11Z</time>
      </trkpt>
      <trkpt lat="47.64261" lon="4.38808">
        <ele>259.8</ele>
        <time>2026-05-20T08:18:12Z</time>
      </trkpt>
      <trkpt lat="47.64263" lon="4.38812">
        <ele>259</ele>
        <time>2026-05-20T08:18:13Z</time>
      </trkpt>
      <trkpt lat="47.64265" lon="4.38817">
        <ele>258.6</ele>
        <time>2026-05-20T08:18:14Z</time>
      </trkpt>
      <trkpt lat="47.64268" lon="4.38821">
        <ele>257.8</ele>
        <time>2026-05-20T08:18:15Z</time>
      </trkpt>
      <trkpt lat="47.6427" lon="4.38824">
        <ele>257.2</ele>
        <time>2026-05-20T08:18:16Z</time>
      </trkpt>
      <trkpt lat="47.64273" lon="4.38828">
        <ele>255.6</ele>
        <time>2026-05-20T08:18:17Z</time>
      </trkpt>
      <trkpt lat="47.64276" lon="4.38832">
        <ele>255</ele>
        <time>2026-05-20T08:18:18Z</time>
      </trkpt>
      <trkpt lat="47.6428" lon="4.38836">
        <ele>254.2</ele>
        <time>2026-05-20T08:18:19Z</time>
      </trkpt>
      <trkpt lat="47.64281" lon="4.38839">
        <ele>253.4</ele>
        <time>2026-05-20T08:18:20Z</time>
      </trkpt>
      <trkpt lat="47.64284" lon="4.38843">
        <ele>253</ele>
        <time>2026-05-20T08:18:21Z</time>
      </trkpt>
      <trkpt lat="47.64286" lon="4.38847">
        <ele>252.6</ele>
        <time>2026-05-20T08:18:22Z</time>
      </trkpt>
      <trkpt lat="47.64288" lon="4.38852">
        <ele>252.4</ele>
        <time>2026-05-20T08:18:23Z</time>
      </trkpt>
      <trkpt lat="47.64291" lon="4.38856">
        <ele>251.6</ele>
        <time>2026-05-20T08:18:24Z</time>
      </trkpt>
      <trkpt lat="47.64294" lon="4.38859">
        <ele>251.2</ele>
        <time>2026-05-20T08:18:25Z</time>
      </trkpt>
      <trkpt lat="47.64295" lon="4.38863">
        <ele>250.6</ele>
        <time>2026-05-20T08:18:26Z</time>
      </trkpt>
      <trkpt lat="47.64299" lon="4.38868">
        <ele>250.4</ele>
        <time>2026-05-20T08:18:27Z</time>
      </trkpt>
      <trkpt lat="47.64302" lon="4.38872">
        <ele>249.6</ele>
        <time>2026-05-20T08:18:28Z</time>
      </trkpt>
      <trkpt lat="47.64306" lon="4.38877">
        <ele>249.2</ele>
        <time>2026-05-20T08:18:29Z</time>
      </trkpt>
      <trkpt lat="47.6431" lon="4.38881">
        <ele>249</ele>
        <time>2026-05-20T08:18:30Z</time>
      </trkpt>
      <trkpt lat="47.64314" lon="4.38885">
        <ele>248.4</ele>
        <time>2026-05-20T08:18:31Z</time>
      </trkpt>
      <trkpt lat="47.64318" lon="4.38888">
        <ele>247.8</ele>
        <time>2026-05-20T08:18:32Z</time>
      </trkpt>
      <trkpt lat="47.64321" lon="4.38892">
        <ele>247</ele>
        <time>2026-05-20T08:18:33Z</time>
      </trkpt>
      <trkpt lat="47.64326" lon="4.38894">
        <ele>246.6</ele>
        <time>2026-05-20T08:18:34Z</time>
      </trkpt>
      <trkpt lat="47.64329" lon="4.38896">
        <ele>245.6</ele>
        <time>2026-05-20T08:18:35Z</time>
      </trkpt>
      <trkpt lat="47.64333" lon="4.38898">
        <ele>245.4</ele>
        <time>2026-05-20T08:18:36Z</time>
      </trkpt>
      <trkpt lat="47.64337" lon="4.38901">
        <ele>244.8</ele>
        <time>2026-05-20T08:18:37Z</time>
      </trkpt>
      <trkpt lat="47.64338" lon="4.38904">
        <ele>244.4</ele>
        <time>2026-05-20T08:18:38Z</time>
      </trkpt>
      <trkpt lat="47.64339" lon="4.38907">
        <ele>244.2</ele>
        <time>2026-05-20T08:18:39Z</time>
      </trkpt>
      <trkpt lat="47.64339" lon="4.3891">
        <ele>244</ele>
        <time>2026-05-20T08:18:40Z</time>
      </trkpt>
      <trkpt lat="47.64338" lon="4.38912">
        <ele>243.8</ele>
        <time>2026-05-20T08:18:41Z</time>
      </trkpt>
      <trkpt lat="47.64337" lon="4.38913">
        <ele>243.4</ele>
        <time>2026-05-20T08:18:42Z</time>
      </trkpt>
      <trkpt lat="47.64335" lon="4.38912">
        <ele>243.2</ele>
        <time>2026-05-20T08:18:43Z</time>
      </trkpt>
      <trkpt lat="47.64333" lon="4.38912">
        <ele>243</ele>
        <time>2026-05-20T08:18:44Z</time>
      </trkpt>
      <trkpt lat="47.6433" lon="4.38912">
        <ele>242.8</ele>
        <time>2026-05-20T08:18:45Z</time>
      </trkpt>
      <trkpt lat="47.64325" lon="4.38912">
        <ele>242.6</ele>
        <time>2026-05-20T08:18:46Z</time>
      </trkpt>
      <trkpt lat="47.64322" lon="4.38911">
        <ele>242.2</ele>
        <time>2026-05-20T08:18:47Z</time>
      </trkpt>
      <trkpt lat="47.64318" lon="4.38908">
        <ele>242.2</ele>
        <time>2026-05-20T08:18:48Z</time>
      </trkpt>
      <trkpt lat="47.64313" lon="4.38906">
        <ele>241.8</ele>
        <time>2026-05-20T08:18:49Z</time>
      </trkpt>
      <trkpt lat="47.64309" lon="4.38904">
        <ele>241.6</ele>
        <time>2026-05-20T08:18:50Z</time>
      </trkpt>
      <trkpt lat="47.64304" lon="4.38902">
        <ele>241.4</ele>
        <time>2026-05-20T08:18:51Z</time>
      </trkpt>
      <trkpt lat="47.643" lon="4.389">
        <ele>241.2</ele>
        <time>2026-05-20T08:18:52Z</time>
      </trkpt>
      <trkpt lat="47.64296" lon="4.38898">
        <ele>241.2</ele>
        <time>2026-05-20T08:18:53Z</time>
      </trkpt>
      <trkpt lat="47.64291" lon="4.38895">
        <ele>241</ele>
        <time>2026-05-20T08:18:54Z</time>
      </trkpt>
      <trkpt lat="47.64287" lon="4.38892">
        <ele>240.8</ele>
        <time>2026-05-20T08:18:55Z</time>
      </trkpt>
      <trkpt lat="47.64282" lon="4.38889">
        <ele>240.8</ele>
        <time>2026-05-20T08:18:56Z</time>
      </trkpt>
      <trkpt lat="47.64278" lon="4.38886">
        <ele>240.8</ele>
        <time>2026-05-20T08:18:57Z</time>
      </trkpt>
      <trkpt lat="47.64273" lon="4.38883">
        <ele>240.6</ele>
        <time>2026-05-20T08:18:58Z</time>
      </trkpt>
      <trkpt lat="47.64268" lon="4.38881">
        <ele>240.6</ele>
        <time>2026-05-20T08:18:59Z</time>
      </trkpt>
      <trkpt lat="47.64263" lon="4.38877">
        <ele>240.4</ele>
        <time>2026-05-20T08:19:00Z</time>
      </trkpt>
      <trkpt lat="47.64259" lon="4.38874">
        <ele>240.4</ele>
        <time>2026-05-20T08:19:01Z</time>
      </trkpt>
      <trkpt lat="47.64255" lon="4.3887">
        <ele>240.2</ele>
        <time>2026-05-20T08:19:02Z</time>
      </trkpt>
      <trkpt lat="47.64251" lon="4.38867">
        <ele>240</ele>
        <time>2026-05-20T08:19:03Z</time>
      </trkpt>
      <trkpt lat="47.64247" lon="4.38863">
        <ele>240</ele>
        <time>2026-05-20T08:19:04Z</time>
      </trkpt>
      <trkpt lat="47.64243" lon="4.38859">
        <ele>240</ele>
        <time>2026-05-20T08:19:05Z</time>
      </trkpt>
      <trkpt lat="47.64239" lon="4.38855">
        <ele>240</ele>
        <time>2026-05-20T08:19:06Z</time>
      </trkpt>
      <trkpt lat="47.64235" lon="4.38852">
        <ele>239.8</ele>
        <time>2026-05-20T08:19:07Z</time>
      </trkpt>
      <trkpt lat="47.64232" lon="4.3885">
        <ele>239.6</ele>
        <time>2026-05-20T08:19:08Z</time>
      </trkpt>
      <trkpt lat="47.64229" lon="4.38849">
        <ele>239.2</ele>
        <time>2026-05-20T08:19:09Z</time>
      </trkpt>
      <trkpt lat="47.64226" lon="4.38847">
        <ele>239.4</ele>
        <time>2026-05-20T08:19:10Z</time>
      </trkpt>
      <trkpt lat="47.64221" lon="4.38845">
        <ele>239</ele>
        <time>2026-05-20T08:19:11Z</time>
      </trkpt>
      <trkpt lat="47.64217" lon="4.38845">
        <ele>239</ele>
        <time>2026-05-20T08:19:12Z</time>
      </trkpt>
      <trkpt lat="47.64211" lon="4.38845">
        <ele>238.8</ele>
        <time>2026-05-20T08:19:13Z</time>
      </trkpt>
      <trkpt lat="47.64205" lon="4.38842">
        <ele>238.8</ele>
        <time>2026-05-20T08:19:14Z</time>
      </trkpt>
      <trkpt lat="47.64199" lon="4.38839">
        <ele>238.6</ele>
        <time>2026-05-20T08:19:15Z</time>
      </trkpt>
      <trkpt lat="47.64193" lon="4.38834">
        <ele>238.6</ele>
        <time>2026-05-20T08:19:16Z</time>
      </trkpt>
      <trkpt lat="47.64188" lon="4.38832">
        <ele>238.4</ele>
        <time>2026-05-20T08:19:17Z</time>
      </trkpt>
      <trkpt lat="47.64181" lon="4.38832">
        <ele>238.2</ele>
        <time>2026-05-20T08:19:18Z</time>
      </trkpt>
      <trkpt lat="47.64173" lon="4.38833">
        <ele>238</ele>
        <time>2026-05-20T08:19:19Z</time>
      </trkpt>
      <trkpt lat="47.64167" lon="4.38833">
        <ele>237.8</ele>
        <time>2026-05-20T08:19:20Z</time>
      </trkpt>
      <trkpt lat="47.64161" lon="4.38833">
        <ele>237.8</ele>
        <time>2026-05-20T08:19:21Z</time>
      </trkpt>
      <trkpt lat="47.64154" lon="4.38836">
        <ele>237.4</ele>
        <time>2026-05-20T08:19:22Z</time>
      </trkpt>
      <trkpt lat="47.6415" lon="4.3884">
        <ele>237.4</ele>
        <time>2026-05-20T08:19:23Z</time>
      </trkpt>
      <trkpt lat="47.64148" lon="4.38845">
        <ele>237.4</ele>
        <time>2026-05-20T08:19:24Z</time>
      </trkpt>
      <trkpt lat="47.64147" lon="4.38849">
        <ele>237.2</ele>
        <time>2026-05-20T08:19:25Z</time>
      </trkpt>
      <trkpt lat="47.64147" lon="4.38852">
        <ele>237</ele>
        <time>2026-05-20T08:19:26Z</time>
      </trkpt>
      <trkpt lat="47.64148" lon="4.38856">
        <ele>236.8</ele>
        <time>2026-05-20T08:19:27Z</time>
      </trkpt>
      <trkpt lat="47.6415" lon="4.38858">
        <ele>236.6</ele>
        <time>2026-05-20T08:19:28Z</time>
      </trkpt>
      <trkpt lat="47.6415" lon="4.38861">
        <ele>236.6</ele>
        <time>2026-05-20T08:19:29Z</time>
      </trkpt>
      <trkpt lat="47.64151" lon="4.38864">
        <ele>236.6</ele>
        <time>2026-05-20T08:19:30Z</time>
      </trkpt>
      <trkpt lat="47.64151" lon="4.38867">
        <ele>236.6</ele>
        <time>2026-05-20T08:19:31Z</time>
      </trkpt>
      <trkpt lat="47.64151" lon="4.3887">
        <ele>236.6</ele>
        <time>2026-05-20T08:19:32Z</time>
      </trkpt>
      <trkpt lat="47.64152" lon="4.38871">
        <ele>236.6</ele>
        <time>2026-05-20T08:19:33Z</time>
      </trkpt>
      <trkpt lat="47.64153" lon="4.38873">
        <ele>236.6</ele>
        <time>2026-05-20T08:19:34Z</time>
      </trkpt>
      <trkpt lat="47.64153" lon="4.38876">
        <ele>236.6</ele>
        <time>2026-05-20T08:19:35Z</time>
      </trkpt>
      <trkpt lat="47.64153" lon="4.38878">
        <ele>236.8</ele>
        <time>2026-05-20T08:19:36Z</time>
      </trkpt>
      <trkpt lat="47.64154" lon="4.38881">
        <ele>236.8</ele>
        <time>2026-05-20T08:19:37Z</time>
      </trkpt>
      <trkpt lat="47.64154" lon="4.38884">
        <ele>237.2</ele>
        <time>2026-05-20T08:19:38Z</time>
      </trkpt>
      <trkpt lat="47.64155" lon="4.38887">
        <ele>237.4</ele>
        <time>2026-05-20T08:19:39Z</time>
      </trkpt>
      <trkpt lat="47.64156" lon="4.38891">
        <ele>237.4</ele>
        <time>2026-05-20T08:19:40Z</time>
      </trkpt>
      <trkpt lat="47.64158" lon="4.38894">
        <ele>237.4</ele>
        <time>2026-05-20T08:19:41Z</time>
      </trkpt>
      <trkpt lat="47.64159" lon="4.38896">
        <ele>237.6</ele>
        <time>2026-05-20T08:19:42Z</time>
      </trkpt>
      <trkpt lat="47.6416" lon="4.38898">
        <ele>237.8</ele>
        <time>2026-05-20T08:19:43Z</time>
      </trkpt>
      <trkpt lat="47.64162" lon="4.38899">
        <ele>237.6</ele>
        <time>2026-05-20T08:19:44Z</time>
      </trkpt>
      <trkpt lat="47.64163" lon="4.38901">
        <ele>238.2</ele>
        <time>2026-05-20T08:19:45Z</time>
      </trkpt>
      <trkpt lat="47.64164" lon="4.38902">
        <ele>238.4</ele>
        <time>2026-05-20T08:19:46Z</time>
      </trkpt>
      <trkpt lat="47.64165" lon="4.38904">
        <ele>238.4</ele>
        <time>2026-05-20T08:19:47Z</time>
      </trkpt>
      <trkpt lat="47.64166" lon="4.38906">
        <ele>238.4</ele>
        <time>2026-05-20T08:19:48Z</time>
      </trkpt>
      <trkpt lat="47.64167" lon="4.38907">
        <ele>238.6</ele>
        <time>2026-05-20T08:19:49Z</time>
      </trkpt>
      <trkpt lat="47.64168" lon="4.38909">
        <ele>239</ele>
        <time>2026-05-20T08:19:50Z</time>
      </trkpt>
      <trkpt lat="47.64169" lon="4.3891">
        <ele>239.2</ele>
        <time>2026-05-20T08:19:51Z</time>
      </trkpt>
      <trkpt lat="47.64169" lon="4.38912">
        <ele>239.4</ele>
        <time>2026-05-20T08:19:52Z</time>
      </trkpt>
      <trkpt lat="47.64169" lon="4.38912">
        <ele>239.4</ele>
        <time>2026-05-20T08:19:53Z</time>
      </trkpt>
      <trkpt lat="47.64169" lon="4.38912">
        <ele>239.6</ele>
        <time>2026-05-20T08:19:54Z</time>
      </trkpt>
      <trkpt lat="47.6417" lon="4.38913">
        <ele>239.8</ele>
        <time>2026-05-20T08:19:55Z</time>
      </trkpt>
      <trkpt lat="47.64172" lon="4.38915">
        <ele>240</ele>
        <time>2026-05-20T08:19:56Z</time>
      </trkpt>
      <trkpt lat="47.64174" lon="4.38917">
        <ele>240.4</ele>
        <time>2026-05-20T08:19:57Z</time>
      </trkpt>
      <trkpt lat="47.64177" lon="4.3892">
        <ele>240.8</ele>
        <time>2026-05-20T08:19:58Z</time>
      </trkpt>
      <trkpt lat="47.64179" lon="4.38921">
        <ele>241.4</ele>
        <time>2026-05-20T08:19:59Z</time>
      </trkpt>
      <trkpt lat="47.6418" lon="4.38923">
        <ele>241.4</ele>
        <time>2026-05-20T08:20:00Z</time>
      </trkpt>
      <trkpt lat="47.64181" lon="4.38925">
        <ele>241.8</ele>
        <time>2026-05-20T08:20:01Z</time>
      </trkpt>
      <trkpt lat="47.64182" lon="4.38927">
        <ele>242</ele>
        <time>2026-05-20T08:20:02Z</time>
      </trkpt>
      <trkpt lat="47.64184" lon="4.38929">
        <ele>242.2</ele>
        <time>2026-05-20T08:20:03Z</time>
      </trkpt>
      <trkpt lat="47.64187" lon="4.38931">
        <ele>242.4</ele>
        <time>2026-05-20T08:20:04Z</time>
      </trkpt>
      <trkpt lat="47.64188" lon="4.38934">
        <ele>242.8</ele>
        <time>2026-05-20T08:20:05Z</time>
      </trkpt>
      <trkpt lat="47.64189" lon="4.38936">
        <ele>243.2</ele>
        <time>2026-05-20T08:20:06Z</time>
      </trkpt>
      <trkpt lat="47.64191" lon="4.38938">
        <ele>243.8</ele>
        <time>2026-05-20T08:20:07Z</time>
      </trkpt>
      <trkpt lat="47.64193" lon="4.38941">
        <ele>244.2</ele>
        <time>2026-05-20T08:20:08Z</time>
      </trkpt>
      <trkpt lat="47.64193" lon="4.38943">
        <ele>244.4</ele>
        <time>2026-05-20T08:20:09Z</time>
      </trkpt>
      <trkpt lat="47.64195" lon="4.38945">
        <ele>244.8</ele>
        <time>2026-05-20T08:20:10Z</time>
      </trkpt>
      <trkpt lat="47.64196" lon="4.38948">
        <ele>244.8</ele>
        <time>2026-05-20T08:20:11Z</time>
      </trkpt>
      <trkpt lat="47.64198" lon="4.38949">
        <ele>245</ele>
        <time>2026-05-20T08:20:12Z</time>
      </trkpt>
      <trkpt lat="47.64199" lon="4.3895">
        <ele>245.2</ele>
        <time>2026-05-20T08:20:13Z</time>
      </trkpt>
      <trkpt lat="47.64201" lon="4.38951">
        <ele>245.8</ele>
        <time>2026-05-20T08:20:14Z</time>
      </trkpt>
      <trkpt lat="47.64204" lon="4.38954">
        <ele>246</ele>
        <time>2026-05-20T08:20:15Z</time>
      </trkpt>
      <trkpt lat="47.64204" lon="4.38957">
        <ele>246.2</ele>
        <time>2026-05-20T08:20:16Z</time>
      </trkpt>
      <trkpt lat="47.64206" lon="4.38958">
        <ele>246.4</ele>
        <time>2026-05-20T08:20:17Z</time>
      </trkpt>
      <trkpt lat="47.64208" lon="4.3896">
        <ele>246.6</ele>
        <time>2026-05-20T08:20:18Z</time>
      </trkpt>
      <trkpt lat="47.6421" lon="4.38963">
        <ele>246.8</ele>
        <time>2026-05-20T08:20:19Z</time>
      </trkpt>
      <trkpt lat="47.64211" lon="4.38964">
        <ele>247</ele>
        <time>2026-05-20T08:20:20Z</time>
      </trkpt>
      <trkpt lat="47.64212" lon="4.38966">
        <ele>247.4</ele>
        <time>2026-05-20T08:20:21Z</time>
      </trkpt>
      <trkpt lat="47.64213" lon="4.38967">
        <ele>247.4</ele>
        <time>2026-05-20T08:20:22Z</time>
      </trkpt>
      <trkpt lat="47.64214" lon="4.38969">
        <ele>247.8</ele>
        <time>2026-05-20T08:20:23Z</time>
      </trkpt>
      <trkpt lat="47.64214" lon="4.38969">
        <ele>248</ele>
        <time>2026-05-20T08:20:24Z</time>
      </trkpt>
      <trkpt lat="47.64214" lon="4.38971">
        <ele>248.2</ele>
        <time>2026-05-20T08:20:25Z</time>
      </trkpt>
      <trkpt lat="47.64214" lon="4.38972">
        <ele>248.2</ele>
        <time>2026-05-20T08:20:26Z</time>
      </trkpt>
      <trkpt lat="47.64218" lon="4.38975">
        <ele>248.4</ele>
        <time>2026-05-20T08:20:27Z</time>
      </trkpt>
      <trkpt lat="47.64219" lon="4.38976">
        <ele>248.8</ele>
        <time>2026-05-20T08:20:28Z</time>
      </trkpt>
      <trkpt lat="47.64222" lon="4.38978">
        <ele>249</ele>
        <time>2026-05-20T08:20:29Z</time>
      </trkpt>
      <trkpt lat="47.64223" lon="4.38979">
        <ele>249.2</ele>
        <time>2026-05-20T08:20:30Z</time>
      </trkpt>
      <trkpt lat="47.64225" lon="4.3898">
        <ele>249.4</ele>
        <time>2026-05-20T08:20:31Z</time>
      </trkpt>
      <trkpt lat="47.64225" lon="4.38982">
        <ele>249.8</ele>
        <time>2026-05-20T08:20:32Z</time>
      </trkpt>
      <trkpt lat="47.64226" lon="4.38983">
        <ele>250</ele>
        <time>2026-05-20T08:20:33Z</time>
      </trkpt>
      <trkpt lat="47.64227" lon="4.38984">
        <ele>250.4</ele>
        <time>2026-05-20T08:20:34Z</time>
      </trkpt>
      <trkpt lat="47.64228" lon="4.38986">
        <ele>250.8</ele>
        <time>2026-05-20T08:20:35Z</time>
      </trkpt>
      <trkpt lat="47.64228" lon="4.38988">
        <ele>250.8</ele>
        <time>2026-05-20T08:20:36Z</time>
      </trkpt>
      <trkpt lat="47.64229" lon="4.38988">
        <ele>251.2</ele>
        <time>2026-05-20T08:20:37Z</time>
      </trkpt>
      <trkpt lat="47.64231" lon="4.38989">
        <ele>251.2</ele>
        <time>2026-05-20T08:20:38Z</time>
      </trkpt>
      <trkpt lat="47.64232" lon="4.38989">
        <ele>251.4</ele>
        <time>2026-05-20T08:20:39Z</time>
      </trkpt>
      <trkpt lat="47.64233" lon="4.3899">
        <ele>251.6</ele>
        <time>2026-05-20T08:20:40Z</time>
      </trkpt>
      <trkpt lat="47.64233" lon="4.3899">
        <ele>251.6</ele>
        <time>2026-05-20T08:20:41Z</time>
      </trkpt>
      <trkpt lat="47.64233" lon="4.38991">
        <ele>251.8</ele>
        <time>2026-05-20T08:20:42Z</time>
      </trkpt>
      <trkpt lat="47.64234" lon="4.38991">
        <ele>252</ele>
        <time>2026-05-20T08:20:43Z</time>
      </trkpt>
      <trkpt lat="47.64234" lon="4.38991">
        <ele>252.2</ele>
        <time>2026-05-20T08:20:44Z</time>
      </trkpt>
      <trkpt lat="47.64235" lon="4.38993">
        <ele>252.4</ele>
        <time>2026-05-20T08:20:45Z</time>
      </trkpt>
      <trkpt lat="47.64236" lon="4.38994">
        <ele>252.6</ele>
        <time>2026-05-20T08:20:46Z</time>
      </trkpt>
      <trkpt lat="47.64238" lon="4.38996">
        <ele>252.6</ele>
        <time>2026-05-20T08:20:47Z</time>
      </trkpt>
      <trkpt lat="47.64241" lon="4.38998">
        <ele>252.8</ele>
        <time>2026-05-20T08:20:48Z</time>
      </trkpt>
      <trkpt lat="47.64242" lon="4.39">
        <ele>252.8</ele>
        <time>2026-05-20T08:20:49Z</time>
      </trkpt>
      <trkpt lat="47.64243" lon="4.39001">
        <ele>253.2</ele>
        <time>2026-05-20T08:20:50Z</time>
      </trkpt>
      <trkpt lat="47.64244" lon="4.39003">
        <ele>253.2</ele>
        <time>2026-05-20T08:20:51Z</time>
      </trkpt>
      <trkpt lat="47.64244" lon="4.39004">
        <ele>253.4</ele>
        <time>2026-05-20T08:20:52Z</time>
      </trkpt>
      <trkpt lat="47.64245" lon="4.39006">
        <ele>253.6</ele>
        <time>2026-05-20T08:20:53Z</time>
      </trkpt>
      <trkpt lat="47.64247" lon="4.39007">
        <ele>253.6</ele>
        <time>2026-05-20T08:20:54Z</time>
      </trkpt>
      <trkpt lat="47.64249" lon="4.39009">
        <ele>253.8</ele>
        <time>2026-05-20T08:20:55Z</time>
      </trkpt>
      <trkpt lat="47.6425" lon="4.3901">
        <ele>254</ele>
        <time>2026-05-20T08:20:56Z</time>
      </trkpt>
      <trkpt lat="47.64252" lon="4.39012">
        <ele>254.2</ele>
        <time>2026-05-20T08:20:57Z</time>
      </trkpt>
      <trkpt lat="47.64254" lon="4.39013">
        <ele>254.2</ele>
        <time>2026-05-20T08:20:58Z</time>
      </trkpt>
      <trkpt lat="47.64255" lon="4.39014">
        <ele>254.4</ele>
        <time>2026-05-20T08:20:59Z</time>
      </trkpt>
      <trkpt lat="47.64257" lon="4.39016">
        <ele>254.6</ele>
        <time>2026-05-20T08:21:00Z</time>
      </trkpt>
      <trkpt lat="47.64259" lon="4.39018">
        <ele>254.8</ele>
        <time>2026-05-20T08:21:01Z</time>
      </trkpt>
      <trkpt lat="47.64262" lon="4.3902">
        <ele>255.2</ele>
        <time>2026-05-20T08:21:02Z</time>
      </trkpt>
      <trkpt lat="47.64263" lon="4.39022">
        <ele>255.2</ele>
        <time>2026-05-20T08:21:03Z</time>
      </trkpt>
      <trkpt lat="47.64263" lon="4.39023">
        <ele>255.6</ele>
        <time>2026-05-20T08:21:04Z</time>
      </trkpt>
      <trkpt lat="47.64266" lon="4.39025">
        <ele>255.6</ele>
        <time>2026-05-20T08:21:05Z</time>
      </trkpt>
      <trkpt lat="47.64266" lon="4.39025">
        <ele>256</ele>
        <time>2026-05-20T08:21:06Z</time>
      </trkpt>
      <trkpt lat="47.64266" lon="4.39025">
        <ele>256</ele>
        <time>2026-05-20T08:21:07Z</time>
      </trkpt>
      <trkpt lat="47.64267" lon="4.39027">
        <ele>256.2</ele>
        <time>2026-05-20T08:21:08Z</time>
      </trkpt>
      <trkpt lat="47.64268" lon="4.39029">
        <ele>256.4</ele>
        <time>2026-05-20T08:21:09Z</time>
      </trkpt>
      <trkpt lat="47.6427" lon="4.39031">
        <ele>256.6</ele>
        <time>2026-05-20T08:21:10Z</time>
      </trkpt>
      <trkpt lat="47.64272" lon="4.39033">
        <ele>256.8</ele>
        <time>2026-05-20T08:21:11Z</time>
      </trkpt>
      <trkpt lat="47.64273" lon="4.39035">
        <ele>256.8</ele>
        <time>2026-05-20T08:21:12Z</time>
      </trkpt>
      <trkpt lat="47.64274" lon="4.39035">
        <ele>257</ele>
        <time>2026-05-20T08:21:13Z</time>
      </trkpt>
      <trkpt lat="47.64276" lon="4.39038">
        <ele>257</ele>
        <time>2026-05-20T08:21:14Z</time>
      </trkpt>
      <trkpt lat="47.64277" lon="4.39041">
        <ele>257.2</ele>
        <time>2026-05-20T08:21:15Z</time>
      </trkpt>
      <trkpt lat="47.64278" lon="4.39041">
        <ele>257.4</ele>
        <time>2026-05-20T08:21:16Z</time>
      </trkpt>
      <trkpt lat="47.64278" lon="4.39042">
        <ele>257.6</ele>
        <time>2026-05-20T08:21:17Z</time>
      </trkpt>
      <trkpt lat="47.64281" lon="4.39044">
        <ele>257.8</ele>
        <time>2026-05-20T08:21:18Z</time>
      </trkpt>
      <trkpt lat="47.64284" lon="4.39047">
        <ele>258</ele>
        <time>2026-05-20T08:21:19Z</time>
      </trkpt>
      <trkpt lat="47.64286" lon="4.39049">
        <ele>258.2</ele>
        <time>2026-05-20T08:21:20Z</time>
      </trkpt>
      <trkpt lat="47.64287" lon="4.39052">
        <ele>258.2</ele>
        <time>2026-05-20T08:21:21Z</time>
      </trkpt>
      <trkpt lat="47.64288" lon="4.39054">
        <ele>258.2</ele>
        <time>2026-05-20T08:21:22Z</time>
      </trkpt>
      <trkpt lat="47.64289" lon="4.39055">
        <ele>258.4</ele>
        <time>2026-05-20T08:21:23Z</time>
      </trkpt>
      <trkpt lat="47.6429" lon="4.39057">
        <ele>258.4</ele>
        <time>2026-05-20T08:21:24Z</time>
      </trkpt>
      <trkpt lat="47.64291" lon="4.39059">
        <ele>258.6</ele>
        <time>2026-05-20T08:21:25Z</time>
      </trkpt>
      <trkpt lat="47.64293" lon="4.39062">
        <ele>258.6</ele>
        <time>2026-05-20T08:21:26Z</time>
      </trkpt>
      <trkpt lat="47.64295" lon="4.39061">
        <ele>258.8</ele>
        <time>2026-05-20T08:21:27Z</time>
      </trkpt>
      <trkpt lat="47.64296" lon="4.39062">
        <ele>259.2</ele>
        <time>2026-05-20T08:21:28Z</time>
      </trkpt>
      <trkpt lat="47.64298" lon="4.39064">
        <ele>259.4</ele>
        <time>2026-05-20T08:21:29Z</time>
      </trkpt>
      <trkpt lat="47.64299" lon="4.39065">
        <ele>259.6</ele>
        <time>2026-05-20T08:21:30Z</time>
      </trkpt>
      <trkpt lat="47.643" lon="4.39065">
        <ele>259.6</ele>
        <time>2026-05-20T08:21:31Z</time>
      </trkpt>
      <trkpt lat="47.64302" lon="4.39067">
        <ele>259.6</ele>
        <time>2026-05-20T08:21:32Z</time>
      </trkpt>
      <trkpt lat="47.64304" lon="4.39069">
        <ele>259.8</ele>
        <time>2026-05-20T08:21:33Z</time>
      </trkpt>
      <trkpt lat="47.64306" lon="4.39071">
        <ele>260</ele>
        <time>2026-05-20T08:21:34Z</time>
      </trkpt>
      <trkpt lat="47.64308" lon="4.39074">
        <ele>260.4</ele>
        <time>2026-05-20T08:21:35Z</time>
      </trkpt>
      <trkpt lat="47.64309" lon="4.39076">
        <ele>260.6</ele>
        <time>2026-05-20T08:21:36Z</time>
      </trkpt>
      <trkpt lat="47.64309" lon="4.39078">
        <ele>260.6</ele>
        <time>2026-05-20T08:21:37Z</time>
      </trkpt>
      <trkpt lat="47.64309" lon="4.39081">
        <ele>261</ele>
        <time>2026-05-20T08:21:38Z</time>
      </trkpt>
      <trkpt lat="47.64311" lon="4.39082">
        <ele>261.2</ele>
        <time>2026-05-20T08:21:39Z</time>
      </trkpt>
      <trkpt lat="47.64314" lon="4.39085">
        <ele>261.4</ele>
        <time>2026-05-20T08:21:40Z</time>
      </trkpt>
      <trkpt lat="47.64315" lon="4.39087">
        <ele>261.4</ele>
        <time>2026-05-20T08:21:41Z</time>
      </trkpt>
      <trkpt lat="47.64316" lon="4.39089">
        <ele>261.6</ele>
        <time>2026-05-20T08:21:42Z</time>
      </trkpt>
      <trkpt lat="47.64316" lon="4.39091">
        <ele>261.8</ele>
        <time>2026-05-20T08:21:43Z</time>
      </trkpt>
      <trkpt lat="47.64317" lon="4.39093">
        <ele>262.2</ele>
        <time>2026-05-20T08:21:44Z</time>
      </trkpt>
      <trkpt lat="47.64318" lon="4.39095">
        <ele>262.4</ele>
        <time>2026-05-20T08:21:45Z</time>
      </trkpt>
      <trkpt lat="47.64319" lon="4.39097">
        <ele>262.8</ele>
        <time>2026-05-20T08:21:46Z</time>
      </trkpt>
      <trkpt lat="47.6432" lon="4.39098">
        <ele>263</ele>
        <time>2026-05-20T08:21:47Z</time>
      </trkpt>
      <trkpt lat="47.64322" lon="4.391">
        <ele>263</ele>
        <time>2026-05-20T08:21:48Z</time>
      </trkpt>
      <trkpt lat="47.64323" lon="4.39101">
        <ele>263.4</ele>
        <time>2026-05-20T08:21:49Z</time>
      </trkpt>
      <trkpt lat="47.64324" lon="4.39103">
        <ele>263.6</ele>
        <time>2026-05-20T08:21:50Z</time>
      </trkpt>
      <trkpt lat="47.64326" lon="4.39105">
        <ele>263.8</ele>
        <time>2026-05-20T08:21:51Z</time>
      </trkpt>
      <trkpt lat="47.64328" lon="4.39107">
        <ele>264</ele>
        <time>2026-05-20T08:21:52Z</time>
      </trkpt>
      <trkpt lat="47.6433" lon="4.39108">
        <ele>264.4</ele>
        <time>2026-05-20T08:21:53Z</time>
      </trkpt>
      <trkpt lat="47.6433" lon="4.3911">
        <ele>264.4</ele>
        <time>2026-05-20T08:21:54Z</time>
      </trkpt>
      <trkpt lat="47.64331" lon="4.39112">
        <ele>264.6</ele>
        <time>2026-05-20T08:21:55Z</time>
      </trkpt>
      <trkpt lat="47.64331" lon="4.39113">
        <ele>265</ele>
        <time>2026-05-20T08:21:56Z</time>
      </trkpt>
      <trkpt lat="47.64331" lon="4.39115">
        <ele>265.2</ele>
        <time>2026-05-20T08:21:57Z</time>
      </trkpt>
      <trkpt lat="47.64333" lon="4.39116">
        <ele>265.4</ele>
        <time>2026-05-20T08:21:58Z</time>
      </trkpt>
      <trkpt lat="47.64333" lon="4.39117">
        <ele>265.6</ele>
        <time>2026-05-20T08:21:59Z</time>
      </trkpt>
      <trkpt lat="47.64333" lon="4.39117">
        <ele>265.8</ele>
        <time>2026-05-20T08:22:00Z</time>
      </trkpt>
      <trkpt lat="47.64335" lon="4.39119">
        <ele>265.8</ele>
        <time>2026-05-20T08:22:01Z</time>
      </trkpt>
      <trkpt lat="47.64336" lon="4.3912">
        <ele>266</ele>
        <time>2026-05-20T08:22:02Z</time>
      </trkpt>
      <trkpt lat="47.64337" lon="4.39122">
        <ele>266.4</ele>
        <time>2026-05-20T08:22:03Z</time>
      </trkpt>
      <trkpt lat="47.64339" lon="4.39123">
        <ele>266.8</ele>
        <time>2026-05-20T08:22:04Z</time>
      </trkpt>
      <trkpt lat="47.64341" lon="4.39124">
        <ele>267.2</ele>
        <time>2026-05-20T08:22:05Z</time>
      </trkpt>
      <trkpt lat="47.64342" lon="4.39125">
        <ele>267.4</ele>
        <time>2026-05-20T08:22:06Z</time>
      </trkpt>
      <trkpt lat="47.64343" lon="4.39126">
        <ele>267.6</ele>
        <time>2026-05-20T08:22:07Z</time>
      </trkpt>
      <trkpt lat="47.64344" lon="4.39127">
        <ele>267.8</ele>
        <time>2026-05-20T08:22:08Z</time>
      </trkpt>
      <trkpt lat="47.64345" lon="4.39128">
        <ele>268.2</ele>
        <time>2026-05-20T08:22:09Z</time>
      </trkpt>
      <trkpt lat="47.64348" lon="4.39131">
        <ele>268.2</ele>
        <time>2026-05-20T08:22:10Z</time>
      </trkpt>
      <trkpt lat="47.64349" lon="4.39133">
        <ele>268.6</ele>
        <time>2026-05-20T08:22:11Z</time>
      </trkpt>
      <trkpt lat="47.64351" lon="4.39135">
        <ele>268.6</ele>
        <time>2026-05-20T08:22:12Z</time>
      </trkpt>
      <trkpt lat="47.64352" lon="4.39135">
        <ele>269</ele>
        <time>2026-05-20T08:22:13Z</time>
      </trkpt>
      <trkpt lat="47.64352" lon="4.39135">
        <ele>269.4</ele>
        <time>2026-05-20T08:22:14Z</time>
      </trkpt>
      <trkpt lat="47.64352" lon="4.39137">
        <ele>269.6</ele>
        <time>2026-05-20T08:22:15Z</time>
      </trkpt>
      <trkpt lat="47.64353" lon="4.39138">
        <ele>270</ele>
        <time>2026-05-20T08:22:16Z</time>
      </trkpt>
      <trkpt lat="47.64355" lon="4.39137">
        <ele>270.2</ele>
        <time>2026-05-20T08:22:17Z</time>
      </trkpt>
      <trkpt lat="47.64355" lon="4.39138">
        <ele>270.6</ele>
        <time>2026-05-20T08:22:18Z</time>
      </trkpt>
      <trkpt lat="47.64357" lon="4.39139">
        <ele>270.8</ele>
        <time>2026-05-20T08:22:19Z</time>
      </trkpt>
      <trkpt lat="47.64358" lon="4.39141">
        <ele>271</ele>
        <time>2026-05-20T08:22:20Z</time>
      </trkpt>
      <trkpt lat="47.64359" lon="4.39142">
        <ele>271</ele>
        <time>2026-05-20T08:22:21Z</time>
      </trkpt>
      <trkpt lat="47.6436" lon="4.39143">
        <ele>271.2</ele>
        <time>2026-05-20T08:22:22Z</time>
      </trkpt>
      <trkpt lat="47.6436" lon="4.39143">
        <ele>271.6</ele>
        <time>2026-05-20T08:22:23Z</time>
      </trkpt>
      <trkpt lat="47.64361" lon="4.39145">
        <ele>271.8</ele>
        <time>2026-05-20T08:22:24Z</time>
      </trkpt>
      <trkpt lat="47.64364" lon="4.39147">
        <ele>272.2</ele>
        <time>2026-05-20T08:22:25Z</time>
      </trkpt>
      <trkpt lat="47.64364" lon="4.39147">
        <ele>272.4</ele>
        <time>2026-05-20T08:22:26Z</time>
      </trkpt>
      <trkpt lat="47.64365" lon="4.39149">
        <ele>272.4</ele>
        <time>2026-05-20T08:22:27Z</time>
      </trkpt>
      <trkpt lat="47.64367" lon="4.39152">
        <ele>272.6</ele>
        <time>2026-05-20T08:22:28Z</time>
      </trkpt>
      <trkpt lat="47.64367" lon="4.39155">
        <ele>272.8</ele>
        <time>2026-05-20T08:22:29Z</time>
      </trkpt>
      <trkpt lat="47.64368" lon="4.39157">
        <ele>273</ele>
        <time>2026-05-20T08:22:30Z</time>
      </trkpt>
      <trkpt lat="47.64369" lon="4.39158">
        <ele>273.2</ele>
        <time>2026-05-20T08:22:31Z</time>
      </trkpt>
      <trkpt lat="47.6437" lon="4.39161">
        <ele>273.4</ele>
        <time>2026-05-20T08:22:32Z</time>
      </trkpt>
      <trkpt lat="47.64371" lon="4.39163">
        <ele>273.6</ele>
        <time>2026-05-20T08:22:33Z</time>
      </trkpt>
      <trkpt lat="47.64372" lon="4.39166">
        <ele>274</ele>
        <time>2026-05-20T08:22:34Z</time>
      </trkpt>
      <trkpt lat="47.64373" lon="4.39168">
        <ele>274</ele>
        <time>2026-05-20T08:22:35Z</time>
      </trkpt>
      <trkpt lat="47.64374" lon="4.3917">
        <ele>274.2</ele>
        <time>2026-05-20T08:22:36Z</time>
      </trkpt>
      <trkpt lat="47.64376" lon="4.39172">
        <ele>274.2</ele>
        <time>2026-05-20T08:22:37Z</time>
      </trkpt>
      <trkpt lat="47.64377" lon="4.39172">
        <ele>274.6</ele>
        <time>2026-05-20T08:22:38Z</time>
      </trkpt>
      <trkpt lat="47.64378" lon="4.39173">
        <ele>274.6</ele>
        <time>2026-05-20T08:22:39Z</time>
      </trkpt>
      <trkpt lat="47.64379" lon="4.39174">
        <ele>274.8</ele>
        <time>2026-05-20T08:22:40Z</time>
      </trkpt>
      <trkpt lat="47.64381" lon="4.39177">
        <ele>274.8</ele>
        <time>2026-05-20T08:22:41Z</time>
      </trkpt>
      <trkpt lat="47.64382" lon="4.39178">
        <ele>275</ele>
        <time>2026-05-20T08:22:42Z</time>
      </trkpt>
      <trkpt lat="47.64383" lon="4.39179">
        <ele>275.2</ele>
        <time>2026-05-20T08:22:43Z</time>
      </trkpt>
      <trkpt lat="47.64385" lon="4.3918">
        <ele>275.4</ele>
        <time>2026-05-20T08:22:44Z</time>
      </trkpt>
      <trkpt lat="47.64386" lon="4.39181">
        <ele>275.6</ele>
        <time>2026-05-20T08:22:45Z</time>
      </trkpt>
      <trkpt lat="47.64388" lon="4.39182">
        <ele>275.8</ele>
        <time>2026-05-20T08:22:46Z</time>
      </trkpt>
      <trkpt lat="47.64389" lon="4.39183">
        <ele>276</ele>
        <time>2026-05-20T08:22:47Z</time>
      </trkpt>
      <trkpt lat="47.6439" lon="4.39184">
        <ele>276.2</ele>
        <time>2026-05-20T08:22:48Z</time>
      </trkpt>
      <trkpt lat="47.6439" lon="4.39185">
        <ele>276.2</ele>
        <time>2026-05-20T08:22:49Z</time>
      </trkpt>
      <trkpt lat="47.6439" lon="4.39186">
        <ele>276.4</ele>
        <time>2026-05-20T08:22:50Z</time>
      </trkpt>
      <trkpt lat="47.6439" lon="4.39186">
        <ele>276.6</ele>
        <time>2026-05-20T08:22:51Z</time>
      </trkpt>
      <trkpt lat="47.6439" lon="4.39186">
        <ele>276.6</ele>
        <time>2026-05-20T08:22:52Z</time>
      </trkpt>
      <trkpt lat="47.64391" lon="4.39186">
        <ele>276.8</ele>
        <time>2026-05-20T08:22:53Z</time>
      </trkpt>
      <trkpt lat="47.64392" lon="4.39188">
        <ele>277</ele>
        <time>2026-05-20T08:22:54Z</time>
      </trkpt>
      <trkpt lat="47.64394" lon="4.3919">
        <ele>277</ele>
        <time>2026-05-20T08:22:55Z</time>
      </trkpt>
      <trkpt lat="47.64394" lon="4.39192">
        <ele>277.2</ele>
        <time>2026-05-20T08:22:56Z</time>
      </trkpt>
      <trkpt lat="47.64395" lon="4.39194">
        <ele>277.4</ele>
        <time>2026-05-20T08:22:57Z</time>
      </trkpt>
      <trkpt lat="47.64396" lon="4.39195">
        <ele>277.8</ele>
        <time>2026-05-20T08:22:58Z</time>
      </trkpt>
      <trkpt lat="47.64397" lon="4.39197">
        <ele>278.2</ele>
        <time>2026-05-20T08:22:59Z</time>
      </trkpt>
      <trkpt lat="47.64399" lon="4.39199">
        <ele>278.4</ele>
        <time>2026-05-20T08:23:00Z</time>
      </trkpt>
      <trkpt lat="47.64401" lon="4.39201">
        <ele>278.6</ele>
        <time>2026-05-20T08:23:01Z</time>
      </trkpt>
      <trkpt lat="47.64402" lon="4.39203">
        <ele>278.8</ele>
        <time>2026-05-20T08:23:02Z</time>
      </trkpt>
      <trkpt lat="47.64402" lon="4.39204">
        <ele>279</ele>
        <time>2026-05-20T08:23:03Z</time>
      </trkpt>
      <trkpt lat="47.64403" lon="4.39206">
        <ele>279.2</ele>
        <time>2026-05-20T08:23:04Z</time>
      </trkpt>
      <trkpt lat="47.64404" lon="4.39206">
        <ele>279.4</ele>
        <time>2026-05-20T08:23:05Z</time>
      </trkpt>
      <trkpt lat="47.64405" lon="4.39208">
        <ele>279.6</ele>
        <time>2026-05-20T08:23:06Z</time>
      </trkpt>
      <trkpt lat="47.64406" lon="4.39211">
        <ele>279.8</ele>
        <time>2026-05-20T08:23:07Z</time>
      </trkpt>
      <trkpt lat="47.64407" lon="4.39213">
        <ele>280</ele>
        <time>2026-05-20T08:23:08Z</time>
      </trkpt>
      <trkpt lat="47.64409" lon="4.39216">
        <ele>280.2</ele>
        <time>2026-05-20T08:23:09Z</time>
      </trkpt>
      <trkpt lat="47.6441" lon="4.39219">
        <ele>280.4</ele>
        <time>2026-05-20T08:23:10Z</time>
      </trkpt>
      <trkpt lat="47.64411" lon="4.3922">
        <ele>280.6</ele>
        <time>2026-05-20T08:23:11Z</time>
      </trkpt>
      <trkpt lat="47.64413" lon="4.39222">
        <ele>280.8</ele>
        <time>2026-05-20T08:23:12Z</time>
      </trkpt>
      <trkpt lat="47.64414" lon="4.39224">
        <ele>281</ele>
        <time>2026-05-20T08:23:13Z</time>
      </trkpt>
      <trkpt lat="47.64416" lon="4.39226">
        <ele>281.4</ele>
        <time>2026-05-20T08:23:14Z</time>
      </trkpt>
      <trkpt lat="47.64417" lon="4.39228">
        <ele>281.4</ele>
        <time>2026-05-20T08:23:15Z</time>
      </trkpt>
      <trkpt lat="47.64419" lon="4.39231">
        <ele>281.8</ele>
        <time>2026-05-20T08:23:16Z</time>
      </trkpt>
      <trkpt lat="47.64421" lon="4.39232">
        <ele>282</ele>
        <time>2026-05-20T08:23:17Z</time>
      </trkpt>
      <trkpt lat="47.64421" lon="4.39233">
        <ele>282.2</ele>
        <time>2026-05-20T08:23:18Z</time>
      </trkpt>
      <trkpt lat="47.64422" lon="4.39235">
        <ele>282.4</ele>
        <time>2026-05-20T08:23:19Z</time>
      </trkpt>
      <trkpt lat="47.64424" lon="4.39238">
        <ele>282.6</ele>
        <time>2026-05-20T08:23:20Z</time>
      </trkpt>
      <trkpt lat="47.64425" lon="4.3924">
        <ele>282.8</ele>
        <time>2026-05-20T08:23:21Z</time>
      </trkpt>
      <trkpt lat="47.64426" lon="4.39243">
        <ele>283</ele>
        <time>2026-05-20T08:23:22Z</time>
      </trkpt>
      <trkpt lat="47.64428" lon="4.39245">
        <ele>283.2</ele>
        <time>2026-05-20T08:23:23Z</time>
      </trkpt>
      <trkpt lat="47.64429" lon="4.39248">
        <ele>283.4</ele>
        <time>2026-05-20T08:23:24Z</time>
      </trkpt>
      <trkpt lat="47.64429" lon="4.39251">
        <ele>283.6</ele>
        <time>2026-05-20T08:23:25Z</time>
      </trkpt>
      <trkpt lat="47.6443" lon="4.39253">
        <ele>283.8</ele>
        <time>2026-05-20T08:23:26Z</time>
      </trkpt>
      <trkpt lat="47.64431" lon="4.39256">
        <ele>283.8</ele>
        <time>2026-05-20T08:23:27Z</time>
      </trkpt>
      <trkpt lat="47.64432" lon="4.39257">
        <ele>284</ele>
        <time>2026-05-20T08:23:28Z</time>
      </trkpt>
      <trkpt lat="47.64433" lon="4.3926">
        <ele>284.2</ele>
        <time>2026-05-20T08:23:29Z</time>
      </trkpt>
      <trkpt lat="47.64435" lon="4.39262">
        <ele>284.4</ele>
        <time>2026-05-20T08:23:30Z</time>
      </trkpt>
      <trkpt lat="47.64436" lon="4.39264">
        <ele>284.4</ele>
        <time>2026-05-20T08:23:31Z</time>
      </trkpt>
      <trkpt lat="47.64438" lon="4.39266">
        <ele>284.6</ele>
        <time>2026-05-20T08:23:32Z</time>
      </trkpt>
      <trkpt lat="47.64439" lon="4.39266">
        <ele>284.8</ele>
        <time>2026-05-20T08:23:33Z</time>
      </trkpt>
      <trkpt lat="47.6444" lon="4.39267">
        <ele>284.8</ele>
        <time>2026-05-20T08:23:34Z</time>
      </trkpt>
      <trkpt lat="47.64441" lon="4.39269">
        <ele>285</ele>
        <time>2026-05-20T08:23:35Z</time>
      </trkpt>
      <trkpt lat="47.64442" lon="4.39271">
        <ele>285</ele>
        <time>2026-05-20T08:23:36Z</time>
      </trkpt>
      <trkpt lat="47.64442" lon="4.39273">
        <ele>285.2</ele>
        <time>2026-05-20T08:23:37Z</time>
      </trkpt>
      <trkpt lat="47.64442" lon="4.39274">
        <ele>285.4</ele>
        <time>2026-05-20T08:23:38Z</time>
      </trkpt>
      <trkpt lat="47.64442" lon="4.39276">
        <ele>285.6</ele>
        <time>2026-05-20T08:23:39Z</time>
      </trkpt>
      <trkpt lat="47.64443" lon="4.39278">
        <ele>285.6</ele>
        <time>2026-05-20T08:23:40Z</time>
      </trkpt>
      <trkpt lat="47.64444" lon="4.3928">
        <ele>285.8</ele>
        <time>2026-05-20T08:23:41Z</time>
      </trkpt>
      <trkpt lat="47.64445" lon="4.39281">
        <ele>285.8</ele>
        <time>2026-05-20T08:23:42Z</time>
      </trkpt>
      <trkpt lat="47.64446" lon="4.39283">
        <ele>285.8</ele>
        <time>2026-05-20T08:23:43Z</time>
      </trkpt>
      <trkpt lat="47.64448" lon="4.39285">
        <ele>286</ele>
        <time>2026-05-20T08:23:44Z</time>
      </trkpt>
      <trkpt lat="47.64449" lon="4.39287">
        <ele>286</ele>
        <time>2026-05-20T08:23:45Z</time>
      </trkpt>
      <trkpt lat="47.64451" lon="4.39289">
        <ele>286.4</ele>
        <time>2026-05-20T08:23:46Z</time>
      </trkpt>
      <trkpt lat="47.64452" lon="4.39291">
        <ele>286.6</ele>
        <time>2026-05-20T08:23:47Z</time>
      </trkpt>
      <trkpt lat="47.64453" lon="4.39293">
        <ele>286.6</ele>
        <time>2026-05-20T08:23:48Z</time>
      </trkpt>
      <trkpt lat="47.64454" lon="4.39295">
        <ele>286.8</ele>
        <time>2026-05-20T08:23:49Z</time>
      </trkpt>
      <trkpt lat="47.64456" lon="4.39297">
        <ele>286.8</ele>
        <time>2026-05-20T08:23:50Z</time>
      </trkpt>
      <trkpt lat="47.64456" lon="4.39299">
        <ele>286.8</ele>
        <time>2026-05-20T08:23:51Z</time>
      </trkpt>
      <trkpt lat="47.64457" lon="4.393">
        <ele>286.8</ele>
        <time>2026-05-20T08:23:52Z</time>
      </trkpt>
      <trkpt lat="47.64458" lon="4.39302">
        <ele>287</ele>
        <time>2026-05-20T08:23:53Z</time>
      </trkpt>
      <trkpt lat="47.64459" lon="4.39303">
        <ele>287</ele>
        <time>2026-05-20T08:23:54Z</time>
      </trkpt>
      <trkpt lat="47.64461" lon="4.39305">
        <ele>287</ele>
        <time>2026-05-20T08:23:55Z</time>
      </trkpt>
      <trkpt lat="47.64463" lon="4.39307">
        <ele>287</ele>
        <time>2026-05-20T08:23:56Z</time>
      </trkpt>
      <trkpt lat="47.64464" lon="4.39309">
        <ele>287.2</ele>
        <time>2026-05-20T08:23:57Z</time>
      </trkpt>
      <trkpt lat="47.64466" lon="4.39311">
        <ele>287.2</ele>
        <time>2026-05-20T08:23:58Z</time>
      </trkpt>
      <trkpt lat="47.64467" lon="4.39312">
        <ele>287.4</ele>
        <time>2026-05-20T08:23:59Z</time>
      </trkpt>
      <trkpt lat="47.64469" lon="4.39315">
        <ele>287.4</ele>
        <time>2026-05-20T08:24:00Z</time>
      </trkpt>
      <trkpt lat="47.64471" lon="4.39318">
        <ele>287.6</ele>
        <time>2026-05-20T08:24:01Z</time>
      </trkpt>
      <trkpt lat="47.64473" lon="4.39321">
        <ele>287.6</ele>
        <time>2026-05-20T08:24:02Z</time>
      </trkpt>
      <trkpt lat="47.64475" lon="4.39323">
        <ele>287.6</ele>
        <time>2026-05-20T08:24:03Z</time>
      </trkpt>
      <trkpt lat="47.64477" lon="4.39326">
        <ele>287.8</ele>
        <time>2026-05-20T08:24:04Z</time>
      </trkpt>
      <trkpt lat="47.64479" lon="4.39328">
        <ele>287.8</ele>
        <time>2026-05-20T08:24:05Z</time>
      </trkpt>
      <trkpt lat="47.64483" lon="4.39334">
        <ele>287.8</ele>
        <time>2026-05-20T08:24:06Z</time>
      </trkpt>
      <trkpt lat="47.64483" lon="4.39334">
        <ele>287.8</ele>
        <time>2026-05-20T08:24:07Z</time>
      </trkpt>
      <trkpt lat="47.64485" lon="4.39338">
        <ele>287.8</ele>
        <time>2026-05-20T08:24:08Z</time>
      </trkpt>
      <trkpt lat="47.64487" lon="4.39341">
        <ele>287.8</ele>
        <time>2026-05-20T08:24:09Z</time>
      </trkpt>
      <trkpt lat="47.64491" lon="4.39347">
        <ele>288</ele>
        <time>2026-05-20T08:24:10Z</time>
      </trkpt>
      <trkpt lat="47.64492" lon="4.3935">
        <ele>288</ele>
        <time>2026-05-20T08:24:11Z</time>
      </trkpt>
      <trkpt lat="47.64494" lon="4.39354">
        <ele>288.2</ele>
        <time>2026-05-20T08:24:12Z</time>
      </trkpt>
      <trkpt lat="47.64494" lon="4.39354">
        <ele>288.2</ele>
        <time>2026-05-20T08:24:13Z</time>
      </trkpt>
      <trkpt lat="47.64497" lon="4.39359">
        <ele>288.4</ele>
        <time>2026-05-20T08:24:14Z</time>
      </trkpt>
      <trkpt lat="47.645" lon="4.39363">
        <ele>288.4</ele>
        <time>2026-05-20T08:24:15Z</time>
      </trkpt>
      <trkpt lat="47.64505" lon="4.39369">
        <ele>288.2</ele>
        <time>2026-05-20T08:24:16Z</time>
      </trkpt>
      <trkpt lat="47.64505" lon="4.39369">
        <ele>288.4</ele>
        <time>2026-05-20T08:24:17Z</time>
      </trkpt>
      <trkpt lat="47.64507" lon="4.39372">
        <ele>288.4</ele>
        <time>2026-05-20T08:24:18Z</time>
      </trkpt>
      <trkpt lat="47.64509" lon="4.39375">
        <ele>288.4</ele>
        <time>2026-05-20T08:24:19Z</time>
      </trkpt>
      <trkpt lat="47.64512" lon="4.39381">
        <ele>288.6</ele>
        <time>2026-05-20T08:24:20Z</time>
      </trkpt>
      <trkpt lat="47.64516" lon="4.39386">
        <ele>288.6</ele>
        <time>2026-05-20T08:24:21Z</time>
      </trkpt>
      <trkpt lat="47.64516" lon="4.39386">
        <ele>288.8</ele>
        <time>2026-05-20T08:24:22Z</time>
      </trkpt>
      <trkpt lat="47.64518" lon="4.39388">
        <ele>288.8</ele>
        <time>2026-05-20T08:24:23Z</time>
      </trkpt>
      <trkpt lat="47.64521" lon="4.39393">
        <ele>288.8</ele>
        <time>2026-05-20T08:24:24Z</time>
      </trkpt>
      <trkpt lat="47.64526" lon="4.394">
        <ele>288.8</ele>
        <time>2026-05-20T08:24:25Z</time>
      </trkpt>
      <trkpt lat="47.64526" lon="4.39404">
        <ele>289</ele>
        <time>2026-05-20T08:24:26Z</time>
      </trkpt>
      <trkpt lat="47.64526" lon="4.39404">
        <ele>289</ele>
        <time>2026-05-20T08:24:27Z</time>
      </trkpt>
      <trkpt lat="47.64529" lon="4.39411">
        <ele>289</ele>
        <time>2026-05-20T08:24:28Z</time>
      </trkpt>
      <trkpt lat="47.64529" lon="4.39416">
        <ele>289</ele>
        <time>2026-05-20T08:24:29Z</time>
      </trkpt>
      <trkpt lat="47.6453" lon="4.39419">
        <ele>289.2</ele>
        <time>2026-05-20T08:24:30Z</time>
      </trkpt>
      <trkpt lat="47.64532" lon="4.39422">
        <ele>289.2</ele>
        <time>2026-05-20T08:24:31Z</time>
      </trkpt>
      <trkpt lat="47.64532" lon="4.39422">
        <ele>289.2</ele>
        <time>2026-05-20T08:24:32Z</time>
      </trkpt>
      <trkpt lat="47.64537" lon="4.39429">
        <ele>289.4</ele>
        <time>2026-05-20T08:24:33Z</time>
      </trkpt>
      <trkpt lat="47.64539" lon="4.39432">
        <ele>289.4</ele>
        <time>2026-05-20T08:24:34Z</time>
      </trkpt>
      <trkpt lat="47.6454" lon="4.39437">
        <ele>289.4</ele>
        <time>2026-05-20T08:24:35Z</time>
      </trkpt>
      <trkpt lat="47.6454" lon="4.39437">
        <ele>289.6</ele>
        <time>2026-05-20T08:24:36Z</time>
      </trkpt>
      <trkpt lat="47.6454" lon="4.3944">
        <ele>289.6</ele>
        <time>2026-05-20T08:24:37Z</time>
      </trkpt>
      <trkpt lat="47.64542" lon="4.39448">
        <ele>289.8</ele>
        <time>2026-05-20T08:24:38Z</time>
      </trkpt>
      <trkpt lat="47.64544" lon="4.39451">
        <ele>289.8</ele>
        <time>2026-05-20T08:24:39Z</time>
      </trkpt>
      <trkpt lat="47.64546" lon="4.39455">
        <ele>289.8</ele>
        <time>2026-05-20T08:24:40Z</time>
      </trkpt>
      <trkpt lat="47.64547" lon="4.39458">
        <ele>289.8</ele>
        <time>2026-05-20T08:24:41Z</time>
      </trkpt>
      <trkpt lat="47.64547" lon="4.39458">
        <ele>290</ele>
        <time>2026-05-20T08:24:42Z</time>
      </trkpt>
      <trkpt lat="47.64552" lon="4.39463">
        <ele>290</ele>
        <time>2026-05-20T08:24:43Z</time>
      </trkpt>
      <trkpt lat="47.64555" lon="4.39465">
        <ele>290.2</ele>
        <time>2026-05-20T08:24:44Z</time>
      </trkpt>
      <trkpt lat="47.64556" lon="4.39467">
        <ele>290.2</ele>
        <time>2026-05-20T08:24:45Z</time>
      </trkpt>
      <trkpt lat="47.64557" lon="4.39469">
        <ele>290.4</ele>
        <time>2026-05-20T08:24:46Z</time>
      </trkpt>
      <trkpt lat="47.64557" lon="4.39469">
        <ele>290.4</ele>
        <time>2026-05-20T08:24:47Z</time>
      </trkpt>
      <trkpt lat="47.64562" lon="4.39473">
        <ele>290.4</ele>
        <time>2026-05-20T08:24:48Z</time>
      </trkpt>
      <trkpt lat="47.64565" lon="4.39474">
        <ele>290.6</ele>
        <time>2026-05-20T08:24:49Z</time>
      </trkpt>
      <trkpt lat="47.64567" lon="4.39478">
        <ele>290.6</ele>
        <time>2026-05-20T08:24:50Z</time>
      </trkpt>
      <trkpt lat="47.64567" lon="4.39478">
        <ele>290.6</ele>
        <time>2026-05-20T08:24:51Z</time>
      </trkpt>
      <trkpt lat="47.6457" lon="4.39481">
        <ele>290.6</ele>
        <time>2026-05-20T08:24:52Z</time>
      </trkpt>
      <trkpt lat="47.64573" lon="4.39487">
        <ele>290.8</ele>
        <time>2026-05-20T08:24:53Z</time>
      </trkpt>
      <trkpt lat="47.64575" lon="4.3949">
        <ele>290.8</ele>
        <time>2026-05-20T08:24:54Z</time>
      </trkpt>
      <trkpt lat="47.64577" lon="4.39492">
        <ele>291</ele>
        <time>2026-05-20T08:24:55Z</time>
      </trkpt>
      <trkpt lat="47.64581" lon="4.39494">
        <ele>291</ele>
        <time>2026-05-20T08:24:56Z</time>
      </trkpt>
      <trkpt lat="47.64581" lon="4.39494">
        <ele>291</ele>
        <time>2026-05-20T08:24:57Z</time>
      </trkpt>
      <trkpt lat="47.64587" lon="4.39501">
        <ele>291</ele>
        <time>2026-05-20T08:24:58Z</time>
      </trkpt>
      <trkpt lat="47.64587" lon="4.39501">
        <ele>291</ele>
        <time>2026-05-20T08:24:59Z</time>
      </trkpt>
      <trkpt lat="47.64593" lon="4.39506">
        <ele>291</ele>
        <time>2026-05-20T08:25:00Z</time>
      </trkpt>
      <trkpt lat="47.64595" lon="4.3951">
        <ele>291</ele>
        <time>2026-05-20T08:25:01Z</time>
      </trkpt>
      <trkpt lat="47.64595" lon="4.3951">
        <ele>291</ele>
        <time>2026-05-20T08:25:02Z</time>
      </trkpt>
      <trkpt lat="47.64599" lon="4.39518">
        <ele>291.2</ele>
        <time>2026-05-20T08:25:03Z</time>
      </trkpt>
      <trkpt lat="47.646" lon="4.39521">
        <ele>291.2</ele>
        <time>2026-05-20T08:25:04Z</time>
      </trkpt>
      <trkpt lat="47.64603" lon="4.39524">
        <ele>291.2</ele>
        <time>2026-05-20T08:25:05Z</time>
      </trkpt>
      <trkpt lat="47.64606" lon="4.39528">
        <ele>291.2</ele>
        <time>2026-05-20T08:25:06Z</time>
      </trkpt>
      <trkpt lat="47.64606" lon="4.39528">
        <ele>291.4</ele>
        <time>2026-05-20T08:25:07Z</time>
      </trkpt>
      <trkpt lat="47.64608" lon="4.39534">
        <ele>291.4</ele>
        <time>2026-05-20T08:25:08Z</time>
      </trkpt>
      <trkpt lat="47.64608" lon="4.39536">
        <ele>291.4</ele>
        <time>2026-05-20T08:25:09Z</time>
      </trkpt>
      <trkpt lat="47.64609" lon="4.39539">
        <ele>291.6</ele>
        <time>2026-05-20T08:25:10Z</time>
      </trkpt>
      <trkpt lat="47.6461" lon="4.39541">
        <ele>291.6</ele>
        <time>2026-05-20T08:25:11Z</time>
      </trkpt>
      <trkpt lat="47.64612" lon="4.39543">
        <ele>291.8</ele>
        <time>2026-05-20T08:25:12Z</time>
      </trkpt>
      <trkpt lat="47.64613" lon="4.39546">
        <ele>291.8</ele>
        <time>2026-05-20T08:25:13Z</time>
      </trkpt>
      <trkpt lat="47.64613" lon="4.39548">
        <ele>292</ele>
        <time>2026-05-20T08:25:14Z</time>
      </trkpt>
      <trkpt lat="47.64616" lon="4.39552">
        <ele>292.2</ele>
        <time>2026-05-20T08:25:15Z</time>
      </trkpt>
      <trkpt lat="47.64616" lon="4.39554">
        <ele>292.4</ele>
        <time>2026-05-20T08:25:16Z</time>
      </trkpt>
      <trkpt lat="47.64617" lon="4.39558">
        <ele>292.4</ele>
        <time>2026-05-20T08:25:17Z</time>
      </trkpt>
      <trkpt lat="47.64618" lon="4.39561">
        <ele>292.6</ele>
        <time>2026-05-20T08:25:18Z</time>
      </trkpt>
      <trkpt lat="47.64619" lon="4.39563">
        <ele>292.6</ele>
        <time>2026-05-20T08:25:19Z</time>
      </trkpt>
      <trkpt lat="47.64619" lon="4.39565">
        <ele>292.8</ele>
        <time>2026-05-20T08:25:20Z</time>
      </trkpt>
      <trkpt lat="47.64619" lon="4.39565">
        <ele>292.8</ele>
        <time>2026-05-20T08:25:21Z</time>
      </trkpt>
      <trkpt lat="47.64623" lon="4.39571">
        <ele>293</ele>
        <time>2026-05-20T08:25:22Z</time>
      </trkpt>
      <trkpt lat="47.64626" lon="4.39574">
        <ele>293.2</ele>
        <time>2026-05-20T08:25:23Z</time>
      </trkpt>
      <trkpt lat="47.64628" lon="4.39576">
        <ele>293.2</ele>
        <time>2026-05-20T08:25:24Z</time>
      </trkpt>
      <trkpt lat="47.64629" lon="4.39579">
        <ele>293.2</ele>
        <time>2026-05-20T08:25:25Z</time>
      </trkpt>
      <trkpt lat="47.6463" lon="4.39583">
        <ele>293.2</ele>
        <time>2026-05-20T08:25:26Z</time>
      </trkpt>
      <trkpt lat="47.64632" lon="4.39586">
        <ele>293.2</ele>
        <time>2026-05-20T08:25:27Z</time>
      </trkpt>
      <trkpt lat="47.64634" lon="4.3959">
        <ele>293.4</ele>
        <time>2026-05-20T08:25:28Z</time>
      </trkpt>
      <trkpt lat="47.64636" lon="4.39593">
        <ele>293.4</ele>
        <time>2026-05-20T08:25:29Z</time>
      </trkpt>
      <trkpt lat="47.64637" lon="4.39596">
        <ele>293.4</ele>
        <time>2026-05-20T08:25:30Z</time>
      </trkpt>
      <trkpt lat="47.64639" lon="4.39601">
        <ele>293.4</ele>
        <time>2026-05-20T08:25:31Z</time>
      </trkpt>
      <trkpt lat="47.64641" lon="4.39604">
        <ele>293.6</ele>
        <time>2026-05-20T08:25:32Z</time>
      </trkpt>
      <trkpt lat="47.64642" lon="4.39607">
        <ele>293.6</ele>
        <time>2026-05-20T08:25:33Z</time>
      </trkpt>
      <trkpt lat="47.64642" lon="4.39607">
        <ele>293.6</ele>
        <time>2026-05-20T08:25:34Z</time>
      </trkpt>
      <trkpt lat="47.64645" lon="4.3961">
        <ele>293.6</ele>
        <time>2026-05-20T08:25:35Z</time>
      </trkpt>
      <trkpt lat="47.64646" lon="4.39612">
        <ele>293.8</ele>
        <time>2026-05-20T08:25:36Z</time>
      </trkpt>
      <trkpt lat="47.64647" lon="4.39615">
        <ele>293.8</ele>
        <time>2026-05-20T08:25:37Z</time>
      </trkpt>
      <trkpt lat="47.64647" lon="4.39615">
        <ele>293.8</ele>
        <time>2026-05-20T08:25:38Z</time>
      </trkpt>
      <trkpt lat="47.64651" lon="4.39617">
        <ele>293.8</ele>
        <time>2026-05-20T08:25:39Z</time>
      </trkpt>
      <trkpt lat="47.64654" lon="4.39618">
        <ele>293.8</ele>
        <time>2026-05-20T08:25:40Z</time>
      </trkpt>
      <trkpt lat="47.64654" lon="4.39618">
        <ele>293.8</ele>
        <time>2026-05-20T08:25:41Z</time>
      </trkpt>
      <trkpt lat="47.6466" lon="4.39619">
        <ele>293.8</ele>
        <time>2026-05-20T08:25:42Z</time>
      </trkpt>
      <trkpt lat="47.64661" lon="4.39622">
        <ele>293.8</ele>
        <time>2026-05-20T08:25:43Z</time>
      </trkpt>
      <trkpt lat="47.64664" lon="4.39624">
        <ele>293.8</ele>
        <time>2026-05-20T08:25:44Z</time>
      </trkpt>
      <trkpt lat="47.64666" lon="4.39625">
        <ele>293.8</ele>
        <time>2026-05-20T08:25:45Z</time>
      </trkpt>
      <trkpt lat="47.64666" lon="4.39625">
        <ele>293.8</ele>
        <time>2026-05-20T08:25:46Z</time>
      </trkpt>
      <trkpt lat="47.6467" lon="4.39627">
        <ele>293.6</ele>
        <time>2026-05-20T08:25:47Z</time>
      </trkpt>
      <trkpt lat="47.64672" lon="4.39629">
        <ele>293.6</ele>
        <time>2026-05-20T08:25:48Z</time>
      </trkpt>
      <trkpt lat="47.64673" lon="4.39631">
        <ele>293.6</ele>
        <time>2026-05-20T08:25:49Z</time>
      </trkpt>
      <trkpt lat="47.64676" lon="4.39632">
        <ele>293.4</ele>
        <time>2026-05-20T08:25:50Z</time>
      </trkpt>
      <trkpt lat="47.6468" lon="4.39633">
        <ele>293.4</ele>
        <time>2026-05-20T08:25:51Z</time>
      </trkpt>
      <trkpt lat="47.64684" lon="4.39634">
        <ele>293.4</ele>
        <time>2026-05-20T08:25:52Z</time>
      </trkpt>
      <trkpt lat="47.64689" lon="4.39635">
        <ele>293.2</ele>
        <time>2026-05-20T08:25:53Z</time>
      </trkpt>
      <trkpt lat="47.64692" lon="4.39637">
        <ele>293.2</ele>
        <time>2026-05-20T08:25:54Z</time>
      </trkpt>
      <trkpt lat="47.64694" lon="4.39638">
        <ele>293.2</ele>
        <time>2026-05-20T08:25:55Z</time>
      </trkpt>
      <trkpt lat="47.64696" lon="4.39639">
        <ele>293</ele>
        <time>2026-05-20T08:25:56Z</time>
      </trkpt>
      <trkpt lat="47.64699" lon="4.3964">
        <ele>292.8</ele>
        <time>2026-05-20T08:25:57Z</time>
      </trkpt>
      <trkpt lat="47.64702" lon="4.39643">
        <ele>293</ele>
        <time>2026-05-20T08:25:58Z</time>
      </trkpt>
      <trkpt lat="47.64708" lon="4.39645">
        <ele>292.8</ele>
        <time>2026-05-20T08:25:59Z</time>
      </trkpt>
      <trkpt lat="47.64708" lon="4.39645">
        <ele>292.6</ele>
        <time>2026-05-20T08:26:00Z</time>
      </trkpt>
      <trkpt lat="47.64716" lon="4.39649">
        <ele>292.8</ele>
        <time>2026-05-20T08:26:01Z</time>
      </trkpt>
      <trkpt lat="47.64719" lon="4.39651">
        <ele>292.8</ele>
        <time>2026-05-20T08:26:02Z</time>
      </trkpt>
      <trkpt lat="47.64722" lon="4.39652">
        <ele>292.6</ele>
        <time>2026-05-20T08:26:03Z</time>
      </trkpt>
      <trkpt lat="47.64724" lon="4.39653">
        <ele>292</ele>
        <time>2026-05-20T08:26:04Z</time>
      </trkpt>
      <trkpt lat="47.64728" lon="4.39654">
        <ele>291.8</ele>
        <time>2026-05-20T08:26:05Z</time>
      </trkpt>
      <trkpt lat="47.64728" lon="4.39654">
        <ele>291.6</ele>
        <time>2026-05-20T08:26:06Z</time>
      </trkpt>
      <trkpt lat="47.64735" lon="4.39656">
        <ele>291.4</ele>
        <time>2026-05-20T08:26:07Z</time>
      </trkpt>
      <trkpt lat="47.64735" lon="4.39656">
        <ele>291.2</ele>
        <time>2026-05-20T08:26:08Z</time>
      </trkpt>
      <trkpt lat="47.64741" lon="4.3966">
        <ele>291.2</ele>
        <time>2026-05-20T08:26:09Z</time>
      </trkpt>
      <trkpt lat="47.64744" lon="4.39661">
        <ele>291</ele>
        <time>2026-05-20T08:26:10Z</time>
      </trkpt>
      <trkpt lat="47.64747" lon="4.39662">
        <ele>290.8</ele>
        <time>2026-05-20T08:26:11Z</time>
      </trkpt>
      <trkpt lat="47.64751" lon="4.39664">
        <ele>290.6</ele>
        <time>2026-05-20T08:26:12Z</time>
      </trkpt>
      <trkpt lat="47.64754" lon="4.39665">
        <ele>290.6</ele>
        <time>2026-05-20T08:26:13Z</time>
      </trkpt>
      <trkpt lat="47.64757" lon="4.39665">
        <ele>290.4</ele>
        <time>2026-05-20T08:26:14Z</time>
      </trkpt>
      <trkpt lat="47.64759" lon="4.39666">
        <ele>290.2</ele>
        <time>2026-05-20T08:26:15Z</time>
      </trkpt>
      <trkpt lat="47.64759" lon="4.39666">
        <ele>290</ele>
        <time>2026-05-20T08:26:16Z</time>
      </trkpt>
      <trkpt lat="47.64764" lon="4.39668">
        <ele>289.4</ele>
        <time>2026-05-20T08:26:17Z</time>
      </trkpt>
      <trkpt lat="47.64767" lon="4.3967">
        <ele>289.2</ele>
        <time>2026-05-20T08:26:18Z</time>
      </trkpt>
      <trkpt lat="47.64771" lon="4.39671">
        <ele>289</ele>
        <time>2026-05-20T08:26:19Z</time>
      </trkpt>
      <trkpt lat="47.64774" lon="4.39672">
        <ele>288.8</ele>
        <time>2026-05-20T08:26:20Z</time>
      </trkpt>
      <trkpt lat="47.64774" lon="4.39672">
        <ele>288.2</ele>
        <time>2026-05-20T08:26:21Z</time>
      </trkpt>
      <trkpt lat="47.64782" lon="4.39675">
        <ele>288.2</ele>
        <time>2026-05-20T08:26:22Z</time>
      </trkpt>
      <trkpt lat="47.64784" lon="4.39676">
        <ele>287.6</ele>
        <time>2026-05-20T08:26:23Z</time>
      </trkpt>
      <trkpt lat="47.64787" lon="4.39677">
        <ele>287.2</ele>
        <time>2026-05-20T08:26:24Z</time>
      </trkpt>
      <trkpt lat="47.6479" lon="4.39679">
        <ele>286.8</ele>
        <time>2026-05-20T08:26:25Z</time>
      </trkpt>
      <trkpt lat="47.6479" lon="4.39679">
        <ele>285.8</ele>
        <time>2026-05-20T08:26:26Z</time>
      </trkpt>
      <trkpt lat="47.64797" lon="4.39681">
        <ele>285.6</ele>
        <time>2026-05-20T08:26:27Z</time>
      </trkpt>
      <trkpt lat="47.648" lon="4.39683">
        <ele>285</ele>
        <time>2026-05-20T08:26:28Z</time>
      </trkpt>
      <trkpt lat="47.64803" lon="4.39685">
        <ele>284.6</ele>
        <time>2026-05-20T08:26:29Z</time>
      </trkpt>
      <trkpt lat="47.64807" lon="4.39686">
        <ele>283.6</ele>
        <time>2026-05-20T08:26:30Z</time>
      </trkpt>
      <trkpt lat="47.64807" lon="4.39686">
        <ele>283.2</ele>
        <time>2026-05-20T08:26:31Z</time>
      </trkpt>
      <trkpt lat="47.64814" lon="4.39689">
        <ele>282.4</ele>
        <time>2026-05-20T08:26:32Z</time>
      </trkpt>
      <trkpt lat="47.64819" lon="4.39691">
        <ele>282</ele>
        <time>2026-05-20T08:26:33Z</time>
      </trkpt>
      <trkpt lat="47.64824" lon="4.39693">
        <ele>280.6</ele>
        <time>2026-05-20T08:26:34Z</time>
      </trkpt>
      <trkpt lat="47.64829" lon="4.39696">
        <ele>279.6</ele>
        <time>2026-05-20T08:26:35Z</time>
      </trkpt>
      <trkpt lat="47.64829" lon="4.39696">
        <ele>278.8</ele>
        <time>2026-05-20T08:26:36Z</time>
      </trkpt>
      <trkpt lat="47.64837" lon="4.39702">
        <ele>277.4</ele>
        <time>2026-05-20T08:26:37Z</time>
      </trkpt>
      <trkpt lat="47.64842" lon="4.39705">
        <ele>276.8</ele>
        <time>2026-05-20T08:26:38Z</time>
      </trkpt>
      <trkpt lat="47.64848" lon="4.39706">
        <ele>275.2</ele>
        <time>2026-05-20T08:26:39Z</time>
      </trkpt>
      <trkpt lat="47.64851" lon="4.39708">
        <ele>274.6</ele>
        <time>2026-05-20T08:26:40Z</time>
      </trkpt>
      <trkpt lat="47.64851" lon="4.39708">
        <ele>273.8</ele>
        <time>2026-05-20T08:26:41Z</time>
      </trkpt>
      <trkpt lat="47.64862" lon="4.39711">
        <ele>272.4</ele>
        <time>2026-05-20T08:26:42Z</time>
      </trkpt>
      <trkpt lat="47.64866" lon="4.39713">
        <ele>272</ele>
        <time>2026-05-20T08:26:43Z</time>
      </trkpt>
      <trkpt lat="47.6487" lon="4.39716">
        <ele>271.4</ele>
        <time>2026-05-20T08:26:44Z</time>
      </trkpt>
      <trkpt lat="47.64873" lon="4.39719">
        <ele>271.2</ele>
        <time>2026-05-20T08:26:45Z</time>
      </trkpt>
      <trkpt lat="47.64877" lon="4.3972">
        <ele>270.4</ele>
        <time>2026-05-20T08:26:46Z</time>
      </trkpt>
      <trkpt lat="47.6488" lon="4.39722">
        <ele>269.8</ele>
        <time>2026-05-20T08:26:47Z</time>
      </trkpt>
      <trkpt lat="47.64883" lon="4.39724">
        <ele>268.4</ele>
        <time>2026-05-20T08:26:48Z</time>
      </trkpt>
      <trkpt lat="47.64887" lon="4.39727">
        <ele>268</ele>
        <time>2026-05-20T08:26:49Z</time>
      </trkpt>
      <trkpt lat="47.64889" lon="4.39729">
        <ele>267.4</ele>
        <time>2026-05-20T08:26:50Z</time>
      </trkpt>
      <trkpt lat="47.64892" lon="4.3973">
        <ele>266</ele>
        <time>2026-05-20T08:26:51Z</time>
      </trkpt>
      <trkpt lat="47.64895" lon="4.39731">
        <ele>265.6</ele>
        <time>2026-05-20T08:26:52Z</time>
      </trkpt>
      <trkpt lat="47.64898" lon="4.39733">
        <ele>264.6</ele>
        <time>2026-05-20T08:26:53Z</time>
      </trkpt>
      <trkpt lat="47.64901" lon="4.39733">
        <ele>264.2</ele>
        <time>2026-05-20T08:26:54Z</time>
      </trkpt>
      <trkpt lat="47.64906" lon="4.39735">
        <ele>263.2</ele>
        <time>2026-05-20T08:26:55Z</time>
      </trkpt>
      <trkpt lat="47.64909" lon="4.39736">
        <ele>262.6</ele>
        <time>2026-05-20T08:26:56Z</time>
      </trkpt>
      <trkpt lat="47.64912" lon="4.39736">
        <ele>261.6</ele>
        <time>2026-05-20T08:26:57Z</time>
      </trkpt>
      <trkpt lat="47.64915" lon="4.39737">
        <ele>261</ele>
        <time>2026-05-20T08:26:58Z</time>
      </trkpt>
      <trkpt lat="47.64915" lon="4.39737">
        <ele>259.8</ele>
        <time>2026-05-20T08:26:59Z</time>
      </trkpt>
      <trkpt lat="47.64921" lon="4.39741">
        <ele>259</ele>
        <time>2026-05-20T08:27:00Z</time>
      </trkpt>
      <trkpt lat="47.64924" lon="4.39741">
        <ele>258.6</ele>
        <time>2026-05-20T08:27:01Z</time>
      </trkpt>
      <trkpt lat="47.64926" lon="4.39742">
        <ele>257.4</ele>
        <time>2026-05-20T08:27:02Z</time>
      </trkpt>
      <trkpt lat="47.64929" lon="4.39743">
        <ele>257.2</ele>
        <time>2026-05-20T08:27:03Z</time>
      </trkpt>
      <trkpt lat="47.64932" lon="4.39744">
        <ele>256.8</ele>
        <time>2026-05-20T08:27:04Z</time>
      </trkpt>
      <trkpt lat="47.64934" lon="4.39745">
        <ele>256.6</ele>
        <time>2026-05-20T08:27:05Z</time>
      </trkpt>
      <trkpt lat="47.64936" lon="4.39748">
        <ele>256.4</ele>
        <time>2026-05-20T08:27:06Z</time>
      </trkpt>
      <trkpt lat="47.64938" lon="4.39751">
        <ele>256.2</ele>
        <time>2026-05-20T08:27:07Z</time>
      </trkpt>
      <trkpt lat="47.64941" lon="4.39753">
        <ele>256.2</ele>
        <time>2026-05-20T08:27:08Z</time>
      </trkpt>
      <trkpt lat="47.64944" lon="4.39755">
        <ele>255.8</ele>
        <time>2026-05-20T08:27:09Z</time>
      </trkpt>
      <trkpt lat="47.64946" lon="4.39758">
        <ele>255.8</ele>
        <time>2026-05-20T08:27:10Z</time>
      </trkpt>
      <trkpt lat="47.64948" lon="4.39761">
        <ele>255.8</ele>
        <time>2026-05-20T08:27:11Z</time>
      </trkpt>
      <trkpt lat="47.6495" lon="4.39764">
        <ele>255.8</ele>
        <time>2026-05-20T08:27:12Z</time>
      </trkpt>
      <trkpt lat="47.64952" lon="4.39767">
        <ele>255.6</ele>
        <time>2026-05-20T08:27:13Z</time>
      </trkpt>
      <trkpt lat="47.64954" lon="4.39769">
        <ele>255.6</ele>
        <time>2026-05-20T08:27:14Z</time>
      </trkpt>
      <trkpt lat="47.64955" lon="4.39771">
        <ele>255.6</ele>
        <time>2026-05-20T08:27:15Z</time>
      </trkpt>
      <trkpt lat="47.64956" lon="4.39773">
        <ele>255.6</ele>
        <time>2026-05-20T08:27:16Z</time>
      </trkpt>
      <trkpt lat="47.64956" lon="4.39773">
        <ele>255.8</ele>
        <time>2026-05-20T08:27:17Z</time>
      </trkpt>
      <trkpt lat="47.64957" lon="4.39778">
        <ele>256</ele>
        <time>2026-05-20T08:27:18Z</time>
      </trkpt>
      <trkpt lat="47.64958" lon="4.39779">
        <ele>256</ele>
        <time>2026-05-20T08:27:19Z</time>
      </trkpt>
      <trkpt lat="47.64958" lon="4.39779">
        <ele>256.2</ele>
        <time>2026-05-20T08:27:20Z</time>
      </trkpt>
      <trkpt lat="47.64963" lon="4.39783">
        <ele>256.4</ele>
        <time>2026-05-20T08:27:21Z</time>
      </trkpt>
      <trkpt lat="47.64966" lon="4.39786">
        <ele>256.6</ele>
        <time>2026-05-20T08:27:22Z</time>
      </trkpt>
      <trkpt lat="47.64967" lon="4.39788">
        <ele>256.6</ele>
        <time>2026-05-20T08:27:23Z</time>
      </trkpt>
      <trkpt lat="47.64968" lon="4.39791">
        <ele>256.8</ele>
        <time>2026-05-20T08:27:24Z</time>
      </trkpt>
      <trkpt lat="47.64968" lon="4.39791">
        <ele>257</ele>
        <time>2026-05-20T08:27:25Z</time>
      </trkpt>
      <trkpt lat="47.6497" lon="4.39794">
        <ele>257</ele>
        <time>2026-05-20T08:27:26Z</time>
      </trkpt>
      <trkpt lat="47.64971" lon="4.39795">
        <ele>257.2</ele>
        <time>2026-05-20T08:27:27Z</time>
      </trkpt>
      <trkpt lat="47.64973" lon="4.39796">
        <ele>257.2</ele>
        <time>2026-05-20T08:27:28Z</time>
      </trkpt>
      <trkpt lat="47.64975" lon="4.39799">
        <ele>257.6</ele>
        <time>2026-05-20T08:27:29Z</time>
      </trkpt>
      <trkpt lat="47.64977" lon="4.39801">
        <ele>257.6</ele>
        <time>2026-05-20T08:27:30Z</time>
      </trkpt>
      <trkpt lat="47.64981" lon="4.39805">
        <ele>257.8</ele>
        <time>2026-05-20T08:27:31Z</time>
      </trkpt>
      <trkpt lat="47.64983" lon="4.39808">
        <ele>257.8</ele>
        <time>2026-05-20T08:27:32Z</time>
      </trkpt>
      <trkpt lat="47.64984" lon="4.3981">
        <ele>258.2</ele>
        <time>2026-05-20T08:27:33Z</time>
      </trkpt>
      <trkpt lat="47.64988" lon="4.39813">
        <ele>258.2</ele>
        <time>2026-05-20T08:27:34Z</time>
      </trkpt>
      <trkpt lat="47.64989" lon="4.39816">
        <ele>258.4</ele>
        <time>2026-05-20T08:27:35Z</time>
      </trkpt>
      <trkpt lat="47.6499" lon="4.39818">
        <ele>258.8</ele>
        <time>2026-05-20T08:27:36Z</time>
      </trkpt>
      <trkpt lat="47.6499" lon="4.39821">
        <ele>258.8</ele>
        <time>2026-05-20T08:27:37Z</time>
      </trkpt>
      <trkpt lat="47.6499" lon="4.39823">
        <ele>259</ele>
        <time>2026-05-20T08:27:38Z</time>
      </trkpt>
      <trkpt lat="47.64991" lon="4.39825">
        <ele>259</ele>
        <time>2026-05-20T08:27:39Z</time>
      </trkpt>
      <trkpt lat="47.64991" lon="4.39825">
        <ele>259.2</ele>
        <time>2026-05-20T08:27:40Z</time>
      </trkpt>
      <trkpt lat="47.64995" lon="4.39827">
        <ele>259.2</ele>
        <time>2026-05-20T08:27:41Z</time>
      </trkpt>
      <trkpt lat="47.64997" lon="4.39829">
        <ele>259.6</ele>
        <time>2026-05-20T08:27:42Z</time>
      </trkpt>
      <trkpt lat="47.64998" lon="4.39831">
        <ele>259.6</ele>
        <time>2026-05-20T08:27:43Z</time>
      </trkpt>
      <trkpt lat="47.64999" lon="4.39832">
        <ele>259.8</ele>
        <time>2026-05-20T08:27:44Z</time>
      </trkpt>
      <trkpt lat="47.65" lon="4.39833">
        <ele>260</ele>
        <time>2026-05-20T08:27:45Z</time>
      </trkpt>
      <trkpt lat="47.65002" lon="4.39835">
        <ele>260</ele>
        <time>2026-05-20T08:27:46Z</time>
      </trkpt>
      <trkpt lat="47.65003" lon="4.39836">
        <ele>260.4</ele>
        <time>2026-05-20T08:27:47Z</time>
      </trkpt>
      <trkpt lat="47.65004" lon="4.39838">
        <ele>260.6</ele>
        <time>2026-05-20T08:27:48Z</time>
      </trkpt>
      <trkpt lat="47.65005" lon="4.3984">
        <ele>261</ele>
        <time>2026-05-20T08:27:49Z</time>
      </trkpt>
      <trkpt lat="47.65005" lon="4.39842">
        <ele>261.2</ele>
        <time>2026-05-20T08:27:50Z</time>
      </trkpt>
      <trkpt lat="47.65005" lon="4.39842">
        <ele>261.6</ele>
        <time>2026-05-20T08:27:51Z</time>
      </trkpt>
      <trkpt lat="47.65005" lon="4.39846">
        <ele>261.6</ele>
        <time>2026-05-20T08:27:52Z</time>
      </trkpt>
      <trkpt lat="47.65006" lon="4.39847">
        <ele>261.8</ele>
        <time>2026-05-20T08:27:53Z</time>
      </trkpt>
      <trkpt lat="47.65007" lon="4.39849">
        <ele>262.2</ele>
        <time>2026-05-20T08:27:54Z</time>
      </trkpt>
      <trkpt lat="47.65008" lon="4.3985">
        <ele>262.2</ele>
        <time>2026-05-20T08:27:55Z</time>
      </trkpt>
      <trkpt lat="47.65008" lon="4.3985">
        <ele>262.6</ele>
        <time>2026-05-20T08:27:56Z</time>
      </trkpt>
      <trkpt lat="47.6501" lon="4.39854">
        <ele>262.8</ele>
        <time>2026-05-20T08:27:57Z</time>
      </trkpt>
      <trkpt lat="47.65011" lon="4.39855">
        <ele>263</ele>
        <time>2026-05-20T08:27:58Z</time>
      </trkpt>
      <trkpt lat="47.65012" lon="4.39857">
        <ele>263</ele>
        <time>2026-05-20T08:27:59Z</time>
      </trkpt>
      <trkpt lat="47.65013" lon="4.3986">
        <ele>263.2</ele>
        <time>2026-05-20T08:28:00Z</time>
      </trkpt>
      <trkpt lat="47.65014" lon="4.39862">
        <ele>263.4</ele>
        <time>2026-05-20T08:28:01Z</time>
      </trkpt>
      <trkpt lat="47.65015" lon="4.39864">
        <ele>263.6</ele>
        <time>2026-05-20T08:28:02Z</time>
      </trkpt>
      <trkpt lat="47.65016" lon="4.39865">
        <ele>263.8</ele>
        <time>2026-05-20T08:28:03Z</time>
      </trkpt>
      <trkpt lat="47.65016" lon="4.39865">
        <ele>264</ele>
        <time>2026-05-20T08:28:04Z</time>
      </trkpt>
      <trkpt lat="47.65017" lon="4.39868">
        <ele>264.2</ele>
        <time>2026-05-20T08:28:05Z</time>
      </trkpt>
      <trkpt lat="47.65017" lon="4.3987">
        <ele>264.4</ele>
        <time>2026-05-20T08:28:06Z</time>
      </trkpt>
      <trkpt lat="47.65018" lon="4.39872">
        <ele>264.6</ele>
        <time>2026-05-20T08:28:07Z</time>
      </trkpt>
      <trkpt lat="47.65019" lon="4.39874">
        <ele>264.8</ele>
        <time>2026-05-20T08:28:08Z</time>
      </trkpt>
      <trkpt lat="47.65019" lon="4.39874">
        <ele>265</ele>
        <time>2026-05-20T08:28:09Z</time>
      </trkpt>
      <trkpt lat="47.65024" lon="4.39879">
        <ele>265.4</ele>
        <time>2026-05-20T08:28:10Z</time>
      </trkpt>
      <trkpt lat="47.65025" lon="4.39882">
        <ele>265.8</ele>
        <time>2026-05-20T08:28:11Z</time>
      </trkpt>
      <trkpt lat="47.65028" lon="4.39885">
        <ele>266</ele>
        <time>2026-05-20T08:28:12Z</time>
      </trkpt>
      <trkpt lat="47.65028" lon="4.39887">
        <ele>266.2</ele>
        <time>2026-05-20T08:28:13Z</time>
      </trkpt>
      <trkpt lat="47.65029" lon="4.3989">
        <ele>266.4</ele>
        <time>2026-05-20T08:28:14Z</time>
      </trkpt>
      <trkpt lat="47.6503" lon="4.39892">
        <ele>266.4</ele>
        <time>2026-05-20T08:28:15Z</time>
      </trkpt>
      <trkpt lat="47.6503" lon="4.39896">
        <ele>266.8</ele>
        <time>2026-05-20T08:28:16Z</time>
      </trkpt>
      <trkpt lat="47.6503" lon="4.39898">
        <ele>266.8</ele>
        <time>2026-05-20T08:28:17Z</time>
      </trkpt>
      <trkpt lat="47.6503" lon="4.399">
        <ele>267.2</ele>
        <time>2026-05-20T08:28:18Z</time>
      </trkpt>
      <trkpt lat="47.6503" lon="4.39902">
        <ele>267.4</ele>
        <time>2026-05-20T08:28:19Z</time>
      </trkpt>
      <trkpt lat="47.65033" lon="4.39903">
        <ele>267.6</ele>
        <time>2026-05-20T08:28:20Z</time>
      </trkpt>
      <trkpt lat="47.65035" lon="4.39905">
        <ele>268</ele>
        <time>2026-05-20T08:28:21Z</time>
      </trkpt>
      <trkpt lat="47.65036" lon="4.39908">
        <ele>268</ele>
        <time>2026-05-20T08:28:22Z</time>
      </trkpt>
      <trkpt lat="47.65036" lon="4.39908">
        <ele>268.4</ele>
        <time>2026-05-20T08:28:23Z</time>
      </trkpt>
      <trkpt lat="47.65037" lon="4.39915">
        <ele>268.2</ele>
        <time>2026-05-20T08:28:24Z</time>
      </trkpt>
      <trkpt lat="47.65039" lon="4.39917">
        <ele>268.6</ele>
        <time>2026-05-20T08:28:25Z</time>
      </trkpt>
      <trkpt lat="47.6504" lon="4.39919">
        <ele>268.8</ele>
        <time>2026-05-20T08:28:26Z</time>
      </trkpt>
      <trkpt lat="47.65042" lon="4.3992">
        <ele>269</ele>
        <time>2026-05-20T08:28:27Z</time>
      </trkpt>
      <trkpt lat="47.65042" lon="4.3992">
        <ele>269.2</ele>
        <time>2026-05-20T08:28:28Z</time>
      </trkpt>
      <trkpt lat="47.65045" lon="4.39922">
        <ele>269.4</ele>
        <time>2026-05-20T08:28:29Z</time>
      </trkpt>
      <trkpt lat="47.65045" lon="4.39922">
        <ele>269.6</ele>
        <time>2026-05-20T08:28:30Z</time>
      </trkpt>
      <trkpt lat="47.65046" lon="4.39926">
        <ele>269.6</ele>
        <time>2026-05-20T08:28:31Z</time>
      </trkpt>
      <trkpt lat="47.65046" lon="4.39927">
        <ele>269.8</ele>
        <time>2026-05-20T08:28:32Z</time>
      </trkpt>
      <trkpt lat="47.65046" lon="4.39927">
        <ele>270</ele>
        <time>2026-05-20T08:28:33Z</time>
      </trkpt>
      <trkpt lat="47.65047" lon="4.3993">
        <ele>270.2</ele>
        <time>2026-05-20T08:28:34Z</time>
      </trkpt>
      <trkpt lat="47.65047" lon="4.39932">
        <ele>270.2</ele>
        <time>2026-05-20T08:28:35Z</time>
      </trkpt>
      <trkpt lat="47.65048" lon="4.39933">
        <ele>270.8</ele>
        <time>2026-05-20T08:28:36Z</time>
      </trkpt>
      <trkpt lat="47.65048" lon="4.39935">
        <ele>270.8</ele>
        <time>2026-05-20T08:28:37Z</time>
      </trkpt>
      <trkpt lat="47.65049" lon="4.39936">
        <ele>271.2</ele>
        <time>2026-05-20T08:28:38Z</time>
      </trkpt>
      <trkpt lat="47.65049" lon="4.39937">
        <ele>271.4</ele>
        <time>2026-05-20T08:28:39Z</time>
      </trkpt>
      <trkpt lat="47.65049" lon="4.39939">
        <ele>271.4</ele>
        <time>2026-05-20T08:28:40Z</time>
      </trkpt>
      <trkpt lat="47.65049" lon="4.3994">
        <ele>271.6</ele>
        <time>2026-05-20T08:28:41Z</time>
      </trkpt>
      <trkpt lat="47.65049" lon="4.39941">
        <ele>271.8</ele>
        <time>2026-05-20T08:28:42Z</time>
      </trkpt>
      <trkpt lat="47.65051" lon="4.39943">
        <ele>272</ele>
        <time>2026-05-20T08:28:43Z</time>
      </trkpt>
      <trkpt lat="47.65052" lon="4.39945">
        <ele>272.2</ele>
        <time>2026-05-20T08:28:44Z</time>
      </trkpt>
      <trkpt lat="47.65052" lon="4.39946">
        <ele>272.4</ele>
        <time>2026-05-20T08:28:45Z</time>
      </trkpt>
      <trkpt lat="47.65053" lon="4.39948">
        <ele>272.6</ele>
        <time>2026-05-20T08:28:46Z</time>
      </trkpt>
      <trkpt lat="47.65055" lon="4.3995">
        <ele>272.8</ele>
        <time>2026-05-20T08:28:47Z</time>
      </trkpt>
      <trkpt lat="47.65056" lon="4.39953">
        <ele>273</ele>
        <time>2026-05-20T08:28:48Z</time>
      </trkpt>
      <trkpt lat="47.65057" lon="4.39955">
        <ele>273.2</ele>
        <time>2026-05-20T08:28:49Z</time>
      </trkpt>
      <trkpt lat="47.65057" lon="4.39957">
        <ele>273.4</ele>
        <time>2026-05-20T08:28:50Z</time>
      </trkpt>
      <trkpt lat="47.65057" lon="4.39958">
        <ele>273.4</ele>
        <time>2026-05-20T08:28:51Z</time>
      </trkpt>
      <trkpt lat="47.65058" lon="4.39961">
        <ele>273.6</ele>
        <time>2026-05-20T08:28:52Z</time>
      </trkpt>
      <trkpt lat="47.65058" lon="4.39962">
        <ele>273.8</ele>
        <time>2026-05-20T08:28:53Z</time>
      </trkpt>
      <trkpt lat="47.65059" lon="4.39963">
        <ele>274</ele>
        <time>2026-05-20T08:28:54Z</time>
      </trkpt>
      <trkpt lat="47.6506" lon="4.39965">
        <ele>274</ele>
        <time>2026-05-20T08:28:55Z</time>
      </trkpt>
      <trkpt lat="47.6506" lon="4.39967">
        <ele>274.2</ele>
        <time>2026-05-20T08:28:56Z</time>
      </trkpt>
      <trkpt lat="47.6506" lon="4.39967">
        <ele>274.2</ele>
        <time>2026-05-20T08:28:57Z</time>
      </trkpt>
      <trkpt lat="47.65063" lon="4.39971">
        <ele>274.4</ele>
        <time>2026-05-20T08:28:58Z</time>
      </trkpt>
      <trkpt lat="47.65064" lon="4.39974">
        <ele>274.6</ele>
        <time>2026-05-20T08:28:59Z</time>
      </trkpt>
      <trkpt lat="47.65065" lon="4.39977">
        <ele>274.8</ele>
        <time>2026-05-20T08:29:00Z</time>
      </trkpt>
      <trkpt lat="47.65065" lon="4.39979">
        <ele>275</ele>
        <time>2026-05-20T08:29:01Z</time>
      </trkpt>
      <trkpt lat="47.65065" lon="4.39979">
        <ele>275.2</ele>
        <time>2026-05-20T08:29:02Z</time>
      </trkpt>
      <trkpt lat="47.65068" lon="4.39983">
        <ele>275.4</ele>
        <time>2026-05-20T08:29:03Z</time>
      </trkpt>
      <trkpt lat="47.65069" lon="4.39985">
        <ele>275.6</ele>
        <time>2026-05-20T08:29:04Z</time>
      </trkpt>
      <trkpt lat="47.65069" lon="4.39986">
        <ele>275.8</ele>
        <time>2026-05-20T08:29:05Z</time>
      </trkpt>
      <trkpt lat="47.65069" lon="4.39987">
        <ele>276</ele>
        <time>2026-05-20T08:29:06Z</time>
      </trkpt>
      <trkpt lat="47.65069" lon="4.39987">
        <ele>276</ele>
        <time>2026-05-20T08:29:07Z</time>
      </trkpt>
      <trkpt lat="47.6507" lon="4.39993">
        <ele>276.6</ele>
        <time>2026-05-20T08:29:08Z</time>
      </trkpt>
      <trkpt lat="47.6507" lon="4.39998">
        <ele>276.6</ele>
        <time>2026-05-20T08:29:09Z</time>
      </trkpt>
      <trkpt lat="47.65071" lon="4.4">
        <ele>277</ele>
        <time>2026-05-20T08:29:10Z</time>
      </trkpt>
      <trkpt lat="47.65071" lon="4.40002">
        <ele>277</ele>
        <time>2026-05-20T08:29:11Z</time>
      </trkpt>
      <trkpt lat="47.65072" lon="4.40004">
        <ele>277.2</ele>
        <time>2026-05-20T08:29:12Z</time>
      </trkpt>
      <trkpt lat="47.65073" lon="4.40005">
        <ele>277.2</ele>
        <time>2026-05-20T08:29:13Z</time>
      </trkpt>
      <trkpt lat="47.65073" lon="4.40007">
        <ele>277.4</ele>
        <time>2026-05-20T08:29:14Z</time>
      </trkpt>
      <trkpt lat="47.65073" lon="4.40008">
        <ele>277.6</ele>
        <time>2026-05-20T08:29:15Z</time>
      </trkpt>
      <trkpt lat="47.65073" lon="4.40009">
        <ele>277.6</ele>
        <time>2026-05-20T08:29:16Z</time>
      </trkpt>
      <trkpt lat="47.65074" lon="4.40011">
        <ele>278</ele>
        <time>2026-05-20T08:29:17Z</time>
      </trkpt>
      <trkpt lat="47.65075" lon="4.40013">
        <ele>278</ele>
        <time>2026-05-20T08:29:18Z</time>
      </trkpt>
      <trkpt lat="47.65075" lon="4.40015">
        <ele>278.2</ele>
        <time>2026-05-20T08:29:19Z</time>
      </trkpt>
      <trkpt lat="47.65076" lon="4.40016">
        <ele>278.4</ele>
        <time>2026-05-20T08:29:20Z</time>
      </trkpt>
      <trkpt lat="47.65076" lon="4.40016">
        <ele>278.6</ele>
        <time>2026-05-20T08:29:21Z</time>
      </trkpt>
      <trkpt lat="47.65077" lon="4.40019">
        <ele>278.6</ele>
        <time>2026-05-20T08:29:22Z</time>
      </trkpt>
      <trkpt lat="47.65077" lon="4.4002">
        <ele>278.8</ele>
        <time>2026-05-20T08:29:23Z</time>
      </trkpt>
      <trkpt lat="47.65077" lon="4.40022">
        <ele>279</ele>
        <time>2026-05-20T08:29:24Z</time>
      </trkpt>
      <trkpt lat="47.65077" lon="4.40023">
        <ele>279</ele>
        <time>2026-05-20T08:29:25Z</time>
      </trkpt>
      <trkpt lat="47.65077" lon="4.40025">
        <ele>279.4</ele>
        <time>2026-05-20T08:29:26Z</time>
      </trkpt>
      <trkpt lat="47.65076" lon="4.40027">
        <ele>279.4</ele>
        <time>2026-05-20T08:29:27Z</time>
      </trkpt>
      <trkpt lat="47.65076" lon="4.40028">
        <ele>279.8</ele>
        <time>2026-05-20T08:29:28Z</time>
      </trkpt>
      <trkpt lat="47.65077" lon="4.40029">
        <ele>280</ele>
        <time>2026-05-20T08:29:29Z</time>
      </trkpt>
      <trkpt lat="47.65078" lon="4.40031">
        <ele>280.2</ele>
        <time>2026-05-20T08:29:30Z</time>
      </trkpt>
      <trkpt lat="47.65078" lon="4.40031">
        <ele>280.2</ele>
        <time>2026-05-20T08:29:31Z</time>
      </trkpt>
      <trkpt lat="47.65079" lon="4.40036">
        <ele>280.4</ele>
        <time>2026-05-20T08:29:32Z</time>
      </trkpt>
      <trkpt lat="47.65078" lon="4.40039">
        <ele>280.6</ele>
        <time>2026-05-20T08:29:33Z</time>
      </trkpt>
      <trkpt lat="47.65079" lon="4.40041">
        <ele>280.8</ele>
        <time>2026-05-20T08:29:34Z</time>
      </trkpt>
      <trkpt lat="47.65079" lon="4.40042">
        <ele>281</ele>
        <time>2026-05-20T08:29:35Z</time>
      </trkpt>
      <trkpt lat="47.65078" lon="4.40045">
        <ele>281</ele>
        <time>2026-05-20T08:29:36Z</time>
      </trkpt>
      <trkpt lat="47.65078" lon="4.40048">
        <ele>281.2</ele>
        <time>2026-05-20T08:29:37Z</time>
      </trkpt>
      <trkpt lat="47.65078" lon="4.4005">
        <ele>281.2</ele>
        <time>2026-05-20T08:29:38Z</time>
      </trkpt>
      <trkpt lat="47.65078" lon="4.40053">
        <ele>281.6</ele>
        <time>2026-05-20T08:29:39Z</time>
      </trkpt>
      <trkpt lat="47.65078" lon="4.40056">
        <ele>281.8</ele>
        <time>2026-05-20T08:29:40Z</time>
      </trkpt>
      <trkpt lat="47.65078" lon="4.40056">
        <ele>282</ele>
        <time>2026-05-20T08:29:41Z</time>
      </trkpt>
      <trkpt lat="47.65078" lon="4.40061">
        <ele>282.2</ele>
        <time>2026-05-20T08:29:42Z</time>
      </trkpt>
      <trkpt lat="47.65078" lon="4.40063">
        <ele>282.4</ele>
        <time>2026-05-20T08:29:43Z</time>
      </trkpt>
      <trkpt lat="47.65079" lon="4.40065">
        <ele>282.6</ele>
        <time>2026-05-20T08:29:44Z</time>
      </trkpt>
      <trkpt lat="47.65079" lon="4.4007">
        <ele>282.8</ele>
        <time>2026-05-20T08:29:45Z</time>
      </trkpt>
      <trkpt lat="47.65079" lon="4.40072">
        <ele>283.2</ele>
        <time>2026-05-20T08:29:46Z</time>
      </trkpt>
      <trkpt lat="47.65079" lon="4.40074">
        <ele>283.2</ele>
        <time>2026-05-20T08:29:47Z</time>
      </trkpt>
      <trkpt lat="47.6508" lon="4.40078">
        <ele>283.4</ele>
        <time>2026-05-20T08:29:48Z</time>
      </trkpt>
      <trkpt lat="47.6508" lon="4.40081">
        <ele>283.6</ele>
        <time>2026-05-20T08:29:49Z</time>
      </trkpt>
      <trkpt lat="47.6508" lon="4.40084">
        <ele>283.8</ele>
        <time>2026-05-20T08:29:50Z</time>
      </trkpt>
      <trkpt lat="47.6508" lon="4.40088">
        <ele>284</ele>
        <time>2026-05-20T08:29:51Z</time>
      </trkpt>
      <trkpt lat="47.65081" lon="4.40092">
        <ele>284</ele>
        <time>2026-05-20T08:29:52Z</time>
      </trkpt>
      <trkpt lat="47.65081" lon="4.40093">
        <ele>284.2</ele>
        <time>2026-05-20T08:29:53Z</time>
      </trkpt>
      <trkpt lat="47.65082" lon="4.40097">
        <ele>284.2</ele>
        <time>2026-05-20T08:29:54Z</time>
      </trkpt>
      <trkpt lat="47.65082" lon="4.40099">
        <ele>284.4</ele>
        <time>2026-05-20T08:29:55Z</time>
      </trkpt>
      <trkpt lat="47.65083" lon="4.40102">
        <ele>284.6</ele>
        <time>2026-05-20T08:29:56Z</time>
      </trkpt>
      <trkpt lat="47.65082" lon="4.40105">
        <ele>284.8</ele>
        <time>2026-05-20T08:29:57Z</time>
      </trkpt>
      <trkpt lat="47.65083" lon="4.40107">
        <ele>285</ele>
        <time>2026-05-20T08:29:58Z</time>
      </trkpt>
      <trkpt lat="47.65082" lon="4.40109">
        <ele>285</ele>
        <time>2026-05-20T08:29:59Z</time>
      </trkpt>
      <trkpt lat="47.65081" lon="4.40112">
        <ele>285.4</ele>
        <time>2026-05-20T08:30:00Z</time>
      </trkpt>
      <trkpt lat="47.65081" lon="4.40115">
        <ele>285.4</ele>
        <time>2026-05-20T08:30:01Z</time>
      </trkpt>
      <trkpt lat="47.65081" lon="4.40116">
        <ele>285.8</ele>
        <time>2026-05-20T08:30:02Z</time>
      </trkpt>
      <trkpt lat="47.65081" lon="4.40118">
        <ele>286</ele>
        <time>2026-05-20T08:30:03Z</time>
      </trkpt>
      <trkpt lat="47.6508" lon="4.4012">
        <ele>286.4</ele>
        <time>2026-05-20T08:30:04Z</time>
      </trkpt>
      <trkpt lat="47.6508" lon="4.40122">
        <ele>286.6</ele>
        <time>2026-05-20T08:30:05Z</time>
      </trkpt>
      <trkpt lat="47.65081" lon="4.40123">
        <ele>286.8</ele>
        <time>2026-05-20T08:30:06Z</time>
      </trkpt>
      <trkpt lat="47.65082" lon="4.40124">
        <ele>286.8</ele>
        <time>2026-05-20T08:30:07Z</time>
      </trkpt>
      <trkpt lat="47.65082" lon="4.40126">
        <ele>287.2</ele>
        <time>2026-05-20T08:30:08Z</time>
      </trkpt>
      <trkpt lat="47.65082" lon="4.40128">
        <ele>287.4</ele>
        <time>2026-05-20T08:30:09Z</time>
      </trkpt>
      <trkpt lat="47.65082" lon="4.40128">
        <ele>287.6</ele>
        <time>2026-05-20T08:30:10Z</time>
      </trkpt>
      <trkpt lat="47.65081" lon="4.40131">
        <ele>287.8</ele>
        <time>2026-05-20T08:30:11Z</time>
      </trkpt>
      <trkpt lat="47.65082" lon="4.40132">
        <ele>288</ele>
        <time>2026-05-20T08:30:12Z</time>
      </trkpt>
      <trkpt lat="47.65082" lon="4.40134">
        <ele>288.2</ele>
        <time>2026-05-20T08:30:13Z</time>
      </trkpt>
      <trkpt lat="47.65083" lon="4.40135">
        <ele>288.6</ele>
        <time>2026-05-20T08:30:14Z</time>
      </trkpt>
      <trkpt lat="47.65083" lon="4.40135">
        <ele>289</ele>
        <time>2026-05-20T08:30:15Z</time>
      </trkpt>
      <trkpt lat="47.65083" lon="4.40138">
        <ele>289</ele>
        <time>2026-05-20T08:30:16Z</time>
      </trkpt>
      <trkpt lat="47.65083" lon="4.4014">
        <ele>289.4</ele>
        <time>2026-05-20T08:30:17Z</time>
      </trkpt>
      <trkpt lat="47.65084" lon="4.40142">
        <ele>289.6</ele>
        <time>2026-05-20T08:30:18Z</time>
      </trkpt>
      <trkpt lat="47.65085" lon="4.40144">
        <ele>289.8</ele>
        <time>2026-05-20T08:30:19Z</time>
      </trkpt>
      <trkpt lat="47.65085" lon="4.40147">
        <ele>290</ele>
        <time>2026-05-20T08:30:20Z</time>
      </trkpt>
      <trkpt lat="47.65085" lon="4.40149">
        <ele>290.2</ele>
        <time>2026-05-20T08:30:21Z</time>
      </trkpt>
      <trkpt lat="47.65085" lon="4.4015">
        <ele>290.4</ele>
        <time>2026-05-20T08:30:22Z</time>
      </trkpt>
      <trkpt lat="47.65085" lon="4.40151">
        <ele>290.6</ele>
        <time>2026-05-20T08:30:23Z</time>
      </trkpt>
      <trkpt lat="47.65085" lon="4.40153">
        <ele>290.6</ele>
        <time>2026-05-20T08:30:24Z</time>
      </trkpt>
      <trkpt lat="47.65086" lon="4.40155">
        <ele>290.8</ele>
        <time>2026-05-20T08:30:25Z</time>
      </trkpt>
      <trkpt lat="47.65086" lon="4.40157">
        <ele>291</ele>
        <time>2026-05-20T08:30:26Z</time>
      </trkpt>
      <trkpt lat="47.65087" lon="4.4016">
        <ele>291.4</ele>
        <time>2026-05-20T08:30:27Z</time>
      </trkpt>
      <trkpt lat="47.65088" lon="4.40162">
        <ele>291.4</ele>
        <time>2026-05-20T08:30:28Z</time>
      </trkpt>
      <trkpt lat="47.65088" lon="4.40165">
        <ele>291.8</ele>
        <time>2026-05-20T08:30:29Z</time>
      </trkpt>
      <trkpt lat="47.65088" lon="4.40169">
        <ele>291.8</ele>
        <time>2026-05-20T08:30:30Z</time>
      </trkpt>
      <trkpt lat="47.65087" lon="4.40172">
        <ele>292.2</ele>
        <time>2026-05-20T08:30:31Z</time>
      </trkpt>
      <trkpt lat="47.65087" lon="4.40174">
        <ele>292.4</ele>
        <time>2026-05-20T08:30:32Z</time>
      </trkpt>
      <trkpt lat="47.65086" lon="4.40177">
        <ele>292.6</ele>
        <time>2026-05-20T08:30:33Z</time>
      </trkpt>
      <trkpt lat="47.65087" lon="4.40182">
        <ele>292.6</ele>
        <time>2026-05-20T08:30:34Z</time>
      </trkpt>
      <trkpt lat="47.65087" lon="4.40186">
        <ele>292.8</ele>
        <time>2026-05-20T08:30:35Z</time>
      </trkpt>
      <trkpt lat="47.65086" lon="4.40189">
        <ele>293</ele>
        <time>2026-05-20T08:30:36Z</time>
      </trkpt>
      <trkpt lat="47.65086" lon="4.4019">
        <ele>293</ele>
        <time>2026-05-20T08:30:37Z</time>
      </trkpt>
      <trkpt lat="47.65086" lon="4.40193">
        <ele>293.2</ele>
        <time>2026-05-20T08:30:38Z</time>
      </trkpt>
      <trkpt lat="47.65086" lon="4.40193">
        <ele>293.4</ele>
        <time>2026-05-20T08:30:39Z</time>
      </trkpt>
      <trkpt lat="47.65087" lon="4.40196">
        <ele>293.8</ele>
        <time>2026-05-20T08:30:40Z</time>
      </trkpt>
      <trkpt lat="47.65088" lon="4.40198">
        <ele>293.8</ele>
        <time>2026-05-20T08:30:41Z</time>
      </trkpt>
      <trkpt lat="47.65088" lon="4.40199">
        <ele>294.2</ele>
        <time>2026-05-20T08:30:42Z</time>
      </trkpt>
      <trkpt lat="47.6509" lon="4.40203">
        <ele>294.4</ele>
        <time>2026-05-20T08:30:43Z</time>
      </trkpt>
      <trkpt lat="47.6509" lon="4.40207">
        <ele>294.8</ele>
        <time>2026-05-20T08:30:44Z</time>
      </trkpt>
      <trkpt lat="47.65091" lon="4.40211">
        <ele>295</ele>
        <time>2026-05-20T08:30:45Z</time>
      </trkpt>
      <trkpt lat="47.6509" lon="4.40216">
        <ele>295</ele>
        <time>2026-05-20T08:30:46Z</time>
      </trkpt>
      <trkpt lat="47.6509" lon="4.4022">
        <ele>295.2</ele>
        <time>2026-05-20T08:30:47Z</time>
      </trkpt>
      <trkpt lat="47.6509" lon="4.40224">
        <ele>295.2</ele>
        <time>2026-05-20T08:30:48Z</time>
      </trkpt>
      <trkpt lat="47.6509" lon="4.40224">
        <ele>295.4</ele>
        <time>2026-05-20T08:30:49Z</time>
      </trkpt>
      <trkpt lat="47.65092" lon="4.40229">
        <ele>295.6</ele>
        <time>2026-05-20T08:30:50Z</time>
      </trkpt>
      <trkpt lat="47.65093" lon="4.40231">
        <ele>296</ele>
        <time>2026-05-20T08:30:51Z</time>
      </trkpt>
      <trkpt lat="47.65093" lon="4.40233">
        <ele>296.2</ele>
        <time>2026-05-20T08:30:52Z</time>
      </trkpt>
      <trkpt lat="47.65094" lon="4.40235">
        <ele>296.6</ele>
        <time>2026-05-20T08:30:53Z</time>
      </trkpt>
      <trkpt lat="47.65094" lon="4.40235">
        <ele>297</ele>
        <time>2026-05-20T08:30:54Z</time>
      </trkpt>
      <trkpt lat="47.65095" lon="4.40237">
        <ele>297</ele>
        <time>2026-05-20T08:30:55Z</time>
      </trkpt>
      <trkpt lat="47.65095" lon="4.40238">
        <ele>297.4</ele>
        <time>2026-05-20T08:30:56Z</time>
      </trkpt>
      <trkpt lat="47.65095" lon="4.40239">
        <ele>297.6</ele>
        <time>2026-05-20T08:30:57Z</time>
      </trkpt>
      <trkpt lat="47.65096" lon="4.40241">
        <ele>298</ele>
        <time>2026-05-20T08:30:58Z</time>
      </trkpt>
      <trkpt lat="47.65096" lon="4.40243">
        <ele>298</ele>
        <time>2026-05-20T08:30:59Z</time>
      </trkpt>
      <trkpt lat="47.65095" lon="4.40245">
        <ele>298.2</ele>
        <time>2026-05-20T08:31:00Z</time>
      </trkpt>
      <trkpt lat="47.65095" lon="4.40247">
        <ele>298.4</ele>
        <time>2026-05-20T08:31:01Z</time>
      </trkpt>
      <trkpt lat="47.65095" lon="4.40248">
        <ele>298.8</ele>
        <time>2026-05-20T08:31:02Z</time>
      </trkpt>
      <trkpt lat="47.65095" lon="4.4025">
        <ele>299</ele>
        <time>2026-05-20T08:31:03Z</time>
      </trkpt>
      <trkpt lat="47.65096" lon="4.40252">
        <ele>299</ele>
        <time>2026-05-20T08:31:04Z</time>
      </trkpt>
      <trkpt lat="47.65096" lon="4.40254">
        <ele>299.2</ele>
        <time>2026-05-20T08:31:05Z</time>
      </trkpt>
      <trkpt lat="47.65095" lon="4.40256">
        <ele>299.4</ele>
        <time>2026-05-20T08:31:06Z</time>
      </trkpt>
      <trkpt lat="47.65095" lon="4.40259">
        <ele>299.6</ele>
        <time>2026-05-20T08:31:07Z</time>
      </trkpt>
      <trkpt lat="47.65095" lon="4.40261">
        <ele>299.8</ele>
        <time>2026-05-20T08:31:08Z</time>
      </trkpt>
      <trkpt lat="47.65095" lon="4.40262">
        <ele>300</ele>
        <time>2026-05-20T08:31:09Z</time>
      </trkpt>
      <trkpt lat="47.65095" lon="4.40262">
        <ele>300.2</ele>
        <time>2026-05-20T08:31:10Z</time>
      </trkpt>
      <trkpt lat="47.65095" lon="4.40263">
        <ele>300.4</ele>
        <time>2026-05-20T08:31:11Z</time>
      </trkpt>
      <trkpt lat="47.65096" lon="4.40265">
        <ele>300.8</ele>
        <time>2026-05-20T08:31:12Z</time>
      </trkpt>
      <trkpt lat="47.65096" lon="4.40268">
        <ele>300.8</ele>
        <time>2026-05-20T08:31:13Z</time>
      </trkpt>
      <trkpt lat="47.65097" lon="4.40271">
        <ele>301</ele>
        <time>2026-05-20T08:31:14Z</time>
      </trkpt>
      <trkpt lat="47.65097" lon="4.40273">
        <ele>301</ele>
        <time>2026-05-20T08:31:15Z</time>
      </trkpt>
      <trkpt lat="47.65097" lon="4.40276">
        <ele>301.2</ele>
        <time>2026-05-20T08:31:16Z</time>
      </trkpt>
      <trkpt lat="47.65098" lon="4.40278">
        <ele>301.4</ele>
        <time>2026-05-20T08:31:17Z</time>
      </trkpt>
      <trkpt lat="47.65098" lon="4.40278">
        <ele>301.6</ele>
        <time>2026-05-20T08:31:18Z</time>
      </trkpt>
      <trkpt lat="47.65098" lon="4.40282">
        <ele>301.6</ele>
        <time>2026-05-20T08:31:19Z</time>
      </trkpt>
      <trkpt lat="47.65098" lon="4.40284">
        <ele>301.6</ele>
        <time>2026-05-20T08:31:20Z</time>
      </trkpt>
      <trkpt lat="47.65097" lon="4.40285">
        <ele>302</ele>
        <time>2026-05-20T08:31:21Z</time>
      </trkpt>
      <trkpt lat="47.65097" lon="4.40286">
        <ele>302.2</ele>
        <time>2026-05-20T08:31:22Z</time>
      </trkpt>
      <trkpt lat="47.65097" lon="4.40286">
        <ele>302.6</ele>
        <time>2026-05-20T08:31:23Z</time>
      </trkpt>
      <trkpt lat="47.65098" lon="4.40291">
        <ele>302.8</ele>
        <time>2026-05-20T08:31:24Z</time>
      </trkpt>
      <trkpt lat="47.65098" lon="4.40294">
        <ele>302.8</ele>
        <time>2026-05-20T08:31:25Z</time>
      </trkpt>
      <trkpt lat="47.65098" lon="4.40298">
        <ele>303</ele>
        <time>2026-05-20T08:31:26Z</time>
      </trkpt>
      <trkpt lat="47.65099" lon="4.40301">
        <ele>303</ele>
        <time>2026-05-20T08:31:27Z</time>
      </trkpt>
      <trkpt lat="47.65099" lon="4.40301">
        <ele>303.2</ele>
        <time>2026-05-20T08:31:28Z</time>
      </trkpt>
      <trkpt lat="47.65099" lon="4.40306">
        <ele>303.2</ele>
        <time>2026-05-20T08:31:29Z</time>
      </trkpt>
      <trkpt lat="47.65099" lon="4.40308">
        <ele>303.4</ele>
        <time>2026-05-20T08:31:30Z</time>
      </trkpt>
      <trkpt lat="47.65101" lon="4.40311">
        <ele>303.4</ele>
        <time>2026-05-20T08:31:31Z</time>
      </trkpt>
      <trkpt lat="47.65101" lon="4.40314">
        <ele>303.6</ele>
        <time>2026-05-20T08:31:32Z</time>
      </trkpt>
      <trkpt lat="47.65103" lon="4.40316">
        <ele>303.8</ele>
        <time>2026-05-20T08:31:33Z</time>
      </trkpt>
      <trkpt lat="47.65103" lon="4.4032">
        <ele>303.8</ele>
        <time>2026-05-20T08:31:34Z</time>
      </trkpt>
      <trkpt lat="47.65104" lon="4.40324">
        <ele>304</ele>
        <time>2026-05-20T08:31:35Z</time>
      </trkpt>
      <trkpt lat="47.65104" lon="4.40324">
        <ele>304</ele>
        <time>2026-05-20T08:31:36Z</time>
      </trkpt>
      <trkpt lat="47.65106" lon="4.40327">
        <ele>304</ele>
        <time>2026-05-20T08:31:37Z</time>
      </trkpt>
      <trkpt lat="47.65107" lon="4.40331">
        <ele>304.2</ele>
        <time>2026-05-20T08:31:38Z</time>
      </trkpt>
      <trkpt lat="47.65107" lon="4.40334">
        <ele>304.2</ele>
        <time>2026-05-20T08:31:39Z</time>
      </trkpt>
      <trkpt lat="47.65109" lon="4.40336">
        <ele>304.4</ele>
        <time>2026-05-20T08:31:40Z</time>
      </trkpt>
      <trkpt lat="47.6511" lon="4.40339">
        <ele>304.4</ele>
        <time>2026-05-20T08:31:41Z</time>
      </trkpt>
      <trkpt lat="47.65112" lon="4.40341">
        <ele>304.4</ele>
        <time>2026-05-20T08:31:42Z</time>
      </trkpt>
      <trkpt lat="47.65113" lon="4.40343">
        <ele>304.4</ele>
        <time>2026-05-20T08:31:43Z</time>
      </trkpt>
      <trkpt lat="47.65114" lon="4.40346">
        <ele>304.4</ele>
        <time>2026-05-20T08:31:44Z</time>
      </trkpt>
      <trkpt lat="47.65115" lon="4.40349">
        <ele>304.6</ele>
        <time>2026-05-20T08:31:45Z</time>
      </trkpt>
      <trkpt lat="47.65116" lon="4.40349">
        <ele>304.6</ele>
        <time>2026-05-20T08:31:46Z</time>
      </trkpt>
      <trkpt lat="47.65118" lon="4.4035">
        <ele>304.8</ele>
        <time>2026-05-20T08:31:47Z</time>
      </trkpt>
      <trkpt lat="47.65118" lon="4.40352">
        <ele>304.8</ele>
        <time>2026-05-20T08:31:48Z</time>
      </trkpt>
      <trkpt lat="47.65119" lon="4.40354">
        <ele>304.8</ele>
        <time>2026-05-20T08:31:49Z</time>
      </trkpt>
      <trkpt lat="47.65118" lon="4.40356">
        <ele>305</ele>
        <time>2026-05-20T08:31:50Z</time>
      </trkpt>
      <trkpt lat="47.65118" lon="4.40358">
        <ele>305</ele>
        <time>2026-05-20T08:31:51Z</time>
      </trkpt>
      <trkpt lat="47.65118" lon="4.4036">
        <ele>305</ele>
        <time>2026-05-20T08:31:52Z</time>
      </trkpt>
      <trkpt lat="47.65118" lon="4.40361">
        <ele>305</ele>
        <time>2026-05-20T08:31:53Z</time>
      </trkpt>
      <trkpt lat="47.65119" lon="4.40363">
        <ele>305.2</ele>
        <time>2026-05-20T08:31:54Z</time>
      </trkpt>
      <trkpt lat="47.65119" lon="4.40364">
        <ele>305.2</ele>
        <time>2026-05-20T08:31:55Z</time>
      </trkpt>
      <trkpt lat="47.65119" lon="4.40366">
        <ele>305.2</ele>
        <time>2026-05-20T08:31:56Z</time>
      </trkpt>
      <trkpt lat="47.65119" lon="4.40368">
        <ele>305.4</ele>
        <time>2026-05-20T08:31:57Z</time>
      </trkpt>
      <trkpt lat="47.65119" lon="4.40371">
        <ele>305.4</ele>
        <time>2026-05-20T08:31:58Z</time>
      </trkpt>
      <trkpt lat="47.65119" lon="4.40373">
        <ele>305.6</ele>
        <time>2026-05-20T08:31:59Z</time>
      </trkpt>
      <trkpt lat="47.65119" lon="4.40375">
        <ele>305.8</ele>
        <time>2026-05-20T08:32:00Z</time>
      </trkpt>
      <trkpt lat="47.6512" lon="4.40378">
        <ele>305.8</ele>
        <time>2026-05-20T08:32:01Z</time>
      </trkpt>
      <trkpt lat="47.65119" lon="4.40381">
        <ele>306</ele>
        <time>2026-05-20T08:32:02Z</time>
      </trkpt>
      <trkpt lat="47.65119" lon="4.40383">
        <ele>306</ele>
        <time>2026-05-20T08:32:03Z</time>
      </trkpt>
      <trkpt lat="47.65119" lon="4.40385">
        <ele>306.2</ele>
        <time>2026-05-20T08:32:04Z</time>
      </trkpt>
      <trkpt lat="47.65119" lon="4.40387">
        <ele>306.4</ele>
        <time>2026-05-20T08:32:05Z</time>
      </trkpt>
      <trkpt lat="47.6512" lon="4.40389">
        <ele>306.6</ele>
        <time>2026-05-20T08:32:06Z</time>
      </trkpt>
      <trkpt lat="47.6512" lon="4.40391">
        <ele>306.8</ele>
        <time>2026-05-20T08:32:07Z</time>
      </trkpt>
      <trkpt lat="47.6512" lon="4.40393">
        <ele>307</ele>
        <time>2026-05-20T08:32:08Z</time>
      </trkpt>
      <trkpt lat="47.65121" lon="4.40396">
        <ele>307</ele>
        <time>2026-05-20T08:32:09Z</time>
      </trkpt>
      <trkpt lat="47.65122" lon="4.40398">
        <ele>307.2</ele>
        <time>2026-05-20T08:32:10Z</time>
      </trkpt>
      <trkpt lat="47.65122" lon="4.404">
        <ele>307.4</ele>
        <time>2026-05-20T08:32:11Z</time>
      </trkpt>
      <trkpt lat="47.65122" lon="4.404">
        <ele>307.4</ele>
        <time>2026-05-20T08:32:12Z</time>
      </trkpt>
      <trkpt lat="47.65122" lon="4.40404">
        <ele>307.6</ele>
        <time>2026-05-20T08:32:13Z</time>
      </trkpt>
      <trkpt lat="47.65122" lon="4.40407">
        <ele>307.6</ele>
        <time>2026-05-20T08:32:14Z</time>
      </trkpt>
      <trkpt lat="47.65122" lon="4.4041">
        <ele>307.8</ele>
        <time>2026-05-20T08:32:15Z</time>
      </trkpt>
      <trkpt lat="47.65122" lon="4.40412">
        <ele>307.8</ele>
        <time>2026-05-20T08:32:16Z</time>
      </trkpt>
      <trkpt lat="47.65123" lon="4.40414">
        <ele>308</ele>
        <time>2026-05-20T08:32:17Z</time>
      </trkpt>
      <trkpt lat="47.65124" lon="4.40417">
        <ele>308.2</ele>
        <time>2026-05-20T08:32:18Z</time>
      </trkpt>
      <trkpt lat="47.65124" lon="4.40422">
        <ele>308.4</ele>
        <time>2026-05-20T08:32:19Z</time>
      </trkpt>
      <trkpt lat="47.65125" lon="4.40424">
        <ele>308.4</ele>
        <time>2026-05-20T08:32:20Z</time>
      </trkpt>
      <trkpt lat="47.65126" lon="4.40426">
        <ele>308.4</ele>
        <time>2026-05-20T08:32:21Z</time>
      </trkpt>
      <trkpt lat="47.65128" lon="4.40429">
        <ele>308.4</ele>
        <time>2026-05-20T08:32:22Z</time>
      </trkpt>
      <trkpt lat="47.6513" lon="4.40432">
        <ele>308.6</ele>
        <time>2026-05-20T08:32:23Z</time>
      </trkpt>
      <trkpt lat="47.6513" lon="4.40436">
        <ele>308.6</ele>
        <time>2026-05-20T08:32:24Z</time>
      </trkpt>
      <trkpt lat="47.65131" lon="4.4044">
        <ele>308.8</ele>
        <time>2026-05-20T08:32:25Z</time>
      </trkpt>
      <trkpt lat="47.65131" lon="4.40444">
        <ele>309</ele>
        <time>2026-05-20T08:32:26Z</time>
      </trkpt>
      <trkpt lat="47.65132" lon="4.40447">
        <ele>309</ele>
        <time>2026-05-20T08:32:27Z</time>
      </trkpt>
      <trkpt lat="47.65133" lon="4.40449">
        <ele>309.2</ele>
        <time>2026-05-20T08:32:28Z</time>
      </trkpt>
      <trkpt lat="47.65133" lon="4.40454">
        <ele>309.2</ele>
        <time>2026-05-20T08:32:29Z</time>
      </trkpt>
      <trkpt lat="47.65134" lon="4.40458">
        <ele>309.4</ele>
        <time>2026-05-20T08:32:30Z</time>
      </trkpt>
      <trkpt lat="47.65135" lon="4.40461">
        <ele>309.6</ele>
        <time>2026-05-20T08:32:31Z</time>
      </trkpt>
      <trkpt lat="47.65135" lon="4.40465">
        <ele>309.8</ele>
        <time>2026-05-20T08:32:32Z</time>
      </trkpt>
      <trkpt lat="47.65136" lon="4.40469">
        <ele>309.8</ele>
        <time>2026-05-20T08:32:33Z</time>
      </trkpt>
      <trkpt lat="47.65137" lon="4.40471">
        <ele>310</ele>
        <time>2026-05-20T08:32:34Z</time>
      </trkpt>
      <trkpt lat="47.65138" lon="4.40473">
        <ele>310</ele>
        <time>2026-05-20T08:32:35Z</time>
      </trkpt>
      <trkpt lat="47.65139" lon="4.40478">
        <ele>310</ele>
        <time>2026-05-20T08:32:36Z</time>
      </trkpt>
      <trkpt lat="47.65139" lon="4.40482">
        <ele>310.2</ele>
        <time>2026-05-20T08:32:37Z</time>
      </trkpt>
      <trkpt lat="47.65141" lon="4.40485">
        <ele>310.4</ele>
        <time>2026-05-20T08:32:38Z</time>
      </trkpt>
      <trkpt lat="47.65143" lon="4.40487">
        <ele>310.6</ele>
        <time>2026-05-20T08:32:39Z</time>
      </trkpt>
      <trkpt lat="47.65144" lon="4.40489">
        <ele>310.6</ele>
        <time>2026-05-20T08:32:40Z</time>
      </trkpt>
      <trkpt lat="47.65144" lon="4.40492">
        <ele>310.8</ele>
        <time>2026-05-20T08:32:41Z</time>
      </trkpt>
      <trkpt lat="47.65145" lon="4.40494">
        <ele>311</ele>
        <time>2026-05-20T08:32:42Z</time>
      </trkpt>
      <trkpt lat="47.65146" lon="4.40496">
        <ele>311</ele>
        <time>2026-05-20T08:32:43Z</time>
      </trkpt>
      <trkpt lat="47.65146" lon="4.40498">
        <ele>311.2</ele>
        <time>2026-05-20T08:32:44Z</time>
      </trkpt>
      <trkpt lat="47.65146" lon="4.40499">
        <ele>311.2</ele>
        <time>2026-05-20T08:32:45Z</time>
      </trkpt>
      <trkpt lat="47.65146" lon="4.40499">
        <ele>311.4</ele>
        <time>2026-05-20T08:32:46Z</time>
      </trkpt>
      <trkpt lat="47.65147" lon="4.40503">
        <ele>311.6</ele>
        <time>2026-05-20T08:32:47Z</time>
      </trkpt>
      <trkpt lat="47.65148" lon="4.40505">
        <ele>311.8</ele>
        <time>2026-05-20T08:32:48Z</time>
      </trkpt>
      <trkpt lat="47.65148" lon="4.40507">
        <ele>311.8</ele>
        <time>2026-05-20T08:32:49Z</time>
      </trkpt>
      <trkpt lat="47.65149" lon="4.40509">
        <ele>312</ele>
        <time>2026-05-20T08:32:50Z</time>
      </trkpt>
      <trkpt lat="47.6515" lon="4.4051">
        <ele>312.2</ele>
        <time>2026-05-20T08:32:51Z</time>
      </trkpt>
      <trkpt lat="47.65151" lon="4.40512">
        <ele>312.2</ele>
        <time>2026-05-20T08:32:52Z</time>
      </trkpt>
      <trkpt lat="47.65153" lon="4.40515">
        <ele>312.4</ele>
        <time>2026-05-20T08:32:53Z</time>
      </trkpt>
      <trkpt lat="47.65155" lon="4.40517">
        <ele>312.4</ele>
        <time>2026-05-20T08:32:54Z</time>
      </trkpt>
      <trkpt lat="47.65156" lon="4.40519">
        <ele>312.6</ele>
        <time>2026-05-20T08:32:55Z</time>
      </trkpt>
      <trkpt lat="47.65157" lon="4.40522">
        <ele>312.6</ele>
        <time>2026-05-20T08:32:56Z</time>
      </trkpt>
      <trkpt lat="47.65158" lon="4.40524">
        <ele>312.8</ele>
        <time>2026-05-20T08:32:57Z</time>
      </trkpt>
      <trkpt lat="47.65159" lon="4.40527">
        <ele>312.8</ele>
        <time>2026-05-20T08:32:58Z</time>
      </trkpt>
      <trkpt lat="47.6516" lon="4.4053">
        <ele>313</ele>
        <time>2026-05-20T08:32:59Z</time>
      </trkpt>
      <trkpt lat="47.65161" lon="4.40533">
        <ele>313.2</ele>
        <time>2026-05-20T08:33:00Z</time>
      </trkpt>
      <trkpt lat="47.65162" lon="4.40537">
        <ele>313.2</ele>
        <time>2026-05-20T08:33:01Z</time>
      </trkpt>
      <trkpt lat="47.65165" lon="4.4054">
        <ele>313.4</ele>
        <time>2026-05-20T08:33:02Z</time>
      </trkpt>
      <trkpt lat="47.65167" lon="4.40542">
        <ele>313.4</ele>
        <time>2026-05-20T08:33:03Z</time>
      </trkpt>
      <trkpt lat="47.65168" lon="4.40545">
        <ele>313.6</ele>
        <time>2026-05-20T08:33:04Z</time>
      </trkpt>
      <trkpt lat="47.6517" lon="4.40547">
        <ele>313.6</ele>
        <time>2026-05-20T08:33:05Z</time>
      </trkpt>
      <trkpt lat="47.65172" lon="4.40549">
        <ele>313.8</ele>
        <time>2026-05-20T08:33:06Z</time>
      </trkpt>
      <trkpt lat="47.65174" lon="4.40553">
        <ele>313.8</ele>
        <time>2026-05-20T08:33:07Z</time>
      </trkpt>
      <trkpt lat="47.65177" lon="4.40556">
        <ele>314</ele>
        <time>2026-05-20T08:33:08Z</time>
      </trkpt>
      <trkpt lat="47.65179" lon="4.4056">
        <ele>314.2</ele>
        <time>2026-05-20T08:33:09Z</time>
      </trkpt>
      <trkpt lat="47.65181" lon="4.40562">
        <ele>314.2</ele>
        <time>2026-05-20T08:33:10Z</time>
      </trkpt>
      <trkpt lat="47.65183" lon="4.40566">
        <ele>314.4</ele>
        <time>2026-05-20T08:33:11Z</time>
      </trkpt>
      <trkpt lat="47.65185" lon="4.40568">
        <ele>314.6</ele>
        <time>2026-05-20T08:33:12Z</time>
      </trkpt>
      <trkpt lat="47.65186" lon="4.40572">
        <ele>314.6</ele>
        <time>2026-05-20T08:33:13Z</time>
      </trkpt>
      <trkpt lat="47.65186" lon="4.40572">
        <ele>314.6</ele>
        <time>2026-05-20T08:33:14Z</time>
      </trkpt>
      <trkpt lat="47.6519" lon="4.40577">
        <ele>314.6</ele>
        <time>2026-05-20T08:33:15Z</time>
      </trkpt>
      <trkpt lat="47.65192" lon="4.40579">
        <ele>314.8</ele>
        <time>2026-05-20T08:33:16Z</time>
      </trkpt>
      <trkpt lat="47.65192" lon="4.40579">
        <ele>315</ele>
        <time>2026-05-20T08:33:17Z</time>
      </trkpt>
      <trkpt lat="47.65195" lon="4.40585">
        <ele>315.2</ele>
        <time>2026-05-20T08:33:18Z</time>
      </trkpt>
      <trkpt lat="47.65197" lon="4.40587">
        <ele>315.2</ele>
        <time>2026-05-20T08:33:19Z</time>
      </trkpt>
      <trkpt lat="47.65198" lon="4.40589">
        <ele>315.4</ele>
        <time>2026-05-20T08:33:20Z</time>
      </trkpt>
      <trkpt lat="47.652" lon="4.40592">
        <ele>315.6</ele>
        <time>2026-05-20T08:33:21Z</time>
      </trkpt>
      <trkpt lat="47.65201" lon="4.40594">
        <ele>315.8</ele>
        <time>2026-05-20T08:33:22Z</time>
      </trkpt>
      <trkpt lat="47.65204" lon="4.40596">
        <ele>316</ele>
        <time>2026-05-20T08:33:23Z</time>
      </trkpt>
      <trkpt lat="47.65207" lon="4.40598">
        <ele>316.2</ele>
        <time>2026-05-20T08:33:24Z</time>
      </trkpt>
      <trkpt lat="47.6521" lon="4.40599">
        <ele>316.4</ele>
        <time>2026-05-20T08:33:25Z</time>
      </trkpt>
      <trkpt lat="47.65211" lon="4.40603">
        <ele>316.6</ele>
        <time>2026-05-20T08:33:26Z</time>
      </trkpt>
      <trkpt lat="47.65214" lon="4.40606">
        <ele>316.6</ele>
        <time>2026-05-20T08:33:27Z</time>
      </trkpt>
      <trkpt lat="47.65215" lon="4.40607">
        <ele>316.8</ele>
        <time>2026-05-20T08:33:28Z</time>
      </trkpt>
      <trkpt lat="47.65217" lon="4.4061">
        <ele>316.8</ele>
        <time>2026-05-20T08:33:29Z</time>
      </trkpt>
      <trkpt lat="47.6522" lon="4.40611">
        <ele>316.8</ele>
        <time>2026-05-20T08:33:30Z</time>
      </trkpt>
      <trkpt lat="47.65224" lon="4.40613">
        <ele>317</ele>
        <time>2026-05-20T08:33:31Z</time>
      </trkpt>
      <trkpt lat="47.65227" lon="4.40614">
        <ele>317.2</ele>
        <time>2026-05-20T08:33:32Z</time>
      </trkpt>
      <trkpt lat="47.65229" lon="4.40614">
        <ele>317.4</ele>
        <time>2026-05-20T08:33:33Z</time>
      </trkpt>
      <trkpt lat="47.65233" lon="4.40614">
        <ele>317.4</ele>
        <time>2026-05-20T08:33:34Z</time>
      </trkpt>
      <trkpt lat="47.65236" lon="4.40613">
        <ele>317.6</ele>
        <time>2026-05-20T08:33:35Z</time>
      </trkpt>
      <trkpt lat="47.65238" lon="4.40614">
        <ele>318</ele>
        <time>2026-05-20T08:33:36Z</time>
      </trkpt>
      <trkpt lat="47.6524" lon="4.40615">
        <ele>318.2</ele>
        <time>2026-05-20T08:33:37Z</time>
      </trkpt>
      <trkpt lat="47.65242" lon="4.40617">
        <ele>318.4</ele>
        <time>2026-05-20T08:33:38Z</time>
      </trkpt>
      <trkpt lat="47.65243" lon="4.40619">
        <ele>318.6</ele>
        <time>2026-05-20T08:33:39Z</time>
      </trkpt>
      <trkpt lat="47.65245" lon="4.4062">
        <ele>318.8</ele>
        <time>2026-05-20T08:33:40Z</time>
      </trkpt>
      <trkpt lat="47.65249" lon="4.40622">
        <ele>319</ele>
        <time>2026-05-20T08:33:41Z</time>
      </trkpt>
      <trkpt lat="47.65251" lon="4.40623">
        <ele>319.2</ele>
        <time>2026-05-20T08:33:42Z</time>
      </trkpt>
      <trkpt lat="47.65253" lon="4.40626">
        <ele>319.2</ele>
        <time>2026-05-20T08:33:43Z</time>
      </trkpt>
      <trkpt lat="47.65255" lon="4.40627">
        <ele>319.4</ele>
        <time>2026-05-20T08:33:44Z</time>
      </trkpt>
      <trkpt lat="47.65258" lon="4.40629">
        <ele>319.4</ele>
        <time>2026-05-20T08:33:45Z</time>
      </trkpt>
      <trkpt lat="47.65261" lon="4.4063">
        <ele>319.6</ele>
        <time>2026-05-20T08:33:46Z</time>
      </trkpt>
      <trkpt lat="47.65263" lon="4.4063">
        <ele>319.8</ele>
        <time>2026-05-20T08:33:47Z</time>
      </trkpt>
      <trkpt lat="47.65266" lon="4.40631">
        <ele>319.8</ele>
        <time>2026-05-20T08:33:48Z</time>
      </trkpt>
      <trkpt lat="47.65268" lon="4.40633">
        <ele>319.8</ele>
        <time>2026-05-20T08:33:49Z</time>
      </trkpt>
      <trkpt lat="47.65269" lon="4.40634">
        <ele>319.8</ele>
        <time>2026-05-20T08:33:50Z</time>
      </trkpt>
      <trkpt lat="47.65272" lon="4.40636">
        <ele>319.8</ele>
        <time>2026-05-20T08:33:51Z</time>
      </trkpt>
      <trkpt lat="47.65274" lon="4.40639">
        <ele>319.8</ele>
        <time>2026-05-20T08:33:52Z</time>
      </trkpt>
      <trkpt lat="47.65276" lon="4.40641">
        <ele>320</ele>
        <time>2026-05-20T08:33:53Z</time>
      </trkpt>
      <trkpt lat="47.65278" lon="4.40643">
        <ele>320.2</ele>
        <time>2026-05-20T08:33:54Z</time>
      </trkpt>
      <trkpt lat="47.65279" lon="4.40645">
        <ele>320.4</ele>
        <time>2026-05-20T08:33:55Z</time>
      </trkpt>
      <trkpt lat="47.65281" lon="4.40647">
        <ele>320.6</ele>
        <time>2026-05-20T08:33:56Z</time>
      </trkpt>
      <trkpt lat="47.65284" lon="4.40649">
        <ele>320.6</ele>
        <time>2026-05-20T08:33:57Z</time>
      </trkpt>
      <trkpt lat="47.65286" lon="4.4065">
        <ele>320.8</ele>
        <time>2026-05-20T08:33:58Z</time>
      </trkpt>
      <trkpt lat="47.65288" lon="4.40653">
        <ele>321</ele>
        <time>2026-05-20T08:33:59Z</time>
      </trkpt>
      <trkpt lat="47.65289" lon="4.40654">
        <ele>321</ele>
        <time>2026-05-20T08:34:00Z</time>
      </trkpt>
      <trkpt lat="47.6529" lon="4.40656">
        <ele>321.2</ele>
        <time>2026-05-20T08:34:01Z</time>
      </trkpt>
      <trkpt lat="47.65292" lon="4.40658">
        <ele>321.4</ele>
        <time>2026-05-20T08:34:02Z</time>
      </trkpt>
      <trkpt lat="47.65295" lon="4.40661">
        <ele>321.6</ele>
        <time>2026-05-20T08:34:03Z</time>
      </trkpt>
      <trkpt lat="47.65297" lon="4.40664">
        <ele>321.6</ele>
        <time>2026-05-20T08:34:04Z</time>
      </trkpt>
      <trkpt lat="47.65299" lon="4.40668">
        <ele>321.6</ele>
        <time>2026-05-20T08:34:05Z</time>
      </trkpt>
      <trkpt lat="47.65301" lon="4.40671">
        <ele>321.8</ele>
        <time>2026-05-20T08:34:06Z</time>
      </trkpt>
      <trkpt lat="47.65302" lon="4.40674">
        <ele>322</ele>
        <time>2026-05-20T08:34:07Z</time>
      </trkpt>
      <trkpt lat="47.65304" lon="4.40677">
        <ele>322</ele>
        <time>2026-05-20T08:34:08Z</time>
      </trkpt>
      <trkpt lat="47.65307" lon="4.4068">
        <ele>322.2</ele>
        <time>2026-05-20T08:34:09Z</time>
      </trkpt>
      <trkpt lat="47.65309" lon="4.40682">
        <ele>322.2</ele>
        <time>2026-05-20T08:34:10Z</time>
      </trkpt>
      <trkpt lat="47.65312" lon="4.40685">
        <ele>322.4</ele>
        <time>2026-05-20T08:34:11Z</time>
      </trkpt>
      <trkpt lat="47.65314" lon="4.40687">
        <ele>322.4</ele>
        <time>2026-05-20T08:34:12Z</time>
      </trkpt>
      <trkpt lat="47.65316" lon="4.4069">
        <ele>322.4</ele>
        <time>2026-05-20T08:34:13Z</time>
      </trkpt>
      <trkpt lat="47.65318" lon="4.40693">
        <ele>322.6</ele>
        <time>2026-05-20T08:34:14Z</time>
      </trkpt>
      <trkpt lat="47.6532" lon="4.40696">
        <ele>322.6</ele>
        <time>2026-05-20T08:34:15Z</time>
      </trkpt>
      <trkpt lat="47.65321" lon="4.40699">
        <ele>322.6</ele>
        <time>2026-05-20T08:34:16Z</time>
      </trkpt>
      <trkpt lat="47.65321" lon="4.40699">
        <ele>322.8</ele>
        <time>2026-05-20T08:34:17Z</time>
      </trkpt>
      <trkpt lat="47.65323" lon="4.40705">
        <ele>322.8</ele>
        <time>2026-05-20T08:34:18Z</time>
      </trkpt>
      <trkpt lat="47.65324" lon="4.40707">
        <ele>322.8</ele>
        <time>2026-05-20T08:34:19Z</time>
      </trkpt>
      <trkpt lat="47.65325" lon="4.40709">
        <ele>323</ele>
        <time>2026-05-20T08:34:20Z</time>
      </trkpt>
      <trkpt lat="47.65326" lon="4.40712">
        <ele>323.2</ele>
        <time>2026-05-20T08:34:21Z</time>
      </trkpt>
      <trkpt lat="47.65328" lon="4.40716">
        <ele>323.2</ele>
        <time>2026-05-20T08:34:22Z</time>
      </trkpt>
      <trkpt lat="47.6533" lon="4.40719">
        <ele>323.4</ele>
        <time>2026-05-20T08:34:23Z</time>
      </trkpt>
      <trkpt lat="47.65332" lon="4.40723">
        <ele>323.4</ele>
        <time>2026-05-20T08:34:24Z</time>
      </trkpt>
      <trkpt lat="47.65334" lon="4.40726">
        <ele>323.6</ele>
        <time>2026-05-20T08:34:25Z</time>
      </trkpt>
      <trkpt lat="47.65335" lon="4.40729">
        <ele>323.6</ele>
        <time>2026-05-20T08:34:26Z</time>
      </trkpt>
      <trkpt lat="47.65337" lon="4.40729">
        <ele>323.8</ele>
        <time>2026-05-20T08:34:27Z</time>
      </trkpt>
      <trkpt lat="47.6534" lon="4.40731">
        <ele>323.8</ele>
        <time>2026-05-20T08:34:28Z</time>
      </trkpt>
      <trkpt lat="47.65342" lon="4.40732">
        <ele>324</ele>
        <time>2026-05-20T08:34:29Z</time>
      </trkpt>
      <trkpt lat="47.65343" lon="4.40734">
        <ele>324</ele>
        <time>2026-05-20T08:34:30Z</time>
      </trkpt>
      <trkpt lat="47.65344" lon="4.40736">
        <ele>324.2</ele>
        <time>2026-05-20T08:34:31Z</time>
      </trkpt>
      <trkpt lat="47.65345" lon="4.40737">
        <ele>324.2</ele>
        <time>2026-05-20T08:34:32Z</time>
      </trkpt>
      <trkpt lat="47.65348" lon="4.4074">
        <ele>324.2</ele>
        <time>2026-05-20T08:34:33Z</time>
      </trkpt>
      <trkpt lat="47.65352" lon="4.40743">
        <ele>324.4</ele>
        <time>2026-05-20T08:34:34Z</time>
      </trkpt>
      <trkpt lat="47.65354" lon="4.40745">
        <ele>324.4</ele>
        <time>2026-05-20T08:34:35Z</time>
      </trkpt>
      <trkpt lat="47.65356" lon="4.40747">
        <ele>324.6</ele>
        <time>2026-05-20T08:34:36Z</time>
      </trkpt>
      <trkpt lat="47.65359" lon="4.40748">
        <ele>324.6</ele>
        <time>2026-05-20T08:34:37Z</time>
      </trkpt>
      <trkpt lat="47.6536" lon="4.40751">
        <ele>325</ele>
        <time>2026-05-20T08:34:38Z</time>
      </trkpt>
      <trkpt lat="47.6536" lon="4.40754">
        <ele>325.2</ele>
        <time>2026-05-20T08:34:39Z</time>
      </trkpt>
      <trkpt lat="47.65361" lon="4.40756">
        <ele>325.2</ele>
        <time>2026-05-20T08:34:40Z</time>
      </trkpt>
      <trkpt lat="47.65363" lon="4.40758">
        <ele>325.6</ele>
        <time>2026-05-20T08:34:41Z</time>
      </trkpt>
      <trkpt lat="47.65367" lon="4.4076">
        <ele>325.6</ele>
        <time>2026-05-20T08:34:42Z</time>
      </trkpt>
      <trkpt lat="47.65369" lon="4.40762">
        <ele>325.8</ele>
        <time>2026-05-20T08:34:43Z</time>
      </trkpt>
      <trkpt lat="47.6537" lon="4.40763">
        <ele>325.8</ele>
        <time>2026-05-20T08:34:44Z</time>
      </trkpt>
      <trkpt lat="47.65373" lon="4.40764">
        <ele>326</ele>
        <time>2026-05-20T08:34:45Z</time>
      </trkpt>
      <trkpt lat="47.65375" lon="4.40766">
        <ele>326</ele>
        <time>2026-05-20T08:34:46Z</time>
      </trkpt>
      <trkpt lat="47.65378" lon="4.40769">
        <ele>326.2</ele>
        <time>2026-05-20T08:34:47Z</time>
      </trkpt>
      <trkpt lat="47.65381" lon="4.40772">
        <ele>326.2</ele>
        <time>2026-05-20T08:34:48Z</time>
      </trkpt>
      <trkpt lat="47.65382" lon="4.40774">
        <ele>326.4</ele>
        <time>2026-05-20T08:34:49Z</time>
      </trkpt>
      <trkpt lat="47.65382" lon="4.40774">
        <ele>326.6</ele>
        <time>2026-05-20T08:34:50Z</time>
      </trkpt>
      <trkpt lat="47.65384" lon="4.40778">
        <ele>326.6</ele>
        <time>2026-05-20T08:34:51Z</time>
      </trkpt>
      <trkpt lat="47.65385" lon="4.40781">
        <ele>327</ele>
        <time>2026-05-20T08:34:52Z</time>
      </trkpt>
      <trkpt lat="47.65388" lon="4.40783">
        <ele>327</ele>
        <time>2026-05-20T08:34:53Z</time>
      </trkpt>
      <trkpt lat="47.6539" lon="4.40785">
        <ele>327.2</ele>
        <time>2026-05-20T08:34:54Z</time>
      </trkpt>
      <trkpt lat="47.65392" lon="4.40787">
        <ele>327.4</ele>
        <time>2026-05-20T08:34:55Z</time>
      </trkpt>
      <trkpt lat="47.65394" lon="4.40788">
        <ele>327.6</ele>
        <time>2026-05-20T08:34:56Z</time>
      </trkpt>
      <trkpt lat="47.65397" lon="4.40789">
        <ele>327.8</ele>
        <time>2026-05-20T08:34:57Z</time>
      </trkpt>
      <trkpt lat="47.654" lon="4.40791">
        <ele>328</ele>
        <time>2026-05-20T08:34:58Z</time>
      </trkpt>
      <trkpt lat="47.65403" lon="4.40793">
        <ele>328.2</ele>
        <time>2026-05-20T08:34:59Z</time>
      </trkpt>
      <trkpt lat="47.65404" lon="4.40795">
        <ele>328.4</ele>
        <time>2026-05-20T08:35:00Z</time>
      </trkpt>
      <trkpt lat="47.65406" lon="4.40797">
        <ele>328.4</ele>
        <time>2026-05-20T08:35:01Z</time>
      </trkpt>
      <trkpt lat="47.65408" lon="4.40799">
        <ele>328.6</ele>
        <time>2026-05-20T08:35:02Z</time>
      </trkpt>
      <trkpt lat="47.65411" lon="4.40802">
        <ele>328.8</ele>
        <time>2026-05-20T08:35:03Z</time>
      </trkpt>
      <trkpt lat="47.65413" lon="4.40804">
        <ele>329</ele>
        <time>2026-05-20T08:35:04Z</time>
      </trkpt>
      <trkpt lat="47.65416" lon="4.40805">
        <ele>329.2</ele>
        <time>2026-05-20T08:35:05Z</time>
      </trkpt>
      <trkpt lat="47.65417" lon="4.40807">
        <ele>329.4</ele>
        <time>2026-05-20T08:35:06Z</time>
      </trkpt>
      <trkpt lat="47.6542" lon="4.40809">
        <ele>329.4</ele>
        <time>2026-05-20T08:35:07Z</time>
      </trkpt>
      <trkpt lat="47.65423" lon="4.40811">
        <ele>329.6</ele>
        <time>2026-05-20T08:35:08Z</time>
      </trkpt>
      <trkpt lat="47.65425" lon="4.40812">
        <ele>329.6</ele>
        <time>2026-05-20T08:35:09Z</time>
      </trkpt>
      <trkpt lat="47.65428" lon="4.40812">
        <ele>330</ele>
        <time>2026-05-20T08:35:10Z</time>
      </trkpt>
      <trkpt lat="47.6543" lon="4.40813">
        <ele>330</ele>
        <time>2026-05-20T08:35:11Z</time>
      </trkpt>
      <trkpt lat="47.65431" lon="4.40813">
        <ele>330.2</ele>
        <time>2026-05-20T08:35:12Z</time>
      </trkpt>
      <trkpt lat="47.65432" lon="4.40813">
        <ele>330.2</ele>
        <time>2026-05-20T08:35:13Z</time>
      </trkpt>
      <trkpt lat="47.65433" lon="4.40812">
        <ele>330.4</ele>
        <time>2026-05-20T08:35:14Z</time>
      </trkpt>
      <trkpt lat="47.65435" lon="4.40813">
        <ele>330.4</ele>
        <time>2026-05-20T08:35:15Z</time>
      </trkpt>
      <trkpt lat="47.65437" lon="4.40812">
        <ele>330.4</ele>
        <time>2026-05-20T08:35:16Z</time>
      </trkpt>
      <trkpt lat="47.65439" lon="4.40811">
        <ele>330.6</ele>
        <time>2026-05-20T08:35:17Z</time>
      </trkpt>
      <trkpt lat="47.65439" lon="4.40811">
        <ele>330.6</ele>
        <time>2026-05-20T08:35:18Z</time>
      </trkpt>
      <trkpt lat="47.65441" lon="4.40808">
        <ele>330.8</ele>
        <time>2026-05-20T08:35:19Z</time>
      </trkpt>
      <trkpt lat="47.65442" lon="4.40807">
        <ele>330.8</ele>
        <time>2026-05-20T08:35:20Z</time>
      </trkpt>
      <trkpt lat="47.65443" lon="4.40805">
        <ele>330.8</ele>
        <time>2026-05-20T08:35:21Z</time>
      </trkpt>
      <trkpt lat="47.65444" lon="4.40803">
        <ele>330.8</ele>
        <time>2026-05-20T08:35:22Z</time>
      </trkpt>
      <trkpt lat="47.65445" lon="4.40801">
        <ele>330.8</ele>
        <time>2026-05-20T08:35:23Z</time>
      </trkpt>
      <trkpt lat="47.65446" lon="4.40798">
        <ele>330.8</ele>
        <time>2026-05-20T08:35:24Z</time>
      </trkpt>
      <trkpt lat="47.65447" lon="4.40795">
        <ele>330.8</ele>
        <time>2026-05-20T08:35:25Z</time>
      </trkpt>
      <trkpt lat="47.65447" lon="4.40794">
        <ele>330.8</ele>
        <time>2026-05-20T08:35:26Z</time>
      </trkpt>
      <trkpt lat="47.65447" lon="4.40794">
        <ele>330.8</ele>
        <time>2026-05-20T08:35:27Z</time>
      </trkpt>
      <trkpt lat="47.65447" lon="4.40794">
        <ele>330.8</ele>
        <time>2026-05-20T08:35:28Z</time>
      </trkpt>
      <trkpt lat="47.65451" lon="4.40785">
        <ele>330.4</ele>
        <time>2026-05-20T08:37:25Z</time>
      </trkpt>
      <trkpt lat="47.65452" lon="4.40782">
        <ele>330.4</ele>
        <time>2026-05-20T08:37:26Z</time>
      </trkpt>
      <trkpt lat="47.65453" lon="4.4078">
        <ele>330.4</ele>
        <time>2026-05-20T08:37:27Z</time>
      </trkpt>
      <trkpt lat="47.65455" lon="4.40778">
        <ele>330.4</ele>
        <time>2026-05-20T08:37:28Z</time>
      </trkpt>
      <trkpt lat="47.65456" lon="4.40776">
        <ele>330.4</ele>
        <time>2026-05-20T08:37:29Z</time>
      </trkpt>
      <trkpt lat="47.65458" lon="4.40772">
        <ele>330.4</ele>
        <time>2026-05-20T08:37:30Z</time>
      </trkpt>
      <trkpt lat="47.65459" lon="4.40769">
        <ele>330.4</ele>
        <time>2026-05-20T08:37:31Z</time>
      </trkpt>
      <trkpt lat="47.65461" lon="4.40765">
        <ele>330.2</ele>
        <time>2026-05-20T08:37:32Z</time>
      </trkpt>
      <trkpt lat="47.65463" lon="4.4076">
        <ele>330.2</ele>
        <time>2026-05-20T08:37:33Z</time>
      </trkpt>
      <trkpt lat="47.65465" lon="4.40755">
        <ele>330.2</ele>
        <time>2026-05-20T08:37:34Z</time>
      </trkpt>
      <trkpt lat="47.65468" lon="4.4075">
        <ele>330.2</ele>
        <time>2026-05-20T08:37:35Z</time>
      </trkpt>
      <trkpt lat="47.6547" lon="4.40745">
        <ele>330</ele>
        <time>2026-05-20T08:37:36Z</time>
      </trkpt>
      <trkpt lat="47.65473" lon="4.40739">
        <ele>330</ele>
        <time>2026-05-20T08:37:37Z</time>
      </trkpt>
      <trkpt lat="47.65476" lon="4.40732">
        <ele>329.6</ele>
        <time>2026-05-20T08:37:38Z</time>
      </trkpt>
      <trkpt lat="47.65478" lon="4.40726">
        <ele>329.4</ele>
        <time>2026-05-20T08:37:39Z</time>
      </trkpt>
      <trkpt lat="47.65482" lon="4.40718">
        <ele>329</ele>
        <time>2026-05-20T08:37:40Z</time>
      </trkpt>
      <trkpt lat="47.65484" lon="4.40712">
        <ele>329</ele>
        <time>2026-05-20T08:37:41Z</time>
      </trkpt>
      <trkpt lat="47.65486" lon="4.40706">
        <ele>328.4</ele>
        <time>2026-05-20T08:37:42Z</time>
      </trkpt>
      <trkpt lat="47.65489" lon="4.407">
        <ele>328</ele>
        <time>2026-05-20T08:37:43Z</time>
      </trkpt>
      <trkpt lat="47.65489" lon="4.407">
        <ele>328</ele>
        <time>2026-05-20T08:37:44Z</time>
      </trkpt>
      <trkpt lat="47.65495" lon="4.40688">
        <ele>327.6</ele>
        <time>2026-05-20T08:37:45Z</time>
      </trkpt>
      <trkpt lat="47.65498" lon="4.40683">
        <ele>327.6</ele>
        <time>2026-05-20T08:37:46Z</time>
      </trkpt>
      <trkpt lat="47.655" lon="4.40677">
        <ele>327.2</ele>
        <time>2026-05-20T08:37:47Z</time>
      </trkpt>
      <trkpt lat="47.65503" lon="4.40672">
        <ele>327</ele>
        <time>2026-05-20T08:37:48Z</time>
      </trkpt>
      <trkpt lat="47.65507" lon="4.40666">
        <ele>326.4</ele>
        <time>2026-05-20T08:37:49Z</time>
      </trkpt>
      <trkpt lat="47.6551" lon="4.40662">
        <ele>326.2</ele>
        <time>2026-05-20T08:37:50Z</time>
      </trkpt>
      <trkpt lat="47.65512" lon="4.40657">
        <ele>326</ele>
        <time>2026-05-20T08:37:51Z</time>
      </trkpt>
      <trkpt lat="47.65515" lon="4.40649">
        <ele>326</ele>
        <time>2026-05-20T08:37:52Z</time>
      </trkpt>
      <trkpt lat="47.65518" lon="4.40642">
        <ele>325.8</ele>
        <time>2026-05-20T08:37:53Z</time>
      </trkpt>
      <trkpt lat="47.65523" lon="4.40633">
        <ele>325.8</ele>
        <time>2026-05-20T08:37:54Z</time>
      </trkpt>
      <trkpt lat="47.65526" lon="4.40626">
        <ele>325.6</ele>
        <time>2026-05-20T08:37:55Z</time>
      </trkpt>
      <trkpt lat="47.65528" lon="4.40621">
        <ele>325.2</ele>
        <time>2026-05-20T08:37:56Z</time>
      </trkpt>
      <trkpt lat="47.6553" lon="4.40616">
        <ele>325</ele>
        <time>2026-05-20T08:37:57Z</time>
      </trkpt>
      <trkpt lat="47.65533" lon="4.4061">
        <ele>324.4</ele>
        <time>2026-05-20T08:37:58Z</time>
      </trkpt>
      <trkpt lat="47.65536" lon="4.40605">
        <ele>324.2</ele>
        <time>2026-05-20T08:37:59Z</time>
      </trkpt>
      <trkpt lat="47.65538" lon="4.40599">
        <ele>324</ele>
        <time>2026-05-20T08:38:00Z</time>
      </trkpt>
      <trkpt lat="47.65541" lon="4.40592">
        <ele>323.6</ele>
        <time>2026-05-20T08:38:01Z</time>
      </trkpt>
      <trkpt lat="47.65543" lon="4.40587">
        <ele>323.2</ele>
        <time>2026-05-20T08:38:02Z</time>
      </trkpt>
      <trkpt lat="47.65545" lon="4.40582">
        <ele>322.6</ele>
        <time>2026-05-20T08:38:03Z</time>
      </trkpt>
      <trkpt lat="47.65547" lon="4.40577">
        <ele>322.4</ele>
        <time>2026-05-20T08:38:04Z</time>
      </trkpt>
      <trkpt lat="47.65549" lon="4.40571">
        <ele>322</ele>
        <time>2026-05-20T08:38:05Z</time>
      </trkpt>
      <trkpt lat="47.65552" lon="4.40567">
        <ele>321.6</ele>
        <time>2026-05-20T08:38:06Z</time>
      </trkpt>
      <trkpt lat="47.65554" lon="4.40562">
        <ele>321</ele>
        <time>2026-05-20T08:38:07Z</time>
      </trkpt>
      <trkpt lat="47.65557" lon="4.40556">
        <ele>320.8</ele>
        <time>2026-05-20T08:38:08Z</time>
      </trkpt>
      <trkpt lat="47.65559" lon="4.40551">
        <ele>320.4</ele>
        <time>2026-05-20T08:38:09Z</time>
      </trkpt>
      <trkpt lat="47.65561" lon="4.40545">
        <ele>319.6</ele>
        <time>2026-05-20T08:38:10Z</time>
      </trkpt>
      <trkpt lat="47.65564" lon="4.40539">
        <ele>319.4</ele>
        <time>2026-05-20T08:38:11Z</time>
      </trkpt>
      <trkpt lat="47.65566" lon="4.40535">
        <ele>318.8</ele>
        <time>2026-05-20T08:38:12Z</time>
      </trkpt>
      <trkpt lat="47.65568" lon="4.40531">
        <ele>318.6</ele>
        <time>2026-05-20T08:38:13Z</time>
      </trkpt>
      <trkpt lat="47.6557" lon="4.40527">
        <ele>318</ele>
        <time>2026-05-20T08:38:14Z</time>
      </trkpt>
      <trkpt lat="47.65572" lon="4.40521">
        <ele>317.6</ele>
        <time>2026-05-20T08:38:15Z</time>
      </trkpt>
      <trkpt lat="47.65575" lon="4.40512">
        <ele>316.6</ele>
        <time>2026-05-20T08:38:16Z</time>
      </trkpt>
      <trkpt lat="47.65577" lon="4.40506">
        <ele>316</ele>
        <time>2026-05-20T08:38:17Z</time>
      </trkpt>
      <trkpt lat="47.65579" lon="4.40503">
        <ele>315.4</ele>
        <time>2026-05-20T08:38:18Z</time>
      </trkpt>
      <trkpt lat="47.6558" lon="4.40498">
        <ele>314.4</ele>
        <time>2026-05-20T08:38:19Z</time>
      </trkpt>
      <trkpt lat="47.65583" lon="4.40492">
        <ele>314</ele>
        <time>2026-05-20T08:38:20Z</time>
      </trkpt>
      <trkpt lat="47.65586" lon="4.40486">
        <ele>312.8</ele>
        <time>2026-05-20T08:38:21Z</time>
      </trkpt>
      <trkpt lat="47.65589" lon="4.40481">
        <ele>312.4</ele>
        <time>2026-05-20T08:38:22Z</time>
      </trkpt>
      <trkpt lat="47.65591" lon="4.40476">
        <ele>311.8</ele>
        <time>2026-05-20T08:38:23Z</time>
      </trkpt>
      <trkpt lat="47.65593" lon="4.40472">
        <ele>311.6</ele>
        <time>2026-05-20T08:38:24Z</time>
      </trkpt>
      <trkpt lat="47.65595" lon="4.40468">
        <ele>310.8</ele>
        <time>2026-05-20T08:38:25Z</time>
      </trkpt>
      <trkpt lat="47.65598" lon="4.40461">
        <ele>310.2</ele>
        <time>2026-05-20T08:38:26Z</time>
      </trkpt>
      <trkpt lat="47.65601" lon="4.40455">
        <ele>309.4</ele>
        <time>2026-05-20T08:38:27Z</time>
      </trkpt>
      <trkpt lat="47.65604" lon="4.40448">
        <ele>308.4</ele>
        <time>2026-05-20T08:38:28Z</time>
      </trkpt>
      <trkpt lat="47.65605" lon="4.40443">
        <ele>308.2</ele>
        <time>2026-05-20T08:38:29Z</time>
      </trkpt>
      <trkpt lat="47.65608" lon="4.40439">
        <ele>307.4</ele>
        <time>2026-05-20T08:38:30Z</time>
      </trkpt>
      <trkpt lat="47.65612" lon="4.40433">
        <ele>307</ele>
        <time>2026-05-20T08:38:31Z</time>
      </trkpt>
      <trkpt lat="47.65615" lon="4.40429">
        <ele>305.8</ele>
        <time>2026-05-20T08:38:32Z</time>
      </trkpt>
      <trkpt lat="47.65616" lon="4.40426">
        <ele>305</ele>
        <time>2026-05-20T08:38:33Z</time>
      </trkpt>
      <trkpt lat="47.65617" lon="4.40423">
        <ele>304</ele>
        <time>2026-05-20T08:38:34Z</time>
      </trkpt>
      <trkpt lat="47.65618" lon="4.4042">
        <ele>303.6</ele>
        <time>2026-05-20T08:38:35Z</time>
      </trkpt>
      <trkpt lat="47.65618" lon="4.40417">
        <ele>302.8</ele>
        <time>2026-05-20T08:38:36Z</time>
      </trkpt>
      <trkpt lat="47.6562" lon="4.40412">
        <ele>301.8</ele>
        <time>2026-05-20T08:38:37Z</time>
      </trkpt>
      <trkpt lat="47.65622" lon="4.40405">
        <ele>301</ele>
        <time>2026-05-20T08:38:38Z</time>
      </trkpt>
      <trkpt lat="47.65624" lon="4.40399">
        <ele>300.6</ele>
        <time>2026-05-20T08:38:39Z</time>
      </trkpt>
      <trkpt lat="47.65626" lon="4.40394">
        <ele>300.4</ele>
        <time>2026-05-20T08:38:40Z</time>
      </trkpt>
      <trkpt lat="47.65629" lon="4.40387">
        <ele>299</ele>
        <time>2026-05-20T08:38:41Z</time>
      </trkpt>
      <trkpt lat="47.6563" lon="4.40381">
        <ele>298.6</ele>
        <time>2026-05-20T08:38:42Z</time>
      </trkpt>
      <trkpt lat="47.65632" lon="4.40376">
        <ele>297.4</ele>
        <time>2026-05-20T08:38:43Z</time>
      </trkpt>
      <trkpt lat="47.65635" lon="4.40371">
        <ele>297</ele>
        <time>2026-05-20T08:38:44Z</time>
      </trkpt>
      <trkpt lat="47.65638" lon="4.40365">
        <ele>296</ele>
        <time>2026-05-20T08:38:45Z</time>
      </trkpt>
      <trkpt lat="47.6564" lon="4.40361">
        <ele>293.6</ele>
        <time>2026-05-20T08:38:46Z</time>
      </trkpt>
      <trkpt lat="47.65643" lon="4.40356">
        <ele>293</ele>
        <time>2026-05-20T08:38:47Z</time>
      </trkpt>
      <trkpt lat="47.65646" lon="4.40349">
        <ele>290.8</ele>
        <time>2026-05-20T08:38:48Z</time>
      </trkpt>
      <trkpt lat="47.65648" lon="4.40344">
        <ele>290</ele>
        <time>2026-05-20T08:38:49Z</time>
      </trkpt>
      <trkpt lat="47.6565" lon="4.40339">
        <ele>288.4</ele>
        <time>2026-05-20T08:38:50Z</time>
      </trkpt>
      <trkpt lat="47.65654" lon="4.40332">
        <ele>287.8</ele>
        <time>2026-05-20T08:38:51Z</time>
      </trkpt>
      <trkpt lat="47.65657" lon="4.40325">
        <ele>286.6</ele>
        <time>2026-05-20T08:38:52Z</time>
      </trkpt>
      <trkpt lat="47.65659" lon="4.40318">
        <ele>286</ele>
        <time>2026-05-20T08:38:53Z</time>
      </trkpt>
      <trkpt lat="47.65663" lon="4.4031">
        <ele>285</ele>
        <time>2026-05-20T08:38:54Z</time>
      </trkpt>
      <trkpt lat="47.65666" lon="4.40302">
        <ele>283.8</ele>
        <time>2026-05-20T08:38:55Z</time>
      </trkpt>
      <trkpt lat="47.65668" lon="4.40297">
        <ele>283.6</ele>
        <time>2026-05-20T08:38:56Z</time>
      </trkpt>
      <trkpt lat="47.6567" lon="4.40293">
        <ele>282.8</ele>
        <time>2026-05-20T08:38:57Z</time>
      </trkpt>
      <trkpt lat="47.65673" lon="4.40287">
        <ele>282.4</ele>
        <time>2026-05-20T08:38:58Z</time>
      </trkpt>
      <trkpt lat="47.65675" lon="4.40286">
        <ele>281.6</ele>
        <time>2026-05-20T08:38:59Z</time>
      </trkpt>
      <trkpt lat="47.65676" lon="4.40285">
        <ele>280.8</ele>
        <time>2026-05-20T08:39:00Z</time>
      </trkpt>
      <trkpt lat="47.65677" lon="4.40283">
        <ele>279.8</ele>
        <time>2026-05-20T08:39:01Z</time>
      </trkpt>
      <trkpt lat="47.65679" lon="4.40282">
        <ele>279.6</ele>
        <time>2026-05-20T08:39:02Z</time>
      </trkpt>
      <trkpt lat="47.65681" lon="4.40282">
        <ele>279</ele>
        <time>2026-05-20T08:39:03Z</time>
      </trkpt>
      <trkpt lat="47.65683" lon="4.40281">
        <ele>278.2</ele>
        <time>2026-05-20T08:39:04Z</time>
      </trkpt>
      <trkpt lat="47.65686" lon="4.40279">
        <ele>277.8</ele>
        <time>2026-05-20T08:39:05Z</time>
      </trkpt>
      <trkpt lat="47.6569" lon="4.40275">
        <ele>277.6</ele>
        <time>2026-05-20T08:39:06Z</time>
      </trkpt>
      <trkpt lat="47.65695" lon="4.40272">
        <ele>277.4</ele>
        <time>2026-05-20T08:39:07Z</time>
      </trkpt>
      <trkpt lat="47.65699" lon="4.40269">
        <ele>277.4</ele>
        <time>2026-05-20T08:39:08Z</time>
      </trkpt>
      <trkpt lat="47.65703" lon="4.40267">
        <ele>277.4</ele>
        <time>2026-05-20T08:39:09Z</time>
      </trkpt>
      <trkpt lat="47.65706" lon="4.40266">
        <ele>277.4</ele>
        <time>2026-05-20T08:39:10Z</time>
      </trkpt>
      <trkpt lat="47.65709" lon="4.40262">
        <ele>277.4</ele>
        <time>2026-05-20T08:39:11Z</time>
      </trkpt>
      <trkpt lat="47.6571" lon="4.40259">
        <ele>277.4</ele>
        <time>2026-05-20T08:39:12Z</time>
      </trkpt>
      <trkpt lat="47.65711" lon="4.40253">
        <ele>277.2</ele>
        <time>2026-05-20T08:39:13Z</time>
      </trkpt>
      <trkpt lat="47.65713" lon="4.40247">
        <ele>277.4</ele>
        <time>2026-05-20T08:39:14Z</time>
      </trkpt>
      <trkpt lat="47.65714" lon="4.40243">
        <ele>277.4</ele>
        <time>2026-05-20T08:39:15Z</time>
      </trkpt>
      <trkpt lat="47.65715" lon="4.40239">
        <ele>277.6</ele>
        <time>2026-05-20T08:39:16Z</time>
      </trkpt>
      <trkpt lat="47.65717" lon="4.40236">
        <ele>277.8</ele>
        <time>2026-05-20T08:39:17Z</time>
      </trkpt>
      <trkpt lat="47.65718" lon="4.40234">
        <ele>277.8</ele>
        <time>2026-05-20T08:39:18Z</time>
      </trkpt>
      <trkpt lat="47.65719" lon="4.40233">
        <ele>278.2</ele>
        <time>2026-05-20T08:39:19Z</time>
      </trkpt>
      <trkpt lat="47.6572" lon="4.40231">
        <ele>278.4</ele>
        <time>2026-05-20T08:39:20Z</time>
      </trkpt>
      <trkpt lat="47.65721" lon="4.40228">
        <ele>278.6</ele>
        <time>2026-05-20T08:39:21Z</time>
      </trkpt>
      <trkpt lat="47.65723" lon="4.40223">
        <ele>278.8</ele>
        <time>2026-05-20T08:39:22Z</time>
      </trkpt>
      <trkpt lat="47.65724" lon="4.4022">
        <ele>279</ele>
        <time>2026-05-20T08:39:23Z</time>
      </trkpt>
      <trkpt lat="47.65724" lon="4.40219">
        <ele>279.4</ele>
        <time>2026-05-20T08:39:24Z</time>
      </trkpt>
      <trkpt lat="47.65725" lon="4.40219">
        <ele>279.6</ele>
        <time>2026-05-20T08:39:25Z</time>
      </trkpt>
      <trkpt lat="47.65726" lon="4.40217">
        <ele>279.8</ele>
        <time>2026-05-20T08:39:26Z</time>
      </trkpt>
      <trkpt lat="47.65726" lon="4.40216">
        <ele>280</ele>
        <time>2026-05-20T08:39:27Z</time>
      </trkpt>
      <trkpt lat="47.65726" lon="4.40214">
        <ele>280.4</ele>
        <time>2026-05-20T08:39:28Z</time>
      </trkpt>
      <trkpt lat="47.65727" lon="4.40213">
        <ele>280.2</ele>
        <time>2026-05-20T08:39:29Z</time>
      </trkpt>
      <trkpt lat="47.65727" lon="4.40213">
        <ele>280.8</ele>
        <time>2026-05-20T08:39:30Z</time>
      </trkpt>
      <trkpt lat="47.65728" lon="4.40211">
        <ele>281</ele>
        <time>2026-05-20T08:39:31Z</time>
      </trkpt>
      <trkpt lat="47.65729" lon="4.40207">
        <ele>281.2</ele>
        <time>2026-05-20T08:39:32Z</time>
      </trkpt>
      <trkpt lat="47.6573" lon="4.40206">
        <ele>281.4</ele>
        <time>2026-05-20T08:39:33Z</time>
      </trkpt>
      <trkpt lat="47.6573" lon="4.40206">
        <ele>281.6</ele>
        <time>2026-05-20T08:39:34Z</time>
      </trkpt>
      <trkpt lat="47.6573" lon="4.40206">
        <ele>281.8</ele>
        <time>2026-05-20T08:39:35Z</time>
      </trkpt>
      <trkpt lat="47.6573" lon="4.40206">
        <ele>282</ele>
        <time>2026-05-20T08:39:36Z</time>
      </trkpt>
      <trkpt lat="47.6573" lon="4.40206">
        <ele>282.2</ele>
        <time>2026-05-20T08:39:37Z</time>
      </trkpt>
      <trkpt lat="47.6573" lon="4.40206">
        <ele>282.4</ele>
        <time>2026-05-20T08:39:38Z</time>
      </trkpt>
      <trkpt lat="47.65733" lon="4.40198">
        <ele>282.8</ele>
        <time>2026-05-20T08:39:39Z</time>
      </trkpt>
      <trkpt lat="47.65739" lon="4.40188">
        <ele>283</ele>
        <time>2026-05-20T08:39:40Z</time>
      </trkpt>
      <trkpt lat="47.65743" lon="4.4018">
        <ele>283.2</ele>
        <time>2026-05-20T08:39:41Z</time>
      </trkpt>
      <trkpt lat="47.65745" lon="4.40175">
        <ele>283.4</ele>
        <time>2026-05-20T08:39:42Z</time>
      </trkpt>
      <trkpt lat="47.65748" lon="4.40171">
        <ele>283.6</ele>
        <time>2026-05-20T08:39:43Z</time>
      </trkpt>
      <trkpt lat="47.65749" lon="4.4017">
        <ele>283.8</ele>
        <time>2026-05-20T08:39:44Z</time>
      </trkpt>
      <trkpt lat="47.65751" lon="4.40168">
        <ele>283.8</ele>
        <time>2026-05-20T08:39:45Z</time>
      </trkpt>
      <trkpt lat="47.65752" lon="4.40164">
        <ele>284</ele>
        <time>2026-05-20T08:39:46Z</time>
      </trkpt>
      <trkpt lat="47.65753" lon="4.40158">
        <ele>284.2</ele>
        <time>2026-05-20T08:39:47Z</time>
      </trkpt>
      <trkpt lat="47.65755" lon="4.40153">
        <ele>284.6</ele>
        <time>2026-05-20T08:39:48Z</time>
      </trkpt>
      <trkpt lat="47.65756" lon="4.4015">
        <ele>284.8</ele>
        <time>2026-05-20T08:39:49Z</time>
      </trkpt>
      <trkpt lat="47.65757" lon="4.40148">
        <ele>285</ele>
        <time>2026-05-20T08:39:50Z</time>
      </trkpt>
      <trkpt lat="47.65759" lon="4.40146">
        <ele>285.2</ele>
        <time>2026-05-20T08:39:51Z</time>
      </trkpt>
      <trkpt lat="47.6576" lon="4.40145">
        <ele>285.4</ele>
        <time>2026-05-20T08:39:52Z</time>
      </trkpt>
      <trkpt lat="47.65762" lon="4.40143">
        <ele>285.8</ele>
        <time>2026-05-20T08:39:53Z</time>
      </trkpt>
      <trkpt lat="47.65763" lon="4.4014">
        <ele>285.8</ele>
        <time>2026-05-20T08:39:54Z</time>
      </trkpt>
      <trkpt lat="47.65764" lon="4.40137">
        <ele>286</ele>
        <time>2026-05-20T08:39:55Z</time>
      </trkpt>
      <trkpt lat="47.65765" lon="4.40135">
        <ele>286.2</ele>
        <time>2026-05-20T08:39:56Z</time>
      </trkpt>
      <trkpt lat="47.65767" lon="4.4013">
        <ele>286.4</ele>
        <time>2026-05-20T08:39:57Z</time>
      </trkpt>
      <trkpt lat="47.65768" lon="4.40126">
        <ele>286.6</ele>
        <time>2026-05-20T08:39:58Z</time>
      </trkpt>
      <trkpt lat="47.6577" lon="4.40121">
        <ele>286.8</ele>
        <time>2026-05-20T08:39:59Z</time>
      </trkpt>
      <trkpt lat="47.65772" lon="4.40119">
        <ele>287</ele>
        <time>2026-05-20T08:40:00Z</time>
      </trkpt>
      <trkpt lat="47.65772" lon="4.40118">
        <ele>287.2</ele>
        <time>2026-05-20T08:40:01Z</time>
      </trkpt>
      <trkpt lat="47.65773" lon="4.40115">
        <ele>287.4</ele>
        <time>2026-05-20T08:40:02Z</time>
      </trkpt>
      <trkpt lat="47.65774" lon="4.40113">
        <ele>287.6</ele>
        <time>2026-05-20T08:40:03Z</time>
      </trkpt>
      <trkpt lat="47.65777" lon="4.40108">
        <ele>287.8</ele>
        <time>2026-05-20T08:40:04Z</time>
      </trkpt>
      <trkpt lat="47.65779" lon="4.40102">
        <ele>287.8</ele>
        <time>2026-05-20T08:40:05Z</time>
      </trkpt>
      <trkpt lat="47.65779" lon="4.40102">
        <ele>288.2</ele>
        <time>2026-05-20T08:40:06Z</time>
      </trkpt>
      <trkpt lat="47.65781" lon="4.40099">
        <ele>288.2</ele>
        <time>2026-05-20T08:40:07Z</time>
      </trkpt>
      <trkpt lat="47.65783" lon="4.40096">
        <ele>288.4</ele>
        <time>2026-05-20T08:40:08Z</time>
      </trkpt>
      <trkpt lat="47.65784" lon="4.40094">
        <ele>288.8</ele>
        <time>2026-05-20T08:40:09Z</time>
      </trkpt>
      <trkpt lat="47.65785" lon="4.40092">
        <ele>288.8</ele>
        <time>2026-05-20T08:40:10Z</time>
      </trkpt>
      <trkpt lat="47.65785" lon="4.40092">
        <ele>289.2</ele>
        <time>2026-05-20T08:40:11Z</time>
      </trkpt>
      <trkpt lat="47.65785" lon="4.40092">
        <ele>289.2</ele>
        <time>2026-05-20T08:40:12Z</time>
      </trkpt>
      <trkpt lat="47.65785" lon="4.40089">
        <ele>289.4</ele>
        <time>2026-05-20T08:40:13Z</time>
      </trkpt>
      <trkpt lat="47.6585" lon="4.39993">
        <ele>297.2</ele>
        <time>2026-05-20T08:41:00Z</time>
      </trkpt>
      <trkpt lat="47.65852" lon="4.39992">
        <ele>297.2</ele>
        <time>2026-05-20T08:41:01Z</time>
      </trkpt>
      <trkpt lat="47.65854" lon="4.3999">
        <ele>297.6</ele>
        <time>2026-05-20T08:41:02Z</time>
      </trkpt>
      <trkpt lat="47.65856" lon="4.39987">
        <ele>297.8</ele>
        <time>2026-05-20T08:41:03Z</time>
      </trkpt>
      <trkpt lat="47.6586" lon="4.39983">
        <ele>298</ele>
        <time>2026-05-20T08:41:04Z</time>
      </trkpt>
      <trkpt lat="47.65862" lon="4.3998">
        <ele>298.4</ele>
        <time>2026-05-20T08:41:05Z</time>
      </trkpt>
      <trkpt lat="47.65865" lon="4.39978">
        <ele>298.4</ele>
        <time>2026-05-20T08:41:06Z</time>
      </trkpt>
      <trkpt lat="47.65866" lon="4.39978">
        <ele>298.8</ele>
        <time>2026-05-20T08:41:07Z</time>
      </trkpt>
      <trkpt lat="47.65867" lon="4.39978">
        <ele>298.8</ele>
        <time>2026-05-20T08:41:08Z</time>
      </trkpt>
      <trkpt lat="47.65868" lon="4.39978">
        <ele>299.2</ele>
        <time>2026-05-20T08:41:09Z</time>
      </trkpt>
      <trkpt lat="47.65869" lon="4.39978">
        <ele>299.2</ele>
        <time>2026-05-20T08:41:10Z</time>
      </trkpt>
      <trkpt lat="47.65871" lon="4.39978">
        <ele>299.6</ele>
        <time>2026-05-20T08:41:11Z</time>
      </trkpt>
      <trkpt lat="47.65872" lon="4.39977">
        <ele>299.6</ele>
        <time>2026-05-20T08:41:12Z</time>
      </trkpt>
      <trkpt lat="47.65874" lon="4.39976">
        <ele>299.8</ele>
        <time>2026-05-20T08:41:13Z</time>
      </trkpt>
      <trkpt lat="47.65876" lon="4.39976">
        <ele>300.2</ele>
        <time>2026-05-20T08:41:14Z</time>
      </trkpt>
      <trkpt lat="47.65877" lon="4.39976">
        <ele>300.4</ele>
        <time>2026-05-20T08:41:15Z</time>
      </trkpt>
      <trkpt lat="47.65878" lon="4.39976">
        <ele>300.6</ele>
        <time>2026-05-20T08:41:16Z</time>
      </trkpt>
      <trkpt lat="47.6588" lon="4.39975">
        <ele>300.8</ele>
        <time>2026-05-20T08:41:17Z</time>
      </trkpt>
      <trkpt lat="47.65882" lon="4.39976">
        <ele>301</ele>
        <time>2026-05-20T08:41:18Z</time>
      </trkpt>
      <trkpt lat="47.65883" lon="4.39975">
        <ele>301.2</ele>
        <time>2026-05-20T08:41:19Z</time>
      </trkpt>
      <trkpt lat="47.65885" lon="4.39975">
        <ele>301.4</ele>
        <time>2026-05-20T08:41:20Z</time>
      </trkpt>
      <trkpt lat="47.65887" lon="4.39974">
        <ele>301.8</ele>
        <time>2026-05-20T08:41:21Z</time>
      </trkpt>
      <trkpt lat="47.65889" lon="4.39974">
        <ele>301.8</ele>
        <time>2026-05-20T08:41:22Z</time>
      </trkpt>
      <trkpt lat="47.65891" lon="4.39972">
        <ele>302</ele>
        <time>2026-05-20T08:41:23Z</time>
      </trkpt>
      <trkpt lat="47.65892" lon="4.39972">
        <ele>302</ele>
        <time>2026-05-20T08:41:24Z</time>
      </trkpt>
      <trkpt lat="47.65894" lon="4.39972">
        <ele>302.6</ele>
        <time>2026-05-20T08:41:25Z</time>
      </trkpt>
      <trkpt lat="47.65895" lon="4.39974">
        <ele>302.8</ele>
        <time>2026-05-20T08:41:26Z</time>
      </trkpt>
      <trkpt lat="47.65897" lon="4.39974">
        <ele>303</ele>
        <time>2026-05-20T08:41:27Z</time>
      </trkpt>
      <trkpt lat="47.65898" lon="4.39973">
        <ele>303.2</ele>
        <time>2026-05-20T08:41:28Z</time>
      </trkpt>
      <trkpt lat="47.65899" lon="4.39973">
        <ele>303.2</ele>
        <time>2026-05-20T08:41:29Z</time>
      </trkpt>
      <trkpt lat="47.65899" lon="4.39973">
        <ele>303.6</ele>
        <time>2026-05-20T08:41:30Z</time>
      </trkpt>
      <trkpt lat="47.65901" lon="4.39973">
        <ele>303.6</ele>
        <time>2026-05-20T08:41:31Z</time>
      </trkpt>
      <trkpt lat="47.65902" lon="4.39973">
        <ele>303.8</ele>
        <time>2026-05-20T08:41:32Z</time>
      </trkpt>
      <trkpt lat="47.65906" lon="4.39974">
        <ele>304</ele>
        <time>2026-05-20T08:41:33Z</time>
      </trkpt>
      <trkpt lat="47.65909" lon="4.39975">
        <ele>304.2</ele>
        <time>2026-05-20T08:41:34Z</time>
      </trkpt>
      <trkpt lat="47.65912" lon="4.39975">
        <ele>304.4</ele>
        <time>2026-05-20T08:41:35Z</time>
      </trkpt>
      <trkpt lat="47.65914" lon="4.39975">
        <ele>304.6</ele>
        <time>2026-05-20T08:41:36Z</time>
      </trkpt>
      <trkpt lat="47.65916" lon="4.39976">
        <ele>304.8</ele>
        <time>2026-05-20T08:41:37Z</time>
      </trkpt>
      <trkpt lat="47.65918" lon="4.39975">
        <ele>304.8</ele>
        <time>2026-05-20T08:41:38Z</time>
      </trkpt>
      <trkpt lat="47.6592" lon="4.39975">
        <ele>305</ele>
        <time>2026-05-20T08:41:39Z</time>
      </trkpt>
      <trkpt lat="47.65922" lon="4.39976">
        <ele>305.2</ele>
        <time>2026-05-20T08:41:40Z</time>
      </trkpt>
      <trkpt lat="47.65923" lon="4.39976">
        <ele>305.4</ele>
        <time>2026-05-20T08:41:41Z</time>
      </trkpt>
      <trkpt lat="47.65924" lon="4.39976">
        <ele>305.4</ele>
        <time>2026-05-20T08:41:42Z</time>
      </trkpt>
      <trkpt lat="47.65925" lon="4.39976">
        <ele>305.8</ele>
        <time>2026-05-20T08:41:43Z</time>
      </trkpt>
      <trkpt lat="47.65927" lon="4.39976">
        <ele>305.8</ele>
        <time>2026-05-20T08:41:44Z</time>
      </trkpt>
      <trkpt lat="47.65929" lon="4.39978">
        <ele>306</ele>
        <time>2026-05-20T08:41:45Z</time>
      </trkpt>
      <trkpt lat="47.65932" lon="4.39978">
        <ele>306.2</ele>
        <time>2026-05-20T08:41:46Z</time>
      </trkpt>
      <trkpt lat="47.65934" lon="4.39978">
        <ele>306.4</ele>
        <time>2026-05-20T08:41:47Z</time>
      </trkpt>
      <trkpt lat="47.65934" lon="4.39978">
        <ele>306.4</ele>
        <time>2026-05-20T08:41:48Z</time>
      </trkpt>
      <trkpt lat="47.65934" lon="4.39978">
        <ele>306.6</ele>
        <time>2026-05-20T08:41:49Z</time>
      </trkpt>
      <trkpt lat="47.65936" lon="4.39978">
        <ele>306.8</ele>
        <time>2026-05-20T08:41:50Z</time>
      </trkpt>
      <trkpt lat="47.65938" lon="4.39978">
        <ele>306.8</ele>
        <time>2026-05-20T08:41:51Z</time>
      </trkpt>
      <trkpt lat="47.6594" lon="4.39978">
        <ele>307</ele>
        <time>2026-05-20T08:41:52Z</time>
      </trkpt>
      <trkpt lat="47.65942" lon="4.39978">
        <ele>307</ele>
        <time>2026-05-20T08:41:53Z</time>
      </trkpt>
      <trkpt lat="47.65942" lon="4.39978">
        <ele>307.2</ele>
        <time>2026-05-20T08:41:54Z</time>
      </trkpt>
      <trkpt lat="47.65944" lon="4.39979">
        <ele>307.2</ele>
        <time>2026-05-20T08:41:55Z</time>
      </trkpt>
      <trkpt lat="47.65946" lon="4.3998">
        <ele>307.4</ele>
        <time>2026-05-20T08:41:56Z</time>
      </trkpt>
      <trkpt lat="47.65948" lon="4.39979">
        <ele>307.6</ele>
        <time>2026-05-20T08:41:57Z</time>
      </trkpt>
      <trkpt lat="47.65949" lon="4.39979">
        <ele>307.8</ele>
        <time>2026-05-20T08:41:58Z</time>
      </trkpt>
      <trkpt lat="47.65951" lon="4.3998">
        <ele>308</ele>
        <time>2026-05-20T08:41:59Z</time>
      </trkpt>
      <trkpt lat="47.65953" lon="4.39981">
        <ele>308.2</ele>
        <time>2026-05-20T08:42:00Z</time>
      </trkpt>
      <trkpt lat="47.65955" lon="4.39981">
        <ele>308.4</ele>
        <time>2026-05-20T08:42:01Z</time>
      </trkpt>
      <trkpt lat="47.65956" lon="4.39981">
        <ele>308.6</ele>
        <time>2026-05-20T08:42:02Z</time>
      </trkpt>
      <trkpt lat="47.65957" lon="4.39981">
        <ele>308.8</ele>
        <time>2026-05-20T08:42:03Z</time>
      </trkpt>
      <trkpt lat="47.65958" lon="4.39981">
        <ele>309</ele>
        <time>2026-05-20T08:42:04Z</time>
      </trkpt>
      <trkpt lat="47.65961" lon="4.39981">
        <ele>309.4</ele>
        <time>2026-05-20T08:42:05Z</time>
      </trkpt>
      <trkpt lat="47.65963" lon="4.39979">
        <ele>309.4</ele>
        <time>2026-05-20T08:42:06Z</time>
      </trkpt>
      <trkpt lat="47.65966" lon="4.39975">
        <ele>309.6</ele>
        <time>2026-05-20T08:42:07Z</time>
      </trkpt>
      <trkpt lat="47.65966" lon="4.39975">
        <ele>309.8</ele>
        <time>2026-05-20T08:42:08Z</time>
      </trkpt>
      <trkpt lat="47.65969" lon="4.39971">
        <ele>309.8</ele>
        <time>2026-05-20T08:42:09Z</time>
      </trkpt>
      <trkpt lat="47.65971" lon="4.39969">
        <ele>310.2</ele>
        <time>2026-05-20T08:42:10Z</time>
      </trkpt>
      <trkpt lat="47.65971" lon="4.39968">
        <ele>310.4</ele>
        <time>2026-05-20T08:42:11Z</time>
      </trkpt>
      <trkpt lat="47.65971" lon="4.39968">
        <ele>310.6</ele>
        <time>2026-05-20T08:42:12Z</time>
      </trkpt>
      <trkpt lat="47.65965" lon="4.39812">
        <ele>330</ele>
        <time>2026-05-20T08:43:41Z</time>
      </trkpt>
      <trkpt lat="47.65962" lon="4.39809">
        <ele>330.2</ele>
        <time>2026-05-20T08:43:42Z</time>
      </trkpt>
      <trkpt lat="47.65959" lon="4.39807">
        <ele>330.2</ele>
        <time>2026-05-20T08:43:43Z</time>
      </trkpt>
      <trkpt lat="47.65957" lon="4.39804">
        <ele>330.2</ele>
        <time>2026-05-20T08:43:44Z</time>
      </trkpt>
      <trkpt lat="47.65955" lon="4.39803">
        <ele>330.2</ele>
        <time>2026-05-20T08:43:45Z</time>
      </trkpt>
      <trkpt lat="47.65952" lon="4.39801">
        <ele>330.2</ele>
        <time>2026-05-20T08:43:46Z</time>
      </trkpt>
      <trkpt lat="47.6595" lon="4.398">
        <ele>330.4</ele>
        <time>2026-05-20T08:43:47Z</time>
      </trkpt>
      <trkpt lat="47.65948" lon="4.39797">
        <ele>330.4</ele>
        <time>2026-05-20T08:43:48Z</time>
      </trkpt>
      <trkpt lat="47.65946" lon="4.39795">
        <ele>330.4</ele>
        <time>2026-05-20T08:43:49Z</time>
      </trkpt>
      <trkpt lat="47.65944" lon="4.39793">
        <ele>330.6</ele>
        <time>2026-05-20T08:43:50Z</time>
      </trkpt>
      <trkpt lat="47.65943" lon="4.39791">
        <ele>330.6</ele>
        <time>2026-05-20T08:43:51Z</time>
      </trkpt>
      <trkpt lat="47.6594" lon="4.39788">
        <ele>330.6</ele>
        <time>2026-05-20T08:43:52Z</time>
      </trkpt>
      <trkpt lat="47.65937" lon="4.39786">
        <ele>330.6</ele>
        <time>2026-05-20T08:43:53Z</time>
      </trkpt>
      <trkpt lat="47.65935" lon="4.39782">
        <ele>330.8</ele>
        <time>2026-05-20T08:43:54Z</time>
      </trkpt>
      <trkpt lat="47.65933" lon="4.39779">
        <ele>330.8</ele>
        <time>2026-05-20T08:43:55Z</time>
      </trkpt>
      <trkpt lat="47.6593" lon="4.39777">
        <ele>330.8</ele>
        <time>2026-05-20T08:43:56Z</time>
      </trkpt>
      <trkpt lat="47.65927" lon="4.39775">
        <ele>330.8</ele>
        <time>2026-05-20T08:43:57Z</time>
      </trkpt>
      <trkpt lat="47.65926" lon="4.39774">
        <ele>330.8</ele>
        <time>2026-05-20T08:43:58Z</time>
      </trkpt>
      <trkpt lat="47.65924" lon="4.39771">
        <ele>330.8</ele>
        <time>2026-05-20T08:43:59Z</time>
      </trkpt>
      <trkpt lat="47.65922" lon="4.39768">
        <ele>330.8</ele>
        <time>2026-05-20T08:44:00Z</time>
      </trkpt>
      <trkpt lat="47.65919" lon="4.39765">
        <ele>330.8</ele>
        <time>2026-05-20T08:44:01Z</time>
      </trkpt>
      <trkpt lat="47.65917" lon="4.39764">
        <ele>330.8</ele>
        <time>2026-05-20T08:44:02Z</time>
      </trkpt>
      <trkpt lat="47.65915" lon="4.39761">
        <ele>330.8</ele>
        <time>2026-05-20T08:44:03Z</time>
      </trkpt>
      <trkpt lat="47.65912" lon="4.39757">
        <ele>330.8</ele>
        <time>2026-05-20T08:44:04Z</time>
      </trkpt>
      <trkpt lat="47.65908" lon="4.39755">
        <ele>330.8</ele>
        <time>2026-05-20T08:44:05Z</time>
      </trkpt>
      <trkpt lat="47.65905" lon="4.39754">
        <ele>330.8</ele>
        <time>2026-05-20T08:44:06Z</time>
      </trkpt>
      <trkpt lat="47.65905" lon="4.39754">
        <ele>330.8</ele>
        <time>2026-05-20T08:44:07Z</time>
      </trkpt>
      <trkpt lat="47.65898" lon="4.39749">
        <ele>330.8</ele>
        <time>2026-05-20T08:44:08Z</time>
      </trkpt>
      <trkpt lat="47.65896" lon="4.39747">
        <ele>330.8</ele>
        <time>2026-05-20T08:44:09Z</time>
      </trkpt>
      <trkpt lat="47.65896" lon="4.39747">
        <ele>330.8</ele>
        <time>2026-05-20T08:44:10Z</time>
      </trkpt>
      <trkpt lat="47.65891" lon="4.39743">
        <ele>330.8</ele>
        <time>2026-05-20T08:44:11Z</time>
      </trkpt>
      <trkpt lat="47.65889" lon="4.39741">
        <ele>330.8</ele>
        <time>2026-05-20T08:44:12Z</time>
      </trkpt>
      <trkpt lat="47.65887" lon="4.39738">
        <ele>330.8</ele>
        <time>2026-05-20T08:44:13Z</time>
      </trkpt>
      <trkpt lat="47.65884" lon="4.39735">
        <ele>330.8</ele>
        <time>2026-05-20T08:44:14Z</time>
      </trkpt>
      <trkpt lat="47.65882" lon="4.39732">
        <ele>330.8</ele>
        <time>2026-05-20T08:44:15Z</time>
      </trkpt>
      <trkpt lat="47.65877" lon="4.39729">
        <ele>330.8</ele>
        <time>2026-05-20T08:44:16Z</time>
      </trkpt>
      <trkpt lat="47.65872" lon="4.39726">
        <ele>330.6</ele>
        <time>2026-05-20T08:44:17Z</time>
      </trkpt>
      <trkpt lat="47.65869" lon="4.39724">
        <ele>330.6</ele>
        <time>2026-05-20T08:44:18Z</time>
      </trkpt>
      <trkpt lat="47.65865" lon="4.39722">
        <ele>330.6</ele>
        <time>2026-05-20T08:44:19Z</time>
      </trkpt>
      <trkpt lat="47.65859" lon="4.39719">
        <ele>330.6</ele>
        <time>2026-05-20T08:44:20Z</time>
      </trkpt>
      <trkpt lat="47.65855" lon="4.39718">
        <ele>330.6</ele>
        <time>2026-05-20T08:44:21Z</time>
      </trkpt>
      <trkpt lat="47.65852" lon="4.39716">
        <ele>330.4</ele>
        <time>2026-05-20T08:44:22Z</time>
      </trkpt>
      <trkpt lat="47.65847" lon="4.39714">
        <ele>330.4</ele>
        <time>2026-05-20T08:44:23Z</time>
      </trkpt>
      <trkpt lat="47.65845" lon="4.39714">
        <ele>330.4</ele>
        <time>2026-05-20T08:44:24Z</time>
      </trkpt>
      <trkpt lat="47.65843" lon="4.39713">
        <ele>330.4</ele>
        <time>2026-05-20T08:44:25Z</time>
      </trkpt>
      <trkpt lat="47.65842" lon="4.39712">
        <ele>330.4</ele>
        <time>2026-05-20T08:44:26Z</time>
      </trkpt>
      <trkpt lat="47.6584" lon="4.3971">
        <ele>330.4</ele>
        <time>2026-05-20T08:44:27Z</time>
      </trkpt>
      <trkpt lat="47.65839" lon="4.39708">
        <ele>330.4</ele>
        <time>2026-05-20T08:44:28Z</time>
      </trkpt>
      <trkpt lat="47.65836" lon="4.39705">
        <ele>330.2</ele>
        <time>2026-05-20T08:44:29Z</time>
      </trkpt>
      <trkpt lat="47.6583" lon="4.39702">
        <ele>330.2</ele>
        <time>2026-05-20T08:44:30Z</time>
      </trkpt>
      <trkpt lat="47.65825" lon="4.39699">
        <ele>330</ele>
        <time>2026-05-20T08:44:31Z</time>
      </trkpt>
      <trkpt lat="47.65821" lon="4.39696">
        <ele>330</ele>
        <time>2026-05-20T08:44:32Z</time>
      </trkpt>
      <trkpt lat="47.65817" lon="4.39693">
        <ele>330</ele>
        <time>2026-05-20T08:44:33Z</time>
      </trkpt>
      <trkpt lat="47.65814" lon="4.39692">
        <ele>330</ele>
        <time>2026-05-20T08:44:34Z</time>
      </trkpt>
      <trkpt lat="47.6581" lon="4.39692">
        <ele>330</ele>
        <time>2026-05-20T08:44:35Z</time>
      </trkpt>
      <trkpt lat="47.65808" lon="4.39693">
        <ele>330</ele>
        <time>2026-05-20T08:44:36Z</time>
      </trkpt>
      <trkpt lat="47.65807" lon="4.39691">
        <ele>330</ele>
        <time>2026-05-20T08:44:37Z</time>
      </trkpt>
      <trkpt lat="47.65804" lon="4.39689">
        <ele>330</ele>
        <time>2026-05-20T08:44:38Z</time>
      </trkpt>
      <trkpt lat="47.65801" lon="4.39688">
        <ele>330</ele>
        <time>2026-05-20T08:44:39Z</time>
      </trkpt>
      <trkpt lat="47.65799" lon="4.39687">
        <ele>330.2</ele>
        <time>2026-05-20T08:44:40Z</time>
      </trkpt>
      <trkpt lat="47.65797" lon="4.39685">
        <ele>330.4</ele>
        <time>2026-05-20T08:44:41Z</time>
      </trkpt>
      <trkpt lat="47.65795" lon="4.39684">
        <ele>330.6</ele>
        <time>2026-05-20T08:44:42Z</time>
      </trkpt>
      <trkpt lat="47.65793" lon="4.39684">
        <ele>330.6</ele>
        <time>2026-05-20T08:44:43Z</time>
      </trkpt>
      <trkpt lat="47.65793" lon="4.39684">
        <ele>330.6</ele>
        <time>2026-05-20T08:44:44Z</time>
      </trkpt>
      <trkpt lat="47.65786" lon="4.39684">
        <ele>330.6</ele>
        <time>2026-05-20T08:44:45Z</time>
      </trkpt>
      <trkpt lat="47.65784" lon="4.39683">
        <ele>330.8</ele>
        <time>2026-05-20T08:44:46Z</time>
      </trkpt>
      <trkpt lat="47.6578" lon="4.3968">
        <ele>331</ele>
        <time>2026-05-20T08:44:47Z</time>
      </trkpt>
      <trkpt lat="47.65777" lon="4.39677">
        <ele>331</ele>
        <time>2026-05-20T08:44:48Z</time>
      </trkpt>
      <trkpt lat="47.65775" lon="4.39676">
        <ele>331</ele>
        <time>2026-05-20T08:44:49Z</time>
      </trkpt>
      <trkpt lat="47.65774" lon="4.39674">
        <ele>331.2</ele>
        <time>2026-05-20T08:44:50Z</time>
      </trkpt>
      <trkpt lat="47.65775" lon="4.39675">
        <ele>331.4</ele>
        <time>2026-05-20T08:44:51Z</time>
      </trkpt>
      <trkpt lat="47.65773" lon="4.39674">
        <ele>331.8</ele>
        <time>2026-05-20T08:44:52Z</time>
      </trkpt>
      <trkpt lat="47.6577" lon="4.39671">
        <ele>331.8</ele>
        <time>2026-05-20T08:44:53Z</time>
      </trkpt>
      <trkpt lat="47.65767" lon="4.3967">
        <ele>332</ele>
        <time>2026-05-20T08:44:54Z</time>
      </trkpt>
      <trkpt lat="47.65764" lon="4.39668">
        <ele>332</ele>
        <time>2026-05-20T08:44:55Z</time>
      </trkpt>
      <trkpt lat="47.6576" lon="4.39665">
        <ele>332.2</ele>
        <time>2026-05-20T08:44:56Z</time>
      </trkpt>
      <trkpt lat="47.65757" lon="4.39663">
        <ele>332.2</ele>
        <time>2026-05-20T08:44:57Z</time>
      </trkpt>
      <trkpt lat="47.65756" lon="4.39661">
        <ele>332.4</ele>
        <time>2026-05-20T08:44:58Z</time>
      </trkpt>
      <trkpt lat="47.65754" lon="4.39659">
        <ele>332.6</ele>
        <time>2026-05-20T08:44:59Z</time>
      </trkpt>
      <trkpt lat="47.65751" lon="4.39658">
        <ele>332.6</ele>
        <time>2026-05-20T08:45:00Z</time>
      </trkpt>
      <trkpt lat="47.65747" lon="4.39655">
        <ele>332.6</ele>
        <time>2026-05-20T08:45:01Z</time>
      </trkpt>
      <trkpt lat="47.65744" lon="4.39653">
        <ele>332.8</ele>
        <time>2026-05-20T08:45:02Z</time>
      </trkpt>
      <trkpt lat="47.65742" lon="4.39652">
        <ele>333</ele>
        <time>2026-05-20T08:45:03Z</time>
      </trkpt>
      <trkpt lat="47.65739" lon="4.3965">
        <ele>333.2</ele>
        <time>2026-05-20T08:45:04Z</time>
      </trkpt>
      <trkpt lat="47.65736" lon="4.39649">
        <ele>333.2</ele>
        <time>2026-05-20T08:45:05Z</time>
      </trkpt>
      <trkpt lat="47.65734" lon="4.39647">
        <ele>333.4</ele>
        <time>2026-05-20T08:45:06Z</time>
      </trkpt>
      <trkpt lat="47.65731" lon="4.39645">
        <ele>333.4</ele>
        <time>2026-05-20T08:45:07Z</time>
      </trkpt>
      <trkpt lat="47.65729" lon="4.39642">
        <ele>333.6</ele>
        <time>2026-05-20T08:45:08Z</time>
      </trkpt>
      <trkpt lat="47.65726" lon="4.3964">
        <ele>333.6</ele>
        <time>2026-05-20T08:45:09Z</time>
      </trkpt>
      <trkpt lat="47.65723" lon="4.39636">
        <ele>333.8</ele>
        <time>2026-05-20T08:45:10Z</time>
      </trkpt>
      <trkpt lat="47.65719" lon="4.39633">
        <ele>333.8</ele>
        <time>2026-05-20T08:45:11Z</time>
      </trkpt>
      <trkpt lat="47.65716" lon="4.39632">
        <ele>333.8</ele>
        <time>2026-05-20T08:45:12Z</time>
      </trkpt>
      <trkpt lat="47.65713" lon="4.3963">
        <ele>333.8</ele>
        <time>2026-05-20T08:45:13Z</time>
      </trkpt>
      <trkpt lat="47.6571" lon="4.3963">
        <ele>333.8</ele>
        <time>2026-05-20T08:45:14Z</time>
      </trkpt>
      <trkpt lat="47.65708" lon="4.39629">
        <ele>333.8</ele>
        <time>2026-05-20T08:45:15Z</time>
      </trkpt>
      <trkpt lat="47.65706" lon="4.39627">
        <ele>333.8</ele>
        <time>2026-05-20T08:45:16Z</time>
      </trkpt>
      <trkpt lat="47.65704" lon="4.39626">
        <ele>333.8</ele>
        <time>2026-05-20T08:45:17Z</time>
      </trkpt>
      <trkpt lat="47.657" lon="4.39625">
        <ele>333.8</ele>
        <time>2026-05-20T08:45:18Z</time>
      </trkpt>
      <trkpt lat="47.65696" lon="4.39622">
        <ele>333.8</ele>
        <time>2026-05-20T08:45:19Z</time>
      </trkpt>
      <trkpt lat="47.65693" lon="4.39621">
        <ele>333.8</ele>
        <time>2026-05-20T08:45:20Z</time>
      </trkpt>
      <trkpt lat="47.65689" lon="4.39619">
        <ele>333.8</ele>
        <time>2026-05-20T08:45:21Z</time>
      </trkpt>
      <trkpt lat="47.65683" lon="4.39617">
        <ele>333.6</ele>
        <time>2026-05-20T08:45:22Z</time>
      </trkpt>
      <trkpt lat="47.65678" lon="4.39616">
        <ele>333.6</ele>
        <time>2026-05-20T08:45:23Z</time>
      </trkpt>
      <trkpt lat="47.65674" lon="4.39614">
        <ele>333.6</ele>
        <time>2026-05-20T08:45:24Z</time>
      </trkpt>
      <trkpt lat="47.6567" lon="4.39611">
        <ele>333.4</ele>
        <time>2026-05-20T08:45:25Z</time>
      </trkpt>
      <trkpt lat="47.65665" lon="4.39609">
        <ele>333.4</ele>
        <time>2026-05-20T08:45:26Z</time>
      </trkpt>
      <trkpt lat="47.65659" lon="4.39607">
        <ele>333.2</ele>
        <time>2026-05-20T08:45:27Z</time>
      </trkpt>
      <trkpt lat="47.65654" lon="4.39606">
        <ele>333.2</ele>
        <time>2026-05-20T08:45:28Z</time>
      </trkpt>
      <trkpt lat="47.6565" lon="4.39604">
        <ele>333</ele>
        <time>2026-05-20T08:45:29Z</time>
      </trkpt>
      <trkpt lat="47.65645" lon="4.39603">
        <ele>333</ele>
        <time>2026-05-20T08:45:30Z</time>
      </trkpt>
      <trkpt lat="47.6564" lon="4.39602">
        <ele>332.8</ele>
        <time>2026-05-20T08:45:31Z</time>
      </trkpt>
      <trkpt lat="47.65636" lon="4.39601">
        <ele>332.6</ele>
        <time>2026-05-20T08:45:32Z</time>
      </trkpt>
      <trkpt lat="47.65632" lon="4.39599">
        <ele>332.6</ele>
        <time>2026-05-20T08:45:33Z</time>
      </trkpt>
      <trkpt lat="47.65627" lon="4.39596">
        <ele>332.4</ele>
        <time>2026-05-20T08:45:34Z</time>
      </trkpt>
      <trkpt lat="47.65622" lon="4.39593">
        <ele>332.2</ele>
        <time>2026-05-20T08:45:35Z</time>
      </trkpt>
      <trkpt lat="47.65618" lon="4.39591">
        <ele>332.2</ele>
        <time>2026-05-20T08:45:36Z</time>
      </trkpt>
      <trkpt lat="47.65615" lon="4.39589">
        <ele>332</ele>
        <time>2026-05-20T08:45:37Z</time>
      </trkpt>
      <trkpt lat="47.65612" lon="4.39587">
        <ele>332</ele>
        <time>2026-05-20T08:45:38Z</time>
      </trkpt>
      <trkpt lat="47.6561" lon="4.39584">
        <ele>331.8</ele>
        <time>2026-05-20T08:45:39Z</time>
      </trkpt>
      <trkpt lat="47.65608" lon="4.39582">
        <ele>331.8</ele>
        <time>2026-05-20T08:45:40Z</time>
      </trkpt>
      <trkpt lat="47.65604" lon="4.39578">
        <ele>331.8</ele>
        <time>2026-05-20T08:45:41Z</time>
      </trkpt>
      <trkpt lat="47.65601" lon="4.39575">
        <ele>331.6</ele>
        <time>2026-05-20T08:45:42Z</time>
      </trkpt>
      <trkpt lat="47.65597" lon="4.39573">
        <ele>331.4</ele>
        <time>2026-05-20T08:45:43Z</time>
      </trkpt>
      <trkpt lat="47.65593" lon="4.3957">
        <ele>331.2</ele>
        <time>2026-05-20T08:45:44Z</time>
      </trkpt>
      <trkpt lat="47.65589" lon="4.39567">
        <ele>331.2</ele>
        <time>2026-05-20T08:45:45Z</time>
      </trkpt>
      <trkpt lat="47.65586" lon="4.39565">
        <ele>331.2</ele>
        <time>2026-05-20T08:45:46Z</time>
      </trkpt>
      <trkpt lat="47.65582" lon="4.39562">
        <ele>331.2</ele>
        <time>2026-05-20T08:45:47Z</time>
      </trkpt>
      <trkpt lat="47.65578" lon="4.39559">
        <ele>331</ele>
        <time>2026-05-20T08:45:48Z</time>
      </trkpt>
      <trkpt lat="47.65575" lon="4.39556">
        <ele>330.8</ele>
        <time>2026-05-20T08:45:49Z</time>
      </trkpt>
      <trkpt lat="47.65571" lon="4.39553">
        <ele>330.8</ele>
        <time>2026-05-20T08:45:50Z</time>
      </trkpt>
      <trkpt lat="47.65568" lon="4.3955">
        <ele>330.6</ele>
        <time>2026-05-20T08:45:51Z</time>
      </trkpt>
      <trkpt lat="47.65565" lon="4.39547">
        <ele>330.4</ele>
        <time>2026-05-20T08:45:52Z</time>
      </trkpt>
      <trkpt lat="47.65562" lon="4.39544">
        <ele>330.4</ele>
        <time>2026-05-20T08:45:53Z</time>
      </trkpt>
      <trkpt lat="47.65558" lon="4.39541">
        <ele>330.2</ele>
        <time>2026-05-20T08:45:54Z</time>
      </trkpt>
      <trkpt lat="47.65555" lon="4.39538">
        <ele>330</ele>
        <time>2026-05-20T08:45:55Z</time>
      </trkpt>
      <trkpt lat="47.65551" lon="4.39534">
        <ele>330</ele>
        <time>2026-05-20T08:45:56Z</time>
      </trkpt>
      <trkpt lat="47.65548" lon="4.39531">
        <ele>329.8</ele>
        <time>2026-05-20T08:45:57Z</time>
      </trkpt>
      <trkpt lat="47.65545" lon="4.39527">
        <ele>329.8</ele>
        <time>2026-05-20T08:45:58Z</time>
      </trkpt>
      <trkpt lat="47.65541" lon="4.39524">
        <ele>329.6</ele>
        <time>2026-05-20T08:45:59Z</time>
      </trkpt>
      <trkpt lat="47.65537" lon="4.3952">
        <ele>329.4</ele>
        <time>2026-05-20T08:46:00Z</time>
      </trkpt>
      <trkpt lat="47.65533" lon="4.39516">
        <ele>329.2</ele>
        <time>2026-05-20T08:46:01Z</time>
      </trkpt>
      <trkpt lat="47.65529" lon="4.39511">
        <ele>329.2</ele>
        <time>2026-05-20T08:46:02Z</time>
      </trkpt>
      <trkpt lat="47.65525" lon="4.39507">
        <ele>329.2</ele>
        <time>2026-05-20T08:46:03Z</time>
      </trkpt>
      <trkpt lat="47.65521" lon="4.39502">
        <ele>329</ele>
        <time>2026-05-20T08:46:04Z</time>
      </trkpt>
      <trkpt lat="47.65517" lon="4.39498">
        <ele>329</ele>
        <time>2026-05-20T08:46:05Z</time>
      </trkpt>
      <trkpt lat="47.65513" lon="4.39493">
        <ele>328.6</ele>
        <time>2026-05-20T08:46:06Z</time>
      </trkpt>
      <trkpt lat="47.6551" lon="4.39489">
        <ele>328.6</ele>
        <time>2026-05-20T08:46:07Z</time>
      </trkpt>
      <trkpt lat="47.65506" lon="4.39484">
        <ele>328.4</ele>
        <time>2026-05-20T08:46:08Z</time>
      </trkpt>
      <trkpt lat="47.65501" lon="4.3948">
        <ele>328.4</ele>
        <time>2026-05-20T08:46:09Z</time>
      </trkpt>
      <trkpt lat="47.65497" lon="4.39475">
        <ele>328.2</ele>
        <time>2026-05-20T08:46:10Z</time>
      </trkpt>
      <trkpt lat="47.65493" lon="4.3947">
        <ele>328</ele>
        <time>2026-05-20T08:46:11Z</time>
      </trkpt>
      <trkpt lat="47.65489" lon="4.39466">
        <ele>327.8</ele>
        <time>2026-05-20T08:46:12Z</time>
      </trkpt>
      <trkpt lat="47.65486" lon="4.39461">
        <ele>327.6</ele>
        <time>2026-05-20T08:46:13Z</time>
      </trkpt>
      <trkpt lat="47.65482" lon="4.39456">
        <ele>327.4</ele>
        <time>2026-05-20T08:46:14Z</time>
      </trkpt>
      <trkpt lat="47.65478" lon="4.39452">
        <ele>327.2</ele>
        <time>2026-05-20T08:46:15Z</time>
      </trkpt>
      <trkpt lat="47.65474" lon="4.39446">
        <ele>327.2</ele>
        <time>2026-05-20T08:46:16Z</time>
      </trkpt>
      <trkpt lat="47.6547" lon="4.39441">
        <ele>327</ele>
        <time>2026-05-20T08:46:17Z</time>
      </trkpt>
      <trkpt lat="47.65466" lon="4.39435">
        <ele>327</ele>
        <time>2026-05-20T08:46:18Z</time>
      </trkpt>
      <trkpt lat="47.65463" lon="4.39429">
        <ele>327</ele>
        <time>2026-05-20T08:46:19Z</time>
      </trkpt>
      <trkpt lat="47.65459" lon="4.39423">
        <ele>327</ele>
        <time>2026-05-20T08:46:20Z</time>
      </trkpt>
      <trkpt lat="47.65455" lon="4.39416">
        <ele>326.8</ele>
        <time>2026-05-20T08:46:21Z</time>
      </trkpt>
      <trkpt lat="47.65452" lon="4.3941">
        <ele>326.6</ele>
        <time>2026-05-20T08:46:22Z</time>
      </trkpt>
      <trkpt lat="47.65448" lon="4.39403">
        <ele>326.4</ele>
        <time>2026-05-20T08:46:23Z</time>
      </trkpt>
      <trkpt lat="47.65444" lon="4.39397">
        <ele>326.2</ele>
        <time>2026-05-20T08:46:24Z</time>
      </trkpt>
      <trkpt lat="47.65441" lon="4.3939">
        <ele>326</ele>
        <time>2026-05-20T08:46:25Z</time>
      </trkpt>
      <trkpt lat="47.65437" lon="4.39384">
        <ele>325.6</ele>
        <time>2026-05-20T08:46:26Z</time>
      </trkpt>
      <trkpt lat="47.65434" lon="4.39378">
        <ele>325.6</ele>
        <time>2026-05-20T08:46:27Z</time>
      </trkpt>
      <trkpt lat="47.6543" lon="4.39372">
        <ele>325.4</ele>
        <time>2026-05-20T08:46:28Z</time>
      </trkpt>
      <trkpt lat="47.65427" lon="4.39366">
        <ele>325.4</ele>
        <time>2026-05-20T08:46:29Z</time>
      </trkpt>
      <trkpt lat="47.65424" lon="4.3936">
        <ele>325.2</ele>
        <time>2026-05-20T08:46:30Z</time>
      </trkpt>
      <trkpt lat="47.65421" lon="4.39353">
        <ele>325</ele>
        <time>2026-05-20T08:46:31Z</time>
      </trkpt>
      <trkpt lat="47.65417" lon="4.39347">
        <ele>325</ele>
        <time>2026-05-20T08:46:32Z</time>
      </trkpt>
      <trkpt lat="47.65414" lon="4.39341">
        <ele>324.8</ele>
        <time>2026-05-20T08:46:33Z</time>
      </trkpt>
      <trkpt lat="47.6541" lon="4.39335">
        <ele>324.8</ele>
        <time>2026-05-20T08:46:34Z</time>
      </trkpt>
      <trkpt lat="47.65406" lon="4.39329">
        <ele>324.6</ele>
        <time>2026-05-20T08:46:35Z</time>
      </trkpt>
      <trkpt lat="47.65403" lon="4.39322">
        <ele>324.8</ele>
        <time>2026-05-20T08:46:36Z</time>
      </trkpt>
      <trkpt lat="47.65399" lon="4.39316">
        <ele>324.4</ele>
        <time>2026-05-20T08:46:37Z</time>
      </trkpt>
      <trkpt lat="47.65396" lon="4.39309">
        <ele>324.4</ele>
        <time>2026-05-20T08:46:38Z</time>
      </trkpt>
      <trkpt lat="47.65393" lon="4.39302">
        <ele>324.2</ele>
        <time>2026-05-20T08:46:39Z</time>
      </trkpt>
      <trkpt lat="47.65389" lon="4.39296">
        <ele>324</ele>
        <time>2026-05-20T08:46:40Z</time>
      </trkpt>
      <trkpt lat="47.65386" lon="4.3929">
        <ele>324</ele>
        <time>2026-05-20T08:46:41Z</time>
      </trkpt>
      <trkpt lat="47.65382" lon="4.39283">
        <ele>323.8</ele>
        <time>2026-05-20T08:46:42Z</time>
      </trkpt>
      <trkpt lat="47.65378" lon="4.39277">
        <ele>323.6</ele>
        <time>2026-05-20T08:46:43Z</time>
      </trkpt>
      <trkpt lat="47.65374" lon="4.3927">
        <ele>323.6</ele>
        <time>2026-05-20T08:46:44Z</time>
      </trkpt>
      <trkpt lat="47.6537" lon="4.39264">
        <ele>323.6</ele>
        <time>2026-05-20T08:46:45Z</time>
      </trkpt>
      <trkpt lat="47.65366" lon="4.39257">
        <ele>323.4</ele>
        <time>2026-05-20T08:46:46Z</time>
      </trkpt>
      <trkpt lat="47.65362" lon="4.3925">
        <ele>323.2</ele>
        <time>2026-05-20T08:46:47Z</time>
      </trkpt>
      <trkpt lat="47.65358" lon="4.39244">
        <ele>322.8</ele>
        <time>2026-05-20T08:46:48Z</time>
      </trkpt>
      <trkpt lat="47.65353" lon="4.39238">
        <ele>322.4</ele>
        <time>2026-05-20T08:46:49Z</time>
      </trkpt>
      <trkpt lat="47.65348" lon="4.39231">
        <ele>322.4</ele>
        <time>2026-05-20T08:46:50Z</time>
      </trkpt>
      <trkpt lat="47.65344" lon="4.39226">
        <ele>321.8</ele>
        <time>2026-05-20T08:46:51Z</time>
      </trkpt>
      <trkpt lat="47.65339" lon="4.39221">
        <ele>321.4</ele>
        <time>2026-05-20T08:46:52Z</time>
      </trkpt>
      <trkpt lat="47.65335" lon="4.39217">
        <ele>321</ele>
        <time>2026-05-20T08:46:53Z</time>
      </trkpt>
      <trkpt lat="47.6533" lon="4.39212">
        <ele>320.8</ele>
        <time>2026-05-20T08:46:54Z</time>
      </trkpt>
      <trkpt lat="47.65325" lon="4.39208">
        <ele>320.2</ele>
        <time>2026-05-20T08:46:55Z</time>
      </trkpt>
      <trkpt lat="47.6532" lon="4.39204">
        <ele>320.2</ele>
        <time>2026-05-20T08:46:56Z</time>
      </trkpt>
      <trkpt lat="47.65314" lon="4.39201">
        <ele>320</ele>
        <time>2026-05-20T08:46:57Z</time>
      </trkpt>
      <trkpt lat="47.65309" lon="4.39197">
        <ele>319.4</ele>
        <time>2026-05-20T08:46:58Z</time>
      </trkpt>
      <trkpt lat="47.65304" lon="4.39194">
        <ele>319.2</ele>
        <time>2026-05-20T08:46:59Z</time>
      </trkpt>
      <trkpt lat="47.653" lon="4.3919">
        <ele>318.6</ele>
        <time>2026-05-20T08:47:00Z</time>
      </trkpt>
      <trkpt lat="47.65296" lon="4.39187">
        <ele>318.4</ele>
        <time>2026-05-20T08:47:01Z</time>
      </trkpt>
      <trkpt lat="47.65291" lon="4.39184">
        <ele>317.8</ele>
        <time>2026-05-20T08:47:02Z</time>
      </trkpt>
      <trkpt lat="47.65286" lon="4.3918">
        <ele>317.6</ele>
        <time>2026-05-20T08:47:03Z</time>
      </trkpt>
      <trkpt lat="47.65281" lon="4.39177">
        <ele>316.4</ele>
        <time>2026-05-20T08:47:04Z</time>
      </trkpt>
      <trkpt lat="47.65276" lon="4.39174">
        <ele>316.2</ele>
        <time>2026-05-20T08:47:05Z</time>
      </trkpt>
      <trkpt lat="47.6527" lon="4.39171">
        <ele>315.2</ele>
        <time>2026-05-20T08:47:06Z</time>
      </trkpt>
      <trkpt lat="47.65265" lon="4.39169">
        <ele>314.6</ele>
        <time>2026-05-20T08:47:07Z</time>
      </trkpt>
      <trkpt lat="47.65259" lon="4.39167">
        <ele>314.2</ele>
        <time>2026-05-20T08:47:08Z</time>
      </trkpt>
      <trkpt lat="47.65253" lon="4.39166">
        <ele>313.4</ele>
        <time>2026-05-20T08:47:09Z</time>
      </trkpt>
      <trkpt lat="47.65247" lon="4.39165">
        <ele>312.8</ele>
        <time>2026-05-20T08:47:10Z</time>
      </trkpt>
      <trkpt lat="47.6524" lon="4.39164">
        <ele>312</ele>
        <time>2026-05-20T08:47:11Z</time>
      </trkpt>
      <trkpt lat="47.65233" lon="4.39163">
        <ele>311.6</ele>
        <time>2026-05-20T08:47:12Z</time>
      </trkpt>
      <trkpt lat="47.65227" lon="4.39161">
        <ele>311</ele>
        <time>2026-05-20T08:47:13Z</time>
      </trkpt>
      <trkpt lat="47.65221" lon="4.39161">
        <ele>310.8</ele>
        <time>2026-05-20T08:47:14Z</time>
      </trkpt>
      <trkpt lat="47.65217" lon="4.39159">
        <ele>310.4</ele>
        <time>2026-05-20T08:47:15Z</time>
      </trkpt>
      <trkpt lat="47.65213" lon="4.39158">
        <ele>309.8</ele>
        <time>2026-05-20T08:47:16Z</time>
      </trkpt>
      <trkpt lat="47.65207" lon="4.39156">
        <ele>309.6</ele>
        <time>2026-05-20T08:47:17Z</time>
      </trkpt>
      <trkpt lat="47.65203" lon="4.39154">
        <ele>309.2</ele>
        <time>2026-05-20T08:47:18Z</time>
      </trkpt>
      <trkpt lat="47.65199" lon="4.39151">
        <ele>309</ele>
        <time>2026-05-20T08:47:19Z</time>
      </trkpt>
      <trkpt lat="47.65194" lon="4.39147">
        <ele>308.6</ele>
        <time>2026-05-20T08:47:20Z</time>
      </trkpt>
      <trkpt lat="47.6519" lon="4.39143">
        <ele>308.4</ele>
        <time>2026-05-20T08:47:21Z</time>
      </trkpt>
      <trkpt lat="47.65186" lon="4.39139">
        <ele>308</ele>
        <time>2026-05-20T08:47:22Z</time>
      </trkpt>
      <trkpt lat="47.6518" lon="4.39134">
        <ele>307.8</ele>
        <time>2026-05-20T08:47:23Z</time>
      </trkpt>
      <trkpt lat="47.65176" lon="4.3913">
        <ele>307.4</ele>
        <time>2026-05-20T08:47:24Z</time>
      </trkpt>
      <trkpt lat="47.65173" lon="4.39126">
        <ele>306.6</ele>
        <time>2026-05-20T08:47:25Z</time>
      </trkpt>
      <trkpt lat="47.6517" lon="4.39122">
        <ele>306.2</ele>
        <time>2026-05-20T08:47:26Z</time>
      </trkpt>
      <trkpt lat="47.65166" lon="4.39118">
        <ele>305.2</ele>
        <time>2026-05-20T08:47:27Z</time>
      </trkpt>
      <trkpt lat="47.65163" lon="4.39116">
        <ele>304.6</ele>
        <time>2026-05-20T08:47:28Z</time>
      </trkpt>
      <trkpt lat="47.6516" lon="4.39113">
        <ele>303.6</ele>
        <time>2026-05-20T08:47:29Z</time>
      </trkpt>
      <trkpt lat="47.65156" lon="4.39109">
        <ele>303.2</ele>
        <time>2026-05-20T08:47:30Z</time>
      </trkpt>
      <trkpt lat="47.65153" lon="4.39105">
        <ele>302.6</ele>
        <time>2026-05-20T08:47:31Z</time>
      </trkpt>
      <trkpt lat="47.65149" lon="4.391">
        <ele>302.4</ele>
        <time>2026-05-20T08:47:32Z</time>
      </trkpt>
      <trkpt lat="47.65147" lon="4.39096">
        <ele>301.4</ele>
        <time>2026-05-20T08:47:33Z</time>
      </trkpt>
      <trkpt lat="47.65146" lon="4.39095">
        <ele>300.2</ele>
        <time>2026-05-20T08:47:34Z</time>
      </trkpt>
      <trkpt lat="47.65143" lon="4.39091">
        <ele>299.8</ele>
        <time>2026-05-20T08:47:35Z</time>
      </trkpt>
      <trkpt lat="47.65141" lon="4.39088">
        <ele>298.8</ele>
        <time>2026-05-20T08:47:36Z</time>
      </trkpt>
      <trkpt lat="47.65139" lon="4.39085">
        <ele>298.4</ele>
        <time>2026-05-20T08:47:37Z</time>
      </trkpt>
      <trkpt lat="47.65135" lon="4.39081">
        <ele>297.8</ele>
        <time>2026-05-20T08:47:38Z</time>
      </trkpt>
      <trkpt lat="47.65131" lon="4.39076">
        <ele>297.4</ele>
        <time>2026-05-20T08:47:39Z</time>
      </trkpt>
      <trkpt lat="47.65128" lon="4.39071">
        <ele>296.6</ele>
        <time>2026-05-20T08:47:40Z</time>
      </trkpt>
      <trkpt lat="47.65126" lon="4.39068">
        <ele>296.4</ele>
        <time>2026-05-20T08:47:41Z</time>
      </trkpt>
      <trkpt lat="47.65124" lon="4.39064">
        <ele>296</ele>
        <time>2026-05-20T08:47:42Z</time>
      </trkpt>
      <trkpt lat="47.65121" lon="4.3906">
        <ele>294.8</ele>
        <time>2026-05-20T08:47:43Z</time>
      </trkpt>
      <trkpt lat="47.65118" lon="4.39056">
        <ele>294.4</ele>
        <time>2026-05-20T08:47:44Z</time>
      </trkpt>
      <trkpt lat="47.65114" lon="4.39052">
        <ele>293.2</ele>
        <time>2026-05-20T08:47:45Z</time>
      </trkpt>
      <trkpt lat="47.65111" lon="4.39048">
        <ele>292.4</ele>
        <time>2026-05-20T08:47:46Z</time>
      </trkpt>
      <trkpt lat="47.65106" lon="4.39043">
        <ele>291.4</ele>
        <time>2026-05-20T08:47:47Z</time>
      </trkpt>
      <trkpt lat="47.65103" lon="4.39038">
        <ele>291</ele>
        <time>2026-05-20T08:47:48Z</time>
      </trkpt>
      <trkpt lat="47.651" lon="4.39034">
        <ele>290.2</ele>
        <time>2026-05-20T08:47:49Z</time>
      </trkpt>
      <trkpt lat="47.65097" lon="4.39031">
        <ele>289.4</ele>
        <time>2026-05-20T08:47:50Z</time>
      </trkpt>
      <trkpt lat="47.65094" lon="4.39027">
        <ele>288.2</ele>
        <time>2026-05-20T08:47:51Z</time>
      </trkpt>
      <trkpt lat="47.6509" lon="4.39023">
        <ele>287.4</ele>
        <time>2026-05-20T08:47:52Z</time>
      </trkpt>
      <trkpt lat="47.65086" lon="4.3902">
        <ele>287</ele>
        <time>2026-05-20T08:47:53Z</time>
      </trkpt>
      <trkpt lat="47.65082" lon="4.39017">
        <ele>286.2</ele>
        <time>2026-05-20T08:47:54Z</time>
      </trkpt>
      <trkpt lat="47.65079" lon="4.39014">
        <ele>285.8</ele>
        <time>2026-05-20T08:47:55Z</time>
      </trkpt>
      <trkpt lat="47.65077" lon="4.3901">
        <ele>284.8</ele>
        <time>2026-05-20T08:47:56Z</time>
      </trkpt>
      <trkpt lat="47.65074" lon="4.39007">
        <ele>284.2</ele>
        <time>2026-05-20T08:47:57Z</time>
      </trkpt>
      <trkpt lat="47.65071" lon="4.39005">
        <ele>283.4</ele>
        <time>2026-05-20T08:47:58Z</time>
      </trkpt>
      <trkpt lat="47.65067" lon="4.39004">
        <ele>283.2</ele>
        <time>2026-05-20T08:47:59Z</time>
      </trkpt>
      <trkpt lat="47.65063" lon="4.39002">
        <ele>282</ele>
        <time>2026-05-20T08:48:00Z</time>
      </trkpt>
      <trkpt lat="47.65058" lon="4.39">
        <ele>281.4</ele>
        <time>2026-05-20T08:48:01Z</time>
      </trkpt>
      <trkpt lat="47.65053" lon="4.38997">
        <ele>281.2</ele>
        <time>2026-05-20T08:48:02Z</time>
      </trkpt>
      <trkpt lat="47.6505" lon="4.38995">
        <ele>280.8</ele>
        <time>2026-05-20T08:48:03Z</time>
      </trkpt>
      <trkpt lat="47.65044" lon="4.38993">
        <ele>280.2</ele>
        <time>2026-05-20T08:48:04Z</time>
      </trkpt>
      <trkpt lat="47.65039" lon="4.38991">
        <ele>279.2</ele>
        <time>2026-05-20T08:48:05Z</time>
      </trkpt>
      <trkpt lat="47.65034" lon="4.38989">
        <ele>279</ele>
        <time>2026-05-20T08:48:06Z</time>
      </trkpt>
      <trkpt lat="47.65029" lon="4.38988">
        <ele>278.6</ele>
        <time>2026-05-20T08:48:07Z</time>
      </trkpt>
      <trkpt lat="47.65024" lon="4.38986">
        <ele>278.6</ele>
        <time>2026-05-20T08:48:08Z</time>
      </trkpt>
      <trkpt lat="47.65018" lon="4.38987">
        <ele>278.2</ele>
        <time>2026-05-20T08:48:09Z</time>
      </trkpt>
      <trkpt lat="47.65011" lon="4.38986">
        <ele>277.4</ele>
        <time>2026-05-20T08:48:10Z</time>
      </trkpt>
      <trkpt lat="47.65006" lon="4.38987">
        <ele>277</ele>
        <time>2026-05-20T08:48:11Z</time>
      </trkpt>
      <trkpt lat="47.65002" lon="4.38986">
        <ele>276.8</ele>
        <time>2026-05-20T08:48:12Z</time>
      </trkpt>
      <trkpt lat="47.64998" lon="4.38986">
        <ele>276.4</ele>
        <time>2026-05-20T08:48:13Z</time>
      </trkpt>
      <trkpt lat="47.64994" lon="4.38986">
        <ele>275.8</ele>
        <time>2026-05-20T08:48:14Z</time>
      </trkpt>
      <trkpt lat="47.6499" lon="4.38985">
        <ele>275.6</ele>
        <time>2026-05-20T08:48:15Z</time>
      </trkpt>
      <trkpt lat="47.64986" lon="4.38986">
        <ele>274.6</ele>
        <time>2026-05-20T08:48:16Z</time>
      </trkpt>
      <trkpt lat="47.64983" lon="4.38986">
        <ele>273.8</ele>
        <time>2026-05-20T08:48:17Z</time>
      </trkpt>
      <trkpt lat="47.64979" lon="4.38987">
        <ele>273</ele>
        <time>2026-05-20T08:48:18Z</time>
      </trkpt>
      <trkpt lat="47.64975" lon="4.38988">
        <ele>272.4</ele>
        <time>2026-05-20T08:48:19Z</time>
      </trkpt>
      <trkpt lat="47.64969" lon="4.3899">
        <ele>272</ele>
        <time>2026-05-20T08:48:20Z</time>
      </trkpt>
      <trkpt lat="47.64964" lon="4.38993">
        <ele>271.2</ele>
        <time>2026-05-20T08:48:21Z</time>
      </trkpt>
      <trkpt lat="47.64959" lon="4.38995">
        <ele>271</ele>
        <time>2026-05-20T08:48:22Z</time>
      </trkpt>
      <trkpt lat="47.64955" lon="4.38995">
        <ele>270.2</ele>
        <time>2026-05-20T08:48:23Z</time>
      </trkpt>
      <trkpt lat="47.64951" lon="4.38995">
        <ele>269.6</ele>
        <time>2026-05-20T08:48:24Z</time>
      </trkpt>
      <trkpt lat="47.64946" lon="4.38996">
        <ele>269</ele>
        <time>2026-05-20T08:48:25Z</time>
      </trkpt>
      <trkpt lat="47.6494" lon="4.38998">
        <ele>268.8</ele>
        <time>2026-05-20T08:48:26Z</time>
      </trkpt>
      <trkpt lat="47.64935" lon="4.39">
        <ele>267.8</ele>
        <time>2026-05-20T08:48:27Z</time>
      </trkpt>
      <trkpt lat="47.6493" lon="4.39003">
        <ele>267.4</ele>
        <time>2026-05-20T08:48:28Z</time>
      </trkpt>
      <trkpt lat="47.64926" lon="4.39007">
        <ele>267</ele>
        <time>2026-05-20T08:48:29Z</time>
      </trkpt>
      <trkpt lat="47.64922" lon="4.39009">
        <ele>266.2</ele>
        <time>2026-05-20T08:48:30Z</time>
      </trkpt>
      <trkpt lat="47.64919" lon="4.39011">
        <ele>266</ele>
        <time>2026-05-20T08:48:31Z</time>
      </trkpt>
      <trkpt lat="47.64914" lon="4.39013">
        <ele>265</ele>
        <time>2026-05-20T08:48:32Z</time>
      </trkpt>
      <trkpt lat="47.64907" lon="4.39015">
        <ele>264.6</ele>
        <time>2026-05-20T08:48:33Z</time>
      </trkpt>
      <trkpt lat="47.64903" lon="4.39016">
        <ele>264</ele>
        <time>2026-05-20T08:48:34Z</time>
      </trkpt>
      <trkpt lat="47.64899" lon="4.39018">
        <ele>263.6</ele>
        <time>2026-05-20T08:48:35Z</time>
      </trkpt>
      <trkpt lat="47.64895" lon="4.3902">
        <ele>262.4</ele>
        <time>2026-05-20T08:48:36Z</time>
      </trkpt>
      <trkpt lat="47.64888" lon="4.3902">
        <ele>261.4</ele>
        <time>2026-05-20T08:48:37Z</time>
      </trkpt>
      <trkpt lat="47.64883" lon="4.39022">
        <ele>261.2</ele>
        <time>2026-05-20T08:48:38Z</time>
      </trkpt>
      <trkpt lat="47.64879" lon="4.39024">
        <ele>260.8</ele>
        <time>2026-05-20T08:48:39Z</time>
      </trkpt>
      <trkpt lat="47.64874" lon="4.39026">
        <ele>260.6</ele>
        <time>2026-05-20T08:48:40Z</time>
      </trkpt>
      <trkpt lat="47.64867" lon="4.39027">
        <ele>259.6</ele>
        <time>2026-05-20T08:48:41Z</time>
      </trkpt>
      <trkpt lat="47.64863" lon="4.39033">
        <ele>259.2</ele>
        <time>2026-05-20T08:48:42Z</time>
      </trkpt>
      <trkpt lat="47.6486" lon="4.39037">
        <ele>258.4</ele>
        <time>2026-05-20T08:48:43Z</time>
      </trkpt>
      <trkpt lat="47.64859" lon="4.39042">
        <ele>258.2</ele>
        <time>2026-05-20T08:48:44Z</time>
      </trkpt>
      <trkpt lat="47.64856" lon="4.39046">
        <ele>257.6</ele>
        <time>2026-05-20T08:48:45Z</time>
      </trkpt>
      <trkpt lat="47.64853" lon="4.39047">
        <ele>257</ele>
        <time>2026-05-20T08:48:46Z</time>
      </trkpt>
      <trkpt lat="47.64848" lon="4.39048">
        <ele>256.6</ele>
        <time>2026-05-20T08:48:47Z</time>
      </trkpt>
      <trkpt lat="47.64844" lon="4.3905">
        <ele>256.2</ele>
        <time>2026-05-20T08:48:48Z</time>
      </trkpt>
      <trkpt lat="47.6484" lon="4.39053">
        <ele>256</ele>
        <time>2026-05-20T08:48:49Z</time>
      </trkpt>
      <trkpt lat="47.64836" lon="4.39053">
        <ele>255</ele>
        <time>2026-05-20T08:48:50Z</time>
      </trkpt>
      <trkpt lat="47.64831" lon="4.39055">
        <ele>254.4</ele>
        <time>2026-05-20T08:48:51Z</time>
      </trkpt>
      <trkpt lat="47.64826" lon="4.39057">
        <ele>253.8</ele>
        <time>2026-05-20T08:48:52Z</time>
      </trkpt>
      <trkpt lat="47.64821" lon="4.39059">
        <ele>253.6</ele>
        <time>2026-05-20T08:48:53Z</time>
      </trkpt>
      <trkpt lat="47.64816" lon="4.39062">
        <ele>252.8</ele>
        <time>2026-05-20T08:48:54Z</time>
      </trkpt>
      <trkpt lat="47.6481" lon="4.39067">
        <ele>252.4</ele>
        <time>2026-05-20T08:48:55Z</time>
      </trkpt>
      <trkpt lat="47.64806" lon="4.39071">
        <ele>252.2</ele>
        <time>2026-05-20T08:48:56Z</time>
      </trkpt>
      <trkpt lat="47.64802" lon="4.39074">
        <ele>251.8</ele>
        <time>2026-05-20T08:48:57Z</time>
      </trkpt>
      <trkpt lat="47.64798" lon="4.39074">
        <ele>251.4</ele>
        <time>2026-05-20T08:48:58Z</time>
      </trkpt>
      <trkpt lat="47.64794" lon="4.39073">
        <ele>250.2</ele>
        <time>2026-05-20T08:48:59Z</time>
      </trkpt>
      <trkpt lat="47.64788" lon="4.39071">
        <ele>249.8</ele>
        <time>2026-05-20T08:49:00Z</time>
      </trkpt>
      <trkpt lat="47.64782" lon="4.39071">
        <ele>249</ele>
        <time>2026-05-20T08:49:01Z</time>
      </trkpt>
      <trkpt lat="47.64777" lon="4.39072">
        <ele>249</ele>
        <time>2026-05-20T08:49:02Z</time>
      </trkpt>
      <trkpt lat="47.64771" lon="4.39073">
        <ele>248.6</ele>
        <time>2026-05-20T08:49:03Z</time>
      </trkpt>
      <trkpt lat="47.64766" lon="4.39073">
        <ele>248</ele>
        <time>2026-05-20T08:49:04Z</time>
      </trkpt>
      <trkpt lat="47.64761" lon="4.39074">
        <ele>247.6</ele>
        <time>2026-05-20T08:49:05Z</time>
      </trkpt>
      <trkpt lat="47.64755" lon="4.39075">
        <ele>247.2</ele>
        <time>2026-05-20T08:49:06Z</time>
      </trkpt>
      <trkpt lat="47.6475" lon="4.39075">
        <ele>247</ele>
        <time>2026-05-20T08:49:07Z</time>
      </trkpt>
      <trkpt lat="47.64746" lon="4.39076">
        <ele>246.6</ele>
        <time>2026-05-20T08:49:08Z</time>
      </trkpt>
      <trkpt lat="47.64741" lon="4.39076">
        <ele>246.6</ele>
        <time>2026-05-20T08:49:09Z</time>
      </trkpt>
      <trkpt lat="47.64737" lon="4.39077">
        <ele>246.4</ele>
        <time>2026-05-20T08:49:10Z</time>
      </trkpt>
      <trkpt lat="47.64734" lon="4.39079">
        <ele>246.2</ele>
        <time>2026-05-20T08:49:11Z</time>
      </trkpt>
      <trkpt lat="47.64731" lon="4.39081">
        <ele>246.2</ele>
        <time>2026-05-20T08:49:12Z</time>
      </trkpt>
      <trkpt lat="47.64727" lon="4.39082">
        <ele>246.2</ele>
        <time>2026-05-20T08:49:13Z</time>
      </trkpt>
      <trkpt lat="47.64724" lon="4.39083">
        <ele>246.2</ele>
        <time>2026-05-20T08:49:14Z</time>
      </trkpt>
      <trkpt lat="47.64721" lon="4.39084">
        <ele>246</ele>
        <time>2026-05-20T08:49:15Z</time>
      </trkpt>
      <trkpt lat="47.64717" lon="4.39085">
        <ele>246</ele>
        <time>2026-05-20T08:49:16Z</time>
      </trkpt>
      <trkpt lat="47.64713" lon="4.39087">
        <ele>246.2</ele>
        <time>2026-05-20T08:49:17Z</time>
      </trkpt>
      <trkpt lat="47.64709" lon="4.39088">
        <ele>246.2</ele>
        <time>2026-05-20T08:49:18Z</time>
      </trkpt>
      <trkpt lat="47.64705" lon="4.39089">
        <ele>246.4</ele>
        <time>2026-05-20T08:49:19Z</time>
      </trkpt>
      <trkpt lat="47.64701" lon="4.3909">
        <ele>246.4</ele>
        <time>2026-05-20T08:49:20Z</time>
      </trkpt>
      <trkpt lat="47.64696" lon="4.3909">
        <ele>246.6</ele>
        <time>2026-05-20T08:49:21Z</time>
      </trkpt>
      <trkpt lat="47.64691" lon="4.39092">
        <ele>246.4</ele>
        <time>2026-05-20T08:49:22Z</time>
      </trkpt>
      <trkpt lat="47.64687" lon="4.39091">
        <ele>246.6</ele>
        <time>2026-05-20T08:49:23Z</time>
      </trkpt>
      <trkpt lat="47.64683" lon="4.39091">
        <ele>246.8</ele>
        <time>2026-05-20T08:49:24Z</time>
      </trkpt>
      <trkpt lat="47.64679" lon="4.39091">
        <ele>246.8</ele>
        <time>2026-05-20T08:49:25Z</time>
      </trkpt>
      <trkpt lat="47.64673" lon="4.39091">
        <ele>247</ele>
        <time>2026-05-20T08:49:26Z</time>
      </trkpt>
      <trkpt lat="47.64669" lon="4.3909">
        <ele>247</ele>
        <time>2026-05-20T08:49:27Z</time>
      </trkpt>
      <trkpt lat="47.64665" lon="4.39088">
        <ele>247</ele>
        <time>2026-05-20T08:49:28Z</time>
      </trkpt>
      <trkpt lat="47.64661" lon="4.39087">
        <ele>247</ele>
        <time>2026-05-20T08:49:29Z</time>
      </trkpt>
      <trkpt lat="47.64657" lon="4.39086">
        <ele>247</ele>
        <time>2026-05-20T08:49:30Z</time>
      </trkpt>
      <trkpt lat="47.64651" lon="4.39084">
        <ele>247</ele>
        <time>2026-05-20T08:49:31Z</time>
      </trkpt>
      <trkpt lat="47.64647" lon="4.39083">
        <ele>247</ele>
        <time>2026-05-20T08:49:32Z</time>
      </trkpt>
      <trkpt lat="47.64643" lon="4.39081">
        <ele>247</ele>
        <time>2026-05-20T08:49:33Z</time>
      </trkpt>
      <trkpt lat="47.64639" lon="4.39079">
        <ele>247</ele>
        <time>2026-05-20T08:49:34Z</time>
      </trkpt>
      <trkpt lat="47.64634" lon="4.39077">
        <ele>247</ele>
        <time>2026-05-20T08:49:35Z</time>
      </trkpt>
      <trkpt lat="47.6463" lon="4.39075">
        <ele>247</ele>
        <time>2026-05-20T08:49:36Z</time>
      </trkpt>
      <trkpt lat="47.64626" lon="4.39072">
        <ele>246.8</ele>
        <time>2026-05-20T08:49:37Z</time>
      </trkpt>
      <trkpt lat="47.64622" lon="4.39067">
        <ele>246.8</ele>
        <time>2026-05-20T08:49:38Z</time>
      </trkpt>
      <trkpt lat="47.64616" lon="4.39062">
        <ele>246.8</ele>
        <time>2026-05-20T08:49:39Z</time>
      </trkpt>
      <trkpt lat="47.64611" lon="4.39059">
        <ele>246.6</ele>
        <time>2026-05-20T08:49:40Z</time>
      </trkpt>
      <trkpt lat="47.64608" lon="4.39056">
        <ele>246.6</ele>
        <time>2026-05-20T08:49:41Z</time>
      </trkpt>
      <trkpt lat="47.64603" lon="4.39055">
        <ele>246.6</ele>
        <time>2026-05-20T08:49:42Z</time>
      </trkpt>
      <trkpt lat="47.64599" lon="4.39053">
        <ele>246.4</ele>
        <time>2026-05-20T08:49:43Z</time>
      </trkpt>
      <trkpt lat="47.64594" lon="4.39049">
        <ele>246.2</ele>
        <time>2026-05-20T08:49:44Z</time>
      </trkpt>
      <trkpt lat="47.64589" lon="4.39044">
        <ele>246.2</ele>
        <time>2026-05-20T08:49:45Z</time>
      </trkpt>
      <trkpt lat="47.64583" lon="4.39039">
        <ele>246</ele>
        <time>2026-05-20T08:49:46Z</time>
      </trkpt>
      <trkpt lat="47.64578" lon="4.39034">
        <ele>246</ele>
        <time>2026-05-20T08:49:47Z</time>
      </trkpt>
      <trkpt lat="47.64573" lon="4.39029">
        <ele>245.6</ele>
        <time>2026-05-20T08:49:48Z</time>
      </trkpt>
      <trkpt lat="47.64569" lon="4.39024">
        <ele>245.4</ele>
        <time>2026-05-20T08:49:49Z</time>
      </trkpt>
      <trkpt lat="47.64563" lon="4.39019">
        <ele>245.4</ele>
        <time>2026-05-20T08:49:50Z</time>
      </trkpt>
      <trkpt lat="47.64557" lon="4.39016">
        <ele>245</ele>
        <time>2026-05-20T08:49:51Z</time>
      </trkpt>
      <trkpt lat="47.6455" lon="4.3901">
        <ele>244.6</ele>
        <time>2026-05-20T08:49:52Z</time>
      </trkpt>
      <trkpt lat="47.64543" lon="4.39006">
        <ele>244.4</ele>
        <time>2026-05-20T08:49:53Z</time>
      </trkpt>
      <trkpt lat="47.64537" lon="4.39003">
        <ele>244</ele>
        <time>2026-05-20T08:49:54Z</time>
      </trkpt>
      <trkpt lat="47.64533" lon="4.38998">
        <ele>243.6</ele>
        <time>2026-05-20T08:49:55Z</time>
      </trkpt>
      <trkpt lat="47.64529" lon="4.38994">
        <ele>243.6</ele>
        <time>2026-05-20T08:49:56Z</time>
      </trkpt>
      <trkpt lat="47.64523" lon="4.38991">
        <ele>243.4</ele>
        <time>2026-05-20T08:49:57Z</time>
      </trkpt>
      <trkpt lat="47.64517" lon="4.38988">
        <ele>243.4</ele>
        <time>2026-05-20T08:49:58Z</time>
      </trkpt>
      <trkpt lat="47.64511" lon="4.38986">
        <ele>243.2</ele>
        <time>2026-05-20T08:49:59Z</time>
      </trkpt>
      <trkpt lat="47.64506" lon="4.38984">
        <ele>243.2</ele>
        <time>2026-05-20T08:50:00Z</time>
      </trkpt>
      <trkpt lat="47.64502" lon="4.38983">
        <ele>243.2</ele>
        <time>2026-05-20T08:50:01Z</time>
      </trkpt>
      <trkpt lat="47.64498" lon="4.38981">
        <ele>243.2</ele>
        <time>2026-05-20T08:50:02Z</time>
      </trkpt>
      <trkpt lat="47.64493" lon="4.3898">
        <ele>243.2</ele>
        <time>2026-05-20T08:50:03Z</time>
      </trkpt>
      <trkpt lat="47.64489" lon="4.38977">
        <ele>243.2</ele>
        <time>2026-05-20T08:50:04Z</time>
      </trkpt>
      <trkpt lat="47.64484" lon="4.38975">
        <ele>243.2</ele>
        <time>2026-05-20T08:50:05Z</time>
      </trkpt>
      <trkpt lat="47.6448" lon="4.38973">
        <ele>243.2</ele>
        <time>2026-05-20T08:50:06Z</time>
      </trkpt>
      <trkpt lat="47.64475" lon="4.3897">
        <ele>243.2</ele>
        <time>2026-05-20T08:50:07Z</time>
      </trkpt>
      <trkpt lat="47.6447" lon="4.38967">
        <ele>243</ele>
        <time>2026-05-20T08:50:08Z</time>
      </trkpt>
      <trkpt lat="47.64465" lon="4.38965">
        <ele>243</ele>
        <time>2026-05-20T08:50:09Z</time>
      </trkpt>
      <trkpt lat="47.6446" lon="4.38964">
        <ele>243</ele>
        <time>2026-05-20T08:50:10Z</time>
      </trkpt>
      <trkpt lat="47.64455" lon="4.38963">
        <ele>243</ele>
        <time>2026-05-20T08:50:11Z</time>
      </trkpt>
      <trkpt lat="47.64449" lon="4.38962">
        <ele>243</ele>
        <time>2026-05-20T08:50:12Z</time>
      </trkpt>
      <trkpt lat="47.64446" lon="4.38961">
        <ele>243</ele>
        <time>2026-05-20T08:50:13Z</time>
      </trkpt>
      <trkpt lat="47.6444" lon="4.38958">
        <ele>243</ele>
        <time>2026-05-20T08:50:14Z</time>
      </trkpt>
      <trkpt lat="47.64435" lon="4.38956">
        <ele>242.8</ele>
        <time>2026-05-20T08:50:15Z</time>
      </trkpt>
      <trkpt lat="47.64431" lon="4.38954">
        <ele>242.8</ele>
        <time>2026-05-20T08:50:16Z</time>
      </trkpt>
      <trkpt lat="47.64425" lon="4.38951">
        <ele>242.8</ele>
        <time>2026-05-20T08:50:17Z</time>
      </trkpt>
      <trkpt lat="47.6442" lon="4.3895">
        <ele>242.6</ele>
        <time>2026-05-20T08:50:18Z</time>
      </trkpt>
      <trkpt lat="47.64414" lon="4.38948">
        <ele>242.6</ele>
        <time>2026-05-20T08:50:19Z</time>
      </trkpt>
      <trkpt lat="47.64409" lon="4.38945">
        <ele>242.6</ele>
        <time>2026-05-20T08:50:20Z</time>
      </trkpt>
      <trkpt lat="47.64403" lon="4.38941">
        <ele>242.4</ele>
        <time>2026-05-20T08:50:21Z</time>
      </trkpt>
      <trkpt lat="47.64396" lon="4.38938">
        <ele>242.2</ele>
        <time>2026-05-20T08:50:22Z</time>
      </trkpt>
      <trkpt lat="47.64389" lon="4.38937">
        <ele>242.2</ele>
        <time>2026-05-20T08:50:23Z</time>
      </trkpt>
      <trkpt lat="47.64383" lon="4.38935">
        <ele>242</ele>
        <time>2026-05-20T08:50:24Z</time>
      </trkpt>
      <trkpt lat="47.64378" lon="4.38933">
        <ele>241.8</ele>
        <time>2026-05-20T08:50:25Z</time>
      </trkpt>
      <trkpt lat="47.64371" lon="4.38929">
        <ele>241.6</ele>
        <time>2026-05-20T08:50:26Z</time>
      </trkpt>
      <trkpt lat="47.64368" lon="4.38924">
        <ele>241.4</ele>
        <time>2026-05-20T08:50:27Z</time>
      </trkpt>
      <trkpt lat="47.64364" lon="4.38922">
        <ele>241.4</ele>
        <time>2026-05-20T08:50:28Z</time>
      </trkpt>
      <trkpt lat="47.64359" lon="4.3892">
        <ele>241.2</ele>
        <time>2026-05-20T08:50:29Z</time>
      </trkpt>
      <trkpt lat="47.64354" lon="4.38916">
        <ele>241</ele>
        <time>2026-05-20T08:50:30Z</time>
      </trkpt>
      <trkpt lat="47.64351" lon="4.38913">
        <ele>240.8</ele>
        <time>2026-05-20T08:50:31Z</time>
      </trkpt>
      <trkpt lat="47.64348" lon="4.38911">
        <ele>240.8</ele>
        <time>2026-05-20T08:50:32Z</time>
      </trkpt>
      <trkpt lat="47.64346" lon="4.3891">
        <ele>240.8</ele>
        <time>2026-05-20T08:50:33Z</time>
      </trkpt>
      <trkpt lat="47.64345" lon="4.3891">
        <ele>240.8</ele>
        <time>2026-05-20T08:50:34Z</time>
      </trkpt>
      <trkpt lat="47.64343" lon="4.3891">
        <ele>240.8</ele>
        <time>2026-05-20T08:50:35Z</time>
      </trkpt>
      <trkpt lat="47.64342" lon="4.38909">
        <ele>240.8</ele>
        <time>2026-05-20T08:50:36Z</time>
      </trkpt>
      <trkpt lat="47.6434" lon="4.38909">
        <ele>240.8</ele>
        <time>2026-05-20T08:50:37Z</time>
      </trkpt>
      <trkpt lat="47.64339" lon="4.38909">
        <ele>240.8</ele>
        <time>2026-05-20T08:50:38Z</time>
      </trkpt>
      <trkpt lat="47.64338" lon="4.38908">
        <ele>240.8</ele>
        <time>2026-05-20T08:50:39Z</time>
      </trkpt>
      <trkpt lat="47.64336" lon="4.38908">
        <ele>241</ele>
        <time>2026-05-20T08:50:40Z</time>
      </trkpt>
      <trkpt lat="47.64335" lon="4.38906">
        <ele>241</ele>
        <time>2026-05-20T08:50:41Z</time>
      </trkpt>
      <trkpt lat="47.64334" lon="4.38905">
        <ele>241.2</ele>
        <time>2026-05-20T08:50:42Z</time>
      </trkpt>
      <trkpt lat="47.64332" lon="4.38903">
        <ele>241.4</ele>
        <time>2026-05-20T08:50:43Z</time>
      </trkpt>
      <trkpt lat="47.6433" lon="4.38901">
        <ele>241.8</ele>
        <time>2026-05-20T08:50:44Z</time>
      </trkpt>
      <trkpt lat="47.6433" lon="4.38899">
        <ele>242</ele>
        <time>2026-05-20T08:50:45Z</time>
      </trkpt>
      <trkpt lat="47.64329" lon="4.38896">
        <ele>242</ele>
        <time>2026-05-20T08:50:46Z</time>
      </trkpt>
      <trkpt lat="47.64328" lon="4.38894">
        <ele>242.4</ele>
        <time>2026-05-20T08:50:47Z</time>
      </trkpt>
      <trkpt lat="47.64327" lon="4.38892">
        <ele>242.4</ele>
        <time>2026-05-20T08:50:48Z</time>
      </trkpt>
      <trkpt lat="47.64326" lon="4.38889">
        <ele>242.8</ele>
        <time>2026-05-20T08:50:49Z</time>
      </trkpt>
      <trkpt lat="47.64325" lon="4.38887">
        <ele>242.8</ele>
        <time>2026-05-20T08:50:50Z</time>
      </trkpt>
      <trkpt lat="47.64323" lon="4.38886">
        <ele>243.2</ele>
        <time>2026-05-20T08:50:51Z</time>
      </trkpt>
      <trkpt lat="47.64322" lon="4.38884">
        <ele>243.2</ele>
        <time>2026-05-20T08:50:52Z</time>
      </trkpt>
      <trkpt lat="47.6432" lon="4.38882">
        <ele>243.6</ele>
        <time>2026-05-20T08:50:53Z</time>
      </trkpt>
      <trkpt lat="47.64319" lon="4.38881">
        <ele>243.8</ele>
        <time>2026-05-20T08:50:54Z</time>
      </trkpt>
      <trkpt lat="47.64317" lon="4.38879">
        <ele>244</ele>
        <time>2026-05-20T08:50:55Z</time>
      </trkpt>
      <trkpt lat="47.64316" lon="4.38877">
        <ele>244.4</ele>
        <time>2026-05-20T08:50:56Z</time>
      </trkpt>
      <trkpt lat="47.64314" lon="4.38875">
        <ele>244.8</ele>
        <time>2026-05-20T08:50:57Z</time>
      </trkpt>
      <trkpt lat="47.64312" lon="4.38873">
        <ele>245</ele>
        <time>2026-05-20T08:50:58Z</time>
      </trkpt>
      <trkpt lat="47.6431" lon="4.38872">
        <ele>245.2</ele>
        <time>2026-05-20T08:50:59Z</time>
      </trkpt>
      <trkpt lat="47.64307" lon="4.38871">
        <ele>245.4</ele>
        <time>2026-05-20T08:51:00Z</time>
      </trkpt>
      <trkpt lat="47.64305" lon="4.3887">
        <ele>245.6</ele>
        <time>2026-05-20T08:51:01Z</time>
      </trkpt>
      <trkpt lat="47.64304" lon="4.38868">
        <ele>246</ele>
        <time>2026-05-20T08:51:02Z</time>
      </trkpt>
      <trkpt lat="47.64301" lon="4.38866">
        <ele>246.4</ele>
        <time>2026-05-20T08:51:03Z</time>
      </trkpt>
      <trkpt lat="47.64298" lon="4.38864">
        <ele>246.6</ele>
        <time>2026-05-20T08:51:04Z</time>
      </trkpt>
      <trkpt lat="47.64297" lon="4.38862">
        <ele>246.8</ele>
        <time>2026-05-20T08:51:05Z</time>
      </trkpt>
      <trkpt lat="47.64296" lon="4.38862">
        <ele>247</ele>
        <time>2026-05-20T08:51:06Z</time>
      </trkpt>
      <trkpt lat="47.64296" lon="4.38862">
        <ele>247.4</ele>
        <time>2026-05-20T08:51:07Z</time>
      </trkpt>
      <trkpt lat="47.64296" lon="4.38861">
        <ele>247.6</ele>
        <time>2026-05-20T08:51:08Z</time>
      </trkpt>
      <trkpt lat="47.64295" lon="4.38858">
        <ele>248</ele>
        <time>2026-05-20T08:51:09Z</time>
      </trkpt>
      <trkpt lat="47.64294" lon="4.38855">
        <ele>248</ele>
        <time>2026-05-20T08:51:10Z</time>
      </trkpt>
      <trkpt lat="47.64293" lon="4.38855">
        <ele>248.4</ele>
        <time>2026-05-20T08:51:11Z</time>
      </trkpt>
      <trkpt lat="47.64291" lon="4.38851">
        <ele>248.6</ele>
        <time>2026-05-20T08:51:12Z</time>
      </trkpt>
      <trkpt lat="47.64289" lon="4.38848">
        <ele>248.8</ele>
        <time>2026-05-20T08:51:13Z</time>
      </trkpt>
      <trkpt lat="47.64288" lon="4.38847">
        <ele>249</ele>
        <time>2026-05-20T08:51:14Z</time>
      </trkpt>
      <trkpt lat="47.64287" lon="4.38846">
        <ele>249</ele>
        <time>2026-05-20T08:51:15Z</time>
      </trkpt>
      <trkpt lat="47.64285" lon="4.38844">
        <ele>249.2</ele>
        <time>2026-05-20T08:51:16Z</time>
      </trkpt>
      <trkpt lat="47.64283" lon="4.38843">
        <ele>249.4</ele>
        <time>2026-05-20T08:51:17Z</time>
      </trkpt>
      <trkpt lat="47.64281" lon="4.38841">
        <ele>249.8</ele>
        <time>2026-05-20T08:51:18Z</time>
      </trkpt>
      <trkpt lat="47.64281" lon="4.3884">
        <ele>249.8</ele>
        <time>2026-05-20T08:51:19Z</time>
      </trkpt>
      <trkpt lat="47.64279" lon="4.38837">
        <ele>250.2</ele>
        <time>2026-05-20T08:51:20Z</time>
      </trkpt>
      <trkpt lat="47.64276" lon="4.38835">
        <ele>250.6</ele>
        <time>2026-05-20T08:51:21Z</time>
      </trkpt>
      <trkpt lat="47.64275" lon="4.38832">
        <ele>250.6</ele>
        <time>2026-05-20T08:51:22Z</time>
      </trkpt>
      <trkpt lat="47.64273" lon="4.38831">
        <ele>250.8</ele>
        <time>2026-05-20T08:51:23Z</time>
      </trkpt>
      <trkpt lat="47.64272" lon="4.3883">
        <ele>251</ele>
        <time>2026-05-20T08:51:24Z</time>
      </trkpt>
      <trkpt lat="47.64272" lon="4.38828">
        <ele>251.4</ele>
        <time>2026-05-20T08:51:25Z</time>
      </trkpt>
      <trkpt lat="47.64272" lon="4.38828">
        <ele>251.6</ele>
        <time>2026-05-20T08:51:26Z</time>
      </trkpt>
      <trkpt lat="47.64271" lon="4.38825">
        <ele>252</ele>
        <time>2026-05-20T08:51:27Z</time>
      </trkpt>
      <trkpt lat="47.64271" lon="4.38825">
        <ele>252</ele>
        <time>2026-05-20T08:51:28Z</time>
      </trkpt>
      <trkpt lat="47.64271" lon="4.38823">
        <ele>252.2</ele>
        <time>2026-05-20T08:51:29Z</time>
      </trkpt>
      <trkpt lat="47.6427" lon="4.38821">
        <ele>252.4</ele>
        <time>2026-05-20T08:51:30Z</time>
      </trkpt>
      <trkpt lat="47.64269" lon="4.3882">
        <ele>252.6</ele>
        <time>2026-05-20T08:51:31Z</time>
      </trkpt>
      <trkpt lat="47.64267" lon="4.38818">
        <ele>252.8</ele>
        <time>2026-05-20T08:51:32Z</time>
      </trkpt>
      <trkpt lat="47.64264" lon="4.38816">
        <ele>253</ele>
        <time>2026-05-20T08:51:33Z</time>
      </trkpt>
      <trkpt lat="47.64263" lon="4.38814">
        <ele>253.2</ele>
        <time>2026-05-20T08:51:34Z</time>
      </trkpt>
      <trkpt lat="47.64262" lon="4.38812">
        <ele>253.4</ele>
        <time>2026-05-20T08:51:35Z</time>
      </trkpt>
      <trkpt lat="47.6426" lon="4.38809">
        <ele>253.8</ele>
        <time>2026-05-20T08:51:36Z</time>
      </trkpt>
      <trkpt lat="47.64257" lon="4.38805">
        <ele>254</ele>
        <time>2026-05-20T08:51:37Z</time>
      </trkpt>
      <trkpt lat="47.64255" lon="4.38802">
        <ele>254.2</ele>
        <time>2026-05-20T08:51:38Z</time>
      </trkpt>
      <trkpt lat="47.64254" lon="4.38801">
        <ele>254.4</ele>
        <time>2026-05-20T08:51:39Z</time>
      </trkpt>
      <trkpt lat="47.64253" lon="4.38801">
        <ele>254.6</ele>
        <time>2026-05-20T08:51:40Z</time>
      </trkpt>
      <trkpt lat="47.64252" lon="4.388">
        <ele>254.8</ele>
        <time>2026-05-20T08:51:41Z</time>
      </trkpt>
      <trkpt lat="47.64252" lon="4.38798">
        <ele>255</ele>
        <time>2026-05-20T08:51:42Z</time>
      </trkpt>
      <trkpt lat="47.64251" lon="4.38796">
        <ele>255.4</ele>
        <time>2026-05-20T08:51:43Z</time>
      </trkpt>
      <trkpt lat="47.6425" lon="4.38794">
        <ele>255.6</ele>
        <time>2026-05-20T08:51:44Z</time>
      </trkpt>
      <trkpt lat="47.64247" lon="4.3879">
        <ele>256</ele>
        <time>2026-05-20T08:51:45Z</time>
      </trkpt>
      <trkpt lat="47.64244" lon="4.38788">
        <ele>256</ele>
        <time>2026-05-20T08:51:46Z</time>
      </trkpt>
      <trkpt lat="47.64244" lon="4.38788">
        <ele>256.2</ele>
        <time>2026-05-20T08:51:47Z</time>
      </trkpt>
      <trkpt lat="47.64244" lon="4.38788">
        <ele>256.6</ele>
        <time>2026-05-20T08:51:48Z</time>
      </trkpt>
      <trkpt lat="47.64243" lon="4.38788">
        <ele>256.8</ele>
        <time>2026-05-20T08:51:49Z</time>
      </trkpt>
      <trkpt lat="47.64241" lon="4.38787">
        <ele>257</ele>
        <time>2026-05-20T08:51:50Z</time>
      </trkpt>
      <trkpt lat="47.6424" lon="4.38786">
        <ele>257</ele>
        <time>2026-05-20T08:51:51Z</time>
      </trkpt>
      <trkpt lat="47.64239" lon="4.38785">
        <ele>257.4</ele>
        <time>2026-05-20T08:51:52Z</time>
      </trkpt>
      <trkpt lat="47.64238" lon="4.38783">
        <ele>257.6</ele>
        <time>2026-05-20T08:51:53Z</time>
      </trkpt>
      <trkpt lat="47.64237" lon="4.38781">
        <ele>257.8</ele>
        <time>2026-05-20T08:51:54Z</time>
      </trkpt>
      <trkpt lat="47.64235" lon="4.38781">
        <ele>258</ele>
        <time>2026-05-20T08:51:55Z</time>
      </trkpt>
      <trkpt lat="47.64236" lon="4.38782">
        <ele>258.2</ele>
        <time>2026-05-20T08:51:56Z</time>
      </trkpt>
      <trkpt lat="47.64234" lon="4.38777">
        <ele>258.6</ele>
        <time>2026-05-20T08:51:57Z</time>
      </trkpt>
      <trkpt lat="47.64234" lon="4.38774">
        <ele>258.6</ele>
        <time>2026-05-20T08:51:58Z</time>
      </trkpt>
      <trkpt lat="47.64232" lon="4.38771">
        <ele>259</ele>
        <time>2026-05-20T08:51:59Z</time>
      </trkpt>
      <trkpt lat="47.64231" lon="4.38769">
        <ele>259.2</ele>
        <time>2026-05-20T08:52:00Z</time>
      </trkpt>
      <trkpt lat="47.64228" lon="4.38769">
        <ele>259.6</ele>
        <time>2026-05-20T08:52:01Z</time>
      </trkpt>
      <trkpt lat="47.64227" lon="4.38769">
        <ele>260</ele>
        <time>2026-05-20T08:52:02Z</time>
      </trkpt>
      <trkpt lat="47.64226" lon="4.38769">
        <ele>260.4</ele>
        <time>2026-05-20T08:52:03Z</time>
      </trkpt>
      <trkpt lat="47.64224" lon="4.38767">
        <ele>260.6</ele>
        <time>2026-05-20T08:52:04Z</time>
      </trkpt>
      <trkpt lat="47.64223" lon="4.38766">
        <ele>261</ele>
        <time>2026-05-20T08:52:05Z</time>
      </trkpt>
      <trkpt lat="47.64221" lon="4.38765">
        <ele>261.2</ele>
        <time>2026-05-20T08:52:06Z</time>
      </trkpt>
      <trkpt lat="47.6422" lon="4.38763">
        <ele>261.4</ele>
        <time>2026-05-20T08:52:07Z</time>
      </trkpt>
      <trkpt lat="47.64219" lon="4.3876">
        <ele>261.8</ele>
        <time>2026-05-20T08:52:08Z</time>
      </trkpt>
      <trkpt lat="47.64217" lon="4.3876">
        <ele>262</ele>
        <time>2026-05-20T08:52:09Z</time>
      </trkpt>
      <trkpt lat="47.64217" lon="4.38759">
        <ele>262.2</ele>
        <time>2026-05-20T08:52:10Z</time>
      </trkpt>
      <trkpt lat="47.64217" lon="4.38758">
        <ele>262.4</ele>
        <time>2026-05-20T08:52:11Z</time>
      </trkpt>
      <trkpt lat="47.64216" lon="4.38757">
        <ele>262.8</ele>
        <time>2026-05-20T08:52:12Z</time>
      </trkpt>
      <trkpt lat="47.64214" lon="4.38756">
        <ele>263</ele>
        <time>2026-05-20T08:52:13Z</time>
      </trkpt>
      <trkpt lat="47.64212" lon="4.38755">
        <ele>263.4</ele>
        <time>2026-05-20T08:52:14Z</time>
      </trkpt>
      <trkpt lat="47.6421" lon="4.38754">
        <ele>263.6</ele>
        <time>2026-05-20T08:52:15Z</time>
      </trkpt>
      <trkpt lat="47.64209" lon="4.38753">
        <ele>263.8</ele>
        <time>2026-05-20T08:52:16Z</time>
      </trkpt>
      <trkpt lat="47.64207" lon="4.38752">
        <ele>264</ele>
        <time>2026-05-20T08:52:17Z</time>
      </trkpt>
      <trkpt lat="47.64206" lon="4.38751">
        <ele>264.2</ele>
        <time>2026-05-20T08:52:18Z</time>
      </trkpt>
      <trkpt lat="47.64203" lon="4.3875">
        <ele>264.4</ele>
        <time>2026-05-20T08:52:19Z</time>
      </trkpt>
      <trkpt lat="47.64201" lon="4.38748">
        <ele>264.6</ele>
        <time>2026-05-20T08:52:20Z</time>
      </trkpt>
      <trkpt lat="47.64199" lon="4.38748">
        <ele>264.8</ele>
        <time>2026-05-20T08:52:21Z</time>
      </trkpt>
      <trkpt lat="47.64198" lon="4.38746">
        <ele>264.8</ele>
        <time>2026-05-20T08:52:22Z</time>
      </trkpt>
      <trkpt lat="47.64196" lon="4.38745">
        <ele>264.8</ele>
        <time>2026-05-20T08:52:23Z</time>
      </trkpt>
      <trkpt lat="47.64195" lon="4.38744">
        <ele>265</ele>
        <time>2026-05-20T08:52:24Z</time>
      </trkpt>
      <trkpt lat="47.64194" lon="4.38743">
        <ele>265</ele>
        <time>2026-05-20T08:52:25Z</time>
      </trkpt>
      <trkpt lat="47.64191" lon="4.38742">
        <ele>265.2</ele>
        <time>2026-05-20T08:52:26Z</time>
      </trkpt>
      <trkpt lat="47.6419" lon="4.38741">
        <ele>265.2</ele>
        <time>2026-05-20T08:52:27Z</time>
      </trkpt>
      <trkpt lat="47.64189" lon="4.3874">
        <ele>265.4</ele>
        <time>2026-05-20T08:52:28Z</time>
      </trkpt>
      <trkpt lat="47.64189" lon="4.38739">
        <ele>265.4</ele>
        <time>2026-05-20T08:52:29Z</time>
      </trkpt>
      <trkpt lat="47.64188" lon="4.38739">
        <ele>265.6</ele>
        <time>2026-05-20T08:52:30Z</time>
      </trkpt>
      <trkpt lat="47.64186" lon="4.38739">
        <ele>265.6</ele>
        <time>2026-05-20T08:52:31Z</time>
      </trkpt>
      <trkpt lat="47.64185" lon="4.38739">
        <ele>265.8</ele>
        <time>2026-05-20T08:52:32Z</time>
      </trkpt>
      <trkpt lat="47.64184" lon="4.38739">
        <ele>266</ele>
        <time>2026-05-20T08:52:33Z</time>
      </trkpt>
      <trkpt lat="47.64182" lon="4.38738">
        <ele>266</ele>
        <time>2026-05-20T08:52:34Z</time>
      </trkpt>
      <trkpt lat="47.64181" lon="4.38737">
        <ele>266.2</ele>
        <time>2026-05-20T08:52:35Z</time>
      </trkpt>
      <trkpt lat="47.6418" lon="4.38737">
        <ele>266.4</ele>
        <time>2026-05-20T08:52:36Z</time>
      </trkpt>
      <trkpt lat="47.64179" lon="4.38736">
        <ele>267</ele>
        <time>2026-05-20T08:52:37Z</time>
      </trkpt>
      <trkpt lat="47.64178" lon="4.38736">
        <ele>267</ele>
        <time>2026-05-20T08:52:38Z</time>
      </trkpt>
      <trkpt lat="47.64177" lon="4.38735">
        <ele>267.4</ele>
        <time>2026-05-20T08:52:39Z</time>
      </trkpt>
      <trkpt lat="47.64176" lon="4.38734">
        <ele>267.4</ele>
        <time>2026-05-20T08:52:40Z</time>
      </trkpt>
      <trkpt lat="47.64175" lon="4.38733">
        <ele>267.4</ele>
        <time>2026-05-20T08:52:41Z</time>
      </trkpt>
      <trkpt lat="47.64173" lon="4.38732">
        <ele>267.8</ele>
        <time>2026-05-20T08:52:42Z</time>
      </trkpt>
      <trkpt lat="47.64172" lon="4.38731">
        <ele>268.2</ele>
        <time>2026-05-20T08:52:43Z</time>
      </trkpt>
      <trkpt lat="47.64171" lon="4.38731">
        <ele>268.2</ele>
        <time>2026-05-20T08:52:44Z</time>
      </trkpt>
      <trkpt lat="47.6417" lon="4.3873">
        <ele>268.2</ele>
        <time>2026-05-20T08:52:45Z</time>
      </trkpt>
      <trkpt lat="47.64169" lon="4.38728">
        <ele>268.4</ele>
        <time>2026-05-20T08:52:46Z</time>
      </trkpt>
      <trkpt lat="47.64167" lon="4.38727">
        <ele>268.4</ele>
        <time>2026-05-20T08:52:47Z</time>
      </trkpt>
      <trkpt lat="47.64166" lon="4.38725">
        <ele>268.6</ele>
        <time>2026-05-20T08:52:48Z</time>
      </trkpt>
      <trkpt lat="47.64164" lon="4.38723">
        <ele>268.8</ele>
        <time>2026-05-20T08:52:49Z</time>
      </trkpt>
      <trkpt lat="47.64162" lon="4.38721">
        <ele>269.2</ele>
        <time>2026-05-20T08:52:50Z</time>
      </trkpt>
      <trkpt lat="47.64161" lon="4.38719">
        <ele>269.4</ele>
        <time>2026-05-20T08:52:51Z</time>
      </trkpt>
      <trkpt lat="47.64159" lon="4.38718">
        <ele>269.4</ele>
        <time>2026-05-20T08:52:52Z</time>
      </trkpt>
      <trkpt lat="47.64158" lon="4.38716">
        <ele>269.8</ele>
        <time>2026-05-20T08:52:53Z</time>
      </trkpt>
      <trkpt lat="47.64158" lon="4.38714">
        <ele>269.6</ele>
        <time>2026-05-20T08:52:54Z</time>
      </trkpt>
      <trkpt lat="47.64157" lon="4.38711">
        <ele>270.2</ele>
        <time>2026-05-20T08:52:55Z</time>
      </trkpt>
      <trkpt lat="47.64157" lon="4.38709">
        <ele>270.6</ele>
        <time>2026-05-20T08:52:56Z</time>
      </trkpt>
      <trkpt lat="47.64157" lon="4.38707">
        <ele>270.8</ele>
        <time>2026-05-20T08:52:57Z</time>
      </trkpt>
      <trkpt lat="47.64156" lon="4.38704">
        <ele>271</ele>
        <time>2026-05-20T08:52:58Z</time>
      </trkpt>
      <trkpt lat="47.64156" lon="4.38702">
        <ele>271.4</ele>
        <time>2026-05-20T08:52:59Z</time>
      </trkpt>
      <trkpt lat="47.64156" lon="4.38699">
        <ele>272.2</ele>
        <time>2026-05-20T08:53:00Z</time>
      </trkpt>
      <trkpt lat="47.64156" lon="4.38697">
        <ele>272.4</ele>
        <time>2026-05-20T08:53:01Z</time>
      </trkpt>
      <trkpt lat="47.64156" lon="4.38694">
        <ele>272.8</ele>
        <time>2026-05-20T08:53:02Z</time>
      </trkpt>
      <trkpt lat="47.64157" lon="4.38692">
        <ele>272.8</ele>
        <time>2026-05-20T08:53:03Z</time>
      </trkpt>
      <trkpt lat="47.64157" lon="4.3869">
        <ele>273.2</ele>
        <time>2026-05-20T08:53:04Z</time>
      </trkpt>
      <trkpt lat="47.64158" lon="4.38689">
        <ele>273</ele>
        <time>2026-05-20T08:53:05Z</time>
      </trkpt>
      <trkpt lat="47.64159" lon="4.38687">
        <ele>273.2</ele>
        <time>2026-05-20T08:53:06Z</time>
      </trkpt>
      <trkpt lat="47.64159" lon="4.38684">
        <ele>273.6</ele>
        <time>2026-05-20T08:53:07Z</time>
      </trkpt>
      <trkpt lat="47.6416" lon="4.38683">
        <ele>273.6</ele>
        <time>2026-05-20T08:53:08Z</time>
      </trkpt>
      <trkpt lat="47.64161" lon="4.3868">
        <ele>273.8</ele>
        <time>2026-05-20T08:53:09Z</time>
      </trkpt>
      <trkpt lat="47.64162" lon="4.38678">
        <ele>274.2</ele>
        <time>2026-05-20T08:53:10Z</time>
      </trkpt>
      <trkpt lat="47.64164" lon="4.38675">
        <ele>274.4</ele>
        <time>2026-05-20T08:53:11Z</time>
      </trkpt>
      <trkpt lat="47.64165" lon="4.38673">
        <ele>274.4</ele>
        <time>2026-05-20T08:53:12Z</time>
      </trkpt>
      <trkpt lat="47.64166" lon="4.3867">
        <ele>274.6</ele>
        <time>2026-05-20T08:53:13Z</time>
      </trkpt>
      <trkpt lat="47.64166" lon="4.38667">
        <ele>274.6</ele>
        <time>2026-05-20T08:53:14Z</time>
      </trkpt>
      <trkpt lat="47.64167" lon="4.38664">
        <ele>274.6</ele>
        <time>2026-05-20T08:53:15Z</time>
      </trkpt>
      <trkpt lat="47.64168" lon="4.38663">
        <ele>274.8</ele>
        <time>2026-05-20T08:53:16Z</time>
      </trkpt>
      <trkpt lat="47.64168" lon="4.38661">
        <ele>275</ele>
        <time>2026-05-20T08:53:17Z</time>
      </trkpt>
      <trkpt lat="47.64168" lon="4.38658">
        <ele>275</ele>
        <time>2026-05-20T08:53:18Z</time>
      </trkpt>
      <trkpt lat="47.64168" lon="4.38656">
        <ele>275.2</ele>
        <time>2026-05-20T08:53:19Z</time>
      </trkpt>
      <trkpt lat="47.64167" lon="4.38655">
        <ele>275.2</ele>
        <time>2026-05-20T08:53:20Z</time>
      </trkpt>
      <trkpt lat="47.64167" lon="4.38653">
        <ele>275.2</ele>
        <time>2026-05-20T08:53:21Z</time>
      </trkpt>
      <trkpt lat="47.64166" lon="4.38651">
        <ele>275.6</ele>
        <time>2026-05-20T08:53:22Z</time>
      </trkpt>
      <trkpt lat="47.64165" lon="4.3865">
        <ele>275.6</ele>
        <time>2026-05-20T08:53:23Z</time>
      </trkpt>
      <trkpt lat="47.64165" lon="4.38648">
        <ele>275.8</ele>
        <time>2026-05-20T08:53:24Z</time>
      </trkpt>
      <trkpt lat="47.64164" lon="4.38647">
        <ele>276</ele>
        <time>2026-05-20T08:53:25Z</time>
      </trkpt>
      <trkpt lat="47.64164" lon="4.38646">
        <ele>276</ele>
        <time>2026-05-20T08:53:26Z</time>
      </trkpt>
      <trkpt lat="47.64162" lon="4.38645">
        <ele>275.8</ele>
        <time>2026-05-20T08:53:27Z</time>
      </trkpt>
      <trkpt lat="47.64161" lon="4.38643">
        <ele>276.2</ele>
        <time>2026-05-20T08:53:28Z</time>
      </trkpt>
      <trkpt lat="47.64161" lon="4.38643">
        <ele>276.2</ele>
        <time>2026-05-20T08:53:29Z</time>
      </trkpt>
      <trkpt lat="47.64158" lon="4.3864">
        <ele>276.2</ele>
        <time>2026-05-20T08:53:30Z</time>
      </trkpt>
      <trkpt lat="47.64157" lon="4.38639">
        <ele>276.4</ele>
        <time>2026-05-20T08:53:31Z</time>
      </trkpt>
      <trkpt lat="47.64156" lon="4.38638">
        <ele>276.6</ele>
        <time>2026-05-20T08:53:32Z</time>
      </trkpt>
      <trkpt lat="47.64155" lon="4.38636">
        <ele>276.6</ele>
        <time>2026-05-20T08:53:33Z</time>
      </trkpt>
      <trkpt lat="47.64154" lon="4.38634">
        <ele>276.8</ele>
        <time>2026-05-20T08:53:34Z</time>
      </trkpt>
      <trkpt lat="47.64153" lon="4.38632">
        <ele>276.8</ele>
        <time>2026-05-20T08:53:35Z</time>
      </trkpt>
      <trkpt lat="47.64151" lon="4.3863">
        <ele>277</ele>
        <time>2026-05-20T08:53:36Z</time>
      </trkpt>
      <trkpt lat="47.64149" lon="4.38628">
        <ele>277.2</ele>
        <time>2026-05-20T08:53:37Z</time>
      </trkpt>
      <trkpt lat="47.64147" lon="4.38625">
        <ele>277.2</ele>
        <time>2026-05-20T08:53:38Z</time>
      </trkpt>
      <trkpt lat="47.64145" lon="4.38623">
        <ele>277.2</ele>
        <time>2026-05-20T08:53:39Z</time>
      </trkpt>
      <trkpt lat="47.64144" lon="4.3862">
        <ele>277.4</ele>
        <time>2026-05-20T08:53:40Z</time>
      </trkpt>
      <trkpt lat="47.64143" lon="4.38618">
        <ele>277.4</ele>
        <time>2026-05-20T08:53:41Z</time>
      </trkpt>
      <trkpt lat="47.64142" lon="4.38616">
        <ele>277.4</ele>
        <time>2026-05-20T08:53:42Z</time>
      </trkpt>
      <trkpt lat="47.6414" lon="4.38614">
        <ele>277.4</ele>
        <time>2026-05-20T08:53:43Z</time>
      </trkpt>
      <trkpt lat="47.64139" lon="4.38611">
        <ele>277.6</ele>
        <time>2026-05-20T08:53:44Z</time>
      </trkpt>
      <trkpt lat="47.64137" lon="4.38608">
        <ele>277.6</ele>
        <time>2026-05-20T08:53:45Z</time>
      </trkpt>
      <trkpt lat="47.64134" lon="4.38605">
        <ele>277.6</ele>
        <time>2026-05-20T08:53:46Z</time>
      </trkpt>
      <trkpt lat="47.64131" lon="4.38603">
        <ele>277.8</ele>
        <time>2026-05-20T08:53:47Z</time>
      </trkpt>
      <trkpt lat="47.64129" lon="4.38601">
        <ele>277.8</ele>
        <time>2026-05-20T08:53:48Z</time>
      </trkpt>
      <trkpt lat="47.64126" lon="4.38598">
        <ele>278</ele>
        <time>2026-05-20T08:53:49Z</time>
      </trkpt>
      <trkpt lat="47.64124" lon="4.38596">
        <ele>278</ele>
        <time>2026-05-20T08:53:50Z</time>
      </trkpt>
      <trkpt lat="47.64121" lon="4.38594">
        <ele>278</ele>
        <time>2026-05-20T08:53:51Z</time>
      </trkpt>
      <trkpt lat="47.6412" lon="4.38591">
        <ele>278</ele>
        <time>2026-05-20T08:53:52Z</time>
      </trkpt>
      <trkpt lat="47.64118" lon="4.38588">
        <ele>278.2</ele>
        <time>2026-05-20T08:53:53Z</time>
      </trkpt>
      <trkpt lat="47.64116" lon="4.38585">
        <ele>278.4</ele>
        <time>2026-05-20T08:53:54Z</time>
      </trkpt>
      <trkpt lat="47.64115" lon="4.38583">
        <ele>278.6</ele>
        <time>2026-05-20T08:53:55Z</time>
      </trkpt>
      <trkpt lat="47.64113" lon="4.3858">
        <ele>278.6</ele>
        <time>2026-05-20T08:53:56Z</time>
      </trkpt>
      <trkpt lat="47.64111" lon="4.38577">
        <ele>278.6</ele>
        <time>2026-05-20T08:53:57Z</time>
      </trkpt>
      <trkpt lat="47.6411" lon="4.38574">
        <ele>278.6</ele>
        <time>2026-05-20T08:53:58Z</time>
      </trkpt>
      <trkpt lat="47.64107" lon="4.38571">
        <ele>278.6</ele>
        <time>2026-05-20T08:53:59Z</time>
      </trkpt>
      <trkpt lat="47.64106" lon="4.38569">
        <ele>278.6</ele>
        <time>2026-05-20T08:54:00Z</time>
      </trkpt>
      <trkpt lat="47.64104" lon="4.38565">
        <ele>278.8</ele>
        <time>2026-05-20T08:54:01Z</time>
      </trkpt>
      <trkpt lat="47.64103" lon="4.38564">
        <ele>278.8</ele>
        <time>2026-05-20T08:54:02Z</time>
      </trkpt>
      <trkpt lat="47.64102" lon="4.38561">
        <ele>278.8</ele>
        <time>2026-05-20T08:54:03Z</time>
      </trkpt>
      <trkpt lat="47.64099" lon="4.38558">
        <ele>279</ele>
        <time>2026-05-20T08:54:04Z</time>
      </trkpt>
      <trkpt lat="47.64096" lon="4.38556">
        <ele>279</ele>
        <time>2026-05-20T08:54:05Z</time>
      </trkpt>
      <trkpt lat="47.64094" lon="4.38555">
        <ele>279</ele>
        <time>2026-05-20T08:54:06Z</time>
      </trkpt>
      <trkpt lat="47.64092" lon="4.38554">
        <ele>279.2</ele>
        <time>2026-05-20T08:54:07Z</time>
      </trkpt>
      <trkpt lat="47.6409" lon="4.38551">
        <ele>279.2</ele>
        <time>2026-05-20T08:54:08Z</time>
      </trkpt>
      <trkpt lat="47.64088" lon="4.38548">
        <ele>279.2</ele>
        <time>2026-05-20T08:54:09Z</time>
      </trkpt>
      <trkpt lat="47.64086" lon="4.38545">
        <ele>279.2</ele>
        <time>2026-05-20T08:54:10Z</time>
      </trkpt>
      <trkpt lat="47.64084" lon="4.38543">
        <ele>279.2</ele>
        <time>2026-05-20T08:54:11Z</time>
      </trkpt>
      <trkpt lat="47.64082" lon="4.3854">
        <ele>279.4</ele>
        <time>2026-05-20T08:54:12Z</time>
      </trkpt>
      <trkpt lat="47.64081" lon="4.38537">
        <ele>279.4</ele>
        <time>2026-05-20T08:54:13Z</time>
      </trkpt>
      <trkpt lat="47.6408" lon="4.38534">
        <ele>279.6</ele>
        <time>2026-05-20T08:54:14Z</time>
      </trkpt>
      <trkpt lat="47.64078" lon="4.38532">
        <ele>279.6</ele>
        <time>2026-05-20T08:54:15Z</time>
      </trkpt>
      <trkpt lat="47.64075" lon="4.38528">
        <ele>279.6</ele>
        <time>2026-05-20T08:54:16Z</time>
      </trkpt>
      <trkpt lat="47.64073" lon="4.38527">
        <ele>279.6</ele>
        <time>2026-05-20T08:54:17Z</time>
      </trkpt>
      <trkpt lat="47.64071" lon="4.38525">
        <ele>279.8</ele>
        <time>2026-05-20T08:54:18Z</time>
      </trkpt>
      <trkpt lat="47.6407" lon="4.38524">
        <ele>279.8</ele>
        <time>2026-05-20T08:54:19Z</time>
      </trkpt>
      <trkpt lat="47.64069" lon="4.38521">
        <ele>280</ele>
        <time>2026-05-20T08:54:20Z</time>
      </trkpt>
      <trkpt lat="47.64068" lon="4.38518">
        <ele>280.2</ele>
        <time>2026-05-20T08:54:21Z</time>
      </trkpt>
      <trkpt lat="47.64066" lon="4.38515">
        <ele>280.4</ele>
        <time>2026-05-20T08:54:22Z</time>
      </trkpt>
      <trkpt lat="47.64065" lon="4.38512">
        <ele>280.6</ele>
        <time>2026-05-20T08:54:23Z</time>
      </trkpt>
      <trkpt lat="47.64062" lon="4.3851">
        <ele>280.8</ele>
        <time>2026-05-20T08:54:24Z</time>
      </trkpt>
      <trkpt lat="47.64061" lon="4.38507">
        <ele>280.8</ele>
        <time>2026-05-20T08:54:25Z</time>
      </trkpt>
      <trkpt lat="47.64059" lon="4.38506">
        <ele>281</ele>
        <time>2026-05-20T08:54:26Z</time>
      </trkpt>
      <trkpt lat="47.64058" lon="4.38503">
        <ele>281</ele>
        <time>2026-05-20T08:54:27Z</time>
      </trkpt>
      <trkpt lat="47.64056" lon="4.38501">
        <ele>281.2</ele>
        <time>2026-05-20T08:54:28Z</time>
      </trkpt>
      <trkpt lat="47.64055" lon="4.38498">
        <ele>281.2</ele>
        <time>2026-05-20T08:54:29Z</time>
      </trkpt>
      <trkpt lat="47.64053" lon="4.38496">
        <ele>281.4</ele>
        <time>2026-05-20T08:54:30Z</time>
      </trkpt>
      <trkpt lat="47.64051" lon="4.38494">
        <ele>281.4</ele>
        <time>2026-05-20T08:54:31Z</time>
      </trkpt>
      <trkpt lat="47.6405" lon="4.38491">
        <ele>281.8</ele>
        <time>2026-05-20T08:54:32Z</time>
      </trkpt>
      <trkpt lat="47.64048" lon="4.3849">
        <ele>281.8</ele>
        <time>2026-05-20T08:54:33Z</time>
      </trkpt>
      <trkpt lat="47.64046" lon="4.38487">
        <ele>281.8</ele>
        <time>2026-05-20T08:54:34Z</time>
      </trkpt>
      <trkpt lat="47.64044" lon="4.38486">
        <ele>282</ele>
        <time>2026-05-20T08:54:35Z</time>
      </trkpt>
      <trkpt lat="47.64042" lon="4.38483">
        <ele>282.2</ele>
        <time>2026-05-20T08:54:36Z</time>
      </trkpt>
      <trkpt lat="47.64039" lon="4.3848">
        <ele>282.2</ele>
        <time>2026-05-20T08:54:37Z</time>
      </trkpt>
      <trkpt lat="47.64037" lon="4.38476">
        <ele>282.2</ele>
        <time>2026-05-20T08:54:38Z</time>
      </trkpt>
      <trkpt lat="47.64036" lon="4.38472">
        <ele>282.4</ele>
        <time>2026-05-20T08:54:39Z</time>
      </trkpt>
      <trkpt lat="47.64036" lon="4.38469">
        <ele>282.4</ele>
        <time>2026-05-20T08:54:40Z</time>
      </trkpt>
      <trkpt lat="47.64035" lon="4.38467">
        <ele>282.6</ele>
        <time>2026-05-20T08:54:41Z</time>
      </trkpt>
      <trkpt lat="47.64035" lon="4.38464">
        <ele>282.6</ele>
        <time>2026-05-20T08:54:42Z</time>
      </trkpt>
      <trkpt lat="47.64035" lon="4.38461">
        <ele>282.8</ele>
        <time>2026-05-20T08:54:43Z</time>
      </trkpt>
      <trkpt lat="47.64034" lon="4.38456">
        <ele>282.8</ele>
        <time>2026-05-20T08:54:44Z</time>
      </trkpt>
      <trkpt lat="47.64035" lon="4.38454">
        <ele>283</ele>
        <time>2026-05-20T08:54:45Z</time>
      </trkpt>
      <trkpt lat="47.64035" lon="4.38452">
        <ele>283.2</ele>
        <time>2026-05-20T08:54:46Z</time>
      </trkpt>
      <trkpt lat="47.64035" lon="4.38449">
        <ele>283.2</ele>
        <time>2026-05-20T08:54:47Z</time>
      </trkpt>
      <trkpt lat="47.64036" lon="4.38446">
        <ele>283.2</ele>
        <time>2026-05-20T08:54:48Z</time>
      </trkpt>
      <trkpt lat="47.64037" lon="4.38442">
        <ele>283.2</ele>
        <time>2026-05-20T08:54:49Z</time>
      </trkpt>
      <trkpt lat="47.64038" lon="4.38438">
        <ele>283.2</ele>
        <time>2026-05-20T08:54:50Z</time>
      </trkpt>
      <trkpt lat="47.64038" lon="4.38434">
        <ele>283.2</ele>
        <time>2026-05-20T08:54:51Z</time>
      </trkpt>
      <trkpt lat="47.64038" lon="4.38429">
        <ele>283.2</ele>
        <time>2026-05-20T08:54:52Z</time>
      </trkpt>
      <trkpt lat="47.64039" lon="4.38424">
        <ele>283.2</ele>
        <time>2026-05-20T08:54:53Z</time>
      </trkpt>
      <trkpt lat="47.64039" lon="4.3842">
        <ele>283.2</ele>
        <time>2026-05-20T08:54:54Z</time>
      </trkpt>
      <trkpt lat="47.64039" lon="4.38417">
        <ele>283.2</ele>
        <time>2026-05-20T08:54:55Z</time>
      </trkpt>
      <trkpt lat="47.6404" lon="4.38412">
        <ele>283.2</ele>
        <time>2026-05-20T08:54:56Z</time>
      </trkpt>
      <trkpt lat="47.6404" lon="4.38407">
        <ele>283.2</ele>
        <time>2026-05-20T08:54:57Z</time>
      </trkpt>
      <trkpt lat="47.6404" lon="4.38403">
        <ele>283.2</ele>
        <time>2026-05-20T08:54:58Z</time>
      </trkpt>
      <trkpt lat="47.6404" lon="4.38399">
        <ele>283.2</ele>
        <time>2026-05-20T08:54:59Z</time>
      </trkpt>
      <trkpt lat="47.6404" lon="4.38396">
        <ele>283</ele>
        <time>2026-05-20T08:55:00Z</time>
      </trkpt>
      <trkpt lat="47.6404" lon="4.38393">
        <ele>283</ele>
        <time>2026-05-20T08:55:01Z</time>
      </trkpt>
      <trkpt lat="47.6404" lon="4.38389">
        <ele>282.8</ele>
        <time>2026-05-20T08:55:02Z</time>
      </trkpt>
      <trkpt lat="47.6404" lon="4.38386">
        <ele>282.8</ele>
        <time>2026-05-20T08:55:03Z</time>
      </trkpt>
      <trkpt lat="47.6404" lon="4.38382">
        <ele>282.8</ele>
        <time>2026-05-20T08:55:04Z</time>
      </trkpt>
      <trkpt lat="47.6404" lon="4.38379">
        <ele>282.8</ele>
        <time>2026-05-20T08:55:05Z</time>
      </trkpt>
      <trkpt lat="47.6404" lon="4.38376">
        <ele>282.8</ele>
        <time>2026-05-20T08:55:06Z</time>
      </trkpt>
      <trkpt lat="47.6404" lon="4.38372">
        <ele>282.8</ele>
        <time>2026-05-20T08:55:07Z</time>
      </trkpt>
      <trkpt lat="47.64041" lon="4.38367">
        <ele>282.6</ele>
        <time>2026-05-20T08:55:08Z</time>
      </trkpt>
      <trkpt lat="47.64041" lon="4.38362">
        <ele>282.6</ele>
        <time>2026-05-20T08:55:09Z</time>
      </trkpt>
      <trkpt lat="47.64041" lon="4.38359">
        <ele>282.6</ele>
        <time>2026-05-20T08:55:10Z</time>
      </trkpt>
      <trkpt lat="47.64041" lon="4.38353">
        <ele>282.4</ele>
        <time>2026-05-20T08:55:11Z</time>
      </trkpt>
      <trkpt lat="47.64041" lon="4.38346">
        <ele>282</ele>
        <time>2026-05-20T08:55:12Z</time>
      </trkpt>
      <trkpt lat="47.64042" lon="4.38341">
        <ele>281.8</ele>
        <time>2026-05-20T08:55:13Z</time>
      </trkpt>
      <trkpt lat="47.64041" lon="4.38337">
        <ele>281.2</ele>
        <time>2026-05-20T08:55:14Z</time>
      </trkpt>
      <trkpt lat="47.64041" lon="4.38331">
        <ele>281</ele>
        <time>2026-05-20T08:55:15Z</time>
      </trkpt>
      <trkpt lat="47.64042" lon="4.38325">
        <ele>280.6</ele>
        <time>2026-05-20T08:55:16Z</time>
      </trkpt>
      <trkpt lat="47.64043" lon="4.38317">
        <ele>280.4</ele>
        <time>2026-05-20T08:55:17Z</time>
      </trkpt>
      <trkpt lat="47.64044" lon="4.38309">
        <ele>280</ele>
        <time>2026-05-20T08:55:18Z</time>
      </trkpt>
      <trkpt lat="47.64044" lon="4.38305">
        <ele>279.6</ele>
        <time>2026-05-20T08:55:19Z</time>
      </trkpt>
      <trkpt lat="47.64044" lon="4.383">
        <ele>279.6</ele>
        <time>2026-05-20T08:55:20Z</time>
      </trkpt>
      <trkpt lat="47.64044" lon="4.38293">
        <ele>279.2</ele>
        <time>2026-05-20T08:55:21Z</time>
      </trkpt>
      <trkpt lat="47.64043" lon="4.38286">
        <ele>279.2</ele>
        <time>2026-05-20T08:55:22Z</time>
      </trkpt>
      <trkpt lat="47.64044" lon="4.38279">
        <ele>279</ele>
        <time>2026-05-20T08:55:23Z</time>
      </trkpt>
      <trkpt lat="47.64045" lon="4.38273">
        <ele>278.8</ele>
        <time>2026-05-20T08:55:24Z</time>
      </trkpt>
      <trkpt lat="47.64046" lon="4.38266">
        <ele>278.4</ele>
        <time>2026-05-20T08:55:25Z</time>
      </trkpt>
      <trkpt lat="47.64047" lon="4.38256">
        <ele>278</ele>
        <time>2026-05-20T08:55:26Z</time>
      </trkpt>
      <trkpt lat="47.64047" lon="4.38248">
        <ele>277.6</ele>
        <time>2026-05-20T08:55:27Z</time>
      </trkpt>
      <trkpt lat="47.64047" lon="4.38241">
        <ele>277.2</ele>
        <time>2026-05-20T08:55:28Z</time>
      </trkpt>
      <trkpt lat="47.64048" lon="4.38237">
        <ele>277.2</ele>
        <time>2026-05-20T08:55:29Z</time>
      </trkpt>
      <trkpt lat="47.64049" lon="4.38232">
        <ele>276.8</ele>
        <time>2026-05-20T08:55:30Z</time>
      </trkpt>
      <trkpt lat="47.64049" lon="4.38225">
        <ele>276.6</ele>
        <time>2026-05-20T08:55:31Z</time>
      </trkpt>
      <trkpt lat="47.64049" lon="4.38219">
        <ele>276.2</ele>
        <time>2026-05-20T08:55:32Z</time>
      </trkpt>
      <trkpt lat="47.64049" lon="4.38213">
        <ele>276</ele>
        <time>2026-05-20T08:55:33Z</time>
      </trkpt>
      <trkpt lat="47.6405" lon="4.38208">
        <ele>275.6</ele>
        <time>2026-05-20T08:55:34Z</time>
      </trkpt>
      <trkpt lat="47.64051" lon="4.38203">
        <ele>275.2</ele>
        <time>2026-05-20T08:55:35Z</time>
      </trkpt>
      <trkpt lat="47.64051" lon="4.38199">
        <ele>274.8</ele>
        <time>2026-05-20T08:55:36Z</time>
      </trkpt>
      <trkpt lat="47.64052" lon="4.38195">
        <ele>274.4</ele>
        <time>2026-05-20T08:55:37Z</time>
      </trkpt>
      <trkpt lat="47.64052" lon="4.38192">
        <ele>274.4</ele>
        <time>2026-05-20T08:55:38Z</time>
      </trkpt>
      <trkpt lat="47.64054" lon="4.38189">
        <ele>274.2</ele>
        <time>2026-05-20T08:55:39Z</time>
      </trkpt>
      <trkpt lat="47.64058" lon="4.38185">
        <ele>274</ele>
        <time>2026-05-20T08:55:40Z</time>
      </trkpt>
      <trkpt lat="47.64063" lon="4.38182">
        <ele>273.6</ele>
        <time>2026-05-20T08:55:41Z</time>
      </trkpt>
      <trkpt lat="47.64068" lon="4.38179">
        <ele>273.4</ele>
        <time>2026-05-20T08:55:42Z</time>
      </trkpt>
      <trkpt lat="47.64071" lon="4.38178">
        <ele>273</ele>
        <time>2026-05-20T08:55:43Z</time>
      </trkpt>
      <trkpt lat="47.64075" lon="4.38177">
        <ele>272.8</ele>
        <time>2026-05-20T08:55:44Z</time>
      </trkpt>
      <trkpt lat="47.6408" lon="4.38175">
        <ele>272.4</ele>
        <time>2026-05-20T08:55:45Z</time>
      </trkpt>
      <trkpt lat="47.64086" lon="4.38173">
        <ele>272.2</ele>
        <time>2026-05-20T08:55:46Z</time>
      </trkpt>
      <trkpt lat="47.64091" lon="4.38171">
        <ele>271.6</ele>
        <time>2026-05-20T08:55:47Z</time>
      </trkpt>
      <trkpt lat="47.64094" lon="4.38171">
        <ele>271</ele>
        <time>2026-05-20T08:55:48Z</time>
      </trkpt>
      <trkpt lat="47.64098" lon="4.38171">
        <ele>270.8</ele>
        <time>2026-05-20T08:55:49Z</time>
      </trkpt>
      <trkpt lat="47.64101" lon="4.38173">
        <ele>270</ele>
        <time>2026-05-20T08:55:50Z</time>
      </trkpt>
      <trkpt lat="47.64107" lon="4.38175">
        <ele>269.8</ele>
        <time>2026-05-20T08:55:51Z</time>
      </trkpt>
      <trkpt lat="47.64111" lon="4.38174">
        <ele>269.6</ele>
        <time>2026-05-20T08:55:52Z</time>
      </trkpt>
      <trkpt lat="47.64115" lon="4.38175">
        <ele>269.4</ele>
        <time>2026-05-20T08:55:53Z</time>
      </trkpt>
      <trkpt lat="47.64118" lon="4.38175">
        <ele>269.2</ele>
        <time>2026-05-20T08:55:54Z</time>
      </trkpt>
      <trkpt lat="47.64121" lon="4.38177">
        <ele>268.4</ele>
        <time>2026-05-20T08:55:55Z</time>
      </trkpt>
      <trkpt lat="47.64124" lon="4.38178">
        <ele>268</ele>
        <time>2026-05-20T08:55:56Z</time>
      </trkpt>
      <trkpt lat="47.64128" lon="4.38179">
        <ele>267.8</ele>
        <time>2026-05-20T08:55:57Z</time>
      </trkpt>
      <trkpt lat="47.64132" lon="4.3818">
        <ele>267.6</ele>
        <time>2026-05-20T08:55:58Z</time>
      </trkpt>
      <trkpt lat="47.64135" lon="4.38181">
        <ele>267.2</ele>
        <time>2026-05-20T08:55:59Z</time>
      </trkpt>
      <trkpt lat="47.6414" lon="4.38181">
        <ele>267.2</ele>
        <time>2026-05-20T08:56:00Z</time>
      </trkpt>
      <trkpt lat="47.64143" lon="4.3818">
        <ele>266.8</ele>
        <time>2026-05-20T08:56:01Z</time>
      </trkpt>
      <trkpt lat="47.64145" lon="4.3818">
        <ele>266.4</ele>
        <time>2026-05-20T08:56:02Z</time>
      </trkpt>
      <trkpt lat="47.64146" lon="4.3818">
        <ele>265.8</ele>
        <time>2026-05-20T08:56:03Z</time>
      </trkpt>
      <trkpt lat="47.64148" lon="4.38183">
        <ele>264.6</ele>
        <time>2026-05-20T08:56:04Z</time>
      </trkpt>
      <trkpt lat="47.64149" lon="4.38186">
        <ele>264.2</ele>
        <time>2026-05-20T08:56:05Z</time>
      </trkpt>
      <trkpt lat="47.64148" lon="4.3819">
        <ele>263.8</ele>
        <time>2026-05-20T08:56:06Z</time>
      </trkpt>
      <trkpt lat="47.64148" lon="4.38194">
        <ele>263.6</ele>
        <time>2026-05-20T08:56:07Z</time>
      </trkpt>
      <trkpt lat="47.64148" lon="4.38196">
        <ele>263.6</ele>
        <time>2026-05-20T08:56:08Z</time>
      </trkpt>
      <trkpt lat="47.64148" lon="4.38199">
        <ele>263.6</ele>
        <time>2026-05-20T08:56:09Z</time>
      </trkpt>
      <trkpt lat="47.64147" lon="4.38201">
        <ele>263.4</ele>
        <time>2026-05-20T08:56:10Z</time>
      </trkpt>
      <trkpt lat="47.64148" lon="4.38205">
        <ele>263.4</ele>
        <time>2026-05-20T08:56:11Z</time>
      </trkpt>
      <trkpt lat="47.64149" lon="4.38209">
        <ele>263.6</ele>
        <time>2026-05-20T08:56:12Z</time>
      </trkpt>
      <trkpt lat="47.64151" lon="4.38213">
        <ele>263.6</ele>
        <time>2026-05-20T08:56:13Z</time>
      </trkpt>
      <trkpt lat="47.64153" lon="4.38217">
        <ele>263.6</ele>
        <time>2026-05-20T08:56:14Z</time>
      </trkpt>
      <trkpt lat="47.64154" lon="4.38221">
        <ele>263.6</ele>
        <time>2026-05-20T08:56:15Z</time>
      </trkpt>
      <trkpt lat="47.64154" lon="4.38224">
        <ele>263.8</ele>
        <time>2026-05-20T08:56:16Z</time>
      </trkpt>
      <trkpt lat="47.64154" lon="4.38228">
        <ele>263.8</ele>
        <time>2026-05-20T08:56:17Z</time>
      </trkpt>
      <trkpt lat="47.64154" lon="4.38231">
        <ele>264</ele>
        <time>2026-05-20T08:56:18Z</time>
      </trkpt>
      <trkpt lat="47.64153" lon="4.38233">
        <ele>264.2</ele>
        <time>2026-05-20T08:56:19Z</time>
      </trkpt>
      <trkpt lat="47.64153" lon="4.38237">
        <ele>264.2</ele>
        <time>2026-05-20T08:56:20Z</time>
      </trkpt>
      <trkpt lat="47.64153" lon="4.38241">
        <ele>264.4</ele>
        <time>2026-05-20T08:56:21Z</time>
      </trkpt>
      <trkpt lat="47.64153" lon="4.38244">
        <ele>264.6</ele>
        <time>2026-05-20T08:56:22Z</time>
      </trkpt>
      <trkpt lat="47.64152" lon="4.38248">
        <ele>264.8</ele>
        <time>2026-05-20T08:56:23Z</time>
      </trkpt>
      <trkpt lat="47.64152" lon="4.38252">
        <ele>264.8</ele>
        <time>2026-05-20T08:56:24Z</time>
      </trkpt>
      <trkpt lat="47.64154" lon="4.38257">
        <ele>265</ele>
        <time>2026-05-20T08:56:25Z</time>
      </trkpt>
      <trkpt lat="47.64156" lon="4.3826">
        <ele>265.2</ele>
        <time>2026-05-20T08:56:26Z</time>
      </trkpt>
      <trkpt lat="47.64158" lon="4.38264">
        <ele>265.2</ele>
        <time>2026-05-20T08:56:27Z</time>
      </trkpt>
      <trkpt lat="47.64159" lon="4.38268">
        <ele>265.4</ele>
        <time>2026-05-20T08:56:28Z</time>
      </trkpt>
      <trkpt lat="47.6416" lon="4.38272">
        <ele>265.6</ele>
        <time>2026-05-20T08:56:29Z</time>
      </trkpt>
      <trkpt lat="47.64161" lon="4.38276">
        <ele>266</ele>
        <time>2026-05-20T08:56:30Z</time>
      </trkpt>
      <trkpt lat="47.6416" lon="4.38281">
        <ele>266</ele>
        <time>2026-05-20T08:56:31Z</time>
      </trkpt>
      <trkpt lat="47.6416" lon="4.38283">
        <ele>266.2</ele>
        <time>2026-05-20T08:56:32Z</time>
      </trkpt>
      <trkpt lat="47.64162" lon="4.38285">
        <ele>266.4</ele>
        <time>2026-05-20T08:56:33Z</time>
      </trkpt>
      <trkpt lat="47.64162" lon="4.38287">
        <ele>266.4</ele>
        <time>2026-05-20T08:56:34Z</time>
      </trkpt>
      <trkpt lat="47.64163" lon="4.38291">
        <ele>266.6</ele>
        <time>2026-05-20T08:56:35Z</time>
      </trkpt>
      <trkpt lat="47.64164" lon="4.38295">
        <ele>266.6</ele>
        <time>2026-05-20T08:56:36Z</time>
      </trkpt>
      <trkpt lat="47.64165" lon="4.38297">
        <ele>267</ele>
        <time>2026-05-20T08:56:37Z</time>
      </trkpt>
      <trkpt lat="47.64166" lon="4.383">
        <ele>267.2</ele>
        <time>2026-05-20T08:56:38Z</time>
      </trkpt>
      <trkpt lat="47.64168" lon="4.38304">
        <ele>267.6</ele>
        <time>2026-05-20T08:56:39Z</time>
      </trkpt>
      <trkpt lat="47.6417" lon="4.38307">
        <ele>267.6</ele>
        <time>2026-05-20T08:56:40Z</time>
      </trkpt>
      <trkpt lat="47.6417" lon="4.38309">
        <ele>267.8</ele>
        <time>2026-05-20T08:56:41Z</time>
      </trkpt>
      <trkpt lat="47.6417" lon="4.38312">
        <ele>268.2</ele>
        <time>2026-05-20T08:56:42Z</time>
      </trkpt>
      <trkpt lat="47.64169" lon="4.38316">
        <ele>268.2</ele>
        <time>2026-05-20T08:56:43Z</time>
      </trkpt>
      <trkpt lat="47.64169" lon="4.3832">
        <ele>268.4</ele>
        <time>2026-05-20T08:56:44Z</time>
      </trkpt>
      <trkpt lat="47.64169" lon="4.38323">
        <ele>268.6</ele>
        <time>2026-05-20T08:56:45Z</time>
      </trkpt>
      <trkpt lat="47.6417" lon="4.38326">
        <ele>268.8</ele>
        <time>2026-05-20T08:56:46Z</time>
      </trkpt>
      <trkpt lat="47.64171" lon="4.38328">
        <ele>268.8</ele>
        <time>2026-05-20T08:56:47Z</time>
      </trkpt>
      <trkpt lat="47.64172" lon="4.3833">
        <ele>269</ele>
        <time>2026-05-20T08:56:48Z</time>
      </trkpt>
      <trkpt lat="47.64174" lon="4.38335">
        <ele>269</ele>
        <time>2026-05-20T08:56:49Z</time>
      </trkpt>
      <trkpt lat="47.64176" lon="4.3834">
        <ele>269.2</ele>
        <time>2026-05-20T08:56:50Z</time>
      </trkpt>
      <trkpt lat="47.64178" lon="4.38346">
        <ele>269.6</ele>
        <time>2026-05-20T08:56:51Z</time>
      </trkpt>
      <trkpt lat="47.64178" lon="4.3835">
        <ele>269.8</ele>
        <time>2026-05-20T08:56:52Z</time>
      </trkpt>
      <trkpt lat="47.64178" lon="4.38354">
        <ele>270.2</ele>
        <time>2026-05-20T08:56:53Z</time>
      </trkpt>
      <trkpt lat="47.64179" lon="4.38359">
        <ele>270.4</ele>
        <time>2026-05-20T08:56:54Z</time>
      </trkpt>
      <trkpt lat="47.6418" lon="4.38364">
        <ele>270.8</ele>
        <time>2026-05-20T08:56:55Z</time>
      </trkpt>
      <trkpt lat="47.64182" lon="4.38368">
        <ele>270.8</ele>
        <time>2026-05-20T08:56:56Z</time>
      </trkpt>
      <trkpt lat="47.64183" lon="4.38371">
        <ele>271.2</ele>
        <time>2026-05-20T08:56:57Z</time>
      </trkpt>
      <trkpt lat="47.64184" lon="4.38373">
        <ele>271.4</ele>
        <time>2026-05-20T08:56:58Z</time>
      </trkpt>
      <trkpt lat="47.64188" lon="4.38373">
        <ele>271.8</ele>
        <time>2026-05-20T08:56:59Z</time>
      </trkpt>
      <trkpt lat="47.64192" lon="4.38371">
        <ele>272</ele>
        <time>2026-05-20T08:57:00Z</time>
      </trkpt>
      <trkpt lat="47.64195" lon="4.38371">
        <ele>272</ele>
        <time>2026-05-20T08:57:01Z</time>
      </trkpt>
      <trkpt lat="47.64198" lon="4.38371">
        <ele>272.6</ele>
        <time>2026-05-20T08:57:02Z</time>
      </trkpt>
      <trkpt lat="47.642" lon="4.3837">
        <ele>272.8</ele>
        <time>2026-05-20T08:57:03Z</time>
      </trkpt>
      <trkpt lat="47.64203" lon="4.38368">
        <ele>273</ele>
        <time>2026-05-20T08:57:04Z</time>
      </trkpt>
      <trkpt lat="47.64206" lon="4.38368">
        <ele>273.2</ele>
        <time>2026-05-20T08:57:05Z</time>
      </trkpt>
      <trkpt lat="47.64209" lon="4.38366">
        <ele>273.4</ele>
        <time>2026-05-20T08:57:06Z</time>
      </trkpt>
      <trkpt lat="47.6421" lon="4.38365">
        <ele>273.6</ele>
        <time>2026-05-20T08:57:07Z</time>
      </trkpt>
      <trkpt lat="47.64212" lon="4.38364">
        <ele>273.8</ele>
        <time>2026-05-20T08:57:08Z</time>
      </trkpt>
      <trkpt lat="47.64214" lon="4.38362">
        <ele>274</ele>
        <time>2026-05-20T08:57:09Z</time>
      </trkpt>
      <trkpt lat="47.64216" lon="4.38359">
        <ele>274</ele>
        <time>2026-05-20T08:57:10Z</time>
      </trkpt>
      <trkpt lat="47.64218" lon="4.38355">
        <ele>274.2</ele>
        <time>2026-05-20T08:57:11Z</time>
      </trkpt>
      <trkpt lat="47.64219" lon="4.38352">
        <ele>274.4</ele>
        <time>2026-05-20T08:57:12Z</time>
      </trkpt>
      <trkpt lat="47.64221" lon="4.38349">
        <ele>274.6</ele>
        <time>2026-05-20T08:57:13Z</time>
      </trkpt>
      <trkpt lat="47.64223" lon="4.38345">
        <ele>274.6</ele>
        <time>2026-05-20T08:57:14Z</time>
      </trkpt>
      <trkpt lat="47.64225" lon="4.38342">
        <ele>274.6</ele>
        <time>2026-05-20T08:57:15Z</time>
      </trkpt>
      <trkpt lat="47.64226" lon="4.38338">
        <ele>274.8</ele>
        <time>2026-05-20T08:57:16Z</time>
      </trkpt>
      <trkpt lat="47.64228" lon="4.38336">
        <ele>274.8</ele>
        <time>2026-05-20T08:57:17Z</time>
      </trkpt>
      <trkpt lat="47.6423" lon="4.38332">
        <ele>275</ele>
        <time>2026-05-20T08:57:18Z</time>
      </trkpt>
      <trkpt lat="47.64232" lon="4.38328">
        <ele>275</ele>
        <time>2026-05-20T08:57:19Z</time>
      </trkpt>
      <trkpt lat="47.64234" lon="4.38325">
        <ele>275</ele>
        <time>2026-05-20T08:57:20Z</time>
      </trkpt>
      <trkpt lat="47.64235" lon="4.38321">
        <ele>275.2</ele>
        <time>2026-05-20T08:57:21Z</time>
      </trkpt>
      <trkpt lat="47.64237" lon="4.38318">
        <ele>275.2</ele>
        <time>2026-05-20T08:57:22Z</time>
      </trkpt>
      <trkpt lat="47.64238" lon="4.38315">
        <ele>275.2</ele>
        <time>2026-05-20T08:57:23Z</time>
      </trkpt>
      <trkpt lat="47.64241" lon="4.38312">
        <ele>275.4</ele>
        <time>2026-05-20T08:57:24Z</time>
      </trkpt>
      <trkpt lat="47.64242" lon="4.38308">
        <ele>275.6</ele>
        <time>2026-05-20T08:57:25Z</time>
      </trkpt>
      <trkpt lat="47.64244" lon="4.38306">
        <ele>275.8</ele>
        <time>2026-05-20T08:57:26Z</time>
      </trkpt>
      <trkpt lat="47.64245" lon="4.38303">
        <ele>276</ele>
        <time>2026-05-20T08:57:27Z</time>
      </trkpt>
      <trkpt lat="47.64247" lon="4.38299">
        <ele>276</ele>
        <time>2026-05-20T08:57:28Z</time>
      </trkpt>
      <trkpt lat="47.64249" lon="4.38296">
        <ele>276.2</ele>
        <time>2026-05-20T08:57:29Z</time>
      </trkpt>
      <trkpt lat="47.64251" lon="4.38292">
        <ele>276.2</ele>
        <time>2026-05-20T08:57:30Z</time>
      </trkpt>
      <trkpt lat="47.64252" lon="4.3829">
        <ele>276.4</ele>
        <time>2026-05-20T08:57:31Z</time>
      </trkpt>
      <trkpt lat="47.64254" lon="4.38287">
        <ele>276.6</ele>
        <time>2026-05-20T08:57:32Z</time>
      </trkpt>
      <trkpt lat="47.64256" lon="4.38284">
        <ele>276.8</ele>
        <time>2026-05-20T08:57:33Z</time>
      </trkpt>
      <trkpt lat="47.64257" lon="4.38279">
        <ele>277</ele>
        <time>2026-05-20T08:57:34Z</time>
      </trkpt>
      <trkpt lat="47.64259" lon="4.38276">
        <ele>277.2</ele>
        <time>2026-05-20T08:57:35Z</time>
      </trkpt>
      <trkpt lat="47.6426" lon="4.38273">
        <ele>277.4</ele>
        <time>2026-05-20T08:57:36Z</time>
      </trkpt>
      <trkpt lat="47.64262" lon="4.3827">
        <ele>277.6</ele>
        <time>2026-05-20T08:57:37Z</time>
      </trkpt>
      <trkpt lat="47.64263" lon="4.38266">
        <ele>277.8</ele>
        <time>2026-05-20T08:57:38Z</time>
      </trkpt>
      <trkpt lat="47.64264" lon="4.38263">
        <ele>277.8</ele>
        <time>2026-05-20T08:57:39Z</time>
      </trkpt>
      <trkpt lat="47.64265" lon="4.3826">
        <ele>278.2</ele>
        <time>2026-05-20T08:57:40Z</time>
      </trkpt>
      <trkpt lat="47.64266" lon="4.38257">
        <ele>278.4</ele>
        <time>2026-05-20T08:57:41Z</time>
      </trkpt>
      <trkpt lat="47.64267" lon="4.38255">
        <ele>278.6</ele>
        <time>2026-05-20T08:57:42Z</time>
      </trkpt>
      <trkpt lat="47.64269" lon="4.38252">
        <ele>278.8</ele>
        <time>2026-05-20T08:57:43Z</time>
      </trkpt>
      <trkpt lat="47.6427" lon="4.38249">
        <ele>279</ele>
        <time>2026-05-20T08:57:44Z</time>
      </trkpt>
      <trkpt lat="47.64271" lon="4.38247">
        <ele>279.8</ele>
        <time>2026-05-20T08:57:45Z</time>
      </trkpt>
      <trkpt lat="47.64272" lon="4.38244">
        <ele>279.8</ele>
        <time>2026-05-20T08:57:46Z</time>
      </trkpt>
      <trkpt lat="47.64274" lon="4.38242">
        <ele>280.2</ele>
        <time>2026-05-20T08:57:47Z</time>
      </trkpt>
      <trkpt lat="47.64275" lon="4.38239">
        <ele>280.2</ele>
        <time>2026-05-20T08:57:48Z</time>
      </trkpt>
      <trkpt lat="47.64277" lon="4.38236">
        <ele>280.2</ele>
        <time>2026-05-20T08:57:49Z</time>
      </trkpt>
      <trkpt lat="47.64278" lon="4.38233">
        <ele>280.4</ele>
        <time>2026-05-20T08:57:50Z</time>
      </trkpt>
      <trkpt lat="47.6428" lon="4.38231">
        <ele>280.4</ele>
        <time>2026-05-20T08:57:51Z</time>
      </trkpt>
      <trkpt lat="47.64281" lon="4.38229">
        <ele>280.4</ele>
        <time>2026-05-20T08:57:52Z</time>
      </trkpt>
      <trkpt lat="47.64282" lon="4.38227">
        <ele>280.6</ele>
        <time>2026-05-20T08:57:53Z</time>
      </trkpt>
      <trkpt lat="47.64284" lon="4.38223">
        <ele>280.6</ele>
        <time>2026-05-20T08:57:54Z</time>
      </trkpt>
      <trkpt lat="47.64285" lon="4.3822">
        <ele>280.6</ele>
        <time>2026-05-20T08:57:55Z</time>
      </trkpt>
      <trkpt lat="47.64286" lon="4.38218">
        <ele>280.6</ele>
        <time>2026-05-20T08:57:56Z</time>
      </trkpt>
      <trkpt lat="47.64287" lon="4.38215">
        <ele>280.6</ele>
        <time>2026-05-20T08:57:57Z</time>
      </trkpt>
      <trkpt lat="47.64288" lon="4.38212">
        <ele>280.8</ele>
        <time>2026-05-20T08:57:58Z</time>
      </trkpt>
      <trkpt lat="47.64289" lon="4.38209">
        <ele>280.8</ele>
        <time>2026-05-20T08:57:59Z</time>
      </trkpt>
      <trkpt lat="47.6429" lon="4.38207">
        <ele>281</ele>
        <time>2026-05-20T08:58:00Z</time>
      </trkpt>
      <trkpt lat="47.64291" lon="4.38203">
        <ele>281.2</ele>
        <time>2026-05-20T08:58:01Z</time>
      </trkpt>
      <trkpt lat="47.64292" lon="4.382">
        <ele>281.4</ele>
        <time>2026-05-20T08:58:02Z</time>
      </trkpt>
      <trkpt lat="47.64294" lon="4.38197">
        <ele>281.6</ele>
        <time>2026-05-20T08:58:03Z</time>
      </trkpt>
      <trkpt lat="47.64295" lon="4.38194">
        <ele>281.6</ele>
        <time>2026-05-20T08:58:04Z</time>
      </trkpt>
      <trkpt lat="47.64296" lon="4.38191">
        <ele>281.8</ele>
        <time>2026-05-20T08:58:05Z</time>
      </trkpt>
      <trkpt lat="47.64297" lon="4.38187">
        <ele>281.8</ele>
        <time>2026-05-20T08:58:06Z</time>
      </trkpt>
      <trkpt lat="47.64297" lon="4.38184">
        <ele>282</ele>
        <time>2026-05-20T08:58:07Z</time>
      </trkpt>
      <trkpt lat="47.64299" lon="4.3818">
        <ele>282</ele>
        <time>2026-05-20T08:58:08Z</time>
      </trkpt>
      <trkpt lat="47.643" lon="4.38177">
        <ele>282.2</ele>
        <time>2026-05-20T08:58:09Z</time>
      </trkpt>
      <trkpt lat="47.64301" lon="4.38174">
        <ele>282.2</ele>
        <time>2026-05-20T08:58:10Z</time>
      </trkpt>
      <trkpt lat="47.64302" lon="4.3817">
        <ele>282.4</ele>
        <time>2026-05-20T08:58:11Z</time>
      </trkpt>
      <trkpt lat="47.64302" lon="4.38166">
        <ele>282.4</ele>
        <time>2026-05-20T08:58:12Z</time>
      </trkpt>
      <trkpt lat="47.64303" lon="4.38163">
        <ele>282.6</ele>
        <time>2026-05-20T08:58:13Z</time>
      </trkpt>
      <trkpt lat="47.64303" lon="4.38159">
        <ele>282.8</ele>
        <time>2026-05-20T08:58:14Z</time>
      </trkpt>
      <trkpt lat="47.64303" lon="4.38155">
        <ele>282.8</ele>
        <time>2026-05-20T08:58:15Z</time>
      </trkpt>
      <trkpt lat="47.64304" lon="4.38152">
        <ele>283</ele>
        <time>2026-05-20T08:58:16Z</time>
      </trkpt>
      <trkpt lat="47.64304" lon="4.38148">
        <ele>283</ele>
        <time>2026-05-20T08:58:17Z</time>
      </trkpt>
      <trkpt lat="47.64304" lon="4.38144">
        <ele>283.2</ele>
        <time>2026-05-20T08:58:18Z</time>
      </trkpt>
      <trkpt lat="47.64304" lon="4.38141">
        <ele>283.2</ele>
        <time>2026-05-20T08:58:19Z</time>
      </trkpt>
      <trkpt lat="47.64305" lon="4.38138">
        <ele>283.4</ele>
        <time>2026-05-20T08:58:20Z</time>
      </trkpt>
      <trkpt lat="47.64305" lon="4.38134">
        <ele>283.4</ele>
        <time>2026-05-20T08:58:21Z</time>
      </trkpt>
      <trkpt lat="47.64306" lon="4.3813">
        <ele>283.6</ele>
        <time>2026-05-20T08:58:22Z</time>
      </trkpt>
      <trkpt lat="47.64306" lon="4.38126">
        <ele>283.8</ele>
        <time>2026-05-20T08:58:23Z</time>
      </trkpt>
      <trkpt lat="47.64307" lon="4.38122">
        <ele>284</ele>
        <time>2026-05-20T08:58:24Z</time>
      </trkpt>
      <trkpt lat="47.64307" lon="4.38119">
        <ele>284</ele>
        <time>2026-05-20T08:58:25Z</time>
      </trkpt>
      <trkpt lat="47.64308" lon="4.38115">
        <ele>284</ele>
        <time>2026-05-20T08:58:26Z</time>
      </trkpt>
      <trkpt lat="47.64309" lon="4.38111">
        <ele>284.2</ele>
        <time>2026-05-20T08:58:27Z</time>
      </trkpt>
      <trkpt lat="47.6431" lon="4.38108">
        <ele>284.2</ele>
        <time>2026-05-20T08:58:28Z</time>
      </trkpt>
      <trkpt lat="47.64311" lon="4.38105">
        <ele>284.2</ele>
        <time>2026-05-20T08:58:29Z</time>
      </trkpt>
      <trkpt lat="47.64312" lon="4.38102">
        <ele>284.2</ele>
        <time>2026-05-20T08:58:30Z</time>
      </trkpt>
      <trkpt lat="47.64313" lon="4.38099">
        <ele>284.4</ele>
        <time>2026-05-20T08:58:31Z</time>
      </trkpt>
      <trkpt lat="47.64315" lon="4.38096">
        <ele>284.4</ele>
        <time>2026-05-20T08:58:32Z</time>
      </trkpt>
      <trkpt lat="47.64316" lon="4.38093">
        <ele>284.4</ele>
        <time>2026-05-20T08:58:33Z</time>
      </trkpt>
      <trkpt lat="47.64317" lon="4.38091">
        <ele>284.4</ele>
        <time>2026-05-20T08:58:34Z</time>
      </trkpt>
      <trkpt lat="47.64319" lon="4.38088">
        <ele>284.8</ele>
        <time>2026-05-20T08:58:35Z</time>
      </trkpt>
      <trkpt lat="47.6432" lon="4.38085">
        <ele>285</ele>
        <time>2026-05-20T08:58:36Z</time>
      </trkpt>
      <trkpt lat="47.64321" lon="4.38082">
        <ele>285</ele>
        <time>2026-05-20T08:58:37Z</time>
      </trkpt>
      <trkpt lat="47.64322" lon="4.38079">
        <ele>285.2</ele>
        <time>2026-05-20T08:58:38Z</time>
      </trkpt>
      <trkpt lat="47.64323" lon="4.38076">
        <ele>285.6</ele>
        <time>2026-05-20T08:58:39Z</time>
      </trkpt>
      <trkpt lat="47.64324" lon="4.38074">
        <ele>286</ele>
        <time>2026-05-20T08:58:40Z</time>
      </trkpt>
      <trkpt lat="47.64325" lon="4.38071">
        <ele>286.2</ele>
        <time>2026-05-20T08:58:41Z</time>
      </trkpt>
      <trkpt lat="47.64326" lon="4.38067">
        <ele>286.2</ele>
        <time>2026-05-20T08:58:42Z</time>
      </trkpt>
      <trkpt lat="47.64328" lon="4.38063">
        <ele>286.6</ele>
        <time>2026-05-20T08:58:43Z</time>
      </trkpt>
      <trkpt lat="47.64329" lon="4.3806">
        <ele>287</ele>
        <time>2026-05-20T08:58:44Z</time>
      </trkpt>
      <trkpt lat="47.6433" lon="4.38057">
        <ele>287.2</ele>
        <time>2026-05-20T08:58:45Z</time>
      </trkpt>
      <trkpt lat="47.64331" lon="4.38053">
        <ele>287.4</ele>
        <time>2026-05-20T08:58:46Z</time>
      </trkpt>
      <trkpt lat="47.64332" lon="4.38049">
        <ele>287.6</ele>
        <time>2026-05-20T08:58:47Z</time>
      </trkpt>
      <trkpt lat="47.64333" lon="4.38047">
        <ele>287.8</ele>
        <time>2026-05-20T08:58:48Z</time>
      </trkpt>
      <trkpt lat="47.64334" lon="4.38045">
        <ele>288.2</ele>
        <time>2026-05-20T08:58:49Z</time>
      </trkpt>
      <trkpt lat="47.64335" lon="4.38042">
        <ele>288.4</ele>
        <time>2026-05-20T08:58:50Z</time>
      </trkpt>
      <trkpt lat="47.64336" lon="4.38039">
        <ele>288.6</ele>
        <time>2026-05-20T08:58:51Z</time>
      </trkpt>
      <trkpt lat="47.64337" lon="4.38036">
        <ele>288.8</ele>
        <time>2026-05-20T08:58:52Z</time>
      </trkpt>
      <trkpt lat="47.64337" lon="4.38033">
        <ele>289</ele>
        <time>2026-05-20T08:58:53Z</time>
      </trkpt>
      <trkpt lat="47.64338" lon="4.38031">
        <ele>289.2</ele>
        <time>2026-05-20T08:58:54Z</time>
      </trkpt>
      <trkpt lat="47.64339" lon="4.38029">
        <ele>289.4</ele>
        <time>2026-05-20T08:58:55Z</time>
      </trkpt>
      <trkpt lat="47.6434" lon="4.38026">
        <ele>289.6</ele>
        <time>2026-05-20T08:58:56Z</time>
      </trkpt>
      <trkpt lat="47.64342" lon="4.38025">
        <ele>289.8</ele>
        <time>2026-05-20T08:58:57Z</time>
      </trkpt>
      <trkpt lat="47.64344" lon="4.38023">
        <ele>290.2</ele>
        <time>2026-05-20T08:58:58Z</time>
      </trkpt>
      <trkpt lat="47.64345" lon="4.38023">
        <ele>290.4</ele>
        <time>2026-05-20T08:58:59Z</time>
      </trkpt>
      <trkpt lat="47.64347" lon="4.38023">
        <ele>290.6</ele>
        <time>2026-05-20T08:59:00Z</time>
      </trkpt>
      <trkpt lat="47.64349" lon="4.38022">
        <ele>291</ele>
        <time>2026-05-20T08:59:01Z</time>
      </trkpt>
      <trkpt lat="47.64351" lon="4.38023">
        <ele>291</ele>
        <time>2026-05-20T08:59:02Z</time>
      </trkpt>
      <trkpt lat="47.64352" lon="4.38023">
        <ele>291.4</ele>
        <time>2026-05-20T08:59:03Z</time>
      </trkpt>
      <trkpt lat="47.64354" lon="4.38023">
        <ele>291.6</ele>
        <time>2026-05-20T08:59:04Z</time>
      </trkpt>
      <trkpt lat="47.64355" lon="4.38023">
        <ele>292</ele>
        <time>2026-05-20T08:59:05Z</time>
      </trkpt>
      <trkpt lat="47.64357" lon="4.38024">
        <ele>292.4</ele>
        <time>2026-05-20T08:59:06Z</time>
      </trkpt>
      <trkpt lat="47.64358" lon="4.38025">
        <ele>292.8</ele>
        <time>2026-05-20T08:59:07Z</time>
      </trkpt>
      <trkpt lat="47.64361" lon="4.38027">
        <ele>293</ele>
        <time>2026-05-20T08:59:08Z</time>
      </trkpt>
      <trkpt lat="47.64362" lon="4.38027">
        <ele>293.4</ele>
        <time>2026-05-20T08:59:09Z</time>
      </trkpt>
      <trkpt lat="47.64363" lon="4.38028">
        <ele>293.8</ele>
        <time>2026-05-20T08:59:10Z</time>
      </trkpt>
      <trkpt lat="47.64365" lon="4.3803">
        <ele>294</ele>
        <time>2026-05-20T08:59:11Z</time>
      </trkpt>
      <trkpt lat="47.64366" lon="4.38031">
        <ele>294.4</ele>
        <time>2026-05-20T08:59:12Z</time>
      </trkpt>
      <trkpt lat="47.64368" lon="4.38033">
        <ele>294.4</ele>
        <time>2026-05-20T08:59:13Z</time>
      </trkpt>
      <trkpt lat="47.64369" lon="4.38034">
        <ele>295</ele>
        <time>2026-05-20T08:59:14Z</time>
      </trkpt>
      <trkpt lat="47.64371" lon="4.38035">
        <ele>295</ele>
        <time>2026-05-20T08:59:15Z</time>
      </trkpt>
      <trkpt lat="47.64372" lon="4.38037">
        <ele>295.4</ele>
        <time>2026-05-20T08:59:16Z</time>
      </trkpt>
      <trkpt lat="47.64374" lon="4.38038">
        <ele>295.4</ele>
        <time>2026-05-20T08:59:17Z</time>
      </trkpt>
      <trkpt lat="47.64375" lon="4.3804">
        <ele>296</ele>
        <time>2026-05-20T08:59:18Z</time>
      </trkpt>
      <trkpt lat="47.64376" lon="4.38041">
        <ele>296.2</ele>
        <time>2026-05-20T08:59:19Z</time>
      </trkpt>
      <trkpt lat="47.64378" lon="4.38043">
        <ele>296.4</ele>
        <time>2026-05-20T08:59:20Z</time>
      </trkpt>
      <trkpt lat="47.6438" lon="4.38045">
        <ele>296.6</ele>
        <time>2026-05-20T08:59:21Z</time>
      </trkpt>
      <trkpt lat="47.64381" lon="4.38046">
        <ele>296.8</ele>
        <time>2026-05-20T08:59:22Z</time>
      </trkpt>
      <trkpt lat="47.64382" lon="4.38047">
        <ele>297</ele>
        <time>2026-05-20T08:59:23Z</time>
      </trkpt>
      <trkpt lat="47.64383" lon="4.38048">
        <ele>297.2</ele>
        <time>2026-05-20T08:59:24Z</time>
      </trkpt>
      <trkpt lat="47.64385" lon="4.3805">
        <ele>297.6</ele>
        <time>2026-05-20T08:59:25Z</time>
      </trkpt>
      <trkpt lat="47.64387" lon="4.38052">
        <ele>297.8</ele>
        <time>2026-05-20T08:59:26Z</time>
      </trkpt>
      <trkpt lat="47.64388" lon="4.38053">
        <ele>298</ele>
        <time>2026-05-20T08:59:27Z</time>
      </trkpt>
      <trkpt lat="47.64389" lon="4.38055">
        <ele>298.6</ele>
        <time>2026-05-20T08:59:28Z</time>
      </trkpt>
      <trkpt lat="47.6439" lon="4.38057">
        <ele>298.8</ele>
        <time>2026-05-20T08:59:29Z</time>
      </trkpt>
      <trkpt lat="47.64392" lon="4.38059">
        <ele>299.2</ele>
        <time>2026-05-20T08:59:30Z</time>
      </trkpt>
      <trkpt lat="47.64394" lon="4.3806">
        <ele>299.4</ele>
        <time>2026-05-20T08:59:31Z</time>
      </trkpt>
      <trkpt lat="47.64396" lon="4.38062">
        <ele>299.8</ele>
        <time>2026-05-20T08:59:32Z</time>
      </trkpt>
      <trkpt lat="47.64398" lon="4.38064">
        <ele>300</ele>
        <time>2026-05-20T08:59:33Z</time>
      </trkpt>
      <trkpt lat="47.64399" lon="4.38065">
        <ele>300.2</ele>
        <time>2026-05-20T08:59:34Z</time>
      </trkpt>
      <trkpt lat="47.64402" lon="4.38067">
        <ele>300.4</ele>
        <time>2026-05-20T08:59:35Z</time>
      </trkpt>
      <trkpt lat="47.64404" lon="4.3807">
        <ele>300.8</ele>
        <time>2026-05-20T08:59:36Z</time>
      </trkpt>
      <trkpt lat="47.64405" lon="4.38072">
        <ele>301</ele>
        <time>2026-05-20T08:59:37Z</time>
      </trkpt>
      <trkpt lat="47.64407" lon="4.38074">
        <ele>301.4</ele>
        <time>2026-05-20T08:59:38Z</time>
      </trkpt>
      <trkpt lat="47.64408" lon="4.38076">
        <ele>301.8</ele>
        <time>2026-05-20T08:59:39Z</time>
      </trkpt>
      <trkpt lat="47.64409" lon="4.38078">
        <ele>301.8</ele>
        <time>2026-05-20T08:59:40Z</time>
      </trkpt>
      <trkpt lat="47.64412" lon="4.38081">
        <ele>302</ele>
        <time>2026-05-20T08:59:41Z</time>
      </trkpt>
      <trkpt lat="47.64413" lon="4.38083">
        <ele>302.2</ele>
        <time>2026-05-20T08:59:42Z</time>
      </trkpt>
      <trkpt lat="47.64415" lon="4.38085">
        <ele>302.4</ele>
        <time>2026-05-20T08:59:43Z</time>
      </trkpt>
      <trkpt lat="47.64417" lon="4.38087">
        <ele>302.4</ele>
        <time>2026-05-20T08:59:44Z</time>
      </trkpt>
      <trkpt lat="47.64419" lon="4.3809">
        <ele>302.6</ele>
        <time>2026-05-20T08:59:45Z</time>
      </trkpt>
      <trkpt lat="47.64421" lon="4.38091">
        <ele>303</ele>
        <time>2026-05-20T08:59:46Z</time>
      </trkpt>
      <trkpt lat="47.64422" lon="4.38093">
        <ele>303.2</ele>
        <time>2026-05-20T08:59:47Z</time>
      </trkpt>
      <trkpt lat="47.64423" lon="4.38095">
        <ele>303.4</ele>
        <time>2026-05-20T08:59:48Z</time>
      </trkpt>
      <trkpt lat="47.64425" lon="4.38097">
        <ele>303.6</ele>
        <time>2026-05-20T08:59:49Z</time>
      </trkpt>
      <trkpt lat="47.64426" lon="4.38099">
        <ele>303.8</ele>
        <time>2026-05-20T08:59:50Z</time>
      </trkpt>
      <trkpt lat="47.64429" lon="4.38101">
        <ele>303.8</ele>
        <time>2026-05-20T08:59:51Z</time>
      </trkpt>
      <trkpt lat="47.6443" lon="4.38103">
        <ele>304.2</ele>
        <time>2026-05-20T08:59:52Z</time>
      </trkpt>
      <trkpt lat="47.64431" lon="4.38103">
        <ele>304.2</ele>
        <time>2026-05-20T08:59:53Z</time>
      </trkpt>
      <trkpt lat="47.64432" lon="4.38104">
        <ele>304.4</ele>
        <time>2026-05-20T08:59:54Z</time>
      </trkpt>
      <trkpt lat="47.64434" lon="4.38105">
        <ele>304.4</ele>
        <time>2026-05-20T08:59:55Z</time>
      </trkpt>
      <trkpt lat="47.64435" lon="4.38106">
        <ele>304.4</ele>
        <time>2026-05-20T08:59:56Z</time>
      </trkpt>
      <trkpt lat="47.64437" lon="4.38107">
        <ele>305</ele>
        <time>2026-05-20T08:59:57Z</time>
      </trkpt>
      <trkpt lat="47.64438" lon="4.38108">
        <ele>305</ele>
        <time>2026-05-20T08:59:58Z</time>
      </trkpt>
      <trkpt lat="47.6444" lon="4.38109">
        <ele>305.4</ele>
        <time>2026-05-20T08:59:59Z</time>
      </trkpt>
      <trkpt lat="47.64442" lon="4.38111">
        <ele>305.4</ele>
        <time>2026-05-20T09:00:00Z</time>
      </trkpt>
      <trkpt lat="47.64444" lon="4.38112">
        <ele>305.6</ele>
        <time>2026-05-20T09:00:01Z</time>
      </trkpt>
      <trkpt lat="47.64445" lon="4.38114">
        <ele>305.8</ele>
        <time>2026-05-20T09:00:02Z</time>
      </trkpt>
      <trkpt lat="47.64447" lon="4.38116">
        <ele>305.8</ele>
        <time>2026-05-20T09:00:03Z</time>
      </trkpt>
      <trkpt lat="47.64449" lon="4.38118">
        <ele>306</ele>
        <time>2026-05-20T09:00:04Z</time>
      </trkpt>
      <trkpt lat="47.6445" lon="4.38119">
        <ele>306.2</ele>
        <time>2026-05-20T09:00:05Z</time>
      </trkpt>
      <trkpt lat="47.64452" lon="4.38121">
        <ele>306.6</ele>
        <time>2026-05-20T09:00:06Z</time>
      </trkpt>
      <trkpt lat="47.64454" lon="4.38123">
        <ele>306.8</ele>
        <time>2026-05-20T09:00:07Z</time>
      </trkpt>
      <trkpt lat="47.64455" lon="4.38125">
        <ele>307</ele>
        <time>2026-05-20T09:00:08Z</time>
      </trkpt>
      <trkpt lat="47.64457" lon="4.38126">
        <ele>307.2</ele>
        <time>2026-05-20T09:00:09Z</time>
      </trkpt>
      <trkpt lat="47.64459" lon="4.38128">
        <ele>307.4</ele>
        <time>2026-05-20T09:00:10Z</time>
      </trkpt>
      <trkpt lat="47.64461" lon="4.38129">
        <ele>307.4</ele>
        <time>2026-05-20T09:00:11Z</time>
      </trkpt>
      <trkpt lat="47.64462" lon="4.38131">
        <ele>307.6</ele>
        <time>2026-05-20T09:00:12Z</time>
      </trkpt>
      <trkpt lat="47.64464" lon="4.38132">
        <ele>307.8</ele>
        <time>2026-05-20T09:00:13Z</time>
      </trkpt>
      <trkpt lat="47.64466" lon="4.38134">
        <ele>307.8</ele>
        <time>2026-05-20T09:00:14Z</time>
      </trkpt>
      <trkpt lat="47.64467" lon="4.38136">
        <ele>308</ele>
        <time>2026-05-20T09:00:15Z</time>
      </trkpt>
      <trkpt lat="47.64468" lon="4.38137">
        <ele>308</ele>
        <time>2026-05-20T09:00:16Z</time>
      </trkpt>
      <trkpt lat="47.6447" lon="4.38139">
        <ele>308.2</ele>
        <time>2026-05-20T09:00:17Z</time>
      </trkpt>
      <trkpt lat="47.64471" lon="4.38139">
        <ele>308.4</ele>
        <time>2026-05-20T09:00:18Z</time>
      </trkpt>
      <trkpt lat="47.64473" lon="4.3814">
        <ele>308.6</ele>
        <time>2026-05-20T09:00:19Z</time>
      </trkpt>
      <trkpt lat="47.64475" lon="4.38142">
        <ele>308.6</ele>
        <time>2026-05-20T09:00:20Z</time>
      </trkpt>
      <trkpt lat="47.64478" lon="4.38145">
        <ele>308.8</ele>
        <time>2026-05-20T09:00:21Z</time>
      </trkpt>
      <trkpt lat="47.6448" lon="4.38146">
        <ele>308.8</ele>
        <time>2026-05-20T09:00:22Z</time>
      </trkpt>
      <trkpt lat="47.64482" lon="4.38148">
        <ele>309.2</ele>
        <time>2026-05-20T09:00:23Z</time>
      </trkpt>
      <trkpt lat="47.64483" lon="4.3815">
        <ele>309.4</ele>
        <time>2026-05-20T09:00:24Z</time>
      </trkpt>
      <trkpt lat="47.64485" lon="4.38152">
        <ele>309.6</ele>
        <time>2026-05-20T09:00:25Z</time>
      </trkpt>
      <trkpt lat="47.64487" lon="4.38154">
        <ele>310</ele>
        <time>2026-05-20T09:00:26Z</time>
      </trkpt>
      <trkpt lat="47.64488" lon="4.38155">
        <ele>310.2</ele>
        <time>2026-05-20T09:00:27Z</time>
      </trkpt>
      <trkpt lat="47.64489" lon="4.38156">
        <ele>310.6</ele>
        <time>2026-05-20T09:00:28Z</time>
      </trkpt>
      <trkpt lat="47.6449" lon="4.38158">
        <ele>310.6</ele>
        <time>2026-05-20T09:00:29Z</time>
      </trkpt>
      <trkpt lat="47.64492" lon="4.3816">
        <ele>310.8</ele>
        <time>2026-05-20T09:00:30Z</time>
      </trkpt>
      <trkpt lat="47.64494" lon="4.38161">
        <ele>311</ele>
        <time>2026-05-20T09:00:31Z</time>
      </trkpt>
      <trkpt lat="47.64495" lon="4.38162">
        <ele>311.2</ele>
        <time>2026-05-20T09:00:32Z</time>
      </trkpt>
      <trkpt lat="47.64497" lon="4.38163">
        <ele>311.6</ele>
        <time>2026-05-20T09:00:33Z</time>
      </trkpt>
      <trkpt lat="47.64499" lon="4.38165">
        <ele>311.6</ele>
        <time>2026-05-20T09:00:34Z</time>
      </trkpt>
      <trkpt lat="47.645" lon="4.38166">
        <ele>311.8</ele>
        <time>2026-05-20T09:00:35Z</time>
      </trkpt>
      <trkpt lat="47.64502" lon="4.38168">
        <ele>312</ele>
        <time>2026-05-20T09:00:36Z</time>
      </trkpt>
      <trkpt lat="47.64504" lon="4.3817">
        <ele>312.2</ele>
        <time>2026-05-20T09:00:37Z</time>
      </trkpt>
      <trkpt lat="47.64506" lon="4.38172">
        <ele>312.6</ele>
        <time>2026-05-20T09:00:38Z</time>
      </trkpt>
      <trkpt lat="47.64508" lon="4.38173">
        <ele>312.8</ele>
        <time>2026-05-20T09:00:39Z</time>
      </trkpt>
      <trkpt lat="47.64509" lon="4.38175">
        <ele>313</ele>
        <time>2026-05-20T09:00:40Z</time>
      </trkpt>
      <trkpt lat="47.64511" lon="4.38177">
        <ele>313</ele>
        <time>2026-05-20T09:00:41Z</time>
      </trkpt>
      <trkpt lat="47.64513" lon="4.38178">
        <ele>313.2</ele>
        <time>2026-05-20T09:00:42Z</time>
      </trkpt>
      <trkpt lat="47.64514" lon="4.3818">
        <ele>313.2</ele>
        <time>2026-05-20T09:00:43Z</time>
      </trkpt>
      <trkpt lat="47.64516" lon="4.38182">
        <ele>313.6</ele>
        <time>2026-05-20T09:00:44Z</time>
      </trkpt>
      <trkpt lat="47.64517" lon="4.38183">
        <ele>313.6</ele>
        <time>2026-05-20T09:00:45Z</time>
      </trkpt>
      <trkpt lat="47.64519" lon="4.38185">
        <ele>314</ele>
        <time>2026-05-20T09:00:46Z</time>
      </trkpt>
      <trkpt lat="47.6452" lon="4.38187">
        <ele>314.2</ele>
        <time>2026-05-20T09:00:47Z</time>
      </trkpt>
      <trkpt lat="47.64522" lon="4.38189">
        <ele>314.4</ele>
        <time>2026-05-20T09:00:48Z</time>
      </trkpt>
      <trkpt lat="47.64524" lon="4.3819">
        <ele>314.4</ele>
        <time>2026-05-20T09:00:49Z</time>
      </trkpt>
      <trkpt lat="47.64526" lon="4.38192">
        <ele>314.6</ele>
        <time>2026-05-20T09:00:50Z</time>
      </trkpt>
      <trkpt lat="47.64528" lon="4.38193">
        <ele>314.8</ele>
        <time>2026-05-20T09:00:51Z</time>
      </trkpt>
      <trkpt lat="47.6453" lon="4.38194">
        <ele>315</ele>
        <time>2026-05-20T09:00:52Z</time>
      </trkpt>
      <trkpt lat="47.64531" lon="4.38196">
        <ele>315.2</ele>
        <time>2026-05-20T09:00:53Z</time>
      </trkpt>
      <trkpt lat="47.64533" lon="4.38198">
        <ele>315.2</ele>
        <time>2026-05-20T09:00:54Z</time>
      </trkpt>
      <trkpt lat="47.64535" lon="4.38199">
        <ele>315.4</ele>
        <time>2026-05-20T09:00:55Z</time>
      </trkpt>
      <trkpt lat="47.64535" lon="4.382">
        <ele>315.4</ele>
        <time>2026-05-20T09:00:56Z</time>
      </trkpt>
      <trkpt lat="47.64537" lon="4.38201">
        <ele>315.6</ele>
        <time>2026-05-20T09:00:57Z</time>
      </trkpt>
      <trkpt lat="47.64539" lon="4.38203">
        <ele>315.8</ele>
        <time>2026-05-20T09:00:58Z</time>
      </trkpt>
      <trkpt lat="47.6454" lon="4.38204">
        <ele>315.8</ele>
        <time>2026-05-20T09:00:59Z</time>
      </trkpt>
      <trkpt lat="47.64542" lon="4.38206">
        <ele>316</ele>
        <time>2026-05-20T09:01:00Z</time>
      </trkpt>
      <trkpt lat="47.64544" lon="4.38208">
        <ele>316.2</ele>
        <time>2026-05-20T09:01:01Z</time>
      </trkpt>
      <trkpt lat="47.64546" lon="4.38209">
        <ele>316.6</ele>
        <time>2026-05-20T09:01:02Z</time>
      </trkpt>
      <trkpt lat="47.64548" lon="4.38211">
        <ele>316.8</ele>
        <time>2026-05-20T09:01:03Z</time>
      </trkpt>
      <trkpt lat="47.6455" lon="4.38213">
        <ele>317</ele>
        <time>2026-05-20T09:01:04Z</time>
      </trkpt>
      <trkpt lat="47.64552" lon="4.38215">
        <ele>317.2</ele>
        <time>2026-05-20T09:01:05Z</time>
      </trkpt>
      <trkpt lat="47.64553" lon="4.38217">
        <ele>317.4</ele>
        <time>2026-05-20T09:01:06Z</time>
      </trkpt>
      <trkpt lat="47.64555" lon="4.38219">
        <ele>317.4</ele>
        <time>2026-05-20T09:01:07Z</time>
      </trkpt>
      <trkpt lat="47.64557" lon="4.38221">
        <ele>317.6</ele>
        <time>2026-05-20T09:01:08Z</time>
      </trkpt>
      <trkpt lat="47.64559" lon="4.38222">
        <ele>317.8</ele>
        <time>2026-05-20T09:01:09Z</time>
      </trkpt>
      <trkpt lat="47.6456" lon="4.38223">
        <ele>318</ele>
        <time>2026-05-20T09:01:10Z</time>
      </trkpt>
      <trkpt lat="47.64562" lon="4.38225">
        <ele>318.4</ele>
        <time>2026-05-20T09:01:11Z</time>
      </trkpt>
      <trkpt lat="47.64564" lon="4.38228">
        <ele>318.4</ele>
        <time>2026-05-20T09:01:12Z</time>
      </trkpt>
      <trkpt lat="47.64566" lon="4.3823">
        <ele>318.6</ele>
        <time>2026-05-20T09:01:13Z</time>
      </trkpt>
      <trkpt lat="47.64568" lon="4.3823">
        <ele>318.8</ele>
        <time>2026-05-20T09:01:14Z</time>
      </trkpt>
      <trkpt lat="47.6457" lon="4.38231">
        <ele>319</ele>
        <time>2026-05-20T09:01:15Z</time>
      </trkpt>
      <trkpt lat="47.64572" lon="4.38232">
        <ele>319.2</ele>
        <time>2026-05-20T09:01:16Z</time>
      </trkpt>
      <trkpt lat="47.64574" lon="4.38234">
        <ele>319.6</ele>
        <time>2026-05-20T09:01:17Z</time>
      </trkpt>
      <trkpt lat="47.64576" lon="4.38237">
        <ele>319.8</ele>
        <time>2026-05-20T09:01:18Z</time>
      </trkpt>
      <trkpt lat="47.64578" lon="4.3824">
        <ele>320</ele>
        <time>2026-05-20T09:01:19Z</time>
      </trkpt>
      <trkpt lat="47.6458" lon="4.38241">
        <ele>320.2</ele>
        <time>2026-05-20T09:01:20Z</time>
      </trkpt>
      <trkpt lat="47.64581" lon="4.38241">
        <ele>320.4</ele>
        <time>2026-05-20T09:01:21Z</time>
      </trkpt>
      <trkpt lat="47.64583" lon="4.38242">
        <ele>320.6</ele>
        <time>2026-05-20T09:01:22Z</time>
      </trkpt>
      <trkpt lat="47.64584" lon="4.38244">
        <ele>320.8</ele>
        <time>2026-05-20T09:01:23Z</time>
      </trkpt>
      <trkpt lat="47.64586" lon="4.38246">
        <ele>321</ele>
        <time>2026-05-20T09:01:24Z</time>
      </trkpt>
      <trkpt lat="47.64587" lon="4.38249">
        <ele>321.2</ele>
        <time>2026-05-20T09:01:25Z</time>
      </trkpt>
      <trkpt lat="47.64588" lon="4.3825">
        <ele>321.4</ele>
        <time>2026-05-20T09:01:26Z</time>
      </trkpt>
      <trkpt lat="47.6459" lon="4.38251">
        <ele>321.4</ele>
        <time>2026-05-20T09:01:27Z</time>
      </trkpt>
      <trkpt lat="47.64592" lon="4.38252">
        <ele>321.8</ele>
        <time>2026-05-20T09:01:28Z</time>
      </trkpt>
      <trkpt lat="47.64593" lon="4.38254">
        <ele>322</ele>
        <time>2026-05-20T09:01:29Z</time>
      </trkpt>
      <trkpt lat="47.64595" lon="4.38256">
        <ele>322</ele>
        <time>2026-05-20T09:01:30Z</time>
      </trkpt>
      <trkpt lat="47.64596" lon="4.38257">
        <ele>322.4</ele>
        <time>2026-05-20T09:01:31Z</time>
      </trkpt>
      <trkpt lat="47.64597" lon="4.38259">
        <ele>322.4</ele>
        <time>2026-05-20T09:01:32Z</time>
      </trkpt>
      <trkpt lat="47.64599" lon="4.3826">
        <ele>322.6</ele>
        <time>2026-05-20T09:01:33Z</time>
      </trkpt>
      <trkpt lat="47.64601" lon="4.38262">
        <ele>322.6</ele>
        <time>2026-05-20T09:01:34Z</time>
      </trkpt>
      <trkpt lat="47.64602" lon="4.38264">
        <ele>322.8</ele>
        <time>2026-05-20T09:01:35Z</time>
      </trkpt>
      <trkpt lat="47.64603" lon="4.38266">
        <ele>322.8</ele>
        <time>2026-05-20T09:01:36Z</time>
      </trkpt>
      <trkpt lat="47.64605" lon="4.38267">
        <ele>323.2</ele>
        <time>2026-05-20T09:01:37Z</time>
      </trkpt>
      <trkpt lat="47.64608" lon="4.38269">
        <ele>323.6</ele>
        <time>2026-05-20T09:01:38Z</time>
      </trkpt>
      <trkpt lat="47.6461" lon="4.3827">
        <ele>323.6</ele>
        <time>2026-05-20T09:01:39Z</time>
      </trkpt>
      <trkpt lat="47.64612" lon="4.38271">
        <ele>323.8</ele>
        <time>2026-05-20T09:01:40Z</time>
      </trkpt>
      <trkpt lat="47.64615" lon="4.38272">
        <ele>324</ele>
        <time>2026-05-20T09:01:41Z</time>
      </trkpt>
      <trkpt lat="47.64618" lon="4.38274">
        <ele>324.2</ele>
        <time>2026-05-20T09:01:42Z</time>
      </trkpt>
      <trkpt lat="47.6462" lon="4.38273">
        <ele>324.2</ele>
        <time>2026-05-20T09:01:43Z</time>
      </trkpt>
      <trkpt lat="47.64622" lon="4.38272">
        <ele>324.4</ele>
        <time>2026-05-20T09:01:44Z</time>
      </trkpt>
      <trkpt lat="47.64623" lon="4.3827">
        <ele>324.4</ele>
        <time>2026-05-20T09:01:45Z</time>
      </trkpt>
      <trkpt lat="47.64625" lon="4.38269">
        <ele>324.8</ele>
        <time>2026-05-20T09:01:46Z</time>
      </trkpt>
      <trkpt lat="47.64627" lon="4.38267">
        <ele>325</ele>
        <time>2026-05-20T09:01:47Z</time>
      </trkpt>
      <trkpt lat="47.64629" lon="4.38265">
        <ele>325.2</ele>
        <time>2026-05-20T09:01:48Z</time>
      </trkpt>
      <trkpt lat="47.64631" lon="4.38264">
        <ele>325.4</ele>
        <time>2026-05-20T09:01:49Z</time>
      </trkpt>
      <trkpt lat="47.64632" lon="4.38263">
        <ele>325.6</ele>
        <time>2026-05-20T09:01:50Z</time>
      </trkpt>
      <trkpt lat="47.64634" lon="4.38261">
        <ele>325.8</ele>
        <time>2026-05-20T09:01:51Z</time>
      </trkpt>
      <trkpt lat="47.64635" lon="4.3826">
        <ele>325.8</ele>
        <time>2026-05-20T09:01:52Z</time>
      </trkpt>
      <trkpt lat="47.64636" lon="4.38258">
        <ele>326</ele>
        <time>2026-05-20T09:01:53Z</time>
      </trkpt>
      <trkpt lat="47.64638" lon="4.38255">
        <ele>326</ele>
        <time>2026-05-20T09:01:54Z</time>
      </trkpt>
      <trkpt lat="47.64639" lon="4.38253">
        <ele>326.2</ele>
        <time>2026-05-20T09:01:55Z</time>
      </trkpt>
      <trkpt lat="47.6464" lon="4.3825">
        <ele>326.6</ele>
        <time>2026-05-20T09:01:56Z</time>
      </trkpt>
      <trkpt lat="47.64641" lon="4.38247">
        <ele>326.6</ele>
        <time>2026-05-20T09:01:57Z</time>
      </trkpt>
      <trkpt lat="47.64643" lon="4.38243">
        <ele>327</ele>
        <time>2026-05-20T09:01:58Z</time>
      </trkpt>
      <trkpt lat="47.64644" lon="4.38241">
        <ele>327.2</ele>
        <time>2026-05-20T09:01:59Z</time>
      </trkpt>
      <trkpt lat="47.64645" lon="4.38239">
        <ele>327.6</ele>
        <time>2026-05-20T09:02:00Z</time>
      </trkpt>
      <trkpt lat="47.64646" lon="4.38238">
        <ele>327.6</ele>
        <time>2026-05-20T09:02:01Z</time>
      </trkpt>
      <trkpt lat="47.64646" lon="4.38235">
        <ele>327.8</ele>
        <time>2026-05-20T09:02:02Z</time>
      </trkpt>
      <trkpt lat="47.64647" lon="4.38233">
        <ele>328</ele>
        <time>2026-05-20T09:02:03Z</time>
      </trkpt>
      <trkpt lat="47.64649" lon="4.38229">
        <ele>328.2</ele>
        <time>2026-05-20T09:02:04Z</time>
      </trkpt>
      <trkpt lat="47.6465" lon="4.38227">
        <ele>328.4</ele>
        <time>2026-05-20T09:02:05Z</time>
      </trkpt>
      <trkpt lat="47.64653" lon="4.38223">
        <ele>328.4</ele>
        <time>2026-05-20T09:02:06Z</time>
      </trkpt>
      <trkpt lat="47.64654" lon="4.38219">
        <ele>328.6</ele>
        <time>2026-05-20T09:02:07Z</time>
      </trkpt>
      <trkpt lat="47.64656" lon="4.38216">
        <ele>328.8</ele>
        <time>2026-05-20T09:02:08Z</time>
      </trkpt>
      <trkpt lat="47.64658" lon="4.38213">
        <ele>329</ele>
        <time>2026-05-20T09:02:09Z</time>
      </trkpt>
      <trkpt lat="47.64659" lon="4.3821">
        <ele>329</ele>
        <time>2026-05-20T09:02:10Z</time>
      </trkpt>
      <trkpt lat="47.6466" lon="4.38206">
        <ele>329.2</ele>
        <time>2026-05-20T09:02:11Z</time>
      </trkpt>
      <trkpt lat="47.64661" lon="4.38204">
        <ele>329.2</ele>
        <time>2026-05-20T09:02:12Z</time>
      </trkpt>
      <trkpt lat="47.64662" lon="4.38203">
        <ele>329.4</ele>
        <time>2026-05-20T09:02:13Z</time>
      </trkpt>
      <trkpt lat="47.64664" lon="4.38203">
        <ele>329.6</ele>
        <time>2026-05-20T09:02:14Z</time>
      </trkpt>
      <trkpt lat="47.64665" lon="4.38199">
        <ele>329.8</ele>
        <time>2026-05-20T09:02:15Z</time>
      </trkpt>
      <trkpt lat="47.64666" lon="4.38197">
        <ele>330</ele>
        <time>2026-05-20T09:02:16Z</time>
      </trkpt>
      <trkpt lat="47.64667" lon="4.38194">
        <ele>330.2</ele>
        <time>2026-05-20T09:02:17Z</time>
      </trkpt>
      <trkpt lat="47.64669" lon="4.38191">
        <ele>330.6</ele>
        <time>2026-05-20T09:02:18Z</time>
      </trkpt>
      <trkpt lat="47.6467" lon="4.38189">
        <ele>330.8</ele>
        <time>2026-05-20T09:02:19Z</time>
      </trkpt>
      <trkpt lat="47.6467" lon="4.38187">
        <ele>331.2</ele>
        <time>2026-05-20T09:02:20Z</time>
      </trkpt>
      <trkpt lat="47.64671" lon="4.38184">
        <ele>331.4</ele>
        <time>2026-05-20T09:02:21Z</time>
      </trkpt>
      <trkpt lat="47.64672" lon="4.38181">
        <ele>331.4</ele>
        <time>2026-05-20T09:02:22Z</time>
      </trkpt>
      <trkpt lat="47.64673" lon="4.38179">
        <ele>331.6</ele>
        <time>2026-05-20T09:02:23Z</time>
      </trkpt>
      <trkpt lat="47.64674" lon="4.38175">
        <ele>331.6</ele>
        <time>2026-05-20T09:02:24Z</time>
      </trkpt>
      <trkpt lat="47.64675" lon="4.38173">
        <ele>331.8</ele>
        <time>2026-05-20T09:02:25Z</time>
      </trkpt>
      <trkpt lat="47.64676" lon="4.38171">
        <ele>332</ele>
        <time>2026-05-20T09:02:26Z</time>
      </trkpt>
      <trkpt lat="47.64677" lon="4.38168">
        <ele>332.2</ele>
        <time>2026-05-20T09:02:27Z</time>
      </trkpt>
      <trkpt lat="47.64679" lon="4.38166">
        <ele>332.2</ele>
        <time>2026-05-20T09:02:28Z</time>
      </trkpt>
      <trkpt lat="47.6468" lon="4.38163">
        <ele>332.4</ele>
        <time>2026-05-20T09:02:29Z</time>
      </trkpt>
      <trkpt lat="47.64682" lon="4.38159">
        <ele>332.4</ele>
        <time>2026-05-20T09:02:30Z</time>
      </trkpt>
      <trkpt lat="47.64683" lon="4.38155">
        <ele>332.6</ele>
        <time>2026-05-20T09:02:31Z</time>
      </trkpt>
      <trkpt lat="47.64685" lon="4.38152">
        <ele>332.6</ele>
        <time>2026-05-20T09:02:32Z</time>
      </trkpt>
      <trkpt lat="47.64686" lon="4.38148">
        <ele>332.8</ele>
        <time>2026-05-20T09:02:33Z</time>
      </trkpt>
      <trkpt lat="47.64687" lon="4.38145">
        <ele>332.8</ele>
        <time>2026-05-20T09:02:34Z</time>
      </trkpt>
      <trkpt lat="47.64689" lon="4.38141">
        <ele>333</ele>
        <time>2026-05-20T09:02:35Z</time>
      </trkpt>
      <trkpt lat="47.6469" lon="4.38139">
        <ele>333</ele>
        <time>2026-05-20T09:02:36Z</time>
      </trkpt>
      <trkpt lat="47.64691" lon="4.38136">
        <ele>333.2</ele>
        <time>2026-05-20T09:02:37Z</time>
      </trkpt>
      <trkpt lat="47.64693" lon="4.38132">
        <ele>333</ele>
        <time>2026-05-20T09:02:38Z</time>
      </trkpt>
      <trkpt lat="47.64695" lon="4.38128">
        <ele>333.2</ele>
        <time>2026-05-20T09:02:39Z</time>
      </trkpt>
      <trkpt lat="47.64697" lon="4.38124">
        <ele>333.4</ele>
        <time>2026-05-20T09:02:40Z</time>
      </trkpt>
      <trkpt lat="47.64698" lon="4.38121">
        <ele>333.6</ele>
        <time>2026-05-20T09:02:41Z</time>
      </trkpt>
      <trkpt lat="47.64699" lon="4.38119">
        <ele>333.8</ele>
        <time>2026-05-20T09:02:42Z</time>
      </trkpt>
      <trkpt lat="47.64701" lon="4.38115">
        <ele>333.6</ele>
        <time>2026-05-20T09:02:43Z</time>
      </trkpt>
      <trkpt lat="47.64703" lon="4.38111">
        <ele>333.8</ele>
        <time>2026-05-20T09:02:44Z</time>
      </trkpt>
      <trkpt lat="47.64704" lon="4.38108">
        <ele>333.8</ele>
        <time>2026-05-20T09:02:45Z</time>
      </trkpt>
      <trkpt lat="47.64705" lon="4.38104">
        <ele>334</ele>
        <time>2026-05-20T09:02:46Z</time>
      </trkpt>
      <trkpt lat="47.64706" lon="4.38101">
        <ele>334.2</ele>
        <time>2026-05-20T09:02:47Z</time>
      </trkpt>
      <trkpt lat="47.64707" lon="4.38099">
        <ele>334.2</ele>
        <time>2026-05-20T09:02:48Z</time>
      </trkpt>
      <trkpt lat="47.64709" lon="4.38097">
        <ele>334.4</ele>
        <time>2026-05-20T09:02:49Z</time>
      </trkpt>
      <trkpt lat="47.6471" lon="4.38095">
        <ele>334.6</ele>
        <time>2026-05-20T09:02:50Z</time>
      </trkpt>
      <trkpt lat="47.64711" lon="4.38092">
        <ele>334.8</ele>
        <time>2026-05-20T09:02:51Z</time>
      </trkpt>
      <trkpt lat="47.64712" lon="4.38089">
        <ele>335</ele>
        <time>2026-05-20T09:02:52Z</time>
      </trkpt>
      <trkpt lat="47.64714" lon="4.38085">
        <ele>335</ele>
        <time>2026-05-20T09:02:53Z</time>
      </trkpt>
      <trkpt lat="47.64715" lon="4.38082">
        <ele>335.2</ele>
        <time>2026-05-20T09:02:54Z</time>
      </trkpt>
      <trkpt lat="47.64717" lon="4.38079">
        <ele>335.2</ele>
        <time>2026-05-20T09:02:55Z</time>
      </trkpt>
      <trkpt lat="47.64719" lon="4.38075">
        <ele>335.4</ele>
        <time>2026-05-20T09:02:56Z</time>
      </trkpt>
      <trkpt lat="47.6472" lon="4.38071">
        <ele>335.6</ele>
        <time>2026-05-20T09:02:57Z</time>
      </trkpt>
      <trkpt lat="47.64721" lon="4.38068">
        <ele>335.8</ele>
        <time>2026-05-20T09:02:58Z</time>
      </trkpt>
      <trkpt lat="47.64723" lon="4.38064">
        <ele>335.8</ele>
        <time>2026-05-20T09:02:59Z</time>
      </trkpt>
      <trkpt lat="47.64724" lon="4.38061">
        <ele>336</ele>
        <time>2026-05-20T09:03:00Z</time>
      </trkpt>
      <trkpt lat="47.64725" lon="4.38056">
        <ele>336</ele>
        <time>2026-05-20T09:03:01Z</time>
      </trkpt>
      <trkpt lat="47.64727" lon="4.38052">
        <ele>336.2</ele>
        <time>2026-05-20T09:03:02Z</time>
      </trkpt>
      <trkpt lat="47.64728" lon="4.38049">
        <ele>336.2</ele>
        <time>2026-05-20T09:03:03Z</time>
      </trkpt>
      <trkpt lat="47.64729" lon="4.38047">
        <ele>336.4</ele>
        <time>2026-05-20T09:03:04Z</time>
      </trkpt>
      <trkpt lat="47.6473" lon="4.38045">
        <ele>336.4</ele>
        <time>2026-05-20T09:03:05Z</time>
      </trkpt>
      <trkpt lat="47.64731" lon="4.38041">
        <ele>336.6</ele>
        <time>2026-05-20T09:03:06Z</time>
      </trkpt>
      <trkpt lat="47.64733" lon="4.38035">
        <ele>336.6</ele>
        <time>2026-05-20T09:03:07Z</time>
      </trkpt>
      <trkpt lat="47.64735" lon="4.38029">
        <ele>336.6</ele>
        <time>2026-05-20T09:03:08Z</time>
      </trkpt>
      <trkpt lat="47.64737" lon="4.38025">
        <ele>336.8</ele>
        <time>2026-05-20T09:03:09Z</time>
      </trkpt>
      <trkpt lat="47.64738" lon="4.38022">
        <ele>336.8</ele>
        <time>2026-05-20T09:03:10Z</time>
      </trkpt>
      <trkpt lat="47.6474" lon="4.38017">
        <ele>337</ele>
        <time>2026-05-20T09:03:11Z</time>
      </trkpt>
      <trkpt lat="47.64743" lon="4.38012">
        <ele>337</ele>
        <time>2026-05-20T09:03:12Z</time>
      </trkpt>
      <trkpt lat="47.64744" lon="4.38008">
        <ele>337.2</ele>
        <time>2026-05-20T09:03:13Z</time>
      </trkpt>
      <trkpt lat="47.64746" lon="4.38005">
        <ele>337.2</ele>
        <time>2026-05-20T09:03:14Z</time>
      </trkpt>
      <trkpt lat="47.64748" lon="4.38001">
        <ele>337.2</ele>
        <time>2026-05-20T09:03:15Z</time>
      </trkpt>
      <trkpt lat="47.6475" lon="4.37995">
        <ele>337.4</ele>
        <time>2026-05-20T09:03:16Z</time>
      </trkpt>
      <trkpt lat="47.64753" lon="4.3799">
        <ele>337.4</ele>
        <time>2026-05-20T09:03:17Z</time>
      </trkpt>
      <trkpt lat="47.64754" lon="4.37985">
        <ele>337.6</ele>
        <time>2026-05-20T09:03:18Z</time>
      </trkpt>
      <trkpt lat="47.64756" lon="4.37983">
        <ele>337.6</ele>
        <time>2026-05-20T09:03:19Z</time>
      </trkpt>
      <trkpt lat="47.64757" lon="4.3798">
        <ele>337.8</ele>
        <time>2026-05-20T09:03:20Z</time>
      </trkpt>
      <trkpt lat="47.64759" lon="4.37978">
        <ele>337.8</ele>
        <time>2026-05-20T09:03:21Z</time>
      </trkpt>
      <trkpt lat="47.64761" lon="4.37973">
        <ele>338</ele>
        <time>2026-05-20T09:03:22Z</time>
      </trkpt>
      <trkpt lat="47.64762" lon="4.37967">
        <ele>338.2</ele>
        <time>2026-05-20T09:03:23Z</time>
      </trkpt>
      <trkpt lat="47.64763" lon="4.37963">
        <ele>338.2</ele>
        <time>2026-05-20T09:03:24Z</time>
      </trkpt>
      <trkpt lat="47.64765" lon="4.37959">
        <ele>338.4</ele>
        <time>2026-05-20T09:03:25Z</time>
      </trkpt>
      <trkpt lat="47.64767" lon="4.37954">
        <ele>338.4</ele>
        <time>2026-05-20T09:03:26Z</time>
      </trkpt>
      <trkpt lat="47.6477" lon="4.37948">
        <ele>338.8</ele>
        <time>2026-05-20T09:03:27Z</time>
      </trkpt>
      <trkpt lat="47.64771" lon="4.37945">
        <ele>338.8</ele>
        <time>2026-05-20T09:03:28Z</time>
      </trkpt>
      <trkpt lat="47.64772" lon="4.37941">
        <ele>339</ele>
        <time>2026-05-20T09:03:29Z</time>
      </trkpt>
      <trkpt lat="47.64774" lon="4.37936">
        <ele>339</ele>
        <time>2026-05-20T09:03:30Z</time>
      </trkpt>
      <trkpt lat="47.64776" lon="4.3793">
        <ele>339.2</ele>
        <time>2026-05-20T09:03:31Z</time>
      </trkpt>
      <trkpt lat="47.64778" lon="4.37925">
        <ele>339.2</ele>
        <time>2026-05-20T09:03:32Z</time>
      </trkpt>
      <trkpt lat="47.64781" lon="4.3792">
        <ele>339.2</ele>
        <time>2026-05-20T09:03:33Z</time>
      </trkpt>
      <trkpt lat="47.64784" lon="4.37916">
        <ele>339.2</ele>
        <time>2026-05-20T09:03:34Z</time>
      </trkpt>
      <trkpt lat="47.64786" lon="4.37913">
        <ele>339.4</ele>
        <time>2026-05-20T09:03:35Z</time>
      </trkpt>
      <trkpt lat="47.64788" lon="4.37909">
        <ele>339.4</ele>
        <time>2026-05-20T09:03:36Z</time>
      </trkpt>
      <trkpt lat="47.6479" lon="4.37905">
        <ele>339.4</ele>
        <time>2026-05-20T09:03:37Z</time>
      </trkpt>
      <trkpt lat="47.64793" lon="4.37902">
        <ele>339.6</ele>
        <time>2026-05-20T09:03:38Z</time>
      </trkpt>
      <trkpt lat="47.64795" lon="4.379">
        <ele>339.8</ele>
        <time>2026-05-20T09:03:39Z</time>
      </trkpt>
      <trkpt lat="47.64797" lon="4.379">
        <ele>340</ele>
        <time>2026-05-20T09:03:40Z</time>
      </trkpt>
      <trkpt lat="47.648" lon="4.37898">
        <ele>340.2</ele>
        <time>2026-05-20T09:03:41Z</time>
      </trkpt>
      <trkpt lat="47.64802" lon="4.37895">
        <ele>340.4</ele>
        <time>2026-05-20T09:03:42Z</time>
      </trkpt>
      <trkpt lat="47.64805" lon="4.37895">
        <ele>340.6</ele>
        <time>2026-05-20T09:03:43Z</time>
      </trkpt>
      <trkpt lat="47.64807" lon="4.37894">
        <ele>340.8</ele>
        <time>2026-05-20T09:03:44Z</time>
      </trkpt>
      <trkpt lat="47.6481" lon="4.37893">
        <ele>341</ele>
        <time>2026-05-20T09:03:45Z</time>
      </trkpt>
      <trkpt lat="47.64812" lon="4.37893">
        <ele>341</ele>
        <time>2026-05-20T09:03:46Z</time>
      </trkpt>
      <trkpt lat="47.64816" lon="4.37893">
        <ele>341.2</ele>
        <time>2026-05-20T09:03:47Z</time>
      </trkpt>
      <trkpt lat="47.64818" lon="4.37893">
        <ele>341.2</ele>
        <time>2026-05-20T09:03:48Z</time>
      </trkpt>
      <trkpt lat="47.64821" lon="4.37892">
        <ele>341.2</ele>
        <time>2026-05-20T09:03:49Z</time>
      </trkpt>
      <trkpt lat="47.64823" lon="4.37892">
        <ele>341.4</ele>
        <time>2026-05-20T09:03:50Z</time>
      </trkpt>
      <trkpt lat="47.64826" lon="4.37892">
        <ele>341.4</ele>
        <time>2026-05-20T09:03:51Z</time>
      </trkpt>
      <trkpt lat="47.64829" lon="4.37892">
        <ele>341.4</ele>
        <time>2026-05-20T09:03:52Z</time>
      </trkpt>
      <trkpt lat="47.64831" lon="4.37892">
        <ele>341.4</ele>
        <time>2026-05-20T09:03:53Z</time>
      </trkpt>
      <trkpt lat="47.64834" lon="4.37891">
        <ele>341.4</ele>
        <time>2026-05-20T09:03:54Z</time>
      </trkpt>
      <trkpt lat="47.64836" lon="4.37891">
        <ele>341.4</ele>
        <time>2026-05-20T09:03:55Z</time>
      </trkpt>
      <trkpt lat="47.64838" lon="4.37891">
        <ele>341.4</ele>
        <time>2026-05-20T09:03:56Z</time>
      </trkpt>
      <trkpt lat="47.64841" lon="4.37891">
        <ele>341.4</ele>
        <time>2026-05-20T09:03:57Z</time>
      </trkpt>
      <trkpt lat="47.64844" lon="4.3789">
        <ele>341.4</ele>
        <time>2026-05-20T09:03:58Z</time>
      </trkpt>
      <trkpt lat="47.64847" lon="4.37889">
        <ele>341.4</ele>
        <time>2026-05-20T09:03:59Z</time>
      </trkpt>
      <trkpt lat="47.64849" lon="4.37887">
        <ele>341.4</ele>
        <time>2026-05-20T09:04:00Z</time>
      </trkpt>
      <trkpt lat="47.64852" lon="4.37887">
        <ele>341.2</ele>
        <time>2026-05-20T09:04:01Z</time>
      </trkpt>
      <trkpt lat="47.64855" lon="4.37887">
        <ele>341.2</ele>
        <time>2026-05-20T09:04:02Z</time>
      </trkpt>
      <trkpt lat="47.64858" lon="4.37885">
        <ele>341.2</ele>
        <time>2026-05-20T09:04:03Z</time>
      </trkpt>
      <trkpt lat="47.64862" lon="4.37883">
        <ele>341.2</ele>
        <time>2026-05-20T09:04:04Z</time>
      </trkpt>
      <trkpt lat="47.64867" lon="4.37878">
        <ele>341.2</ele>
        <time>2026-05-20T09:04:05Z</time>
      </trkpt>
      <trkpt lat="47.64868" lon="4.37874">
        <ele>341.2</ele>
        <time>2026-05-20T09:04:06Z</time>
      </trkpt>
      <trkpt lat="47.6487" lon="4.37868">
        <ele>341.2</ele>
        <time>2026-05-20T09:04:07Z</time>
      </trkpt>
      <trkpt lat="47.64871" lon="4.37863">
        <ele>341.2</ele>
        <time>2026-05-20T09:04:08Z</time>
      </trkpt>
      <trkpt lat="47.6487" lon="4.37859">
        <ele>341.2</ele>
        <time>2026-05-20T09:04:09Z</time>
      </trkpt>
      <trkpt lat="47.64869" lon="4.37857">
        <ele>341.2</ele>
        <time>2026-05-20T09:04:10Z</time>
      </trkpt>
      <trkpt lat="47.64868" lon="4.37854">
        <ele>341.2</ele>
        <time>2026-05-20T09:04:11Z</time>
      </trkpt>
      <trkpt lat="47.64867" lon="4.37851">
        <ele>341.2</ele>
        <time>2026-05-20T09:04:12Z</time>
      </trkpt>
      <trkpt lat="47.64866" lon="4.37849">
        <ele>341.2</ele>
        <time>2026-05-20T09:04:13Z</time>
      </trkpt>
      <trkpt lat="47.64865" lon="4.37847">
        <ele>341.4</ele>
        <time>2026-05-20T09:04:14Z</time>
      </trkpt>
      <trkpt lat="47.64864" lon="4.37844">
        <ele>341.4</ele>
        <time>2026-05-20T09:04:15Z</time>
      </trkpt>
      <trkpt lat="47.64863" lon="4.37842">
        <ele>341.8</ele>
        <time>2026-05-20T09:04:16Z</time>
      </trkpt>
      <trkpt lat="47.6486" lon="4.37839">
        <ele>341.8</ele>
        <time>2026-05-20T09:04:17Z</time>
      </trkpt>
      <trkpt lat="47.64855" lon="4.37837">
        <ele>342</ele>
        <time>2026-05-20T09:04:18Z</time>
      </trkpt>
      <trkpt lat="47.64852" lon="4.37833">
        <ele>342</ele>
        <time>2026-05-20T09:04:19Z</time>
      </trkpt>
      <trkpt lat="47.64848" lon="4.37829">
        <ele>342</ele>
        <time>2026-05-20T09:04:20Z</time>
      </trkpt>
      <trkpt lat="47.64844" lon="4.37825">
        <ele>342.2</ele>
        <time>2026-05-20T09:04:21Z</time>
      </trkpt>
      <trkpt lat="47.64842" lon="4.37822">
        <ele>342.2</ele>
        <time>2026-05-20T09:04:22Z</time>
      </trkpt>
      <trkpt lat="47.64839" lon="4.3782">
        <ele>342.2</ele>
        <time>2026-05-20T09:04:23Z</time>
      </trkpt>
      <trkpt lat="47.64835" lon="4.37817">
        <ele>342.2</ele>
        <time>2026-05-20T09:04:24Z</time>
      </trkpt>
      <trkpt lat="47.64831" lon="4.37813">
        <ele>342.2</ele>
        <time>2026-05-20T09:04:25Z</time>
      </trkpt>
      <trkpt lat="47.64828" lon="4.3781">
        <ele>342.2</ele>
        <time>2026-05-20T09:04:26Z</time>
      </trkpt>
      <trkpt lat="47.64825" lon="4.37806">
        <ele>342.4</ele>
        <time>2026-05-20T09:04:27Z</time>
      </trkpt>
      <trkpt lat="47.64823" lon="4.37804">
        <ele>342.4</ele>
        <time>2026-05-20T09:04:28Z</time>
      </trkpt>
      <trkpt lat="47.64821" lon="4.378">
        <ele>342.4</ele>
        <time>2026-05-20T09:04:29Z</time>
      </trkpt>
      <trkpt lat="47.64818" lon="4.37796">
        <ele>342.4</ele>
        <time>2026-05-20T09:04:30Z</time>
      </trkpt>
      <trkpt lat="47.64816" lon="4.37794">
        <ele>342.4</ele>
        <time>2026-05-20T09:04:31Z</time>
      </trkpt>
      <trkpt lat="47.64813" lon="4.3779">
        <ele>342.6</ele>
        <time>2026-05-20T09:04:32Z</time>
      </trkpt>
      <trkpt lat="47.6481" lon="4.37788">
        <ele>342.6</ele>
        <time>2026-05-20T09:04:33Z</time>
      </trkpt>
      <trkpt lat="47.64807" lon="4.37785">
        <ele>342.6</ele>
        <time>2026-05-20T09:04:34Z</time>
      </trkpt>
      <trkpt lat="47.64803" lon="4.37782">
        <ele>342.6</ele>
        <time>2026-05-20T09:04:35Z</time>
      </trkpt>
      <trkpt lat="47.648" lon="4.37779">
        <ele>342.6</ele>
        <time>2026-05-20T09:04:36Z</time>
      </trkpt>
      <trkpt lat="47.64797" lon="4.37776">
        <ele>342.6</ele>
        <time>2026-05-20T09:04:37Z</time>
      </trkpt>
      <trkpt lat="47.64795" lon="4.37774">
        <ele>342.6</ele>
        <time>2026-05-20T09:04:38Z</time>
      </trkpt>
      <trkpt lat="47.64792" lon="4.37771">
        <ele>342.6</ele>
        <time>2026-05-20T09:04:39Z</time>
      </trkpt>
      <trkpt lat="47.64788" lon="4.37768">
        <ele>342.6</ele>
        <time>2026-05-20T09:04:40Z</time>
      </trkpt>
      <trkpt lat="47.64784" lon="4.37764">
        <ele>342.8</ele>
        <time>2026-05-20T09:04:41Z</time>
      </trkpt>
      <trkpt lat="47.6478" lon="4.37761">
        <ele>342.8</ele>
        <time>2026-05-20T09:04:42Z</time>
      </trkpt>
      <trkpt lat="47.64776" lon="4.37758">
        <ele>342.8</ele>
        <time>2026-05-20T09:04:43Z</time>
      </trkpt>
      <trkpt lat="47.64772" lon="4.37754">
        <ele>342.8</ele>
        <time>2026-05-20T09:04:44Z</time>
      </trkpt>
      <trkpt lat="47.64768" lon="4.37751">
        <ele>342.8</ele>
        <time>2026-05-20T09:04:45Z</time>
      </trkpt>
      <trkpt lat="47.64764" lon="4.37747">
        <ele>342.8</ele>
        <time>2026-05-20T09:04:46Z</time>
      </trkpt>
      <trkpt lat="47.64762" lon="4.37745">
        <ele>342.8</ele>
        <time>2026-05-20T09:04:47Z</time>
      </trkpt>
      <trkpt lat="47.64759" lon="4.37742">
        <ele>342.6</ele>
        <time>2026-05-20T09:04:48Z</time>
      </trkpt>
      <trkpt lat="47.64757" lon="4.37738">
        <ele>342.6</ele>
        <time>2026-05-20T09:04:49Z</time>
      </trkpt>
      <trkpt lat="47.64753" lon="4.37735">
        <ele>342.4</ele>
        <time>2026-05-20T09:04:50Z</time>
      </trkpt>
      <trkpt lat="47.64748" lon="4.3773">
        <ele>342.4</ele>
        <time>2026-05-20T09:04:51Z</time>
      </trkpt>
      <trkpt lat="47.64744" lon="4.37726">
        <ele>342.2</ele>
        <time>2026-05-20T09:04:52Z</time>
      </trkpt>
      <trkpt lat="47.64741" lon="4.37722">
        <ele>342</ele>
        <time>2026-05-20T09:04:53Z</time>
      </trkpt>
      <trkpt lat="47.64737" lon="4.37719">
        <ele>342</ele>
        <time>2026-05-20T09:04:54Z</time>
      </trkpt>
      <trkpt lat="47.64733" lon="4.37715">
        <ele>341.8</ele>
        <time>2026-05-20T09:04:55Z</time>
      </trkpt>
      <trkpt lat="47.64728" lon="4.37711">
        <ele>341.8</ele>
        <time>2026-05-20T09:04:56Z</time>
      </trkpt>
      <trkpt lat="47.64723" lon="4.37706">
        <ele>341.6</ele>
        <time>2026-05-20T09:04:57Z</time>
      </trkpt>
      <trkpt lat="47.64718" lon="4.37702">
        <ele>341.6</ele>
        <time>2026-05-20T09:04:58Z</time>
      </trkpt>
      <trkpt lat="47.64714" lon="4.37698">
        <ele>341.4</ele>
        <time>2026-05-20T09:04:59Z</time>
      </trkpt>
      <trkpt lat="47.6471" lon="4.37694">
        <ele>341.2</ele>
        <time>2026-05-20T09:05:00Z</time>
      </trkpt>
      <trkpt lat="47.64705" lon="4.37689">
        <ele>341</ele>
        <time>2026-05-20T09:05:01Z</time>
      </trkpt>
      <trkpt lat="47.64701" lon="4.37684">
        <ele>341</ele>
        <time>2026-05-20T09:05:02Z</time>
      </trkpt>
      <trkpt lat="47.64696" lon="4.3768">
        <ele>340.6</ele>
        <time>2026-05-20T09:05:03Z</time>
      </trkpt>
      <trkpt lat="47.64692" lon="4.37675">
        <ele>340.6</ele>
        <time>2026-05-20T09:05:04Z</time>
      </trkpt>
      <trkpt lat="47.64687" lon="4.37671">
        <ele>340.4</ele>
        <time>2026-05-20T09:05:05Z</time>
      </trkpt>
      <trkpt lat="47.64681" lon="4.37667">
        <ele>340</ele>
        <time>2026-05-20T09:05:06Z</time>
      </trkpt>
      <trkpt lat="47.64675" lon="4.37662">
        <ele>340</ele>
        <time>2026-05-20T09:05:07Z</time>
      </trkpt>
      <trkpt lat="47.64671" lon="4.37659">
        <ele>339.8</ele>
        <time>2026-05-20T09:05:08Z</time>
      </trkpt>
      <trkpt lat="47.64666" lon="4.37654">
        <ele>339.8</ele>
        <time>2026-05-20T09:05:09Z</time>
      </trkpt>
      <trkpt lat="47.64661" lon="4.37649">
        <ele>339.6</ele>
        <time>2026-05-20T09:05:10Z</time>
      </trkpt>
      <trkpt lat="47.64656" lon="4.37644">
        <ele>339.6</ele>
        <time>2026-05-20T09:05:11Z</time>
      </trkpt>
      <trkpt lat="47.64649" lon="4.37638">
        <ele>339.2</ele>
        <time>2026-05-20T09:05:12Z</time>
      </trkpt>
      <trkpt lat="47.64642" lon="4.37633">
        <ele>339.2</ele>
        <time>2026-05-20T09:05:13Z</time>
      </trkpt>
      <trkpt lat="47.64636" lon="4.37628">
        <ele>339</ele>
        <time>2026-05-20T09:05:14Z</time>
      </trkpt>
      <trkpt lat="47.64631" lon="4.37624">
        <ele>339</ele>
        <time>2026-05-20T09:05:15Z</time>
      </trkpt>
      <trkpt lat="47.64626" lon="4.37618">
        <ele>338.8</ele>
        <time>2026-05-20T09:05:16Z</time>
      </trkpt>
      <trkpt lat="47.64621" lon="4.37612">
        <ele>338.4</ele>
        <time>2026-05-20T09:05:17Z</time>
      </trkpt>
      <trkpt lat="47.64614" lon="4.37607">
        <ele>338.4</ele>
        <time>2026-05-20T09:05:18Z</time>
      </trkpt>
      <trkpt lat="47.64608" lon="4.37601">
        <ele>338.2</ele>
        <time>2026-05-20T09:05:19Z</time>
      </trkpt>
      <trkpt lat="47.64603" lon="4.37597">
        <ele>338</ele>
        <time>2026-05-20T09:05:20Z</time>
      </trkpt>
      <trkpt lat="47.64597" lon="4.37592">
        <ele>337.8</ele>
        <time>2026-05-20T09:05:21Z</time>
      </trkpt>
      <trkpt lat="47.64592" lon="4.37587">
        <ele>337.6</ele>
        <time>2026-05-20T09:05:22Z</time>
      </trkpt>
      <trkpt lat="47.64586" lon="4.37582">
        <ele>337.4</ele>
        <time>2026-05-20T09:05:23Z</time>
      </trkpt>
      <trkpt lat="47.64581" lon="4.37578">
        <ele>337.4</ele>
        <time>2026-05-20T09:05:24Z</time>
      </trkpt>
      <trkpt lat="47.64576" lon="4.37572">
        <ele>337.2</ele>
        <time>2026-05-20T09:05:25Z</time>
      </trkpt>
      <trkpt lat="47.64571" lon="4.37568">
        <ele>337.2</ele>
        <time>2026-05-20T09:05:26Z</time>
      </trkpt>
      <trkpt lat="47.64567" lon="4.37564">
        <ele>337.2</ele>
        <time>2026-05-20T09:05:27Z</time>
      </trkpt>
      <trkpt lat="47.64562" lon="4.3756">
        <ele>337</ele>
        <time>2026-05-20T09:05:28Z</time>
      </trkpt>
      <trkpt lat="47.64558" lon="4.37555">
        <ele>336.8</ele>
        <time>2026-05-20T09:05:29Z</time>
      </trkpt>
      <trkpt lat="47.64553" lon="4.37551">
        <ele>336.8</ele>
        <time>2026-05-20T09:05:30Z</time>
      </trkpt>
      <trkpt lat="47.64548" lon="4.37546">
        <ele>336.6</ele>
        <time>2026-05-20T09:05:31Z</time>
      </trkpt>
      <trkpt lat="47.64544" lon="4.37542">
        <ele>336.4</ele>
        <time>2026-05-20T09:05:32Z</time>
      </trkpt>
      <trkpt lat="47.64539" lon="4.37537">
        <ele>336</ele>
        <time>2026-05-20T09:05:33Z</time>
      </trkpt>
      <trkpt lat="47.64535" lon="4.37533">
        <ele>336</ele>
        <time>2026-05-20T09:05:34Z</time>
      </trkpt>
      <trkpt lat="47.6453" lon="4.37528">
        <ele>335.8</ele>
        <time>2026-05-20T09:05:35Z</time>
      </trkpt>
      <trkpt lat="47.64525" lon="4.37523">
        <ele>335.8</ele>
        <time>2026-05-20T09:05:36Z</time>
      </trkpt>
      <trkpt lat="47.6452" lon="4.37518">
        <ele>335.6</ele>
        <time>2026-05-20T09:05:37Z</time>
      </trkpt>
      <trkpt lat="47.64516" lon="4.37514">
        <ele>335.4</ele>
        <time>2026-05-20T09:05:38Z</time>
      </trkpt>
      <trkpt lat="47.6451" lon="4.37509">
        <ele>335.2</ele>
        <time>2026-05-20T09:05:39Z</time>
      </trkpt>
      <trkpt lat="47.64506" lon="4.37505">
        <ele>335</ele>
        <time>2026-05-20T09:05:40Z</time>
      </trkpt>
      <trkpt lat="47.64501" lon="4.37501">
        <ele>334.8</ele>
        <time>2026-05-20T09:05:41Z</time>
      </trkpt>
      <trkpt lat="47.64496" lon="4.37495">
        <ele>334.6</ele>
        <time>2026-05-20T09:05:42Z</time>
      </trkpt>
      <trkpt lat="47.64491" lon="4.37491">
        <ele>334.4</ele>
        <time>2026-05-20T09:05:43Z</time>
      </trkpt>
      <trkpt lat="47.64486" lon="4.37486">
        <ele>334.2</ele>
        <time>2026-05-20T09:05:44Z</time>
      </trkpt>
      <trkpt lat="47.64482" lon="4.37481">
        <ele>334.2</ele>
        <time>2026-05-20T09:05:45Z</time>
      </trkpt>
      <trkpt lat="47.64477" lon="4.37477">
        <ele>333.8</ele>
        <time>2026-05-20T09:05:46Z</time>
      </trkpt>
      <trkpt lat="47.64471" lon="4.37471">
        <ele>333.6</ele>
        <time>2026-05-20T09:05:47Z</time>
      </trkpt>
      <trkpt lat="47.64466" lon="4.37467">
        <ele>333.4</ele>
        <time>2026-05-20T09:05:48Z</time>
      </trkpt>
      <trkpt lat="47.64461" lon="4.37462">
        <ele>333.2</ele>
        <time>2026-05-20T09:05:49Z</time>
      </trkpt>
      <trkpt lat="47.64455" lon="4.37458">
        <ele>333</ele>
        <time>2026-05-20T09:05:50Z</time>
      </trkpt>
      <trkpt lat="47.6445" lon="4.37453">
        <ele>332.8</ele>
        <time>2026-05-20T09:05:51Z</time>
      </trkpt>
      <trkpt lat="47.64445" lon="4.37448">
        <ele>332.8</ele>
        <time>2026-05-20T09:05:52Z</time>
      </trkpt>
      <trkpt lat="47.6444" lon="4.37443">
        <ele>332.8</ele>
        <time>2026-05-20T09:05:53Z</time>
      </trkpt>
      <trkpt lat="47.64435" lon="4.37439">
        <ele>332.8</ele>
        <time>2026-05-20T09:05:54Z</time>
      </trkpt>
      <trkpt lat="47.6443" lon="4.37434">
        <ele>332.6</ele>
        <time>2026-05-20T09:05:55Z</time>
      </trkpt>
      <trkpt lat="47.64425" lon="4.3743">
        <ele>332.6</ele>
        <time>2026-05-20T09:05:56Z</time>
      </trkpt>
      <trkpt lat="47.6442" lon="4.37426">
        <ele>332</ele>
        <time>2026-05-20T09:05:57Z</time>
      </trkpt>
      <trkpt lat="47.64416" lon="4.37422">
        <ele>331.6</ele>
        <time>2026-05-20T09:05:58Z</time>
      </trkpt>
      <trkpt lat="47.6441" lon="4.37418">
        <ele>331.2</ele>
        <time>2026-05-20T09:05:59Z</time>
      </trkpt>
      <trkpt lat="47.64405" lon="4.37413">
        <ele>330.8</ele>
        <time>2026-05-20T09:06:00Z</time>
      </trkpt>
      <trkpt lat="47.644" lon="4.37408">
        <ele>330.6</ele>
        <time>2026-05-20T09:06:01Z</time>
      </trkpt>
      <trkpt lat="47.64395" lon="4.37403">
        <ele>330</ele>
        <time>2026-05-20T09:06:02Z</time>
      </trkpt>
      <trkpt lat="47.6439" lon="4.37398">
        <ele>329.8</ele>
        <time>2026-05-20T09:06:03Z</time>
      </trkpt>
      <trkpt lat="47.64385" lon="4.37394">
        <ele>329.2</ele>
        <time>2026-05-20T09:06:04Z</time>
      </trkpt>
      <trkpt lat="47.6438" lon="4.37389">
        <ele>329</ele>
        <time>2026-05-20T09:06:05Z</time>
      </trkpt>
      <trkpt lat="47.64376" lon="4.37384">
        <ele>328.4</ele>
        <time>2026-05-20T09:06:06Z</time>
      </trkpt>
      <trkpt lat="47.64371" lon="4.3738">
        <ele>328.2</ele>
        <time>2026-05-20T09:06:07Z</time>
      </trkpt>
      <trkpt lat="47.64366" lon="4.37375">
        <ele>327.6</ele>
        <time>2026-05-20T09:06:08Z</time>
      </trkpt>
      <trkpt lat="47.64362" lon="4.37371">
        <ele>327</ele>
        <time>2026-05-20T09:06:09Z</time>
      </trkpt>
      <trkpt lat="47.64357" lon="4.37366">
        <ele>326.8</ele>
        <time>2026-05-20T09:06:10Z</time>
      </trkpt>
      <trkpt lat="47.64352" lon="4.37361">
        <ele>326</ele>
        <time>2026-05-20T09:06:11Z</time>
      </trkpt>
      <trkpt lat="47.64348" lon="4.37358">
        <ele>325.8</ele>
        <time>2026-05-20T09:06:12Z</time>
      </trkpt>
      <trkpt lat="47.64346" lon="4.37355">
        <ele>325</ele>
        <time>2026-05-20T09:06:13Z</time>
      </trkpt>
      <trkpt lat="47.64343" lon="4.3735">
        <ele>324.6</ele>
        <time>2026-05-20T09:06:14Z</time>
      </trkpt>
      <trkpt lat="47.64342" lon="4.37347">
        <ele>323.6</ele>
        <time>2026-05-20T09:06:15Z</time>
      </trkpt>
      <trkpt lat="47.64341" lon="4.37342">
        <ele>323.4</ele>
        <time>2026-05-20T09:06:16Z</time>
      </trkpt>
      <trkpt lat="47.6434" lon="4.37337">
        <ele>322.8</ele>
        <time>2026-05-20T09:06:17Z</time>
      </trkpt>
      <trkpt lat="47.6434" lon="4.37333">
        <ele>322.6</ele>
        <time>2026-05-20T09:06:18Z</time>
      </trkpt>
      <trkpt lat="47.64339" lon="4.37328">
        <ele>322.2</ele>
        <time>2026-05-20T09:06:19Z</time>
      </trkpt>
      <trkpt lat="47.64339" lon="4.37323">
        <ele>322</ele>
        <time>2026-05-20T09:06:20Z</time>
      </trkpt>
      <trkpt lat="47.6434" lon="4.37317">
        <ele>321.8</ele>
        <time>2026-05-20T09:06:21Z</time>
      </trkpt>
      <trkpt lat="47.64341" lon="4.37313">
        <ele>321.8</ele>
        <time>2026-05-20T09:06:22Z</time>
      </trkpt>
      <trkpt lat="47.64341" lon="4.37309">
        <ele>321.8</ele>
        <time>2026-05-20T09:06:23Z</time>
      </trkpt>
      <trkpt lat="47.64342" lon="4.37305">
        <ele>321.6</ele>
        <time>2026-05-20T09:06:24Z</time>
      </trkpt>
      <trkpt lat="47.64342" lon="4.37303">
        <ele>321.6</ele>
        <time>2026-05-20T09:06:25Z</time>
      </trkpt>
      <trkpt lat="47.64343" lon="4.373">
        <ele>321.8</ele>
        <time>2026-05-20T09:06:26Z</time>
      </trkpt>
      <trkpt lat="47.64344" lon="4.37298">
        <ele>321.8</ele>
        <time>2026-05-20T09:06:27Z</time>
      </trkpt>
      <trkpt lat="47.64346" lon="4.37296">
        <ele>321.8</ele>
        <time>2026-05-20T09:06:28Z</time>
      </trkpt>
      <trkpt lat="47.64347" lon="4.37294">
        <ele>322.2</ele>
        <time>2026-05-20T09:06:29Z</time>
      </trkpt>
      <trkpt lat="47.64348" lon="4.37292">
        <ele>322.4</ele>
        <time>2026-05-20T09:06:30Z</time>
      </trkpt>
      <trkpt lat="47.64349" lon="4.37291">
        <ele>322.6</ele>
        <time>2026-05-20T09:06:31Z</time>
      </trkpt>
      <trkpt lat="47.6435" lon="4.37289">
        <ele>322.6</ele>
        <time>2026-05-20T09:06:32Z</time>
      </trkpt>
      <trkpt lat="47.64351" lon="4.37287">
        <ele>323</ele>
        <time>2026-05-20T09:06:33Z</time>
      </trkpt>
      <trkpt lat="47.64351" lon="4.37285">
        <ele>323</ele>
        <time>2026-05-20T09:06:34Z</time>
      </trkpt>
      <trkpt lat="47.64352" lon="4.37283">
        <ele>323.2</ele>
        <time>2026-05-20T09:06:35Z</time>
      </trkpt>
      <trkpt lat="47.64353" lon="4.37281">
        <ele>323.2</ele>
        <time>2026-05-20T09:06:36Z</time>
      </trkpt>
      <trkpt lat="47.64354" lon="4.37279">
        <ele>323.6</ele>
        <time>2026-05-20T09:06:37Z</time>
      </trkpt>
      <trkpt lat="47.64355" lon="4.37276">
        <ele>324</ele>
        <time>2026-05-20T09:06:38Z</time>
      </trkpt>
      <trkpt lat="47.64356" lon="4.37273">
        <ele>324</ele>
        <time>2026-05-20T09:06:39Z</time>
      </trkpt>
      <trkpt lat="47.64358" lon="4.37271">
        <ele>324.4</ele>
        <time>2026-05-20T09:06:40Z</time>
      </trkpt>
      <trkpt lat="47.64359" lon="4.37268">
        <ele>324.4</ele>
        <time>2026-05-20T09:06:41Z</time>
      </trkpt>
      <trkpt lat="47.6436" lon="4.37265">
        <ele>325.2</ele>
        <time>2026-05-20T09:06:42Z</time>
      </trkpt>
      <trkpt lat="47.64361" lon="4.37261">
        <ele>325.4</ele>
        <time>2026-05-20T09:06:43Z</time>
      </trkpt>
      <trkpt lat="47.64363" lon="4.37258">
        <ele>325.6</ele>
        <time>2026-05-20T09:06:44Z</time>
      </trkpt>
      <trkpt lat="47.64364" lon="4.37255">
        <ele>325.8</ele>
        <time>2026-05-20T09:06:45Z</time>
      </trkpt>
      <trkpt lat="47.64366" lon="4.37251">
        <ele>326.2</ele>
        <time>2026-05-20T09:06:46Z</time>
      </trkpt>
      <trkpt lat="47.64368" lon="4.37248">
        <ele>326.4</ele>
        <time>2026-05-20T09:06:47Z</time>
      </trkpt>
      <trkpt lat="47.6437" lon="4.37245">
        <ele>326.4</ele>
        <time>2026-05-20T09:06:48Z</time>
      </trkpt>
      <trkpt lat="47.64371" lon="4.37241">
        <ele>326.6</ele>
        <time>2026-05-20T09:06:49Z</time>
      </trkpt>
      <trkpt lat="47.64373" lon="4.37238">
        <ele>326.8</ele>
        <time>2026-05-20T09:06:50Z</time>
      </trkpt>
      <trkpt lat="47.64374" lon="4.37233">
        <ele>327</ele>
        <time>2026-05-20T09:06:51Z</time>
      </trkpt>
      <trkpt lat="47.64376" lon="4.37229">
        <ele>327</ele>
        <time>2026-05-20T09:06:52Z</time>
      </trkpt>
      <trkpt lat="47.64376" lon="4.37226">
        <ele>327.2</ele>
        <time>2026-05-20T09:06:53Z</time>
      </trkpt>
      <trkpt lat="47.64377" lon="4.37224">
        <ele>327.2</ele>
        <time>2026-05-20T09:06:54Z</time>
      </trkpt>
      <trkpt lat="47.64378" lon="4.37219">
        <ele>327.6</ele>
        <time>2026-05-20T09:06:55Z</time>
      </trkpt>
      <trkpt lat="47.64379" lon="4.37215">
        <ele>327.6</ele>
        <time>2026-05-20T09:06:56Z</time>
      </trkpt>
      <trkpt lat="47.64382" lon="4.37212">
        <ele>327.8</ele>
        <time>2026-05-20T09:06:57Z</time>
      </trkpt>
      <trkpt lat="47.64383" lon="4.37209">
        <ele>328</ele>
        <time>2026-05-20T09:06:58Z</time>
      </trkpt>
      <trkpt lat="47.64384" lon="4.37205">
        <ele>328</ele>
        <time>2026-05-20T09:06:59Z</time>
      </trkpt>
      <trkpt lat="47.64387" lon="4.37201">
        <ele>328.2</ele>
        <time>2026-05-20T09:07:00Z</time>
      </trkpt>
      <trkpt lat="47.64389" lon="4.37197">
        <ele>328.4</ele>
        <time>2026-05-20T09:07:01Z</time>
      </trkpt>
      <trkpt lat="47.6439" lon="4.37194">
        <ele>328.4</ele>
        <time>2026-05-20T09:07:02Z</time>
      </trkpt>
      <trkpt lat="47.64391" lon="4.37191">
        <ele>328.6</ele>
        <time>2026-05-20T09:07:03Z</time>
      </trkpt>
      <trkpt lat="47.64392" lon="4.37187">
        <ele>329</ele>
        <time>2026-05-20T09:07:04Z</time>
      </trkpt>
      <trkpt lat="47.64394" lon="4.37182">
        <ele>329.2</ele>
        <time>2026-05-20T09:07:05Z</time>
      </trkpt>
      <trkpt lat="47.64395" lon="4.37179">
        <ele>329.4</ele>
        <time>2026-05-20T09:07:06Z</time>
      </trkpt>
      <trkpt lat="47.64397" lon="4.37176">
        <ele>329.6</ele>
        <time>2026-05-20T09:07:07Z</time>
      </trkpt>
      <trkpt lat="47.64397" lon="4.37174">
        <ele>329.6</ele>
        <time>2026-05-20T09:07:08Z</time>
      </trkpt>
      <trkpt lat="47.64398" lon="4.37172">
        <ele>329.8</ele>
        <time>2026-05-20T09:07:09Z</time>
      </trkpt>
      <trkpt lat="47.64399" lon="4.3717">
        <ele>329.8</ele>
        <time>2026-05-20T09:07:10Z</time>
      </trkpt>
      <trkpt lat="47.644" lon="4.37168">
        <ele>330</ele>
        <time>2026-05-20T09:07:11Z</time>
      </trkpt>
      <trkpt lat="47.64402" lon="4.37165">
        <ele>330</ele>
        <time>2026-05-20T09:07:12Z</time>
      </trkpt>
      <trkpt lat="47.64404" lon="4.3716">
        <ele>330</ele>
        <time>2026-05-20T09:07:13Z</time>
      </trkpt>
      <trkpt lat="47.64406" lon="4.37157">
        <ele>330.2</ele>
        <time>2026-05-20T09:07:14Z</time>
      </trkpt>
      <trkpt lat="47.64407" lon="4.37154">
        <ele>330.2</ele>
        <time>2026-05-20T09:07:15Z</time>
      </trkpt>
      <trkpt lat="47.64409" lon="4.3715">
        <ele>330.2</ele>
        <time>2026-05-20T09:07:16Z</time>
      </trkpt>
      <trkpt lat="47.6441" lon="4.37146">
        <ele>330.2</ele>
        <time>2026-05-20T09:07:17Z</time>
      </trkpt>
      <trkpt lat="47.64412" lon="4.37143">
        <ele>330.4</ele>
        <time>2026-05-20T09:07:18Z</time>
      </trkpt>
      <trkpt lat="47.64413" lon="4.3714">
        <ele>330.4</ele>
        <time>2026-05-20T09:07:19Z</time>
      </trkpt>
      <trkpt lat="47.64414" lon="4.37138">
        <ele>330.4</ele>
        <time>2026-05-20T09:07:20Z</time>
      </trkpt>
      <trkpt lat="47.64416" lon="4.37134">
        <ele>330.6</ele>
        <time>2026-05-20T09:07:21Z</time>
      </trkpt>
      <trkpt lat="47.64417" lon="4.3713">
        <ele>330.6</ele>
        <time>2026-05-20T09:07:22Z</time>
      </trkpt>
      <trkpt lat="47.64418" lon="4.37127">
        <ele>330.6</ele>
        <time>2026-05-20T09:07:23Z</time>
      </trkpt>
      <trkpt lat="47.6442" lon="4.37122">
        <ele>330.8</ele>
        <time>2026-05-20T09:07:24Z</time>
      </trkpt>
      <trkpt lat="47.64423" lon="4.37117">
        <ele>330.8</ele>
        <time>2026-05-20T09:07:25Z</time>
      </trkpt>
      <trkpt lat="47.64425" lon="4.37114">
        <ele>330.8</ele>
        <time>2026-05-20T09:07:26Z</time>
      </trkpt>
      <trkpt lat="47.64426" lon="4.3711">
        <ele>330.8</ele>
        <time>2026-05-20T09:07:27Z</time>
      </trkpt>
      <trkpt lat="47.64427" lon="4.37106">
        <ele>331</ele>
        <time>2026-05-20T09:07:28Z</time>
      </trkpt>
      <trkpt lat="47.64429" lon="4.37103">
        <ele>331</ele>
        <time>2026-05-20T09:07:29Z</time>
      </trkpt>
      <trkpt lat="47.64432" lon="4.37097">
        <ele>331</ele>
        <time>2026-05-20T09:07:30Z</time>
      </trkpt>
      <trkpt lat="47.64434" lon="4.37091">
        <ele>331</ele>
        <time>2026-05-20T09:07:31Z</time>
      </trkpt>
      <trkpt lat="47.64436" lon="4.37088">
        <ele>331</ele>
        <time>2026-05-20T09:07:32Z</time>
      </trkpt>
      <trkpt lat="47.64437" lon="4.37086">
        <ele>331</ele>
        <time>2026-05-20T09:07:33Z</time>
      </trkpt>
      <trkpt lat="47.64438" lon="4.37082">
        <ele>331</ele>
        <time>2026-05-20T09:07:34Z</time>
      </trkpt>
      <trkpt lat="47.64441" lon="4.37076">
        <ele>331</ele>
        <time>2026-05-20T09:07:35Z</time>
      </trkpt>
      <trkpt lat="47.64443" lon="4.3707">
        <ele>330.8</ele>
        <time>2026-05-20T09:07:36Z</time>
      </trkpt>
      <trkpt lat="47.64444" lon="4.37066">
        <ele>330.6</ele>
        <time>2026-05-20T09:07:37Z</time>
      </trkpt>
      <trkpt lat="47.64446" lon="4.3706">
        <ele>330.4</ele>
        <time>2026-05-20T09:07:38Z</time>
      </trkpt>
      <trkpt lat="47.64447" lon="4.37056">
        <ele>330.4</ele>
        <time>2026-05-20T09:07:39Z</time>
      </trkpt>
      <trkpt lat="47.64449" lon="4.37051">
        <ele>330.2</ele>
        <time>2026-05-20T09:07:40Z</time>
      </trkpt>
      <trkpt lat="47.64452" lon="4.37047">
        <ele>330</ele>
        <time>2026-05-20T09:07:41Z</time>
      </trkpt>
      <trkpt lat="47.64454" lon="4.37043">
        <ele>329.8</ele>
        <time>2026-05-20T09:07:42Z</time>
      </trkpt>
      <trkpt lat="47.64457" lon="4.37038">
        <ele>329.6</ele>
        <time>2026-05-20T09:07:43Z</time>
      </trkpt>
      <trkpt lat="47.64459" lon="4.37033">
        <ele>329.6</ele>
        <time>2026-05-20T09:07:44Z</time>
      </trkpt>
      <trkpt lat="47.64462" lon="4.37029">
        <ele>329.4</ele>
        <time>2026-05-20T09:07:45Z</time>
      </trkpt>
      <trkpt lat="47.64464" lon="4.37024">
        <ele>329.4</ele>
        <time>2026-05-20T09:07:46Z</time>
      </trkpt>
      <trkpt lat="47.64465" lon="4.3702">
        <ele>329.2</ele>
        <time>2026-05-20T09:07:47Z</time>
      </trkpt>
      <trkpt lat="47.64467" lon="4.37016">
        <ele>329.2</ele>
        <time>2026-05-20T09:07:48Z</time>
      </trkpt>
      <trkpt lat="47.64469" lon="4.3701">
        <ele>329</ele>
        <time>2026-05-20T09:07:49Z</time>
      </trkpt>
      <trkpt lat="47.6447" lon="4.37003">
        <ele>329</ele>
        <time>2026-05-20T09:07:50Z</time>
      </trkpt>
      <trkpt lat="47.64473" lon="4.36997">
        <ele>329</ele>
        <time>2026-05-20T09:07:51Z</time>
      </trkpt>
      <trkpt lat="47.64475" lon="4.36993">
        <ele>328.8</ele>
        <time>2026-05-20T09:07:52Z</time>
      </trkpt>
      <trkpt lat="47.64478" lon="4.36985">
        <ele>328.6</ele>
        <time>2026-05-20T09:07:53Z</time>
      </trkpt>
      <trkpt lat="47.64481" lon="4.36981">
        <ele>328.2</ele>
        <time>2026-05-20T09:07:54Z</time>
      </trkpt>
      <trkpt lat="47.64483" lon="4.36976">
        <ele>328.2</ele>
        <time>2026-05-20T09:07:55Z</time>
      </trkpt>
      <trkpt lat="47.64485" lon="4.36971">
        <ele>327.8</ele>
        <time>2026-05-20T09:07:56Z</time>
      </trkpt>
      <trkpt lat="47.64487" lon="4.36968">
        <ele>327.6</ele>
        <time>2026-05-20T09:07:57Z</time>
      </trkpt>
      <trkpt lat="47.64489" lon="4.36963">
        <ele>327.2</ele>
        <time>2026-05-20T09:07:58Z</time>
      </trkpt>
      <trkpt lat="47.64491" lon="4.36959">
        <ele>326.8</ele>
        <time>2026-05-20T09:07:59Z</time>
      </trkpt>
      <trkpt lat="47.64493" lon="4.36953">
        <ele>326.6</ele>
        <time>2026-05-20T09:08:00Z</time>
      </trkpt>
      <trkpt lat="47.64495" lon="4.36949">
        <ele>326.2</ele>
        <time>2026-05-20T09:08:01Z</time>
      </trkpt>
      <trkpt lat="47.64497" lon="4.36947">
        <ele>326.2</ele>
        <time>2026-05-20T09:08:02Z</time>
      </trkpt>
      <trkpt lat="47.645" lon="4.36941">
        <ele>325.8</ele>
        <time>2026-05-20T09:08:03Z</time>
      </trkpt>
      <trkpt lat="47.64502" lon="4.36933">
        <ele>325.6</ele>
        <time>2026-05-20T09:08:04Z</time>
      </trkpt>
      <trkpt lat="47.64505" lon="4.36926">
        <ele>325.2</ele>
        <time>2026-05-20T09:08:05Z</time>
      </trkpt>
      <trkpt lat="47.64507" lon="4.36921">
        <ele>324.8</ele>
        <time>2026-05-20T09:08:06Z</time>
      </trkpt>
      <trkpt lat="47.64509" lon="4.36916">
        <ele>324.4</ele>
        <time>2026-05-20T09:08:07Z</time>
      </trkpt>
      <trkpt lat="47.6451" lon="4.36912">
        <ele>324</ele>
        <time>2026-05-20T09:08:08Z</time>
      </trkpt>
      <trkpt lat="47.64511" lon="4.36909">
        <ele>323.4</ele>
        <time>2026-05-20T09:08:09Z</time>
      </trkpt>
      <trkpt lat="47.64512" lon="4.36905">
        <ele>322.4</ele>
        <time>2026-05-20T09:08:10Z</time>
      </trkpt>
      <trkpt lat="47.64512" lon="4.36902">
        <ele>322.2</ele>
        <time>2026-05-20T09:08:11Z</time>
      </trkpt>
      <trkpt lat="47.64512" lon="4.36896">
        <ele>322</ele>
        <time>2026-05-20T09:08:12Z</time>
      </trkpt>
      <trkpt lat="47.64511" lon="4.36891">
        <ele>321.8</ele>
        <time>2026-05-20T09:08:13Z</time>
      </trkpt>
      <trkpt lat="47.64509" lon="4.36886">
        <ele>321.6</ele>
        <time>2026-05-20T09:08:14Z</time>
      </trkpt>
      <trkpt lat="47.64507" lon="4.3688">
        <ele>321.4</ele>
        <time>2026-05-20T09:08:15Z</time>
      </trkpt>
      <trkpt lat="47.64505" lon="4.36876">
        <ele>321</ele>
        <time>2026-05-20T09:08:16Z</time>
      </trkpt>
      <trkpt lat="47.64504" lon="4.36872">
        <ele>320.6</ele>
        <time>2026-05-20T09:08:17Z</time>
      </trkpt>
      <trkpt lat="47.64502" lon="4.36867">
        <ele>320.6</ele>
        <time>2026-05-20T09:08:18Z</time>
      </trkpt>
      <trkpt lat="47.64501" lon="4.36863">
        <ele>320.2</ele>
        <time>2026-05-20T09:08:19Z</time>
      </trkpt>
      <trkpt lat="47.64499" lon="4.36859">
        <ele>320</ele>
        <time>2026-05-20T09:08:20Z</time>
      </trkpt>
      <trkpt lat="47.64497" lon="4.36856">
        <ele>319.8</ele>
        <time>2026-05-20T09:08:21Z</time>
      </trkpt>
      <trkpt lat="47.64495" lon="4.36852">
        <ele>319.6</ele>
        <time>2026-05-20T09:08:22Z</time>
      </trkpt>
      <trkpt lat="47.64493" lon="4.36846">
        <ele>318.4</ele>
        <time>2026-05-20T09:08:23Z</time>
      </trkpt>
      <trkpt lat="47.64491" lon="4.3684">
        <ele>318</ele>
        <time>2026-05-20T09:08:24Z</time>
      </trkpt>
      <trkpt lat="47.6449" lon="4.36833">
        <ele>317.6</ele>
        <time>2026-05-20T09:08:25Z</time>
      </trkpt>
      <trkpt lat="47.64488" lon="4.36828">
        <ele>317.4</ele>
        <time>2026-05-20T09:08:26Z</time>
      </trkpt>
      <trkpt lat="47.64487" lon="4.36824">
        <ele>317.2</ele>
        <time>2026-05-20T09:08:27Z</time>
      </trkpt>
      <trkpt lat="47.64483" lon="4.36819">
        <ele>316.8</ele>
        <time>2026-05-20T09:08:28Z</time>
      </trkpt>
      <trkpt lat="47.64479" lon="4.36814">
        <ele>316.6</ele>
        <time>2026-05-20T09:08:29Z</time>
      </trkpt>
      <trkpt lat="47.64475" lon="4.36809">
        <ele>315.8</ele>
        <time>2026-05-20T09:08:30Z</time>
      </trkpt>
      <trkpt lat="47.64472" lon="4.36804">
        <ele>315.6</ele>
        <time>2026-05-20T09:08:31Z</time>
      </trkpt>
      <trkpt lat="47.64469" lon="4.36799">
        <ele>315</ele>
        <time>2026-05-20T09:08:32Z</time>
      </trkpt>
      <trkpt lat="47.64467" lon="4.36793">
        <ele>314.8</ele>
        <time>2026-05-20T09:08:33Z</time>
      </trkpt>
      <trkpt lat="47.64463" lon="4.36789">
        <ele>314.2</ele>
        <time>2026-05-20T09:08:34Z</time>
      </trkpt>
      <trkpt lat="47.64459" lon="4.36786">
        <ele>313.8</ele>
        <time>2026-05-20T09:08:35Z</time>
      </trkpt>
      <trkpt lat="47.64455" lon="4.36783">
        <ele>313.4</ele>
        <time>2026-05-20T09:08:36Z</time>
      </trkpt>
      <trkpt lat="47.64451" lon="4.36779">
        <ele>313</ele>
        <time>2026-05-20T09:08:37Z</time>
      </trkpt>
      <trkpt lat="47.64448" lon="4.36775">
        <ele>312.6</ele>
        <time>2026-05-20T09:08:38Z</time>
      </trkpt>
      <trkpt lat="47.64443" lon="4.36771">
        <ele>312.2</ele>
        <time>2026-05-20T09:08:39Z</time>
      </trkpt>
      <trkpt lat="47.64438" lon="4.36769">
        <ele>312</ele>
        <time>2026-05-20T09:08:40Z</time>
      </trkpt>
      <trkpt lat="47.64433" lon="4.36767">
        <ele>311</ele>
        <time>2026-05-20T09:08:41Z</time>
      </trkpt>
      <trkpt lat="47.64429" lon="4.36763">
        <ele>310.6</ele>
        <time>2026-05-20T09:08:42Z</time>
      </trkpt>
      <trkpt lat="47.64425" lon="4.36758">
        <ele>310.2</ele>
        <time>2026-05-20T09:08:43Z</time>
      </trkpt>
      <trkpt lat="47.64422" lon="4.36752">
        <ele>310</ele>
        <time>2026-05-20T09:08:44Z</time>
      </trkpt>
      <trkpt lat="47.64418" lon="4.36746">
        <ele>309.8</ele>
        <time>2026-05-20T09:08:45Z</time>
      </trkpt>
      <trkpt lat="47.64414" lon="4.3674">
        <ele>309.4</ele>
        <time>2026-05-20T09:08:46Z</time>
      </trkpt>
      <trkpt lat="47.64409" lon="4.36735">
        <ele>309.4</ele>
        <time>2026-05-20T09:08:47Z</time>
      </trkpt>
      <trkpt lat="47.64405" lon="4.36731">
        <ele>309</ele>
        <time>2026-05-20T09:08:48Z</time>
      </trkpt>
      <trkpt lat="47.64401" lon="4.36728">
        <ele>309</ele>
        <time>2026-05-20T09:08:49Z</time>
      </trkpt>
      <trkpt lat="47.64397" lon="4.36726">
        <ele>308.6</ele>
        <time>2026-05-20T09:08:50Z</time>
      </trkpt>
      <trkpt lat="47.64395" lon="4.36724">
        <ele>308.2</ele>
        <time>2026-05-20T09:08:51Z</time>
      </trkpt>
      <trkpt lat="47.64392" lon="4.3672">
        <ele>307.8</ele>
        <time>2026-05-20T09:08:52Z</time>
      </trkpt>
      <trkpt lat="47.64391" lon="4.36718">
        <ele>307.6</ele>
        <time>2026-05-20T09:08:53Z</time>
      </trkpt>
      <trkpt lat="47.64389" lon="4.36714">
        <ele>307.4</ele>
        <time>2026-05-20T09:08:54Z</time>
      </trkpt>
      <trkpt lat="47.64388" lon="4.36712">
        <ele>307.2</ele>
        <time>2026-05-20T09:08:55Z</time>
      </trkpt>
      <trkpt lat="47.64386" lon="4.3671">
        <ele>307.2</ele>
        <time>2026-05-20T09:08:56Z</time>
      </trkpt>
      <trkpt lat="47.64385" lon="4.36708">
        <ele>307.2</ele>
        <time>2026-05-20T09:08:57Z</time>
      </trkpt>
      <trkpt lat="47.64383" lon="4.36707">
        <ele>307.2</ele>
        <time>2026-05-20T09:08:58Z</time>
      </trkpt>
      <trkpt lat="47.6438" lon="4.36706">
        <ele>307.2</ele>
        <time>2026-05-20T09:08:59Z</time>
      </trkpt>
      <trkpt lat="47.64378" lon="4.36705">
        <ele>307.2</ele>
        <time>2026-05-20T09:09:00Z</time>
      </trkpt>
      <trkpt lat="47.64376" lon="4.36705">
        <ele>307.4</ele>
        <time>2026-05-20T09:09:01Z</time>
      </trkpt>
      <trkpt lat="47.64375" lon="4.36703">
        <ele>307.4</ele>
        <time>2026-05-20T09:09:02Z</time>
      </trkpt>
      <trkpt lat="47.64373" lon="4.36701">
        <ele>307.6</ele>
        <time>2026-05-20T09:09:03Z</time>
      </trkpt>
      <trkpt lat="47.6437" lon="4.367">
        <ele>307.8</ele>
        <time>2026-05-20T09:09:04Z</time>
      </trkpt>
      <trkpt lat="47.64368" lon="4.36698">
        <ele>307.8</ele>
        <time>2026-05-20T09:09:05Z</time>
      </trkpt>
      <trkpt lat="47.64366" lon="4.36697">
        <ele>308</ele>
        <time>2026-05-20T09:09:06Z</time>
      </trkpt>
      <trkpt lat="47.64365" lon="4.36696">
        <ele>308</ele>
        <time>2026-05-20T09:09:07Z</time>
      </trkpt>
      <trkpt lat="47.64363" lon="4.36696">
        <ele>308.2</ele>
        <time>2026-05-20T09:09:08Z</time>
      </trkpt>
      <trkpt lat="47.64361" lon="4.36695">
        <ele>308.2</ele>
        <time>2026-05-20T09:09:09Z</time>
      </trkpt>
      <trkpt lat="47.64358" lon="4.36694">
        <ele>308.4</ele>
        <time>2026-05-20T09:09:10Z</time>
      </trkpt>
      <trkpt lat="47.64357" lon="4.36694">
        <ele>308.4</ele>
        <time>2026-05-20T09:09:11Z</time>
      </trkpt>
      <trkpt lat="47.64354" lon="4.36693">
        <ele>308.6</ele>
        <time>2026-05-20T09:09:12Z</time>
      </trkpt>
      <trkpt lat="47.64352" lon="4.36692">
        <ele>308.6</ele>
        <time>2026-05-20T09:09:13Z</time>
      </trkpt>
      <trkpt lat="47.64351" lon="4.36691">
        <ele>308.8</ele>
        <time>2026-05-20T09:09:14Z</time>
      </trkpt>
      <trkpt lat="47.64349" lon="4.3669">
        <ele>308.8</ele>
        <time>2026-05-20T09:09:15Z</time>
      </trkpt>
      <trkpt lat="47.64348" lon="4.3669">
        <ele>308.8</ele>
        <time>2026-05-20T09:09:16Z</time>
      </trkpt>
      <trkpt lat="47.64346" lon="4.36689">
        <ele>309</ele>
        <time>2026-05-20T09:09:17Z</time>
      </trkpt>
      <trkpt lat="47.64344" lon="4.36688">
        <ele>309.2</ele>
        <time>2026-05-20T09:09:18Z</time>
      </trkpt>
      <trkpt lat="47.64341" lon="4.36687">
        <ele>309.2</ele>
        <time>2026-05-20T09:09:19Z</time>
      </trkpt>
      <trkpt lat="47.64339" lon="4.36687">
        <ele>309.2</ele>
        <time>2026-05-20T09:09:20Z</time>
      </trkpt>
      <trkpt lat="47.64337" lon="4.36686">
        <ele>309.4</ele>
        <time>2026-05-20T09:09:21Z</time>
      </trkpt>
      <trkpt lat="47.64335" lon="4.36685">
        <ele>309.8</ele>
        <time>2026-05-20T09:09:22Z</time>
      </trkpt>
      <trkpt lat="47.64333" lon="4.36684">
        <ele>309.8</ele>
        <time>2026-05-20T09:09:23Z</time>
      </trkpt>
      <trkpt lat="47.64332" lon="4.36683">
        <ele>310.2</ele>
        <time>2026-05-20T09:09:24Z</time>
      </trkpt>
      <trkpt lat="47.64331" lon="4.36682">
        <ele>310.2</ele>
        <time>2026-05-20T09:09:25Z</time>
      </trkpt>
      <trkpt lat="47.6433" lon="4.36682">
        <ele>310.2</ele>
        <time>2026-05-20T09:09:26Z</time>
      </trkpt>
      <trkpt lat="47.64328" lon="4.36681">
        <ele>310.4</ele>
        <time>2026-05-20T09:09:27Z</time>
      </trkpt>
      <trkpt lat="47.64326" lon="4.3668">
        <ele>310.4</ele>
        <time>2026-05-20T09:09:28Z</time>
      </trkpt>
      <trkpt lat="47.64325" lon="4.36679">
        <ele>310.6</ele>
        <time>2026-05-20T09:09:29Z</time>
      </trkpt>
      <trkpt lat="47.64323" lon="4.36678">
        <ele>310.8</ele>
        <time>2026-05-20T09:09:30Z</time>
      </trkpt>
      <trkpt lat="47.64322" lon="4.36677">
        <ele>311</ele>
        <time>2026-05-20T09:09:31Z</time>
      </trkpt>
      <trkpt lat="47.64321" lon="4.36676">
        <ele>311.2</ele>
        <time>2026-05-20T09:09:32Z</time>
      </trkpt>
      <trkpt lat="47.6432" lon="4.36675">
        <ele>311.2</ele>
        <time>2026-05-20T09:09:33Z</time>
      </trkpt>
      <trkpt lat="47.64319" lon="4.36675">
        <ele>311.4</ele>
        <time>2026-05-20T09:09:34Z</time>
      </trkpt>
      <trkpt lat="47.64317" lon="4.36674">
        <ele>311.6</ele>
        <time>2026-05-20T09:09:35Z</time>
      </trkpt>
      <trkpt lat="47.64316" lon="4.36673">
        <ele>311.8</ele>
        <time>2026-05-20T09:09:36Z</time>
      </trkpt>
      <trkpt lat="47.64314" lon="4.36672">
        <ele>312</ele>
        <time>2026-05-20T09:09:37Z</time>
      </trkpt>
      <trkpt lat="47.64313" lon="4.36672">
        <ele>312.2</ele>
        <time>2026-05-20T09:09:38Z</time>
      </trkpt>
      <trkpt lat="47.64311" lon="4.36671">
        <ele>312.6</ele>
        <time>2026-05-20T09:09:39Z</time>
      </trkpt>
      <trkpt lat="47.64309" lon="4.36671">
        <ele>312.8</ele>
        <time>2026-05-20T09:09:40Z</time>
      </trkpt>
      <trkpt lat="47.64308" lon="4.36669">
        <ele>312.8</ele>
        <time>2026-05-20T09:09:41Z</time>
      </trkpt>
      <trkpt lat="47.64307" lon="4.36668">
        <ele>313</ele>
        <time>2026-05-20T09:09:42Z</time>
      </trkpt>
      <trkpt lat="47.64305" lon="4.36667">
        <ele>313.2</ele>
        <time>2026-05-20T09:09:43Z</time>
      </trkpt>
      <trkpt lat="47.64303" lon="4.36666">
        <ele>313.4</ele>
        <time>2026-05-20T09:09:44Z</time>
      </trkpt>
      <trkpt lat="47.64302" lon="4.36665">
        <ele>313.4</ele>
        <time>2026-05-20T09:09:45Z</time>
      </trkpt>
      <trkpt lat="47.64301" lon="4.36664">
        <ele>313.6</ele>
        <time>2026-05-20T09:09:46Z</time>
      </trkpt>
      <trkpt lat="47.64299" lon="4.36663">
        <ele>313.8</ele>
        <time>2026-05-20T09:09:47Z</time>
      </trkpt>
      <trkpt lat="47.64297" lon="4.36662">
        <ele>314</ele>
        <time>2026-05-20T09:09:48Z</time>
      </trkpt>
      <trkpt lat="47.64295" lon="4.36661">
        <ele>314.4</ele>
        <time>2026-05-20T09:09:49Z</time>
      </trkpt>
      <trkpt lat="47.64294" lon="4.3666">
        <ele>314.6</ele>
        <time>2026-05-20T09:09:50Z</time>
      </trkpt>
      <trkpt lat="47.64293" lon="4.36659">
        <ele>314.8</ele>
        <time>2026-05-20T09:09:51Z</time>
      </trkpt>
      <trkpt lat="47.64291" lon="4.36657">
        <ele>315</ele>
        <time>2026-05-20T09:09:52Z</time>
      </trkpt>
      <trkpt lat="47.64289" lon="4.36656">
        <ele>315.2</ele>
        <time>2026-05-20T09:09:53Z</time>
      </trkpt>
      <trkpt lat="47.64287" lon="4.36655">
        <ele>315.4</ele>
        <time>2026-05-20T09:09:54Z</time>
      </trkpt>
      <trkpt lat="47.64285" lon="4.36653">
        <ele>315.8</ele>
        <time>2026-05-20T09:09:55Z</time>
      </trkpt>
      <trkpt lat="47.64285" lon="4.36653">
        <ele>316</ele>
        <time>2026-05-20T09:09:56Z</time>
      </trkpt>
      <trkpt lat="47.64284" lon="4.36652">
        <ele>316.2</ele>
        <time>2026-05-20T09:09:57Z</time>
      </trkpt>
      <trkpt lat="47.64282" lon="4.3665">
        <ele>316.2</ele>
        <time>2026-05-20T09:09:58Z</time>
      </trkpt>
      <trkpt lat="47.64282" lon="4.3665">
        <ele>316.2</ele>
        <time>2026-05-20T09:09:59Z</time>
      </trkpt>
      <trkpt lat="47.64281" lon="4.36648">
        <ele>316.4</ele>
        <time>2026-05-20T09:10:00Z</time>
      </trkpt>
      <trkpt lat="47.64278" lon="4.36647">
        <ele>316.6</ele>
        <time>2026-05-20T09:10:01Z</time>
      </trkpt>
      <trkpt lat="47.64276" lon="4.36645">
        <ele>316.6</ele>
        <time>2026-05-20T09:10:02Z</time>
      </trkpt>
      <trkpt lat="47.64274" lon="4.36644">
        <ele>316.8</ele>
        <time>2026-05-20T09:10:03Z</time>
      </trkpt>
      <trkpt lat="47.64273" lon="4.36643">
        <ele>317.2</ele>
        <time>2026-05-20T09:10:04Z</time>
      </trkpt>
      <trkpt lat="47.64271" lon="4.36641">
        <ele>317.2</ele>
        <time>2026-05-20T09:10:05Z</time>
      </trkpt>
      <trkpt lat="47.6427" lon="4.3664">
        <ele>317.4</ele>
        <time>2026-05-20T09:10:06Z</time>
      </trkpt>
      <trkpt lat="47.64268" lon="4.36639">
        <ele>318</ele>
        <time>2026-05-20T09:10:07Z</time>
      </trkpt>
      <trkpt lat="47.64264" lon="4.36636">
        <ele>318</ele>
        <time>2026-05-20T09:10:08Z</time>
      </trkpt>
      <trkpt lat="47.64263" lon="4.36634">
        <ele>318.2</ele>
        <time>2026-05-20T09:10:09Z</time>
      </trkpt>
      <trkpt lat="47.64262" lon="4.36632">
        <ele>318.4</ele>
        <time>2026-05-20T09:10:10Z</time>
      </trkpt>
      <trkpt lat="47.64261" lon="4.36631">
        <ele>318.6</ele>
        <time>2026-05-20T09:10:11Z</time>
      </trkpt>
      <trkpt lat="47.6426" lon="4.3663">
        <ele>318.6</ele>
        <time>2026-05-20T09:10:12Z</time>
      </trkpt>
      <trkpt lat="47.64259" lon="4.36629">
        <ele>318.6</ele>
        <time>2026-05-20T09:10:13Z</time>
      </trkpt>
      <trkpt lat="47.64258" lon="4.36628">
        <ele>318.8</ele>
        <time>2026-05-20T09:10:14Z</time>
      </trkpt>
      <trkpt lat="47.64257" lon="4.36626">
        <ele>319.2</ele>
        <time>2026-05-20T09:10:15Z</time>
      </trkpt>
      <trkpt lat="47.64256" lon="4.36624">
        <ele>319.4</ele>
        <time>2026-05-20T09:10:16Z</time>
      </trkpt>
      <trkpt lat="47.64254" lon="4.36622">
        <ele>319.4</ele>
        <time>2026-05-20T09:10:17Z</time>
      </trkpt>
      <trkpt lat="47.64253" lon="4.3662">
        <ele>319.6</ele>
        <time>2026-05-20T09:10:18Z</time>
      </trkpt>
      <trkpt lat="47.64252" lon="4.36618">
        <ele>319.8</ele>
        <time>2026-05-20T09:10:19Z</time>
      </trkpt>
      <trkpt lat="47.64251" lon="4.36617">
        <ele>319.8</ele>
        <time>2026-05-20T09:10:20Z</time>
      </trkpt>
      <trkpt lat="47.6425" lon="4.36615">
        <ele>319.8</ele>
        <time>2026-05-20T09:10:21Z</time>
      </trkpt>
      <trkpt lat="47.64249" lon="4.36613">
        <ele>320</ele>
        <time>2026-05-20T09:10:22Z</time>
      </trkpt>
      <trkpt lat="47.64248" lon="4.3661">
        <ele>320</ele>
        <time>2026-05-20T09:10:23Z</time>
      </trkpt>
      <trkpt lat="47.64247" lon="4.36608">
        <ele>320</ele>
        <time>2026-05-20T09:10:24Z</time>
      </trkpt>
      <trkpt lat="47.64246" lon="4.36607">
        <ele>320</ele>
        <time>2026-05-20T09:10:25Z</time>
      </trkpt>
      <trkpt lat="47.64245" lon="4.36604">
        <ele>320.2</ele>
        <time>2026-05-20T09:10:26Z</time>
      </trkpt>
      <trkpt lat="47.64244" lon="4.36602">
        <ele>320.2</ele>
        <time>2026-05-20T09:10:27Z</time>
      </trkpt>
      <trkpt lat="47.64243" lon="4.36599">
        <ele>320.2</ele>
        <time>2026-05-20T09:10:28Z</time>
      </trkpt>
      <trkpt lat="47.64242" lon="4.36597">
        <ele>320.2</ele>
        <time>2026-05-20T09:10:29Z</time>
      </trkpt>
      <trkpt lat="47.64242" lon="4.36595">
        <ele>320.2</ele>
        <time>2026-05-20T09:10:30Z</time>
      </trkpt>
      <trkpt lat="47.64241" lon="4.36593">
        <ele>320.2</ele>
        <time>2026-05-20T09:10:31Z</time>
      </trkpt>
      <trkpt lat="47.64241" lon="4.36591">
        <ele>320.2</ele>
        <time>2026-05-20T09:10:32Z</time>
      </trkpt>
      <trkpt lat="47.6424" lon="4.36588">
        <ele>320.4</ele>
        <time>2026-05-20T09:10:33Z</time>
      </trkpt>
      <trkpt lat="47.6424" lon="4.36586">
        <ele>320.4</ele>
        <time>2026-05-20T09:10:34Z</time>
      </trkpt>
      <trkpt lat="47.64239" lon="4.36584">
        <ele>320.4</ele>
        <time>2026-05-20T09:10:35Z</time>
      </trkpt>
      <trkpt lat="47.64238" lon="4.36583">
        <ele>320.8</ele>
        <time>2026-05-20T09:10:36Z</time>
      </trkpt>
      <trkpt lat="47.64237" lon="4.36582">
        <ele>320.8</ele>
        <time>2026-05-20T09:10:37Z</time>
      </trkpt>
      <trkpt lat="47.64235" lon="4.3658">
        <ele>320.6</ele>
        <time>2026-05-20T09:10:38Z</time>
      </trkpt>
      <trkpt lat="47.64232" lon="4.36579">
        <ele>320.8</ele>
        <time>2026-05-20T09:10:39Z</time>
      </trkpt>
      <trkpt lat="47.6423" lon="4.36578">
        <ele>320.8</ele>
        <time>2026-05-20T09:10:40Z</time>
      </trkpt>
      <trkpt lat="47.64226" lon="4.36577">
        <ele>320.8</ele>
        <time>2026-05-20T09:10:41Z</time>
      </trkpt>
      <trkpt lat="47.64223" lon="4.36575">
        <ele>320.8</ele>
        <time>2026-05-20T09:10:42Z</time>
      </trkpt>
      <trkpt lat="47.64218" lon="4.36572">
        <ele>320.8</ele>
        <time>2026-05-20T09:10:43Z</time>
      </trkpt>
      <trkpt lat="47.64214" lon="4.3657">
        <ele>320.8</ele>
        <time>2026-05-20T09:10:44Z</time>
      </trkpt>
      <trkpt lat="47.64211" lon="4.36569">
        <ele>320.8</ele>
        <time>2026-05-20T09:10:45Z</time>
      </trkpt>
      <trkpt lat="47.64206" lon="4.36567">
        <ele>320.8</ele>
        <time>2026-05-20T09:10:46Z</time>
      </trkpt>
      <trkpt lat="47.64201" lon="4.36565">
        <ele>320.4</ele>
        <time>2026-05-20T09:10:47Z</time>
      </trkpt>
      <trkpt lat="47.64195" lon="4.36563">
        <ele>320.4</ele>
        <time>2026-05-20T09:10:48Z</time>
      </trkpt>
      <trkpt lat="47.6419" lon="4.36561">
        <ele>319.8</ele>
        <time>2026-05-20T09:10:49Z</time>
      </trkpt>
      <trkpt lat="47.64185" lon="4.36559">
        <ele>319.6</ele>
        <time>2026-05-20T09:10:50Z</time>
      </trkpt>
      <trkpt lat="47.6418" lon="4.36558">
        <ele>319.4</ele>
        <time>2026-05-20T09:10:51Z</time>
      </trkpt>
      <trkpt lat="47.64175" lon="4.36557">
        <ele>319.2</ele>
        <time>2026-05-20T09:10:52Z</time>
      </trkpt>
      <trkpt lat="47.64168" lon="4.36555">
        <ele>318.8</ele>
        <time>2026-05-20T09:10:53Z</time>
      </trkpt>
      <trkpt lat="47.64162" lon="4.36553">
        <ele>318.6</ele>
        <time>2026-05-20T09:10:54Z</time>
      </trkpt>
      <trkpt lat="47.64157" lon="4.36551">
        <ele>318.4</ele>
        <time>2026-05-20T09:10:55Z</time>
      </trkpt>
      <trkpt lat="47.64152" lon="4.3655">
        <ele>318.2</ele>
        <time>2026-05-20T09:10:56Z</time>
      </trkpt>
      <trkpt lat="47.64147" lon="4.36548">
        <ele>318</ele>
        <time>2026-05-20T09:10:57Z</time>
      </trkpt>
      <trkpt lat="47.6414" lon="4.36547">
        <ele>318</ele>
        <time>2026-05-20T09:10:58Z</time>
      </trkpt>
      <trkpt lat="47.64135" lon="4.36545">
        <ele>317.8</ele>
        <time>2026-05-20T09:10:59Z</time>
      </trkpt>
      <trkpt lat="47.6413" lon="4.36544">
        <ele>317.6</ele>
        <time>2026-05-20T09:11:00Z</time>
      </trkpt>
      <trkpt lat="47.64126" lon="4.36543">
        <ele>317.4</ele>
        <time>2026-05-20T09:11:01Z</time>
      </trkpt>
      <trkpt lat="47.64119" lon="4.36541">
        <ele>317</ele>
        <time>2026-05-20T09:11:02Z</time>
      </trkpt>
      <trkpt lat="47.64114" lon="4.36539">
        <ele>316.8</ele>
        <time>2026-05-20T09:11:03Z</time>
      </trkpt>
      <trkpt lat="47.64108" lon="4.36538">
        <ele>316.6</ele>
        <time>2026-05-20T09:11:04Z</time>
      </trkpt>
      <trkpt lat="47.64103" lon="4.36536">
        <ele>316.4</ele>
        <time>2026-05-20T09:11:05Z</time>
      </trkpt>
      <trkpt lat="47.64097" lon="4.36534">
        <ele>316.2</ele>
        <time>2026-05-20T09:11:06Z</time>
      </trkpt>
      <trkpt lat="47.64091" lon="4.36532">
        <ele>316</ele>
        <time>2026-05-20T09:11:07Z</time>
      </trkpt>
      <trkpt lat="47.64086" lon="4.3653">
        <ele>315.8</ele>
        <time>2026-05-20T09:11:08Z</time>
      </trkpt>
      <trkpt lat="47.6408" lon="4.36528">
        <ele>315.6</ele>
        <time>2026-05-20T09:11:09Z</time>
      </trkpt>
      <trkpt lat="47.64075" lon="4.36525">
        <ele>315.4</ele>
        <time>2026-05-20T09:11:10Z</time>
      </trkpt>
      <trkpt lat="47.6407" lon="4.36524">
        <ele>315.4</ele>
        <time>2026-05-20T09:11:11Z</time>
      </trkpt>
      <trkpt lat="47.64064" lon="4.36522">
        <ele>315.2</ele>
        <time>2026-05-20T09:11:12Z</time>
      </trkpt>
      <trkpt lat="47.64059" lon="4.3652">
        <ele>315.2</ele>
        <time>2026-05-20T09:11:13Z</time>
      </trkpt>
      <trkpt lat="47.64052" lon="4.36517">
        <ele>315</ele>
        <time>2026-05-20T09:11:14Z</time>
      </trkpt>
      <trkpt lat="47.64046" lon="4.36514">
        <ele>315</ele>
        <time>2026-05-20T09:11:15Z</time>
      </trkpt>
      <trkpt lat="47.64042" lon="4.36513">
        <ele>314.4</ele>
        <time>2026-05-20T09:11:16Z</time>
      </trkpt>
      <trkpt lat="47.64036" lon="4.36511">
        <ele>314.2</ele>
        <time>2026-05-20T09:11:17Z</time>
      </trkpt>
      <trkpt lat="47.6403" lon="4.36509">
        <ele>314</ele>
        <time>2026-05-20T09:11:18Z</time>
      </trkpt>
      <trkpt lat="47.64023" lon="4.36507">
        <ele>314</ele>
        <time>2026-05-20T09:11:19Z</time>
      </trkpt>
      <trkpt lat="47.64018" lon="4.36505">
        <ele>313.8</ele>
        <time>2026-05-20T09:11:20Z</time>
      </trkpt>
      <trkpt lat="47.64012" lon="4.36503">
        <ele>313.6</ele>
        <time>2026-05-20T09:11:21Z</time>
      </trkpt>
      <trkpt lat="47.64007" lon="4.36501">
        <ele>313.6</ele>
        <time>2026-05-20T09:11:22Z</time>
      </trkpt>
      <trkpt lat="47.64002" lon="4.36499">
        <ele>313.4</ele>
        <time>2026-05-20T09:11:23Z</time>
      </trkpt>
      <trkpt lat="47.63995" lon="4.36497">
        <ele>313</ele>
        <time>2026-05-20T09:11:24Z</time>
      </trkpt>
      <trkpt lat="47.6399" lon="4.36495">
        <ele>312.6</ele>
        <time>2026-05-20T09:11:25Z</time>
      </trkpt>
      <trkpt lat="47.63984" lon="4.36494">
        <ele>312.6</ele>
        <time>2026-05-20T09:11:26Z</time>
      </trkpt>
      <trkpt lat="47.63979" lon="4.36493">
        <ele>312.4</ele>
        <time>2026-05-20T09:11:27Z</time>
      </trkpt>
      <trkpt lat="47.63974" lon="4.36491">
        <ele>312.2</ele>
        <time>2026-05-20T09:11:28Z</time>
      </trkpt>
      <trkpt lat="47.63968" lon="4.36489">
        <ele>311.8</ele>
        <time>2026-05-20T09:11:29Z</time>
      </trkpt>
      <trkpt lat="47.63961" lon="4.36487">
        <ele>311.4</ele>
        <time>2026-05-20T09:11:30Z</time>
      </trkpt>
      <trkpt lat="47.63955" lon="4.36485">
        <ele>311.2</ele>
        <time>2026-05-20T09:11:31Z</time>
      </trkpt>
      <trkpt lat="47.63951" lon="4.36483">
        <ele>311</ele>
        <time>2026-05-20T09:11:32Z</time>
      </trkpt>
      <trkpt lat="47.63945" lon="4.36481">
        <ele>311</ele>
        <time>2026-05-20T09:11:33Z</time>
      </trkpt>
      <trkpt lat="47.63939" lon="4.36479">
        <ele>311</ele>
        <time>2026-05-20T09:11:34Z</time>
      </trkpt>
      <trkpt lat="47.63932" lon="4.36477">
        <ele>310.8</ele>
        <time>2026-05-20T09:11:35Z</time>
      </trkpt>
      <trkpt lat="47.63926" lon="4.36475">
        <ele>310.8</ele>
        <time>2026-05-20T09:11:36Z</time>
      </trkpt>
      <trkpt lat="47.63919" lon="4.36473">
        <ele>310.8</ele>
        <time>2026-05-20T09:11:37Z</time>
      </trkpt>
      <trkpt lat="47.63915" lon="4.36472">
        <ele>310.6</ele>
        <time>2026-05-20T09:11:38Z</time>
      </trkpt>
      <trkpt lat="47.63908" lon="4.3647">
        <ele>310.4</ele>
        <time>2026-05-20T09:11:39Z</time>
      </trkpt>
      <trkpt lat="47.63901" lon="4.36467">
        <ele>310.2</ele>
        <time>2026-05-20T09:11:40Z</time>
      </trkpt>
      <trkpt lat="47.63895" lon="4.36466">
        <ele>309.2</ele>
        <time>2026-05-20T09:11:41Z</time>
      </trkpt>
      <trkpt lat="47.63888" lon="4.36464">
        <ele>309</ele>
        <time>2026-05-20T09:11:42Z</time>
      </trkpt>
      <trkpt lat="47.63883" lon="4.36462">
        <ele>308.6</ele>
        <time>2026-05-20T09:11:43Z</time>
      </trkpt>
      <trkpt lat="47.63876" lon="4.3646">
        <ele>308.2</ele>
        <time>2026-05-20T09:11:44Z</time>
      </trkpt>
      <trkpt lat="47.6387" lon="4.36459">
        <ele>307.8</ele>
        <time>2026-05-20T09:11:45Z</time>
      </trkpt>
      <trkpt lat="47.63862" lon="4.36457">
        <ele>307.2</ele>
        <time>2026-05-20T09:11:46Z</time>
      </trkpt>
      <trkpt lat="47.63855" lon="4.36455">
        <ele>306.2</ele>
        <time>2026-05-20T09:11:47Z</time>
      </trkpt>
      <trkpt lat="47.63849" lon="4.36453">
        <ele>305.8</ele>
        <time>2026-05-20T09:11:48Z</time>
      </trkpt>
      <trkpt lat="47.63842" lon="4.36451">
        <ele>305</ele>
        <time>2026-05-20T09:11:49Z</time>
      </trkpt>
      <trkpt lat="47.63835" lon="4.3645">
        <ele>304.4</ele>
        <time>2026-05-20T09:11:50Z</time>
      </trkpt>
      <trkpt lat="47.63827" lon="4.36447">
        <ele>304</ele>
        <time>2026-05-20T09:11:51Z</time>
      </trkpt>
      <trkpt lat="47.6382" lon="4.36444">
        <ele>303.6</ele>
        <time>2026-05-20T09:11:52Z</time>
      </trkpt>
      <trkpt lat="47.63813" lon="4.36441">
        <ele>303</ele>
        <time>2026-05-20T09:11:53Z</time>
      </trkpt>
      <trkpt lat="47.63808" lon="4.36438">
        <ele>301.8</ele>
        <time>2026-05-20T09:11:54Z</time>
      </trkpt>
      <trkpt lat="47.63802" lon="4.36433">
        <ele>301.4</ele>
        <time>2026-05-20T09:11:55Z</time>
      </trkpt>
      <trkpt lat="47.63795" lon="4.36427">
        <ele>300.8</ele>
        <time>2026-05-20T09:11:56Z</time>
      </trkpt>
      <trkpt lat="47.6379" lon="4.36421">
        <ele>300.6</ele>
        <time>2026-05-20T09:11:57Z</time>
      </trkpt>
      <trkpt lat="47.63785" lon="4.36414">
        <ele>300.2</ele>
        <time>2026-05-20T09:11:58Z</time>
      </trkpt>
      <trkpt lat="47.63782" lon="4.36408">
        <ele>299.6</ele>
        <time>2026-05-20T09:11:59Z</time>
      </trkpt>
      <trkpt lat="47.63778" lon="4.364">
        <ele>299.4</ele>
        <time>2026-05-20T09:12:00Z</time>
      </trkpt>
      <trkpt lat="47.63774" lon="4.3639">
        <ele>299</ele>
        <time>2026-05-20T09:12:01Z</time>
      </trkpt>
      <trkpt lat="47.63772" lon="4.36381">
        <ele>298.8</ele>
        <time>2026-05-20T09:12:02Z</time>
      </trkpt>
      <trkpt lat="47.63769" lon="4.36373">
        <ele>298.2</ele>
        <time>2026-05-20T09:12:03Z</time>
      </trkpt>
      <trkpt lat="47.63768" lon="4.36366">
        <ele>297.8</ele>
        <time>2026-05-20T09:12:04Z</time>
      </trkpt>
      <trkpt lat="47.63766" lon="4.36358">
        <ele>297.4</ele>
        <time>2026-05-20T09:12:05Z</time>
      </trkpt>
      <trkpt lat="47.63763" lon="4.3635">
        <ele>297.2</ele>
        <time>2026-05-20T09:12:06Z</time>
      </trkpt>
      <trkpt lat="47.63761" lon="4.3634">
        <ele>297</ele>
        <time>2026-05-20T09:12:07Z</time>
      </trkpt>
      <trkpt lat="47.6376" lon="4.36331">
        <ele>296.8</ele>
        <time>2026-05-20T09:12:08Z</time>
      </trkpt>
      <trkpt lat="47.63758" lon="4.36323">
        <ele>296.6</ele>
        <time>2026-05-20T09:12:09Z</time>
      </trkpt>
      <trkpt lat="47.63757" lon="4.36316">
        <ele>296.2</ele>
        <time>2026-05-20T09:12:10Z</time>
      </trkpt>
      <trkpt lat="47.63754" lon="4.36308">
        <ele>296.2</ele>
        <time>2026-05-20T09:12:11Z</time>
      </trkpt>
      <trkpt lat="47.63752" lon="4.36299">
        <ele>296</ele>
        <time>2026-05-20T09:12:12Z</time>
      </trkpt>
      <trkpt lat="47.63751" lon="4.36291">
        <ele>295.8</ele>
        <time>2026-05-20T09:12:13Z</time>
      </trkpt>
      <trkpt lat="47.63749" lon="4.36283">
        <ele>295.6</ele>
        <time>2026-05-20T09:12:14Z</time>
      </trkpt>
      <trkpt lat="47.63748" lon="4.36276">
        <ele>295.6</ele>
        <time>2026-05-20T09:12:15Z</time>
      </trkpt>
      <trkpt lat="47.63747" lon="4.36267">
        <ele>295.2</ele>
        <time>2026-05-20T09:12:16Z</time>
      </trkpt>
      <trkpt lat="47.63746" lon="4.36256">
        <ele>295</ele>
        <time>2026-05-20T09:12:17Z</time>
      </trkpt>
      <trkpt lat="47.63744" lon="4.36248">
        <ele>295</ele>
        <time>2026-05-20T09:12:18Z</time>
      </trkpt>
      <trkpt lat="47.63743" lon="4.36239">
        <ele>294.8</ele>
        <time>2026-05-20T09:12:19Z</time>
      </trkpt>
      <trkpt lat="47.63741" lon="4.36232">
        <ele>294.6</ele>
        <time>2026-05-20T09:12:20Z</time>
      </trkpt>
      <trkpt lat="47.63739" lon="4.36223">
        <ele>294.2</ele>
        <time>2026-05-20T09:12:21Z</time>
      </trkpt>
      <trkpt lat="47.63737" lon="4.36214">
        <ele>294</ele>
        <time>2026-05-20T09:12:22Z</time>
      </trkpt>
      <trkpt lat="47.63735" lon="4.36203">
        <ele>293.4</ele>
        <time>2026-05-20T09:12:23Z</time>
      </trkpt>
      <trkpt lat="47.63733" lon="4.36194">
        <ele>293.2</ele>
        <time>2026-05-20T09:12:24Z</time>
      </trkpt>
      <trkpt lat="47.63732" lon="4.36185">
        <ele>293</ele>
        <time>2026-05-20T09:12:25Z</time>
      </trkpt>
      <trkpt lat="47.6373" lon="4.36175">
        <ele>292.8</ele>
        <time>2026-05-20T09:12:26Z</time>
      </trkpt>
      <trkpt lat="47.63729" lon="4.36165">
        <ele>292.8</ele>
        <time>2026-05-20T09:12:27Z</time>
      </trkpt>
      <trkpt lat="47.63726" lon="4.36153">
        <ele>292.4</ele>
        <time>2026-05-20T09:12:28Z</time>
      </trkpt>
      <trkpt lat="47.63725" lon="4.36143">
        <ele>292.4</ele>
        <time>2026-05-20T09:12:29Z</time>
      </trkpt>
      <trkpt lat="47.63723" lon="4.36132">
        <ele>291.8</ele>
        <time>2026-05-20T09:12:30Z</time>
      </trkpt>
      <trkpt lat="47.63721" lon="4.36124">
        <ele>291.6</ele>
        <time>2026-05-20T09:12:31Z</time>
      </trkpt>
      <trkpt lat="47.63719" lon="4.36113">
        <ele>290.8</ele>
        <time>2026-05-20T09:12:32Z</time>
      </trkpt>
      <trkpt lat="47.63715" lon="4.36102">
        <ele>290.6</ele>
        <time>2026-05-20T09:12:33Z</time>
      </trkpt>
      <trkpt lat="47.63712" lon="4.36094">
        <ele>290.2</ele>
        <time>2026-05-20T09:12:34Z</time>
      </trkpt>
      <trkpt lat="47.63707" lon="4.36086">
        <ele>290</ele>
        <time>2026-05-20T09:12:35Z</time>
      </trkpt>
      <trkpt lat="47.63702" lon="4.36082">
        <ele>289.4</ele>
        <time>2026-05-20T09:12:36Z</time>
      </trkpt>
      <trkpt lat="47.63696" lon="4.36079">
        <ele>288.8</ele>
        <time>2026-05-20T09:12:37Z</time>
      </trkpt>
      <trkpt lat="47.63687" lon="4.36079">
        <ele>288.2</ele>
        <time>2026-05-20T09:12:38Z</time>
      </trkpt>
      <trkpt lat="47.6368" lon="4.3608">
        <ele>287.4</ele>
        <time>2026-05-20T09:12:39Z</time>
      </trkpt>
      <trkpt lat="47.63674" lon="4.36083">
        <ele>287.2</ele>
        <time>2026-05-20T09:12:40Z</time>
      </trkpt>
      <trkpt lat="47.63668" lon="4.36085">
        <ele>286.2</ele>
        <time>2026-05-20T09:12:41Z</time>
      </trkpt>
      <trkpt lat="47.63662" lon="4.36089">
        <ele>285.8</ele>
        <time>2026-05-20T09:12:42Z</time>
      </trkpt>
      <trkpt lat="47.63654" lon="4.36092">
        <ele>284.8</ele>
        <time>2026-05-20T09:12:43Z</time>
      </trkpt>
      <trkpt lat="47.63648" lon="4.36096">
        <ele>284.6</ele>
        <time>2026-05-20T09:12:44Z</time>
      </trkpt>
      <trkpt lat="47.63642" lon="4.361">
        <ele>283.8</ele>
        <time>2026-05-20T09:12:45Z</time>
      </trkpt>
      <trkpt lat="47.63637" lon="4.36102">
        <ele>283</ele>
        <time>2026-05-20T09:12:46Z</time>
      </trkpt>
      <trkpt lat="47.6363" lon="4.36106">
        <ele>282.6</ele>
        <time>2026-05-20T09:12:47Z</time>
      </trkpt>
      <trkpt lat="47.63624" lon="4.36109">
        <ele>281.8</ele>
        <time>2026-05-20T09:12:48Z</time>
      </trkpt>
      <trkpt lat="47.63618" lon="4.36112">
        <ele>281.4</ele>
        <time>2026-05-20T09:12:49Z</time>
      </trkpt>
      <trkpt lat="47.63612" lon="4.36116">
        <ele>280.6</ele>
        <time>2026-05-20T09:12:50Z</time>
      </trkpt>
      <trkpt lat="47.63606" lon="4.3612">
        <ele>280.2</ele>
        <time>2026-05-20T09:12:51Z</time>
      </trkpt>
      <trkpt lat="47.636" lon="4.36124">
        <ele>279.4</ele>
        <time>2026-05-20T09:12:52Z</time>
      </trkpt>
      <trkpt lat="47.63594" lon="4.3613">
        <ele>279</ele>
        <time>2026-05-20T09:12:53Z</time>
      </trkpt>
      <trkpt lat="47.63587" lon="4.36136">
        <ele>278</ele>
        <time>2026-05-20T09:12:54Z</time>
      </trkpt>
      <trkpt lat="47.63581" lon="4.36142">
        <ele>276.8</ele>
        <time>2026-05-20T09:12:55Z</time>
      </trkpt>
      <trkpt lat="47.63574" lon="4.36148">
        <ele>276.4</ele>
        <time>2026-05-20T09:12:56Z</time>
      </trkpt>
      <trkpt lat="47.63568" lon="4.36154">
        <ele>275.6</ele>
        <time>2026-05-20T09:12:57Z</time>
      </trkpt>
      <trkpt lat="47.63562" lon="4.36162">
        <ele>275.2</ele>
        <time>2026-05-20T09:12:58Z</time>
      </trkpt>
      <trkpt lat="47.63556" lon="4.36169">
        <ele>274.2</ele>
        <time>2026-05-20T09:12:59Z</time>
      </trkpt>
      <trkpt lat="47.63551" lon="4.36177">
        <ele>273.6</ele>
        <time>2026-05-20T09:13:00Z</time>
      </trkpt>
      <trkpt lat="47.63545" lon="4.36186">
        <ele>272.8</ele>
        <time>2026-05-20T09:13:01Z</time>
      </trkpt>
      <trkpt lat="47.6354" lon="4.36196">
        <ele>272.2</ele>
        <time>2026-05-20T09:13:02Z</time>
      </trkpt>
      <trkpt lat="47.63536" lon="4.36206">
        <ele>271.6</ele>
        <time>2026-05-20T09:13:03Z</time>
      </trkpt>
      <trkpt lat="47.63531" lon="4.36217">
        <ele>270.2</ele>
        <time>2026-05-20T09:13:04Z</time>
      </trkpt>
      <trkpt lat="47.63528" lon="4.36227">
        <ele>269.6</ele>
        <time>2026-05-20T09:13:05Z</time>
      </trkpt>
      <trkpt lat="47.63525" lon="4.36237">
        <ele>268.8</ele>
        <time>2026-05-20T09:13:06Z</time>
      </trkpt>
      <trkpt lat="47.63521" lon="4.36247">
        <ele>268.4</ele>
        <time>2026-05-20T09:13:07Z</time>
      </trkpt>
      <trkpt lat="47.63517" lon="4.36257">
        <ele>267.2</ele>
        <time>2026-05-20T09:13:08Z</time>
      </trkpt>
      <trkpt lat="47.63513" lon="4.36267">
        <ele>266.6</ele>
        <time>2026-05-20T09:13:09Z</time>
      </trkpt>
      <trkpt lat="47.63509" lon="4.36276">
        <ele>265.6</ele>
        <time>2026-05-20T09:13:10Z</time>
      </trkpt>
      <trkpt lat="47.63505" lon="4.36285">
        <ele>265</ele>
        <time>2026-05-20T09:13:11Z</time>
      </trkpt>
      <trkpt lat="47.63502" lon="4.36295">
        <ele>264.4</ele>
        <time>2026-05-20T09:13:12Z</time>
      </trkpt>
      <trkpt lat="47.63498" lon="4.36305">
        <ele>263.4</ele>
        <time>2026-05-20T09:13:13Z</time>
      </trkpt>
      <trkpt lat="47.63495" lon="4.36314">
        <ele>262.8</ele>
        <time>2026-05-20T09:13:14Z</time>
      </trkpt>
      <trkpt lat="47.63491" lon="4.36323">
        <ele>262</ele>
        <time>2026-05-20T09:13:15Z</time>
      </trkpt>
      <trkpt lat="47.63487" lon="4.3633">
        <ele>261.6</ele>
        <time>2026-05-20T09:13:16Z</time>
      </trkpt>
      <trkpt lat="47.63481" lon="4.36337">
        <ele>260.6</ele>
        <time>2026-05-20T09:13:17Z</time>
      </trkpt>
      <trkpt lat="47.63475" lon="4.36343">
        <ele>260</ele>
        <time>2026-05-20T09:13:18Z</time>
      </trkpt>
      <trkpt lat="47.63468" lon="4.36348">
        <ele>258.8</ele>
        <time>2026-05-20T09:13:19Z</time>
      </trkpt>
      <trkpt lat="47.63461" lon="4.36351">
        <ele>258.4</ele>
        <time>2026-05-20T09:13:20Z</time>
      </trkpt>
      <trkpt lat="47.63455" lon="4.36354">
        <ele>257.8</ele>
        <time>2026-05-20T09:13:21Z</time>
      </trkpt>
      <trkpt lat="47.63449" lon="4.36356">
        <ele>257.2</ele>
        <time>2026-05-20T09:13:22Z</time>
      </trkpt>
      <trkpt lat="47.63443" lon="4.36359">
        <ele>255.8</ele>
        <time>2026-05-20T09:13:23Z</time>
      </trkpt>
      <trkpt lat="47.63438" lon="4.36362">
        <ele>255</ele>
        <time>2026-05-20T09:13:24Z</time>
      </trkpt>
      <trkpt lat="47.63432" lon="4.36363">
        <ele>254.4</ele>
        <time>2026-05-20T09:13:25Z</time>
      </trkpt>
      <trkpt lat="47.63426" lon="4.36364">
        <ele>253.4</ele>
        <time>2026-05-20T09:13:26Z</time>
      </trkpt>
      <trkpt lat="47.63422" lon="4.36365">
        <ele>253.2</ele>
        <time>2026-05-20T09:13:27Z</time>
      </trkpt>
      <trkpt lat="47.63418" lon="4.36366">
        <ele>252.6</ele>
        <time>2026-05-20T09:13:28Z</time>
      </trkpt>
      <trkpt lat="47.63415" lon="4.36367">
        <ele>252.4</ele>
        <time>2026-05-20T09:13:29Z</time>
      </trkpt>
      <trkpt lat="47.63413" lon="4.36367">
        <ele>252</ele>
        <time>2026-05-20T09:13:30Z</time>
      </trkpt>
      <trkpt lat="47.63412" lon="4.36366">
        <ele>251.8</ele>
        <time>2026-05-20T09:13:31Z</time>
      </trkpt>
      <trkpt lat="47.63411" lon="4.36364">
        <ele>251.2</ele>
        <time>2026-05-20T09:13:32Z</time>
      </trkpt>
      <trkpt lat="47.6341" lon="4.36363">
        <ele>250.2</ele>
        <time>2026-05-20T09:13:33Z</time>
      </trkpt>
      <trkpt lat="47.63409" lon="4.36362">
        <ele>249.8</ele>
        <time>2026-05-20T09:13:34Z</time>
      </trkpt>
      <trkpt lat="47.63409" lon="4.36361">
        <ele>249.4</ele>
        <time>2026-05-20T09:13:35Z</time>
      </trkpt>
      <trkpt lat="47.63408" lon="4.36361">
        <ele>249.4</ele>
        <time>2026-05-20T09:13:36Z</time>
      </trkpt>
      <trkpt lat="47.63408" lon="4.36361">
        <ele>249.2</ele>
        <time>2026-05-20T09:13:37Z</time>
      </trkpt>
      <trkpt lat="47.63407" lon="4.36361">
        <ele>249.2</ele>
        <time>2026-05-20T09:13:38Z</time>
      </trkpt>
      <trkpt lat="47.63407" lon="4.3636">
        <ele>249.2</ele>
        <time>2026-05-20T09:13:39Z</time>
      </trkpt>
      <trkpt lat="47.63406" lon="4.3636">
        <ele>249.2</ele>
        <time>2026-05-20T09:13:40Z</time>
      </trkpt>
      <trkpt lat="47.63406" lon="4.3636">
        <ele>249.2</ele>
        <time>2026-05-20T09:13:41Z</time>
      </trkpt>
      <trkpt lat="47.63406" lon="4.36359">
        <ele>249.2</ele>
        <time>2026-05-20T09:13:42Z</time>
      </trkpt>
      <trkpt lat="47.63404" lon="4.36359">
        <ele>249.2</ele>
        <time>2026-05-20T09:13:43Z</time>
      </trkpt>
      <trkpt lat="47.63402" lon="4.36359">
        <ele>249.4</ele>
        <time>2026-05-20T09:13:44Z</time>
      </trkpt>
      <trkpt lat="47.63401" lon="4.36359">
        <ele>249.4</ele>
        <time>2026-05-20T09:13:45Z</time>
      </trkpt>
      <trkpt lat="47.63399" lon="4.36359">
        <ele>249.8</ele>
        <time>2026-05-20T09:13:46Z</time>
      </trkpt>
      <trkpt lat="47.63397" lon="4.36359">
        <ele>249.8</ele>
        <time>2026-05-20T09:13:47Z</time>
      </trkpt>
      <trkpt lat="47.63395" lon="4.36359">
        <ele>250</ele>
        <time>2026-05-20T09:13:48Z</time>
      </trkpt>
      <trkpt lat="47.63393" lon="4.36358">
        <ele>250.2</ele>
        <time>2026-05-20T09:13:49Z</time>
      </trkpt>
      <trkpt lat="47.63392" lon="4.36358">
        <ele>250.4</ele>
        <time>2026-05-20T09:13:50Z</time>
      </trkpt>
      <trkpt lat="47.6339" lon="4.36359">
        <ele>250.6</ele>
        <time>2026-05-20T09:13:51Z</time>
      </trkpt>
      <trkpt lat="47.63388" lon="4.36359">
        <ele>250.6</ele>
        <time>2026-05-20T09:13:52Z</time>
      </trkpt>
      <trkpt lat="47.63387" lon="4.36359">
        <ele>250.8</ele>
        <time>2026-05-20T09:13:53Z</time>
      </trkpt>
      <trkpt lat="47.63385" lon="4.36359">
        <ele>251</ele>
        <time>2026-05-20T09:13:54Z</time>
      </trkpt>
      <trkpt lat="47.63383" lon="4.36359">
        <ele>251.2</ele>
        <time>2026-05-20T09:13:55Z</time>
      </trkpt>
      <trkpt lat="47.63381" lon="4.3636">
        <ele>251.4</ele>
        <time>2026-05-20T09:13:56Z</time>
      </trkpt>
      <trkpt lat="47.6338" lon="4.36361">
        <ele>251.6</ele>
        <time>2026-05-20T09:13:57Z</time>
      </trkpt>
      <trkpt lat="47.63378" lon="4.36361">
        <ele>251.8</ele>
        <time>2026-05-20T09:13:58Z</time>
      </trkpt>
      <trkpt lat="47.63376" lon="4.3636">
        <ele>252.2</ele>
        <time>2026-05-20T09:13:59Z</time>
      </trkpt>
      <trkpt lat="47.63375" lon="4.3636">
        <ele>252.6</ele>
        <time>2026-05-20T09:14:00Z</time>
      </trkpt>
      <trkpt lat="47.63373" lon="4.36361">
        <ele>252.6</ele>
        <time>2026-05-20T09:14:01Z</time>
      </trkpt>
      <trkpt lat="47.63371" lon="4.36361">
        <ele>253</ele>
        <time>2026-05-20T09:14:02Z</time>
      </trkpt>
      <trkpt lat="47.63368" lon="4.36362">
        <ele>253.2</ele>
        <time>2026-05-20T09:14:03Z</time>
      </trkpt>
      <trkpt lat="47.63364" lon="4.36363">
        <ele>253.4</ele>
        <time>2026-05-20T09:14:04Z</time>
      </trkpt>
      <trkpt lat="47.6336" lon="4.36363">
        <ele>253.4</ele>
        <time>2026-05-20T09:14:05Z</time>
      </trkpt>
      <trkpt lat="47.63358" lon="4.36364">
        <ele>253.8</ele>
        <time>2026-05-20T09:14:06Z</time>
      </trkpt>
      <trkpt lat="47.63356" lon="4.36365">
        <ele>254</ele>
        <time>2026-05-20T09:14:07Z</time>
      </trkpt>
      <trkpt lat="47.63354" lon="4.36366">
        <ele>254.4</ele>
        <time>2026-05-20T09:14:08Z</time>
      </trkpt>
      <trkpt lat="47.63351" lon="4.36367">
        <ele>254.4</ele>
        <time>2026-05-20T09:14:09Z</time>
      </trkpt>
      <trkpt lat="47.6335" lon="4.36369">
        <ele>254.6</ele>
        <time>2026-05-20T09:14:10Z</time>
      </trkpt>
      <trkpt lat="47.63347" lon="4.3637">
        <ele>254.6</ele>
        <time>2026-05-20T09:14:11Z</time>
      </trkpt>
      <trkpt lat="47.63345" lon="4.36372">
        <ele>254.6</ele>
        <time>2026-05-20T09:14:12Z</time>
      </trkpt>
      <trkpt lat="47.63343" lon="4.36375">
        <ele>254.6</ele>
        <time>2026-05-20T09:14:13Z</time>
      </trkpt>
      <trkpt lat="47.63339" lon="4.36376">
        <ele>254.6</ele>
        <time>2026-05-20T09:14:14Z</time>
      </trkpt>
      <trkpt lat="47.63336" lon="4.36375">
        <ele>254.6</ele>
        <time>2026-05-20T09:14:15Z</time>
      </trkpt>
      <trkpt lat="47.63334" lon="4.36375">
        <ele>254.6</ele>
        <time>2026-05-20T09:14:16Z</time>
      </trkpt>
      <trkpt lat="47.63332" lon="4.36376">
        <ele>254.4</ele>
        <time>2026-05-20T09:14:17Z</time>
      </trkpt>
      <trkpt lat="47.6333" lon="4.36377">
        <ele>254.4</ele>
        <time>2026-05-20T09:14:18Z</time>
      </trkpt>
      <trkpt lat="47.63326" lon="4.36378">
        <ele>254.2</ele>
        <time>2026-05-20T09:14:19Z</time>
      </trkpt>
      <trkpt lat="47.63324" lon="4.36378">
        <ele>254.2</ele>
        <time>2026-05-20T09:14:20Z</time>
      </trkpt>
      <trkpt lat="47.63321" lon="4.36378">
        <ele>254.2</ele>
        <time>2026-05-20T09:14:21Z</time>
      </trkpt>
      <trkpt lat="47.63319" lon="4.3638">
        <ele>254.2</ele>
        <time>2026-05-20T09:14:22Z</time>
      </trkpt>
      <trkpt lat="47.63316" lon="4.36379">
        <ele>254.4</ele>
        <time>2026-05-20T09:14:23Z</time>
      </trkpt>
      <trkpt lat="47.63312" lon="4.36379">
        <ele>254.4</ele>
        <time>2026-05-20T09:14:24Z</time>
      </trkpt>
      <trkpt lat="47.63308" lon="4.36381">
        <ele>254.4</ele>
        <time>2026-05-20T09:14:25Z</time>
      </trkpt>
      <trkpt lat="47.63304" lon="4.36382">
        <ele>254.4</ele>
        <time>2026-05-20T09:14:26Z</time>
      </trkpt>
      <trkpt lat="47.63302" lon="4.36383">
        <ele>254.4</ele>
        <time>2026-05-20T09:14:27Z</time>
      </trkpt>
      <trkpt lat="47.633" lon="4.36384">
        <ele>254.6</ele>
        <time>2026-05-20T09:14:28Z</time>
      </trkpt>
      <trkpt lat="47.63298" lon="4.36385">
        <ele>254.6</ele>
        <time>2026-05-20T09:14:29Z</time>
      </trkpt>
      <trkpt lat="47.63296" lon="4.36384">
        <ele>254.6</ele>
        <time>2026-05-20T09:14:30Z</time>
      </trkpt>
      <trkpt lat="47.63295" lon="4.36383">
        <ele>254.8</ele>
        <time>2026-05-20T09:14:31Z</time>
      </trkpt>
      <trkpt lat="47.63293" lon="4.36384">
        <ele>254.8</ele>
        <time>2026-05-20T09:14:32Z</time>
      </trkpt>
      <trkpt lat="47.6329" lon="4.36387">
        <ele>255</ele>
        <time>2026-05-20T09:14:33Z</time>
      </trkpt>
      <trkpt lat="47.63288" lon="4.36387">
        <ele>255</ele>
        <time>2026-05-20T09:14:34Z</time>
      </trkpt>
      <trkpt lat="47.63287" lon="4.36388">
        <ele>255.2</ele>
        <time>2026-05-20T09:14:35Z</time>
      </trkpt>
      <trkpt lat="47.63285" lon="4.36387">
        <ele>255.2</ele>
        <time>2026-05-20T09:14:36Z</time>
      </trkpt>
      <trkpt lat="47.63283" lon="4.36386">
        <ele>255.4</ele>
        <time>2026-05-20T09:14:37Z</time>
      </trkpt>
      <trkpt lat="47.63282" lon="4.36385">
        <ele>255.6</ele>
        <time>2026-05-20T09:14:38Z</time>
      </trkpt>
      <trkpt lat="47.63279" lon="4.36386">
        <ele>255.8</ele>
        <time>2026-05-20T09:14:39Z</time>
      </trkpt>
      <trkpt lat="47.63278" lon="4.36386">
        <ele>255.8</ele>
        <time>2026-05-20T09:14:40Z</time>
      </trkpt>
      <trkpt lat="47.63277" lon="4.36385">
        <ele>255.8</ele>
        <time>2026-05-20T09:14:41Z</time>
      </trkpt>
      <trkpt lat="47.63276" lon="4.36384">
        <ele>256</ele>
        <time>2026-05-20T09:14:42Z</time>
      </trkpt>
      <trkpt lat="47.63275" lon="4.36385">
        <ele>256</ele>
        <time>2026-05-20T09:14:43Z</time>
      </trkpt>
      <trkpt lat="47.63273" lon="4.36385">
        <ele>256</ele>
        <time>2026-05-20T09:14:44Z</time>
      </trkpt>
      <trkpt lat="47.63272" lon="4.36385">
        <ele>256.2</ele>
        <time>2026-05-20T09:14:45Z</time>
      </trkpt>
      <trkpt lat="47.63271" lon="4.36385">
        <ele>256.4</ele>
        <time>2026-05-20T09:14:46Z</time>
      </trkpt>
      <trkpt lat="47.63269" lon="4.36385">
        <ele>256.6</ele>
        <time>2026-05-20T09:14:47Z</time>
      </trkpt>
      <trkpt lat="47.63268" lon="4.36386">
        <ele>256.6</ele>
        <time>2026-05-20T09:14:48Z</time>
      </trkpt>
      <trkpt lat="47.63266" lon="4.36387">
        <ele>256.8</ele>
        <time>2026-05-20T09:14:49Z</time>
      </trkpt>
      <trkpt lat="47.63264" lon="4.36388">
        <ele>257</ele>
        <time>2026-05-20T09:14:50Z</time>
      </trkpt>
      <trkpt lat="47.63262" lon="4.36388">
        <ele>257.2</ele>
        <time>2026-05-20T09:14:51Z</time>
      </trkpt>
      <trkpt lat="47.6326" lon="4.36388">
        <ele>257.4</ele>
        <time>2026-05-20T09:14:52Z</time>
      </trkpt>
      <trkpt lat="47.63257" lon="4.36388">
        <ele>257.6</ele>
        <time>2026-05-20T09:14:53Z</time>
      </trkpt>
      <trkpt lat="47.63254" lon="4.36388">
        <ele>257.8</ele>
        <time>2026-05-20T09:14:54Z</time>
      </trkpt>
      <trkpt lat="47.63252" lon="4.36388">
        <ele>257.8</ele>
        <time>2026-05-20T09:14:55Z</time>
      </trkpt>
      <trkpt lat="47.6325" lon="4.36388">
        <ele>258</ele>
        <time>2026-05-20T09:14:56Z</time>
      </trkpt>
      <trkpt lat="47.63248" lon="4.36388">
        <ele>258</ele>
        <time>2026-05-20T09:14:57Z</time>
      </trkpt>
      <trkpt lat="47.63245" lon="4.36387">
        <ele>258.4</ele>
        <time>2026-05-20T09:14:58Z</time>
      </trkpt>
      <trkpt lat="47.63244" lon="4.36386">
        <ele>258.6</ele>
        <time>2026-05-20T09:14:59Z</time>
      </trkpt>
      <trkpt lat="47.63242" lon="4.36387">
        <ele>259</ele>
        <time>2026-05-20T09:15:00Z</time>
      </trkpt>
      <trkpt lat="47.63241" lon="4.36386">
        <ele>259.2</ele>
        <time>2026-05-20T09:15:01Z</time>
      </trkpt>
      <trkpt lat="47.63238" lon="4.36387">
        <ele>259.4</ele>
        <time>2026-05-20T09:15:02Z</time>
      </trkpt>
      <trkpt lat="47.63236" lon="4.36387">
        <ele>259.4</ele>
        <time>2026-05-20T09:15:03Z</time>
      </trkpt>
      <trkpt lat="47.63234" lon="4.36387">
        <ele>259.4</ele>
        <time>2026-05-20T09:15:04Z</time>
      </trkpt>
      <trkpt lat="47.63232" lon="4.36387">
        <ele>259.6</ele>
        <time>2026-05-20T09:15:05Z</time>
      </trkpt>
      <trkpt lat="47.6323" lon="4.36388">
        <ele>260</ele>
        <time>2026-05-20T09:15:06Z</time>
      </trkpt>
      <trkpt lat="47.63227" lon="4.36386">
        <ele>260.2</ele>
        <time>2026-05-20T09:15:07Z</time>
      </trkpt>
      <trkpt lat="47.63224" lon="4.36387">
        <ele>260.4</ele>
        <time>2026-05-20T09:15:08Z</time>
      </trkpt>
      <trkpt lat="47.63221" lon="4.36388">
        <ele>260.6</ele>
        <time>2026-05-20T09:15:09Z</time>
      </trkpt>
      <trkpt lat="47.63219" lon="4.36388">
        <ele>260.6</ele>
        <time>2026-05-20T09:15:10Z</time>
      </trkpt>
      <trkpt lat="47.63217" lon="4.36389">
        <ele>260.8</ele>
        <time>2026-05-20T09:15:11Z</time>
      </trkpt>
      <trkpt lat="47.63215" lon="4.36389">
        <ele>260.8</ele>
        <time>2026-05-20T09:15:12Z</time>
      </trkpt>
      <trkpt lat="47.63213" lon="4.36389">
        <ele>261</ele>
        <time>2026-05-20T09:15:13Z</time>
      </trkpt>
      <trkpt lat="47.63212" lon="4.36389">
        <ele>261.2</ele>
        <time>2026-05-20T09:15:14Z</time>
      </trkpt>
      <trkpt lat="47.63211" lon="4.3639">
        <ele>261.4</ele>
        <time>2026-05-20T09:15:15Z</time>
      </trkpt>
      <trkpt lat="47.63209" lon="4.36391">
        <ele>261.6</ele>
        <time>2026-05-20T09:15:16Z</time>
      </trkpt>
      <trkpt lat="47.63206" lon="4.36392">
        <ele>261.8</ele>
        <time>2026-05-20T09:15:17Z</time>
      </trkpt>
      <trkpt lat="47.63203" lon="4.36393">
        <ele>262</ele>
        <time>2026-05-20T09:15:18Z</time>
      </trkpt>
      <trkpt lat="47.63202" lon="4.36393">
        <ele>262</ele>
        <time>2026-05-20T09:15:19Z</time>
      </trkpt>
      <trkpt lat="47.63202" lon="4.36392">
        <ele>262.2</ele>
        <time>2026-05-20T09:15:20Z</time>
      </trkpt>
      <trkpt lat="47.632" lon="4.36391">
        <ele>262.4</ele>
        <time>2026-05-20T09:15:21Z</time>
      </trkpt>
      <trkpt lat="47.63198" lon="4.3639">
        <ele>262.6</ele>
        <time>2026-05-20T09:15:22Z</time>
      </trkpt>
      <trkpt lat="47.63196" lon="4.3639">
        <ele>262.6</ele>
        <time>2026-05-20T09:15:23Z</time>
      </trkpt>
      <trkpt lat="47.63194" lon="4.3639">
        <ele>262.8</ele>
        <time>2026-05-20T09:15:24Z</time>
      </trkpt>
      <trkpt lat="47.63193" lon="4.36391">
        <ele>263</ele>
        <time>2026-05-20T09:15:25Z</time>
      </trkpt>
      <trkpt lat="47.63189" lon="4.36394">
        <ele>263.2</ele>
        <time>2026-05-20T09:15:26Z</time>
      </trkpt>
      <trkpt lat="47.63187" lon="4.36394">
        <ele>263.4</ele>
        <time>2026-05-20T09:15:27Z</time>
      </trkpt>
      <trkpt lat="47.63185" lon="4.36395">
        <ele>263.4</ele>
        <time>2026-05-20T09:15:28Z</time>
      </trkpt>
      <trkpt lat="47.63183" lon="4.36395">
        <ele>263.6</ele>
        <time>2026-05-20T09:15:29Z</time>
      </trkpt>
      <trkpt lat="47.63181" lon="4.36396">
        <ele>263.8</ele>
        <time>2026-05-20T09:15:30Z</time>
      </trkpt>
      <trkpt lat="47.6318" lon="4.36396">
        <ele>263.8</ele>
        <time>2026-05-20T09:15:31Z</time>
      </trkpt>
      <trkpt lat="47.63178" lon="4.36397">
        <ele>263.8</ele>
        <time>2026-05-20T09:15:32Z</time>
      </trkpt>
      <trkpt lat="47.63176" lon="4.36399">
        <ele>264</ele>
        <time>2026-05-20T09:15:33Z</time>
      </trkpt>
      <trkpt lat="47.63173" lon="4.364">
        <ele>264</ele>
        <time>2026-05-20T09:15:34Z</time>
      </trkpt>
      <trkpt lat="47.63172" lon="4.364">
        <ele>264.2</ele>
        <time>2026-05-20T09:15:35Z</time>
      </trkpt>
      <trkpt lat="47.63169" lon="4.364">
        <ele>264.6</ele>
        <time>2026-05-20T09:15:36Z</time>
      </trkpt>
      <trkpt lat="47.63166" lon="4.36398">
        <ele>264.6</ele>
        <time>2026-05-20T09:15:37Z</time>
      </trkpt>
      <trkpt lat="47.63164" lon="4.36398">
        <ele>264.8</ele>
        <time>2026-05-20T09:15:38Z</time>
      </trkpt>
      <trkpt lat="47.63162" lon="4.36398">
        <ele>264.8</ele>
        <time>2026-05-20T09:15:39Z</time>
      </trkpt>
      <trkpt lat="47.63161" lon="4.36396">
        <ele>265</ele>
        <time>2026-05-20T09:15:40Z</time>
      </trkpt>
      <trkpt lat="47.63159" lon="4.36396">
        <ele>265</ele>
        <time>2026-05-20T09:15:41Z</time>
      </trkpt>
      <trkpt lat="47.63157" lon="4.36395">
        <ele>265</ele>
        <time>2026-05-20T09:15:42Z</time>
      </trkpt>
      <trkpt lat="47.63156" lon="4.36394">
        <ele>265.2</ele>
        <time>2026-05-20T09:15:43Z</time>
      </trkpt>
      <trkpt lat="47.63154" lon="4.36393">
        <ele>265.2</ele>
        <time>2026-05-20T09:15:44Z</time>
      </trkpt>
      <trkpt lat="47.63153" lon="4.36392">
        <ele>265.6</ele>
        <time>2026-05-20T09:15:45Z</time>
      </trkpt>
      <trkpt lat="47.63152" lon="4.36392">
        <ele>266</ele>
        <time>2026-05-20T09:15:46Z</time>
      </trkpt>
      <trkpt lat="47.63151" lon="4.3639">
        <ele>266</ele>
        <time>2026-05-20T09:15:47Z</time>
      </trkpt>
      <trkpt lat="47.6315" lon="4.3639">
        <ele>266.4</ele>
        <time>2026-05-20T09:15:48Z</time>
      </trkpt>
      <trkpt lat="47.63149" lon="4.36389">
        <ele>266.4</ele>
        <time>2026-05-20T09:15:49Z</time>
      </trkpt>
      <trkpt lat="47.63147" lon="4.36388">
        <ele>266.6</ele>
        <time>2026-05-20T09:15:50Z</time>
      </trkpt>
      <trkpt lat="47.63145" lon="4.36386">
        <ele>266.6</ele>
        <time>2026-05-20T09:15:51Z</time>
      </trkpt>
      <trkpt lat="47.63143" lon="4.36383">
        <ele>266.6</ele>
        <time>2026-05-20T09:15:52Z</time>
      </trkpt>
      <trkpt lat="47.63141" lon="4.36381">
        <ele>266.8</ele>
        <time>2026-05-20T09:15:53Z</time>
      </trkpt>
      <trkpt lat="47.6314" lon="4.36379">
        <ele>267</ele>
        <time>2026-05-20T09:15:54Z</time>
      </trkpt>
      <trkpt lat="47.63138" lon="4.36377">
        <ele>267</ele>
        <time>2026-05-20T09:15:55Z</time>
      </trkpt>
      <trkpt lat="47.63137" lon="4.36375">
        <ele>267.4</ele>
        <time>2026-05-20T09:15:56Z</time>
      </trkpt>
      <trkpt lat="47.63136" lon="4.36373">
        <ele>267.4</ele>
        <time>2026-05-20T09:15:57Z</time>
      </trkpt>
      <trkpt lat="47.63135" lon="4.36371">
        <ele>267.6</ele>
        <time>2026-05-20T09:15:58Z</time>
      </trkpt>
      <trkpt lat="47.63134" lon="4.36369">
        <ele>267.8</ele>
        <time>2026-05-20T09:15:59Z</time>
      </trkpt>
      <trkpt lat="47.63134" lon="4.36368">
        <ele>267.8</ele>
        <time>2026-05-20T09:16:00Z</time>
      </trkpt>
      <trkpt lat="47.63133" lon="4.36365">
        <ele>268</ele>
        <time>2026-05-20T09:16:01Z</time>
      </trkpt>
      <trkpt lat="47.63132" lon="4.36364">
        <ele>268</ele>
        <time>2026-05-20T09:16:02Z</time>
      </trkpt>
      <trkpt lat="47.6313" lon="4.36362">
        <ele>268.2</ele>
        <time>2026-05-20T09:16:03Z</time>
      </trkpt>
      <trkpt lat="47.63128" lon="4.3636">
        <ele>268.4</ele>
        <time>2026-05-20T09:16:04Z</time>
      </trkpt>
      <trkpt lat="47.63127" lon="4.36358">
        <ele>268.6</ele>
        <time>2026-05-20T09:16:05Z</time>
      </trkpt>
      <trkpt lat="47.63126" lon="4.36356">
        <ele>268.6</ele>
        <time>2026-05-20T09:16:06Z</time>
      </trkpt>
      <trkpt lat="47.63125" lon="4.36353">
        <ele>268.8</ele>
        <time>2026-05-20T09:16:07Z</time>
      </trkpt>
      <trkpt lat="47.63124" lon="4.3635">
        <ele>269</ele>
        <time>2026-05-20T09:16:08Z</time>
      </trkpt>
      <trkpt lat="47.63123" lon="4.36347">
        <ele>269.2</ele>
        <time>2026-05-20T09:16:09Z</time>
      </trkpt>
      <trkpt lat="47.63122" lon="4.36343">
        <ele>269.4</ele>
        <time>2026-05-20T09:16:10Z</time>
      </trkpt>
      <trkpt lat="47.6312" lon="4.3634">
        <ele>269.8</ele>
        <time>2026-05-20T09:16:11Z</time>
      </trkpt>
      <trkpt lat="47.6312" lon="4.36338">
        <ele>270</ele>
        <time>2026-05-20T09:16:12Z</time>
      </trkpt>
      <trkpt lat="47.63119" lon="4.36335">
        <ele>270</ele>
        <time>2026-05-20T09:16:13Z</time>
      </trkpt>
      <trkpt lat="47.63117" lon="4.36332">
        <ele>270.2</ele>
        <time>2026-05-20T09:16:14Z</time>
      </trkpt>
      <trkpt lat="47.63117" lon="4.36328">
        <ele>270.4</ele>
        <time>2026-05-20T09:16:15Z</time>
      </trkpt>
      <trkpt lat="47.63115" lon="4.36323">
        <ele>270.4</ele>
        <time>2026-05-20T09:16:16Z</time>
      </trkpt>
      <trkpt lat="47.63112" lon="4.36319">
        <ele>270.6</ele>
        <time>2026-05-20T09:16:17Z</time>
      </trkpt>
      <trkpt lat="47.63111" lon="4.36315">
        <ele>270.8</ele>
        <time>2026-05-20T09:16:18Z</time>
      </trkpt>
      <trkpt lat="47.6311" lon="4.36313">
        <ele>271</ele>
        <time>2026-05-20T09:16:19Z</time>
      </trkpt>
      <trkpt lat="47.6311" lon="4.36311">
        <ele>271.2</ele>
        <time>2026-05-20T09:16:20Z</time>
      </trkpt>
      <trkpt lat="47.63109" lon="4.36309">
        <ele>271.4</ele>
        <time>2026-05-20T09:16:21Z</time>
      </trkpt>
      <trkpt lat="47.63108" lon="4.36309">
        <ele>271.6</ele>
        <time>2026-05-20T09:16:22Z</time>
      </trkpt>
      <trkpt lat="47.63107" lon="4.36307">
        <ele>271.8</ele>
        <time>2026-05-20T09:16:23Z</time>
      </trkpt>
      <trkpt lat="47.63106" lon="4.36304">
        <ele>272</ele>
        <time>2026-05-20T09:16:24Z</time>
      </trkpt>
      <trkpt lat="47.63105" lon="4.36301">
        <ele>272.2</ele>
        <time>2026-05-20T09:16:25Z</time>
      </trkpt>
      <trkpt lat="47.63104" lon="4.36298">
        <ele>272.2</ele>
        <time>2026-05-20T09:16:26Z</time>
      </trkpt>
      <trkpt lat="47.63103" lon="4.36295">
        <ele>272.6</ele>
        <time>2026-05-20T09:16:27Z</time>
      </trkpt>
      <trkpt lat="47.63103" lon="4.36295">
        <ele>272.6</ele>
        <time>2026-05-20T09:16:28Z</time>
      </trkpt>
      <trkpt lat="47.63102" lon="4.36292">
        <ele>273</ele>
        <time>2026-05-20T09:16:29Z</time>
      </trkpt>
      <trkpt lat="47.63101" lon="4.3629">
        <ele>273.2</ele>
        <time>2026-05-20T09:16:30Z</time>
      </trkpt>
      <trkpt lat="47.631" lon="4.36288">
        <ele>273.4</ele>
        <time>2026-05-20T09:16:31Z</time>
      </trkpt>
      <trkpt lat="47.63099" lon="4.36285">
        <ele>273.8</ele>
        <time>2026-05-20T09:16:32Z</time>
      </trkpt>
      <trkpt lat="47.63098" lon="4.36283">
        <ele>274</ele>
        <time>2026-05-20T09:16:33Z</time>
      </trkpt>
      <trkpt lat="47.63098" lon="4.36281">
        <ele>274.2</ele>
        <time>2026-05-20T09:16:34Z</time>
      </trkpt>
      <trkpt lat="47.63098" lon="4.36279">
        <ele>274.4</ele>
        <time>2026-05-20T09:16:35Z</time>
      </trkpt>
      <trkpt lat="47.63098" lon="4.36276">
        <ele>274.6</ele>
        <time>2026-05-20T09:16:36Z</time>
      </trkpt>
      <trkpt lat="47.63097" lon="4.36274">
        <ele>274.8</ele>
        <time>2026-05-20T09:16:37Z</time>
      </trkpt>
      <trkpt lat="47.63097" lon="4.36271">
        <ele>275.2</ele>
        <time>2026-05-20T09:16:38Z</time>
      </trkpt>
      <trkpt lat="47.63097" lon="4.36268">
        <ele>275.4</ele>
        <time>2026-05-20T09:16:39Z</time>
      </trkpt>
      <trkpt lat="47.63096" lon="4.36266">
        <ele>275.6</ele>
        <time>2026-05-20T09:16:40Z</time>
      </trkpt>
      <trkpt lat="47.63096" lon="4.36264">
        <ele>276</ele>
        <time>2026-05-20T09:16:41Z</time>
      </trkpt>
      <trkpt lat="47.63095" lon="4.36262">
        <ele>276</ele>
        <time>2026-05-20T09:16:42Z</time>
      </trkpt>
      <trkpt lat="47.63095" lon="4.3626">
        <ele>276.2</ele>
        <time>2026-05-20T09:16:43Z</time>
      </trkpt>
      <trkpt lat="47.63095" lon="4.36257">
        <ele>276.4</ele>
        <time>2026-05-20T09:16:44Z</time>
      </trkpt>
      <trkpt lat="47.63094" lon="4.36254">
        <ele>276.6</ele>
        <time>2026-05-20T09:16:45Z</time>
      </trkpt>
      <trkpt lat="47.63092" lon="4.36252">
        <ele>276.6</ele>
        <time>2026-05-20T09:16:46Z</time>
      </trkpt>
      <trkpt lat="47.63091" lon="4.36249">
        <ele>277</ele>
        <time>2026-05-20T09:16:47Z</time>
      </trkpt>
      <trkpt lat="47.6309" lon="4.36247">
        <ele>277</ele>
        <time>2026-05-20T09:16:48Z</time>
      </trkpt>
      <trkpt lat="47.63089" lon="4.36245">
        <ele>277.2</ele>
        <time>2026-05-20T09:16:49Z</time>
      </trkpt>
      <trkpt lat="47.63089" lon="4.36243">
        <ele>277.2</ele>
        <time>2026-05-20T09:16:50Z</time>
      </trkpt>
      <trkpt lat="47.63089" lon="4.36241">
        <ele>277.4</ele>
        <time>2026-05-20T09:16:51Z</time>
      </trkpt>
      <trkpt lat="47.63089" lon="4.36239">
        <ele>277.6</ele>
        <time>2026-05-20T09:16:52Z</time>
      </trkpt>
      <trkpt lat="47.63091" lon="4.36235">
        <ele>277.6</ele>
        <time>2026-05-20T09:16:53Z</time>
      </trkpt>
      <trkpt lat="47.63091" lon="4.36232">
        <ele>277.8</ele>
        <time>2026-05-20T09:16:54Z</time>
      </trkpt>
      <trkpt lat="47.63091" lon="4.36229">
        <ele>278</ele>
        <time>2026-05-20T09:16:55Z</time>
      </trkpt>
      <trkpt lat="47.6309" lon="4.36227">
        <ele>278.8</ele>
        <time>2026-05-20T09:16:56Z</time>
      </trkpt>
      <trkpt lat="47.6309" lon="4.36224">
        <ele>279</ele>
        <time>2026-05-20T09:16:57Z</time>
      </trkpt>
      <trkpt lat="47.6309" lon="4.36222">
        <ele>279.4</ele>
        <time>2026-05-20T09:16:58Z</time>
      </trkpt>
      <trkpt lat="47.6309" lon="4.3622">
        <ele>279.8</ele>
        <time>2026-05-20T09:16:59Z</time>
      </trkpt>
      <trkpt lat="47.6309" lon="4.36218">
        <ele>280</ele>
        <time>2026-05-20T09:17:00Z</time>
      </trkpt>
      <trkpt lat="47.63089" lon="4.36216">
        <ele>280.4</ele>
        <time>2026-05-20T09:17:01Z</time>
      </trkpt>
      <trkpt lat="47.63089" lon="4.36214">
        <ele>280.6</ele>
        <time>2026-05-20T09:17:02Z</time>
      </trkpt>
      <trkpt lat="47.63088" lon="4.36212">
        <ele>280.8</ele>
        <time>2026-05-20T09:17:03Z</time>
      </trkpt>
      <trkpt lat="47.63088" lon="4.3621">
        <ele>280.8</ele>
        <time>2026-05-20T09:17:04Z</time>
      </trkpt>
      <trkpt lat="47.63088" lon="4.36208">
        <ele>281</ele>
        <time>2026-05-20T09:17:05Z</time>
      </trkpt>
      <trkpt lat="47.63088" lon="4.36206">
        <ele>281.2</ele>
        <time>2026-05-20T09:17:06Z</time>
      </trkpt>
      <trkpt lat="47.63087" lon="4.36204">
        <ele>281.6</ele>
        <time>2026-05-20T09:17:07Z</time>
      </trkpt>
      <trkpt lat="47.63087" lon="4.36202">
        <ele>281.8</ele>
        <time>2026-05-20T09:17:08Z</time>
      </trkpt>
      <trkpt lat="47.63087" lon="4.362">
        <ele>282</ele>
        <time>2026-05-20T09:17:09Z</time>
      </trkpt>
      <trkpt lat="47.63086" lon="4.36198">
        <ele>282.2</ele>
        <time>2026-05-20T09:17:10Z</time>
      </trkpt>
      <trkpt lat="47.63086" lon="4.36196">
        <ele>282.2</ele>
        <time>2026-05-20T09:17:11Z</time>
      </trkpt>
      <trkpt lat="47.63086" lon="4.36194">
        <ele>282.6</ele>
        <time>2026-05-20T09:17:12Z</time>
      </trkpt>
      <trkpt lat="47.63085" lon="4.36192">
        <ele>282.6</ele>
        <time>2026-05-20T09:17:13Z</time>
      </trkpt>
      <trkpt lat="47.63085" lon="4.3619">
        <ele>282.8</ele>
        <time>2026-05-20T09:17:14Z</time>
      </trkpt>
      <trkpt lat="47.63084" lon="4.36188">
        <ele>282.8</ele>
        <time>2026-05-20T09:17:15Z</time>
      </trkpt>
      <trkpt lat="47.63084" lon="4.36185">
        <ele>283</ele>
        <time>2026-05-20T09:17:16Z</time>
      </trkpt>
      <trkpt lat="47.63084" lon="4.36183">
        <ele>283.2</ele>
        <time>2026-05-20T09:17:17Z</time>
      </trkpt>
      <trkpt lat="47.63083" lon="4.36181">
        <ele>283.2</ele>
        <time>2026-05-20T09:17:18Z</time>
      </trkpt>
      <trkpt lat="47.63083" lon="4.36179">
        <ele>283.4</ele>
        <time>2026-05-20T09:17:19Z</time>
      </trkpt>
      <trkpt lat="47.63083" lon="4.36177">
        <ele>283.4</ele>
        <time>2026-05-20T09:17:20Z</time>
      </trkpt>
      <trkpt lat="47.63082" lon="4.36175">
        <ele>283.6</ele>
        <time>2026-05-20T09:17:21Z</time>
      </trkpt>
      <trkpt lat="47.63082" lon="4.36173">
        <ele>283.8</ele>
        <time>2026-05-20T09:17:22Z</time>
      </trkpt>
      <trkpt lat="47.63081" lon="4.3617">
        <ele>284</ele>
        <time>2026-05-20T09:17:23Z</time>
      </trkpt>
      <trkpt lat="47.6308" lon="4.36168">
        <ele>284.2</ele>
        <time>2026-05-20T09:17:24Z</time>
      </trkpt>
      <trkpt lat="47.6308" lon="4.36166">
        <ele>284.4</ele>
        <time>2026-05-20T09:17:25Z</time>
      </trkpt>
      <trkpt lat="47.63079" lon="4.36163">
        <ele>284.8</ele>
        <time>2026-05-20T09:17:26Z</time>
      </trkpt>
      <trkpt lat="47.63079" lon="4.36161">
        <ele>284.8</ele>
        <time>2026-05-20T09:17:27Z</time>
      </trkpt>
      <trkpt lat="47.63078" lon="4.36159">
        <ele>285.2</ele>
        <time>2026-05-20T09:17:28Z</time>
      </trkpt>
      <trkpt lat="47.63078" lon="4.36156">
        <ele>285.2</ele>
        <time>2026-05-20T09:17:29Z</time>
      </trkpt>
      <trkpt lat="47.63078" lon="4.36154">
        <ele>285.4</ele>
        <time>2026-05-20T09:17:30Z</time>
      </trkpt>
      <trkpt lat="47.63077" lon="4.36152">
        <ele>285.6</ele>
        <time>2026-05-20T09:17:31Z</time>
      </trkpt>
      <trkpt lat="47.63077" lon="4.3615">
        <ele>285.8</ele>
        <time>2026-05-20T09:17:32Z</time>
      </trkpt>
      <trkpt lat="47.63076" lon="4.36148">
        <ele>285.8</ele>
        <time>2026-05-20T09:17:33Z</time>
      </trkpt>
      <trkpt lat="47.63076" lon="4.36146">
        <ele>286</ele>
        <time>2026-05-20T09:17:34Z</time>
      </trkpt>
      <trkpt lat="47.63075" lon="4.36143">
        <ele>286.2</ele>
        <time>2026-05-20T09:17:35Z</time>
      </trkpt>
      <trkpt lat="47.63075" lon="4.36141">
        <ele>286.2</ele>
        <time>2026-05-20T09:17:36Z</time>
      </trkpt>
      <trkpt lat="47.63075" lon="4.36139">
        <ele>286.4</ele>
        <time>2026-05-20T09:17:37Z</time>
      </trkpt>
      <trkpt lat="47.63074" lon="4.36137">
        <ele>286.6</ele>
        <time>2026-05-20T09:17:38Z</time>
      </trkpt>
      <trkpt lat="47.63074" lon="4.36134">
        <ele>286.6</ele>
        <time>2026-05-20T09:17:39Z</time>
      </trkpt>
      <trkpt lat="47.63073" lon="4.36132">
        <ele>286.8</ele>
        <time>2026-05-20T09:17:40Z</time>
      </trkpt>
      <trkpt lat="47.63072" lon="4.36129">
        <ele>287</ele>
        <time>2026-05-20T09:17:41Z</time>
      </trkpt>
      <trkpt lat="47.63072" lon="4.36127">
        <ele>287</ele>
        <time>2026-05-20T09:17:42Z</time>
      </trkpt>
      <trkpt lat="47.63072" lon="4.36125">
        <ele>287</ele>
        <time>2026-05-20T09:17:43Z</time>
      </trkpt>
      <trkpt lat="47.63071" lon="4.36123">
        <ele>287.2</ele>
        <time>2026-05-20T09:17:44Z</time>
      </trkpt>
      <trkpt lat="47.63071" lon="4.36121">
        <ele>287.4</ele>
        <time>2026-05-20T09:17:45Z</time>
      </trkpt>
      <trkpt lat="47.63071" lon="4.36119">
        <ele>287.4</ele>
        <time>2026-05-20T09:17:46Z</time>
      </trkpt>
      <trkpt lat="47.6307" lon="4.36116">
        <ele>287.4</ele>
        <time>2026-05-20T09:17:47Z</time>
      </trkpt>
      <trkpt lat="47.6307" lon="4.36114">
        <ele>287.6</ele>
        <time>2026-05-20T09:17:48Z</time>
      </trkpt>
      <trkpt lat="47.6307" lon="4.36112">
        <ele>287.6</ele>
        <time>2026-05-20T09:17:49Z</time>
      </trkpt>
      <trkpt lat="47.63069" lon="4.36109">
        <ele>288</ele>
        <time>2026-05-20T09:17:50Z</time>
      </trkpt>
      <trkpt lat="47.63069" lon="4.36106">
        <ele>288.2</ele>
        <time>2026-05-20T09:17:51Z</time>
      </trkpt>
      <trkpt lat="47.63068" lon="4.36104">
        <ele>288.4</ele>
        <time>2026-05-20T09:17:52Z</time>
      </trkpt>
      <trkpt lat="47.63068" lon="4.36101">
        <ele>288.4</ele>
        <time>2026-05-20T09:17:53Z</time>
      </trkpt>
      <trkpt lat="47.63068" lon="4.36099">
        <ele>288.4</ele>
        <time>2026-05-20T09:17:54Z</time>
      </trkpt>
      <trkpt lat="47.63068" lon="4.36096">
        <ele>288.6</ele>
        <time>2026-05-20T09:17:55Z</time>
      </trkpt>
      <trkpt lat="47.63067" lon="4.36094">
        <ele>288.6</ele>
        <time>2026-05-20T09:17:56Z</time>
      </trkpt>
      <trkpt lat="47.63067" lon="4.36092">
        <ele>288.8</ele>
        <time>2026-05-20T09:17:57Z</time>
      </trkpt>
      <trkpt lat="47.63066" lon="4.36089">
        <ele>288.8</ele>
        <time>2026-05-20T09:17:58Z</time>
      </trkpt>
      <trkpt lat="47.63066" lon="4.36087">
        <ele>289</ele>
        <time>2026-05-20T09:17:59Z</time>
      </trkpt>
      <trkpt lat="47.63066" lon="4.36084">
        <ele>289</ele>
        <time>2026-05-20T09:18:00Z</time>
      </trkpt>
      <trkpt lat="47.63065" lon="4.36081">
        <ele>289.2</ele>
        <time>2026-05-20T09:18:01Z</time>
      </trkpt>
      <trkpt lat="47.63065" lon="4.36079">
        <ele>289.2</ele>
        <time>2026-05-20T09:18:02Z</time>
      </trkpt>
      <trkpt lat="47.63064" lon="4.36076">
        <ele>289.4</ele>
        <time>2026-05-20T09:18:03Z</time>
      </trkpt>
      <trkpt lat="47.63064" lon="4.36074">
        <ele>289.6</ele>
        <time>2026-05-20T09:18:04Z</time>
      </trkpt>
      <trkpt lat="47.63064" lon="4.36071">
        <ele>289.8</ele>
        <time>2026-05-20T09:18:05Z</time>
      </trkpt>
      <trkpt lat="47.63064" lon="4.36069">
        <ele>290</ele>
        <time>2026-05-20T09:18:06Z</time>
      </trkpt>
      <trkpt lat="47.63063" lon="4.36066">
        <ele>290.2</ele>
        <time>2026-05-20T09:18:07Z</time>
      </trkpt>
      <trkpt lat="47.63063" lon="4.36064">
        <ele>290.4</ele>
        <time>2026-05-20T09:18:08Z</time>
      </trkpt>
      <trkpt lat="47.63062" lon="4.36061">
        <ele>290.4</ele>
        <time>2026-05-20T09:18:09Z</time>
      </trkpt>
      <trkpt lat="47.63062" lon="4.36059">
        <ele>290.6</ele>
        <time>2026-05-20T09:18:10Z</time>
      </trkpt>
      <trkpt lat="47.63062" lon="4.36057">
        <ele>290.8</ele>
        <time>2026-05-20T09:18:11Z</time>
      </trkpt>
      <trkpt lat="47.63061" lon="4.36054">
        <ele>290.8</ele>
        <time>2026-05-20T09:18:12Z</time>
      </trkpt>
      <trkpt lat="47.6306" lon="4.36052">
        <ele>290.8</ele>
        <time>2026-05-20T09:18:13Z</time>
      </trkpt>
      <trkpt lat="47.6306" lon="4.36049">
        <ele>290.8</ele>
        <time>2026-05-20T09:18:14Z</time>
      </trkpt>
      <trkpt lat="47.63059" lon="4.36046">
        <ele>290.8</ele>
        <time>2026-05-20T09:18:15Z</time>
      </trkpt>
      <trkpt lat="47.63059" lon="4.36044">
        <ele>290.8</ele>
        <time>2026-05-20T09:18:16Z</time>
      </trkpt>
      <trkpt lat="47.63059" lon="4.3604">
        <ele>290.8</ele>
        <time>2026-05-20T09:18:17Z</time>
      </trkpt>
      <trkpt lat="47.63059" lon="4.36037">
        <ele>290.8</ele>
        <time>2026-05-20T09:18:18Z</time>
      </trkpt>
      <trkpt lat="47.63058" lon="4.36034">
        <ele>290.8</ele>
        <time>2026-05-20T09:18:19Z</time>
      </trkpt>
      <trkpt lat="47.63058" lon="4.36033">
        <ele>290.8</ele>
        <time>2026-05-20T09:18:20Z</time>
      </trkpt>
      <trkpt lat="47.63059" lon="4.3603">
        <ele>291</ele>
        <time>2026-05-20T09:18:21Z</time>
      </trkpt>
      <trkpt lat="47.63059" lon="4.36028">
        <ele>291</ele>
        <time>2026-05-20T09:18:22Z</time>
      </trkpt>
      <trkpt lat="47.6306" lon="4.36025">
        <ele>291</ele>
        <time>2026-05-20T09:18:23Z</time>
      </trkpt>
      <trkpt lat="47.6306" lon="4.36023">
        <ele>291</ele>
        <time>2026-05-20T09:18:24Z</time>
      </trkpt>
      <trkpt lat="47.63061" lon="4.36023">
        <ele>291</ele>
        <time>2026-05-20T09:18:25Z</time>
      </trkpt>
      <trkpt lat="47.63062" lon="4.36022">
        <ele>291.2</ele>
        <time>2026-05-20T09:18:26Z</time>
      </trkpt>
      <trkpt lat="47.63062" lon="4.36022">
        <ele>291.6</ele>
        <time>2026-05-20T09:18:27Z</time>
      </trkpt>
      <trkpt lat="47.63062" lon="4.36022">
        <ele>291.8</ele>
        <time>2026-05-20T09:18:28Z</time>
      </trkpt>
      <trkpt lat="47.63065" lon="4.3602">
        <ele>292.4</ele>
        <time>2026-05-20T09:19:01Z</time>
      </trkpt>
      <trkpt lat="47.63067" lon="4.3602">
        <ele>292.4</ele>
        <time>2026-05-20T09:19:02Z</time>
      </trkpt>
      <trkpt lat="47.63068" lon="4.36019">
        <ele>292.4</ele>
        <time>2026-05-20T09:19:03Z</time>
      </trkpt>
      <trkpt lat="47.6307" lon="4.36019">
        <ele>292.4</ele>
        <time>2026-05-20T09:19:04Z</time>
      </trkpt>
      <trkpt lat="47.63073" lon="4.36019">
        <ele>292.4</ele>
        <time>2026-05-20T09:19:05Z</time>
      </trkpt>
      <trkpt lat="47.63075" lon="4.36018">
        <ele>292.4</ele>
        <time>2026-05-20T09:19:06Z</time>
      </trkpt>
      <trkpt lat="47.63077" lon="4.36018">
        <ele>292.4</ele>
        <time>2026-05-20T09:19:07Z</time>
      </trkpt>
      <trkpt lat="47.63079" lon="4.36017">
        <ele>292.4</ele>
        <time>2026-05-20T09:19:08Z</time>
      </trkpt>
      <trkpt lat="47.63081" lon="4.36016">
        <ele>292.4</ele>
        <time>2026-05-20T09:19:09Z</time>
      </trkpt>
      <trkpt lat="47.63083" lon="4.36014">
        <ele>292.4</ele>
        <time>2026-05-20T09:19:10Z</time>
      </trkpt>
      <trkpt lat="47.63085" lon="4.36011">
        <ele>292.4</ele>
        <time>2026-05-20T09:19:11Z</time>
      </trkpt>
      <trkpt lat="47.63086" lon="4.36007">
        <ele>292.4</ele>
        <time>2026-05-20T09:19:12Z</time>
      </trkpt>
      <trkpt lat="47.63085" lon="4.36002">
        <ele>292.4</ele>
        <time>2026-05-20T09:19:13Z</time>
      </trkpt>
      <trkpt lat="47.63083" lon="4.35998">
        <ele>292.6</ele>
        <time>2026-05-20T09:19:14Z</time>
      </trkpt>
      <trkpt lat="47.63081" lon="4.35994">
        <ele>292.6</ele>
        <time>2026-05-20T09:19:15Z</time>
      </trkpt>
      <trkpt lat="47.63078" lon="4.3599">
        <ele>292.8</ele>
        <time>2026-05-20T09:19:16Z</time>
      </trkpt>
      <trkpt lat="47.63075" lon="4.35986">
        <ele>292.8</ele>
        <time>2026-05-20T09:19:17Z</time>
      </trkpt>
      <trkpt lat="47.63071" lon="4.35982">
        <ele>292.8</ele>
        <time>2026-05-20T09:19:18Z</time>
      </trkpt>
      <trkpt lat="47.63067" lon="4.35978">
        <ele>292.8</ele>
        <time>2026-05-20T09:19:19Z</time>
      </trkpt>
      <trkpt lat="47.63063" lon="4.35974">
        <ele>293</ele>
        <time>2026-05-20T09:19:20Z</time>
      </trkpt>
      <trkpt lat="47.6306" lon="4.35969">
        <ele>292.6</ele>
        <time>2026-05-20T09:19:21Z</time>
      </trkpt>
      <trkpt lat="47.63055" lon="4.35964">
        <ele>292.6</ele>
        <time>2026-05-20T09:19:22Z</time>
      </trkpt>
      <trkpt lat="47.63051" lon="4.3596">
        <ele>292.4</ele>
        <time>2026-05-20T09:19:23Z</time>
      </trkpt>
      <trkpt lat="47.63047" lon="4.35954">
        <ele>292.2</ele>
        <time>2026-05-20T09:19:24Z</time>
      </trkpt>
      <trkpt lat="47.63043" lon="4.35948">
        <ele>291.8</ele>
        <time>2026-05-20T09:19:25Z</time>
      </trkpt>
      <trkpt lat="47.6304" lon="4.35942">
        <ele>291.6</ele>
        <time>2026-05-20T09:19:26Z</time>
      </trkpt>
      <trkpt lat="47.63037" lon="4.35936">
        <ele>291.2</ele>
        <time>2026-05-20T09:19:27Z</time>
      </trkpt>
      <trkpt lat="47.63035" lon="4.35928">
        <ele>291.2</ele>
        <time>2026-05-20T09:19:28Z</time>
      </trkpt>
      <trkpt lat="47.63035" lon="4.3592">
        <ele>290.8</ele>
        <time>2026-05-20T09:19:29Z</time>
      </trkpt>
      <trkpt lat="47.63036" lon="4.35912">
        <ele>290.6</ele>
        <time>2026-05-20T09:19:30Z</time>
      </trkpt>
      <trkpt lat="47.63038" lon="4.35905">
        <ele>290.4</ele>
        <time>2026-05-20T09:19:31Z</time>
      </trkpt>
      <trkpt lat="47.6304" lon="4.35898">
        <ele>290.4</ele>
        <time>2026-05-20T09:19:32Z</time>
      </trkpt>
      <trkpt lat="47.63042" lon="4.35892">
        <ele>290.4</ele>
        <time>2026-05-20T09:19:33Z</time>
      </trkpt>
      <trkpt lat="47.63043" lon="4.35888">
        <ele>290.4</ele>
        <time>2026-05-20T09:19:34Z</time>
      </trkpt>
      <trkpt lat="47.63044" lon="4.35884">
        <ele>290.4</ele>
        <time>2026-05-20T09:19:35Z</time>
      </trkpt>
      <trkpt lat="47.63044" lon="4.35879">
        <ele>290.4</ele>
        <time>2026-05-20T09:19:36Z</time>
      </trkpt>
      <trkpt lat="47.63044" lon="4.35875">
        <ele>290.6</ele>
        <time>2026-05-20T09:19:37Z</time>
      </trkpt>
      <trkpt lat="47.63044" lon="4.3587">
        <ele>291</ele>
        <time>2026-05-20T09:19:38Z</time>
      </trkpt>
      <trkpt lat="47.63043" lon="4.35866">
        <ele>291.4</ele>
        <time>2026-05-20T09:19:39Z</time>
      </trkpt>
      <trkpt lat="47.63043" lon="4.35861">
        <ele>291.6</ele>
        <time>2026-05-20T09:19:40Z</time>
      </trkpt>
      <trkpt lat="47.63042" lon="4.35856">
        <ele>292.2</ele>
        <time>2026-05-20T09:19:41Z</time>
      </trkpt>
      <trkpt lat="47.63041" lon="4.35851">
        <ele>292.4</ele>
        <time>2026-05-20T09:19:42Z</time>
      </trkpt>
      <trkpt lat="47.6304" lon="4.35846">
        <ele>292.6</ele>
        <time>2026-05-20T09:19:43Z</time>
      </trkpt>
      <trkpt lat="47.63039" lon="4.35841">
        <ele>292.6</ele>
        <time>2026-05-20T09:19:44Z</time>
      </trkpt>
      <trkpt lat="47.63038" lon="4.35836">
        <ele>292.6</ele>
        <time>2026-05-20T09:19:45Z</time>
      </trkpt>
      <trkpt lat="47.63036" lon="4.35831">
        <ele>292.8</ele>
        <time>2026-05-20T09:19:46Z</time>
      </trkpt>
      <trkpt lat="47.63036" lon="4.35826">
        <ele>292.8</ele>
        <time>2026-05-20T09:19:47Z</time>
      </trkpt>
      <trkpt lat="47.63035" lon="4.35821">
        <ele>293</ele>
        <time>2026-05-20T09:19:48Z</time>
      </trkpt>
      <trkpt lat="47.63034" lon="4.35816">
        <ele>293.2</ele>
        <time>2026-05-20T09:19:49Z</time>
      </trkpt>
      <trkpt lat="47.63032" lon="4.35811">
        <ele>293.2</ele>
        <time>2026-05-20T09:19:50Z</time>
      </trkpt>
      <trkpt lat="47.63031" lon="4.35806">
        <ele>293.2</ele>
        <time>2026-05-20T09:19:51Z</time>
      </trkpt>
      <trkpt lat="47.6303" lon="4.35801">
        <ele>293.2</ele>
        <time>2026-05-20T09:19:52Z</time>
      </trkpt>
      <trkpt lat="47.63029" lon="4.35796">
        <ele>293.2</ele>
        <time>2026-05-20T09:19:53Z</time>
      </trkpt>
      <trkpt lat="47.63028" lon="4.35791">
        <ele>293.2</ele>
        <time>2026-05-20T09:19:54Z</time>
      </trkpt>
      <trkpt lat="47.63027" lon="4.35786">
        <ele>293.2</ele>
        <time>2026-05-20T09:19:55Z</time>
      </trkpt>
      <trkpt lat="47.63026" lon="4.35781">
        <ele>293</ele>
        <time>2026-05-20T09:19:56Z</time>
      </trkpt>
      <trkpt lat="47.63025" lon="4.35776">
        <ele>293</ele>
        <time>2026-05-20T09:19:57Z</time>
      </trkpt>
      <trkpt lat="47.63024" lon="4.35772">
        <ele>293</ele>
        <time>2026-05-20T09:19:58Z</time>
      </trkpt>
      <trkpt lat="47.63024" lon="4.35767">
        <ele>293</ele>
        <time>2026-05-20T09:19:59Z</time>
      </trkpt>
      <trkpt lat="47.63023" lon="4.35762">
        <ele>293</ele>
        <time>2026-05-20T09:20:00Z</time>
      </trkpt>
      <trkpt lat="47.63022" lon="4.35758">
        <ele>293</ele>
        <time>2026-05-20T09:20:01Z</time>
      </trkpt>
      <trkpt lat="47.63021" lon="4.35753">
        <ele>293</ele>
        <time>2026-05-20T09:20:02Z</time>
      </trkpt>
      <trkpt lat="47.6302" lon="4.35747">
        <ele>292.8</ele>
        <time>2026-05-20T09:20:03Z</time>
      </trkpt>
      <trkpt lat="47.63019" lon="4.35742">
        <ele>293</ele>
        <time>2026-05-20T09:20:04Z</time>
      </trkpt>
      <trkpt lat="47.63018" lon="4.35737">
        <ele>292.6</ele>
        <time>2026-05-20T09:20:05Z</time>
      </trkpt>
      <trkpt lat="47.63017" lon="4.35731">
        <ele>292.6</ele>
        <time>2026-05-20T09:20:06Z</time>
      </trkpt>
      <trkpt lat="47.63016" lon="4.35725">
        <ele>292.6</ele>
        <time>2026-05-20T09:20:07Z</time>
      </trkpt>
      <trkpt lat="47.63015" lon="4.3572">
        <ele>292.4</ele>
        <time>2026-05-20T09:20:08Z</time>
      </trkpt>
      <trkpt lat="47.63013" lon="4.35714">
        <ele>292.6</ele>
        <time>2026-05-20T09:20:09Z</time>
      </trkpt>
      <trkpt lat="47.63012" lon="4.35709">
        <ele>292.6</ele>
        <time>2026-05-20T09:20:10Z</time>
      </trkpt>
      <trkpt lat="47.63011" lon="4.35703">
        <ele>292.6</ele>
        <time>2026-05-20T09:20:11Z</time>
      </trkpt>
      <trkpt lat="47.6301" lon="4.35698">
        <ele>292.4</ele>
        <time>2026-05-20T09:20:12Z</time>
      </trkpt>
      <trkpt lat="47.63009" lon="4.35693">
        <ele>292.2</ele>
        <time>2026-05-20T09:20:13Z</time>
      </trkpt>
      <trkpt lat="47.63008" lon="4.35687">
        <ele>292.2</ele>
        <time>2026-05-20T09:20:14Z</time>
      </trkpt>
      <trkpt lat="47.63006" lon="4.35682">
        <ele>292.2</ele>
        <time>2026-05-20T09:20:15Z</time>
      </trkpt>
      <trkpt lat="47.63005" lon="4.35676">
        <ele>292</ele>
        <time>2026-05-20T09:20:16Z</time>
      </trkpt>
      <trkpt lat="47.63004" lon="4.3567">
        <ele>292</ele>
        <time>2026-05-20T09:20:17Z</time>
      </trkpt>
      <trkpt lat="47.63003" lon="4.35665">
        <ele>292</ele>
        <time>2026-05-20T09:20:18Z</time>
      </trkpt>
      <trkpt lat="47.63001" lon="4.35659">
        <ele>292</ele>
        <time>2026-05-20T09:20:19Z</time>
      </trkpt>
      <trkpt lat="47.63" lon="4.35654">
        <ele>291.8</ele>
        <time>2026-05-20T09:20:20Z</time>
      </trkpt>
      <trkpt lat="47.62999" lon="4.35648">
        <ele>291.8</ele>
        <time>2026-05-20T09:20:21Z</time>
      </trkpt>
      <trkpt lat="47.62998" lon="4.35643">
        <ele>291.8</ele>
        <time>2026-05-20T09:20:22Z</time>
      </trkpt>
      <trkpt lat="47.62997" lon="4.35638">
        <ele>291.8</ele>
        <time>2026-05-20T09:20:23Z</time>
      </trkpt>
      <trkpt lat="47.62996" lon="4.35632">
        <ele>291.6</ele>
        <time>2026-05-20T09:20:24Z</time>
      </trkpt>
      <trkpt lat="47.62995" lon="4.35626">
        <ele>291.6</ele>
        <time>2026-05-20T09:20:25Z</time>
      </trkpt>
      <trkpt lat="47.62994" lon="4.35621">
        <ele>291.6</ele>
        <time>2026-05-20T09:20:26Z</time>
      </trkpt>
      <trkpt lat="47.62992" lon="4.35615">
        <ele>291.6</ele>
        <time>2026-05-20T09:20:27Z</time>
      </trkpt>
      <trkpt lat="47.62991" lon="4.35609">
        <ele>291.4</ele>
        <time>2026-05-20T09:20:28Z</time>
      </trkpt>
      <trkpt lat="47.6299" lon="4.35604">
        <ele>291.4</ele>
        <time>2026-05-20T09:20:29Z</time>
      </trkpt>
      <trkpt lat="47.62989" lon="4.35598">
        <ele>291.4</ele>
        <time>2026-05-20T09:20:30Z</time>
      </trkpt>
      <trkpt lat="47.62988" lon="4.35592">
        <ele>291.4</ele>
        <time>2026-05-20T09:20:31Z</time>
      </trkpt>
      <trkpt lat="47.62987" lon="4.35587">
        <ele>291.2</ele>
        <time>2026-05-20T09:20:32Z</time>
      </trkpt>
      <trkpt lat="47.62985" lon="4.35581">
        <ele>291.2</ele>
        <time>2026-05-20T09:20:33Z</time>
      </trkpt>
      <trkpt lat="47.62984" lon="4.35575">
        <ele>291</ele>
        <time>2026-05-20T09:20:34Z</time>
      </trkpt>
      <trkpt lat="47.62983" lon="4.35568">
        <ele>291</ele>
        <time>2026-05-20T09:20:35Z</time>
      </trkpt>
      <trkpt lat="47.62982" lon="4.35562">
        <ele>291</ele>
        <time>2026-05-20T09:20:36Z</time>
      </trkpt>
      <trkpt lat="47.6298" lon="4.35555">
        <ele>290.6</ele>
        <time>2026-05-20T09:20:37Z</time>
      </trkpt>
      <trkpt lat="47.62979" lon="4.35549">
        <ele>290.6</ele>
        <time>2026-05-20T09:20:38Z</time>
      </trkpt>
      <trkpt lat="47.62978" lon="4.35542">
        <ele>290.4</ele>
        <time>2026-05-20T09:20:39Z</time>
      </trkpt>
      <trkpt lat="47.62977" lon="4.35535">
        <ele>290.4</ele>
        <time>2026-05-20T09:20:40Z</time>
      </trkpt>
      <trkpt lat="47.62976" lon="4.35528">
        <ele>290</ele>
        <time>2026-05-20T09:20:41Z</time>
      </trkpt>
      <trkpt lat="47.62975" lon="4.35522">
        <ele>289.8</ele>
        <time>2026-05-20T09:20:42Z</time>
      </trkpt>
      <trkpt lat="47.62975" lon="4.35515">
        <ele>289.6</ele>
        <time>2026-05-20T09:20:43Z</time>
      </trkpt>
      <trkpt lat="47.62974" lon="4.35509">
        <ele>289.4</ele>
        <time>2026-05-20T09:20:44Z</time>
      </trkpt>
      <trkpt lat="47.62974" lon="4.35502">
        <ele>289.2</ele>
        <time>2026-05-20T09:20:45Z</time>
      </trkpt>
      <trkpt lat="47.62973" lon="4.35496">
        <ele>289</ele>
        <time>2026-05-20T09:20:46Z</time>
      </trkpt>
      <trkpt lat="47.62973" lon="4.35489">
        <ele>289</ele>
        <time>2026-05-20T09:20:47Z</time>
      </trkpt>
      <trkpt lat="47.62973" lon="4.35483">
        <ele>288.8</ele>
        <time>2026-05-20T09:20:48Z</time>
      </trkpt>
      <trkpt lat="47.62973" lon="4.35476">
        <ele>288.6</ele>
        <time>2026-05-20T09:20:49Z</time>
      </trkpt>
      <trkpt lat="47.62973" lon="4.3547">
        <ele>288.4</ele>
        <time>2026-05-20T09:20:50Z</time>
      </trkpt>
      <trkpt lat="47.62973" lon="4.35464">
        <ele>288.2</ele>
        <time>2026-05-20T09:20:51Z</time>
      </trkpt>
      <trkpt lat="47.62973" lon="4.35457">
        <ele>288.2</ele>
        <time>2026-05-20T09:20:52Z</time>
      </trkpt>
      <trkpt lat="47.62973" lon="4.35451">
        <ele>288</ele>
        <time>2026-05-20T09:20:53Z</time>
      </trkpt>
      <trkpt lat="47.62973" lon="4.35444">
        <ele>288</ele>
        <time>2026-05-20T09:20:54Z</time>
      </trkpt>
      <trkpt lat="47.62973" lon="4.35437">
        <ele>288</ele>
        <time>2026-05-20T09:20:55Z</time>
      </trkpt>
      <trkpt lat="47.62973" lon="4.35431">
        <ele>287.6</ele>
        <time>2026-05-20T09:20:56Z</time>
      </trkpt>
      <trkpt lat="47.62973" lon="4.35424">
        <ele>287.4</ele>
        <time>2026-05-20T09:20:57Z</time>
      </trkpt>
      <trkpt lat="47.62973" lon="4.35417">
        <ele>287.4</ele>
        <time>2026-05-20T09:20:58Z</time>
      </trkpt>
      <trkpt lat="47.62973" lon="4.35409">
        <ele>287.4</ele>
        <time>2026-05-20T09:20:59Z</time>
      </trkpt>
      <trkpt lat="47.62973" lon="4.35401">
        <ele>287.2</ele>
        <time>2026-05-20T09:21:00Z</time>
      </trkpt>
      <trkpt lat="47.62973" lon="4.35393">
        <ele>287.4</ele>
        <time>2026-05-20T09:21:01Z</time>
      </trkpt>
      <trkpt lat="47.62973" lon="4.35386">
        <ele>287.2</ele>
        <time>2026-05-20T09:21:02Z</time>
      </trkpt>
      <trkpt lat="47.62973" lon="4.35379">
        <ele>287.2</ele>
        <time>2026-05-20T09:21:03Z</time>
      </trkpt>
      <trkpt lat="47.62973" lon="4.35372">
        <ele>287.2</ele>
        <time>2026-05-20T09:21:04Z</time>
      </trkpt>
      <trkpt lat="47.62973" lon="4.35366">
        <ele>287</ele>
        <time>2026-05-20T09:21:05Z</time>
      </trkpt>
      <trkpt lat="47.62972" lon="4.3536">
        <ele>286.8</ele>
        <time>2026-05-20T09:21:06Z</time>
      </trkpt>
      <trkpt lat="47.62972" lon="4.35355">
        <ele>286.4</ele>
        <time>2026-05-20T09:21:07Z</time>
      </trkpt>
      <trkpt lat="47.62971" lon="4.3535">
        <ele>286</ele>
        <time>2026-05-20T09:21:08Z</time>
      </trkpt>
      <trkpt lat="47.62971" lon="4.35344">
        <ele>285.4</ele>
        <time>2026-05-20T09:21:09Z</time>
      </trkpt>
      <trkpt lat="47.6297" lon="4.35338">
        <ele>285.2</ele>
        <time>2026-05-20T09:21:10Z</time>
      </trkpt>
      <trkpt lat="47.62969" lon="4.35332">
        <ele>284.8</ele>
        <time>2026-05-20T09:21:11Z</time>
      </trkpt>
      <trkpt lat="47.62968" lon="4.35326">
        <ele>284.8</ele>
        <time>2026-05-20T09:21:12Z</time>
      </trkpt>
      <trkpt lat="47.62967" lon="4.3532">
        <ele>284.2</ele>
        <time>2026-05-20T09:21:13Z</time>
      </trkpt>
      <trkpt lat="47.62965" lon="4.35314">
        <ele>284.2</ele>
        <time>2026-05-20T09:21:14Z</time>
      </trkpt>
      <trkpt lat="47.62964" lon="4.35309">
        <ele>283.8</ele>
        <time>2026-05-20T09:21:15Z</time>
      </trkpt>
      <trkpt lat="47.62963" lon="4.35303">
        <ele>283.6</ele>
        <time>2026-05-20T09:21:16Z</time>
      </trkpt>
      <trkpt lat="47.62962" lon="4.35298">
        <ele>283</ele>
        <time>2026-05-20T09:21:17Z</time>
      </trkpt>
      <trkpt lat="47.6296" lon="4.35293">
        <ele>282</ele>
        <time>2026-05-20T09:21:18Z</time>
      </trkpt>
      <trkpt lat="47.62959" lon="4.35288">
        <ele>281.6</ele>
        <time>2026-05-20T09:21:19Z</time>
      </trkpt>
      <trkpt lat="47.62957" lon="4.35282">
        <ele>281</ele>
        <time>2026-05-20T09:21:20Z</time>
      </trkpt>
      <trkpt lat="47.62955" lon="4.35277">
        <ele>280.8</ele>
        <time>2026-05-20T09:21:21Z</time>
      </trkpt>
      <trkpt lat="47.62953" lon="4.35272">
        <ele>280.4</ele>
        <time>2026-05-20T09:21:22Z</time>
      </trkpt>
      <trkpt lat="47.62951" lon="4.35267">
        <ele>280.4</ele>
        <time>2026-05-20T09:21:23Z</time>
      </trkpt>
      <trkpt lat="47.62949" lon="4.35262">
        <ele>279.8</ele>
        <time>2026-05-20T09:21:24Z</time>
      </trkpt>
      <trkpt lat="47.62948" lon="4.35257">
        <ele>279.4</ele>
        <time>2026-05-20T09:21:25Z</time>
      </trkpt>
      <trkpt lat="47.62946" lon="4.35252">
        <ele>278.8</ele>
        <time>2026-05-20T09:21:26Z</time>
      </trkpt>
      <trkpt lat="47.62945" lon="4.35248">
        <ele>278.2</ele>
        <time>2026-05-20T09:21:27Z</time>
      </trkpt>
      <trkpt lat="47.62943" lon="4.35243">
        <ele>277.8</ele>
        <time>2026-05-20T09:21:28Z</time>
      </trkpt>
      <trkpt lat="47.62941" lon="4.35239">
        <ele>277.4</ele>
        <time>2026-05-20T09:21:29Z</time>
      </trkpt>
      <trkpt lat="47.62939" lon="4.35234">
        <ele>277.2</ele>
        <time>2026-05-20T09:21:30Z</time>
      </trkpt>
      <trkpt lat="47.62937" lon="4.35229">
        <ele>276.6</ele>
        <time>2026-05-20T09:21:31Z</time>
      </trkpt>
      <trkpt lat="47.62936" lon="4.35224">
        <ele>276.4</ele>
        <time>2026-05-20T09:21:32Z</time>
      </trkpt>
      <trkpt lat="47.62935" lon="4.35218">
        <ele>276</ele>
        <time>2026-05-20T09:21:33Z</time>
      </trkpt>
      <trkpt lat="47.62933" lon="4.35213">
        <ele>275.4</ele>
        <time>2026-05-20T09:21:34Z</time>
      </trkpt>
      <trkpt lat="47.62931" lon="4.35206">
        <ele>274.8</ele>
        <time>2026-05-20T09:21:35Z</time>
      </trkpt>
      <trkpt lat="47.6293" lon="4.35199">
        <ele>273.4</ele>
        <time>2026-05-20T09:21:36Z</time>
      </trkpt>
      <trkpt lat="47.62928" lon="4.35192">
        <ele>273</ele>
        <time>2026-05-20T09:21:37Z</time>
      </trkpt>
      <trkpt lat="47.62927" lon="4.35185">
        <ele>272.6</ele>
        <time>2026-05-20T09:21:38Z</time>
      </trkpt>
      <trkpt lat="47.62926" lon="4.35177">
        <ele>272.4</ele>
        <time>2026-05-20T09:21:39Z</time>
      </trkpt>
      <trkpt lat="47.62926" lon="4.3517">
        <ele>271.8</ele>
        <time>2026-05-20T09:21:40Z</time>
      </trkpt>
      <trkpt lat="47.62926" lon="4.35162">
        <ele>271.6</ele>
        <time>2026-05-20T09:21:41Z</time>
      </trkpt>
      <trkpt lat="47.62926" lon="4.35155">
        <ele>271.2</ele>
        <time>2026-05-20T09:21:42Z</time>
      </trkpt>
      <trkpt lat="47.62926" lon="4.35147">
        <ele>270.6</ele>
        <time>2026-05-20T09:21:43Z</time>
      </trkpt>
      <trkpt lat="47.62926" lon="4.35138">
        <ele>269.8</ele>
        <time>2026-05-20T09:21:44Z</time>
      </trkpt>
      <trkpt lat="47.62926" lon="4.3513">
        <ele>269.2</ele>
        <time>2026-05-20T09:21:45Z</time>
      </trkpt>
      <trkpt lat="47.62925" lon="4.35121">
        <ele>268.8</ele>
        <time>2026-05-20T09:21:46Z</time>
      </trkpt>
      <trkpt lat="47.62924" lon="4.35112">
        <ele>268</ele>
        <time>2026-05-20T09:21:47Z</time>
      </trkpt>
      <trkpt lat="47.62922" lon="4.35102">
        <ele>267.6</ele>
        <time>2026-05-20T09:21:48Z</time>
      </trkpt>
      <trkpt lat="47.62921" lon="4.35093">
        <ele>266.2</ele>
        <time>2026-05-20T09:21:49Z</time>
      </trkpt>
      <trkpt lat="47.6292" lon="4.35083">
        <ele>265.8</ele>
        <time>2026-05-20T09:21:50Z</time>
      </trkpt>
      <trkpt lat="47.62919" lon="4.35073">
        <ele>265.2</ele>
        <time>2026-05-20T09:21:51Z</time>
      </trkpt>
      <trkpt lat="47.62918" lon="4.35064">
        <ele>264.4</ele>
        <time>2026-05-20T09:21:52Z</time>
      </trkpt>
      <trkpt lat="47.62917" lon="4.35055">
        <ele>264</ele>
        <time>2026-05-20T09:21:53Z</time>
      </trkpt>
      <trkpt lat="47.62915" lon="4.35047">
        <ele>263.2</ele>
        <time>2026-05-20T09:21:54Z</time>
      </trkpt>
      <trkpt lat="47.62914" lon="4.35037">
        <ele>262.8</ele>
        <time>2026-05-20T09:21:55Z</time>
      </trkpt>
      <trkpt lat="47.62912" lon="4.35027">
        <ele>261.6</ele>
        <time>2026-05-20T09:21:56Z</time>
      </trkpt>
      <trkpt lat="47.62911" lon="4.35018">
        <ele>260.8</ele>
        <time>2026-05-20T09:21:57Z</time>
      </trkpt>
      <trkpt lat="47.6291" lon="4.35008">
        <ele>260</ele>
        <time>2026-05-20T09:21:58Z</time>
      </trkpt>
      <trkpt lat="47.62909" lon="4.35">
        <ele>259.8</ele>
        <time>2026-05-20T09:21:59Z</time>
      </trkpt>
      <trkpt lat="47.6291" lon="4.34993">
        <ele>259.2</ele>
        <time>2026-05-20T09:22:00Z</time>
      </trkpt>
      <trkpt lat="47.62912" lon="4.34987">
        <ele>258.6</ele>
        <time>2026-05-20T09:22:01Z</time>
      </trkpt>
      <trkpt lat="47.62914" lon="4.34981">
        <ele>258</ele>
        <time>2026-05-20T09:22:02Z</time>
      </trkpt>
      <trkpt lat="47.62918" lon="4.34977">
        <ele>257.4</ele>
        <time>2026-05-20T09:22:03Z</time>
      </trkpt>
      <trkpt lat="47.62922" lon="4.34973">
        <ele>256.8</ele>
        <time>2026-05-20T09:22:04Z</time>
      </trkpt>
      <trkpt lat="47.62926" lon="4.3497">
        <ele>255.8</ele>
        <time>2026-05-20T09:22:05Z</time>
      </trkpt>
      <trkpt lat="47.62931" lon="4.34968">
        <ele>255.4</ele>
        <time>2026-05-20T09:22:06Z</time>
      </trkpt>
      <trkpt lat="47.62936" lon="4.34965">
        <ele>255.2</ele>
        <time>2026-05-20T09:22:07Z</time>
      </trkpt>
      <trkpt lat="47.6294" lon="4.34963">
        <ele>255</ele>
        <time>2026-05-20T09:22:08Z</time>
      </trkpt>
      <trkpt lat="47.62944" lon="4.3496">
        <ele>254.8</ele>
        <time>2026-05-20T09:22:09Z</time>
      </trkpt>
      <trkpt lat="47.62948" lon="4.34958">
        <ele>254.2</ele>
        <time>2026-05-20T09:22:10Z</time>
      </trkpt>
      <trkpt lat="47.62952" lon="4.34957">
        <ele>253.4</ele>
        <time>2026-05-20T09:22:11Z</time>
      </trkpt>
      <trkpt lat="47.62956" lon="4.34955">
        <ele>252.6</ele>
        <time>2026-05-20T09:22:12Z</time>
      </trkpt>
      <trkpt lat="47.6296" lon="4.34952">
        <ele>252.2</ele>
        <time>2026-05-20T09:22:13Z</time>
      </trkpt>
      <trkpt lat="47.62963" lon="4.34949">
        <ele>251.2</ele>
        <time>2026-05-20T09:22:14Z</time>
      </trkpt>
      <trkpt lat="47.62965" lon="4.34945">
        <ele>250.8</ele>
        <time>2026-05-20T09:22:15Z</time>
      </trkpt>
      <trkpt lat="47.62966" lon="4.3494">
        <ele>250.4</ele>
        <time>2026-05-20T09:22:16Z</time>
      </trkpt>
      <trkpt lat="47.62967" lon="4.34935">
        <ele>250.4</ele>
        <time>2026-05-20T09:22:17Z</time>
      </trkpt>
      <trkpt lat="47.62968" lon="4.34931">
        <ele>250</ele>
        <time>2026-05-20T09:22:18Z</time>
      </trkpt>
      <trkpt lat="47.62969" lon="4.34926">
        <ele>248.8</ele>
        <time>2026-05-20T09:22:19Z</time>
      </trkpt>
      <trkpt lat="47.6297" lon="4.3492">
        <ele>248.6</ele>
        <time>2026-05-20T09:22:20Z</time>
      </trkpt>
      <trkpt lat="47.62971" lon="4.34917">
        <ele>248.4</ele>
        <time>2026-05-20T09:22:21Z</time>
      </trkpt>
      <trkpt lat="47.62971" lon="4.34913">
        <ele>248.2</ele>
        <time>2026-05-20T09:22:22Z</time>
      </trkpt>
      <trkpt lat="47.62971" lon="4.3491">
        <ele>247.4</ele>
        <time>2026-05-20T09:22:23Z</time>
      </trkpt>
      <trkpt lat="47.62971" lon="4.34906">
        <ele>247.4</ele>
        <time>2026-05-20T09:22:24Z</time>
      </trkpt>
      <trkpt lat="47.62972" lon="4.34903">
        <ele>247</ele>
        <time>2026-05-20T09:22:25Z</time>
      </trkpt>
      <trkpt lat="47.62973" lon="4.34899">
        <ele>247</ele>
        <time>2026-05-20T09:22:26Z</time>
      </trkpt>
      <trkpt lat="47.62974" lon="4.34895">
        <ele>246.6</ele>
        <time>2026-05-20T09:22:27Z</time>
      </trkpt>
      <trkpt lat="47.62976" lon="4.34893">
        <ele>246.4</ele>
        <time>2026-05-20T09:22:28Z</time>
      </trkpt>
      <trkpt lat="47.62979" lon="4.3489">
        <ele>246.4</ele>
        <time>2026-05-20T09:22:29Z</time>
      </trkpt>
      <trkpt lat="47.62981" lon="4.34888">
        <ele>246.4</ele>
        <time>2026-05-20T09:22:30Z</time>
      </trkpt>
      <trkpt lat="47.62983" lon="4.34886">
        <ele>246.4</ele>
        <time>2026-05-20T09:22:31Z</time>
      </trkpt>
      <trkpt lat="47.62985" lon="4.34885">
        <ele>246.6</ele>
        <time>2026-05-20T09:22:32Z</time>
      </trkpt>
      <trkpt lat="47.62987" lon="4.34884">
        <ele>246.6</ele>
        <time>2026-05-20T09:22:33Z</time>
      </trkpt>
      <trkpt lat="47.62989" lon="4.34883">
        <ele>246.8</ele>
        <time>2026-05-20T09:22:34Z</time>
      </trkpt>
      <trkpt lat="47.62991" lon="4.34881">
        <ele>246.8</ele>
        <time>2026-05-20T09:22:35Z</time>
      </trkpt>
      <trkpt lat="47.62994" lon="4.34879">
        <ele>247</ele>
        <time>2026-05-20T09:22:36Z</time>
      </trkpt>
      <trkpt lat="47.62996" lon="4.34877">
        <ele>247</ele>
        <time>2026-05-20T09:22:37Z</time>
      </trkpt>
      <trkpt lat="47.62998" lon="4.34873">
        <ele>247.2</ele>
        <time>2026-05-20T09:22:38Z</time>
      </trkpt>
      <trkpt lat="47.63001" lon="4.3487">
        <ele>247.2</ele>
        <time>2026-05-20T09:22:39Z</time>
      </trkpt>
      <trkpt lat="47.63003" lon="4.34866">
        <ele>247.4</ele>
        <time>2026-05-20T09:22:40Z</time>
      </trkpt>
      <trkpt lat="47.63004" lon="4.34863">
        <ele>247.6</ele>
        <time>2026-05-20T09:22:41Z</time>
      </trkpt>
      <trkpt lat="47.63006" lon="4.3486">
        <ele>247.8</ele>
        <time>2026-05-20T09:22:42Z</time>
      </trkpt>
      <trkpt lat="47.63008" lon="4.34857">
        <ele>247.8</ele>
        <time>2026-05-20T09:22:43Z</time>
      </trkpt>
      <trkpt lat="47.6301" lon="4.34855">
        <ele>248</ele>
        <time>2026-05-20T09:22:44Z</time>
      </trkpt>
      <trkpt lat="47.63012" lon="4.34853">
        <ele>248</ele>
        <time>2026-05-20T09:22:45Z</time>
      </trkpt>
      <trkpt lat="47.63014" lon="4.34851">
        <ele>248</ele>
        <time>2026-05-20T09:22:46Z</time>
      </trkpt>
      <trkpt lat="47.63016" lon="4.3485">
        <ele>248.2</ele>
        <time>2026-05-20T09:22:47Z</time>
      </trkpt>
      <trkpt lat="47.63018" lon="4.34849">
        <ele>248.4</ele>
        <time>2026-05-20T09:22:48Z</time>
      </trkpt>
      <trkpt lat="47.6302" lon="4.34848">
        <ele>248.4</ele>
        <time>2026-05-20T09:22:49Z</time>
      </trkpt>
      <trkpt lat="47.63023" lon="4.34847">
        <ele>248.4</ele>
        <time>2026-05-20T09:22:50Z</time>
      </trkpt>
      <trkpt lat="47.63025" lon="4.34847">
        <ele>248.4</ele>
        <time>2026-05-20T09:22:51Z</time>
      </trkpt>
      <trkpt lat="47.63028" lon="4.34848">
        <ele>248.4</ele>
        <time>2026-05-20T09:22:52Z</time>
      </trkpt>
      <trkpt lat="47.6303" lon="4.34848">
        <ele>248.8</ele>
        <time>2026-05-20T09:22:53Z</time>
      </trkpt>
      <trkpt lat="47.63032" lon="4.34848">
        <ele>248.8</ele>
        <time>2026-05-20T09:22:54Z</time>
      </trkpt>
      <trkpt lat="47.63034" lon="4.34847">
        <ele>249</ele>
        <time>2026-05-20T09:22:55Z</time>
      </trkpt>
      <trkpt lat="47.63036" lon="4.34847">
        <ele>249</ele>
        <time>2026-05-20T09:22:56Z</time>
      </trkpt>
      <trkpt lat="47.63038" lon="4.34846">
        <ele>249.2</ele>
        <time>2026-05-20T09:22:57Z</time>
      </trkpt>
      <trkpt lat="47.63041" lon="4.34846">
        <ele>249.2</ele>
        <time>2026-05-20T09:22:58Z</time>
      </trkpt>
      <trkpt lat="47.63043" lon="4.34846">
        <ele>249.2</ele>
        <time>2026-05-20T09:22:59Z</time>
      </trkpt>
      <trkpt lat="47.63046" lon="4.34844">
        <ele>249.4</ele>
        <time>2026-05-20T09:23:00Z</time>
      </trkpt>
      <trkpt lat="47.63048" lon="4.34842">
        <ele>249.4</ele>
        <time>2026-05-20T09:23:01Z</time>
      </trkpt>
      <trkpt lat="47.63051" lon="4.34841">
        <ele>249.4</ele>
        <time>2026-05-20T09:23:02Z</time>
      </trkpt>
      <trkpt lat="47.63053" lon="4.34841">
        <ele>249.6</ele>
        <time>2026-05-20T09:23:03Z</time>
      </trkpt>
      <trkpt lat="47.63054" lon="4.34841">
        <ele>249.6</ele>
        <time>2026-05-20T09:23:04Z</time>
      </trkpt>
      <trkpt lat="47.63056" lon="4.34842">
        <ele>249.8</ele>
        <time>2026-05-20T09:23:05Z</time>
      </trkpt>
      <trkpt lat="47.63057" lon="4.34843">
        <ele>249.8</ele>
        <time>2026-05-20T09:23:06Z</time>
      </trkpt>
      <trkpt lat="47.63059" lon="4.34843">
        <ele>250</ele>
        <time>2026-05-20T09:23:07Z</time>
      </trkpt>
      <trkpt lat="47.63062" lon="4.34843">
        <ele>250.4</ele>
        <time>2026-05-20T09:23:08Z</time>
      </trkpt>
      <trkpt lat="47.63064" lon="4.34843">
        <ele>250.6</ele>
        <time>2026-05-20T09:23:09Z</time>
      </trkpt>
      <trkpt lat="47.63067" lon="4.34844">
        <ele>250.8</ele>
        <time>2026-05-20T09:23:10Z</time>
      </trkpt>
      <trkpt lat="47.63069" lon="4.34845">
        <ele>251.2</ele>
        <time>2026-05-20T09:23:11Z</time>
      </trkpt>
      <trkpt lat="47.63072" lon="4.34846">
        <ele>251.6</ele>
        <time>2026-05-20T09:23:12Z</time>
      </trkpt>
      <trkpt lat="47.63073" lon="4.34848">
        <ele>251.8</ele>
        <time>2026-05-20T09:23:13Z</time>
      </trkpt>
      <trkpt lat="47.63074" lon="4.3485">
        <ele>252</ele>
        <time>2026-05-20T09:23:14Z</time>
      </trkpt>
      <trkpt lat="47.63075" lon="4.3485">
        <ele>252.4</ele>
        <time>2026-05-20T09:23:15Z</time>
      </trkpt>
      <trkpt lat="47.63075" lon="4.34851">
        <ele>252.8</ele>
        <time>2026-05-20T09:23:16Z</time>
      </trkpt>
      <trkpt lat="47.63077" lon="4.34851">
        <ele>253.4</ele>
        <time>2026-05-20T09:23:17Z</time>
      </trkpt>
      <trkpt lat="47.63079" lon="4.34852">
        <ele>253.6</ele>
        <time>2026-05-20T09:23:18Z</time>
      </trkpt>
      <trkpt lat="47.63081" lon="4.34854">
        <ele>254.2</ele>
        <time>2026-05-20T09:23:19Z</time>
      </trkpt>
      <trkpt lat="47.63083" lon="4.34856">
        <ele>254.4</ele>
        <time>2026-05-20T09:23:20Z</time>
      </trkpt>
      <trkpt lat="47.63086" lon="4.34856">
        <ele>255.2</ele>
        <time>2026-05-20T09:23:21Z</time>
      </trkpt>
      <trkpt lat="47.63088" lon="4.34856">
        <ele>255.4</ele>
        <time>2026-05-20T09:23:22Z</time>
      </trkpt>
      <trkpt lat="47.63092" lon="4.34855">
        <ele>256</ele>
        <time>2026-05-20T09:23:23Z</time>
      </trkpt>
      <trkpt lat="47.63094" lon="4.34854">
        <ele>256.4</ele>
        <time>2026-05-20T09:23:24Z</time>
      </trkpt>
      <trkpt lat="47.63097" lon="4.34852">
        <ele>256.4</ele>
        <time>2026-05-20T09:23:25Z</time>
      </trkpt>
      <trkpt lat="47.63099" lon="4.34849">
        <ele>256.6</ele>
        <time>2026-05-20T09:23:26Z</time>
      </trkpt>
      <trkpt lat="47.63105" lon="4.34848">
        <ele>256.6</ele>
        <time>2026-05-20T09:23:27Z</time>
      </trkpt>
      <trkpt lat="47.63107" lon="4.34848">
        <ele>256.6</ele>
        <time>2026-05-20T09:23:28Z</time>
      </trkpt>
      <trkpt lat="47.63111" lon="4.34846">
        <ele>256.6</ele>
        <time>2026-05-20T09:23:29Z</time>
      </trkpt>
      <trkpt lat="47.63114" lon="4.34844">
        <ele>256.6</ele>
        <time>2026-05-20T09:23:30Z</time>
      </trkpt>
      <trkpt lat="47.63117" lon="4.34844">
        <ele>256.6</ele>
        <time>2026-05-20T09:23:31Z</time>
      </trkpt>
      <trkpt lat="47.63119" lon="4.34843">
        <ele>256.6</ele>
        <time>2026-05-20T09:23:32Z</time>
      </trkpt>
      <trkpt lat="47.6312" lon="4.34842">
        <ele>256.6</ele>
        <time>2026-05-20T09:23:33Z</time>
      </trkpt>
      <trkpt lat="47.63122" lon="4.34841">
        <ele>256.6</ele>
        <time>2026-05-20T09:23:34Z</time>
      </trkpt>
      <trkpt lat="47.63124" lon="4.34841">
        <ele>256.4</ele>
        <time>2026-05-20T09:23:35Z</time>
      </trkpt>
      <trkpt lat="47.63127" lon="4.34837">
        <ele>256.4</ele>
        <time>2026-05-20T09:23:36Z</time>
      </trkpt>
      <trkpt lat="47.63131" lon="4.34833">
        <ele>256.2</ele>
        <time>2026-05-20T09:23:37Z</time>
      </trkpt>
      <trkpt lat="47.63134" lon="4.3483">
        <ele>256.2</ele>
        <time>2026-05-20T09:23:38Z</time>
      </trkpt>
      <trkpt lat="47.63137" lon="4.34829">
        <ele>256.2</ele>
        <time>2026-05-20T09:23:39Z</time>
      </trkpt>
      <trkpt lat="47.63139" lon="4.34826">
        <ele>256.2</ele>
        <time>2026-05-20T09:23:40Z</time>
      </trkpt>
      <trkpt lat="47.63141" lon="4.34824">
        <ele>256</ele>
        <time>2026-05-20T09:23:41Z</time>
      </trkpt>
      <trkpt lat="47.63142" lon="4.34822">
        <ele>255.4</ele>
        <time>2026-05-20T09:23:42Z</time>
      </trkpt>
      <trkpt lat="47.63143" lon="4.34817">
        <ele>255.2</ele>
        <time>2026-05-20T09:23:43Z</time>
      </trkpt>
      <trkpt lat="47.63144" lon="4.34813">
        <ele>254.8</ele>
        <time>2026-05-20T09:23:44Z</time>
      </trkpt>
      <trkpt lat="47.63144" lon="4.34809">
        <ele>254.6</ele>
        <time>2026-05-20T09:23:45Z</time>
      </trkpt>
      <trkpt lat="47.63145" lon="4.34805">
        <ele>254.2</ele>
        <time>2026-05-20T09:23:46Z</time>
      </trkpt>
      <trkpt lat="47.63146" lon="4.34801">
        <ele>253.8</ele>
        <time>2026-05-20T09:23:47Z</time>
      </trkpt>
      <trkpt lat="47.63145" lon="4.34796">
        <ele>252.8</ele>
        <time>2026-05-20T09:23:48Z</time>
      </trkpt>
      <trkpt lat="47.63144" lon="4.34793">
        <ele>252.4</ele>
        <time>2026-05-20T09:23:49Z</time>
      </trkpt>
      <trkpt lat="47.63143" lon="4.34789">
        <ele>251.8</ele>
        <time>2026-05-20T09:23:50Z</time>
      </trkpt>
      <trkpt lat="47.6314" lon="4.34785">
        <ele>251</ele>
        <time>2026-05-20T09:23:51Z</time>
      </trkpt>
      <trkpt lat="47.63138" lon="4.34782">
        <ele>250.6</ele>
        <time>2026-05-20T09:23:52Z</time>
      </trkpt>
      <trkpt lat="47.63137" lon="4.3478">
        <ele>249.6</ele>
        <time>2026-05-20T09:23:53Z</time>
      </trkpt>
      <trkpt lat="47.63136" lon="4.34777">
        <ele>249.2</ele>
        <time>2026-05-20T09:23:54Z</time>
      </trkpt>
      <trkpt lat="47.63134" lon="4.34775">
        <ele>248.6</ele>
        <time>2026-05-20T09:23:55Z</time>
      </trkpt>
      <trkpt lat="47.63132" lon="4.34772">
        <ele>247.8</ele>
        <time>2026-05-20T09:23:56Z</time>
      </trkpt>
      <trkpt lat="47.63129" lon="4.34769">
        <ele>246.8</ele>
        <time>2026-05-20T09:23:57Z</time>
      </trkpt>
      <trkpt lat="47.63128" lon="4.34766">
        <ele>245.6</ele>
        <time>2026-05-20T09:23:58Z</time>
      </trkpt>
      <trkpt lat="47.63126" lon="4.34763">
        <ele>244.2</ele>
        <time>2026-05-20T09:23:59Z</time>
      </trkpt>
      <trkpt lat="47.63121" lon="4.34758">
        <ele>243</ele>
        <time>2026-05-20T09:24:00Z</time>
      </trkpt>
      <trkpt lat="47.63118" lon="4.34754">
        <ele>242.2</ele>
        <time>2026-05-20T09:24:01Z</time>
      </trkpt>
      <trkpt lat="47.63116" lon="4.3475">
        <ele>241</ele>
        <time>2026-05-20T09:24:02Z</time>
      </trkpt>
      <trkpt lat="47.63113" lon="4.34747">
        <ele>240.6</ele>
        <time>2026-05-20T09:24:03Z</time>
      </trkpt>
      <trkpt lat="47.63111" lon="4.34742">
        <ele>239.8</ele>
        <time>2026-05-20T09:24:04Z</time>
      </trkpt>
      <trkpt lat="47.63109" lon="4.34739">
        <ele>239.4</ele>
        <time>2026-05-20T09:24:05Z</time>
      </trkpt>
      <trkpt lat="47.63107" lon="4.34735">
        <ele>238.2</ele>
        <time>2026-05-20T09:24:06Z</time>
      </trkpt>
      <trkpt lat="47.63104" lon="4.34732">
        <ele>237.6</ele>
        <time>2026-05-20T09:24:07Z</time>
      </trkpt>
      <trkpt lat="47.63101" lon="4.34729">
        <ele>236.4</ele>
        <time>2026-05-20T09:24:08Z</time>
      </trkpt>
      <trkpt lat="47.63099" lon="4.34727">
        <ele>235.6</ele>
        <time>2026-05-20T09:24:09Z</time>
      </trkpt>
      <trkpt lat="47.63097" lon="4.34723">
        <ele>234.4</ele>
        <time>2026-05-20T09:24:10Z</time>
      </trkpt>
      <trkpt lat="47.63096" lon="4.34719">
        <ele>233.4</ele>
        <time>2026-05-20T09:24:11Z</time>
      </trkpt>
      <trkpt lat="47.63095" lon="4.34715">
        <ele>233</ele>
        <time>2026-05-20T09:24:12Z</time>
      </trkpt>
      <trkpt lat="47.63094" lon="4.3471">
        <ele>232.4</ele>
        <time>2026-05-20T09:24:13Z</time>
      </trkpt>
      <trkpt lat="47.63095" lon="4.34706">
        <ele>231.6</ele>
        <time>2026-05-20T09:24:14Z</time>
      </trkpt>
      <trkpt lat="47.63095" lon="4.34702">
        <ele>230.8</ele>
        <time>2026-05-20T09:24:15Z</time>
      </trkpt>
      <trkpt lat="47.63096" lon="4.34698">
        <ele>230.4</ele>
        <time>2026-05-20T09:24:16Z</time>
      </trkpt>
      <trkpt lat="47.63098" lon="4.34694">
        <ele>230</ele>
        <time>2026-05-20T09:24:17Z</time>
      </trkpt>
      <trkpt lat="47.63099" lon="4.34689">
        <ele>230</ele>
        <time>2026-05-20T09:24:18Z</time>
      </trkpt>
      <trkpt lat="47.631" lon="4.34685">
        <ele>229.8</ele>
        <time>2026-05-20T09:24:19Z</time>
      </trkpt>
      <trkpt lat="47.63102" lon="4.3468">
        <ele>229.6</ele>
        <time>2026-05-20T09:24:20Z</time>
      </trkpt>
      <trkpt lat="47.63103" lon="4.34677">
        <ele>229.6</ele>
        <time>2026-05-20T09:24:21Z</time>
      </trkpt>
      <trkpt lat="47.63105" lon="4.34672">
        <ele>229.6</ele>
        <time>2026-05-20T09:24:22Z</time>
      </trkpt>
      <trkpt lat="47.63107" lon="4.34668">
        <ele>229.6</ele>
        <time>2026-05-20T09:24:23Z</time>
      </trkpt>
      <trkpt lat="47.63108" lon="4.34662">
        <ele>229.6</ele>
        <time>2026-05-20T09:24:24Z</time>
      </trkpt>
      <trkpt lat="47.6311" lon="4.34658">
        <ele>229.6</ele>
        <time>2026-05-20T09:24:25Z</time>
      </trkpt>
      <trkpt lat="47.63112" lon="4.34654">
        <ele>229.6</ele>
        <time>2026-05-20T09:24:26Z</time>
      </trkpt>
      <trkpt lat="47.63114" lon="4.34648">
        <ele>229.6</ele>
        <time>2026-05-20T09:24:27Z</time>
      </trkpt>
      <trkpt lat="47.63115" lon="4.34645">
        <ele>229.8</ele>
        <time>2026-05-20T09:24:28Z</time>
      </trkpt>
      <trkpt lat="47.63117" lon="4.34639">
        <ele>230</ele>
        <time>2026-05-20T09:24:29Z</time>
      </trkpt>
      <trkpt lat="47.63118" lon="4.34636">
        <ele>230</ele>
        <time>2026-05-20T09:24:30Z</time>
      </trkpt>
      <trkpt lat="47.6312" lon="4.34631">
        <ele>230.4</ele>
        <time>2026-05-20T09:24:31Z</time>
      </trkpt>
      <trkpt lat="47.63121" lon="4.34627">
        <ele>230.6</ele>
        <time>2026-05-20T09:24:32Z</time>
      </trkpt>
      <trkpt lat="47.63123" lon="4.34622">
        <ele>230.8</ele>
        <time>2026-05-20T09:24:33Z</time>
      </trkpt>
      <trkpt lat="47.63124" lon="4.34618">
        <ele>230.8</ele>
        <time>2026-05-20T09:24:34Z</time>
      </trkpt>
      <trkpt lat="47.63126" lon="4.34613">
        <ele>231</ele>
        <time>2026-05-20T09:24:35Z</time>
      </trkpt>
      <trkpt lat="47.63128" lon="4.34609">
        <ele>231</ele>
        <time>2026-05-20T09:24:36Z</time>
      </trkpt>
      <trkpt lat="47.63129" lon="4.34604">
        <ele>231.2</ele>
        <time>2026-05-20T09:24:37Z</time>
      </trkpt>
      <trkpt lat="47.63131" lon="4.346">
        <ele>231.2</ele>
        <time>2026-05-20T09:24:38Z</time>
      </trkpt>
      <trkpt lat="47.63133" lon="4.34596">
        <ele>231.4</ele>
        <time>2026-05-20T09:24:39Z</time>
      </trkpt>
      <trkpt lat="47.63134" lon="4.34591">
        <ele>231.6</ele>
        <time>2026-05-20T09:24:40Z</time>
      </trkpt>
      <trkpt lat="47.63136" lon="4.34587">
        <ele>231.6</ele>
        <time>2026-05-20T09:24:41Z</time>
      </trkpt>
      <trkpt lat="47.63138" lon="4.34582">
        <ele>231.8</ele>
        <time>2026-05-20T09:24:42Z</time>
      </trkpt>
      <trkpt lat="47.63139" lon="4.34578">
        <ele>232</ele>
        <time>2026-05-20T09:24:43Z</time>
      </trkpt>
      <trkpt lat="47.63141" lon="4.34574">
        <ele>232</ele>
        <time>2026-05-20T09:24:44Z</time>
      </trkpt>
      <trkpt lat="47.63143" lon="4.34569">
        <ele>232</ele>
        <time>2026-05-20T09:24:45Z</time>
      </trkpt>
      <trkpt lat="47.63144" lon="4.34566">
        <ele>232.2</ele>
        <time>2026-05-20T09:24:46Z</time>
      </trkpt>
      <trkpt lat="47.63146" lon="4.34562">
        <ele>232.4</ele>
        <time>2026-05-20T09:24:47Z</time>
      </trkpt>
      <trkpt lat="47.63147" lon="4.34558">
        <ele>232.6</ele>
        <time>2026-05-20T09:24:48Z</time>
      </trkpt>
      <trkpt lat="47.63149" lon="4.34554">
        <ele>232.6</ele>
        <time>2026-05-20T09:24:49Z</time>
      </trkpt>
      <trkpt lat="47.6315" lon="4.3455">
        <ele>232.6</ele>
        <time>2026-05-20T09:24:50Z</time>
      </trkpt>
      <trkpt lat="47.63152" lon="4.34548">
        <ele>232.6</ele>
        <time>2026-05-20T09:24:51Z</time>
      </trkpt>
      <trkpt lat="47.63154" lon="4.34545">
        <ele>232.8</ele>
        <time>2026-05-20T09:24:52Z</time>
      </trkpt>
      <trkpt lat="47.63156" lon="4.34541">
        <ele>233</ele>
        <time>2026-05-20T09:24:53Z</time>
      </trkpt>
      <trkpt lat="47.63158" lon="4.34539">
        <ele>233.2</ele>
        <time>2026-05-20T09:24:54Z</time>
      </trkpt>
      <trkpt lat="47.63162" lon="4.34535">
        <ele>233.2</ele>
        <time>2026-05-20T09:24:55Z</time>
      </trkpt>
      <trkpt lat="47.63164" lon="4.34532">
        <ele>233.4</ele>
        <time>2026-05-20T09:24:56Z</time>
      </trkpt>
      <trkpt lat="47.63167" lon="4.3453">
        <ele>233.6</ele>
        <time>2026-05-20T09:24:57Z</time>
      </trkpt>
      <trkpt lat="47.63169" lon="4.34529">
        <ele>233.8</ele>
        <time>2026-05-20T09:24:58Z</time>
      </trkpt>
      <trkpt lat="47.63173" lon="4.34526">
        <ele>233.8</ele>
        <time>2026-05-20T09:24:59Z</time>
      </trkpt>
      <trkpt lat="47.63176" lon="4.34524">
        <ele>234</ele>
        <time>2026-05-20T09:25:00Z</time>
      </trkpt>
      <trkpt lat="47.63178" lon="4.34522">
        <ele>234</ele>
        <time>2026-05-20T09:25:01Z</time>
      </trkpt>
      <trkpt lat="47.63181" lon="4.34521">
        <ele>234.4</ele>
        <time>2026-05-20T09:25:02Z</time>
      </trkpt>
      <trkpt lat="47.63184" lon="4.3452">
        <ele>234.6</ele>
        <time>2026-05-20T09:25:03Z</time>
      </trkpt>
      <trkpt lat="47.63186" lon="4.34519">
        <ele>234.8</ele>
        <time>2026-05-20T09:25:04Z</time>
      </trkpt>
      <trkpt lat="47.6319" lon="4.34518">
        <ele>235</ele>
        <time>2026-05-20T09:25:05Z</time>
      </trkpt>
      <trkpt lat="47.63193" lon="4.34517">
        <ele>235.2</ele>
        <time>2026-05-20T09:25:06Z</time>
      </trkpt>
      <trkpt lat="47.63196" lon="4.34517">
        <ele>235.4</ele>
        <time>2026-05-20T09:25:07Z</time>
      </trkpt>
      <trkpt lat="47.63199" lon="4.34517">
        <ele>235.6</ele>
        <time>2026-05-20T09:25:08Z</time>
      </trkpt>
      <trkpt lat="47.63203" lon="4.34517">
        <ele>235.6</ele>
        <time>2026-05-20T09:25:09Z</time>
      </trkpt>
      <trkpt lat="47.63206" lon="4.34517">
        <ele>235.8</ele>
        <time>2026-05-20T09:25:10Z</time>
      </trkpt>
      <trkpt lat="47.63209" lon="4.34517">
        <ele>236</ele>
        <time>2026-05-20T09:25:11Z</time>
      </trkpt>
      <trkpt lat="47.63213" lon="4.34517">
        <ele>236</ele>
        <time>2026-05-20T09:25:12Z</time>
      </trkpt>
      <trkpt lat="47.63216" lon="4.34516">
        <ele>236.2</ele>
        <time>2026-05-20T09:25:13Z</time>
      </trkpt>
      <trkpt lat="47.6322" lon="4.34515">
        <ele>236.4</ele>
        <time>2026-05-20T09:25:14Z</time>
      </trkpt>
      <trkpt lat="47.63223" lon="4.34515">
        <ele>236.6</ele>
        <time>2026-05-20T09:25:15Z</time>
      </trkpt>
      <trkpt lat="47.63226" lon="4.34515">
        <ele>236.8</ele>
        <time>2026-05-20T09:25:16Z</time>
      </trkpt>
      <trkpt lat="47.6323" lon="4.34515">
        <ele>236.8</ele>
        <time>2026-05-20T09:25:17Z</time>
      </trkpt>
      <trkpt lat="47.63233" lon="4.34516">
        <ele>237</ele>
        <time>2026-05-20T09:25:18Z</time>
      </trkpt>
      <trkpt lat="47.63237" lon="4.34516">
        <ele>237.2</ele>
        <time>2026-05-20T09:25:19Z</time>
      </trkpt>
      <trkpt lat="47.63241" lon="4.34515">
        <ele>237.4</ele>
        <time>2026-05-20T09:25:20Z</time>
      </trkpt>
      <trkpt lat="47.63246" lon="4.34515">
        <ele>237.4</ele>
        <time>2026-05-20T09:25:21Z</time>
      </trkpt>
      <trkpt lat="47.63249" lon="4.34515">
        <ele>237.6</ele>
        <time>2026-05-20T09:25:22Z</time>
      </trkpt>
      <trkpt lat="47.63253" lon="4.34514">
        <ele>237.8</ele>
        <time>2026-05-20T09:25:23Z</time>
      </trkpt>
      <trkpt lat="47.63257" lon="4.34513">
        <ele>238</ele>
        <time>2026-05-20T09:25:24Z</time>
      </trkpt>
      <trkpt lat="47.63261" lon="4.34512">
        <ele>238.2</ele>
        <time>2026-05-20T09:25:25Z</time>
      </trkpt>
      <trkpt lat="47.63264" lon="4.34511">
        <ele>238.2</ele>
        <time>2026-05-20T09:25:26Z</time>
      </trkpt>
      <trkpt lat="47.63264" lon="4.34511">
        <ele>238.4</ele>
        <time>2026-05-20T09:25:27Z</time>
      </trkpt>
      <trkpt lat="47.6327" lon="4.3451">
        <ele>238.4</ele>
        <time>2026-05-20T09:25:28Z</time>
      </trkpt>
      <trkpt lat="47.63273" lon="4.34509">
        <ele>238.6</ele>
        <time>2026-05-20T09:25:29Z</time>
      </trkpt>
      <trkpt lat="47.63276" lon="4.34507">
        <ele>238.8</ele>
        <time>2026-05-20T09:25:30Z</time>
      </trkpt>
      <trkpt lat="47.63279" lon="4.34506">
        <ele>239</ele>
        <time>2026-05-20T09:25:31Z</time>
      </trkpt>
      <trkpt lat="47.63281" lon="4.34505">
        <ele>239</ele>
        <time>2026-05-20T09:25:32Z</time>
      </trkpt>
      <trkpt lat="47.63284" lon="4.34504">
        <ele>239.2</ele>
        <time>2026-05-20T09:25:33Z</time>
      </trkpt>
      <trkpt lat="47.63288" lon="4.34504">
        <ele>239.2</ele>
        <time>2026-05-20T09:25:34Z</time>
      </trkpt>
      <trkpt lat="47.63291" lon="4.34503">
        <ele>239.2</ele>
        <time>2026-05-20T09:25:35Z</time>
      </trkpt>
      <trkpt lat="47.63294" lon="4.34502">
        <ele>239.4</ele>
        <time>2026-05-20T09:25:36Z</time>
      </trkpt>
      <trkpt lat="47.63296" lon="4.34501">
        <ele>239.4</ele>
        <time>2026-05-20T09:25:37Z</time>
      </trkpt>
      <trkpt lat="47.63299" lon="4.345">
        <ele>239.6</ele>
        <time>2026-05-20T09:25:38Z</time>
      </trkpt>
      <trkpt lat="47.63302" lon="4.34499">
        <ele>239.6</ele>
        <time>2026-05-20T09:25:39Z</time>
      </trkpt>
      <trkpt lat="47.63306" lon="4.34499">
        <ele>239.8</ele>
        <time>2026-05-20T09:25:40Z</time>
      </trkpt>
      <trkpt lat="47.63309" lon="4.34498">
        <ele>239.8</ele>
        <time>2026-05-20T09:25:41Z</time>
      </trkpt>
      <trkpt lat="47.63312" lon="4.34497">
        <ele>240</ele>
        <time>2026-05-20T09:25:42Z</time>
      </trkpt>
      <trkpt lat="47.63315" lon="4.34496">
        <ele>240</ele>
        <time>2026-05-20T09:25:43Z</time>
      </trkpt>
      <trkpt lat="47.63319" lon="4.34496">
        <ele>240</ele>
        <time>2026-05-20T09:25:44Z</time>
      </trkpt>
      <trkpt lat="47.63322" lon="4.34495">
        <ele>240.2</ele>
        <time>2026-05-20T09:25:45Z</time>
      </trkpt>
      <trkpt lat="47.63326" lon="4.34494">
        <ele>240.4</ele>
        <time>2026-05-20T09:25:46Z</time>
      </trkpt>
      <trkpt lat="47.63326" lon="4.34494">
        <ele>240.6</ele>
        <time>2026-05-20T09:25:47Z</time>
      </trkpt>
      <trkpt lat="47.63331" lon="4.34494">
        <ele>240.6</ele>
        <time>2026-05-20T09:25:48Z</time>
      </trkpt>
      <trkpt lat="47.63335" lon="4.34494">
        <ele>240.8</ele>
        <time>2026-05-20T09:25:49Z</time>
      </trkpt>
      <trkpt lat="47.63338" lon="4.34493">
        <ele>240.8</ele>
        <time>2026-05-20T09:25:50Z</time>
      </trkpt>
      <trkpt lat="47.63342" lon="4.34493">
        <ele>241</ele>
        <time>2026-05-20T09:25:51Z</time>
      </trkpt>
      <trkpt lat="47.63344" lon="4.34493">
        <ele>241</ele>
        <time>2026-05-20T09:25:52Z</time>
      </trkpt>
      <trkpt lat="47.63347" lon="4.34493">
        <ele>241.2</ele>
        <time>2026-05-20T09:25:53Z</time>
      </trkpt>
      <trkpt lat="47.63351" lon="4.34493">
        <ele>241.4</ele>
        <time>2026-05-20T09:25:54Z</time>
      </trkpt>
      <trkpt lat="47.63354" lon="4.34492">
        <ele>241.4</ele>
        <time>2026-05-20T09:25:55Z</time>
      </trkpt>
      <trkpt lat="47.63357" lon="4.34493">
        <ele>241.6</ele>
        <time>2026-05-20T09:25:56Z</time>
      </trkpt>
      <trkpt lat="47.6336" lon="4.34493">
        <ele>241.8</ele>
        <time>2026-05-20T09:25:57Z</time>
      </trkpt>
      <trkpt lat="47.63364" lon="4.34493">
        <ele>242</ele>
        <time>2026-05-20T09:25:58Z</time>
      </trkpt>
      <trkpt lat="47.63368" lon="4.34492">
        <ele>242</ele>
        <time>2026-05-20T09:25:59Z</time>
      </trkpt>
      <trkpt lat="47.6337" lon="4.34492">
        <ele>242.2</ele>
        <time>2026-05-20T09:26:00Z</time>
      </trkpt>
      <trkpt lat="47.63374" lon="4.34491">
        <ele>242.4</ele>
        <time>2026-05-20T09:26:01Z</time>
      </trkpt>
      <trkpt lat="47.63377" lon="4.34489">
        <ele>242.4</ele>
        <time>2026-05-20T09:26:02Z</time>
      </trkpt>
      <trkpt lat="47.63381" lon="4.34489">
        <ele>242.6</ele>
        <time>2026-05-20T09:26:03Z</time>
      </trkpt>
      <trkpt lat="47.63385" lon="4.34489">
        <ele>242.8</ele>
        <time>2026-05-20T09:26:04Z</time>
      </trkpt>
      <trkpt lat="47.63389" lon="4.34488">
        <ele>243</ele>
        <time>2026-05-20T09:26:05Z</time>
      </trkpt>
      <trkpt lat="47.63393" lon="4.34487">
        <ele>243.2</ele>
        <time>2026-05-20T09:26:06Z</time>
      </trkpt>
      <trkpt lat="47.63396" lon="4.34487">
        <ele>243.4</ele>
        <time>2026-05-20T09:26:07Z</time>
      </trkpt>
      <trkpt lat="47.634" lon="4.34487">
        <ele>243.6</ele>
        <time>2026-05-20T09:26:08Z</time>
      </trkpt>
      <trkpt lat="47.63404" lon="4.34486">
        <ele>243.6</ele>
        <time>2026-05-20T09:26:09Z</time>
      </trkpt>
      <trkpt lat="47.63408" lon="4.34486">
        <ele>243.8</ele>
        <time>2026-05-20T09:26:10Z</time>
      </trkpt>
      <trkpt lat="47.63412" lon="4.34486">
        <ele>243.8</ele>
        <time>2026-05-20T09:26:11Z</time>
      </trkpt>
      <trkpt lat="47.63414" lon="4.34486">
        <ele>244.2</ele>
        <time>2026-05-20T09:26:12Z</time>
      </trkpt>
      <trkpt lat="47.63417" lon="4.34486">
        <ele>244.2</ele>
        <time>2026-05-20T09:26:13Z</time>
      </trkpt>
      <trkpt lat="47.6342" lon="4.34486">
        <ele>244.4</ele>
        <time>2026-05-20T09:26:14Z</time>
      </trkpt>
      <trkpt lat="47.63423" lon="4.34486">
        <ele>244.4</ele>
        <time>2026-05-20T09:26:15Z</time>
      </trkpt>
      <trkpt lat="47.63426" lon="4.34487">
        <ele>244.6</ele>
        <time>2026-05-20T09:26:16Z</time>
      </trkpt>
      <trkpt lat="47.63428" lon="4.34487">
        <ele>244.8</ele>
        <time>2026-05-20T09:26:17Z</time>
      </trkpt>
      <trkpt lat="47.63432" lon="4.34487">
        <ele>245</ele>
        <time>2026-05-20T09:26:18Z</time>
      </trkpt>
      <trkpt lat="47.63435" lon="4.34487">
        <ele>245</ele>
        <time>2026-05-20T09:26:19Z</time>
      </trkpt>
      <trkpt lat="47.63439" lon="4.34486">
        <ele>245.2</ele>
        <time>2026-05-20T09:26:20Z</time>
      </trkpt>
      <trkpt lat="47.63443" lon="4.34485">
        <ele>245.4</ele>
        <time>2026-05-20T09:26:21Z</time>
      </trkpt>
      <trkpt lat="47.63446" lon="4.34485">
        <ele>245.4</ele>
        <time>2026-05-20T09:26:22Z</time>
      </trkpt>
      <trkpt lat="47.63449" lon="4.34484">
        <ele>245.6</ele>
        <time>2026-05-20T09:26:23Z</time>
      </trkpt>
      <trkpt lat="47.63453" lon="4.34484">
        <ele>245.6</ele>
        <time>2026-05-20T09:26:24Z</time>
      </trkpt>
      <trkpt lat="47.63456" lon="4.34484">
        <ele>245.8</ele>
        <time>2026-05-20T09:26:25Z</time>
      </trkpt>
      <trkpt lat="47.63459" lon="4.34484">
        <ele>246</ele>
        <time>2026-05-20T09:26:26Z</time>
      </trkpt>
      <trkpt lat="47.63462" lon="4.34483">
        <ele>246.2</ele>
        <time>2026-05-20T09:26:27Z</time>
      </trkpt>
      <trkpt lat="47.63464" lon="4.34483">
        <ele>246.4</ele>
        <time>2026-05-20T09:26:28Z</time>
      </trkpt>
      <trkpt lat="47.63468" lon="4.34483">
        <ele>246.6</ele>
        <time>2026-05-20T09:26:29Z</time>
      </trkpt>
      <trkpt lat="47.63472" lon="4.34482">
        <ele>246.6</ele>
        <time>2026-05-20T09:26:30Z</time>
      </trkpt>
      <trkpt lat="47.63475" lon="4.34482">
        <ele>246.6</ele>
        <time>2026-05-20T09:26:31Z</time>
      </trkpt>
      <trkpt lat="47.63478" lon="4.34482">
        <ele>247</ele>
        <time>2026-05-20T09:26:32Z</time>
      </trkpt>
      <trkpt lat="47.63482" lon="4.34482">
        <ele>247</ele>
        <time>2026-05-20T09:26:33Z</time>
      </trkpt>
      <trkpt lat="47.63486" lon="4.34482">
        <ele>247.2</ele>
        <time>2026-05-20T09:26:34Z</time>
      </trkpt>
      <trkpt lat="47.6349" lon="4.34481">
        <ele>247.4</ele>
        <time>2026-05-20T09:26:35Z</time>
      </trkpt>
      <trkpt lat="47.63493" lon="4.34481">
        <ele>247.6</ele>
        <time>2026-05-20T09:26:36Z</time>
      </trkpt>
      <trkpt lat="47.63497" lon="4.34481">
        <ele>247.6</ele>
        <time>2026-05-20T09:26:37Z</time>
      </trkpt>
      <trkpt lat="47.635" lon="4.34482">
        <ele>247.8</ele>
        <time>2026-05-20T09:26:38Z</time>
      </trkpt>
      <trkpt lat="47.63504" lon="4.34482">
        <ele>247.8</ele>
        <time>2026-05-20T09:26:39Z</time>
      </trkpt>
      <trkpt lat="47.63507" lon="4.34483">
        <ele>248</ele>
        <time>2026-05-20T09:26:40Z</time>
      </trkpt>
      <trkpt lat="47.63511" lon="4.34483">
        <ele>248.2</ele>
        <time>2026-05-20T09:26:41Z</time>
      </trkpt>
      <trkpt lat="47.63514" lon="4.34482">
        <ele>248.4</ele>
        <time>2026-05-20T09:26:42Z</time>
      </trkpt>
      <trkpt lat="47.63517" lon="4.34483">
        <ele>248.6</ele>
        <time>2026-05-20T09:26:43Z</time>
      </trkpt>
      <trkpt lat="47.63521" lon="4.34483">
        <ele>248.8</ele>
        <time>2026-05-20T09:26:44Z</time>
      </trkpt>
      <trkpt lat="47.63525" lon="4.34483">
        <ele>248.8</ele>
        <time>2026-05-20T09:26:45Z</time>
      </trkpt>
      <trkpt lat="47.63528" lon="4.34484">
        <ele>249</ele>
        <time>2026-05-20T09:26:46Z</time>
      </trkpt>
      <trkpt lat="47.63532" lon="4.34484">
        <ele>249.2</ele>
        <time>2026-05-20T09:26:47Z</time>
      </trkpt>
      <trkpt lat="47.63534" lon="4.34484">
        <ele>249.4</ele>
        <time>2026-05-20T09:26:48Z</time>
      </trkpt>
      <trkpt lat="47.63537" lon="4.34485">
        <ele>249.4</ele>
        <time>2026-05-20T09:26:49Z</time>
      </trkpt>
      <trkpt lat="47.63541" lon="4.34484">
        <ele>249.4</ele>
        <time>2026-05-20T09:26:50Z</time>
      </trkpt>
      <trkpt lat="47.63544" lon="4.34484">
        <ele>249.6</ele>
        <time>2026-05-20T09:26:51Z</time>
      </trkpt>
      <trkpt lat="47.63547" lon="4.34485">
        <ele>249.6</ele>
        <time>2026-05-20T09:26:52Z</time>
      </trkpt>
      <trkpt lat="47.6355" lon="4.34485">
        <ele>249.8</ele>
        <time>2026-05-20T09:26:53Z</time>
      </trkpt>
      <trkpt lat="47.63554" lon="4.34485">
        <ele>250</ele>
        <time>2026-05-20T09:26:54Z</time>
      </trkpt>
      <trkpt lat="47.63557" lon="4.34487">
        <ele>250</ele>
        <time>2026-05-20T09:26:55Z</time>
      </trkpt>
      <trkpt lat="47.6356" lon="4.34487">
        <ele>250.2</ele>
        <time>2026-05-20T09:26:56Z</time>
      </trkpt>
      <trkpt lat="47.63563" lon="4.34488">
        <ele>250.4</ele>
        <time>2026-05-20T09:26:57Z</time>
      </trkpt>
      <trkpt lat="47.63566" lon="4.34488">
        <ele>250.4</ele>
        <time>2026-05-20T09:26:58Z</time>
      </trkpt>
      <trkpt lat="47.63569" lon="4.34488">
        <ele>250.4</ele>
        <time>2026-05-20T09:26:59Z</time>
      </trkpt>
      <trkpt lat="47.63573" lon="4.3449">
        <ele>250.6</ele>
        <time>2026-05-20T09:27:00Z</time>
      </trkpt>
      <trkpt lat="47.63576" lon="4.3449">
        <ele>251</ele>
        <time>2026-05-20T09:27:01Z</time>
      </trkpt>
      <trkpt lat="47.63579" lon="4.34491">
        <ele>251</ele>
        <time>2026-05-20T09:27:02Z</time>
      </trkpt>
      <trkpt lat="47.6358" lon="4.34491">
        <ele>251.2</ele>
        <time>2026-05-20T09:27:03Z</time>
      </trkpt>
      <trkpt lat="47.63583" lon="4.34492">
        <ele>251.2</ele>
        <time>2026-05-20T09:27:04Z</time>
      </trkpt>
      <trkpt lat="47.63586" lon="4.34493">
        <ele>251.4</ele>
        <time>2026-05-20T09:27:05Z</time>
      </trkpt>
      <trkpt lat="47.63589" lon="4.34495">
        <ele>251.6</ele>
        <time>2026-05-20T09:27:06Z</time>
      </trkpt>
      <trkpt lat="47.63592" lon="4.34496">
        <ele>251.6</ele>
        <time>2026-05-20T09:27:07Z</time>
      </trkpt>
      <trkpt lat="47.63595" lon="4.34498">
        <ele>251.8</ele>
        <time>2026-05-20T09:27:08Z</time>
      </trkpt>
      <trkpt lat="47.63598" lon="4.34499">
        <ele>251.8</ele>
        <time>2026-05-20T09:27:09Z</time>
      </trkpt>
      <trkpt lat="47.63601" lon="4.34501">
        <ele>252</ele>
        <time>2026-05-20T09:27:10Z</time>
      </trkpt>
      <trkpt lat="47.63604" lon="4.34502">
        <ele>252</ele>
        <time>2026-05-20T09:27:11Z</time>
      </trkpt>
      <trkpt lat="47.63607" lon="4.34502">
        <ele>252.4</ele>
        <time>2026-05-20T09:27:12Z</time>
      </trkpt>
      <trkpt lat="47.6361" lon="4.34503">
        <ele>252.4</ele>
        <time>2026-05-20T09:27:13Z</time>
      </trkpt>
      <trkpt lat="47.63613" lon="4.34505">
        <ele>252.6</ele>
        <time>2026-05-20T09:27:14Z</time>
      </trkpt>
      <trkpt lat="47.63615" lon="4.34506">
        <ele>252.8</ele>
        <time>2026-05-20T09:27:15Z</time>
      </trkpt>
      <trkpt lat="47.63619" lon="4.34507">
        <ele>252.8</ele>
        <time>2026-05-20T09:27:16Z</time>
      </trkpt>
      <trkpt lat="47.63622" lon="4.34507">
        <ele>253</ele>
        <time>2026-05-20T09:27:17Z</time>
      </trkpt>
      <trkpt lat="47.63625" lon="4.34508">
        <ele>253.6</ele>
        <time>2026-05-20T09:27:18Z</time>
      </trkpt>
      <trkpt lat="47.63628" lon="4.34509">
        <ele>253.8</ele>
        <time>2026-05-20T09:27:19Z</time>
      </trkpt>
      <trkpt lat="47.63631" lon="4.34509">
        <ele>254</ele>
        <time>2026-05-20T09:27:20Z</time>
      </trkpt>
      <trkpt lat="47.63635" lon="4.34509">
        <ele>254</ele>
        <time>2026-05-20T09:27:21Z</time>
      </trkpt>
      <trkpt lat="47.63639" lon="4.3451">
        <ele>254.2</ele>
        <time>2026-05-20T09:27:22Z</time>
      </trkpt>
      <trkpt lat="47.63642" lon="4.34512">
        <ele>254.4</ele>
        <time>2026-05-20T09:27:23Z</time>
      </trkpt>
      <trkpt lat="47.63644" lon="4.34513">
        <ele>254.6</ele>
        <time>2026-05-20T09:27:24Z</time>
      </trkpt>
      <trkpt lat="47.63647" lon="4.34515">
        <ele>254.8</ele>
        <time>2026-05-20T09:27:25Z</time>
      </trkpt>
      <trkpt lat="47.6365" lon="4.34517">
        <ele>254.8</ele>
        <time>2026-05-20T09:27:26Z</time>
      </trkpt>
      <trkpt lat="47.63652" lon="4.34518">
        <ele>255.2</ele>
        <time>2026-05-20T09:27:27Z</time>
      </trkpt>
      <trkpt lat="47.63654" lon="4.34519">
        <ele>255.4</ele>
        <time>2026-05-20T09:27:28Z</time>
      </trkpt>
      <trkpt lat="47.63657" lon="4.3452">
        <ele>255.6</ele>
        <time>2026-05-20T09:27:29Z</time>
      </trkpt>
      <trkpt lat="47.63659" lon="4.34522">
        <ele>255.8</ele>
        <time>2026-05-20T09:27:30Z</time>
      </trkpt>
      <trkpt lat="47.63662" lon="4.34525">
        <ele>255.8</ele>
        <time>2026-05-20T09:27:31Z</time>
      </trkpt>
      <trkpt lat="47.63664" lon="4.34527">
        <ele>256</ele>
        <time>2026-05-20T09:27:32Z</time>
      </trkpt>
      <trkpt lat="47.63666" lon="4.34528">
        <ele>256.2</ele>
        <time>2026-05-20T09:27:33Z</time>
      </trkpt>
      <trkpt lat="47.63667" lon="4.34528">
        <ele>256.4</ele>
        <time>2026-05-20T09:27:34Z</time>
      </trkpt>
      <trkpt lat="47.63669" lon="4.34529">
        <ele>256.6</ele>
        <time>2026-05-20T09:27:35Z</time>
      </trkpt>
      <trkpt lat="47.63671" lon="4.34531">
        <ele>256.8</ele>
        <time>2026-05-20T09:27:36Z</time>
      </trkpt>
      <trkpt lat="47.63673" lon="4.34532">
        <ele>257</ele>
        <time>2026-05-20T09:27:37Z</time>
      </trkpt>
      <trkpt lat="47.63675" lon="4.34534">
        <ele>256.8</ele>
        <time>2026-05-20T09:27:38Z</time>
      </trkpt>
      <trkpt lat="47.63676" lon="4.34536">
        <ele>257.2</ele>
        <time>2026-05-20T09:27:39Z</time>
      </trkpt>
      <trkpt lat="47.63678" lon="4.34537">
        <ele>257.4</ele>
        <time>2026-05-20T09:27:40Z</time>
      </trkpt>
      <trkpt lat="47.63681" lon="4.34539">
        <ele>257.4</ele>
        <time>2026-05-20T09:27:41Z</time>
      </trkpt>
      <trkpt lat="47.63682" lon="4.34541">
        <ele>257.4</ele>
        <time>2026-05-20T09:27:42Z</time>
      </trkpt>
      <trkpt lat="47.63684" lon="4.34543">
        <ele>257.6</ele>
        <time>2026-05-20T09:27:43Z</time>
      </trkpt>
      <trkpt lat="47.63687" lon="4.34545">
        <ele>257.6</ele>
        <time>2026-05-20T09:27:44Z</time>
      </trkpt>
      <trkpt lat="47.63689" lon="4.34547">
        <ele>258</ele>
        <time>2026-05-20T09:27:45Z</time>
      </trkpt>
      <trkpt lat="47.63691" lon="4.34549">
        <ele>258.2</ele>
        <time>2026-05-20T09:27:46Z</time>
      </trkpt>
      <trkpt lat="47.63693" lon="4.34551">
        <ele>258.4</ele>
        <time>2026-05-20T09:27:47Z</time>
      </trkpt>
      <trkpt lat="47.63695" lon="4.34553">
        <ele>258.6</ele>
        <time>2026-05-20T09:27:48Z</time>
      </trkpt>
      <trkpt lat="47.63697" lon="4.34556">
        <ele>258.6</ele>
        <time>2026-05-20T09:27:49Z</time>
      </trkpt>
      <trkpt lat="47.63699" lon="4.34559">
        <ele>259</ele>
        <time>2026-05-20T09:27:50Z</time>
      </trkpt>
      <trkpt lat="47.63701" lon="4.34561">
        <ele>259</ele>
        <time>2026-05-20T09:27:51Z</time>
      </trkpt>
      <trkpt lat="47.63704" lon="4.34564">
        <ele>259.4</ele>
        <time>2026-05-20T09:27:52Z</time>
      </trkpt>
      <trkpt lat="47.63708" lon="4.34568">
        <ele>259.6</ele>
        <time>2026-05-20T09:27:53Z</time>
      </trkpt>
      <trkpt lat="47.6371" lon="4.34571">
        <ele>259.8</ele>
        <time>2026-05-20T09:27:54Z</time>
      </trkpt>
      <trkpt lat="47.63712" lon="4.34573">
        <ele>260</ele>
        <time>2026-05-20T09:27:55Z</time>
      </trkpt>
      <trkpt lat="47.63714" lon="4.34576">
        <ele>260.6</ele>
        <time>2026-05-20T09:27:56Z</time>
      </trkpt>
      <trkpt lat="47.63716" lon="4.34579">
        <ele>261</ele>
        <time>2026-05-20T09:27:57Z</time>
      </trkpt>
      <trkpt lat="47.63719" lon="4.34582">
        <ele>261.2</ele>
        <time>2026-05-20T09:27:58Z</time>
      </trkpt>
      <trkpt lat="47.63721" lon="4.34584">
        <ele>261.4</ele>
        <time>2026-05-20T09:27:59Z</time>
      </trkpt>
      <trkpt lat="47.63724" lon="4.34585">
        <ele>261.6</ele>
        <time>2026-05-20T09:28:00Z</time>
      </trkpt>
      <trkpt lat="47.63727" lon="4.34588">
        <ele>261.6</ele>
        <time>2026-05-20T09:28:01Z</time>
      </trkpt>
      <trkpt lat="47.6373" lon="4.34592">
        <ele>261.8</ele>
        <time>2026-05-20T09:28:02Z</time>
      </trkpt>
      <trkpt lat="47.63732" lon="4.34594">
        <ele>262</ele>
        <time>2026-05-20T09:28:03Z</time>
      </trkpt>
      <trkpt lat="47.63734" lon="4.34598">
        <ele>262.2</ele>
        <time>2026-05-20T09:28:04Z</time>
      </trkpt>
      <trkpt lat="47.63735" lon="4.34601">
        <ele>262.4</ele>
        <time>2026-05-20T09:28:05Z</time>
      </trkpt>
      <trkpt lat="47.63737" lon="4.34605">
        <ele>262.4</ele>
        <time>2026-05-20T09:28:06Z</time>
      </trkpt>
      <trkpt lat="47.6374" lon="4.34609">
        <ele>262.6</ele>
        <time>2026-05-20T09:28:07Z</time>
      </trkpt>
      <trkpt lat="47.63743" lon="4.34614">
        <ele>262.6</ele>
        <time>2026-05-20T09:28:08Z</time>
      </trkpt>
      <trkpt lat="47.63745" lon="4.34619">
        <ele>262.8</ele>
        <time>2026-05-20T09:28:09Z</time>
      </trkpt>
      <trkpt lat="47.63746" lon="4.34621">
        <ele>263</ele>
        <time>2026-05-20T09:28:10Z</time>
      </trkpt>
      <trkpt lat="47.63747" lon="4.34624">
        <ele>263.2</ele>
        <time>2026-05-20T09:28:11Z</time>
      </trkpt>
      <trkpt lat="47.63748" lon="4.34628">
        <ele>263.4</ele>
        <time>2026-05-20T09:28:12Z</time>
      </trkpt>
      <trkpt lat="47.63748" lon="4.34631">
        <ele>263.4</ele>
        <time>2026-05-20T09:28:13Z</time>
      </trkpt>
      <trkpt lat="47.63749" lon="4.34634">
        <ele>263.8</ele>
        <time>2026-05-20T09:28:14Z</time>
      </trkpt>
      <trkpt lat="47.6375" lon="4.34636">
        <ele>264</ele>
        <time>2026-05-20T09:28:15Z</time>
      </trkpt>
      <trkpt lat="47.63751" lon="4.3464">
        <ele>264.4</ele>
        <time>2026-05-20T09:28:16Z</time>
      </trkpt>
      <trkpt lat="47.63752" lon="4.34643">
        <ele>264.6</ele>
        <time>2026-05-20T09:28:17Z</time>
      </trkpt>
      <trkpt lat="47.63754" lon="4.34646">
        <ele>265</ele>
        <time>2026-05-20T09:28:18Z</time>
      </trkpt>
      <trkpt lat="47.63755" lon="4.3465">
        <ele>265.2</ele>
        <time>2026-05-20T09:28:19Z</time>
      </trkpt>
      <trkpt lat="47.63756" lon="4.34652">
        <ele>265.2</ele>
        <time>2026-05-20T09:28:20Z</time>
      </trkpt>
      <trkpt lat="47.63757" lon="4.34656">
        <ele>265.4</ele>
        <time>2026-05-20T09:28:21Z</time>
      </trkpt>
      <trkpt lat="47.63758" lon="4.34659">
        <ele>265.6</ele>
        <time>2026-05-20T09:28:22Z</time>
      </trkpt>
      <trkpt lat="47.63758" lon="4.34662">
        <ele>265.8</ele>
        <time>2026-05-20T09:28:23Z</time>
      </trkpt>
      <trkpt lat="47.63759" lon="4.34664">
        <ele>266</ele>
        <time>2026-05-20T09:28:24Z</time>
      </trkpt>
      <trkpt lat="47.6376" lon="4.34667">
        <ele>266.2</ele>
        <time>2026-05-20T09:28:25Z</time>
      </trkpt>
      <trkpt lat="47.63761" lon="4.3467">
        <ele>266.4</ele>
        <time>2026-05-20T09:28:26Z</time>
      </trkpt>
      <trkpt lat="47.63763" lon="4.34674">
        <ele>266.6</ele>
        <time>2026-05-20T09:28:27Z</time>
      </trkpt>
      <trkpt lat="47.63765" lon="4.34678">
        <ele>266.8</ele>
        <time>2026-05-20T09:28:28Z</time>
      </trkpt>
      <trkpt lat="47.63767" lon="4.34681">
        <ele>266.8</ele>
        <time>2026-05-20T09:28:29Z</time>
      </trkpt>
      <trkpt lat="47.63767" lon="4.34683">
        <ele>267.2</ele>
        <time>2026-05-20T09:28:30Z</time>
      </trkpt>
      <trkpt lat="47.63768" lon="4.34686">
        <ele>267.4</ele>
        <time>2026-05-20T09:28:31Z</time>
      </trkpt>
      <trkpt lat="47.6377" lon="4.34688">
        <ele>267.6</ele>
        <time>2026-05-20T09:28:32Z</time>
      </trkpt>
      <trkpt lat="47.63771" lon="4.34691">
        <ele>267.8</ele>
        <time>2026-05-20T09:28:33Z</time>
      </trkpt>
      <trkpt lat="47.63773" lon="4.34695">
        <ele>268</ele>
        <time>2026-05-20T09:28:34Z</time>
      </trkpt>
      <trkpt lat="47.63775" lon="4.34697">
        <ele>268.4</ele>
        <time>2026-05-20T09:28:35Z</time>
      </trkpt>
      <trkpt lat="47.63777" lon="4.347">
        <ele>268.6</ele>
        <time>2026-05-20T09:28:36Z</time>
      </trkpt>
      <trkpt lat="47.63778" lon="4.34704">
        <ele>269</ele>
        <time>2026-05-20T09:28:37Z</time>
      </trkpt>
      <trkpt lat="47.63781" lon="4.34708">
        <ele>268.8</ele>
        <time>2026-05-20T09:28:38Z</time>
      </trkpt>
      <trkpt lat="47.63784" lon="4.34712">
        <ele>269</ele>
        <time>2026-05-20T09:28:39Z</time>
      </trkpt>
      <trkpt lat="47.63786" lon="4.34713">
        <ele>269.2</ele>
        <time>2026-05-20T09:28:40Z</time>
      </trkpt>
      <trkpt lat="47.63788" lon="4.34715">
        <ele>269.6</ele>
        <time>2026-05-20T09:28:41Z</time>
      </trkpt>
      <trkpt lat="47.6379" lon="4.34718">
        <ele>269.8</ele>
        <time>2026-05-20T09:28:42Z</time>
      </trkpt>
      <trkpt lat="47.63793" lon="4.34721">
        <ele>270</ele>
        <time>2026-05-20T09:28:43Z</time>
      </trkpt>
      <trkpt lat="47.63795" lon="4.34723">
        <ele>270.2</ele>
        <time>2026-05-20T09:28:44Z</time>
      </trkpt>
      <trkpt lat="47.63797" lon="4.34725">
        <ele>270.2</ele>
        <time>2026-05-20T09:28:45Z</time>
      </trkpt>
      <trkpt lat="47.63798" lon="4.34725">
        <ele>270.4</ele>
        <time>2026-05-20T09:28:46Z</time>
      </trkpt>
      <trkpt lat="47.63799" lon="4.34727">
        <ele>270.6</ele>
        <time>2026-05-20T09:28:47Z</time>
      </trkpt>
      <trkpt lat="47.63801" lon="4.34728">
        <ele>270.8</ele>
        <time>2026-05-20T09:28:48Z</time>
      </trkpt>
      <trkpt lat="47.63806" lon="4.34732">
        <ele>271</ele>
        <time>2026-05-20T09:28:49Z</time>
      </trkpt>
      <trkpt lat="47.63809" lon="4.34734">
        <ele>271.2</ele>
        <time>2026-05-20T09:28:50Z</time>
      </trkpt>
      <trkpt lat="47.63811" lon="4.34736">
        <ele>271.4</ele>
        <time>2026-05-20T09:28:51Z</time>
      </trkpt>
      <trkpt lat="47.63813" lon="4.34739">
        <ele>271.8</ele>
        <time>2026-05-20T09:28:52Z</time>
      </trkpt>
      <trkpt lat="47.63815" lon="4.34741">
        <ele>272</ele>
        <time>2026-05-20T09:28:53Z</time>
      </trkpt>
      <trkpt lat="47.63817" lon="4.34744">
        <ele>272.4</ele>
        <time>2026-05-20T09:28:54Z</time>
      </trkpt>
      <trkpt lat="47.6382" lon="4.34747">
        <ele>272.8</ele>
        <time>2026-05-20T09:28:55Z</time>
      </trkpt>
      <trkpt lat="47.63823" lon="4.3475">
        <ele>272.8</ele>
        <time>2026-05-20T09:28:56Z</time>
      </trkpt>
      <trkpt lat="47.63826" lon="4.34754">
        <ele>273.2</ele>
        <time>2026-05-20T09:28:57Z</time>
      </trkpt>
      <trkpt lat="47.63829" lon="4.34757">
        <ele>273.4</ele>
        <time>2026-05-20T09:28:58Z</time>
      </trkpt>
      <trkpt lat="47.63832" lon="4.34759">
        <ele>273.6</ele>
        <time>2026-05-20T09:28:59Z</time>
      </trkpt>
      <trkpt lat="47.63835" lon="4.3476">
        <ele>273.6</ele>
        <time>2026-05-20T09:29:00Z</time>
      </trkpt>
      <trkpt lat="47.63836" lon="4.34761">
        <ele>273.8</ele>
        <time>2026-05-20T09:29:01Z</time>
      </trkpt>
      <trkpt lat="47.63838" lon="4.34763">
        <ele>274</ele>
        <time>2026-05-20T09:29:02Z</time>
      </trkpt>
      <trkpt lat="47.63841" lon="4.34766">
        <ele>274.4</ele>
        <time>2026-05-20T09:29:03Z</time>
      </trkpt>
      <trkpt lat="47.63844" lon="4.34769">
        <ele>274.6</ele>
        <time>2026-05-20T09:29:04Z</time>
      </trkpt>
      <trkpt lat="47.63846" lon="4.34771">
        <ele>274.8</ele>
        <time>2026-05-20T09:29:05Z</time>
      </trkpt>
      <trkpt lat="47.63849" lon="4.34774">
        <ele>275</ele>
        <time>2026-05-20T09:29:06Z</time>
      </trkpt>
      <trkpt lat="47.63851" lon="4.34777">
        <ele>275.2</ele>
        <time>2026-05-20T09:29:07Z</time>
      </trkpt>
      <trkpt lat="47.63853" lon="4.34779">
        <ele>275.2</ele>
        <time>2026-05-20T09:29:08Z</time>
      </trkpt>
      <trkpt lat="47.63854" lon="4.3478">
        <ele>275.4</ele>
        <time>2026-05-20T09:29:09Z</time>
      </trkpt>
      <trkpt lat="47.63857" lon="4.34781">
        <ele>275.6</ele>
        <time>2026-05-20T09:29:10Z</time>
      </trkpt>
      <trkpt lat="47.6386" lon="4.34781">
        <ele>275.6</ele>
        <time>2026-05-20T09:29:11Z</time>
      </trkpt>
      <trkpt lat="47.63862" lon="4.34781">
        <ele>275.6</ele>
        <time>2026-05-20T09:29:12Z</time>
      </trkpt>
      <trkpt lat="47.63864" lon="4.34782">
        <ele>275.8</ele>
        <time>2026-05-20T09:29:13Z</time>
      </trkpt>
      <trkpt lat="47.63867" lon="4.34783">
        <ele>276</ele>
        <time>2026-05-20T09:29:14Z</time>
      </trkpt>
      <trkpt lat="47.63869" lon="4.34784">
        <ele>276.2</ele>
        <time>2026-05-20T09:29:15Z</time>
      </trkpt>
      <trkpt lat="47.63871" lon="4.34785">
        <ele>276.4</ele>
        <time>2026-05-20T09:29:16Z</time>
      </trkpt>
      <trkpt lat="47.63873" lon="4.34786">
        <ele>276.6</ele>
        <time>2026-05-20T09:29:17Z</time>
      </trkpt>
      <trkpt lat="47.63876" lon="4.34786">
        <ele>276.6</ele>
        <time>2026-05-20T09:29:18Z</time>
      </trkpt>
      <trkpt lat="47.63878" lon="4.34787">
        <ele>277.2</ele>
        <time>2026-05-20T09:29:19Z</time>
      </trkpt>
      <trkpt lat="47.6388" lon="4.34788">
        <ele>277</ele>
        <time>2026-05-20T09:29:20Z</time>
      </trkpt>
      <trkpt lat="47.63882" lon="4.34788">
        <ele>277.2</ele>
        <time>2026-05-20T09:29:21Z</time>
      </trkpt>
      <trkpt lat="47.63884" lon="4.34789">
        <ele>277.4</ele>
        <time>2026-05-20T09:29:22Z</time>
      </trkpt>
      <trkpt lat="47.63886" lon="4.3479">
        <ele>277.4</ele>
        <time>2026-05-20T09:29:23Z</time>
      </trkpt>
      <trkpt lat="47.63888" lon="4.34791">
        <ele>277.8</ele>
        <time>2026-05-20T09:29:24Z</time>
      </trkpt>
      <trkpt lat="47.6389" lon="4.34791">
        <ele>277.8</ele>
        <time>2026-05-20T09:29:25Z</time>
      </trkpt>
      <trkpt lat="47.63892" lon="4.34792">
        <ele>278.2</ele>
        <time>2026-05-20T09:29:26Z</time>
      </trkpt>
      <trkpt lat="47.63894" lon="4.34793">
        <ele>278.2</ele>
        <time>2026-05-20T09:29:27Z</time>
      </trkpt>
      <trkpt lat="47.63895" lon="4.34794">
        <ele>278.6</ele>
        <time>2026-05-20T09:29:28Z</time>
      </trkpt>
      <trkpt lat="47.63897" lon="4.34795">
        <ele>278.6</ele>
        <time>2026-05-20T09:29:29Z</time>
      </trkpt>
      <trkpt lat="47.63898" lon="4.34796">
        <ele>279</ele>
        <time>2026-05-20T09:29:30Z</time>
      </trkpt>
      <trkpt lat="47.639" lon="4.34797">
        <ele>279.4</ele>
        <time>2026-05-20T09:29:31Z</time>
      </trkpt>
      <trkpt lat="47.63901" lon="4.34798">
        <ele>279.6</ele>
        <time>2026-05-20T09:29:32Z</time>
      </trkpt>
      <trkpt lat="47.63903" lon="4.348">
        <ele>279.6</ele>
        <time>2026-05-20T09:29:33Z</time>
      </trkpt>
      <trkpt lat="47.63905" lon="4.34801">
        <ele>279.8</ele>
        <time>2026-05-20T09:29:34Z</time>
      </trkpt>
      <trkpt lat="47.63906" lon="4.34803">
        <ele>280</ele>
        <time>2026-05-20T09:29:35Z</time>
      </trkpt>
      <trkpt lat="47.63908" lon="4.34804">
        <ele>280.2</ele>
        <time>2026-05-20T09:29:36Z</time>
      </trkpt>
      <trkpt lat="47.63909" lon="4.34806">
        <ele>280.4</ele>
        <time>2026-05-20T09:29:37Z</time>
      </trkpt>
      <trkpt lat="47.63911" lon="4.34807">
        <ele>280.6</ele>
        <time>2026-05-20T09:29:38Z</time>
      </trkpt>
      <trkpt lat="47.63913" lon="4.34809">
        <ele>280.8</ele>
        <time>2026-05-20T09:29:39Z</time>
      </trkpt>
      <trkpt lat="47.63915" lon="4.34812">
        <ele>281</ele>
        <time>2026-05-20T09:29:40Z</time>
      </trkpt>
      <trkpt lat="47.63917" lon="4.34815">
        <ele>281.2</ele>
        <time>2026-05-20T09:29:41Z</time>
      </trkpt>
      <trkpt lat="47.63918" lon="4.34817">
        <ele>281.4</ele>
        <time>2026-05-20T09:29:42Z</time>
      </trkpt>
      <trkpt lat="47.63919" lon="4.34818">
        <ele>281.6</ele>
        <time>2026-05-20T09:29:43Z</time>
      </trkpt>
      <trkpt lat="47.63921" lon="4.34821">
        <ele>282</ele>
        <time>2026-05-20T09:29:44Z</time>
      </trkpt>
      <trkpt lat="47.63923" lon="4.34823">
        <ele>282.2</ele>
        <time>2026-05-20T09:29:45Z</time>
      </trkpt>
      <trkpt lat="47.63924" lon="4.34825">
        <ele>282.6</ele>
        <time>2026-05-20T09:29:46Z</time>
      </trkpt>
      <trkpt lat="47.63926" lon="4.34827">
        <ele>282.8</ele>
        <time>2026-05-20T09:29:47Z</time>
      </trkpt>
      <trkpt lat="47.63927" lon="4.3483">
        <ele>282.8</ele>
        <time>2026-05-20T09:29:48Z</time>
      </trkpt>
      <trkpt lat="47.63929" lon="4.34834">
        <ele>283</ele>
        <time>2026-05-20T09:29:49Z</time>
      </trkpt>
      <trkpt lat="47.6393" lon="4.34837">
        <ele>283.2</ele>
        <time>2026-05-20T09:29:50Z</time>
      </trkpt>
      <trkpt lat="47.63931" lon="4.3484">
        <ele>283.6</ele>
        <time>2026-05-20T09:29:51Z</time>
      </trkpt>
      <trkpt lat="47.63932" lon="4.34842">
        <ele>283.4</ele>
        <time>2026-05-20T09:29:52Z</time>
      </trkpt>
      <trkpt lat="47.63933" lon="4.34846">
        <ele>283.6</ele>
        <time>2026-05-20T09:29:53Z</time>
      </trkpt>
      <trkpt lat="47.63933" lon="4.34849">
        <ele>284</ele>
        <time>2026-05-20T09:29:54Z</time>
      </trkpt>
      <trkpt lat="47.63934" lon="4.34853">
        <ele>284.2</ele>
        <time>2026-05-20T09:29:55Z</time>
      </trkpt>
      <trkpt lat="47.63936" lon="4.34855">
        <ele>284.6</ele>
        <time>2026-05-20T09:29:56Z</time>
      </trkpt>
      <trkpt lat="47.63937" lon="4.34858">
        <ele>284.8</ele>
        <time>2026-05-20T09:29:57Z</time>
      </trkpt>
      <trkpt lat="47.63938" lon="4.34861">
        <ele>284.8</ele>
        <time>2026-05-20T09:29:58Z</time>
      </trkpt>
      <trkpt lat="47.63938" lon="4.34864">
        <ele>285.4</ele>
        <time>2026-05-20T09:29:59Z</time>
      </trkpt>
      <trkpt lat="47.63939" lon="4.34868">
        <ele>285.4</ele>
        <time>2026-05-20T09:30:00Z</time>
      </trkpt>
      <trkpt lat="47.6394" lon="4.34871">
        <ele>285.4</ele>
        <time>2026-05-20T09:30:01Z</time>
      </trkpt>
      <trkpt lat="47.6394" lon="4.34874">
        <ele>285.6</ele>
        <time>2026-05-20T09:30:02Z</time>
      </trkpt>
      <trkpt lat="47.63941" lon="4.34876">
        <ele>286</ele>
        <time>2026-05-20T09:30:03Z</time>
      </trkpt>
      <trkpt lat="47.63942" lon="4.34879">
        <ele>286.4</ele>
        <time>2026-05-20T09:30:04Z</time>
      </trkpt>
      <trkpt lat="47.63943" lon="4.34882">
        <ele>286.6</ele>
        <time>2026-05-20T09:30:05Z</time>
      </trkpt>
      <trkpt lat="47.63943" lon="4.34884">
        <ele>287</ele>
        <time>2026-05-20T09:30:06Z</time>
      </trkpt>
      <trkpt lat="47.63944" lon="4.34886">
        <ele>287.4</ele>
        <time>2026-05-20T09:30:07Z</time>
      </trkpt>
      <trkpt lat="47.63944" lon="4.34889">
        <ele>287.6</ele>
        <time>2026-05-20T09:30:08Z</time>
      </trkpt>
      <trkpt lat="47.63945" lon="4.3489">
        <ele>287.8</ele>
        <time>2026-05-20T09:30:09Z</time>
      </trkpt>
      <trkpt lat="47.63945" lon="4.34893">
        <ele>288</ele>
        <time>2026-05-20T09:30:10Z</time>
      </trkpt>
      <trkpt lat="47.63946" lon="4.34896">
        <ele>288.4</ele>
        <time>2026-05-20T09:30:11Z</time>
      </trkpt>
      <trkpt lat="47.63947" lon="4.34898">
        <ele>288.4</ele>
        <time>2026-05-20T09:30:12Z</time>
      </trkpt>
      <trkpt lat="47.63948" lon="4.349">
        <ele>288.8</ele>
        <time>2026-05-20T09:30:13Z</time>
      </trkpt>
      <trkpt lat="47.63949" lon="4.34902">
        <ele>289</ele>
        <time>2026-05-20T09:30:14Z</time>
      </trkpt>
      <trkpt lat="47.63949" lon="4.34904">
        <ele>289.4</ele>
        <time>2026-05-20T09:30:15Z</time>
      </trkpt>
      <trkpt lat="47.6395" lon="4.34906">
        <ele>289.4</ele>
        <time>2026-05-20T09:30:16Z</time>
      </trkpt>
      <trkpt lat="47.63951" lon="4.34908">
        <ele>290</ele>
        <time>2026-05-20T09:30:17Z</time>
      </trkpt>
      <trkpt lat="47.63952" lon="4.3491">
        <ele>290.2</ele>
        <time>2026-05-20T09:30:18Z</time>
      </trkpt>
      <trkpt lat="47.63953" lon="4.34912">
        <ele>290.4</ele>
        <time>2026-05-20T09:30:19Z</time>
      </trkpt>
      <trkpt lat="47.63954" lon="4.34913">
        <ele>290.6</ele>
        <time>2026-05-20T09:30:20Z</time>
      </trkpt>
      <trkpt lat="47.63955" lon="4.34915">
        <ele>290.8</ele>
        <time>2026-05-20T09:30:21Z</time>
      </trkpt>
      <trkpt lat="47.63955" lon="4.34917">
        <ele>291.2</ele>
        <time>2026-05-20T09:30:22Z</time>
      </trkpt>
      <trkpt lat="47.63956" lon="4.34918">
        <ele>291.4</ele>
        <time>2026-05-20T09:30:23Z</time>
      </trkpt>
      <trkpt lat="47.63957" lon="4.3492">
        <ele>291.6</ele>
        <time>2026-05-20T09:30:24Z</time>
      </trkpt>
      <trkpt lat="47.63958" lon="4.34923">
        <ele>291.8</ele>
        <time>2026-05-20T09:30:25Z</time>
      </trkpt>
      <trkpt lat="47.63959" lon="4.34924">
        <ele>292</ele>
        <time>2026-05-20T09:30:26Z</time>
      </trkpt>
      <trkpt lat="47.6396" lon="4.34926">
        <ele>292.2</ele>
        <time>2026-05-20T09:30:27Z</time>
      </trkpt>
      <trkpt lat="47.63961" lon="4.34928">
        <ele>292.8</ele>
        <time>2026-05-20T09:30:28Z</time>
      </trkpt>
      <trkpt lat="47.63962" lon="4.34929">
        <ele>293</ele>
        <time>2026-05-20T09:30:29Z</time>
      </trkpt>
      <trkpt lat="47.63963" lon="4.34932">
        <ele>293.2</ele>
        <time>2026-05-20T09:30:30Z</time>
      </trkpt>
      <trkpt lat="47.63964" lon="4.34934">
        <ele>293.4</ele>
        <time>2026-05-20T09:30:31Z</time>
      </trkpt>
      <trkpt lat="47.63965" lon="4.34935">
        <ele>293.6</ele>
        <time>2026-05-20T09:30:32Z</time>
      </trkpt>
      <trkpt lat="47.63966" lon="4.34936">
        <ele>294</ele>
        <time>2026-05-20T09:30:33Z</time>
      </trkpt>
      <trkpt lat="47.63967" lon="4.34938">
        <ele>294.2</ele>
        <time>2026-05-20T09:30:34Z</time>
      </trkpt>
      <trkpt lat="47.63968" lon="4.3494">
        <ele>294.6</ele>
        <time>2026-05-20T09:30:35Z</time>
      </trkpt>
      <trkpt lat="47.63969" lon="4.34942">
        <ele>294.8</ele>
        <time>2026-05-20T09:30:36Z</time>
      </trkpt>
      <trkpt lat="47.6397" lon="4.34944">
        <ele>295.2</ele>
        <time>2026-05-20T09:30:37Z</time>
      </trkpt>
      <trkpt lat="47.63971" lon="4.34946">
        <ele>295.4</ele>
        <time>2026-05-20T09:30:38Z</time>
      </trkpt>
      <trkpt lat="47.63972" lon="4.34948">
        <ele>295.6</ele>
        <time>2026-05-20T09:30:39Z</time>
      </trkpt>
      <trkpt lat="47.63974" lon="4.3495">
        <ele>295.8</ele>
        <time>2026-05-20T09:30:40Z</time>
      </trkpt>
      <trkpt lat="47.63975" lon="4.34952">
        <ele>296</ele>
        <time>2026-05-20T09:30:41Z</time>
      </trkpt>
      <trkpt lat="47.63975" lon="4.34953">
        <ele>296.6</ele>
        <time>2026-05-20T09:30:42Z</time>
      </trkpt>
      <trkpt lat="47.63976" lon="4.34955">
        <ele>296.8</ele>
        <time>2026-05-20T09:30:43Z</time>
      </trkpt>
      <trkpt lat="47.63977" lon="4.34957">
        <ele>297.2</ele>
        <time>2026-05-20T09:30:44Z</time>
      </trkpt>
      <trkpt lat="47.63979" lon="4.34958">
        <ele>297.2</ele>
        <time>2026-05-20T09:30:45Z</time>
      </trkpt>
      <trkpt lat="47.6398" lon="4.34961">
        <ele>297.4</ele>
        <time>2026-05-20T09:30:46Z</time>
      </trkpt>
      <trkpt lat="47.63981" lon="4.34962">
        <ele>297.6</ele>
        <time>2026-05-20T09:30:47Z</time>
      </trkpt>
      <trkpt lat="47.63982" lon="4.34964">
        <ele>297.8</ele>
        <time>2026-05-20T09:30:48Z</time>
      </trkpt>
      <trkpt lat="47.63983" lon="4.34965">
        <ele>298.2</ele>
        <time>2026-05-20T09:30:49Z</time>
      </trkpt>
      <trkpt lat="47.63984" lon="4.34967">
        <ele>298.4</ele>
        <time>2026-05-20T09:30:50Z</time>
      </trkpt>
      <trkpt lat="47.63986" lon="4.3497">
        <ele>298.8</ele>
        <time>2026-05-20T09:30:51Z</time>
      </trkpt>
      <trkpt lat="47.63987" lon="4.34972">
        <ele>298.8</ele>
        <time>2026-05-20T09:30:52Z</time>
      </trkpt>
      <trkpt lat="47.63988" lon="4.34973">
        <ele>299.2</ele>
        <time>2026-05-20T09:30:53Z</time>
      </trkpt>
      <trkpt lat="47.63989" lon="4.34975">
        <ele>299.2</ele>
        <time>2026-05-20T09:30:54Z</time>
      </trkpt>
      <trkpt lat="47.6399" lon="4.34976">
        <ele>299.4</ele>
        <time>2026-05-20T09:30:55Z</time>
      </trkpt>
      <trkpt lat="47.63991" lon="4.34978">
        <ele>299.6</ele>
        <time>2026-05-20T09:30:56Z</time>
      </trkpt>
      <trkpt lat="47.63992" lon="4.34979">
        <ele>299.8</ele>
        <time>2026-05-20T09:30:57Z</time>
      </trkpt>
      <trkpt lat="47.63993" lon="4.3498">
        <ele>300.2</ele>
        <time>2026-05-20T09:30:58Z</time>
      </trkpt>
      <trkpt lat="47.63994" lon="4.34981">
        <ele>300.4</ele>
        <time>2026-05-20T09:30:59Z</time>
      </trkpt>
      <trkpt lat="47.63995" lon="4.34983">
        <ele>300.8</ele>
        <time>2026-05-20T09:31:00Z</time>
      </trkpt>
      <trkpt lat="47.63996" lon="4.34984">
        <ele>301</ele>
        <time>2026-05-20T09:31:01Z</time>
      </trkpt>
      <trkpt lat="47.63997" lon="4.34985">
        <ele>301.2</ele>
        <time>2026-05-20T09:31:02Z</time>
      </trkpt>
      <trkpt lat="47.63998" lon="4.34985">
        <ele>301.4</ele>
        <time>2026-05-20T09:31:03Z</time>
      </trkpt>
      <trkpt lat="47.64" lon="4.34987">
        <ele>301.6</ele>
        <time>2026-05-20T09:31:04Z</time>
      </trkpt>
      <trkpt lat="47.64002" lon="4.34988">
        <ele>301.8</ele>
        <time>2026-05-20T09:31:05Z</time>
      </trkpt>
      <trkpt lat="47.64003" lon="4.34989">
        <ele>302</ele>
        <time>2026-05-20T09:31:06Z</time>
      </trkpt>
      <trkpt lat="47.64005" lon="4.3499">
        <ele>302.2</ele>
        <time>2026-05-20T09:31:07Z</time>
      </trkpt>
      <trkpt lat="47.64006" lon="4.34991">
        <ele>302.4</ele>
        <time>2026-05-20T09:31:08Z</time>
      </trkpt>
      <trkpt lat="47.64008" lon="4.34991">
        <ele>302.8</ele>
        <time>2026-05-20T09:31:09Z</time>
      </trkpt>
      <trkpt lat="47.6401" lon="4.34992">
        <ele>303</ele>
        <time>2026-05-20T09:31:10Z</time>
      </trkpt>
      <trkpt lat="47.64011" lon="4.34993">
        <ele>303.2</ele>
        <time>2026-05-20T09:31:11Z</time>
      </trkpt>
      <trkpt lat="47.64013" lon="4.34994">
        <ele>303.4</ele>
        <time>2026-05-20T09:31:12Z</time>
      </trkpt>
      <trkpt lat="47.64014" lon="4.34994">
        <ele>303.8</ele>
        <time>2026-05-20T09:31:13Z</time>
      </trkpt>
      <trkpt lat="47.64016" lon="4.34993">
        <ele>304</ele>
        <time>2026-05-20T09:31:14Z</time>
      </trkpt>
      <trkpt lat="47.64018" lon="4.34993">
        <ele>304.2</ele>
        <time>2026-05-20T09:31:15Z</time>
      </trkpt>
      <trkpt lat="47.64019" lon="4.34992">
        <ele>304.6</ele>
        <time>2026-05-20T09:31:16Z</time>
      </trkpt>
      <trkpt lat="47.64021" lon="4.34991">
        <ele>304.6</ele>
        <time>2026-05-20T09:31:17Z</time>
      </trkpt>
      <trkpt lat="47.64022" lon="4.34991">
        <ele>304.8</ele>
        <time>2026-05-20T09:31:18Z</time>
      </trkpt>
      <trkpt lat="47.64024" lon="4.34992">
        <ele>305</ele>
        <time>2026-05-20T09:31:19Z</time>
      </trkpt>
      <trkpt lat="47.64026" lon="4.34993">
        <ele>305.2</ele>
        <time>2026-05-20T09:31:20Z</time>
      </trkpt>
      <trkpt lat="47.64028" lon="4.34994">
        <ele>305.4</ele>
        <time>2026-05-20T09:31:21Z</time>
      </trkpt>
      <trkpt lat="47.64029" lon="4.34994">
        <ele>305.8</ele>
        <time>2026-05-20T09:31:22Z</time>
      </trkpt>
      <trkpt lat="47.6403" lon="4.34995">
        <ele>306</ele>
        <time>2026-05-20T09:31:23Z</time>
      </trkpt>
      <trkpt lat="47.64032" lon="4.34996">
        <ele>306.2</ele>
        <time>2026-05-20T09:31:24Z</time>
      </trkpt>
      <trkpt lat="47.64034" lon="4.34997">
        <ele>306.8</ele>
        <time>2026-05-20T09:31:25Z</time>
      </trkpt>
      <trkpt lat="47.64036" lon="4.34998">
        <ele>307</ele>
        <time>2026-05-20T09:31:26Z</time>
      </trkpt>
      <trkpt lat="47.64037" lon="4.34998">
        <ele>307.2</ele>
        <time>2026-05-20T09:31:27Z</time>
      </trkpt>
      <trkpt lat="47.64039" lon="4.34999">
        <ele>307.4</ele>
        <time>2026-05-20T09:31:28Z</time>
      </trkpt>
      <trkpt lat="47.64041" lon="4.34999">
        <ele>307.6</ele>
        <time>2026-05-20T09:31:29Z</time>
      </trkpt>
      <trkpt lat="47.64043" lon="4.35">
        <ele>307.6</ele>
        <time>2026-05-20T09:31:30Z</time>
      </trkpt>
      <trkpt lat="47.64045" lon="4.35001">
        <ele>307.8</ele>
        <time>2026-05-20T09:31:31Z</time>
      </trkpt>
      <trkpt lat="47.64047" lon="4.35002">
        <ele>307.8</ele>
        <time>2026-05-20T09:31:32Z</time>
      </trkpt>
      <trkpt lat="47.64049" lon="4.35002">
        <ele>308</ele>
        <time>2026-05-20T09:31:33Z</time>
      </trkpt>
      <trkpt lat="47.6405" lon="4.35003">
        <ele>308</ele>
        <time>2026-05-20T09:31:34Z</time>
      </trkpt>
      <trkpt lat="47.64052" lon="4.35003">
        <ele>308</ele>
        <time>2026-05-20T09:31:35Z</time>
      </trkpt>
      <trkpt lat="47.64054" lon="4.35004">
        <ele>308.2</ele>
        <time>2026-05-20T09:31:36Z</time>
      </trkpt>
      <trkpt lat="47.64056" lon="4.35005">
        <ele>308.4</ele>
        <time>2026-05-20T09:31:37Z</time>
      </trkpt>
      <trkpt lat="47.64058" lon="4.35005">
        <ele>308.6</ele>
        <time>2026-05-20T09:31:38Z</time>
      </trkpt>
      <trkpt lat="47.64059" lon="4.35006">
        <ele>308.6</ele>
        <time>2026-05-20T09:31:39Z</time>
      </trkpt>
      <trkpt lat="47.64061" lon="4.35007">
        <ele>308.8</ele>
        <time>2026-05-20T09:31:40Z</time>
      </trkpt>
      <trkpt lat="47.64062" lon="4.35008">
        <ele>309</ele>
        <time>2026-05-20T09:31:41Z</time>
      </trkpt>
      <trkpt lat="47.64064" lon="4.35009">
        <ele>309.2</ele>
        <time>2026-05-20T09:31:42Z</time>
      </trkpt>
      <trkpt lat="47.64065" lon="4.35009">
        <ele>309.4</ele>
        <time>2026-05-20T09:31:43Z</time>
      </trkpt>
      <trkpt lat="47.64067" lon="4.3501">
        <ele>309.8</ele>
        <time>2026-05-20T09:31:44Z</time>
      </trkpt>
      <trkpt lat="47.64069" lon="4.3501">
        <ele>310.2</ele>
        <time>2026-05-20T09:31:45Z</time>
      </trkpt>
      <trkpt lat="47.6407" lon="4.35011">
        <ele>310.2</ele>
        <time>2026-05-20T09:31:46Z</time>
      </trkpt>
      <trkpt lat="47.64072" lon="4.35012">
        <ele>310.4</ele>
        <time>2026-05-20T09:31:47Z</time>
      </trkpt>
      <trkpt lat="47.64074" lon="4.35012">
        <ele>310.6</ele>
        <time>2026-05-20T09:31:48Z</time>
      </trkpt>
      <trkpt lat="47.64076" lon="4.35013">
        <ele>310.8</ele>
        <time>2026-05-20T09:31:49Z</time>
      </trkpt>
      <trkpt lat="47.64078" lon="4.35014">
        <ele>311</ele>
        <time>2026-05-20T09:31:50Z</time>
      </trkpt>
      <trkpt lat="47.6408" lon="4.35014">
        <ele>311.2</ele>
        <time>2026-05-20T09:31:51Z</time>
      </trkpt>
      <trkpt lat="47.64082" lon="4.35015">
        <ele>311.4</ele>
        <time>2026-05-20T09:31:52Z</time>
      </trkpt>
      <trkpt lat="47.64084" lon="4.35015">
        <ele>311.6</ele>
        <time>2026-05-20T09:31:53Z</time>
      </trkpt>
      <trkpt lat="47.64086" lon="4.35016">
        <ele>311.8</ele>
        <time>2026-05-20T09:31:54Z</time>
      </trkpt>
      <trkpt lat="47.64088" lon="4.35017">
        <ele>312</ele>
        <time>2026-05-20T09:31:55Z</time>
      </trkpt>
      <trkpt lat="47.6409" lon="4.35018">
        <ele>312</ele>
        <time>2026-05-20T09:31:56Z</time>
      </trkpt>
      <trkpt lat="47.64092" lon="4.35019">
        <ele>312</ele>
        <time>2026-05-20T09:31:57Z</time>
      </trkpt>
      <trkpt lat="47.64094" lon="4.3502">
        <ele>312.2</ele>
        <time>2026-05-20T09:31:58Z</time>
      </trkpt>
      <trkpt lat="47.64096" lon="4.35021">
        <ele>312.4</ele>
        <time>2026-05-20T09:31:59Z</time>
      </trkpt>
      <trkpt lat="47.64098" lon="4.35022">
        <ele>312.6</ele>
        <time>2026-05-20T09:32:00Z</time>
      </trkpt>
      <trkpt lat="47.641" lon="4.35023">
        <ele>312.6</ele>
        <time>2026-05-20T09:32:01Z</time>
      </trkpt>
      <trkpt lat="47.64102" lon="4.35024">
        <ele>312.8</ele>
        <time>2026-05-20T09:32:02Z</time>
      </trkpt>
      <trkpt lat="47.64105" lon="4.35026">
        <ele>313</ele>
        <time>2026-05-20T09:32:03Z</time>
      </trkpt>
      <trkpt lat="47.64107" lon="4.35027">
        <ele>313</ele>
        <time>2026-05-20T09:32:04Z</time>
      </trkpt>
      <trkpt lat="47.64109" lon="4.35028">
        <ele>313.2</ele>
        <time>2026-05-20T09:32:05Z</time>
      </trkpt>
      <trkpt lat="47.64112" lon="4.35029">
        <ele>313.2</ele>
        <time>2026-05-20T09:32:06Z</time>
      </trkpt>
      <trkpt lat="47.64114" lon="4.3503">
        <ele>313.4</ele>
        <time>2026-05-20T09:32:07Z</time>
      </trkpt>
      <trkpt lat="47.64117" lon="4.35031">
        <ele>313.6</ele>
        <time>2026-05-20T09:32:08Z</time>
      </trkpt>
      <trkpt lat="47.64119" lon="4.35033">
        <ele>313.8</ele>
        <time>2026-05-20T09:32:09Z</time>
      </trkpt>
      <trkpt lat="47.64121" lon="4.35034">
        <ele>314</ele>
        <time>2026-05-20T09:32:10Z</time>
      </trkpt>
      <trkpt lat="47.64124" lon="4.35036">
        <ele>314.2</ele>
        <time>2026-05-20T09:32:11Z</time>
      </trkpt>
      <trkpt lat="47.64126" lon="4.35037">
        <ele>314.2</ele>
        <time>2026-05-20T09:32:12Z</time>
      </trkpt>
      <trkpt lat="47.64129" lon="4.35039">
        <ele>314.4</ele>
        <time>2026-05-20T09:32:13Z</time>
      </trkpt>
      <trkpt lat="47.64131" lon="4.35041">
        <ele>314.6</ele>
        <time>2026-05-20T09:32:14Z</time>
      </trkpt>
      <trkpt lat="47.64133" lon="4.35043">
        <ele>314.6</ele>
        <time>2026-05-20T09:32:15Z</time>
      </trkpt>
      <trkpt lat="47.64136" lon="4.35045">
        <ele>314.6</ele>
        <time>2026-05-20T09:32:16Z</time>
      </trkpt>
      <trkpt lat="47.64136" lon="4.35045">
        <ele>314.6</ele>
        <time>2026-05-20T09:32:17Z</time>
      </trkpt>
      <trkpt lat="47.64141" lon="4.35049">
        <ele>314.8</ele>
        <time>2026-05-20T09:32:18Z</time>
      </trkpt>
      <trkpt lat="47.64144" lon="4.35051">
        <ele>315</ele>
        <time>2026-05-20T09:32:19Z</time>
      </trkpt>
      <trkpt lat="47.64146" lon="4.35053">
        <ele>315</ele>
        <time>2026-05-20T09:32:20Z</time>
      </trkpt>
      <trkpt lat="47.64149" lon="4.35055">
        <ele>315.2</ele>
        <time>2026-05-20T09:32:21Z</time>
      </trkpt>
      <trkpt lat="47.64151" lon="4.35056">
        <ele>315.2</ele>
        <time>2026-05-20T09:32:22Z</time>
      </trkpt>
      <trkpt lat="47.64154" lon="4.35058">
        <ele>315.2</ele>
        <time>2026-05-20T09:32:23Z</time>
      </trkpt>
      <trkpt lat="47.64154" lon="4.35058">
        <ele>315.4</ele>
        <time>2026-05-20T09:32:24Z</time>
      </trkpt>
      <trkpt lat="47.6416" lon="4.35062">
        <ele>315.4</ele>
        <time>2026-05-20T09:32:25Z</time>
      </trkpt>
      <trkpt lat="47.64162" lon="4.35064">
        <ele>315.6</ele>
        <time>2026-05-20T09:32:26Z</time>
      </trkpt>
      <trkpt lat="47.64165" lon="4.35065">
        <ele>315.8</ele>
        <time>2026-05-20T09:32:27Z</time>
      </trkpt>
      <trkpt lat="47.64168" lon="4.35067">
        <ele>315.8</ele>
        <time>2026-05-20T09:32:28Z</time>
      </trkpt>
      <trkpt lat="47.64171" lon="4.35069">
        <ele>316</ele>
        <time>2026-05-20T09:32:29Z</time>
      </trkpt>
      <trkpt lat="47.64174" lon="4.3507">
        <ele>316</ele>
        <time>2026-05-20T09:32:30Z</time>
      </trkpt>
      <trkpt lat="47.64177" lon="4.35072">
        <ele>316</ele>
        <time>2026-05-20T09:32:31Z</time>
      </trkpt>
      <trkpt lat="47.6418" lon="4.35074">
        <ele>316.2</ele>
        <time>2026-05-20T09:32:32Z</time>
      </trkpt>
      <trkpt lat="47.64182" lon="4.35076">
        <ele>316.2</ele>
        <time>2026-05-20T09:32:33Z</time>
      </trkpt>
      <trkpt lat="47.64185" lon="4.35078">
        <ele>316.2</ele>
        <time>2026-05-20T09:32:34Z</time>
      </trkpt>
      <trkpt lat="47.64188" lon="4.3508">
        <ele>316.2</ele>
        <time>2026-05-20T09:32:35Z</time>
      </trkpt>
      <trkpt lat="47.64191" lon="4.35082">
        <ele>316.4</ele>
        <time>2026-05-20T09:32:36Z</time>
      </trkpt>
      <trkpt lat="47.64194" lon="4.35084">
        <ele>316.4</ele>
        <time>2026-05-20T09:32:37Z</time>
      </trkpt>
      <trkpt lat="47.64197" lon="4.35087">
        <ele>316.4</ele>
        <time>2026-05-20T09:32:38Z</time>
      </trkpt>
      <trkpt lat="47.642" lon="4.35089">
        <ele>316.4</ele>
        <time>2026-05-20T09:32:39Z</time>
      </trkpt>
      <trkpt lat="47.64203" lon="4.35092">
        <ele>316.6</ele>
        <time>2026-05-20T09:32:40Z</time>
      </trkpt>
      <trkpt lat="47.64207" lon="4.35094">
        <ele>316.8</ele>
        <time>2026-05-20T09:32:41Z</time>
      </trkpt>
      <trkpt lat="47.64209" lon="4.35097">
        <ele>316.8</ele>
        <time>2026-05-20T09:32:42Z</time>
      </trkpt>
      <trkpt lat="47.64213" lon="4.35099">
        <ele>316.8</ele>
        <time>2026-05-20T09:32:43Z</time>
      </trkpt>
      <trkpt lat="47.64216" lon="4.35101">
        <ele>316.8</ele>
        <time>2026-05-20T09:32:44Z</time>
      </trkpt>
      <trkpt lat="47.64219" lon="4.35104">
        <ele>316.8</ele>
        <time>2026-05-20T09:32:45Z</time>
      </trkpt>
      <trkpt lat="47.64221" lon="4.35106">
        <ele>317</ele>
        <time>2026-05-20T09:32:46Z</time>
      </trkpt>
      <trkpt lat="47.64224" lon="4.35108">
        <ele>317</ele>
        <time>2026-05-20T09:32:47Z</time>
      </trkpt>
      <trkpt lat="47.64227" lon="4.35111">
        <ele>317.2</ele>
        <time>2026-05-20T09:32:48Z</time>
      </trkpt>
      <trkpt lat="47.64231" lon="4.35113">
        <ele>317.4</ele>
        <time>2026-05-20T09:32:49Z</time>
      </trkpt>
      <trkpt lat="47.64234" lon="4.35115">
        <ele>317.4</ele>
        <time>2026-05-20T09:32:50Z</time>
      </trkpt>
      <trkpt lat="47.64237" lon="4.35118">
        <ele>317.6</ele>
        <time>2026-05-20T09:32:51Z</time>
      </trkpt>
      <trkpt lat="47.6424" lon="4.3512">
        <ele>317.6</ele>
        <time>2026-05-20T09:32:52Z</time>
      </trkpt>
      <trkpt lat="47.64243" lon="4.35123">
        <ele>317.6</ele>
        <time>2026-05-20T09:32:53Z</time>
      </trkpt>
      <trkpt lat="47.64246" lon="4.35126">
        <ele>317.6</ele>
        <time>2026-05-20T09:32:54Z</time>
      </trkpt>
      <trkpt lat="47.6425" lon="4.35129">
        <ele>317.6</ele>
        <time>2026-05-20T09:32:55Z</time>
      </trkpt>
      <trkpt lat="47.64252" lon="4.35131">
        <ele>317.8</ele>
        <time>2026-05-20T09:32:56Z</time>
      </trkpt>
      <trkpt lat="47.64255" lon="4.35134">
        <ele>317.8</ele>
        <time>2026-05-20T09:32:57Z</time>
      </trkpt>
      <trkpt lat="47.64259" lon="4.35136">
        <ele>317.8</ele>
        <time>2026-05-20T09:32:58Z</time>
      </trkpt>
      <trkpt lat="47.64262" lon="4.35139">
        <ele>317.8</ele>
        <time>2026-05-20T09:32:59Z</time>
      </trkpt>
      <trkpt lat="47.64265" lon="4.35142">
        <ele>318</ele>
        <time>2026-05-20T09:33:00Z</time>
      </trkpt>
      <trkpt lat="47.64268" lon="4.35145">
        <ele>318</ele>
        <time>2026-05-20T09:33:01Z</time>
      </trkpt>
      <trkpt lat="47.64271" lon="4.35147">
        <ele>318</ele>
        <time>2026-05-20T09:33:02Z</time>
      </trkpt>
      <trkpt lat="47.64274" lon="4.3515">
        <ele>318</ele>
        <time>2026-05-20T09:33:03Z</time>
      </trkpt>
      <trkpt lat="47.64274" lon="4.3515">
        <ele>318.2</ele>
        <time>2026-05-20T09:33:04Z</time>
      </trkpt>
      <trkpt lat="47.6428" lon="4.35156">
        <ele>318.4</ele>
        <time>2026-05-20T09:33:05Z</time>
      </trkpt>
      <trkpt lat="47.64283" lon="4.35159">
        <ele>318.4</ele>
        <time>2026-05-20T09:33:06Z</time>
      </trkpt>
      <trkpt lat="47.64286" lon="4.35162">
        <ele>318.4</ele>
        <time>2026-05-20T09:33:07Z</time>
      </trkpt>
      <trkpt lat="47.64289" lon="4.35165">
        <ele>318.4</ele>
        <time>2026-05-20T09:33:08Z</time>
      </trkpt>
      <trkpt lat="47.64289" lon="4.35165">
        <ele>318.6</ele>
        <time>2026-05-20T09:33:09Z</time>
      </trkpt>
      <trkpt lat="47.64296" lon="4.3517">
        <ele>318.6</ele>
        <time>2026-05-20T09:33:10Z</time>
      </trkpt>
      <trkpt lat="47.64299" lon="4.35173">
        <ele>318.6</ele>
        <time>2026-05-20T09:33:11Z</time>
      </trkpt>
      <trkpt lat="47.64302" lon="4.35176">
        <ele>318.6</ele>
        <time>2026-05-20T09:33:12Z</time>
      </trkpt>
      <trkpt lat="47.64305" lon="4.3518">
        <ele>318.6</ele>
        <time>2026-05-20T09:33:13Z</time>
      </trkpt>
      <trkpt lat="47.64308" lon="4.35182">
        <ele>318.6</ele>
        <time>2026-05-20T09:33:14Z</time>
      </trkpt>
      <trkpt lat="47.64311" lon="4.35185">
        <ele>318.6</ele>
        <time>2026-05-20T09:33:15Z</time>
      </trkpt>
      <trkpt lat="47.64315" lon="4.35188">
        <ele>318.6</ele>
        <time>2026-05-20T09:33:16Z</time>
      </trkpt>
      <trkpt lat="47.64317" lon="4.35191">
        <ele>318.6</ele>
        <time>2026-05-20T09:33:17Z</time>
      </trkpt>
      <trkpt lat="47.6432" lon="4.35193">
        <ele>318.6</ele>
        <time>2026-05-20T09:33:18Z</time>
      </trkpt>
      <trkpt lat="47.64323" lon="4.35196">
        <ele>319</ele>
        <time>2026-05-20T09:33:19Z</time>
      </trkpt>
      <trkpt lat="47.64327" lon="4.35199">
        <ele>319</ele>
        <time>2026-05-20T09:33:20Z</time>
      </trkpt>
      <trkpt lat="47.6433" lon="4.35201">
        <ele>319</ele>
        <time>2026-05-20T09:33:21Z</time>
      </trkpt>
      <trkpt lat="47.64333" lon="4.35204">
        <ele>319</ele>
        <time>2026-05-20T09:33:22Z</time>
      </trkpt>
      <trkpt lat="47.64337" lon="4.35207">
        <ele>319</ele>
        <time>2026-05-20T09:33:23Z</time>
      </trkpt>
      <trkpt lat="47.6434" lon="4.35209">
        <ele>319</ele>
        <time>2026-05-20T09:33:24Z</time>
      </trkpt>
      <trkpt lat="47.64343" lon="4.35211">
        <ele>319</ele>
        <time>2026-05-20T09:33:25Z</time>
      </trkpt>
      <trkpt lat="47.64346" lon="4.35214">
        <ele>319.2</ele>
        <time>2026-05-20T09:33:26Z</time>
      </trkpt>
      <trkpt lat="47.64349" lon="4.35216">
        <ele>319.6</ele>
        <time>2026-05-20T09:33:27Z</time>
      </trkpt>
      <trkpt lat="47.64353" lon="4.35219">
        <ele>319.6</ele>
        <time>2026-05-20T09:33:28Z</time>
      </trkpt>
      <trkpt lat="47.64357" lon="4.35222">
        <ele>319.6</ele>
        <time>2026-05-20T09:33:29Z</time>
      </trkpt>
      <trkpt lat="47.64357" lon="4.35222">
        <ele>319.6</ele>
        <time>2026-05-20T09:33:30Z</time>
      </trkpt>
      <trkpt lat="47.64363" lon="4.35227">
        <ele>319.8</ele>
        <time>2026-05-20T09:33:31Z</time>
      </trkpt>
      <trkpt lat="47.64366" lon="4.35229">
        <ele>319.8</ele>
        <time>2026-05-20T09:33:32Z</time>
      </trkpt>
      <trkpt lat="47.64369" lon="4.35231">
        <ele>319.8</ele>
        <time>2026-05-20T09:33:33Z</time>
      </trkpt>
      <trkpt lat="47.64372" lon="4.35234">
        <ele>320.2</ele>
        <time>2026-05-20T09:33:34Z</time>
      </trkpt>
      <trkpt lat="47.64375" lon="4.35237">
        <ele>320.2</ele>
        <time>2026-05-20T09:33:35Z</time>
      </trkpt>
      <trkpt lat="47.64378" lon="4.35239">
        <ele>320.2</ele>
        <time>2026-05-20T09:33:36Z</time>
      </trkpt>
      <trkpt lat="47.64381" lon="4.35241">
        <ele>320.2</ele>
        <time>2026-05-20T09:33:37Z</time>
      </trkpt>
      <trkpt lat="47.64384" lon="4.35243">
        <ele>320.2</ele>
        <time>2026-05-20T09:33:38Z</time>
      </trkpt>
      <trkpt lat="47.64388" lon="4.35246">
        <ele>320.4</ele>
        <time>2026-05-20T09:33:39Z</time>
      </trkpt>
      <trkpt lat="47.64391" lon="4.35248">
        <ele>320.4</ele>
        <time>2026-05-20T09:33:40Z</time>
      </trkpt>
      <trkpt lat="47.64394" lon="4.35251">
        <ele>320.4</ele>
        <time>2026-05-20T09:33:41Z</time>
      </trkpt>
      <trkpt lat="47.64396" lon="4.35253">
        <ele>320.6</ele>
        <time>2026-05-20T09:33:42Z</time>
      </trkpt>
      <trkpt lat="47.64399" lon="4.35256">
        <ele>321</ele>
        <time>2026-05-20T09:33:43Z</time>
      </trkpt>
      <trkpt lat="47.64403" lon="4.35258">
        <ele>321</ele>
        <time>2026-05-20T09:33:44Z</time>
      </trkpt>
      <trkpt lat="47.64406" lon="4.35261">
        <ele>321</ele>
        <time>2026-05-20T09:33:45Z</time>
      </trkpt>
      <trkpt lat="47.64409" lon="4.35263">
        <ele>321.2</ele>
        <time>2026-05-20T09:33:46Z</time>
      </trkpt>
      <trkpt lat="47.64413" lon="4.35265">
        <ele>321.2</ele>
        <time>2026-05-20T09:33:47Z</time>
      </trkpt>
      <trkpt lat="47.64416" lon="4.35267">
        <ele>321.6</ele>
        <time>2026-05-20T09:33:48Z</time>
      </trkpt>
      <trkpt lat="47.64419" lon="4.35269">
        <ele>321.8</ele>
        <time>2026-05-20T09:33:49Z</time>
      </trkpt>
      <trkpt lat="47.64423" lon="4.35271">
        <ele>321.8</ele>
        <time>2026-05-20T09:33:50Z</time>
      </trkpt>
      <trkpt lat="47.64426" lon="4.35273">
        <ele>321.8</ele>
        <time>2026-05-20T09:33:51Z</time>
      </trkpt>
      <trkpt lat="47.64429" lon="4.35275">
        <ele>322</ele>
        <time>2026-05-20T09:33:52Z</time>
      </trkpt>
      <trkpt lat="47.64433" lon="4.35277">
        <ele>322.2</ele>
        <time>2026-05-20T09:33:53Z</time>
      </trkpt>
      <trkpt lat="47.64436" lon="4.35279">
        <ele>322.4</ele>
        <time>2026-05-20T09:33:54Z</time>
      </trkpt>
      <trkpt lat="47.64439" lon="4.35281">
        <ele>322.4</ele>
        <time>2026-05-20T09:33:55Z</time>
      </trkpt>
      <trkpt lat="47.64443" lon="4.35283">
        <ele>322.4</ele>
        <time>2026-05-20T09:33:56Z</time>
      </trkpt>
      <trkpt lat="47.64446" lon="4.35285">
        <ele>322.6</ele>
        <time>2026-05-20T09:33:57Z</time>
      </trkpt>
      <trkpt lat="47.64448" lon="4.35287">
        <ele>322.8</ele>
        <time>2026-05-20T09:33:58Z</time>
      </trkpt>
      <trkpt lat="47.64452" lon="4.35289">
        <ele>322.8</ele>
        <time>2026-05-20T09:33:59Z</time>
      </trkpt>
      <trkpt lat="47.64454" lon="4.3529">
        <ele>323</ele>
        <time>2026-05-20T09:34:00Z</time>
      </trkpt>
      <trkpt lat="47.64457" lon="4.35292">
        <ele>323.2</ele>
        <time>2026-05-20T09:34:01Z</time>
      </trkpt>
      <trkpt lat="47.64459" lon="4.35294">
        <ele>323.2</ele>
        <time>2026-05-20T09:34:02Z</time>
      </trkpt>
      <trkpt lat="47.64462" lon="4.35296">
        <ele>323.4</ele>
        <time>2026-05-20T09:34:03Z</time>
      </trkpt>
      <trkpt lat="47.64465" lon="4.35298">
        <ele>323.6</ele>
        <time>2026-05-20T09:34:04Z</time>
      </trkpt>
      <trkpt lat="47.64467" lon="4.35299">
        <ele>324.2</ele>
        <time>2026-05-20T09:34:05Z</time>
      </trkpt>
      <trkpt lat="47.6447" lon="4.35301">
        <ele>324.6</ele>
        <time>2026-05-20T09:34:06Z</time>
      </trkpt>
      <trkpt lat="47.64473" lon="4.35304">
        <ele>324.8</ele>
        <time>2026-05-20T09:34:07Z</time>
      </trkpt>
      <trkpt lat="47.64476" lon="4.35306">
        <ele>325</ele>
        <time>2026-05-20T09:34:08Z</time>
      </trkpt>
      <trkpt lat="47.64479" lon="4.35308">
        <ele>325</ele>
        <time>2026-05-20T09:34:09Z</time>
      </trkpt>
      <trkpt lat="47.64479" lon="4.35308">
        <ele>325.4</ele>
        <time>2026-05-20T09:34:10Z</time>
      </trkpt>
      <trkpt lat="47.64484" lon="4.35311">
        <ele>325.4</ele>
        <time>2026-05-20T09:34:11Z</time>
      </trkpt>
      <trkpt lat="47.64487" lon="4.35314">
        <ele>325.4</ele>
        <time>2026-05-20T09:34:12Z</time>
      </trkpt>
      <trkpt lat="47.6449" lon="4.35316">
        <ele>325.6</ele>
        <time>2026-05-20T09:34:13Z</time>
      </trkpt>
      <trkpt lat="47.64492" lon="4.35318">
        <ele>325.6</ele>
        <time>2026-05-20T09:34:14Z</time>
      </trkpt>
      <trkpt lat="47.64495" lon="4.3532">
        <ele>325.8</ele>
        <time>2026-05-20T09:34:15Z</time>
      </trkpt>
      <trkpt lat="47.64498" lon="4.35322">
        <ele>325.8</ele>
        <time>2026-05-20T09:34:16Z</time>
      </trkpt>
      <trkpt lat="47.64501" lon="4.35324">
        <ele>326</ele>
        <time>2026-05-20T09:34:17Z</time>
      </trkpt>
      <trkpt lat="47.64503" lon="4.35327">
        <ele>326.2</ele>
        <time>2026-05-20T09:34:18Z</time>
      </trkpt>
      <trkpt lat="47.64506" lon="4.35329">
        <ele>326.4</ele>
        <time>2026-05-20T09:34:19Z</time>
      </trkpt>
      <trkpt lat="47.64508" lon="4.35332">
        <ele>326.6</ele>
        <time>2026-05-20T09:34:20Z</time>
      </trkpt>
      <trkpt lat="47.64511" lon="4.35334">
        <ele>327</ele>
        <time>2026-05-20T09:34:21Z</time>
      </trkpt>
      <trkpt lat="47.64513" lon="4.35336">
        <ele>327.2</ele>
        <time>2026-05-20T09:34:22Z</time>
      </trkpt>
      <trkpt lat="47.64515" lon="4.35338">
        <ele>327.4</ele>
        <time>2026-05-20T09:34:23Z</time>
      </trkpt>
      <trkpt lat="47.64517" lon="4.3534">
        <ele>327.8</ele>
        <time>2026-05-20T09:34:24Z</time>
      </trkpt>
      <trkpt lat="47.64519" lon="4.35343">
        <ele>327.8</ele>
        <time>2026-05-20T09:34:25Z</time>
      </trkpt>
      <trkpt lat="47.64519" lon="4.35343">
        <ele>328.2</ele>
        <time>2026-05-20T09:34:26Z</time>
      </trkpt>
      <trkpt lat="47.64522" lon="4.35348">
        <ele>328.4</ele>
        <time>2026-05-20T09:34:27Z</time>
      </trkpt>
      <trkpt lat="47.64524" lon="4.35351">
        <ele>328.6</ele>
        <time>2026-05-20T09:34:28Z</time>
      </trkpt>
      <trkpt lat="47.64526" lon="4.35354">
        <ele>328.8</ele>
        <time>2026-05-20T09:34:29Z</time>
      </trkpt>
      <trkpt lat="47.64528" lon="4.35356">
        <ele>329.2</ele>
        <time>2026-05-20T09:34:30Z</time>
      </trkpt>
      <trkpt lat="47.6453" lon="4.35358">
        <ele>329.4</ele>
        <time>2026-05-20T09:34:31Z</time>
      </trkpt>
      <trkpt lat="47.64532" lon="4.35359">
        <ele>329.6</ele>
        <time>2026-05-20T09:34:32Z</time>
      </trkpt>
      <trkpt lat="47.64534" lon="4.35359">
        <ele>330.2</ele>
        <time>2026-05-20T09:34:33Z</time>
      </trkpt>
      <trkpt lat="47.64537" lon="4.35359">
        <ele>330.4</ele>
        <time>2026-05-20T09:34:34Z</time>
      </trkpt>
      <trkpt lat="47.64539" lon="4.35358">
        <ele>331.2</ele>
        <time>2026-05-20T09:34:35Z</time>
      </trkpt>
      <trkpt lat="47.6454" lon="4.35357">
        <ele>331.6</ele>
        <time>2026-05-20T09:34:36Z</time>
      </trkpt>
      <trkpt lat="47.64542" lon="4.35354">
        <ele>332</ele>
        <time>2026-05-20T09:34:37Z</time>
      </trkpt>
      <trkpt lat="47.64544" lon="4.3535">
        <ele>332.2</ele>
        <time>2026-05-20T09:34:38Z</time>
      </trkpt>
      <trkpt lat="47.64546" lon="4.35346">
        <ele>332.4</ele>
        <time>2026-05-20T09:34:39Z</time>
      </trkpt>
      <trkpt lat="47.64548" lon="4.35342">
        <ele>332.6</ele>
        <time>2026-05-20T09:34:40Z</time>
      </trkpt>
      <trkpt lat="47.6455" lon="4.35337">
        <ele>332.8</ele>
        <time>2026-05-20T09:34:41Z</time>
      </trkpt>
      <trkpt lat="47.64552" lon="4.35333">
        <ele>333</ele>
        <time>2026-05-20T09:34:42Z</time>
      </trkpt>
      <trkpt lat="47.64555" lon="4.35328">
        <ele>333.2</ele>
        <time>2026-05-20T09:34:43Z</time>
      </trkpt>
      <trkpt lat="47.64557" lon="4.35323">
        <ele>333.2</ele>
        <time>2026-05-20T09:34:44Z</time>
      </trkpt>
      <trkpt lat="47.6456" lon="4.35318">
        <ele>333.4</ele>
        <time>2026-05-20T09:34:45Z</time>
      </trkpt>
      <trkpt lat="47.64562" lon="4.35312">
        <ele>333.4</ele>
        <time>2026-05-20T09:34:46Z</time>
      </trkpt>
      <trkpt lat="47.64565" lon="4.35307">
        <ele>333.4</ele>
        <time>2026-05-20T09:34:47Z</time>
      </trkpt>
      <trkpt lat="47.64568" lon="4.35301">
        <ele>333.2</ele>
        <time>2026-05-20T09:34:48Z</time>
      </trkpt>
      <trkpt lat="47.6457" lon="4.35295">
        <ele>333.2</ele>
        <time>2026-05-20T09:34:49Z</time>
      </trkpt>
      <trkpt lat="47.64573" lon="4.3529">
        <ele>333.2</ele>
        <time>2026-05-20T09:34:50Z</time>
      </trkpt>
      <trkpt lat="47.64576" lon="4.35284">
        <ele>333</ele>
        <time>2026-05-20T09:34:51Z</time>
      </trkpt>
      <trkpt lat="47.64578" lon="4.35278">
        <ele>332.8</ele>
        <time>2026-05-20T09:34:52Z</time>
      </trkpt>
      <trkpt lat="47.64581" lon="4.35272">
        <ele>332.6</ele>
        <time>2026-05-20T09:34:53Z</time>
      </trkpt>
      <trkpt lat="47.64583" lon="4.35267">
        <ele>332.6</ele>
        <time>2026-05-20T09:34:54Z</time>
      </trkpt>
      <trkpt lat="47.64586" lon="4.35259">
        <ele>332.6</ele>
        <time>2026-05-20T09:34:55Z</time>
      </trkpt>
      <trkpt lat="47.64588" lon="4.35255">
        <ele>332.6</ele>
        <time>2026-05-20T09:34:56Z</time>
      </trkpt>
      <trkpt lat="47.6459" lon="4.35249">
        <ele>332.6</ele>
        <time>2026-05-20T09:34:57Z</time>
      </trkpt>
      <trkpt lat="47.64593" lon="4.35243">
        <ele>332.6</ele>
        <time>2026-05-20T09:34:58Z</time>
      </trkpt>
      <trkpt lat="47.64595" lon="4.35238">
        <ele>332.4</ele>
        <time>2026-05-20T09:34:59Z</time>
      </trkpt>
      <trkpt lat="47.64597" lon="4.35232">
        <ele>332.4</ele>
        <time>2026-05-20T09:35:00Z</time>
      </trkpt>
      <trkpt lat="47.64599" lon="4.35227">
        <ele>332.4</ele>
        <time>2026-05-20T09:35:01Z</time>
      </trkpt>
      <trkpt lat="47.64601" lon="4.35222">
        <ele>332.4</ele>
        <time>2026-05-20T09:35:02Z</time>
      </trkpt>
      <trkpt lat="47.64603" lon="4.35217">
        <ele>332.4</ele>
        <time>2026-05-20T09:35:03Z</time>
      </trkpt>
      <trkpt lat="47.64605" lon="4.35212">
        <ele>332.4</ele>
        <time>2026-05-20T09:35:04Z</time>
      </trkpt>
      <trkpt lat="47.64606" lon="4.35207">
        <ele>332.4</ele>
        <time>2026-05-20T09:35:05Z</time>
      </trkpt>
      <trkpt lat="47.64608" lon="4.35203">
        <ele>332.6</ele>
        <time>2026-05-20T09:35:06Z</time>
      </trkpt>
      <trkpt lat="47.64609" lon="4.35198">
        <ele>332.6</ele>
        <time>2026-05-20T09:35:07Z</time>
      </trkpt>
      <trkpt lat="47.64611" lon="4.35194">
        <ele>332.6</ele>
        <time>2026-05-20T09:35:08Z</time>
      </trkpt>
      <trkpt lat="47.64613" lon="4.3519">
        <ele>332.6</ele>
        <time>2026-05-20T09:35:09Z</time>
      </trkpt>
      <trkpt lat="47.64614" lon="4.35186">
        <ele>332.8</ele>
        <time>2026-05-20T09:35:10Z</time>
      </trkpt>
      <trkpt lat="47.64615" lon="4.35182">
        <ele>332.8</ele>
        <time>2026-05-20T09:35:11Z</time>
      </trkpt>
      <trkpt lat="47.64616" lon="4.35178">
        <ele>333</ele>
        <time>2026-05-20T09:35:12Z</time>
      </trkpt>
      <trkpt lat="47.64618" lon="4.35174">
        <ele>333</ele>
        <time>2026-05-20T09:35:13Z</time>
      </trkpt>
      <trkpt lat="47.64619" lon="4.3517">
        <ele>333</ele>
        <time>2026-05-20T09:35:14Z</time>
      </trkpt>
      <trkpt lat="47.6462" lon="4.35167">
        <ele>333</ele>
        <time>2026-05-20T09:35:15Z</time>
      </trkpt>
      <trkpt lat="47.64621" lon="4.35163">
        <ele>333.2</ele>
        <time>2026-05-20T09:35:16Z</time>
      </trkpt>
      <trkpt lat="47.64622" lon="4.3516">
        <ele>333.4</ele>
        <time>2026-05-20T09:35:17Z</time>
      </trkpt>
      <trkpt lat="47.64623" lon="4.35156">
        <ele>333.4</ele>
        <time>2026-05-20T09:35:18Z</time>
      </trkpt>
      <trkpt lat="47.64624" lon="4.35153">
        <ele>333.6</ele>
        <time>2026-05-20T09:35:19Z</time>
      </trkpt>
      <trkpt lat="47.64625" lon="4.3515">
        <ele>334</ele>
        <time>2026-05-20T09:35:20Z</time>
      </trkpt>
      <trkpt lat="47.64627" lon="4.35147">
        <ele>334</ele>
        <time>2026-05-20T09:35:21Z</time>
      </trkpt>
      <trkpt lat="47.64628" lon="4.35144">
        <ele>334.2</ele>
        <time>2026-05-20T09:35:22Z</time>
      </trkpt>
      <trkpt lat="47.64628" lon="4.35144">
        <ele>334.4</ele>
        <time>2026-05-20T09:35:23Z</time>
      </trkpt>
      <trkpt lat="47.64631" lon="4.35138">
        <ele>334.4</ele>
        <time>2026-05-20T09:35:24Z</time>
      </trkpt>
      <trkpt lat="47.64632" lon="4.35134">
        <ele>334.4</ele>
        <time>2026-05-20T09:35:25Z</time>
      </trkpt>
      <trkpt lat="47.64634" lon="4.35131">
        <ele>334.8</ele>
        <time>2026-05-20T09:35:26Z</time>
      </trkpt>
      <trkpt lat="47.64635" lon="4.35128">
        <ele>335</ele>
        <time>2026-05-20T09:35:27Z</time>
      </trkpt>
      <trkpt lat="47.64637" lon="4.35125">
        <ele>335.2</ele>
        <time>2026-05-20T09:35:28Z</time>
      </trkpt>
      <trkpt lat="47.64639" lon="4.35121">
        <ele>335.4</ele>
        <time>2026-05-20T09:35:29Z</time>
      </trkpt>
      <trkpt lat="47.6464" lon="4.35119">
        <ele>335.4</ele>
        <time>2026-05-20T09:35:30Z</time>
      </trkpt>
      <trkpt lat="47.64642" lon="4.35116">
        <ele>335.8</ele>
        <time>2026-05-20T09:35:31Z</time>
      </trkpt>
      <trkpt lat="47.64643" lon="4.35113">
        <ele>335.8</ele>
        <time>2026-05-20T09:35:32Z</time>
      </trkpt>
      <trkpt lat="47.64643" lon="4.35113">
        <ele>336</ele>
        <time>2026-05-20T09:35:33Z</time>
      </trkpt>
      <trkpt lat="47.64646" lon="4.3511">
        <ele>336.2</ele>
        <time>2026-05-20T09:35:34Z</time>
      </trkpt>
      <trkpt lat="47.64647" lon="4.35108">
        <ele>336.8</ele>
        <time>2026-05-20T09:35:35Z</time>
      </trkpt>
      <trkpt lat="47.64649" lon="4.35106">
        <ele>337</ele>
        <time>2026-05-20T09:35:36Z</time>
      </trkpt>
      <trkpt lat="47.6465" lon="4.35105">
        <ele>337.2</ele>
        <time>2026-05-20T09:35:37Z</time>
      </trkpt>
      <trkpt lat="47.64652" lon="4.35103">
        <ele>337.2</ele>
        <time>2026-05-20T09:35:38Z</time>
      </trkpt>
      <trkpt lat="47.64653" lon="4.351">
        <ele>337.4</ele>
        <time>2026-05-20T09:35:39Z</time>
      </trkpt>
      <trkpt lat="47.64654" lon="4.35098">
        <ele>337.6</ele>
        <time>2026-05-20T09:35:40Z</time>
      </trkpt>
      <trkpt lat="47.64655" lon="4.35096">
        <ele>337.6</ele>
        <time>2026-05-20T09:35:41Z</time>
      </trkpt>
      <trkpt lat="47.64657" lon="4.35094">
        <ele>338</ele>
        <time>2026-05-20T09:35:42Z</time>
      </trkpt>
      <trkpt lat="47.64658" lon="4.35091">
        <ele>338.2</ele>
        <time>2026-05-20T09:35:43Z</time>
      </trkpt>
      <trkpt lat="47.64659" lon="4.35089">
        <ele>338.6</ele>
        <time>2026-05-20T09:35:44Z</time>
      </trkpt>
      <trkpt lat="47.64661" lon="4.35086">
        <ele>338.8</ele>
        <time>2026-05-20T09:35:45Z</time>
      </trkpt>
      <trkpt lat="47.64663" lon="4.35084">
        <ele>339</ele>
        <time>2026-05-20T09:35:46Z</time>
      </trkpt>
      <trkpt lat="47.64664" lon="4.35082">
        <ele>339.2</ele>
        <time>2026-05-20T09:35:47Z</time>
      </trkpt>
      <trkpt lat="47.64666" lon="4.35079">
        <ele>339.2</ele>
        <time>2026-05-20T09:35:48Z</time>
      </trkpt>
      <trkpt lat="47.64668" lon="4.35077">
        <ele>339.4</ele>
        <time>2026-05-20T09:35:49Z</time>
      </trkpt>
      <trkpt lat="47.64669" lon="4.35074">
        <ele>339.6</ele>
        <time>2026-05-20T09:35:50Z</time>
      </trkpt>
      <trkpt lat="47.64671" lon="4.35071">
        <ele>340</ele>
        <time>2026-05-20T09:35:51Z</time>
      </trkpt>
      <trkpt lat="47.64672" lon="4.35068">
        <ele>340.2</ele>
        <time>2026-05-20T09:35:52Z</time>
      </trkpt>
      <trkpt lat="47.64674" lon="4.35066">
        <ele>340.4</ele>
        <time>2026-05-20T09:35:53Z</time>
      </trkpt>
      <trkpt lat="47.64676" lon="4.35063">
        <ele>340.6</ele>
        <time>2026-05-20T09:35:54Z</time>
      </trkpt>
      <trkpt lat="47.64677" lon="4.3506">
        <ele>340.8</ele>
        <time>2026-05-20T09:35:55Z</time>
      </trkpt>
      <trkpt lat="47.64679" lon="4.35057">
        <ele>340.8</ele>
        <time>2026-05-20T09:35:56Z</time>
      </trkpt>
      <trkpt lat="47.64681" lon="4.35053">
        <ele>341.4</ele>
        <time>2026-05-20T09:35:57Z</time>
      </trkpt>
      <trkpt lat="47.64683" lon="4.35051">
        <ele>342.2</ele>
        <time>2026-05-20T09:35:58Z</time>
      </trkpt>
      <trkpt lat="47.64685" lon="4.35047">
        <ele>342.4</ele>
        <time>2026-05-20T09:35:59Z</time>
      </trkpt>
      <trkpt lat="47.64686" lon="4.35043">
        <ele>342.6</ele>
        <time>2026-05-20T09:36:00Z</time>
      </trkpt>
      <trkpt lat="47.64687" lon="4.35041">
        <ele>342.8</ele>
        <time>2026-05-20T09:36:01Z</time>
      </trkpt>
      <trkpt lat="47.64688" lon="4.35037">
        <ele>342.8</ele>
        <time>2026-05-20T09:36:02Z</time>
      </trkpt>
      <trkpt lat="47.64689" lon="4.35033">
        <ele>343</ele>
        <time>2026-05-20T09:36:03Z</time>
      </trkpt>
      <trkpt lat="47.6469" lon="4.35029">
        <ele>343.2</ele>
        <time>2026-05-20T09:36:04Z</time>
      </trkpt>
      <trkpt lat="47.64691" lon="4.35025">
        <ele>343.6</ele>
        <time>2026-05-20T09:36:05Z</time>
      </trkpt>
      <trkpt lat="47.64692" lon="4.3502">
        <ele>344.2</ele>
        <time>2026-05-20T09:36:06Z</time>
      </trkpt>
      <trkpt lat="47.64694" lon="4.35016">
        <ele>344.4</ele>
        <time>2026-05-20T09:36:07Z</time>
      </trkpt>
      <trkpt lat="47.64694" lon="4.35012">
        <ele>344.6</ele>
        <time>2026-05-20T09:36:08Z</time>
      </trkpt>
      <trkpt lat="47.64696" lon="4.35007">
        <ele>344.8</ele>
        <time>2026-05-20T09:36:09Z</time>
      </trkpt>
      <trkpt lat="47.64697" lon="4.35003">
        <ele>345</ele>
        <time>2026-05-20T09:36:10Z</time>
      </trkpt>
      <trkpt lat="47.64697" lon="4.34998">
        <ele>345.4</ele>
        <time>2026-05-20T09:36:11Z</time>
      </trkpt>
      <trkpt lat="47.64697" lon="4.34998">
        <ele>345.4</ele>
        <time>2026-05-20T09:36:12Z</time>
      </trkpt>
      <trkpt lat="47.647" lon="4.34991">
        <ele>345.6</ele>
        <time>2026-05-20T09:36:13Z</time>
      </trkpt>
      <trkpt lat="47.64701" lon="4.34988">
        <ele>345.6</ele>
        <time>2026-05-20T09:36:14Z</time>
      </trkpt>
      <trkpt lat="47.64701" lon="4.34983">
        <ele>346</ele>
        <time>2026-05-20T09:36:15Z</time>
      </trkpt>
      <trkpt lat="47.64701" lon="4.34978">
        <ele>346.4</ele>
        <time>2026-05-20T09:36:16Z</time>
      </trkpt>
      <trkpt lat="47.64702" lon="4.34974">
        <ele>346.6</ele>
        <time>2026-05-20T09:36:17Z</time>
      </trkpt>
      <trkpt lat="47.64703" lon="4.34971">
        <ele>346.8</ele>
        <time>2026-05-20T09:36:18Z</time>
      </trkpt>
      <trkpt lat="47.64705" lon="4.34969">
        <ele>346.8</ele>
        <time>2026-05-20T09:36:19Z</time>
      </trkpt>
      <trkpt lat="47.64706" lon="4.34967">
        <ele>347</ele>
        <time>2026-05-20T09:36:20Z</time>
      </trkpt>
      <trkpt lat="47.64708" lon="4.34964">
        <ele>347.2</ele>
        <time>2026-05-20T09:36:21Z</time>
      </trkpt>
      <trkpt lat="47.6471" lon="4.34963">
        <ele>347.2</ele>
        <time>2026-05-20T09:36:22Z</time>
      </trkpt>
      <trkpt lat="47.64712" lon="4.34963">
        <ele>347.4</ele>
        <time>2026-05-20T09:36:23Z</time>
      </trkpt>
      <trkpt lat="47.64713" lon="4.34964">
        <ele>347.8</ele>
        <time>2026-05-20T09:36:24Z</time>
      </trkpt>
      <trkpt lat="47.64715" lon="4.34965">
        <ele>348.2</ele>
        <time>2026-05-20T09:36:25Z</time>
      </trkpt>
      <trkpt lat="47.64716" lon="4.34966">
        <ele>348.4</ele>
        <time>2026-05-20T09:36:26Z</time>
      </trkpt>
      <trkpt lat="47.64718" lon="4.34968">
        <ele>348.6</ele>
        <time>2026-05-20T09:36:27Z</time>
      </trkpt>
      <trkpt lat="47.64721" lon="4.34969">
        <ele>348.8</ele>
        <time>2026-05-20T09:36:28Z</time>
      </trkpt>
      <trkpt lat="47.64721" lon="4.34969">
        <ele>349</ele>
        <time>2026-05-20T09:36:29Z</time>
      </trkpt>
      <trkpt lat="47.64724" lon="4.34968">
        <ele>349</ele>
        <time>2026-05-20T09:36:30Z</time>
      </trkpt>
      <trkpt lat="47.64725" lon="4.34967">
        <ele>349</ele>
        <time>2026-05-20T09:36:31Z</time>
      </trkpt>
      <trkpt lat="47.64726" lon="4.34965">
        <ele>349</ele>
        <time>2026-05-20T09:36:32Z</time>
      </trkpt>
      <trkpt lat="47.64727" lon="4.34963">
        <ele>349</ele>
        <time>2026-05-20T09:36:33Z</time>
      </trkpt>
      <trkpt lat="47.64728" lon="4.34961">
        <ele>349</ele>
        <time>2026-05-20T09:36:34Z</time>
      </trkpt>
      <trkpt lat="47.6473" lon="4.34958">
        <ele>349</ele>
        <time>2026-05-20T09:36:35Z</time>
      </trkpt>
      <trkpt lat="47.6473" lon="4.34956">
        <ele>349.2</ele>
        <time>2026-05-20T09:36:36Z</time>
      </trkpt>
      <trkpt lat="47.64732" lon="4.34954">
        <ele>349.2</ele>
        <time>2026-05-20T09:36:37Z</time>
      </trkpt>
      <trkpt lat="47.64733" lon="4.34953">
        <ele>349.4</ele>
        <time>2026-05-20T09:36:38Z</time>
      </trkpt>
      <trkpt lat="47.64734" lon="4.34951">
        <ele>349.4</ele>
        <time>2026-05-20T09:36:39Z</time>
      </trkpt>
      <trkpt lat="47.64735" lon="4.34949">
        <ele>349.6</ele>
        <time>2026-05-20T09:36:40Z</time>
      </trkpt>
      <trkpt lat="47.64736" lon="4.34948">
        <ele>349.8</ele>
        <time>2026-05-20T09:36:41Z</time>
      </trkpt>
      <trkpt lat="47.64738" lon="4.34946">
        <ele>350</ele>
        <time>2026-05-20T09:36:42Z</time>
      </trkpt>
      <trkpt lat="47.64739" lon="4.34944">
        <ele>350</ele>
        <time>2026-05-20T09:36:43Z</time>
      </trkpt>
      <trkpt lat="47.64741" lon="4.34942">
        <ele>350.2</ele>
        <time>2026-05-20T09:36:44Z</time>
      </trkpt>
      <trkpt lat="47.64743" lon="4.3494">
        <ele>350.2</ele>
        <time>2026-05-20T09:36:45Z</time>
      </trkpt>
      <trkpt lat="47.64746" lon="4.34938">
        <ele>350.4</ele>
        <time>2026-05-20T09:36:46Z</time>
      </trkpt>
      <trkpt lat="47.64748" lon="4.34935">
        <ele>350.6</ele>
        <time>2026-05-20T09:36:47Z</time>
      </trkpt>
      <trkpt lat="47.64749" lon="4.34933">
        <ele>350.6</ele>
        <time>2026-05-20T09:36:48Z</time>
      </trkpt>
      <trkpt lat="47.64751" lon="4.3493">
        <ele>350.8</ele>
        <time>2026-05-20T09:36:49Z</time>
      </trkpt>
      <trkpt lat="47.64753" lon="4.34926">
        <ele>351</ele>
        <time>2026-05-20T09:36:50Z</time>
      </trkpt>
      <trkpt lat="47.64755" lon="4.34921">
        <ele>351</ele>
        <time>2026-05-20T09:36:51Z</time>
      </trkpt>
      <trkpt lat="47.64757" lon="4.34919">
        <ele>351</ele>
        <time>2026-05-20T09:36:52Z</time>
      </trkpt>
      <trkpt lat="47.64759" lon="4.34915">
        <ele>351.2</ele>
        <time>2026-05-20T09:36:53Z</time>
      </trkpt>
      <trkpt lat="47.64759" lon="4.34911">
        <ele>351.4</ele>
        <time>2026-05-20T09:36:54Z</time>
      </trkpt>
      <trkpt lat="47.6476" lon="4.34907">
        <ele>351.4</ele>
        <time>2026-05-20T09:36:55Z</time>
      </trkpt>
      <trkpt lat="47.64762" lon="4.34904">
        <ele>351.4</ele>
        <time>2026-05-20T09:36:56Z</time>
      </trkpt>
      <trkpt lat="47.64764" lon="4.34902">
        <ele>351.4</ele>
        <time>2026-05-20T09:36:57Z</time>
      </trkpt>
      <trkpt lat="47.64765" lon="4.34899">
        <ele>351.6</ele>
        <time>2026-05-20T09:36:58Z</time>
      </trkpt>
      <trkpt lat="47.64767" lon="4.34896">
        <ele>351.6</ele>
        <time>2026-05-20T09:36:59Z</time>
      </trkpt>
      <trkpt lat="47.6477" lon="4.34892">
        <ele>351.8</ele>
        <time>2026-05-20T09:37:00Z</time>
      </trkpt>
      <trkpt lat="47.64771" lon="4.34889">
        <ele>351.8</ele>
        <time>2026-05-20T09:37:01Z</time>
      </trkpt>
      <trkpt lat="47.64773" lon="4.34885">
        <ele>351.8</ele>
        <time>2026-05-20T09:37:02Z</time>
      </trkpt>
      <trkpt lat="47.64776" lon="4.34881">
        <ele>351.8</ele>
        <time>2026-05-20T09:37:03Z</time>
      </trkpt>
      <trkpt lat="47.64777" lon="4.34877">
        <ele>351.8</ele>
        <time>2026-05-20T09:37:04Z</time>
      </trkpt>
      <trkpt lat="47.64779" lon="4.34873">
        <ele>351.8</ele>
        <time>2026-05-20T09:37:05Z</time>
      </trkpt>
      <trkpt lat="47.6478" lon="4.3487">
        <ele>351.8</ele>
        <time>2026-05-20T09:37:06Z</time>
      </trkpt>
      <trkpt lat="47.64781" lon="4.34866">
        <ele>351.6</ele>
        <time>2026-05-20T09:37:07Z</time>
      </trkpt>
      <trkpt lat="47.64782" lon="4.34864">
        <ele>351.6</ele>
        <time>2026-05-20T09:37:08Z</time>
      </trkpt>
      <trkpt lat="47.64783" lon="4.34862">
        <ele>351.6</ele>
        <time>2026-05-20T09:37:09Z</time>
      </trkpt>
      <trkpt lat="47.64785" lon="4.3486">
        <ele>351.6</ele>
        <time>2026-05-20T09:37:10Z</time>
      </trkpt>
      <trkpt lat="47.64788" lon="4.34855">
        <ele>351.6</ele>
        <time>2026-05-20T09:37:11Z</time>
      </trkpt>
      <trkpt lat="47.64789" lon="4.34852">
        <ele>351.6</ele>
        <time>2026-05-20T09:37:12Z</time>
      </trkpt>
      <trkpt lat="47.64791" lon="4.34847">
        <ele>351.6</ele>
        <time>2026-05-20T09:37:13Z</time>
      </trkpt>
      <trkpt lat="47.64794" lon="4.34842">
        <ele>351.6</ele>
        <time>2026-05-20T09:37:14Z</time>
      </trkpt>
      <trkpt lat="47.64794" lon="4.34842">
        <ele>351.6</ele>
        <time>2026-05-20T09:37:15Z</time>
      </trkpt>
      <trkpt lat="47.64798" lon="4.34831">
        <ele>351.4</ele>
        <time>2026-05-20T09:37:16Z</time>
      </trkpt>
      <trkpt lat="47.64801" lon="4.34826">
        <ele>351.4</ele>
        <time>2026-05-20T09:37:17Z</time>
      </trkpt>
      <trkpt lat="47.64803" lon="4.34823">
        <ele>351.2</ele>
        <time>2026-05-20T09:37:18Z</time>
      </trkpt>
      <trkpt lat="47.64804" lon="4.34818">
        <ele>351.2</ele>
        <time>2026-05-20T09:37:19Z</time>
      </trkpt>
      <trkpt lat="47.64806" lon="4.34815">
        <ele>351</ele>
        <time>2026-05-20T09:37:20Z</time>
      </trkpt>
      <trkpt lat="47.64809" lon="4.3481">
        <ele>350.8</ele>
        <time>2026-05-20T09:37:21Z</time>
      </trkpt>
      <trkpt lat="47.64811" lon="4.34807">
        <ele>350.6</ele>
        <time>2026-05-20T09:37:22Z</time>
      </trkpt>
      <trkpt lat="47.64812" lon="4.34803">
        <ele>350.4</ele>
        <time>2026-05-20T09:37:23Z</time>
      </trkpt>
      <trkpt lat="47.64813" lon="4.348">
        <ele>350.4</ele>
        <time>2026-05-20T09:37:24Z</time>
      </trkpt>
      <trkpt lat="47.64815" lon="4.34796">
        <ele>350.2</ele>
        <time>2026-05-20T09:37:25Z</time>
      </trkpt>
      <trkpt lat="47.64819" lon="4.34791">
        <ele>350.2</ele>
        <time>2026-05-20T09:37:26Z</time>
      </trkpt>
      <trkpt lat="47.64821" lon="4.34789">
        <ele>350</ele>
        <time>2026-05-20T09:37:27Z</time>
      </trkpt>
      <trkpt lat="47.64821" lon="4.34786">
        <ele>350</ele>
        <time>2026-05-20T09:37:28Z</time>
      </trkpt>
      <trkpt lat="47.64822" lon="4.34782">
        <ele>350</ele>
        <time>2026-05-20T09:37:29Z</time>
      </trkpt>
      <trkpt lat="47.64824" lon="4.34777">
        <ele>349.8</ele>
        <time>2026-05-20T09:37:30Z</time>
      </trkpt>
      <trkpt lat="47.64826" lon="4.34773">
        <ele>349.8</ele>
        <time>2026-05-20T09:37:31Z</time>
      </trkpt>
      <trkpt lat="47.64827" lon="4.34769">
        <ele>349.4</ele>
        <time>2026-05-20T09:37:32Z</time>
      </trkpt>
      <trkpt lat="47.64828" lon="4.34765">
        <ele>349.2</ele>
        <time>2026-05-20T09:37:33Z</time>
      </trkpt>
      <trkpt lat="47.6483" lon="4.34761">
        <ele>349</ele>
        <time>2026-05-20T09:37:34Z</time>
      </trkpt>
      <trkpt lat="47.64831" lon="4.34758">
        <ele>349.2</ele>
        <time>2026-05-20T09:37:35Z</time>
      </trkpt>
      <trkpt lat="47.64834" lon="4.34753">
        <ele>348.6</ele>
        <time>2026-05-20T09:37:36Z</time>
      </trkpt>
      <trkpt lat="47.64836" lon="4.34751">
        <ele>348.6</ele>
        <time>2026-05-20T09:37:37Z</time>
      </trkpt>
      <trkpt lat="47.64836" lon="4.34749">
        <ele>348.2</ele>
        <time>2026-05-20T09:37:38Z</time>
      </trkpt>
      <trkpt lat="47.64838" lon="4.34745">
        <ele>348</ele>
        <time>2026-05-20T09:37:39Z</time>
      </trkpt>
      <trkpt lat="47.6484" lon="4.34741">
        <ele>347.8</ele>
        <time>2026-05-20T09:37:40Z</time>
      </trkpt>
      <trkpt lat="47.64842" lon="4.34737">
        <ele>347.6</ele>
        <time>2026-05-20T09:37:41Z</time>
      </trkpt>
      <trkpt lat="47.64844" lon="4.34731">
        <ele>347.6</ele>
        <time>2026-05-20T09:37:42Z</time>
      </trkpt>
      <trkpt lat="47.64847" lon="4.34724">
        <ele>347.2</ele>
        <time>2026-05-20T09:37:43Z</time>
      </trkpt>
      <trkpt lat="47.64851" lon="4.34719">
        <ele>347.2</ele>
        <time>2026-05-20T09:37:44Z</time>
      </trkpt>
      <trkpt lat="47.64853" lon="4.34714">
        <ele>346.8</ele>
        <time>2026-05-20T09:37:45Z</time>
      </trkpt>
      <trkpt lat="47.64856" lon="4.34711">
        <ele>346.8</ele>
        <time>2026-05-20T09:37:46Z</time>
      </trkpt>
      <trkpt lat="47.64858" lon="4.34707">
        <ele>346.4</ele>
        <time>2026-05-20T09:37:47Z</time>
      </trkpt>
      <trkpt lat="47.64862" lon="4.34701">
        <ele>346.4</ele>
        <time>2026-05-20T09:37:48Z</time>
      </trkpt>
      <trkpt lat="47.64865" lon="4.34696">
        <ele>346.2</ele>
        <time>2026-05-20T09:37:49Z</time>
      </trkpt>
      <trkpt lat="47.64868" lon="4.34692">
        <ele>346</ele>
        <time>2026-05-20T09:37:50Z</time>
      </trkpt>
      <trkpt lat="47.6487" lon="4.34689">
        <ele>345.8</ele>
        <time>2026-05-20T09:37:51Z</time>
      </trkpt>
      <trkpt lat="47.64872" lon="4.34685">
        <ele>345.6</ele>
        <time>2026-05-20T09:37:52Z</time>
      </trkpt>
      <trkpt lat="47.64874" lon="4.3468">
        <ele>345.6</ele>
        <time>2026-05-20T09:37:53Z</time>
      </trkpt>
      <trkpt lat="47.64877" lon="4.34675">
        <ele>345.2</ele>
        <time>2026-05-20T09:37:54Z</time>
      </trkpt>
      <trkpt lat="47.6488" lon="4.3467">
        <ele>344.8</ele>
        <time>2026-05-20T09:37:55Z</time>
      </trkpt>
      <trkpt lat="47.64883" lon="4.34665">
        <ele>344.2</ele>
        <time>2026-05-20T09:37:56Z</time>
      </trkpt>
      <trkpt lat="47.64885" lon="4.3466">
        <ele>344</ele>
        <time>2026-05-20T09:37:57Z</time>
      </trkpt>
      <trkpt lat="47.64886" lon="4.34655">
        <ele>343.6</ele>
        <time>2026-05-20T09:37:58Z</time>
      </trkpt>
      <trkpt lat="47.64886" lon="4.34655">
        <ele>343.4</ele>
        <time>2026-05-20T09:37:59Z</time>
      </trkpt>
      <trkpt lat="47.64889" lon="4.34645">
        <ele>343.4</ele>
        <time>2026-05-20T09:38:00Z</time>
      </trkpt>
      <trkpt lat="47.64889" lon="4.34641">
        <ele>343.2</ele>
        <time>2026-05-20T09:38:01Z</time>
      </trkpt>
      <trkpt lat="47.6489" lon="4.34636">
        <ele>343.2</ele>
        <time>2026-05-20T09:38:02Z</time>
      </trkpt>
      <trkpt lat="47.64891" lon="4.34631">
        <ele>343</ele>
        <time>2026-05-20T09:38:03Z</time>
      </trkpt>
      <trkpt lat="47.64893" lon="4.34624">
        <ele>342.8</ele>
        <time>2026-05-20T09:38:04Z</time>
      </trkpt>
      <trkpt lat="47.64895" lon="4.34618">
        <ele>342.8</ele>
        <time>2026-05-20T09:38:05Z</time>
      </trkpt>
      <trkpt lat="47.64897" lon="4.34611">
        <ele>342.8</ele>
        <time>2026-05-20T09:38:06Z</time>
      </trkpt>
      <trkpt lat="47.649" lon="4.34605">
        <ele>342.4</ele>
        <time>2026-05-20T09:38:07Z</time>
      </trkpt>
      <trkpt lat="47.64904" lon="4.34599">
        <ele>342.2</ele>
        <time>2026-05-20T09:38:08Z</time>
      </trkpt>
      <trkpt lat="47.64907" lon="4.34596">
        <ele>342</ele>
        <time>2026-05-20T09:38:09Z</time>
      </trkpt>
      <trkpt lat="47.64909" lon="4.34594">
        <ele>341.6</ele>
        <time>2026-05-20T09:38:10Z</time>
      </trkpt>
      <trkpt lat="47.64911" lon="4.34592">
        <ele>341.4</ele>
        <time>2026-05-20T09:38:11Z</time>
      </trkpt>
      <trkpt lat="47.64913" lon="4.3459">
        <ele>341</ele>
        <time>2026-05-20T09:38:12Z</time>
      </trkpt>
      <trkpt lat="47.64915" lon="4.34587">
        <ele>341</ele>
        <time>2026-05-20T09:38:13Z</time>
      </trkpt>
      <trkpt lat="47.64917" lon="4.34583">
        <ele>340.8</ele>
        <time>2026-05-20T09:38:14Z</time>
      </trkpt>
      <trkpt lat="47.64919" lon="4.3458">
        <ele>340.8</ele>
        <time>2026-05-20T09:38:15Z</time>
      </trkpt>
      <trkpt lat="47.64921" lon="4.34577">
        <ele>340.8</ele>
        <time>2026-05-20T09:38:16Z</time>
      </trkpt>
      <trkpt lat="47.64923" lon="4.34574">
        <ele>340.6</ele>
        <time>2026-05-20T09:38:17Z</time>
      </trkpt>
      <trkpt lat="47.64924" lon="4.34571">
        <ele>340.6</ele>
        <time>2026-05-20T09:38:18Z</time>
      </trkpt>
      <trkpt lat="47.64926" lon="4.34569">
        <ele>340.8</ele>
        <time>2026-05-20T09:38:19Z</time>
      </trkpt>
      <trkpt lat="47.64927" lon="4.34565">
        <ele>340.8</ele>
        <time>2026-05-20T09:38:20Z</time>
      </trkpt>
      <trkpt lat="47.64928" lon="4.34563">
        <ele>340.8</ele>
        <time>2026-05-20T09:38:21Z</time>
      </trkpt>
      <trkpt lat="47.6493" lon="4.3456">
        <ele>340.8</ele>
        <time>2026-05-20T09:38:22Z</time>
      </trkpt>
      <trkpt lat="47.64932" lon="4.34557">
        <ele>340.8</ele>
        <time>2026-05-20T09:38:23Z</time>
      </trkpt>
      <trkpt lat="47.64933" lon="4.34553">
        <ele>340.8</ele>
        <time>2026-05-20T09:38:24Z</time>
      </trkpt>
      <trkpt lat="47.64935" lon="4.34549">
        <ele>340.8</ele>
        <time>2026-05-20T09:38:25Z</time>
      </trkpt>
      <trkpt lat="47.64937" lon="4.34545">
        <ele>340.8</ele>
        <time>2026-05-20T09:38:26Z</time>
      </trkpt>
      <trkpt lat="47.64939" lon="4.34542">
        <ele>341</ele>
        <time>2026-05-20T09:38:27Z</time>
      </trkpt>
      <trkpt lat="47.6494" lon="4.34538">
        <ele>341.2</ele>
        <time>2026-05-20T09:38:28Z</time>
      </trkpt>
      <trkpt lat="47.64941" lon="4.34535">
        <ele>341.4</ele>
        <time>2026-05-20T09:38:29Z</time>
      </trkpt>
      <trkpt lat="47.64943" lon="4.34531">
        <ele>341.4</ele>
        <time>2026-05-20T09:38:30Z</time>
      </trkpt>
      <trkpt lat="47.64945" lon="4.34528">
        <ele>341.4</ele>
        <time>2026-05-20T09:38:31Z</time>
      </trkpt>
      <trkpt lat="47.64946" lon="4.34524">
        <ele>341.6</ele>
        <time>2026-05-20T09:38:32Z</time>
      </trkpt>
      <trkpt lat="47.64948" lon="4.34521">
        <ele>341.6</ele>
        <time>2026-05-20T09:38:33Z</time>
      </trkpt>
      <trkpt lat="47.6495" lon="4.34517">
        <ele>341.6</ele>
        <time>2026-05-20T09:38:34Z</time>
      </trkpt>
      <trkpt lat="47.64952" lon="4.34514">
        <ele>341.6</ele>
        <time>2026-05-20T09:38:35Z</time>
      </trkpt>
      <trkpt lat="47.64955" lon="4.3451">
        <ele>341.6</ele>
        <time>2026-05-20T09:38:36Z</time>
      </trkpt>
      <trkpt lat="47.64958" lon="4.34504">
        <ele>341.6</ele>
        <time>2026-05-20T09:38:37Z</time>
      </trkpt>
      <trkpt lat="47.64961" lon="4.34499">
        <ele>341.8</ele>
        <time>2026-05-20T09:38:38Z</time>
      </trkpt>
      <trkpt lat="47.64963" lon="4.34494">
        <ele>341.8</ele>
        <time>2026-05-20T09:38:39Z</time>
      </trkpt>
      <trkpt lat="47.64965" lon="4.3449">
        <ele>342</ele>
        <time>2026-05-20T09:38:40Z</time>
      </trkpt>
      <trkpt lat="47.64967" lon="4.34486">
        <ele>342.2</ele>
        <time>2026-05-20T09:38:41Z</time>
      </trkpt>
      <trkpt lat="47.64969" lon="4.34482">
        <ele>342.2</ele>
        <time>2026-05-20T09:38:42Z</time>
      </trkpt>
      <trkpt lat="47.6497" lon="4.34478">
        <ele>342.2</ele>
        <time>2026-05-20T09:38:43Z</time>
      </trkpt>
      <trkpt lat="47.64973" lon="4.34473">
        <ele>342.4</ele>
        <time>2026-05-20T09:38:44Z</time>
      </trkpt>
      <trkpt lat="47.64975" lon="4.34467">
        <ele>342.6</ele>
        <time>2026-05-20T09:38:45Z</time>
      </trkpt>
      <trkpt lat="47.64978" lon="4.34462">
        <ele>342.6</ele>
        <time>2026-05-20T09:38:46Z</time>
      </trkpt>
      <trkpt lat="47.64979" lon="4.34457">
        <ele>342.6</ele>
        <time>2026-05-20T09:38:47Z</time>
      </trkpt>
      <trkpt lat="47.64982" lon="4.34452">
        <ele>342.6</ele>
        <time>2026-05-20T09:38:48Z</time>
      </trkpt>
      <trkpt lat="47.64985" lon="4.34448">
        <ele>342.6</ele>
        <time>2026-05-20T09:38:49Z</time>
      </trkpt>
      <trkpt lat="47.64986" lon="4.34444">
        <ele>342.6</ele>
        <time>2026-05-20T09:38:50Z</time>
      </trkpt>
      <trkpt lat="47.64989" lon="4.3444">
        <ele>342.8</ele>
        <time>2026-05-20T09:38:51Z</time>
      </trkpt>
      <trkpt lat="47.6499" lon="4.34435">
        <ele>342.8</ele>
        <time>2026-05-20T09:38:52Z</time>
      </trkpt>
      <trkpt lat="47.64991" lon="4.34429">
        <ele>342.8</ele>
        <time>2026-05-20T09:38:53Z</time>
      </trkpt>
      <trkpt lat="47.6499" lon="4.34424">
        <ele>342.8</ele>
        <time>2026-05-20T09:38:54Z</time>
      </trkpt>
      <trkpt lat="47.6499" lon="4.34419">
        <ele>342.8</ele>
        <time>2026-05-20T09:38:55Z</time>
      </trkpt>
      <trkpt lat="47.64991" lon="4.34417">
        <ele>342.8</ele>
        <time>2026-05-20T09:38:56Z</time>
      </trkpt>
      <trkpt lat="47.64991" lon="4.34416">
        <ele>342.8</ele>
        <time>2026-05-20T09:38:57Z</time>
      </trkpt>
      <trkpt lat="47.64993" lon="4.34415">
        <ele>342.8</ele>
        <time>2026-05-20T09:38:58Z</time>
      </trkpt>
      <trkpt lat="47.64997" lon="4.34412">
        <ele>342.8</ele>
        <time>2026-05-20T09:38:59Z</time>
      </trkpt>
      <trkpt lat="47.64999" lon="4.3441">
        <ele>342.8</ele>
        <time>2026-05-20T09:39:00Z</time>
      </trkpt>
      <trkpt lat="47.65001" lon="4.34406">
        <ele>342.8</ele>
        <time>2026-05-20T09:39:01Z</time>
      </trkpt>
      <trkpt lat="47.65003" lon="4.34403">
        <ele>342.8</ele>
        <time>2026-05-20T09:39:02Z</time>
      </trkpt>
      <trkpt lat="47.65004" lon="4.34401">
        <ele>343</ele>
        <time>2026-05-20T09:39:03Z</time>
      </trkpt>
      <trkpt lat="47.65006" lon="4.34397">
        <ele>343</ele>
        <time>2026-05-20T09:39:04Z</time>
      </trkpt>
      <trkpt lat="47.65009" lon="4.34395">
        <ele>343</ele>
        <time>2026-05-20T09:39:05Z</time>
      </trkpt>
      <trkpt lat="47.65011" lon="4.34392">
        <ele>343</ele>
        <time>2026-05-20T09:39:06Z</time>
      </trkpt>
      <trkpt lat="47.65013" lon="4.34388">
        <ele>343</ele>
        <time>2026-05-20T09:39:07Z</time>
      </trkpt>
      <trkpt lat="47.65016" lon="4.34385">
        <ele>342.8</ele>
        <time>2026-05-20T09:39:08Z</time>
      </trkpt>
      <trkpt lat="47.65018" lon="4.34382">
        <ele>342.8</ele>
        <time>2026-05-20T09:39:09Z</time>
      </trkpt>
      <trkpt lat="47.6502" lon="4.34379">
        <ele>342.8</ele>
        <time>2026-05-20T09:39:10Z</time>
      </trkpt>
      <trkpt lat="47.65023" lon="4.34374">
        <ele>342.8</ele>
        <time>2026-05-20T09:39:11Z</time>
      </trkpt>
      <trkpt lat="47.65026" lon="4.34369">
        <ele>342.6</ele>
        <time>2026-05-20T09:39:12Z</time>
      </trkpt>
      <trkpt lat="47.65029" lon="4.34364">
        <ele>342.4</ele>
        <time>2026-05-20T09:39:13Z</time>
      </trkpt>
      <trkpt lat="47.65032" lon="4.34361">
        <ele>342.4</ele>
        <time>2026-05-20T09:39:14Z</time>
      </trkpt>
      <trkpt lat="47.65034" lon="4.34358">
        <ele>342.2</ele>
        <time>2026-05-20T09:39:15Z</time>
      </trkpt>
      <trkpt lat="47.65038" lon="4.34354">
        <ele>342.2</ele>
        <time>2026-05-20T09:39:16Z</time>
      </trkpt>
      <trkpt lat="47.65041" lon="4.34353">
        <ele>342.2</ele>
        <time>2026-05-20T09:39:17Z</time>
      </trkpt>
      <trkpt lat="47.65043" lon="4.34353">
        <ele>342</ele>
        <time>2026-05-20T09:39:18Z</time>
      </trkpt>
      <trkpt lat="47.65044" lon="4.34354">
        <ele>342</ele>
        <time>2026-05-20T09:39:19Z</time>
      </trkpt>
      <trkpt lat="47.65046" lon="4.34355">
        <ele>342</ele>
        <time>2026-05-20T09:39:20Z</time>
      </trkpt>
      <trkpt lat="47.65049" lon="4.34355">
        <ele>342.2</ele>
        <time>2026-05-20T09:39:21Z</time>
      </trkpt>
      <trkpt lat="47.65052" lon="4.34355">
        <ele>342</ele>
        <time>2026-05-20T09:39:22Z</time>
      </trkpt>
      <trkpt lat="47.65055" lon="4.34355">
        <ele>342.2</ele>
        <time>2026-05-20T09:39:23Z</time>
      </trkpt>
      <trkpt lat="47.65059" lon="4.34355">
        <ele>342</ele>
        <time>2026-05-20T09:39:24Z</time>
      </trkpt>
      <trkpt lat="47.65063" lon="4.34355">
        <ele>342.2</ele>
        <time>2026-05-20T09:39:25Z</time>
      </trkpt>
      <trkpt lat="47.65065" lon="4.34356">
        <ele>342.2</ele>
        <time>2026-05-20T09:39:26Z</time>
      </trkpt>
      <trkpt lat="47.65069" lon="4.34356">
        <ele>342.2</ele>
        <time>2026-05-20T09:39:27Z</time>
      </trkpt>
      <trkpt lat="47.65071" lon="4.34357">
        <ele>342.2</ele>
        <time>2026-05-20T09:39:28Z</time>
      </trkpt>
      <trkpt lat="47.65074" lon="4.34358">
        <ele>342.2</ele>
        <time>2026-05-20T09:39:29Z</time>
      </trkpt>
      <trkpt lat="47.65078" lon="4.34358">
        <ele>342.2</ele>
        <time>2026-05-20T09:39:30Z</time>
      </trkpt>
      <trkpt lat="47.65081" lon="4.34358">
        <ele>342.2</ele>
        <time>2026-05-20T09:39:31Z</time>
      </trkpt>
      <trkpt lat="47.65084" lon="4.34357">
        <ele>342.4</ele>
        <time>2026-05-20T09:39:32Z</time>
      </trkpt>
      <trkpt lat="47.65087" lon="4.34356">
        <ele>342.4</ele>
        <time>2026-05-20T09:39:33Z</time>
      </trkpt>
      <trkpt lat="47.6509" lon="4.34355">
        <ele>342.4</ele>
        <time>2026-05-20T09:39:34Z</time>
      </trkpt>
      <trkpt lat="47.65093" lon="4.34353">
        <ele>342.4</ele>
        <time>2026-05-20T09:39:35Z</time>
      </trkpt>
      <trkpt lat="47.65097" lon="4.34352">
        <ele>342.4</ele>
        <time>2026-05-20T09:39:36Z</time>
      </trkpt>
      <trkpt lat="47.651" lon="4.34351">
        <ele>342.2</ele>
        <time>2026-05-20T09:39:37Z</time>
      </trkpt>
      <trkpt lat="47.65102" lon="4.34353">
        <ele>342.2</ele>
        <time>2026-05-20T09:39:38Z</time>
      </trkpt>
      <trkpt lat="47.65105" lon="4.34354">
        <ele>342.2</ele>
        <time>2026-05-20T09:39:39Z</time>
      </trkpt>
      <trkpt lat="47.65108" lon="4.34355">
        <ele>342.2</ele>
        <time>2026-05-20T09:39:40Z</time>
      </trkpt>
      <trkpt lat="47.65108" lon="4.34355">
        <ele>342.4</ele>
        <time>2026-05-20T09:39:41Z</time>
      </trkpt>
      <trkpt lat="47.65115" lon="4.34352">
        <ele>342.4</ele>
        <time>2026-05-20T09:39:42Z</time>
      </trkpt>
      <trkpt lat="47.65117" lon="4.3435">
        <ele>342.4</ele>
        <time>2026-05-20T09:39:43Z</time>
      </trkpt>
      <trkpt lat="47.65119" lon="4.34347">
        <ele>342.4</ele>
        <time>2026-05-20T09:39:44Z</time>
      </trkpt>
      <trkpt lat="47.65121" lon="4.34344">
        <ele>342.4</ele>
        <time>2026-05-20T09:39:45Z</time>
      </trkpt>
      <trkpt lat="47.65124" lon="4.34342">
        <ele>342.2</ele>
        <time>2026-05-20T09:39:46Z</time>
      </trkpt>
      <trkpt lat="47.65126" lon="4.3434">
        <ele>342.2</ele>
        <time>2026-05-20T09:39:47Z</time>
      </trkpt>
      <trkpt lat="47.65128" lon="4.34336">
        <ele>342.2</ele>
        <time>2026-05-20T09:39:48Z</time>
      </trkpt>
      <trkpt lat="47.65131" lon="4.34333">
        <ele>342.2</ele>
        <time>2026-05-20T09:39:49Z</time>
      </trkpt>
      <trkpt lat="47.65133" lon="4.3433">
        <ele>342</ele>
        <time>2026-05-20T09:39:50Z</time>
      </trkpt>
      <trkpt lat="47.65135" lon="4.34326">
        <ele>341.8</ele>
        <time>2026-05-20T09:39:51Z</time>
      </trkpt>
      <trkpt lat="47.65136" lon="4.34322">
        <ele>341.8</ele>
        <time>2026-05-20T09:39:52Z</time>
      </trkpt>
      <trkpt lat="47.65137" lon="4.34318">
        <ele>341.8</ele>
        <time>2026-05-20T09:39:53Z</time>
      </trkpt>
      <trkpt lat="47.65138" lon="4.34313">
        <ele>341.8</ele>
        <time>2026-05-20T09:39:54Z</time>
      </trkpt>
      <trkpt lat="47.65139" lon="4.34309">
        <ele>342</ele>
        <time>2026-05-20T09:39:55Z</time>
      </trkpt>
      <trkpt lat="47.65139" lon="4.34307">
        <ele>342.2</ele>
        <time>2026-05-20T09:39:56Z</time>
      </trkpt>
      <trkpt lat="47.65138" lon="4.34304">
        <ele>342.4</ele>
        <time>2026-05-20T09:39:57Z</time>
      </trkpt>
      <trkpt lat="47.65138" lon="4.343">
        <ele>342.4</ele>
        <time>2026-05-20T09:39:58Z</time>
      </trkpt>
      <trkpt lat="47.65137" lon="4.34297">
        <ele>342.4</ele>
        <time>2026-05-20T09:39:59Z</time>
      </trkpt>
      <trkpt lat="47.65136" lon="4.34292">
        <ele>342.4</ele>
        <time>2026-05-20T09:40:00Z</time>
      </trkpt>
      <trkpt lat="47.65135" lon="4.34288">
        <ele>342.4</ele>
        <time>2026-05-20T09:40:01Z</time>
      </trkpt>
      <trkpt lat="47.65135" lon="4.34282">
        <ele>342.6</ele>
        <time>2026-05-20T09:40:02Z</time>
      </trkpt>
      <trkpt lat="47.65135" lon="4.34276">
        <ele>342.8</ele>
        <time>2026-05-20T09:40:03Z</time>
      </trkpt>
      <trkpt lat="47.65134" lon="4.34271">
        <ele>342.8</ele>
        <time>2026-05-20T09:40:04Z</time>
      </trkpt>
      <trkpt lat="47.65132" lon="4.34263">
        <ele>342.8</ele>
        <time>2026-05-20T09:40:05Z</time>
      </trkpt>
      <trkpt lat="47.65133" lon="4.34259">
        <ele>343</ele>
        <time>2026-05-20T09:40:06Z</time>
      </trkpt>
      <trkpt lat="47.65133" lon="4.34256">
        <ele>343</ele>
        <time>2026-05-20T09:40:07Z</time>
      </trkpt>
      <trkpt lat="47.65134" lon="4.34253">
        <ele>343</ele>
        <time>2026-05-20T09:40:08Z</time>
      </trkpt>
      <trkpt lat="47.65135" lon="4.3425">
        <ele>343.2</ele>
        <time>2026-05-20T09:40:09Z</time>
      </trkpt>
      <trkpt lat="47.65137" lon="4.34245">
        <ele>343.4</ele>
        <time>2026-05-20T09:40:10Z</time>
      </trkpt>
      <trkpt lat="47.65137" lon="4.34245">
        <ele>343.4</ele>
        <time>2026-05-20T09:40:11Z</time>
      </trkpt>
      <trkpt lat="47.65139" lon="4.34233">
        <ele>343.6</ele>
        <time>2026-05-20T09:40:12Z</time>
      </trkpt>
      <trkpt lat="47.6514" lon="4.34226">
        <ele>343.8</ele>
        <time>2026-05-20T09:40:13Z</time>
      </trkpt>
      <trkpt lat="47.65141" lon="4.34222">
        <ele>343.8</ele>
        <time>2026-05-20T09:40:14Z</time>
      </trkpt>
      <trkpt lat="47.65142" lon="4.34217">
        <ele>344</ele>
        <time>2026-05-20T09:40:15Z</time>
      </trkpt>
      <trkpt lat="47.65143" lon="4.34212">
        <ele>344.2</ele>
        <time>2026-05-20T09:40:16Z</time>
      </trkpt>
      <trkpt lat="47.65143" lon="4.34207">
        <ele>344.4</ele>
        <time>2026-05-20T09:40:17Z</time>
      </trkpt>
      <trkpt lat="47.65143" lon="4.34203">
        <ele>344.6</ele>
        <time>2026-05-20T09:40:18Z</time>
      </trkpt>
      <trkpt lat="47.65143" lon="4.34199">
        <ele>344.8</ele>
        <time>2026-05-20T09:40:19Z</time>
      </trkpt>
      <trkpt lat="47.65143" lon="4.34193">
        <ele>345</ele>
        <time>2026-05-20T09:40:20Z</time>
      </trkpt>
      <trkpt lat="47.65143" lon="4.34188">
        <ele>345</ele>
        <time>2026-05-20T09:40:21Z</time>
      </trkpt>
      <trkpt lat="47.65142" lon="4.34183">
        <ele>345</ele>
        <time>2026-05-20T09:40:22Z</time>
      </trkpt>
      <trkpt lat="47.65142" lon="4.34179">
        <ele>345.2</ele>
        <time>2026-05-20T09:40:23Z</time>
      </trkpt>
      <trkpt lat="47.65142" lon="4.34175">
        <ele>345.4</ele>
        <time>2026-05-20T09:40:24Z</time>
      </trkpt>
      <trkpt lat="47.65143" lon="4.34172">
        <ele>345.4</ele>
        <time>2026-05-20T09:40:25Z</time>
      </trkpt>
      <trkpt lat="47.65144" lon="4.34167">
        <ele>345.6</ele>
        <time>2026-05-20T09:40:26Z</time>
      </trkpt>
      <trkpt lat="47.65145" lon="4.34164">
        <ele>345.6</ele>
        <time>2026-05-20T09:40:27Z</time>
      </trkpt>
      <trkpt lat="47.65145" lon="4.3416">
        <ele>345.8</ele>
        <time>2026-05-20T09:40:28Z</time>
      </trkpt>
      <trkpt lat="47.65144" lon="4.34156">
        <ele>345.8</ele>
        <time>2026-05-20T09:40:29Z</time>
      </trkpt>
      <trkpt lat="47.65142" lon="4.34154">
        <ele>345.8</ele>
        <time>2026-05-20T09:40:30Z</time>
      </trkpt>
      <trkpt lat="47.65139" lon="4.34153">
        <ele>345.8</ele>
        <time>2026-05-20T09:40:31Z</time>
      </trkpt>
      <trkpt lat="47.65137" lon="4.34152">
        <ele>345.8</ele>
        <time>2026-05-20T09:40:32Z</time>
      </trkpt>
      <trkpt lat="47.65134" lon="4.34152">
        <ele>346</ele>
        <time>2026-05-20T09:40:33Z</time>
      </trkpt>
      <trkpt lat="47.6513" lon="4.34152">
        <ele>346</ele>
        <time>2026-05-20T09:40:34Z</time>
      </trkpt>
      <trkpt lat="47.65127" lon="4.34153">
        <ele>346</ele>
        <time>2026-05-20T09:40:35Z</time>
      </trkpt>
      <trkpt lat="47.65123" lon="4.34154">
        <ele>346</ele>
        <time>2026-05-20T09:40:36Z</time>
      </trkpt>
      <trkpt lat="47.65119" lon="4.34154">
        <ele>346</ele>
        <time>2026-05-20T09:40:37Z</time>
      </trkpt>
      <trkpt lat="47.65114" lon="4.34155">
        <ele>346</ele>
        <time>2026-05-20T09:40:38Z</time>
      </trkpt>
      <trkpt lat="47.65109" lon="4.34156">
        <ele>346</ele>
        <time>2026-05-20T09:40:39Z</time>
      </trkpt>
      <trkpt lat="47.65104" lon="4.34157">
        <ele>346</ele>
        <time>2026-05-20T09:40:40Z</time>
      </trkpt>
      <trkpt lat="47.651" lon="4.34158">
        <ele>345.8</ele>
        <time>2026-05-20T09:40:41Z</time>
      </trkpt>
      <trkpt lat="47.65095" lon="4.34159">
        <ele>345.6</ele>
        <time>2026-05-20T09:40:42Z</time>
      </trkpt>
      <trkpt lat="47.6509" lon="4.3416">
        <ele>345.4</ele>
        <time>2026-05-20T09:40:43Z</time>
      </trkpt>
      <trkpt lat="47.65085" lon="4.34161">
        <ele>345.2</ele>
        <time>2026-05-20T09:40:44Z</time>
      </trkpt>
      <trkpt lat="47.65078" lon="4.34162">
        <ele>345.2</ele>
        <time>2026-05-20T09:40:45Z</time>
      </trkpt>
      <trkpt lat="47.65074" lon="4.34163">
        <ele>344.6</ele>
        <time>2026-05-20T09:40:46Z</time>
      </trkpt>
      <trkpt lat="47.65068" lon="4.34164">
        <ele>344.2</ele>
        <time>2026-05-20T09:40:47Z</time>
      </trkpt>
      <trkpt lat="47.65063" lon="4.34166">
        <ele>343.6</ele>
        <time>2026-05-20T09:40:48Z</time>
      </trkpt>
      <trkpt lat="47.65057" lon="4.34167">
        <ele>343.4</ele>
        <time>2026-05-20T09:40:49Z</time>
      </trkpt>
      <trkpt lat="47.65052" lon="4.34168">
        <ele>343.2</ele>
        <time>2026-05-20T09:40:50Z</time>
      </trkpt>
      <trkpt lat="47.65046" lon="4.34169">
        <ele>342.8</ele>
        <time>2026-05-20T09:40:51Z</time>
      </trkpt>
      <trkpt lat="47.6504" lon="4.34171">
        <ele>342.4</ele>
        <time>2026-05-20T09:40:52Z</time>
      </trkpt>
      <trkpt lat="47.65034" lon="4.34172">
        <ele>341.6</ele>
        <time>2026-05-20T09:40:53Z</time>
      </trkpt>
      <trkpt lat="47.65028" lon="4.34173">
        <ele>341.4</ele>
        <time>2026-05-20T09:40:54Z</time>
      </trkpt>
      <trkpt lat="47.65023" lon="4.34173">
        <ele>341</ele>
        <time>2026-05-20T09:40:55Z</time>
      </trkpt>
      <trkpt lat="47.65017" lon="4.34174">
        <ele>341</ele>
        <time>2026-05-20T09:40:56Z</time>
      </trkpt>
      <trkpt lat="47.65011" lon="4.34175">
        <ele>340.4</ele>
        <time>2026-05-20T09:40:57Z</time>
      </trkpt>
      <trkpt lat="47.65005" lon="4.34175">
        <ele>340</ele>
        <time>2026-05-20T09:40:58Z</time>
      </trkpt>
      <trkpt lat="47.64999" lon="4.34175">
        <ele>340</ele>
        <time>2026-05-20T09:40:59Z</time>
      </trkpt>
      <trkpt lat="47.64999" lon="4.34175">
        <ele>339.8</ele>
        <time>2026-05-20T09:41:00Z</time>
      </trkpt>
      <trkpt lat="47.64987" lon="4.34173">
        <ele>339.4</ele>
        <time>2026-05-20T09:41:01Z</time>
      </trkpt>
      <trkpt lat="47.64981" lon="4.34171">
        <ele>338.8</ele>
        <time>2026-05-20T09:41:02Z</time>
      </trkpt>
      <trkpt lat="47.64975" lon="4.34169">
        <ele>338.2</ele>
        <time>2026-05-20T09:41:03Z</time>
      </trkpt>
      <trkpt lat="47.64968" lon="4.34167">
        <ele>337.2</ele>
        <time>2026-05-20T09:41:04Z</time>
      </trkpt>
      <trkpt lat="47.6496" lon="4.34165">
        <ele>336.8</ele>
        <time>2026-05-20T09:41:05Z</time>
      </trkpt>
      <trkpt lat="47.64954" lon="4.34163">
        <ele>336</ele>
        <time>2026-05-20T09:41:06Z</time>
      </trkpt>
      <trkpt lat="47.64948" lon="4.34162">
        <ele>335.4</ele>
        <time>2026-05-20T09:41:07Z</time>
      </trkpt>
      <trkpt lat="47.64942" lon="4.34161">
        <ele>335.2</ele>
        <time>2026-05-20T09:41:08Z</time>
      </trkpt>
      <trkpt lat="47.64937" lon="4.3416">
        <ele>334.8</ele>
        <time>2026-05-20T09:41:09Z</time>
      </trkpt>
      <trkpt lat="47.64932" lon="4.34159">
        <ele>334.6</ele>
        <time>2026-05-20T09:41:10Z</time>
      </trkpt>
      <trkpt lat="47.64929" lon="4.34157">
        <ele>334</ele>
        <time>2026-05-20T09:41:11Z</time>
      </trkpt>
      <trkpt lat="47.64927" lon="4.34155">
        <ele>333.8</ele>
        <time>2026-05-20T09:41:12Z</time>
      </trkpt>
      <trkpt lat="47.64925" lon="4.34152">
        <ele>333.6</ele>
        <time>2026-05-20T09:41:13Z</time>
      </trkpt>
      <trkpt lat="47.64924" lon="4.34148">
        <ele>333.4</ele>
        <time>2026-05-20T09:41:14Z</time>
      </trkpt>
      <trkpt lat="47.64923" lon="4.34143">
        <ele>333.2</ele>
        <time>2026-05-20T09:41:15Z</time>
      </trkpt>
      <trkpt lat="47.64922" lon="4.34138">
        <ele>332.8</ele>
        <time>2026-05-20T09:41:16Z</time>
      </trkpt>
      <trkpt lat="47.64922" lon="4.34132">
        <ele>332.6</ele>
        <time>2026-05-20T09:41:17Z</time>
      </trkpt>
      <trkpt lat="47.64922" lon="4.34126">
        <ele>332.6</ele>
        <time>2026-05-20T09:41:18Z</time>
      </trkpt>
      <trkpt lat="47.64922" lon="4.3412">
        <ele>332.6</ele>
        <time>2026-05-20T09:41:19Z</time>
      </trkpt>
      <trkpt lat="47.64922" lon="4.34114">
        <ele>332.4</ele>
        <time>2026-05-20T09:41:20Z</time>
      </trkpt>
      <trkpt lat="47.64921" lon="4.34108">
        <ele>332.4</ele>
        <time>2026-05-20T09:41:21Z</time>
      </trkpt>
      <trkpt lat="47.64921" lon="4.34102">
        <ele>332.4</ele>
        <time>2026-05-20T09:41:22Z</time>
      </trkpt>
      <trkpt lat="47.6492" lon="4.34097">
        <ele>332.6</ele>
        <time>2026-05-20T09:41:23Z</time>
      </trkpt>
      <trkpt lat="47.64919" lon="4.34091">
        <ele>332.6</ele>
        <time>2026-05-20T09:41:24Z</time>
      </trkpt>
      <trkpt lat="47.64918" lon="4.34086">
        <ele>332.8</ele>
        <time>2026-05-20T09:41:25Z</time>
      </trkpt>
      <trkpt lat="47.64916" lon="4.34081">
        <ele>332.8</ele>
        <time>2026-05-20T09:41:26Z</time>
      </trkpt>
      <trkpt lat="47.64915" lon="4.34077">
        <ele>333</ele>
        <time>2026-05-20T09:41:27Z</time>
      </trkpt>
      <trkpt lat="47.64913" lon="4.34073">
        <ele>333.2</ele>
        <time>2026-05-20T09:41:28Z</time>
      </trkpt>
      <trkpt lat="47.64911" lon="4.3407">
        <ele>333.4</ele>
        <time>2026-05-20T09:41:29Z</time>
      </trkpt>
      <trkpt lat="47.64908" lon="4.34066">
        <ele>333.6</ele>
        <time>2026-05-20T09:41:30Z</time>
      </trkpt>
      <trkpt lat="47.64905" lon="4.34063">
        <ele>333.8</ele>
        <time>2026-05-20T09:41:31Z</time>
      </trkpt>
      <trkpt lat="47.64902" lon="4.34059">
        <ele>333.8</ele>
        <time>2026-05-20T09:41:32Z</time>
      </trkpt>
      <trkpt lat="47.64899" lon="4.34055">
        <ele>334</ele>
        <time>2026-05-20T09:41:33Z</time>
      </trkpt>
      <trkpt lat="47.64896" lon="4.34051">
        <ele>334.2</ele>
        <time>2026-05-20T09:41:34Z</time>
      </trkpt>
      <trkpt lat="47.64893" lon="4.34047">
        <ele>334.2</ele>
        <time>2026-05-20T09:41:35Z</time>
      </trkpt>
      <trkpt lat="47.6489" lon="4.34042">
        <ele>334.4</ele>
        <time>2026-05-20T09:41:36Z</time>
      </trkpt>
      <trkpt lat="47.64887" lon="4.34038">
        <ele>334.4</ele>
        <time>2026-05-20T09:41:37Z</time>
      </trkpt>
      <trkpt lat="47.64884" lon="4.34033">
        <ele>334.4</ele>
        <time>2026-05-20T09:41:38Z</time>
      </trkpt>
      <trkpt lat="47.64882" lon="4.34029">
        <ele>334.4</ele>
        <time>2026-05-20T09:41:39Z</time>
      </trkpt>
      <trkpt lat="47.64879" lon="4.34025">
        <ele>334.4</ele>
        <time>2026-05-20T09:41:40Z</time>
      </trkpt>
      <trkpt lat="47.64876" lon="4.3402">
        <ele>334.4</ele>
        <time>2026-05-20T09:41:41Z</time>
      </trkpt>
      <trkpt lat="47.64873" lon="4.34015">
        <ele>334.4</ele>
        <time>2026-05-20T09:41:42Z</time>
      </trkpt>
      <trkpt lat="47.64869" lon="4.3401">
        <ele>334.4</ele>
        <time>2026-05-20T09:41:43Z</time>
      </trkpt>
      <trkpt lat="47.64866" lon="4.34005">
        <ele>334.4</ele>
        <time>2026-05-20T09:41:44Z</time>
      </trkpt>
      <trkpt lat="47.64862" lon="4.34001">
        <ele>334.2</ele>
        <time>2026-05-20T09:41:45Z</time>
      </trkpt>
      <trkpt lat="47.64858" lon="4.33996">
        <ele>334.2</ele>
        <time>2026-05-20T09:41:46Z</time>
      </trkpt>
      <trkpt lat="47.64855" lon="4.33991">
        <ele>334.2</ele>
        <time>2026-05-20T09:41:47Z</time>
      </trkpt>
      <trkpt lat="47.64851" lon="4.33986">
        <ele>334.2</ele>
        <time>2026-05-20T09:41:48Z</time>
      </trkpt>
      <trkpt lat="47.64848" lon="4.33981">
        <ele>334.2</ele>
        <time>2026-05-20T09:41:49Z</time>
      </trkpt>
      <trkpt lat="47.64845" lon="4.33976">
        <ele>334.2</ele>
        <time>2026-05-20T09:41:50Z</time>
      </trkpt>
      <trkpt lat="47.64841" lon="4.33971">
        <ele>334</ele>
        <time>2026-05-20T09:41:51Z</time>
      </trkpt>
      <trkpt lat="47.64838" lon="4.33966">
        <ele>334</ele>
        <time>2026-05-20T09:41:52Z</time>
      </trkpt>
      <trkpt lat="47.64834" lon="4.33962">
        <ele>334</ele>
        <time>2026-05-20T09:41:53Z</time>
      </trkpt>
      <trkpt lat="47.64831" lon="4.33957">
        <ele>333.8</ele>
        <time>2026-05-20T09:41:54Z</time>
      </trkpt>
      <trkpt lat="47.64828" lon="4.33951">
        <ele>333.8</ele>
        <time>2026-05-20T09:41:55Z</time>
      </trkpt>
      <trkpt lat="47.64825" lon="4.33946">
        <ele>333.8</ele>
        <time>2026-05-20T09:41:56Z</time>
      </trkpt>
      <trkpt lat="47.64822" lon="4.33942">
        <ele>333.8</ele>
        <time>2026-05-20T09:41:57Z</time>
      </trkpt>
      <trkpt lat="47.64819" lon="4.33937">
        <ele>333.8</ele>
        <time>2026-05-20T09:41:58Z</time>
      </trkpt>
      <trkpt lat="47.64815" lon="4.33932">
        <ele>333.8</ele>
        <time>2026-05-20T09:41:59Z</time>
      </trkpt>
      <trkpt lat="47.64811" lon="4.33926">
        <ele>333.6</ele>
        <time>2026-05-20T09:42:00Z</time>
      </trkpt>
      <trkpt lat="47.64807" lon="4.33921">
        <ele>333.6</ele>
        <time>2026-05-20T09:42:01Z</time>
      </trkpt>
      <trkpt lat="47.64803" lon="4.33915">
        <ele>333.6</ele>
        <time>2026-05-20T09:42:02Z</time>
      </trkpt>
      <trkpt lat="47.648" lon="4.3391">
        <ele>333.4</ele>
        <time>2026-05-20T09:42:03Z</time>
      </trkpt>
      <trkpt lat="47.64796" lon="4.33904">
        <ele>333.2</ele>
        <time>2026-05-20T09:42:04Z</time>
      </trkpt>
      <trkpt lat="47.64791" lon="4.33898">
        <ele>333</ele>
        <time>2026-05-20T09:42:05Z</time>
      </trkpt>
      <trkpt lat="47.64787" lon="4.33894">
        <ele>333</ele>
        <time>2026-05-20T09:42:06Z</time>
      </trkpt>
      <trkpt lat="47.64782" lon="4.3389">
        <ele>332.8</ele>
        <time>2026-05-20T09:42:07Z</time>
      </trkpt>
      <trkpt lat="47.64778" lon="4.33885">
        <ele>332.8</ele>
        <time>2026-05-20T09:42:08Z</time>
      </trkpt>
      <trkpt lat="47.64775" lon="4.3388">
        <ele>332.8</ele>
        <time>2026-05-20T09:42:09Z</time>
      </trkpt>
      <trkpt lat="47.64771" lon="4.33875">
        <ele>332.6</ele>
        <time>2026-05-20T09:42:10Z</time>
      </trkpt>
      <trkpt lat="47.64768" lon="4.3387">
        <ele>332.4</ele>
        <time>2026-05-20T09:42:11Z</time>
      </trkpt>
      <trkpt lat="47.64764" lon="4.33866">
        <ele>332</ele>
        <time>2026-05-20T09:42:12Z</time>
      </trkpt>
      <trkpt lat="47.6476" lon="4.33861">
        <ele>332</ele>
        <time>2026-05-20T09:42:13Z</time>
      </trkpt>
      <trkpt lat="47.64756" lon="4.33856">
        <ele>331.8</ele>
        <time>2026-05-20T09:42:14Z</time>
      </trkpt>
      <trkpt lat="47.64753" lon="4.33851">
        <ele>331.6</ele>
        <time>2026-05-20T09:42:15Z</time>
      </trkpt>
      <trkpt lat="47.6475" lon="4.33847">
        <ele>331.4</ele>
        <time>2026-05-20T09:42:16Z</time>
      </trkpt>
      <trkpt lat="47.64747" lon="4.33843">
        <ele>331.2</ele>
        <time>2026-05-20T09:42:17Z</time>
      </trkpt>
      <trkpt lat="47.64745" lon="4.33842">
        <ele>330.8</ele>
        <time>2026-05-20T09:42:18Z</time>
      </trkpt>
      <trkpt lat="47.64743" lon="4.33843">
        <ele>330.6</ele>
        <time>2026-05-20T09:42:19Z</time>
      </trkpt>
      <trkpt lat="47.64742" lon="4.33845">
        <ele>330</ele>
        <time>2026-05-20T09:42:20Z</time>
      </trkpt>
      <trkpt lat="47.6474" lon="4.33848">
        <ele>329.8</ele>
        <time>2026-05-20T09:42:21Z</time>
      </trkpt>
      <trkpt lat="47.64739" lon="4.33851">
        <ele>329.6</ele>
        <time>2026-05-20T09:42:22Z</time>
      </trkpt>
      <trkpt lat="47.64738" lon="4.33854">
        <ele>329.6</ele>
        <time>2026-05-20T09:42:23Z</time>
      </trkpt>
      <trkpt lat="47.64737" lon="4.33855">
        <ele>329.4</ele>
        <time>2026-05-20T09:42:24Z</time>
      </trkpt>
      <trkpt lat="47.64737" lon="4.33858">
        <ele>329.2</ele>
        <time>2026-05-20T09:42:25Z</time>
      </trkpt>
      <trkpt lat="47.64736" lon="4.3386">
        <ele>328.8</ele>
        <time>2026-05-20T09:42:26Z</time>
      </trkpt>
      <trkpt lat="47.64736" lon="4.33862">
        <ele>328.4</ele>
        <time>2026-05-20T09:42:27Z</time>
      </trkpt>
      <trkpt lat="47.64735" lon="4.33864">
        <ele>328</ele>
        <time>2026-05-20T09:42:28Z</time>
      </trkpt>
      <trkpt lat="47.64735" lon="4.33865">
        <ele>327.4</ele>
        <time>2026-05-20T09:42:29Z</time>
      </trkpt>
      <trkpt lat="47.64734" lon="4.33868">
        <ele>327</ele>
        <time>2026-05-20T09:42:30Z</time>
      </trkpt>
      <trkpt lat="47.64733" lon="4.3387">
        <ele>326.4</ele>
        <time>2026-05-20T09:42:31Z</time>
      </trkpt>
      <trkpt lat="47.64732" lon="4.33873">
        <ele>326</ele>
        <time>2026-05-20T09:42:32Z</time>
      </trkpt>
      <trkpt lat="47.64732" lon="4.33875">
        <ele>325.6</ele>
        <time>2026-05-20T09:42:33Z</time>
      </trkpt>
      <trkpt lat="47.64732" lon="4.33878">
        <ele>325</ele>
        <time>2026-05-20T09:42:34Z</time>
      </trkpt>
      <trkpt lat="47.64732" lon="4.3388">
        <ele>324.4</ele>
        <time>2026-05-20T09:42:35Z</time>
      </trkpt>
      <trkpt lat="47.64731" lon="4.33883">
        <ele>323</ele>
        <time>2026-05-20T09:42:36Z</time>
      </trkpt>
      <trkpt lat="47.64732" lon="4.33885">
        <ele>322.2</ele>
        <time>2026-05-20T09:42:37Z</time>
      </trkpt>
      <trkpt lat="47.64732" lon="4.33888">
        <ele>321</ele>
        <time>2026-05-20T09:42:38Z</time>
      </trkpt>
      <trkpt lat="47.64733" lon="4.33891">
        <ele>320.8</ele>
        <time>2026-05-20T09:42:39Z</time>
      </trkpt>
      <trkpt lat="47.64734" lon="4.33894">
        <ele>319.8</ele>
        <time>2026-05-20T09:42:40Z</time>
      </trkpt>
      <trkpt lat="47.64736" lon="4.33897">
        <ele>319.4</ele>
        <time>2026-05-20T09:42:41Z</time>
      </trkpt>
      <trkpt lat="47.64736" lon="4.339">
        <ele>319.2</ele>
        <time>2026-05-20T09:42:42Z</time>
      </trkpt>
      <trkpt lat="47.64737" lon="4.33903">
        <ele>318.6</ele>
        <time>2026-05-20T09:42:43Z</time>
      </trkpt>
      <trkpt lat="47.64738" lon="4.33907">
        <ele>318.4</ele>
        <time>2026-05-20T09:42:44Z</time>
      </trkpt>
      <trkpt lat="47.64738" lon="4.33911">
        <ele>318.2</ele>
        <time>2026-05-20T09:42:45Z</time>
      </trkpt>
      <trkpt lat="47.64738" lon="4.33914">
        <ele>318.2</ele>
        <time>2026-05-20T09:42:46Z</time>
      </trkpt>
      <trkpt lat="47.64737" lon="4.33917">
        <ele>318</ele>
        <time>2026-05-20T09:42:47Z</time>
      </trkpt>
      <trkpt lat="47.64737" lon="4.33919">
        <ele>317.8</ele>
        <time>2026-05-20T09:42:48Z</time>
      </trkpt>
      <trkpt lat="47.64737" lon="4.3392">
        <ele>317.8</ele>
        <time>2026-05-20T09:42:49Z</time>
      </trkpt>
      <trkpt lat="47.64735" lon="4.33922">
        <ele>317.6</ele>
        <time>2026-05-20T09:42:50Z</time>
      </trkpt>
      <trkpt lat="47.64734" lon="4.33923">
        <ele>317.6</ele>
        <time>2026-05-20T09:42:51Z</time>
      </trkpt>
      <trkpt lat="47.64733" lon="4.33923">
        <ele>317</ele>
        <time>2026-05-20T09:42:52Z</time>
      </trkpt>
      <trkpt lat="47.64732" lon="4.33922">
        <ele>316.8</ele>
        <time>2026-05-20T09:42:53Z</time>
      </trkpt>
      <trkpt lat="47.64732" lon="4.3392">
        <ele>316.2</ele>
        <time>2026-05-20T09:42:54Z</time>
      </trkpt>
      <trkpt lat="47.64732" lon="4.3392">
        <ele>316</ele>
        <time>2026-05-20T09:42:55Z</time>
      </trkpt>
      <trkpt lat="47.64731" lon="4.3392">
        <ele>315.6</ele>
        <time>2026-05-20T09:42:56Z</time>
      </trkpt>
      <trkpt lat="47.64729" lon="4.33921">
        <ele>315.4</ele>
        <time>2026-05-20T09:42:57Z</time>
      </trkpt>
      <trkpt lat="47.64727" lon="4.33921">
        <ele>315</ele>
        <time>2026-05-20T09:42:58Z</time>
      </trkpt>
      <trkpt lat="47.64724" lon="4.3392">
        <ele>314.8</ele>
        <time>2026-05-20T09:42:59Z</time>
      </trkpt>
      <trkpt lat="47.64723" lon="4.33918">
        <ele>314.6</ele>
        <time>2026-05-20T09:43:00Z</time>
      </trkpt>
      <trkpt lat="47.64721" lon="4.33916">
        <ele>314.2</ele>
        <time>2026-05-20T09:43:01Z</time>
      </trkpt>
      <trkpt lat="47.64721" lon="4.33915">
        <ele>314</ele>
        <time>2026-05-20T09:43:02Z</time>
      </trkpt>
      <trkpt lat="47.6472" lon="4.33914">
        <ele>313.6</ele>
        <time>2026-05-20T09:43:03Z</time>
      </trkpt>
      <trkpt lat="47.64719" lon="4.33911">
        <ele>313.4</ele>
        <time>2026-05-20T09:43:04Z</time>
      </trkpt>
      <trkpt lat="47.64718" lon="4.3391">
        <ele>313.2</ele>
        <time>2026-05-20T09:43:05Z</time>
      </trkpt>
      <trkpt lat="47.64714" lon="4.33908">
        <ele>313</ele>
        <time>2026-05-20T09:43:06Z</time>
      </trkpt>
      <trkpt lat="47.64711" lon="4.33907">
        <ele>312.6</ele>
        <time>2026-05-20T09:43:07Z</time>
      </trkpt>
      <trkpt lat="47.64708" lon="4.33907">
        <ele>312.4</ele>
        <time>2026-05-20T09:43:08Z</time>
      </trkpt>
      <trkpt lat="47.64705" lon="4.33907">
        <ele>312.2</ele>
        <time>2026-05-20T09:43:09Z</time>
      </trkpt>
      <trkpt lat="47.64701" lon="4.33909">
        <ele>311.4</ele>
        <time>2026-05-20T09:43:10Z</time>
      </trkpt>
      <trkpt lat="47.64698" lon="4.33912">
        <ele>311</ele>
        <time>2026-05-20T09:43:11Z</time>
      </trkpt>
      <trkpt lat="47.64696" lon="4.33916">
        <ele>310.4</ele>
        <time>2026-05-20T09:43:12Z</time>
      </trkpt>
      <trkpt lat="47.64694" lon="4.33918">
        <ele>309.8</ele>
        <time>2026-05-20T09:43:13Z</time>
      </trkpt>
      <trkpt lat="47.64692" lon="4.33919">
        <ele>308.8</ele>
        <time>2026-05-20T09:43:14Z</time>
      </trkpt>
      <trkpt lat="47.64689" lon="4.33917">
        <ele>308.6</ele>
        <time>2026-05-20T09:43:15Z</time>
      </trkpt>
      <trkpt lat="47.64685" lon="4.33916">
        <ele>308</ele>
        <time>2026-05-20T09:43:16Z</time>
      </trkpt>
      <trkpt lat="47.64684" lon="4.33913">
        <ele>307.8</ele>
        <time>2026-05-20T09:43:17Z</time>
      </trkpt>
      <trkpt lat="47.64682" lon="4.33911">
        <ele>307.6</ele>
        <time>2026-05-20T09:43:18Z</time>
      </trkpt>
      <trkpt lat="47.64679" lon="4.3391">
        <ele>307.4</ele>
        <time>2026-05-20T09:43:19Z</time>
      </trkpt>
      <trkpt lat="47.64676" lon="4.33909">
        <ele>307.2</ele>
        <time>2026-05-20T09:43:20Z</time>
      </trkpt>
      <trkpt lat="47.64674" lon="4.33906">
        <ele>307</ele>
        <time>2026-05-20T09:43:21Z</time>
      </trkpt>
      <trkpt lat="47.6467" lon="4.33903">
        <ele>306.8</ele>
        <time>2026-05-20T09:43:22Z</time>
      </trkpt>
      <trkpt lat="47.64665" lon="4.33902">
        <ele>306.8</ele>
        <time>2026-05-20T09:43:23Z</time>
      </trkpt>
      <trkpt lat="47.64659" lon="4.33901">
        <ele>306.4</ele>
        <time>2026-05-20T09:43:24Z</time>
      </trkpt>
      <trkpt lat="47.64653" lon="4.339">
        <ele>305.8</ele>
        <time>2026-05-20T09:43:25Z</time>
      </trkpt>
      <trkpt lat="47.64648" lon="4.33899">
        <ele>305.4</ele>
        <time>2026-05-20T09:43:26Z</time>
      </trkpt>
      <trkpt lat="47.64645" lon="4.33896">
        <ele>304.8</ele>
        <time>2026-05-20T09:43:27Z</time>
      </trkpt>
      <trkpt lat="47.64642" lon="4.33893">
        <ele>304.4</ele>
        <time>2026-05-20T09:43:28Z</time>
      </trkpt>
      <trkpt lat="47.6464" lon="4.33891">
        <ele>304.2</ele>
        <time>2026-05-20T09:43:29Z</time>
      </trkpt>
      <trkpt lat="47.64637" lon="4.33889">
        <ele>304.2</ele>
        <time>2026-05-20T09:43:30Z</time>
      </trkpt>
      <trkpt lat="47.64634" lon="4.33887">
        <ele>303.8</ele>
        <time>2026-05-20T09:43:31Z</time>
      </trkpt>
      <trkpt lat="47.64631" lon="4.33886">
        <ele>303.6</ele>
        <time>2026-05-20T09:43:32Z</time>
      </trkpt>
      <trkpt lat="47.64629" lon="4.33882">
        <ele>303.6</ele>
        <time>2026-05-20T09:43:33Z</time>
      </trkpt>
      <trkpt lat="47.64627" lon="4.33878">
        <ele>303.4</ele>
        <time>2026-05-20T09:43:34Z</time>
      </trkpt>
      <trkpt lat="47.64624" lon="4.33875">
        <ele>303</ele>
        <time>2026-05-20T09:43:35Z</time>
      </trkpt>
      <trkpt lat="47.64622" lon="4.33872">
        <ele>302.8</ele>
        <time>2026-05-20T09:43:36Z</time>
      </trkpt>
      <trkpt lat="47.64619" lon="4.3387">
        <ele>302.8</ele>
        <time>2026-05-20T09:43:37Z</time>
      </trkpt>
      <trkpt lat="47.64616" lon="4.33866">
        <ele>302.4</ele>
        <time>2026-05-20T09:43:38Z</time>
      </trkpt>
      <trkpt lat="47.64613" lon="4.33862">
        <ele>302.2</ele>
        <time>2026-05-20T09:43:39Z</time>
      </trkpt>
      <trkpt lat="47.64612" lon="4.33858">
        <ele>302.2</ele>
        <time>2026-05-20T09:43:40Z</time>
      </trkpt>
      <trkpt lat="47.6461" lon="4.33855">
        <ele>301.6</ele>
        <time>2026-05-20T09:43:41Z</time>
      </trkpt>
      <trkpt lat="47.64605" lon="4.3385">
        <ele>301.4</ele>
        <time>2026-05-20T09:43:42Z</time>
      </trkpt>
      <trkpt lat="47.64602" lon="4.33848">
        <ele>301</ele>
        <time>2026-05-20T09:43:43Z</time>
      </trkpt>
      <trkpt lat="47.64599" lon="4.33846">
        <ele>300.2</ele>
        <time>2026-05-20T09:43:44Z</time>
      </trkpt>
      <trkpt lat="47.64597" lon="4.33844">
        <ele>300</ele>
        <time>2026-05-20T09:43:45Z</time>
      </trkpt>
      <trkpt lat="47.64592" lon="4.33842">
        <ele>299.4</ele>
        <time>2026-05-20T09:43:46Z</time>
      </trkpt>
      <trkpt lat="47.64588" lon="4.33839">
        <ele>299.4</ele>
        <time>2026-05-20T09:43:47Z</time>
      </trkpt>
      <trkpt lat="47.64585" lon="4.33837">
        <ele>299</ele>
        <time>2026-05-20T09:43:48Z</time>
      </trkpt>
      <trkpt lat="47.64581" lon="4.33835">
        <ele>299</ele>
        <time>2026-05-20T09:43:49Z</time>
      </trkpt>
      <trkpt lat="47.64578" lon="4.33835">
        <ele>298.8</ele>
        <time>2026-05-20T09:43:50Z</time>
      </trkpt>
      <trkpt lat="47.64575" lon="4.33834">
        <ele>298.6</ele>
        <time>2026-05-20T09:43:51Z</time>
      </trkpt>
      <trkpt lat="47.64572" lon="4.33833">
        <ele>298.6</ele>
        <time>2026-05-20T09:43:52Z</time>
      </trkpt>
      <trkpt lat="47.64569" lon="4.33834">
        <ele>298.6</ele>
        <time>2026-05-20T09:43:53Z</time>
      </trkpt>
      <trkpt lat="47.64566" lon="4.33834">
        <ele>298.6</ele>
        <time>2026-05-20T09:43:54Z</time>
      </trkpt>
      <trkpt lat="47.64562" lon="4.33837">
        <ele>298.4</ele>
        <time>2026-05-20T09:43:55Z</time>
      </trkpt>
      <trkpt lat="47.6456" lon="4.33839">
        <ele>298.4</ele>
        <time>2026-05-20T09:43:56Z</time>
      </trkpt>
      <trkpt lat="47.64556" lon="4.33842">
        <ele>298.4</ele>
        <time>2026-05-20T09:43:57Z</time>
      </trkpt>
      <trkpt lat="47.64553" lon="4.33843">
        <ele>298.4</ele>
        <time>2026-05-20T09:43:58Z</time>
      </trkpt>
      <trkpt lat="47.6455" lon="4.33844">
        <ele>298.4</ele>
        <time>2026-05-20T09:43:59Z</time>
      </trkpt>
      <trkpt lat="47.64547" lon="4.33843">
        <ele>298.4</ele>
        <time>2026-05-20T09:44:00Z</time>
      </trkpt>
      <trkpt lat="47.64544" lon="4.33843">
        <ele>298.4</ele>
        <time>2026-05-20T09:44:01Z</time>
      </trkpt>
      <trkpt lat="47.64541" lon="4.33841">
        <ele>298.4</ele>
        <time>2026-05-20T09:44:02Z</time>
      </trkpt>
      <trkpt lat="47.64539" lon="4.3384">
        <ele>298.4</ele>
        <time>2026-05-20T09:44:03Z</time>
      </trkpt>
      <trkpt lat="47.64536" lon="4.3384">
        <ele>298.4</ele>
        <time>2026-05-20T09:44:04Z</time>
      </trkpt>
      <trkpt lat="47.64534" lon="4.33839">
        <ele>298.4</ele>
        <time>2026-05-20T09:44:05Z</time>
      </trkpt>
      <trkpt lat="47.64533" lon="4.33837">
        <ele>298.4</ele>
        <time>2026-05-20T09:44:06Z</time>
      </trkpt>
      <trkpt lat="47.64532" lon="4.33834">
        <ele>298.4</ele>
        <time>2026-05-20T09:44:07Z</time>
      </trkpt>
      <trkpt lat="47.6453" lon="4.33831">
        <ele>298.4</ele>
        <time>2026-05-20T09:44:08Z</time>
      </trkpt>
      <trkpt lat="47.64528" lon="4.33828">
        <ele>298.4</ele>
        <time>2026-05-20T09:44:09Z</time>
      </trkpt>
      <trkpt lat="47.64524" lon="4.33826">
        <ele>298.4</ele>
        <time>2026-05-20T09:44:10Z</time>
      </trkpt>
      <trkpt lat="47.6452" lon="4.33826">
        <ele>298.4</ele>
        <time>2026-05-20T09:44:11Z</time>
      </trkpt>
      <trkpt lat="47.64516" lon="4.33826">
        <ele>298.2</ele>
        <time>2026-05-20T09:44:12Z</time>
      </trkpt>
      <trkpt lat="47.64512" lon="4.33825">
        <ele>297.8</ele>
        <time>2026-05-20T09:44:13Z</time>
      </trkpt>
      <trkpt lat="47.64509" lon="4.33825">
        <ele>297.8</ele>
        <time>2026-05-20T09:44:14Z</time>
      </trkpt>
      <trkpt lat="47.64507" lon="4.33823">
        <ele>297.2</ele>
        <time>2026-05-20T09:44:15Z</time>
      </trkpt>
      <trkpt lat="47.64505" lon="4.33822">
        <ele>297.2</ele>
        <time>2026-05-20T09:44:16Z</time>
      </trkpt>
      <trkpt lat="47.64501" lon="4.33821">
        <ele>297</ele>
        <time>2026-05-20T09:44:17Z</time>
      </trkpt>
      <trkpt lat="47.64498" lon="4.33818">
        <ele>296.8</ele>
        <time>2026-05-20T09:44:18Z</time>
      </trkpt>
      <trkpt lat="47.64495" lon="4.33815">
        <ele>296.6</ele>
        <time>2026-05-20T09:44:19Z</time>
      </trkpt>
      <trkpt lat="47.64491" lon="4.33813">
        <ele>296.4</ele>
        <time>2026-05-20T09:44:20Z</time>
      </trkpt>
      <trkpt lat="47.64488" lon="4.33811">
        <ele>296.2</ele>
        <time>2026-05-20T09:44:21Z</time>
      </trkpt>
      <trkpt lat="47.64484" lon="4.33808">
        <ele>295.8</ele>
        <time>2026-05-20T09:44:22Z</time>
      </trkpt>
      <trkpt lat="47.6448" lon="4.33806">
        <ele>295.6</ele>
        <time>2026-05-20T09:44:23Z</time>
      </trkpt>
      <trkpt lat="47.64475" lon="4.33804">
        <ele>295.2</ele>
        <time>2026-05-20T09:44:24Z</time>
      </trkpt>
      <trkpt lat="47.64469" lon="4.33804">
        <ele>295</ele>
        <time>2026-05-20T09:44:25Z</time>
      </trkpt>
      <trkpt lat="47.64467" lon="4.33803">
        <ele>295</ele>
        <time>2026-05-20T09:44:26Z</time>
      </trkpt>
      <trkpt lat="47.64464" lon="4.33801">
        <ele>295</ele>
        <time>2026-05-20T09:44:27Z</time>
      </trkpt>
      <trkpt lat="47.64461" lon="4.33799">
        <ele>294.8</ele>
        <time>2026-05-20T09:44:28Z</time>
      </trkpt>
      <trkpt lat="47.64458" lon="4.33796">
        <ele>294.8</ele>
        <time>2026-05-20T09:44:29Z</time>
      </trkpt>
      <trkpt lat="47.64455" lon="4.33792">
        <ele>294.8</ele>
        <time>2026-05-20T09:44:30Z</time>
      </trkpt>
      <trkpt lat="47.64452" lon="4.33788">
        <ele>294.6</ele>
        <time>2026-05-20T09:44:31Z</time>
      </trkpt>
      <trkpt lat="47.64448" lon="4.33784">
        <ele>294.4</ele>
        <time>2026-05-20T09:44:32Z</time>
      </trkpt>
      <trkpt lat="47.64443" lon="4.33778">
        <ele>294.2</ele>
        <time>2026-05-20T09:44:33Z</time>
      </trkpt>
      <trkpt lat="47.64439" lon="4.33774">
        <ele>294</ele>
        <time>2026-05-20T09:44:34Z</time>
      </trkpt>
      <trkpt lat="47.64436" lon="4.33773">
        <ele>293.6</ele>
        <time>2026-05-20T09:44:35Z</time>
      </trkpt>
      <trkpt lat="47.64433" lon="4.33772">
        <ele>293.6</ele>
        <time>2026-05-20T09:44:36Z</time>
      </trkpt>
      <trkpt lat="47.6443" lon="4.33772">
        <ele>293.4</ele>
        <time>2026-05-20T09:44:37Z</time>
      </trkpt>
      <trkpt lat="47.64427" lon="4.33772">
        <ele>293.2</ele>
        <time>2026-05-20T09:44:38Z</time>
      </trkpt>
      <trkpt lat="47.64424" lon="4.33772">
        <ele>293</ele>
        <time>2026-05-20T09:44:39Z</time>
      </trkpt>
      <trkpt lat="47.64421" lon="4.3377">
        <ele>292.8</ele>
        <time>2026-05-20T09:44:40Z</time>
      </trkpt>
      <trkpt lat="47.64421" lon="4.33768">
        <ele>292.8</ele>
        <time>2026-05-20T09:44:41Z</time>
      </trkpt>
      <trkpt lat="47.64417" lon="4.33765">
        <ele>292.6</ele>
        <time>2026-05-20T09:44:42Z</time>
      </trkpt>
      <trkpt lat="47.64414" lon="4.33765">
        <ele>292.6</ele>
        <time>2026-05-20T09:44:43Z</time>
      </trkpt>
      <trkpt lat="47.64409" lon="4.33765">
        <ele>292.4</ele>
        <time>2026-05-20T09:44:44Z</time>
      </trkpt>
      <trkpt lat="47.64406" lon="4.33763">
        <ele>292.4</ele>
        <time>2026-05-20T09:44:45Z</time>
      </trkpt>
      <trkpt lat="47.64402" lon="4.33762">
        <ele>292.4</ele>
        <time>2026-05-20T09:44:46Z</time>
      </trkpt>
      <trkpt lat="47.644" lon="4.33761">
        <ele>292.4</ele>
        <time>2026-05-20T09:44:47Z</time>
      </trkpt>
      <trkpt lat="47.64397" lon="4.3376">
        <ele>292.2</ele>
        <time>2026-05-20T09:44:48Z</time>
      </trkpt>
      <trkpt lat="47.64393" lon="4.33759">
        <ele>292.2</ele>
        <time>2026-05-20T09:44:49Z</time>
      </trkpt>
      <trkpt lat="47.64389" lon="4.33757">
        <ele>292.2</ele>
        <time>2026-05-20T09:44:50Z</time>
      </trkpt>
      <trkpt lat="47.64385" lon="4.33755">
        <ele>292.2</ele>
        <time>2026-05-20T09:44:51Z</time>
      </trkpt>
      <trkpt lat="47.64385" lon="4.33753">
        <ele>292.2</ele>
        <time>2026-05-20T09:44:52Z</time>
      </trkpt>
      <trkpt lat="47.64386" lon="4.33749">
        <ele>292.2</ele>
        <time>2026-05-20T09:44:53Z</time>
      </trkpt>
      <trkpt lat="47.64386" lon="4.33749">
        <ele>292.2</ele>
        <time>2026-05-20T09:44:54Z</time>
      </trkpt>
      <trkpt lat="47.64384" lon="4.33742">
        <ele>292.2</ele>
        <time>2026-05-20T09:44:55Z</time>
      </trkpt>
      <trkpt lat="47.64384" lon="4.33737">
        <ele>292.2</ele>
        <time>2026-05-20T09:44:56Z</time>
      </trkpt>
      <trkpt lat="47.64382" lon="4.33732">
        <ele>292.2</ele>
        <time>2026-05-20T09:44:57Z</time>
      </trkpt>
      <trkpt lat="47.64382" lon="4.33728">
        <ele>292</ele>
        <time>2026-05-20T09:44:58Z</time>
      </trkpt>
      <trkpt lat="47.64381" lon="4.33724">
        <ele>292</ele>
        <time>2026-05-20T09:44:59Z</time>
      </trkpt>
      <trkpt lat="47.64381" lon="4.3372">
        <ele>291.8</ele>
        <time>2026-05-20T09:45:00Z</time>
      </trkpt>
      <trkpt lat="47.64381" lon="4.33717">
        <ele>291.6</ele>
        <time>2026-05-20T09:45:01Z</time>
      </trkpt>
      <trkpt lat="47.64381" lon="4.33713">
        <ele>291.4</ele>
        <time>2026-05-20T09:45:02Z</time>
      </trkpt>
      <trkpt lat="47.64381" lon="4.33709">
        <ele>291.2</ele>
        <time>2026-05-20T09:45:03Z</time>
      </trkpt>
      <trkpt lat="47.64381" lon="4.33706">
        <ele>290.8</ele>
        <time>2026-05-20T09:45:04Z</time>
      </trkpt>
      <trkpt lat="47.6438" lon="4.33703">
        <ele>290.6</ele>
        <time>2026-05-20T09:45:05Z</time>
      </trkpt>
      <trkpt lat="47.64378" lon="4.337">
        <ele>290</ele>
        <time>2026-05-20T09:45:06Z</time>
      </trkpt>
      <trkpt lat="47.64376" lon="4.33695">
        <ele>289.4</ele>
        <time>2026-05-20T09:45:07Z</time>
      </trkpt>
      <trkpt lat="47.64374" lon="4.33691">
        <ele>289.2</ele>
        <time>2026-05-20T09:45:08Z</time>
      </trkpt>
      <trkpt lat="47.64374" lon="4.33687">
        <ele>288.6</ele>
        <time>2026-05-20T09:45:09Z</time>
      </trkpt>
      <trkpt lat="47.64373" lon="4.33683">
        <ele>288.6</ele>
        <time>2026-05-20T09:45:10Z</time>
      </trkpt>
      <trkpt lat="47.64372" lon="4.3368">
        <ele>288.2</ele>
        <time>2026-05-20T09:45:11Z</time>
      </trkpt>
      <trkpt lat="47.64372" lon="4.33677">
        <ele>288.2</ele>
        <time>2026-05-20T09:45:12Z</time>
      </trkpt>
      <trkpt lat="47.64369" lon="4.33672">
        <ele>287.8</ele>
        <time>2026-05-20T09:45:13Z</time>
      </trkpt>
      <trkpt lat="47.64366" lon="4.3367">
        <ele>287.6</ele>
        <time>2026-05-20T09:45:14Z</time>
      </trkpt>
      <trkpt lat="47.64363" lon="4.33669">
        <ele>287.6</ele>
        <time>2026-05-20T09:45:15Z</time>
      </trkpt>
      <trkpt lat="47.6436" lon="4.33667">
        <ele>287.4</ele>
        <time>2026-05-20T09:45:16Z</time>
      </trkpt>
      <trkpt lat="47.64358" lon="4.33667">
        <ele>287.4</ele>
        <time>2026-05-20T09:45:17Z</time>
      </trkpt>
      <trkpt lat="47.64356" lon="4.33667">
        <ele>287.2</ele>
        <time>2026-05-20T09:45:18Z</time>
      </trkpt>
      <trkpt lat="47.64354" lon="4.33666">
        <ele>287.2</ele>
        <time>2026-05-20T09:45:19Z</time>
      </trkpt>
      <trkpt lat="47.64351" lon="4.33666">
        <ele>287.2</ele>
        <time>2026-05-20T09:45:20Z</time>
      </trkpt>
      <trkpt lat="47.64347" lon="4.33665">
        <ele>287.2</ele>
        <time>2026-05-20T09:45:21Z</time>
      </trkpt>
      <trkpt lat="47.64344" lon="4.33664">
        <ele>287.4</ele>
        <time>2026-05-20T09:45:22Z</time>
      </trkpt>
      <trkpt lat="47.64339" lon="4.33665">
        <ele>287.4</ele>
        <time>2026-05-20T09:45:23Z</time>
      </trkpt>
      <trkpt lat="47.64336" lon="4.33665">
        <ele>287.6</ele>
        <time>2026-05-20T09:45:24Z</time>
      </trkpt>
      <trkpt lat="47.64334" lon="4.33665">
        <ele>287.6</ele>
        <time>2026-05-20T09:45:25Z</time>
      </trkpt>
      <trkpt lat="47.64332" lon="4.33665">
        <ele>287.8</ele>
        <time>2026-05-20T09:45:26Z</time>
      </trkpt>
      <trkpt lat="47.6433" lon="4.33665">
        <ele>288</ele>
        <time>2026-05-20T09:45:27Z</time>
      </trkpt>
      <trkpt lat="47.64325" lon="4.33665">
        <ele>288</ele>
        <time>2026-05-20T09:45:28Z</time>
      </trkpt>
      <trkpt lat="47.64322" lon="4.33663">
        <ele>288.2</ele>
        <time>2026-05-20T09:45:29Z</time>
      </trkpt>
      <trkpt lat="47.64318" lon="4.33662">
        <ele>288.2</ele>
        <time>2026-05-20T09:45:30Z</time>
      </trkpt>
      <trkpt lat="47.64314" lon="4.33661">
        <ele>288.4</ele>
        <time>2026-05-20T09:45:31Z</time>
      </trkpt>
      <trkpt lat="47.6431" lon="4.3366">
        <ele>288.4</ele>
        <time>2026-05-20T09:45:32Z</time>
      </trkpt>
      <trkpt lat="47.64308" lon="4.33657">
        <ele>288.6</ele>
        <time>2026-05-20T09:45:33Z</time>
      </trkpt>
      <trkpt lat="47.64306" lon="4.33652">
        <ele>288.6</ele>
        <time>2026-05-20T09:45:34Z</time>
      </trkpt>
      <trkpt lat="47.64304" lon="4.33649">
        <ele>288.6</ele>
        <time>2026-05-20T09:45:35Z</time>
      </trkpt>
      <trkpt lat="47.64301" lon="4.33646">
        <ele>288.4</ele>
        <time>2026-05-20T09:45:36Z</time>
      </trkpt>
      <trkpt lat="47.64299" lon="4.33647">
        <ele>288.2</ele>
        <time>2026-05-20T09:45:37Z</time>
      </trkpt>
      <trkpt lat="47.64296" lon="4.33646">
        <ele>288</ele>
        <time>2026-05-20T09:45:38Z</time>
      </trkpt>
      <trkpt lat="47.64292" lon="4.33645">
        <ele>288</ele>
        <time>2026-05-20T09:45:39Z</time>
      </trkpt>
      <trkpt lat="47.6429" lon="4.33645">
        <ele>287.8</ele>
        <time>2026-05-20T09:45:40Z</time>
      </trkpt>
      <trkpt lat="47.64288" lon="4.33644">
        <ele>287.8</ele>
        <time>2026-05-20T09:45:41Z</time>
      </trkpt>
      <trkpt lat="47.64284" lon="4.33645">
        <ele>287.8</ele>
        <time>2026-05-20T09:45:42Z</time>
      </trkpt>
      <trkpt lat="47.64281" lon="4.33646">
        <ele>287.8</ele>
        <time>2026-05-20T09:45:43Z</time>
      </trkpt>
      <trkpt lat="47.64278" lon="4.33645">
        <ele>287.6</ele>
        <time>2026-05-20T09:45:44Z</time>
      </trkpt>
      <trkpt lat="47.64277" lon="4.33644">
        <ele>287.6</ele>
        <time>2026-05-20T09:45:45Z</time>
      </trkpt>
      <trkpt lat="47.64275" lon="4.33641">
        <ele>287.6</ele>
        <time>2026-05-20T09:45:46Z</time>
      </trkpt>
      <trkpt lat="47.64273" lon="4.33638">
        <ele>287.6</ele>
        <time>2026-05-20T09:45:47Z</time>
      </trkpt>
      <trkpt lat="47.64272" lon="4.33634">
        <ele>287.6</ele>
        <time>2026-05-20T09:45:48Z</time>
      </trkpt>
      <trkpt lat="47.64266" lon="4.33627">
        <ele>287.6</ele>
        <time>2026-05-20T09:45:49Z</time>
      </trkpt>
      <trkpt lat="47.64262" lon="4.33624">
        <ele>287.6</ele>
        <time>2026-05-20T09:45:50Z</time>
      </trkpt>
      <trkpt lat="47.64259" lon="4.33624">
        <ele>287.6</ele>
        <time>2026-05-20T09:45:51Z</time>
      </trkpt>
      <trkpt lat="47.64255" lon="4.33624">
        <ele>287.4</ele>
        <time>2026-05-20T09:45:52Z</time>
      </trkpt>
      <trkpt lat="47.64251" lon="4.33624">
        <ele>287.4</ele>
        <time>2026-05-20T09:45:53Z</time>
      </trkpt>
      <trkpt lat="47.64248" lon="4.33623">
        <ele>287.4</ele>
        <time>2026-05-20T09:45:54Z</time>
      </trkpt>
      <trkpt lat="47.64245" lon="4.33624">
        <ele>287.4</ele>
        <time>2026-05-20T09:45:55Z</time>
      </trkpt>
      <trkpt lat="47.64241" lon="4.33625">
        <ele>287.4</ele>
        <time>2026-05-20T09:45:56Z</time>
      </trkpt>
      <trkpt lat="47.64238" lon="4.33624">
        <ele>287.4</ele>
        <time>2026-05-20T09:45:57Z</time>
      </trkpt>
      <trkpt lat="47.64234" lon="4.33622">
        <ele>287.4</ele>
        <time>2026-05-20T09:45:58Z</time>
      </trkpt>
      <trkpt lat="47.64232" lon="4.33622">
        <ele>287.4</ele>
        <time>2026-05-20T09:45:59Z</time>
      </trkpt>
      <trkpt lat="47.64231" lon="4.33622">
        <ele>287.4</ele>
        <time>2026-05-20T09:46:00Z</time>
      </trkpt>
      <trkpt lat="47.64229" lon="4.33622">
        <ele>287.6</ele>
        <time>2026-05-20T09:46:01Z</time>
      </trkpt>
      <trkpt lat="47.64225" lon="4.3362">
        <ele>287.6</ele>
        <time>2026-05-20T09:46:02Z</time>
      </trkpt>
      <trkpt lat="47.64221" lon="4.33619">
        <ele>287.6</ele>
        <time>2026-05-20T09:46:03Z</time>
      </trkpt>
      <trkpt lat="47.64218" lon="4.33621">
        <ele>287.6</ele>
        <time>2026-05-20T09:46:04Z</time>
      </trkpt>
      <trkpt lat="47.64214" lon="4.33621">
        <ele>287.8</ele>
        <time>2026-05-20T09:46:05Z</time>
      </trkpt>
      <trkpt lat="47.64212" lon="4.3362">
        <ele>287.8</ele>
        <time>2026-05-20T09:46:06Z</time>
      </trkpt>
      <trkpt lat="47.64208" lon="4.33618">
        <ele>288</ele>
        <time>2026-05-20T09:46:07Z</time>
      </trkpt>
      <trkpt lat="47.64204" lon="4.33618">
        <ele>288.2</ele>
        <time>2026-05-20T09:46:08Z</time>
      </trkpt>
      <trkpt lat="47.642" lon="4.33617">
        <ele>288.4</ele>
        <time>2026-05-20T09:46:09Z</time>
      </trkpt>
      <trkpt lat="47.64195" lon="4.33616">
        <ele>288.6</ele>
        <time>2026-05-20T09:46:10Z</time>
      </trkpt>
      <trkpt lat="47.64192" lon="4.33616">
        <ele>288.6</ele>
        <time>2026-05-20T09:46:11Z</time>
      </trkpt>
      <trkpt lat="47.64188" lon="4.33616">
        <ele>289</ele>
        <time>2026-05-20T09:46:12Z</time>
      </trkpt>
      <trkpt lat="47.64185" lon="4.33616">
        <ele>289</ele>
        <time>2026-05-20T09:46:13Z</time>
      </trkpt>
      <trkpt lat="47.64182" lon="4.33616">
        <ele>289.2</ele>
        <time>2026-05-20T09:46:14Z</time>
      </trkpt>
      <trkpt lat="47.64178" lon="4.33616">
        <ele>289.4</ele>
        <time>2026-05-20T09:46:15Z</time>
      </trkpt>
      <trkpt lat="47.64175" lon="4.33615">
        <ele>289.6</ele>
        <time>2026-05-20T09:46:16Z</time>
      </trkpt>
      <trkpt lat="47.64172" lon="4.33615">
        <ele>289.6</ele>
        <time>2026-05-20T09:46:17Z</time>
      </trkpt>
      <trkpt lat="47.64169" lon="4.33616">
        <ele>290.2</ele>
        <time>2026-05-20T09:46:18Z</time>
      </trkpt>
      <trkpt lat="47.64166" lon="4.33617">
        <ele>290.4</ele>
        <time>2026-05-20T09:46:19Z</time>
      </trkpt>
      <trkpt lat="47.64163" lon="4.33617">
        <ele>290.6</ele>
        <time>2026-05-20T09:46:20Z</time>
      </trkpt>
      <trkpt lat="47.64159" lon="4.33618">
        <ele>290.6</ele>
        <time>2026-05-20T09:46:21Z</time>
      </trkpt>
      <trkpt lat="47.64156" lon="4.33619">
        <ele>290.8</ele>
        <time>2026-05-20T09:46:22Z</time>
      </trkpt>
      <trkpt lat="47.64153" lon="4.33619">
        <ele>291</ele>
        <time>2026-05-20T09:46:23Z</time>
      </trkpt>
      <trkpt lat="47.6415" lon="4.33619">
        <ele>291.2</ele>
        <time>2026-05-20T09:46:24Z</time>
      </trkpt>
      <trkpt lat="47.64147" lon="4.3362">
        <ele>291.2</ele>
        <time>2026-05-20T09:46:25Z</time>
      </trkpt>
      <trkpt lat="47.64144" lon="4.3362">
        <ele>291.4</ele>
        <time>2026-05-20T09:46:26Z</time>
      </trkpt>
      <trkpt lat="47.64141" lon="4.33621">
        <ele>291.6</ele>
        <time>2026-05-20T09:46:27Z</time>
      </trkpt>
      <trkpt lat="47.64137" lon="4.33622">
        <ele>291.8</ele>
        <time>2026-05-20T09:46:28Z</time>
      </trkpt>
      <trkpt lat="47.64134" lon="4.33622">
        <ele>292</ele>
        <time>2026-05-20T09:46:29Z</time>
      </trkpt>
      <trkpt lat="47.64131" lon="4.33623">
        <ele>292.2</ele>
        <time>2026-05-20T09:46:30Z</time>
      </trkpt>
      <trkpt lat="47.64128" lon="4.33623">
        <ele>292.2</ele>
        <time>2026-05-20T09:46:31Z</time>
      </trkpt>
      <trkpt lat="47.64125" lon="4.33623">
        <ele>292.6</ele>
        <time>2026-05-20T09:46:32Z</time>
      </trkpt>
      <trkpt lat="47.64121" lon="4.33624">
        <ele>292.8</ele>
        <time>2026-05-20T09:46:33Z</time>
      </trkpt>
      <trkpt lat="47.64118" lon="4.33625">
        <ele>293</ele>
        <time>2026-05-20T09:46:34Z</time>
      </trkpt>
      <trkpt lat="47.64114" lon="4.33626">
        <ele>293</ele>
        <time>2026-05-20T09:46:35Z</time>
      </trkpt>
      <trkpt lat="47.64111" lon="4.33626">
        <ele>293.2</ele>
        <time>2026-05-20T09:46:36Z</time>
      </trkpt>
      <trkpt lat="47.64108" lon="4.33626">
        <ele>293.4</ele>
        <time>2026-05-20T09:46:37Z</time>
      </trkpt>
      <trkpt lat="47.64104" lon="4.33626">
        <ele>293.6</ele>
        <time>2026-05-20T09:46:38Z</time>
      </trkpt>
      <trkpt lat="47.64101" lon="4.33627">
        <ele>293.8</ele>
        <time>2026-05-20T09:46:39Z</time>
      </trkpt>
      <trkpt lat="47.64097" lon="4.33628">
        <ele>293.8</ele>
        <time>2026-05-20T09:46:40Z</time>
      </trkpt>
      <trkpt lat="47.64094" lon="4.33629">
        <ele>294</ele>
        <time>2026-05-20T09:46:41Z</time>
      </trkpt>
      <trkpt lat="47.64091" lon="4.3363">
        <ele>294.2</ele>
        <time>2026-05-20T09:46:42Z</time>
      </trkpt>
      <trkpt lat="47.64087" lon="4.33631">
        <ele>294.4</ele>
        <time>2026-05-20T09:46:43Z</time>
      </trkpt>
      <trkpt lat="47.64084" lon="4.33631">
        <ele>294.6</ele>
        <time>2026-05-20T09:46:44Z</time>
      </trkpt>
      <trkpt lat="47.64081" lon="4.33632">
        <ele>294.8</ele>
        <time>2026-05-20T09:46:45Z</time>
      </trkpt>
      <trkpt lat="47.64077" lon="4.33633">
        <ele>295</ele>
        <time>2026-05-20T09:46:46Z</time>
      </trkpt>
      <trkpt lat="47.64074" lon="4.33634">
        <ele>295.4</ele>
        <time>2026-05-20T09:46:47Z</time>
      </trkpt>
      <trkpt lat="47.6407" lon="4.33635">
        <ele>295.8</ele>
        <time>2026-05-20T09:46:48Z</time>
      </trkpt>
      <trkpt lat="47.64067" lon="4.33635">
        <ele>295.8</ele>
        <time>2026-05-20T09:46:49Z</time>
      </trkpt>
      <trkpt lat="47.64063" lon="4.33636">
        <ele>296.6</ele>
        <time>2026-05-20T09:46:50Z</time>
      </trkpt>
      <trkpt lat="47.64061" lon="4.33637">
        <ele>296.8</ele>
        <time>2026-05-20T09:46:51Z</time>
      </trkpt>
      <trkpt lat="47.64057" lon="4.33638">
        <ele>297</ele>
        <time>2026-05-20T09:46:52Z</time>
      </trkpt>
      <trkpt lat="47.64053" lon="4.33638">
        <ele>297</ele>
        <time>2026-05-20T09:46:53Z</time>
      </trkpt>
      <trkpt lat="47.64051" lon="4.33639">
        <ele>297.4</ele>
        <time>2026-05-20T09:46:54Z</time>
      </trkpt>
      <trkpt lat="47.64047" lon="4.3364">
        <ele>297.6</ele>
        <time>2026-05-20T09:46:55Z</time>
      </trkpt>
      <trkpt lat="47.64044" lon="4.3364">
        <ele>298.2</ele>
        <time>2026-05-20T09:46:56Z</time>
      </trkpt>
      <trkpt lat="47.6404" lon="4.33642">
        <ele>298.4</ele>
        <time>2026-05-20T09:46:57Z</time>
      </trkpt>
      <trkpt lat="47.64037" lon="4.33643">
        <ele>298.6</ele>
        <time>2026-05-20T09:46:58Z</time>
      </trkpt>
      <trkpt lat="47.64034" lon="4.33644">
        <ele>298.8</ele>
        <time>2026-05-20T09:46:59Z</time>
      </trkpt>
      <trkpt lat="47.64031" lon="4.33645">
        <ele>299</ele>
        <time>2026-05-20T09:47:00Z</time>
      </trkpt>
      <trkpt lat="47.64027" lon="4.33645">
        <ele>299.2</ele>
        <time>2026-05-20T09:47:01Z</time>
      </trkpt>
      <trkpt lat="47.64024" lon="4.33646">
        <ele>299.4</ele>
        <time>2026-05-20T09:47:02Z</time>
      </trkpt>
      <trkpt lat="47.64021" lon="4.33647">
        <ele>299.6</ele>
        <time>2026-05-20T09:47:03Z</time>
      </trkpt>
      <trkpt lat="47.64018" lon="4.33648">
        <ele>299.8</ele>
        <time>2026-05-20T09:47:04Z</time>
      </trkpt>
      <trkpt lat="47.64015" lon="4.33649">
        <ele>300</ele>
        <time>2026-05-20T09:47:05Z</time>
      </trkpt>
      <trkpt lat="47.64011" lon="4.33651">
        <ele>300.8</ele>
        <time>2026-05-20T09:47:06Z</time>
      </trkpt>
      <trkpt lat="47.64008" lon="4.33651">
        <ele>301</ele>
        <time>2026-05-20T09:47:07Z</time>
      </trkpt>
      <trkpt lat="47.64005" lon="4.33653">
        <ele>301.4</ele>
        <time>2026-05-20T09:47:08Z</time>
      </trkpt>
      <trkpt lat="47.64002" lon="4.33654">
        <ele>301.4</ele>
        <time>2026-05-20T09:47:09Z</time>
      </trkpt>
      <trkpt lat="47.63999" lon="4.33656">
        <ele>301.8</ele>
        <time>2026-05-20T09:47:10Z</time>
      </trkpt>
      <trkpt lat="47.63996" lon="4.33658">
        <ele>302</ele>
        <time>2026-05-20T09:47:11Z</time>
      </trkpt>
      <trkpt lat="47.63993" lon="4.33659">
        <ele>302.2</ele>
        <time>2026-05-20T09:47:12Z</time>
      </trkpt>
      <trkpt lat="47.6399" lon="4.33661">
        <ele>302.4</ele>
        <time>2026-05-20T09:47:13Z</time>
      </trkpt>
      <trkpt lat="47.63988" lon="4.33663">
        <ele>302.8</ele>
        <time>2026-05-20T09:47:14Z</time>
      </trkpt>
      <trkpt lat="47.63984" lon="4.33665">
        <ele>303.2</ele>
        <time>2026-05-20T09:47:15Z</time>
      </trkpt>
      <trkpt lat="47.63981" lon="4.33667">
        <ele>303.4</ele>
        <time>2026-05-20T09:47:16Z</time>
      </trkpt>
      <trkpt lat="47.63977" lon="4.33668">
        <ele>303.6</ele>
        <time>2026-05-20T09:47:17Z</time>
      </trkpt>
      <trkpt lat="47.63975" lon="4.33669">
        <ele>303.8</ele>
        <time>2026-05-20T09:47:18Z</time>
      </trkpt>
      <trkpt lat="47.63972" lon="4.33671">
        <ele>303.8</ele>
        <time>2026-05-20T09:47:19Z</time>
      </trkpt>
      <trkpt lat="47.63969" lon="4.33673">
        <ele>304</ele>
        <time>2026-05-20T09:47:20Z</time>
      </trkpt>
      <trkpt lat="47.63966" lon="4.33674">
        <ele>304.2</ele>
        <time>2026-05-20T09:47:21Z</time>
      </trkpt>
      <trkpt lat="47.63963" lon="4.33676">
        <ele>304.2</ele>
        <time>2026-05-20T09:47:22Z</time>
      </trkpt>
      <trkpt lat="47.6396" lon="4.33678">
        <ele>304.4</ele>
        <time>2026-05-20T09:47:23Z</time>
      </trkpt>
      <trkpt lat="47.63958" lon="4.3368">
        <ele>304.6</ele>
        <time>2026-05-20T09:47:24Z</time>
      </trkpt>
      <trkpt lat="47.63955" lon="4.33682">
        <ele>304.8</ele>
        <time>2026-05-20T09:47:25Z</time>
      </trkpt>
      <trkpt lat="47.63952" lon="4.33683">
        <ele>305</ele>
        <time>2026-05-20T09:47:26Z</time>
      </trkpt>
      <trkpt lat="47.63949" lon="4.33685">
        <ele>305.2</ele>
        <time>2026-05-20T09:47:27Z</time>
      </trkpt>
      <trkpt lat="47.63946" lon="4.33687">
        <ele>305.6</ele>
        <time>2026-05-20T09:47:28Z</time>
      </trkpt>
      <trkpt lat="47.63943" lon="4.33689">
        <ele>305.6</ele>
        <time>2026-05-20T09:47:29Z</time>
      </trkpt>
      <trkpt lat="47.6394" lon="4.33691">
        <ele>305.8</ele>
        <time>2026-05-20T09:47:30Z</time>
      </trkpt>
      <trkpt lat="47.63938" lon="4.33692">
        <ele>306</ele>
        <time>2026-05-20T09:47:31Z</time>
      </trkpt>
      <trkpt lat="47.63935" lon="4.33694">
        <ele>306.4</ele>
        <time>2026-05-20T09:47:32Z</time>
      </trkpt>
      <trkpt lat="47.63932" lon="4.33696">
        <ele>306.8</ele>
        <time>2026-05-20T09:47:33Z</time>
      </trkpt>
      <trkpt lat="47.63928" lon="4.33697">
        <ele>307</ele>
        <time>2026-05-20T09:47:34Z</time>
      </trkpt>
      <trkpt lat="47.63925" lon="4.33699">
        <ele>307.4</ele>
        <time>2026-05-20T09:47:35Z</time>
      </trkpt>
      <trkpt lat="47.63922" lon="4.33701">
        <ele>307.6</ele>
        <time>2026-05-20T09:47:36Z</time>
      </trkpt>
      <trkpt lat="47.63919" lon="4.33703">
        <ele>307.8</ele>
        <time>2026-05-20T09:47:37Z</time>
      </trkpt>
      <trkpt lat="47.63916" lon="4.33705">
        <ele>307.8</ele>
        <time>2026-05-20T09:47:38Z</time>
      </trkpt>
      <trkpt lat="47.63913" lon="4.33707">
        <ele>308</ele>
        <time>2026-05-20T09:47:39Z</time>
      </trkpt>
      <trkpt lat="47.6391" lon="4.33709">
        <ele>308</ele>
        <time>2026-05-20T09:47:40Z</time>
      </trkpt>
      <trkpt lat="47.63907" lon="4.33711">
        <ele>308.2</ele>
        <time>2026-05-20T09:47:41Z</time>
      </trkpt>
      <trkpt lat="47.63904" lon="4.33713">
        <ele>308.4</ele>
        <time>2026-05-20T09:47:42Z</time>
      </trkpt>
      <trkpt lat="47.63901" lon="4.33716">
        <ele>308.4</ele>
        <time>2026-05-20T09:47:43Z</time>
      </trkpt>
      <trkpt lat="47.63898" lon="4.33718">
        <ele>308.6</ele>
        <time>2026-05-20T09:47:44Z</time>
      </trkpt>
      <trkpt lat="47.63895" lon="4.33721">
        <ele>308.6</ele>
        <time>2026-05-20T09:47:45Z</time>
      </trkpt>
      <trkpt lat="47.63892" lon="4.33723">
        <ele>308.6</ele>
        <time>2026-05-20T09:47:46Z</time>
      </trkpt>
      <trkpt lat="47.63889" lon="4.33726">
        <ele>308.8</ele>
        <time>2026-05-20T09:47:47Z</time>
      </trkpt>
      <trkpt lat="47.63886" lon="4.33728">
        <ele>309</ele>
        <time>2026-05-20T09:47:48Z</time>
      </trkpt>
      <trkpt lat="47.63883" lon="4.33731">
        <ele>309</ele>
        <time>2026-05-20T09:47:49Z</time>
      </trkpt>
      <trkpt lat="47.6388" lon="4.33733">
        <ele>309.4</ele>
        <time>2026-05-20T09:47:50Z</time>
      </trkpt>
      <trkpt lat="47.63877" lon="4.33735">
        <ele>309.6</ele>
        <time>2026-05-20T09:47:51Z</time>
      </trkpt>
      <trkpt lat="47.63874" lon="4.33738">
        <ele>309.6</ele>
        <time>2026-05-20T09:47:52Z</time>
      </trkpt>
      <trkpt lat="47.63871" lon="4.33741">
        <ele>309.8</ele>
        <time>2026-05-20T09:47:53Z</time>
      </trkpt>
      <trkpt lat="47.63868" lon="4.33743">
        <ele>309.8</ele>
        <time>2026-05-20T09:47:54Z</time>
      </trkpt>
      <trkpt lat="47.63865" lon="4.33746">
        <ele>310</ele>
        <time>2026-05-20T09:47:55Z</time>
      </trkpt>
      <trkpt lat="47.63862" lon="4.33748">
        <ele>310</ele>
        <time>2026-05-20T09:47:56Z</time>
      </trkpt>
      <trkpt lat="47.63859" lon="4.33751">
        <ele>310.2</ele>
        <time>2026-05-20T09:47:57Z</time>
      </trkpt>
      <trkpt lat="47.63856" lon="4.33754">
        <ele>310.2</ele>
        <time>2026-05-20T09:47:58Z</time>
      </trkpt>
      <trkpt lat="47.63853" lon="4.33757">
        <ele>310.4</ele>
        <time>2026-05-20T09:47:59Z</time>
      </trkpt>
      <trkpt lat="47.6385" lon="4.3376">
        <ele>310.6</ele>
        <time>2026-05-20T09:48:00Z</time>
      </trkpt>
      <trkpt lat="47.63847" lon="4.33764">
        <ele>310.6</ele>
        <time>2026-05-20T09:48:01Z</time>
      </trkpt>
      <trkpt lat="47.63844" lon="4.33769">
        <ele>310.8</ele>
        <time>2026-05-20T09:48:02Z</time>
      </trkpt>
      <trkpt lat="47.63843" lon="4.33775">
        <ele>310.8</ele>
        <time>2026-05-20T09:48:03Z</time>
      </trkpt>
      <trkpt lat="47.63843" lon="4.33782">
        <ele>310.8</ele>
        <time>2026-05-20T09:48:04Z</time>
      </trkpt>
      <trkpt lat="47.63843" lon="4.33787">
        <ele>310.8</ele>
        <time>2026-05-20T09:48:05Z</time>
      </trkpt>
      <trkpt lat="47.63844" lon="4.33794">
        <ele>311</ele>
        <time>2026-05-20T09:48:06Z</time>
      </trkpt>
      <trkpt lat="47.63846" lon="4.338">
        <ele>311</ele>
        <time>2026-05-20T09:48:07Z</time>
      </trkpt>
      <trkpt lat="47.63848" lon="4.33803">
        <ele>311</ele>
        <time>2026-05-20T09:48:08Z</time>
      </trkpt>
      <trkpt lat="47.63851" lon="4.33807">
        <ele>311</ele>
        <time>2026-05-20T09:48:09Z</time>
      </trkpt>
      <trkpt lat="47.63855" lon="4.3381">
        <ele>311</ele>
        <time>2026-05-20T09:48:10Z</time>
      </trkpt>
      <trkpt lat="47.6386" lon="4.33812">
        <ele>311.2</ele>
        <time>2026-05-20T09:48:11Z</time>
      </trkpt>
      <trkpt lat="47.63864" lon="4.33813">
        <ele>311.4</ele>
        <time>2026-05-20T09:48:12Z</time>
      </trkpt>
      <trkpt lat="47.63868" lon="4.33814">
        <ele>311.4</ele>
        <time>2026-05-20T09:48:13Z</time>
      </trkpt>
      <trkpt lat="47.63872" lon="4.33813">
        <ele>311.6</ele>
        <time>2026-05-20T09:48:14Z</time>
      </trkpt>
      <trkpt lat="47.63877" lon="4.33812">
        <ele>311.6</ele>
        <time>2026-05-20T09:48:15Z</time>
      </trkpt>
      <trkpt lat="47.63881" lon="4.33811">
        <ele>311.8</ele>
        <time>2026-05-20T09:48:16Z</time>
      </trkpt>
      <trkpt lat="47.63885" lon="4.3381">
        <ele>311.8</ele>
        <time>2026-05-20T09:48:17Z</time>
      </trkpt>
      <trkpt lat="47.63888" lon="4.3381">
        <ele>312</ele>
        <time>2026-05-20T09:48:18Z</time>
      </trkpt>
      <trkpt lat="47.63892" lon="4.3381">
        <ele>312</ele>
        <time>2026-05-20T09:48:19Z</time>
      </trkpt>
      <trkpt lat="47.63896" lon="4.3381">
        <ele>312.2</ele>
        <time>2026-05-20T09:48:20Z</time>
      </trkpt>
      <trkpt lat="47.63899" lon="4.33809">
        <ele>312.2</ele>
        <time>2026-05-20T09:48:21Z</time>
      </trkpt>
      <trkpt lat="47.63903" lon="4.33809">
        <ele>312.2</ele>
        <time>2026-05-20T09:48:22Z</time>
      </trkpt>
      <trkpt lat="47.63905" lon="4.33808">
        <ele>312.4</ele>
        <time>2026-05-20T09:48:23Z</time>
      </trkpt>
      <trkpt lat="47.63909" lon="4.33809">
        <ele>312.4</ele>
        <time>2026-05-20T09:48:24Z</time>
      </trkpt>
      <trkpt lat="47.63913" lon="4.33809">
        <ele>312.4</ele>
        <time>2026-05-20T09:48:25Z</time>
      </trkpt>
      <trkpt lat="47.63917" lon="4.33809">
        <ele>312.6</ele>
        <time>2026-05-20T09:48:26Z</time>
      </trkpt>
      <trkpt lat="47.63921" lon="4.3381">
        <ele>312.8</ele>
        <time>2026-05-20T09:48:27Z</time>
      </trkpt>
      <trkpt lat="47.63924" lon="4.3381">
        <ele>313</ele>
        <time>2026-05-20T09:48:28Z</time>
      </trkpt>
      <trkpt lat="47.63927" lon="4.33811">
        <ele>313.4</ele>
        <time>2026-05-20T09:48:29Z</time>
      </trkpt>
      <trkpt lat="47.6393" lon="4.33811">
        <ele>313.6</ele>
        <time>2026-05-20T09:48:30Z</time>
      </trkpt>
      <trkpt lat="47.63934" lon="4.33812">
        <ele>313.8</ele>
        <time>2026-05-20T09:48:31Z</time>
      </trkpt>
      <trkpt lat="47.63936" lon="4.33812">
        <ele>314</ele>
        <time>2026-05-20T09:48:32Z</time>
      </trkpt>
      <trkpt lat="47.63939" lon="4.33812">
        <ele>314.2</ele>
        <time>2026-05-20T09:48:33Z</time>
      </trkpt>
      <trkpt lat="47.63942" lon="4.33813">
        <ele>314.2</ele>
        <time>2026-05-20T09:48:34Z</time>
      </trkpt>
      <trkpt lat="47.63944" lon="4.33814">
        <ele>314.4</ele>
        <time>2026-05-20T09:48:35Z</time>
      </trkpt>
      <trkpt lat="47.63946" lon="4.33815">
        <ele>314.8</ele>
        <time>2026-05-20T09:48:36Z</time>
      </trkpt>
      <trkpt lat="47.63949" lon="4.33817">
        <ele>314.8</ele>
        <time>2026-05-20T09:48:37Z</time>
      </trkpt>
      <trkpt lat="47.63951" lon="4.33819">
        <ele>315</ele>
        <time>2026-05-20T09:48:38Z</time>
      </trkpt>
      <trkpt lat="47.63954" lon="4.33821">
        <ele>315.2</ele>
        <time>2026-05-20T09:48:39Z</time>
      </trkpt>
      <trkpt lat="47.63958" lon="4.33824">
        <ele>315.6</ele>
        <time>2026-05-20T09:48:40Z</time>
      </trkpt>
      <trkpt lat="47.63962" lon="4.33827">
        <ele>315.6</ele>
        <time>2026-05-20T09:48:41Z</time>
      </trkpt>
      <trkpt lat="47.63966" lon="4.33829">
        <ele>315.8</ele>
        <time>2026-05-20T09:48:42Z</time>
      </trkpt>
      <trkpt lat="47.6397" lon="4.33832">
        <ele>316</ele>
        <time>2026-05-20T09:48:43Z</time>
      </trkpt>
      <trkpt lat="47.63973" lon="4.33834">
        <ele>316.2</ele>
        <time>2026-05-20T09:48:44Z</time>
      </trkpt>
      <trkpt lat="47.63976" lon="4.33836">
        <ele>316.2</ele>
        <time>2026-05-20T09:48:45Z</time>
      </trkpt>
      <trkpt lat="47.63979" lon="4.3384">
        <ele>316.2</ele>
        <time>2026-05-20T09:48:46Z</time>
      </trkpt>
      <trkpt lat="47.63983" lon="4.33843">
        <ele>316.4</ele>
        <time>2026-05-20T09:48:47Z</time>
      </trkpt>
      <trkpt lat="47.63987" lon="4.33847">
        <ele>316.6</ele>
        <time>2026-05-20T09:48:48Z</time>
      </trkpt>
      <trkpt lat="47.63991" lon="4.3385">
        <ele>317</ele>
        <time>2026-05-20T09:48:49Z</time>
      </trkpt>
      <trkpt lat="47.63994" lon="4.33854">
        <ele>317</ele>
        <time>2026-05-20T09:48:50Z</time>
      </trkpt>
      <trkpt lat="47.63998" lon="4.33858">
        <ele>317.2</ele>
        <time>2026-05-20T09:48:51Z</time>
      </trkpt>
      <trkpt lat="47.64001" lon="4.33862">
        <ele>317.2</ele>
        <time>2026-05-20T09:48:52Z</time>
      </trkpt>
      <trkpt lat="47.64005" lon="4.33866">
        <ele>317.2</ele>
        <time>2026-05-20T09:48:53Z</time>
      </trkpt>
      <trkpt lat="47.64008" lon="4.33869">
        <ele>317.4</ele>
        <time>2026-05-20T09:48:54Z</time>
      </trkpt>
      <trkpt lat="47.64012" lon="4.33874">
        <ele>317.4</ele>
        <time>2026-05-20T09:48:55Z</time>
      </trkpt>
      <trkpt lat="47.64016" lon="4.33878">
        <ele>317.6</ele>
        <time>2026-05-20T09:48:56Z</time>
      </trkpt>
      <trkpt lat="47.6402" lon="4.33882">
        <ele>317.6</ele>
        <time>2026-05-20T09:48:57Z</time>
      </trkpt>
      <trkpt lat="47.64024" lon="4.33886">
        <ele>317.8</ele>
        <time>2026-05-20T09:48:58Z</time>
      </trkpt>
      <trkpt lat="47.64028" lon="4.3389">
        <ele>317.8</ele>
        <time>2026-05-20T09:48:59Z</time>
      </trkpt>
      <trkpt lat="47.64032" lon="4.33894">
        <ele>317.8</ele>
        <time>2026-05-20T09:49:00Z</time>
      </trkpt>
      <trkpt lat="47.64037" lon="4.33899">
        <ele>317.8</ele>
        <time>2026-05-20T09:49:01Z</time>
      </trkpt>
      <trkpt lat="47.64041" lon="4.33904">
        <ele>317.8</ele>
        <time>2026-05-20T09:49:02Z</time>
      </trkpt>
      <trkpt lat="47.64044" lon="4.33907">
        <ele>317.8</ele>
        <time>2026-05-20T09:49:03Z</time>
      </trkpt>
      <trkpt lat="47.64048" lon="4.33912">
        <ele>317.8</ele>
        <time>2026-05-20T09:49:04Z</time>
      </trkpt>
      <trkpt lat="47.64051" lon="4.33916">
        <ele>317.8</ele>
        <time>2026-05-20T09:49:05Z</time>
      </trkpt>
      <trkpt lat="47.64053" lon="4.3392">
        <ele>317.8</ele>
        <time>2026-05-20T09:49:06Z</time>
      </trkpt>
      <trkpt lat="47.64056" lon="4.33925">
        <ele>317.8</ele>
        <time>2026-05-20T09:49:07Z</time>
      </trkpt>
      <trkpt lat="47.64057" lon="4.33931">
        <ele>317.8</ele>
        <time>2026-05-20T09:49:08Z</time>
      </trkpt>
      <trkpt lat="47.64057" lon="4.33937">
        <ele>318</ele>
        <time>2026-05-20T09:49:09Z</time>
      </trkpt>
      <trkpt lat="47.64054" lon="4.33942">
        <ele>318</ele>
        <time>2026-05-20T09:49:10Z</time>
      </trkpt>
      <trkpt lat="47.64051" lon="4.33946">
        <ele>318</ele>
        <time>2026-05-20T09:49:11Z</time>
      </trkpt>
      <trkpt lat="47.64047" lon="4.33948">
        <ele>318</ele>
        <time>2026-05-20T09:49:12Z</time>
      </trkpt>
      <trkpt lat="47.64044" lon="4.33948">
        <ele>318.2</ele>
        <time>2026-05-20T09:49:13Z</time>
      </trkpt>
      <trkpt lat="47.64041" lon="4.33947">
        <ele>318.2</ele>
        <time>2026-05-20T09:49:14Z</time>
      </trkpt>
      <trkpt lat="47.64037" lon="4.33946">
        <ele>318.4</ele>
        <time>2026-05-20T09:49:15Z</time>
      </trkpt>
      <trkpt lat="47.64033" lon="4.33944">
        <ele>318.4</ele>
        <time>2026-05-20T09:49:16Z</time>
      </trkpt>
      <trkpt lat="47.64029" lon="4.33943">
        <ele>318.6</ele>
        <time>2026-05-20T09:49:17Z</time>
      </trkpt>
      <trkpt lat="47.64025" lon="4.33941">
        <ele>319</ele>
        <time>2026-05-20T09:49:18Z</time>
      </trkpt>
      <trkpt lat="47.64022" lon="4.3394">
        <ele>319</ele>
        <time>2026-05-20T09:49:19Z</time>
      </trkpt>
      <trkpt lat="47.64018" lon="4.3394">
        <ele>319</ele>
        <time>2026-05-20T09:49:20Z</time>
      </trkpt>
      <trkpt lat="47.64014" lon="4.33939">
        <ele>319.2</ele>
        <time>2026-05-20T09:49:21Z</time>
      </trkpt>
      <trkpt lat="47.6401" lon="4.33939">
        <ele>319.2</ele>
        <time>2026-05-20T09:49:22Z</time>
      </trkpt>
      <trkpt lat="47.6401" lon="4.33939">
        <ele>319.6</ele>
        <time>2026-05-20T09:49:23Z</time>
      </trkpt>
      <trkpt lat="47.64003" lon="4.33943">
        <ele>319.6</ele>
        <time>2026-05-20T09:49:24Z</time>
      </trkpt>
      <trkpt lat="47.64" lon="4.33947">
        <ele>319.6</ele>
        <time>2026-05-20T09:49:25Z</time>
      </trkpt>
      <trkpt lat="47.63998" lon="4.33952">
        <ele>319.6</ele>
        <time>2026-05-20T09:49:26Z</time>
      </trkpt>
      <trkpt lat="47.63996" lon="4.33957">
        <ele>319.6</ele>
        <time>2026-05-20T09:49:27Z</time>
      </trkpt>
      <trkpt lat="47.63996" lon="4.33962">
        <ele>319.8</ele>
        <time>2026-05-20T09:49:28Z</time>
      </trkpt>
      <trkpt lat="47.63995" lon="4.33968">
        <ele>319.8</ele>
        <time>2026-05-20T09:49:29Z</time>
      </trkpt>
      <trkpt lat="47.63995" lon="4.33973">
        <ele>319.8</ele>
        <time>2026-05-20T09:49:30Z</time>
      </trkpt>
      <trkpt lat="47.63994" lon="4.33979">
        <ele>320.2</ele>
        <time>2026-05-20T09:49:31Z</time>
      </trkpt>
      <trkpt lat="47.63994" lon="4.33984">
        <ele>320.2</ele>
        <time>2026-05-20T09:49:32Z</time>
      </trkpt>
      <trkpt lat="47.63994" lon="4.33989">
        <ele>320.2</ele>
        <time>2026-05-20T09:49:33Z</time>
      </trkpt>
      <trkpt lat="47.63993" lon="4.33995">
        <ele>320.2</ele>
        <time>2026-05-20T09:49:34Z</time>
      </trkpt>
      <trkpt lat="47.63993" lon="4.34">
        <ele>320.4</ele>
        <time>2026-05-20T09:49:35Z</time>
      </trkpt>
      <trkpt lat="47.63992" lon="4.34006">
        <ele>320.6</ele>
        <time>2026-05-20T09:49:36Z</time>
      </trkpt>
      <trkpt lat="47.63992" lon="4.34011">
        <ele>321</ele>
        <time>2026-05-20T09:49:37Z</time>
      </trkpt>
      <trkpt lat="47.6399" lon="4.34016">
        <ele>321</ele>
        <time>2026-05-20T09:49:38Z</time>
      </trkpt>
      <trkpt lat="47.63989" lon="4.34022">
        <ele>321</ele>
        <time>2026-05-20T09:49:39Z</time>
      </trkpt>
      <trkpt lat="47.63987" lon="4.34027">
        <ele>321.2</ele>
        <time>2026-05-20T09:49:40Z</time>
      </trkpt>
      <trkpt lat="47.63985" lon="4.34031">
        <ele>321.6</ele>
        <time>2026-05-20T09:49:41Z</time>
      </trkpt>
      <trkpt lat="47.63982" lon="4.34035">
        <ele>321.6</ele>
        <time>2026-05-20T09:49:42Z</time>
      </trkpt>
      <trkpt lat="47.63979" lon="4.34038">
        <ele>321.6</ele>
        <time>2026-05-20T09:49:43Z</time>
      </trkpt>
      <trkpt lat="47.63979" lon="4.34038">
        <ele>321.6</ele>
        <time>2026-05-20T09:49:44Z</time>
      </trkpt>
      <trkpt lat="47.63973" lon="4.34042">
        <ele>321.8</ele>
        <time>2026-05-20T09:49:45Z</time>
      </trkpt>
      <trkpt lat="47.63969" lon="4.34043">
        <ele>321.8</ele>
        <time>2026-05-20T09:49:46Z</time>
      </trkpt>
      <trkpt lat="47.63965" lon="4.34044">
        <ele>321.8</ele>
        <time>2026-05-20T09:49:47Z</time>
      </trkpt>
      <trkpt lat="47.63961" lon="4.34043">
        <ele>322</ele>
        <time>2026-05-20T09:49:48Z</time>
      </trkpt>
      <trkpt lat="47.63957" lon="4.34044">
        <ele>322</ele>
        <time>2026-05-20T09:49:49Z</time>
      </trkpt>
      <trkpt lat="47.63953" lon="4.34043">
        <ele>322.2</ele>
        <time>2026-05-20T09:49:50Z</time>
      </trkpt>
      <trkpt lat="47.63949" lon="4.34043">
        <ele>322.2</ele>
        <time>2026-05-20T09:49:51Z</time>
      </trkpt>
      <trkpt lat="47.63943" lon="4.34043">
        <ele>322.2</ele>
        <time>2026-05-20T09:49:52Z</time>
      </trkpt>
      <trkpt lat="47.6394" lon="4.34044">
        <ele>322.2</ele>
        <time>2026-05-20T09:49:53Z</time>
      </trkpt>
      <trkpt lat="47.63936" lon="4.34045">
        <ele>322.4</ele>
        <time>2026-05-20T09:49:54Z</time>
      </trkpt>
      <trkpt lat="47.63932" lon="4.34047">
        <ele>322.4</ele>
        <time>2026-05-20T09:49:55Z</time>
      </trkpt>
      <trkpt lat="47.63929" lon="4.34049">
        <ele>322.4</ele>
        <time>2026-05-20T09:49:56Z</time>
      </trkpt>
      <trkpt lat="47.63925" lon="4.34052">
        <ele>322.4</ele>
        <time>2026-05-20T09:49:57Z</time>
      </trkpt>
      <trkpt lat="47.63922" lon="4.34056">
        <ele>322.4</ele>
        <time>2026-05-20T09:49:58Z</time>
      </trkpt>
      <trkpt lat="47.63919" lon="4.34059">
        <ele>322.4</ele>
        <time>2026-05-20T09:49:59Z</time>
      </trkpt>
      <trkpt lat="47.63917" lon="4.34064">
        <ele>322.4</ele>
        <time>2026-05-20T09:50:00Z</time>
      </trkpt>
      <trkpt lat="47.63916" lon="4.34068">
        <ele>322.8</ele>
        <time>2026-05-20T09:50:01Z</time>
      </trkpt>
      <trkpt lat="47.63917" lon="4.34072">
        <ele>322.8</ele>
        <time>2026-05-20T09:50:02Z</time>
      </trkpt>
      <trkpt lat="47.63918" lon="4.34076">
        <ele>322.8</ele>
        <time>2026-05-20T09:50:03Z</time>
      </trkpt>
      <trkpt lat="47.6392" lon="4.34079">
        <ele>322.8</ele>
        <time>2026-05-20T09:50:04Z</time>
      </trkpt>
      <trkpt lat="47.63923" lon="4.3408">
        <ele>322.8</ele>
        <time>2026-05-20T09:50:05Z</time>
      </trkpt>
      <trkpt lat="47.63924" lon="4.34081">
        <ele>322.8</ele>
        <time>2026-05-20T09:50:06Z</time>
      </trkpt>
      <trkpt lat="47.63926" lon="4.34081">
        <ele>322.8</ele>
        <time>2026-05-20T09:50:07Z</time>
      </trkpt>
      <trkpt lat="47.63927" lon="4.34082">
        <ele>322.8</ele>
        <time>2026-05-20T09:50:08Z</time>
      </trkpt>
      <trkpt lat="47.63927" lon="4.34082">
        <ele>322.8</ele>
        <time>2026-05-20T09:50:09Z</time>
      </trkpt>
      <trkpt lat="47.63928" lon="4.34082">
        <ele>322.4</ele>
        <time>2026-05-20T09:50:10Z</time>
      </trkpt>
      <trkpt lat="47.63928" lon="4.34082">
        <ele>322.4</ele>
        <time>2026-05-20T09:50:11Z</time>
      </trkpt>
      <trkpt lat="47.63928" lon="4.34082">
        <ele>322.4</ele>
        <time>2026-05-20T09:50:12Z</time>
      </trkpt>
    </trkseg>
  </trk>
</gpx>